<?xml version="1.0" encoding="UTF-8" standalone="no" ?>
<gpx xmlns="http://www.topografix.com/GPX/1/1" xmlns:xsi="http://www.w3.org/2001/XMLSchema-instance" xsi:schemaLocation="http://www.topografix.com/GPX/1/1 http://www.topografix.com/GPX/1/1/gpx.xsd" version="1.1" creator="VisuGPX - https://www.visugpx.com">
  <metadata>
    <name>Chenecey a l'Hopital du gros_Bois</name>
    <desc><![CDATA[Randonnée VTT de Chenecey-Buillon à l'Hopital du Gros Bois, par les petits chemins de détour.]]></desc>
  </metadata>
  <trk>
    <name><![CDATA[20220810-080800 - Hôpital, Mamirolle]]></name>
    <trkseg>
      <trkpt lat="47.13809" lon="5.97348">
        <ele>355.8</ele>
        <time>2022-08-10T06:08:00Z</time>
      </trkpt>
      <trkpt lat="47.1381" lon="5.97346">
        <ele>358.1</ele>
        <time>2022-08-10T06:08:01Z</time>
      </trkpt>
      <trkpt lat="47.13809" lon="5.97344">
        <ele>358.9</ele>
        <time>2022-08-10T06:08:02Z</time>
      </trkpt>
      <trkpt lat="47.13809" lon="5.97343">
        <ele>360.1</ele>
        <time>2022-08-10T06:08:03Z</time>
      </trkpt>
      <trkpt lat="47.1381" lon="5.97345">
        <ele>359.7</ele>
        <time>2022-08-10T06:08:04Z</time>
      </trkpt>
      <trkpt lat="47.1381" lon="5.97347">
        <ele>358.8</ele>
        <time>2022-08-10T06:08:05Z</time>
      </trkpt>
      <trkpt lat="47.1381" lon="5.97349">
        <ele>358.8</ele>
        <time>2022-08-10T06:08:06Z</time>
      </trkpt>
      <trkpt lat="47.1381" lon="5.97353">
        <ele>356.6</ele>
        <time>2022-08-10T06:08:07Z</time>
      </trkpt>
      <trkpt lat="47.1381" lon="5.97354">
        <ele>356.1</ele>
        <time>2022-08-10T06:08:08Z</time>
      </trkpt>
      <trkpt lat="47.1381" lon="5.97354">
        <ele>356.8</ele>
        <time>2022-08-10T06:08:09Z</time>
      </trkpt>
      <trkpt lat="47.1381" lon="5.97355">
        <ele>358.4</ele>
        <time>2022-08-10T06:08:10Z</time>
      </trkpt>
      <trkpt lat="47.1381" lon="5.97357">
        <ele>358.8</ele>
        <time>2022-08-10T06:08:11Z</time>
      </trkpt>
      <trkpt lat="47.1381" lon="5.97358">
        <ele>358.6</ele>
        <time>2022-08-10T06:08:12Z</time>
      </trkpt>
      <trkpt lat="47.1381" lon="5.97359">
        <ele>359.3</ele>
        <time>2022-08-10T06:08:13Z</time>
      </trkpt>
      <trkpt lat="47.13809" lon="5.97359">
        <ele>360.1</ele>
        <time>2022-08-10T06:08:14Z</time>
      </trkpt>
      <trkpt lat="47.13809" lon="5.9736">
        <ele>360.5</ele>
        <time>2022-08-10T06:08:15Z</time>
      </trkpt>
      <trkpt lat="47.13809" lon="5.97362">
        <ele>360.4</ele>
        <time>2022-08-10T06:08:16Z</time>
      </trkpt>
      <trkpt lat="47.13809" lon="5.97363">
        <ele>360.6</ele>
        <time>2022-08-10T06:08:17Z</time>
      </trkpt>
      <trkpt lat="47.13809" lon="5.97364">
        <ele>360.6</ele>
        <time>2022-08-10T06:08:18Z</time>
      </trkpt>
      <trkpt lat="47.13809" lon="5.97365">
        <ele>360.8</ele>
        <time>2022-08-10T06:08:19Z</time>
      </trkpt>
      <trkpt lat="47.13809" lon="5.97366">
        <ele>361.3</ele>
        <time>2022-08-10T06:08:20Z</time>
      </trkpt>
      <trkpt lat="47.1381" lon="5.97367">
        <ele>361.7</ele>
        <time>2022-08-10T06:08:21Z</time>
      </trkpt>
      <trkpt lat="47.13811" lon="5.97368">
        <ele>362.8</ele>
        <time>2022-08-10T06:08:22Z</time>
      </trkpt>
      <trkpt lat="47.13811" lon="5.97369">
        <ele>363.5</ele>
        <time>2022-08-10T06:08:23Z</time>
      </trkpt>
      <trkpt lat="47.13812" lon="5.9737">
        <ele>364.3</ele>
        <time>2022-08-10T06:08:24Z</time>
      </trkpt>
      <trkpt lat="47.13812" lon="5.9737">
        <ele>365.2</ele>
        <time>2022-08-10T06:08:25Z</time>
      </trkpt>
      <trkpt lat="47.13813" lon="5.9737">
        <ele>365.8</ele>
        <time>2022-08-10T06:08:26Z</time>
      </trkpt>
      <trkpt lat="47.13813" lon="5.97371">
        <ele>366.3</ele>
        <time>2022-08-10T06:08:27Z</time>
      </trkpt>
      <trkpt lat="47.13815" lon="5.97369">
        <ele>367.9</ele>
        <time>2022-08-10T06:08:28Z</time>
      </trkpt>
      <trkpt lat="47.13817" lon="5.97367">
        <ele>370</ele>
        <time>2022-08-10T06:08:29Z</time>
      </trkpt>
      <trkpt lat="47.13818" lon="5.97365">
        <ele>368.8</ele>
        <time>2022-08-10T06:08:30Z</time>
      </trkpt>
      <trkpt lat="47.13819" lon="5.97365">
        <ele>369.5</ele>
        <time>2022-08-10T06:08:31Z</time>
      </trkpt>
      <trkpt lat="47.13821" lon="5.97364">
        <ele>370.5</ele>
        <time>2022-08-10T06:08:32Z</time>
      </trkpt>
      <trkpt lat="47.13822" lon="5.97364">
        <ele>371</ele>
        <time>2022-08-10T06:08:33Z</time>
      </trkpt>
      <trkpt lat="47.13825" lon="5.97364">
        <ele>371.6</ele>
        <time>2022-08-10T06:08:34Z</time>
      </trkpt>
      <trkpt lat="47.13826" lon="5.97362">
        <ele>372.8</ele>
        <time>2022-08-10T06:08:35Z</time>
      </trkpt>
      <trkpt lat="47.13829" lon="5.9736">
        <ele>372</ele>
        <time>2022-08-10T06:08:36Z</time>
      </trkpt>
      <trkpt lat="47.13829" lon="5.97359">
        <ele>374.4</ele>
        <time>2022-08-10T06:08:37Z</time>
      </trkpt>
      <trkpt lat="47.1383" lon="5.97356">
        <ele>376.6</ele>
        <time>2022-08-10T06:08:38Z</time>
      </trkpt>
      <trkpt lat="47.1383" lon="5.97353">
        <ele>377.2</ele>
        <time>2022-08-10T06:08:39Z</time>
      </trkpt>
      <trkpt lat="47.13832" lon="5.97353">
        <ele>371.8</ele>
        <time>2022-08-10T06:08:40Z</time>
      </trkpt>
      <trkpt lat="47.13831" lon="5.97354">
        <ele>371.4</ele>
        <time>2022-08-10T06:08:41Z</time>
      </trkpt>
      <trkpt lat="47.13832" lon="5.97354">
        <ele>370.9</ele>
        <time>2022-08-10T06:08:42Z</time>
      </trkpt>
      <trkpt lat="47.13831" lon="5.97355">
        <ele>370.1</ele>
        <time>2022-08-10T06:08:43Z</time>
      </trkpt>
      <trkpt lat="47.1383" lon="5.97353">
        <ele>371.2</ele>
        <time>2022-08-10T06:08:44Z</time>
      </trkpt>
      <trkpt lat="47.13829" lon="5.9735">
        <ele>372.1</ele>
        <time>2022-08-10T06:08:45Z</time>
      </trkpt>
      <trkpt lat="47.13827" lon="5.97348">
        <ele>373.1</ele>
        <time>2022-08-10T06:08:46Z</time>
      </trkpt>
      <trkpt lat="47.13826" lon="5.97345">
        <ele>374.9</ele>
        <time>2022-08-10T06:08:47Z</time>
      </trkpt>
      <trkpt lat="47.13824" lon="5.97346">
        <ele>374.9</ele>
        <time>2022-08-10T06:08:48Z</time>
      </trkpt>
      <trkpt lat="47.13823" lon="5.97346">
        <ele>375.5</ele>
        <time>2022-08-10T06:08:49Z</time>
      </trkpt>
      <trkpt lat="47.13822" lon="5.97346">
        <ele>376.7</ele>
        <time>2022-08-10T06:08:50Z</time>
      </trkpt>
      <trkpt lat="47.13822" lon="5.97346">
        <ele>376.4</ele>
        <time>2022-08-10T06:08:51Z</time>
      </trkpt>
      <trkpt lat="47.13822" lon="5.97346">
        <ele>375.9</ele>
        <time>2022-08-10T06:08:52Z</time>
      </trkpt>
      <trkpt lat="47.13821" lon="5.97346">
        <ele>376</ele>
        <time>2022-08-10T06:08:53Z</time>
      </trkpt>
      <trkpt lat="47.13822" lon="5.97344">
        <ele>377.5</ele>
        <time>2022-08-10T06:08:54Z</time>
      </trkpt>
      <trkpt lat="47.13821" lon="5.97339">
        <ele>381.9</ele>
        <time>2022-08-10T06:08:55Z</time>
      </trkpt>
      <trkpt lat="47.13822" lon="5.97339">
        <ele>382.7</ele>
        <time>2022-08-10T06:08:56Z</time>
      </trkpt>
      <trkpt lat="47.13822" lon="5.97338">
        <ele>382.9</ele>
        <time>2022-08-10T06:08:57Z</time>
      </trkpt>
      <trkpt lat="47.13822" lon="5.97339">
        <ele>383.1</ele>
        <time>2022-08-10T06:08:58Z</time>
      </trkpt>
      <trkpt lat="47.13822" lon="5.97339">
        <ele>381.6</ele>
        <time>2022-08-10T06:08:59Z</time>
      </trkpt>
      <trkpt lat="47.13821" lon="5.97339">
        <ele>381.1</ele>
        <time>2022-08-10T06:09:00Z</time>
      </trkpt>
      <trkpt lat="47.13815" lon="5.97344">
        <ele>367</ele>
        <time>2022-08-10T06:09:01Z</time>
      </trkpt>
      <trkpt lat="47.13812" lon="5.97346">
        <ele>362.3</ele>
        <time>2022-08-10T06:09:02Z</time>
      </trkpt>
      <trkpt lat="47.13811" lon="5.97346">
        <ele>360.9</ele>
        <time>2022-08-10T06:09:03Z</time>
      </trkpt>
      <trkpt lat="47.1381" lon="5.97345">
        <ele>360.2</ele>
        <time>2022-08-10T06:09:04Z</time>
      </trkpt>
      <trkpt lat="47.13809" lon="5.97344">
        <ele>359.8</ele>
        <time>2022-08-10T06:09:05Z</time>
      </trkpt>
      <trkpt lat="47.13809" lon="5.97344">
        <ele>359.8</ele>
        <time>2022-08-10T06:09:06Z</time>
      </trkpt>
      <trkpt lat="47.13809" lon="5.97344">
        <ele>359.8</ele>
        <time>2022-08-10T06:09:07Z</time>
      </trkpt>
      <trkpt lat="47.13809" lon="5.97344">
        <ele>359.8</ele>
        <time>2022-08-10T06:09:08Z</time>
      </trkpt>
      <trkpt lat="47.13809" lon="5.97344">
        <ele>359.8</ele>
        <time>2022-08-10T06:09:09Z</time>
      </trkpt>
      <trkpt lat="47.13809" lon="5.97344">
        <ele>359.8</ele>
        <time>2022-08-10T06:09:10Z</time>
      </trkpt>
      <trkpt lat="47.13809" lon="5.97344">
        <ele>359.8</ele>
        <time>2022-08-10T06:09:11Z</time>
      </trkpt>
      <trkpt lat="47.13809" lon="5.97344">
        <ele>359.8</ele>
        <time>2022-08-10T06:09:12Z</time>
      </trkpt>
      <trkpt lat="47.13809" lon="5.97344">
        <ele>359.8</ele>
        <time>2022-08-10T06:09:13Z</time>
      </trkpt>
      <trkpt lat="47.13809" lon="5.97344">
        <ele>359.8</ele>
        <time>2022-08-10T06:09:14Z</time>
      </trkpt>
      <trkpt lat="47.13809" lon="5.97344">
        <ele>359.8</ele>
        <time>2022-08-10T06:09:15Z</time>
      </trkpt>
      <trkpt lat="47.13809" lon="5.97344">
        <ele>359.8</ele>
        <time>2022-08-10T06:09:16Z</time>
      </trkpt>
      <trkpt lat="47.13809" lon="5.97344">
        <ele>359.8</ele>
        <time>2022-08-10T06:09:17Z</time>
      </trkpt>
      <trkpt lat="47.13807" lon="5.97337">
        <ele>360.1</ele>
        <time>2022-08-10T06:09:18Z</time>
      </trkpt>
      <trkpt lat="47.13807" lon="5.97335">
        <ele>360.6</ele>
        <time>2022-08-10T06:09:19Z</time>
      </trkpt>
      <trkpt lat="47.13806" lon="5.9733">
        <ele>361.2</ele>
        <time>2022-08-10T06:09:20Z</time>
      </trkpt>
      <trkpt lat="47.13806" lon="5.97327">
        <ele>361.7</ele>
        <time>2022-08-10T06:09:21Z</time>
      </trkpt>
      <trkpt lat="47.13804" lon="5.97324">
        <ele>362</ele>
        <time>2022-08-10T06:09:22Z</time>
      </trkpt>
      <trkpt lat="47.13803" lon="5.9732">
        <ele>361.8</ele>
        <time>2022-08-10T06:09:23Z</time>
      </trkpt>
      <trkpt lat="47.13803" lon="5.97317">
        <ele>361.7</ele>
        <time>2022-08-10T06:09:24Z</time>
      </trkpt>
      <trkpt lat="47.13803" lon="5.97313">
        <ele>361.4</ele>
        <time>2022-08-10T06:09:25Z</time>
      </trkpt>
      <trkpt lat="47.13804" lon="5.97311">
        <ele>361.4</ele>
        <time>2022-08-10T06:09:26Z</time>
      </trkpt>
      <trkpt lat="47.13806" lon="5.97307">
        <ele>361.5</ele>
        <time>2022-08-10T06:09:27Z</time>
      </trkpt>
      <trkpt lat="47.13808" lon="5.97304">
        <ele>361.6</ele>
        <time>2022-08-10T06:09:28Z</time>
      </trkpt>
      <trkpt lat="47.1381" lon="5.97302">
        <ele>361.4</ele>
        <time>2022-08-10T06:09:29Z</time>
      </trkpt>
      <trkpt lat="47.13813" lon="5.97298">
        <ele>361.6</ele>
        <time>2022-08-10T06:09:30Z</time>
      </trkpt>
      <trkpt lat="47.13816" lon="5.97294">
        <ele>361.7</ele>
        <time>2022-08-10T06:09:31Z</time>
      </trkpt>
      <trkpt lat="47.13819" lon="5.9729">
        <ele>361.5</ele>
        <time>2022-08-10T06:09:32Z</time>
      </trkpt>
      <trkpt lat="47.13822" lon="5.97286">
        <ele>361.4</ele>
        <time>2022-08-10T06:09:33Z</time>
      </trkpt>
      <trkpt lat="47.13825" lon="5.97282">
        <ele>361</ele>
        <time>2022-08-10T06:09:34Z</time>
      </trkpt>
      <trkpt lat="47.13829" lon="5.97278">
        <ele>361.1</ele>
        <time>2022-08-10T06:09:35Z</time>
      </trkpt>
      <trkpt lat="47.13832" lon="5.97274">
        <ele>361.1</ele>
        <time>2022-08-10T06:09:36Z</time>
      </trkpt>
      <trkpt lat="47.13836" lon="5.97269">
        <ele>360.8</ele>
        <time>2022-08-10T06:09:37Z</time>
      </trkpt>
      <trkpt lat="47.13839" lon="5.97264">
        <ele>360.3</ele>
        <time>2022-08-10T06:09:38Z</time>
      </trkpt>
      <trkpt lat="47.13844" lon="5.9726">
        <ele>359.8</ele>
        <time>2022-08-10T06:09:39Z</time>
      </trkpt>
      <trkpt lat="47.13848" lon="5.97255">
        <ele>359.2</ele>
        <time>2022-08-10T06:09:40Z</time>
      </trkpt>
      <trkpt lat="47.13853" lon="5.97251">
        <ele>358.6</ele>
        <time>2022-08-10T06:09:41Z</time>
      </trkpt>
      <trkpt lat="47.13857" lon="5.97246">
        <ele>358.4</ele>
        <time>2022-08-10T06:09:42Z</time>
      </trkpt>
      <trkpt lat="47.13861" lon="5.97241">
        <ele>358.2</ele>
        <time>2022-08-10T06:09:43Z</time>
      </trkpt>
      <trkpt lat="47.13864" lon="5.97238">
        <ele>357.8</ele>
        <time>2022-08-10T06:09:44Z</time>
      </trkpt>
      <trkpt lat="47.13867" lon="5.97236">
        <ele>357.7</ele>
        <time>2022-08-10T06:09:45Z</time>
      </trkpt>
      <trkpt lat="47.1387" lon="5.97236">
        <ele>357.6</ele>
        <time>2022-08-10T06:09:46Z</time>
      </trkpt>
      <trkpt lat="47.13873" lon="5.97236">
        <ele>358</ele>
        <time>2022-08-10T06:09:47Z</time>
      </trkpt>
      <trkpt lat="47.13875" lon="5.97235">
        <ele>358</ele>
        <time>2022-08-10T06:09:48Z</time>
      </trkpt>
      <trkpt lat="47.13877" lon="5.97236">
        <ele>358</ele>
        <time>2022-08-10T06:09:49Z</time>
      </trkpt>
      <trkpt lat="47.13879" lon="5.97238">
        <ele>357.9</ele>
        <time>2022-08-10T06:09:50Z</time>
      </trkpt>
      <trkpt lat="47.13882" lon="5.9724">
        <ele>357.4</ele>
        <time>2022-08-10T06:09:51Z</time>
      </trkpt>
      <trkpt lat="47.13885" lon="5.97241">
        <ele>357.1</ele>
        <time>2022-08-10T06:09:52Z</time>
      </trkpt>
      <trkpt lat="47.13888" lon="5.97243">
        <ele>356.7</ele>
        <time>2022-08-10T06:09:53Z</time>
      </trkpt>
      <trkpt lat="47.13891" lon="5.97245">
        <ele>356.3</ele>
        <time>2022-08-10T06:09:54Z</time>
      </trkpt>
      <trkpt lat="47.13894" lon="5.97246">
        <ele>356</ele>
        <time>2022-08-10T06:09:55Z</time>
      </trkpt>
      <trkpt lat="47.13896" lon="5.97248">
        <ele>355.8</ele>
        <time>2022-08-10T06:09:56Z</time>
      </trkpt>
      <trkpt lat="47.13899" lon="5.9725">
        <ele>355.2</ele>
        <time>2022-08-10T06:09:57Z</time>
      </trkpt>
      <trkpt lat="47.13902" lon="5.97251">
        <ele>355.2</ele>
        <time>2022-08-10T06:09:58Z</time>
      </trkpt>
      <trkpt lat="47.13904" lon="5.97253">
        <ele>355.2</ele>
        <time>2022-08-10T06:09:59Z</time>
      </trkpt>
      <trkpt lat="47.13906" lon="5.97254">
        <ele>355.5</ele>
        <time>2022-08-10T06:10:00Z</time>
      </trkpt>
      <trkpt lat="47.13908" lon="5.97255">
        <ele>355.8</ele>
        <time>2022-08-10T06:10:01Z</time>
      </trkpt>
      <trkpt lat="47.1391" lon="5.97256">
        <ele>355.3</ele>
        <time>2022-08-10T06:10:02Z</time>
      </trkpt>
      <trkpt lat="47.13913" lon="5.97257">
        <ele>354.7</ele>
        <time>2022-08-10T06:10:03Z</time>
      </trkpt>
      <trkpt lat="47.13915" lon="5.97258">
        <ele>354.5</ele>
        <time>2022-08-10T06:10:04Z</time>
      </trkpt>
      <trkpt lat="47.13917" lon="5.9726">
        <ele>354.4</ele>
        <time>2022-08-10T06:10:05Z</time>
      </trkpt>
      <trkpt lat="47.1392" lon="5.97261">
        <ele>354.5</ele>
        <time>2022-08-10T06:10:06Z</time>
      </trkpt>
      <trkpt lat="47.13922" lon="5.97262">
        <ele>354.6</ele>
        <time>2022-08-10T06:10:07Z</time>
      </trkpt>
      <trkpt lat="47.13924" lon="5.97264">
        <ele>354.5</ele>
        <time>2022-08-10T06:10:08Z</time>
      </trkpt>
      <trkpt lat="47.13927" lon="5.97265">
        <ele>354.3</ele>
        <time>2022-08-10T06:10:09Z</time>
      </trkpt>
      <trkpt lat="47.13929" lon="5.97266">
        <ele>354.2</ele>
        <time>2022-08-10T06:10:10Z</time>
      </trkpt>
      <trkpt lat="47.13932" lon="5.97267">
        <ele>354.2</ele>
        <time>2022-08-10T06:10:11Z</time>
      </trkpt>
      <trkpt lat="47.13935" lon="5.97269">
        <ele>354.2</ele>
        <time>2022-08-10T06:10:12Z</time>
      </trkpt>
      <trkpt lat="47.13937" lon="5.97271">
        <ele>354.2</ele>
        <time>2022-08-10T06:10:13Z</time>
      </trkpt>
      <trkpt lat="47.13939" lon="5.97273">
        <ele>354.2</ele>
        <time>2022-08-10T06:10:14Z</time>
      </trkpt>
      <trkpt lat="47.13942" lon="5.97274">
        <ele>354.4</ele>
        <time>2022-08-10T06:10:15Z</time>
      </trkpt>
      <trkpt lat="47.13944" lon="5.97275">
        <ele>354.7</ele>
        <time>2022-08-10T06:10:16Z</time>
      </trkpt>
      <trkpt lat="47.13946" lon="5.97277">
        <ele>354.7</ele>
        <time>2022-08-10T06:10:17Z</time>
      </trkpt>
      <trkpt lat="47.13948" lon="5.97279">
        <ele>355.1</ele>
        <time>2022-08-10T06:10:18Z</time>
      </trkpt>
      <trkpt lat="47.1395" lon="5.9728">
        <ele>355.5</ele>
        <time>2022-08-10T06:10:19Z</time>
      </trkpt>
      <trkpt lat="47.13952" lon="5.97282">
        <ele>355.6</ele>
        <time>2022-08-10T06:10:20Z</time>
      </trkpt>
      <trkpt lat="47.13954" lon="5.97283">
        <ele>355.6</ele>
        <time>2022-08-10T06:10:21Z</time>
      </trkpt>
      <trkpt lat="47.13956" lon="5.97284">
        <ele>355.8</ele>
        <time>2022-08-10T06:10:22Z</time>
      </trkpt>
      <trkpt lat="47.13959" lon="5.97285">
        <ele>356.4</ele>
        <time>2022-08-10T06:10:23Z</time>
      </trkpt>
      <trkpt lat="47.13961" lon="5.97287">
        <ele>356.8</ele>
        <time>2022-08-10T06:10:24Z</time>
      </trkpt>
      <trkpt lat="47.13963" lon="5.97289">
        <ele>357.2</ele>
        <time>2022-08-10T06:10:25Z</time>
      </trkpt>
      <trkpt lat="47.13965" lon="5.9729">
        <ele>357.4</ele>
        <time>2022-08-10T06:10:26Z</time>
      </trkpt>
      <trkpt lat="47.13967" lon="5.97292">
        <ele>357.7</ele>
        <time>2022-08-10T06:10:27Z</time>
      </trkpt>
      <trkpt lat="47.13969" lon="5.97293">
        <ele>358</ele>
        <time>2022-08-10T06:10:28Z</time>
      </trkpt>
      <trkpt lat="47.1397" lon="5.97295">
        <ele>357.8</ele>
        <time>2022-08-10T06:10:29Z</time>
      </trkpt>
      <trkpt lat="47.13972" lon="5.97296">
        <ele>358</ele>
        <time>2022-08-10T06:10:30Z</time>
      </trkpt>
      <trkpt lat="47.13975" lon="5.97296">
        <ele>358.9</ele>
        <time>2022-08-10T06:10:31Z</time>
      </trkpt>
      <trkpt lat="47.13977" lon="5.97297">
        <ele>358.8</ele>
        <time>2022-08-10T06:10:32Z</time>
      </trkpt>
      <trkpt lat="47.13979" lon="5.97298">
        <ele>359.1</ele>
        <time>2022-08-10T06:10:33Z</time>
      </trkpt>
      <trkpt lat="47.13981" lon="5.97299">
        <ele>359.5</ele>
        <time>2022-08-10T06:10:34Z</time>
      </trkpt>
      <trkpt lat="47.13983" lon="5.973">
        <ele>360</ele>
        <time>2022-08-10T06:10:35Z</time>
      </trkpt>
      <trkpt lat="47.13986" lon="5.97302">
        <ele>360.3</ele>
        <time>2022-08-10T06:10:36Z</time>
      </trkpt>
      <trkpt lat="47.13988" lon="5.97304">
        <ele>360.5</ele>
        <time>2022-08-10T06:10:37Z</time>
      </trkpt>
      <trkpt lat="47.13991" lon="5.97305">
        <ele>360.8</ele>
        <time>2022-08-10T06:10:38Z</time>
      </trkpt>
      <trkpt lat="47.13993" lon="5.97307">
        <ele>361</ele>
        <time>2022-08-10T06:10:39Z</time>
      </trkpt>
      <trkpt lat="47.13995" lon="5.97308">
        <ele>361</ele>
        <time>2022-08-10T06:10:40Z</time>
      </trkpt>
      <trkpt lat="47.13998" lon="5.97309">
        <ele>361.3</ele>
        <time>2022-08-10T06:10:41Z</time>
      </trkpt>
      <trkpt lat="47.14001" lon="5.97311">
        <ele>361.8</ele>
        <time>2022-08-10T06:10:42Z</time>
      </trkpt>
      <trkpt lat="47.14003" lon="5.97313">
        <ele>362.3</ele>
        <time>2022-08-10T06:10:43Z</time>
      </trkpt>
      <trkpt lat="47.14005" lon="5.97314">
        <ele>362.3</ele>
        <time>2022-08-10T06:10:44Z</time>
      </trkpt>
      <trkpt lat="47.14007" lon="5.97316">
        <ele>362.3</ele>
        <time>2022-08-10T06:10:45Z</time>
      </trkpt>
      <trkpt lat="47.1401" lon="5.97317">
        <ele>362.6</ele>
        <time>2022-08-10T06:10:46Z</time>
      </trkpt>
      <trkpt lat="47.14012" lon="5.97318">
        <ele>362.8</ele>
        <time>2022-08-10T06:10:47Z</time>
      </trkpt>
      <trkpt lat="47.14014" lon="5.9732">
        <ele>363.3</ele>
        <time>2022-08-10T06:10:48Z</time>
      </trkpt>
      <trkpt lat="47.14016" lon="5.97321">
        <ele>363.8</ele>
        <time>2022-08-10T06:10:49Z</time>
      </trkpt>
      <trkpt lat="47.14018" lon="5.97322">
        <ele>364.2</ele>
        <time>2022-08-10T06:10:50Z</time>
      </trkpt>
      <trkpt lat="47.1402" lon="5.97322">
        <ele>364.4</ele>
        <time>2022-08-10T06:10:51Z</time>
      </trkpt>
      <trkpt lat="47.14021" lon="5.97323">
        <ele>364.6</ele>
        <time>2022-08-10T06:10:52Z</time>
      </trkpt>
      <trkpt lat="47.14024" lon="5.97324">
        <ele>364.5</ele>
        <time>2022-08-10T06:10:53Z</time>
      </trkpt>
      <trkpt lat="47.14026" lon="5.97325">
        <ele>364.6</ele>
        <time>2022-08-10T06:10:54Z</time>
      </trkpt>
      <trkpt lat="47.14028" lon="5.97326">
        <ele>365.1</ele>
        <time>2022-08-10T06:10:55Z</time>
      </trkpt>
      <trkpt lat="47.1403" lon="5.97327">
        <ele>365.1</ele>
        <time>2022-08-10T06:10:56Z</time>
      </trkpt>
      <trkpt lat="47.14032" lon="5.97328">
        <ele>365</ele>
        <time>2022-08-10T06:10:57Z</time>
      </trkpt>
      <trkpt lat="47.14035" lon="5.97329">
        <ele>364.7</ele>
        <time>2022-08-10T06:10:58Z</time>
      </trkpt>
      <trkpt lat="47.14037" lon="5.9733">
        <ele>364.6</ele>
        <time>2022-08-10T06:10:59Z</time>
      </trkpt>
      <trkpt lat="47.1404" lon="5.97331">
        <ele>364.7</ele>
        <time>2022-08-10T06:11:00Z</time>
      </trkpt>
      <trkpt lat="47.14043" lon="5.97332">
        <ele>364.9</ele>
        <time>2022-08-10T06:11:01Z</time>
      </trkpt>
      <trkpt lat="47.14046" lon="5.97333">
        <ele>365.3</ele>
        <time>2022-08-10T06:11:02Z</time>
      </trkpt>
      <trkpt lat="47.14049" lon="5.97335">
        <ele>365.5</ele>
        <time>2022-08-10T06:11:03Z</time>
      </trkpt>
      <trkpt lat="47.14052" lon="5.97336">
        <ele>365.8</ele>
        <time>2022-08-10T06:11:04Z</time>
      </trkpt>
      <trkpt lat="47.14055" lon="5.97337">
        <ele>366.3</ele>
        <time>2022-08-10T06:11:05Z</time>
      </trkpt>
      <trkpt lat="47.14057" lon="5.97338">
        <ele>366.8</ele>
        <time>2022-08-10T06:11:06Z</time>
      </trkpt>
      <trkpt lat="47.1406" lon="5.97339">
        <ele>367.2</ele>
        <time>2022-08-10T06:11:07Z</time>
      </trkpt>
      <trkpt lat="47.14063" lon="5.97341">
        <ele>367.6</ele>
        <time>2022-08-10T06:11:08Z</time>
      </trkpt>
      <trkpt lat="47.14065" lon="5.97343">
        <ele>368.2</ele>
        <time>2022-08-10T06:11:09Z</time>
      </trkpt>
      <trkpt lat="47.14068" lon="5.97344">
        <ele>368.5</ele>
        <time>2022-08-10T06:11:10Z</time>
      </trkpt>
      <trkpt lat="47.1407" lon="5.97345">
        <ele>368.5</ele>
        <time>2022-08-10T06:11:11Z</time>
      </trkpt>
      <trkpt lat="47.14072" lon="5.97347">
        <ele>369</ele>
        <time>2022-08-10T06:11:12Z</time>
      </trkpt>
      <trkpt lat="47.14075" lon="5.97348">
        <ele>369.1</ele>
        <time>2022-08-10T06:11:13Z</time>
      </trkpt>
      <trkpt lat="47.14077" lon="5.97349">
        <ele>369.6</ele>
        <time>2022-08-10T06:11:14Z</time>
      </trkpt>
      <trkpt lat="47.1408" lon="5.97351">
        <ele>369.8</ele>
        <time>2022-08-10T06:11:15Z</time>
      </trkpt>
      <trkpt lat="47.14083" lon="5.97353">
        <ele>369.9</ele>
        <time>2022-08-10T06:11:16Z</time>
      </trkpt>
      <trkpt lat="47.14085" lon="5.97354">
        <ele>369.8</ele>
        <time>2022-08-10T06:11:17Z</time>
      </trkpt>
      <trkpt lat="47.14088" lon="5.97356">
        <ele>369.7</ele>
        <time>2022-08-10T06:11:18Z</time>
      </trkpt>
      <trkpt lat="47.14091" lon="5.97357">
        <ele>369.8</ele>
        <time>2022-08-10T06:11:19Z</time>
      </trkpt>
      <trkpt lat="47.14093" lon="5.97359">
        <ele>369.8</ele>
        <time>2022-08-10T06:11:20Z</time>
      </trkpt>
      <trkpt lat="47.14096" lon="5.97361">
        <ele>370.1</ele>
        <time>2022-08-10T06:11:21Z</time>
      </trkpt>
      <trkpt lat="47.14098" lon="5.97362">
        <ele>370.1</ele>
        <time>2022-08-10T06:11:22Z</time>
      </trkpt>
      <trkpt lat="47.14101" lon="5.97363">
        <ele>370.4</ele>
        <time>2022-08-10T06:11:23Z</time>
      </trkpt>
      <trkpt lat="47.14103" lon="5.97365">
        <ele>370.5</ele>
        <time>2022-08-10T06:11:24Z</time>
      </trkpt>
      <trkpt lat="47.14106" lon="5.97367">
        <ele>370.5</ele>
        <time>2022-08-10T06:11:25Z</time>
      </trkpt>
      <trkpt lat="47.14109" lon="5.97368">
        <ele>370.6</ele>
        <time>2022-08-10T06:11:26Z</time>
      </trkpt>
      <trkpt lat="47.14111" lon="5.97369">
        <ele>370.8</ele>
        <time>2022-08-10T06:11:27Z</time>
      </trkpt>
      <trkpt lat="47.14114" lon="5.9737">
        <ele>371</ele>
        <time>2022-08-10T06:11:28Z</time>
      </trkpt>
      <trkpt lat="47.14117" lon="5.97372">
        <ele>370.9</ele>
        <time>2022-08-10T06:11:29Z</time>
      </trkpt>
      <trkpt lat="47.14119" lon="5.97373">
        <ele>370.9</ele>
        <time>2022-08-10T06:11:30Z</time>
      </trkpt>
      <trkpt lat="47.14122" lon="5.97374">
        <ele>370.8</ele>
        <time>2022-08-10T06:11:31Z</time>
      </trkpt>
      <trkpt lat="47.14125" lon="5.97375">
        <ele>370.9</ele>
        <time>2022-08-10T06:11:32Z</time>
      </trkpt>
      <trkpt lat="47.14127" lon="5.97375">
        <ele>371</ele>
        <time>2022-08-10T06:11:33Z</time>
      </trkpt>
      <trkpt lat="47.1413" lon="5.97376">
        <ele>370.9</ele>
        <time>2022-08-10T06:11:34Z</time>
      </trkpt>
      <trkpt lat="47.14133" lon="5.97377">
        <ele>370.9</ele>
        <time>2022-08-10T06:11:35Z</time>
      </trkpt>
      <trkpt lat="47.14136" lon="5.97378">
        <ele>370.9</ele>
        <time>2022-08-10T06:11:36Z</time>
      </trkpt>
      <trkpt lat="47.14138" lon="5.97379">
        <ele>371</ele>
        <time>2022-08-10T06:11:37Z</time>
      </trkpt>
      <trkpt lat="47.14141" lon="5.97379">
        <ele>371.1</ele>
        <time>2022-08-10T06:11:38Z</time>
      </trkpt>
      <trkpt lat="47.14144" lon="5.9738">
        <ele>371.2</ele>
        <time>2022-08-10T06:11:39Z</time>
      </trkpt>
      <trkpt lat="47.14147" lon="5.9738">
        <ele>371.6</ele>
        <time>2022-08-10T06:11:40Z</time>
      </trkpt>
      <trkpt lat="47.1415" lon="5.97381">
        <ele>371.7</ele>
        <time>2022-08-10T06:11:41Z</time>
      </trkpt>
      <trkpt lat="47.14152" lon="5.97382">
        <ele>371.9</ele>
        <time>2022-08-10T06:11:42Z</time>
      </trkpt>
      <trkpt lat="47.14155" lon="5.97382">
        <ele>371.9</ele>
        <time>2022-08-10T06:11:43Z</time>
      </trkpt>
      <trkpt lat="47.14158" lon="5.97382">
        <ele>371.8</ele>
        <time>2022-08-10T06:11:44Z</time>
      </trkpt>
      <trkpt lat="47.14161" lon="5.97383">
        <ele>371.8</ele>
        <time>2022-08-10T06:11:45Z</time>
      </trkpt>
      <trkpt lat="47.14164" lon="5.97383">
        <ele>371.9</ele>
        <time>2022-08-10T06:11:46Z</time>
      </trkpt>
      <trkpt lat="47.14166" lon="5.97384">
        <ele>372</ele>
        <time>2022-08-10T06:11:47Z</time>
      </trkpt>
      <trkpt lat="47.14169" lon="5.97384">
        <ele>371.9</ele>
        <time>2022-08-10T06:11:48Z</time>
      </trkpt>
      <trkpt lat="47.14172" lon="5.97385">
        <ele>371.9</ele>
        <time>2022-08-10T06:11:49Z</time>
      </trkpt>
      <trkpt lat="47.14174" lon="5.97385">
        <ele>371.9</ele>
        <time>2022-08-10T06:11:50Z</time>
      </trkpt>
      <trkpt lat="47.14177" lon="5.97386">
        <ele>372</ele>
        <time>2022-08-10T06:11:51Z</time>
      </trkpt>
      <trkpt lat="47.1418" lon="5.97386">
        <ele>372.1</ele>
        <time>2022-08-10T06:11:52Z</time>
      </trkpt>
      <trkpt lat="47.14183" lon="5.97387">
        <ele>372.1</ele>
        <time>2022-08-10T06:11:53Z</time>
      </trkpt>
      <trkpt lat="47.14186" lon="5.97387">
        <ele>372.3</ele>
        <time>2022-08-10T06:11:54Z</time>
      </trkpt>
      <trkpt lat="47.14189" lon="5.97386">
        <ele>372.3</ele>
        <time>2022-08-10T06:11:55Z</time>
      </trkpt>
      <trkpt lat="47.14191" lon="5.97386">
        <ele>372.5</ele>
        <time>2022-08-10T06:11:56Z</time>
      </trkpt>
      <trkpt lat="47.14194" lon="5.97386">
        <ele>372.7</ele>
        <time>2022-08-10T06:11:57Z</time>
      </trkpt>
      <trkpt lat="47.14196" lon="5.97388">
        <ele>372.9</ele>
        <time>2022-08-10T06:11:58Z</time>
      </trkpt>
      <trkpt lat="47.14197" lon="5.97392">
        <ele>372.3</ele>
        <time>2022-08-10T06:11:59Z</time>
      </trkpt>
      <trkpt lat="47.14198" lon="5.97396">
        <ele>372.1</ele>
        <time>2022-08-10T06:12:00Z</time>
      </trkpt>
      <trkpt lat="47.14197" lon="5.97399">
        <ele>372</ele>
        <time>2022-08-10T06:12:01Z</time>
      </trkpt>
      <trkpt lat="47.14195" lon="5.974">
        <ele>372</ele>
        <time>2022-08-10T06:12:02Z</time>
      </trkpt>
      <trkpt lat="47.14192" lon="5.97401">
        <ele>372</ele>
        <time>2022-08-10T06:12:03Z</time>
      </trkpt>
      <trkpt lat="47.1419" lon="5.97402">
        <ele>372</ele>
        <time>2022-08-10T06:12:04Z</time>
      </trkpt>
      <trkpt lat="47.14187" lon="5.97403">
        <ele>372.2</ele>
        <time>2022-08-10T06:12:05Z</time>
      </trkpt>
      <trkpt lat="47.14184" lon="5.97405">
        <ele>372.3</ele>
        <time>2022-08-10T06:12:06Z</time>
      </trkpt>
      <trkpt lat="47.14181" lon="5.97406">
        <ele>372.4</ele>
        <time>2022-08-10T06:12:07Z</time>
      </trkpt>
      <trkpt lat="47.14177" lon="5.97407">
        <ele>372.5</ele>
        <time>2022-08-10T06:12:08Z</time>
      </trkpt>
      <trkpt lat="47.14174" lon="5.97407">
        <ele>373.4</ele>
        <time>2022-08-10T06:12:09Z</time>
      </trkpt>
      <trkpt lat="47.1417" lon="5.97408">
        <ele>373.7</ele>
        <time>2022-08-10T06:12:10Z</time>
      </trkpt>
      <trkpt lat="47.14167" lon="5.9741">
        <ele>374</ele>
        <time>2022-08-10T06:12:11Z</time>
      </trkpt>
      <trkpt lat="47.14162" lon="5.97412">
        <ele>373.4</ele>
        <time>2022-08-10T06:12:12Z</time>
      </trkpt>
      <trkpt lat="47.14159" lon="5.97413">
        <ele>373.7</ele>
        <time>2022-08-10T06:12:13Z</time>
      </trkpt>
      <trkpt lat="47.14156" lon="5.97415">
        <ele>373.9</ele>
        <time>2022-08-10T06:12:14Z</time>
      </trkpt>
      <trkpt lat="47.14153" lon="5.97417">
        <ele>374</ele>
        <time>2022-08-10T06:12:15Z</time>
      </trkpt>
      <trkpt lat="47.1415" lon="5.97418">
        <ele>374.4</ele>
        <time>2022-08-10T06:12:16Z</time>
      </trkpt>
      <trkpt lat="47.14146" lon="5.9742">
        <ele>375</ele>
        <time>2022-08-10T06:12:17Z</time>
      </trkpt>
      <trkpt lat="47.14143" lon="5.97422">
        <ele>375.4</ele>
        <time>2022-08-10T06:12:18Z</time>
      </trkpt>
      <trkpt lat="47.14139" lon="5.97424">
        <ele>375.7</ele>
        <time>2022-08-10T06:12:19Z</time>
      </trkpt>
      <trkpt lat="47.14136" lon="5.97427">
        <ele>376.2</ele>
        <time>2022-08-10T06:12:20Z</time>
      </trkpt>
      <trkpt lat="47.14132" lon="5.97428">
        <ele>376.6</ele>
        <time>2022-08-10T06:12:21Z</time>
      </trkpt>
      <trkpt lat="47.14129" lon="5.97431">
        <ele>376.8</ele>
        <time>2022-08-10T06:12:22Z</time>
      </trkpt>
      <trkpt lat="47.14125" lon="5.97433">
        <ele>377.1</ele>
        <time>2022-08-10T06:12:23Z</time>
      </trkpt>
      <trkpt lat="47.14121" lon="5.97435">
        <ele>377.4</ele>
        <time>2022-08-10T06:12:24Z</time>
      </trkpt>
      <trkpt lat="47.14117" lon="5.97437">
        <ele>377.4</ele>
        <time>2022-08-10T06:12:25Z</time>
      </trkpt>
      <trkpt lat="47.14114" lon="5.9744">
        <ele>377.5</ele>
        <time>2022-08-10T06:12:26Z</time>
      </trkpt>
      <trkpt lat="47.1411" lon="5.97442">
        <ele>377.7</ele>
        <time>2022-08-10T06:12:27Z</time>
      </trkpt>
      <trkpt lat="47.14106" lon="5.97444">
        <ele>377.6</ele>
        <time>2022-08-10T06:12:28Z</time>
      </trkpt>
      <trkpt lat="47.14103" lon="5.97447">
        <ele>377.7</ele>
        <time>2022-08-10T06:12:29Z</time>
      </trkpt>
      <trkpt lat="47.14099" lon="5.9745">
        <ele>377.5</ele>
        <time>2022-08-10T06:12:30Z</time>
      </trkpt>
      <trkpt lat="47.14095" lon="5.97453">
        <ele>377.4</ele>
        <time>2022-08-10T06:12:31Z</time>
      </trkpt>
      <trkpt lat="47.14092" lon="5.97455">
        <ele>377.7</ele>
        <time>2022-08-10T06:12:32Z</time>
      </trkpt>
      <trkpt lat="47.14089" lon="5.97458">
        <ele>378.1</ele>
        <time>2022-08-10T06:12:33Z</time>
      </trkpt>
      <trkpt lat="47.14085" lon="5.97461">
        <ele>378.3</ele>
        <time>2022-08-10T06:12:34Z</time>
      </trkpt>
      <trkpt lat="47.14082" lon="5.97464">
        <ele>378.4</ele>
        <time>2022-08-10T06:12:35Z</time>
      </trkpt>
      <trkpt lat="47.14079" lon="5.97466">
        <ele>378.8</ele>
        <time>2022-08-10T06:12:36Z</time>
      </trkpt>
      <trkpt lat="47.14076" lon="5.97469">
        <ele>379.1</ele>
        <time>2022-08-10T06:12:37Z</time>
      </trkpt>
      <trkpt lat="47.14072" lon="5.97472">
        <ele>379.1</ele>
        <time>2022-08-10T06:12:38Z</time>
      </trkpt>
      <trkpt lat="47.14069" lon="5.97475">
        <ele>379.2</ele>
        <time>2022-08-10T06:12:39Z</time>
      </trkpt>
      <trkpt lat="47.14066" lon="5.97477">
        <ele>379.2</ele>
        <time>2022-08-10T06:12:40Z</time>
      </trkpt>
      <trkpt lat="47.14062" lon="5.97481">
        <ele>379.2</ele>
        <time>2022-08-10T06:12:41Z</time>
      </trkpt>
      <trkpt lat="47.14059" lon="5.97484">
        <ele>379.1</ele>
        <time>2022-08-10T06:12:42Z</time>
      </trkpt>
      <trkpt lat="47.14056" lon="5.97486">
        <ele>379.1</ele>
        <time>2022-08-10T06:12:43Z</time>
      </trkpt>
      <trkpt lat="47.14052" lon="5.97489">
        <ele>379.2</ele>
        <time>2022-08-10T06:12:44Z</time>
      </trkpt>
      <trkpt lat="47.14049" lon="5.97492">
        <ele>379.4</ele>
        <time>2022-08-10T06:12:45Z</time>
      </trkpt>
      <trkpt lat="47.14046" lon="5.97496">
        <ele>379.6</ele>
        <time>2022-08-10T06:12:46Z</time>
      </trkpt>
      <trkpt lat="47.14043" lon="5.97499">
        <ele>379.4</ele>
        <time>2022-08-10T06:12:47Z</time>
      </trkpt>
      <trkpt lat="47.14039" lon="5.97502">
        <ele>379.2</ele>
        <time>2022-08-10T06:12:48Z</time>
      </trkpt>
      <trkpt lat="47.14036" lon="5.97505">
        <ele>378.9</ele>
        <time>2022-08-10T06:12:49Z</time>
      </trkpt>
      <trkpt lat="47.14032" lon="5.97508">
        <ele>379</ele>
        <time>2022-08-10T06:12:50Z</time>
      </trkpt>
      <trkpt lat="47.14029" lon="5.97511">
        <ele>378.8</ele>
        <time>2022-08-10T06:12:51Z</time>
      </trkpt>
      <trkpt lat="47.14026" lon="5.97515">
        <ele>378.8</ele>
        <time>2022-08-10T06:12:52Z</time>
      </trkpt>
      <trkpt lat="47.14023" lon="5.97518">
        <ele>378.8</ele>
        <time>2022-08-10T06:12:53Z</time>
      </trkpt>
      <trkpt lat="47.1402" lon="5.97522">
        <ele>378.7</ele>
        <time>2022-08-10T06:12:54Z</time>
      </trkpt>
      <trkpt lat="47.14017" lon="5.97525">
        <ele>378.4</ele>
        <time>2022-08-10T06:12:55Z</time>
      </trkpt>
      <trkpt lat="47.14014" lon="5.97529">
        <ele>378.2</ele>
        <time>2022-08-10T06:12:56Z</time>
      </trkpt>
      <trkpt lat="47.14012" lon="5.97533">
        <ele>378.2</ele>
        <time>2022-08-10T06:12:57Z</time>
      </trkpt>
      <trkpt lat="47.14009" lon="5.97537">
        <ele>378.1</ele>
        <time>2022-08-10T06:12:58Z</time>
      </trkpt>
      <trkpt lat="47.14006" lon="5.97542">
        <ele>377.9</ele>
        <time>2022-08-10T06:12:59Z</time>
      </trkpt>
      <trkpt lat="47.14003" lon="5.97546">
        <ele>377.8</ele>
        <time>2022-08-10T06:13:00Z</time>
      </trkpt>
      <trkpt lat="47.14001" lon="5.97551">
        <ele>377.9</ele>
        <time>2022-08-10T06:13:01Z</time>
      </trkpt>
      <trkpt lat="47.13998" lon="5.97555">
        <ele>377.7</ele>
        <time>2022-08-10T06:13:02Z</time>
      </trkpt>
      <trkpt lat="47.13996" lon="5.9756">
        <ele>377.6</ele>
        <time>2022-08-10T06:13:03Z</time>
      </trkpt>
      <trkpt lat="47.13994" lon="5.97565">
        <ele>377.3</ele>
        <time>2022-08-10T06:13:04Z</time>
      </trkpt>
      <trkpt lat="47.13993" lon="5.9757">
        <ele>377.3</ele>
        <time>2022-08-10T06:13:05Z</time>
      </trkpt>
      <trkpt lat="47.13992" lon="5.97576">
        <ele>377.4</ele>
        <time>2022-08-10T06:13:06Z</time>
      </trkpt>
      <trkpt lat="47.13991" lon="5.97581">
        <ele>377.2</ele>
        <time>2022-08-10T06:13:07Z</time>
      </trkpt>
      <trkpt lat="47.1399" lon="5.97587">
        <ele>377.4</ele>
        <time>2022-08-10T06:13:08Z</time>
      </trkpt>
      <trkpt lat="47.1399" lon="5.97592">
        <ele>377.3</ele>
        <time>2022-08-10T06:13:09Z</time>
      </trkpt>
      <trkpt lat="47.13989" lon="5.97598">
        <ele>377.5</ele>
        <time>2022-08-10T06:13:10Z</time>
      </trkpt>
      <trkpt lat="47.13989" lon="5.97603">
        <ele>377.6</ele>
        <time>2022-08-10T06:13:11Z</time>
      </trkpt>
      <trkpt lat="47.13989" lon="5.97609">
        <ele>377.7</ele>
        <time>2022-08-10T06:13:12Z</time>
      </trkpt>
      <trkpt lat="47.13989" lon="5.97615">
        <ele>377.8</ele>
        <time>2022-08-10T06:13:13Z</time>
      </trkpt>
      <trkpt lat="47.13989" lon="5.9762">
        <ele>377.7</ele>
        <time>2022-08-10T06:13:14Z</time>
      </trkpt>
      <trkpt lat="47.1399" lon="5.97626">
        <ele>377.8</ele>
        <time>2022-08-10T06:13:15Z</time>
      </trkpt>
      <trkpt lat="47.13991" lon="5.97631">
        <ele>378</ele>
        <time>2022-08-10T06:13:16Z</time>
      </trkpt>
      <trkpt lat="47.13992" lon="5.97637">
        <ele>378.2</ele>
        <time>2022-08-10T06:13:17Z</time>
      </trkpt>
      <trkpt lat="47.13993" lon="5.97642">
        <ele>378.4</ele>
        <time>2022-08-10T06:13:18Z</time>
      </trkpt>
      <trkpt lat="47.13994" lon="5.97647">
        <ele>378.7</ele>
        <time>2022-08-10T06:13:19Z</time>
      </trkpt>
      <trkpt lat="47.13995" lon="5.97652">
        <ele>379.1</ele>
        <time>2022-08-10T06:13:20Z</time>
      </trkpt>
      <trkpt lat="47.13997" lon="5.97657">
        <ele>379.6</ele>
        <time>2022-08-10T06:13:21Z</time>
      </trkpt>
      <trkpt lat="47.13998" lon="5.97661">
        <ele>380</ele>
        <time>2022-08-10T06:13:22Z</time>
      </trkpt>
      <trkpt lat="47.13999" lon="5.97666">
        <ele>380.4</ele>
        <time>2022-08-10T06:13:23Z</time>
      </trkpt>
      <trkpt lat="47.14001" lon="5.97671">
        <ele>380.7</ele>
        <time>2022-08-10T06:13:24Z</time>
      </trkpt>
      <trkpt lat="47.14002" lon="5.97675">
        <ele>381.5</ele>
        <time>2022-08-10T06:13:25Z</time>
      </trkpt>
      <trkpt lat="47.14003" lon="5.9768">
        <ele>382.1</ele>
        <time>2022-08-10T06:13:26Z</time>
      </trkpt>
      <trkpt lat="47.14005" lon="5.97685">
        <ele>382.5</ele>
        <time>2022-08-10T06:13:27Z</time>
      </trkpt>
      <trkpt lat="47.14006" lon="5.97689">
        <ele>383</ele>
        <time>2022-08-10T06:13:28Z</time>
      </trkpt>
      <trkpt lat="47.14008" lon="5.97694">
        <ele>383.3</ele>
        <time>2022-08-10T06:13:29Z</time>
      </trkpt>
      <trkpt lat="47.14009" lon="5.97699">
        <ele>383.5</ele>
        <time>2022-08-10T06:13:30Z</time>
      </trkpt>
      <trkpt lat="47.14011" lon="5.97704">
        <ele>383.7</ele>
        <time>2022-08-10T06:13:31Z</time>
      </trkpt>
      <trkpt lat="47.14012" lon="5.97709">
        <ele>383.7</ele>
        <time>2022-08-10T06:13:32Z</time>
      </trkpt>
      <trkpt lat="47.14013" lon="5.97714">
        <ele>383.6</ele>
        <time>2022-08-10T06:13:33Z</time>
      </trkpt>
      <trkpt lat="47.14014" lon="5.97719">
        <ele>383.2</ele>
        <time>2022-08-10T06:13:34Z</time>
      </trkpt>
      <trkpt lat="47.14015" lon="5.97725">
        <ele>383.3</ele>
        <time>2022-08-10T06:13:35Z</time>
      </trkpt>
      <trkpt lat="47.14016" lon="5.9773">
        <ele>383.5</ele>
        <time>2022-08-10T06:13:36Z</time>
      </trkpt>
      <trkpt lat="47.14018" lon="5.97735">
        <ele>383.3</ele>
        <time>2022-08-10T06:13:37Z</time>
      </trkpt>
      <trkpt lat="47.14019" lon="5.9774">
        <ele>383.4</ele>
        <time>2022-08-10T06:13:38Z</time>
      </trkpt>
      <trkpt lat="47.1402" lon="5.97746">
        <ele>383.3</ele>
        <time>2022-08-10T06:13:39Z</time>
      </trkpt>
      <trkpt lat="47.14021" lon="5.97752">
        <ele>383.4</ele>
        <time>2022-08-10T06:13:40Z</time>
      </trkpt>
      <trkpt lat="47.14022" lon="5.97757">
        <ele>383.5</ele>
        <time>2022-08-10T06:13:41Z</time>
      </trkpt>
      <trkpt lat="47.14024" lon="5.97763">
        <ele>383.6</ele>
        <time>2022-08-10T06:13:42Z</time>
      </trkpt>
      <trkpt lat="47.14025" lon="5.97769">
        <ele>383.8</ele>
        <time>2022-08-10T06:13:43Z</time>
      </trkpt>
      <trkpt lat="47.14027" lon="5.97775">
        <ele>383.4</ele>
        <time>2022-08-10T06:13:44Z</time>
      </trkpt>
      <trkpt lat="47.14028" lon="5.9778">
        <ele>383.3</ele>
        <time>2022-08-10T06:13:45Z</time>
      </trkpt>
      <trkpt lat="47.14028" lon="5.97786">
        <ele>383.4</ele>
        <time>2022-08-10T06:13:46Z</time>
      </trkpt>
      <trkpt lat="47.14029" lon="5.97792">
        <ele>383.2</ele>
        <time>2022-08-10T06:13:47Z</time>
      </trkpt>
      <trkpt lat="47.14029" lon="5.97798">
        <ele>383.3</ele>
        <time>2022-08-10T06:13:48Z</time>
      </trkpt>
      <trkpt lat="47.14029" lon="5.97804">
        <ele>384</ele>
        <time>2022-08-10T06:13:49Z</time>
      </trkpt>
      <trkpt lat="47.14029" lon="5.9781">
        <ele>384.1</ele>
        <time>2022-08-10T06:13:50Z</time>
      </trkpt>
      <trkpt lat="47.14029" lon="5.97817">
        <ele>384.2</ele>
        <time>2022-08-10T06:13:51Z</time>
      </trkpt>
      <trkpt lat="47.14029" lon="5.97823">
        <ele>384.1</ele>
        <time>2022-08-10T06:13:52Z</time>
      </trkpt>
      <trkpt lat="47.14029" lon="5.97829">
        <ele>384</ele>
        <time>2022-08-10T06:13:53Z</time>
      </trkpt>
      <trkpt lat="47.14029" lon="5.97835">
        <ele>383.6</ele>
        <time>2022-08-10T06:13:54Z</time>
      </trkpt>
      <trkpt lat="47.14029" lon="5.97841">
        <ele>383.7</ele>
        <time>2022-08-10T06:13:55Z</time>
      </trkpt>
      <trkpt lat="47.14029" lon="5.97847">
        <ele>383.5</ele>
        <time>2022-08-10T06:13:56Z</time>
      </trkpt>
      <trkpt lat="47.14029" lon="5.97853">
        <ele>383.4</ele>
        <time>2022-08-10T06:13:57Z</time>
      </trkpt>
      <trkpt lat="47.14029" lon="5.97858">
        <ele>383.7</ele>
        <time>2022-08-10T06:13:58Z</time>
      </trkpt>
      <trkpt lat="47.1403" lon="5.97864">
        <ele>383.6</ele>
        <time>2022-08-10T06:13:59Z</time>
      </trkpt>
      <trkpt lat="47.1403" lon="5.97869">
        <ele>383.7</ele>
        <time>2022-08-10T06:14:00Z</time>
      </trkpt>
      <trkpt lat="47.14031" lon="5.97873">
        <ele>383.8</ele>
        <time>2022-08-10T06:14:01Z</time>
      </trkpt>
      <trkpt lat="47.14031" lon="5.97878">
        <ele>383.9</ele>
        <time>2022-08-10T06:14:02Z</time>
      </trkpt>
      <trkpt lat="47.14031" lon="5.97883">
        <ele>383.8</ele>
        <time>2022-08-10T06:14:03Z</time>
      </trkpt>
      <trkpt lat="47.14032" lon="5.97888">
        <ele>384</ele>
        <time>2022-08-10T06:14:04Z</time>
      </trkpt>
      <trkpt lat="47.14032" lon="5.97892">
        <ele>383.8</ele>
        <time>2022-08-10T06:14:05Z</time>
      </trkpt>
      <trkpt lat="47.14033" lon="5.97897">
        <ele>383.7</ele>
        <time>2022-08-10T06:14:06Z</time>
      </trkpt>
      <trkpt lat="47.14033" lon="5.97902">
        <ele>383.8</ele>
        <time>2022-08-10T06:14:07Z</time>
      </trkpt>
      <trkpt lat="47.14034" lon="5.97906">
        <ele>384.3</ele>
        <time>2022-08-10T06:14:08Z</time>
      </trkpt>
      <trkpt lat="47.14035" lon="5.97911">
        <ele>384.9</ele>
        <time>2022-08-10T06:14:09Z</time>
      </trkpt>
      <trkpt lat="47.14036" lon="5.97915">
        <ele>384.9</ele>
        <time>2022-08-10T06:14:10Z</time>
      </trkpt>
      <trkpt lat="47.14037" lon="5.9792">
        <ele>384.9</ele>
        <time>2022-08-10T06:14:11Z</time>
      </trkpt>
      <trkpt lat="47.14038" lon="5.97924">
        <ele>384.8</ele>
        <time>2022-08-10T06:14:12Z</time>
      </trkpt>
      <trkpt lat="47.14039" lon="5.97929">
        <ele>385.1</ele>
        <time>2022-08-10T06:14:13Z</time>
      </trkpt>
      <trkpt lat="47.1404" lon="5.97933">
        <ele>385.5</ele>
        <time>2022-08-10T06:14:14Z</time>
      </trkpt>
      <trkpt lat="47.14041" lon="5.97937">
        <ele>386</ele>
        <time>2022-08-10T06:14:15Z</time>
      </trkpt>
      <trkpt lat="47.14042" lon="5.97941">
        <ele>386.4</ele>
        <time>2022-08-10T06:14:16Z</time>
      </trkpt>
      <trkpt lat="47.14044" lon="5.97945">
        <ele>386.5</ele>
        <time>2022-08-10T06:14:17Z</time>
      </trkpt>
      <trkpt lat="47.14046" lon="5.97949">
        <ele>386.8</ele>
        <time>2022-08-10T06:14:18Z</time>
      </trkpt>
      <trkpt lat="47.14047" lon="5.97954">
        <ele>386.3</ele>
        <time>2022-08-10T06:14:19Z</time>
      </trkpt>
      <trkpt lat="47.14048" lon="5.97958">
        <ele>386.4</ele>
        <time>2022-08-10T06:14:20Z</time>
      </trkpt>
      <trkpt lat="47.1405" lon="5.97963">
        <ele>386.2</ele>
        <time>2022-08-10T06:14:21Z</time>
      </trkpt>
      <trkpt lat="47.14051" lon="5.97967">
        <ele>386.8</ele>
        <time>2022-08-10T06:14:22Z</time>
      </trkpt>
      <trkpt lat="47.14052" lon="5.97972">
        <ele>387.2</ele>
        <time>2022-08-10T06:14:23Z</time>
      </trkpt>
      <trkpt lat="47.14053" lon="5.97976">
        <ele>387.6</ele>
        <time>2022-08-10T06:14:24Z</time>
      </trkpt>
      <trkpt lat="47.14053" lon="5.97981">
        <ele>388.4</ele>
        <time>2022-08-10T06:14:25Z</time>
      </trkpt>
      <trkpt lat="47.14054" lon="5.97986">
        <ele>388.9</ele>
        <time>2022-08-10T06:14:26Z</time>
      </trkpt>
      <trkpt lat="47.14054" lon="5.9799">
        <ele>389.5</ele>
        <time>2022-08-10T06:14:27Z</time>
      </trkpt>
      <trkpt lat="47.14054" lon="5.97994">
        <ele>389.6</ele>
        <time>2022-08-10T06:14:28Z</time>
      </trkpt>
      <trkpt lat="47.14055" lon="5.97998">
        <ele>389.7</ele>
        <time>2022-08-10T06:14:29Z</time>
      </trkpt>
      <trkpt lat="47.14055" lon="5.98002">
        <ele>389.8</ele>
        <time>2022-08-10T06:14:30Z</time>
      </trkpt>
      <trkpt lat="47.14056" lon="5.98007">
        <ele>388</ele>
        <time>2022-08-10T06:14:31Z</time>
      </trkpt>
      <trkpt lat="47.14056" lon="5.98012">
        <ele>387.3</ele>
        <time>2022-08-10T06:14:32Z</time>
      </trkpt>
      <trkpt lat="47.14057" lon="5.98017">
        <ele>386.9</ele>
        <time>2022-08-10T06:14:33Z</time>
      </trkpt>
      <trkpt lat="47.14058" lon="5.9802">
        <ele>386.9</ele>
        <time>2022-08-10T06:14:34Z</time>
      </trkpt>
      <trkpt lat="47.14058" lon="5.98024">
        <ele>386.4</ele>
        <time>2022-08-10T06:14:35Z</time>
      </trkpt>
      <trkpt lat="47.14059" lon="5.98028">
        <ele>387</ele>
        <time>2022-08-10T06:14:36Z</time>
      </trkpt>
      <trkpt lat="47.14059" lon="5.98032">
        <ele>387.2</ele>
        <time>2022-08-10T06:14:37Z</time>
      </trkpt>
      <trkpt lat="47.14059" lon="5.98036">
        <ele>387.3</ele>
        <time>2022-08-10T06:14:38Z</time>
      </trkpt>
      <trkpt lat="47.1406" lon="5.98041">
        <ele>387</ele>
        <time>2022-08-10T06:14:39Z</time>
      </trkpt>
      <trkpt lat="47.1406" lon="5.98045">
        <ele>387.1</ele>
        <time>2022-08-10T06:14:40Z</time>
      </trkpt>
      <trkpt lat="47.1406" lon="5.98049">
        <ele>386.6</ele>
        <time>2022-08-10T06:14:41Z</time>
      </trkpt>
      <trkpt lat="47.1406" lon="5.98054">
        <ele>386.5</ele>
        <time>2022-08-10T06:14:42Z</time>
      </trkpt>
      <trkpt lat="47.1406" lon="5.98058">
        <ele>386.2</ele>
        <time>2022-08-10T06:14:43Z</time>
      </trkpt>
      <trkpt lat="47.1406" lon="5.98061">
        <ele>386.1</ele>
        <time>2022-08-10T06:14:44Z</time>
      </trkpt>
      <trkpt lat="47.1406" lon="5.98065">
        <ele>386.4</ele>
        <time>2022-08-10T06:14:45Z</time>
      </trkpt>
      <trkpt lat="47.1406" lon="5.98068">
        <ele>386.7</ele>
        <time>2022-08-10T06:14:46Z</time>
      </trkpt>
      <trkpt lat="47.1406" lon="5.98071">
        <ele>387.2</ele>
        <time>2022-08-10T06:14:47Z</time>
      </trkpt>
      <trkpt lat="47.1406" lon="5.98074">
        <ele>387.9</ele>
        <time>2022-08-10T06:14:48Z</time>
      </trkpt>
      <trkpt lat="47.1406" lon="5.98077">
        <ele>388.6</ele>
        <time>2022-08-10T06:14:49Z</time>
      </trkpt>
      <trkpt lat="47.1406" lon="5.98079">
        <ele>389.7</ele>
        <time>2022-08-10T06:14:50Z</time>
      </trkpt>
      <trkpt lat="47.14059" lon="5.98082">
        <ele>390.7</ele>
        <time>2022-08-10T06:14:51Z</time>
      </trkpt>
      <trkpt lat="47.14059" lon="5.98085">
        <ele>391.8</ele>
        <time>2022-08-10T06:14:52Z</time>
      </trkpt>
      <trkpt lat="47.14059" lon="5.98088">
        <ele>392.7</ele>
        <time>2022-08-10T06:14:53Z</time>
      </trkpt>
      <trkpt lat="47.14059" lon="5.9809">
        <ele>394</ele>
        <time>2022-08-10T06:14:54Z</time>
      </trkpt>
      <trkpt lat="47.1406" lon="5.98092">
        <ele>395.2</ele>
        <time>2022-08-10T06:14:55Z</time>
      </trkpt>
      <trkpt lat="47.14061" lon="5.98095">
        <ele>396.4</ele>
        <time>2022-08-10T06:14:56Z</time>
      </trkpt>
      <trkpt lat="47.14061" lon="5.98099">
        <ele>397.6</ele>
        <time>2022-08-10T06:14:57Z</time>
      </trkpt>
      <trkpt lat="47.14062" lon="5.98102">
        <ele>398.8</ele>
        <time>2022-08-10T06:14:58Z</time>
      </trkpt>
      <trkpt lat="47.14063" lon="5.98106">
        <ele>400.1</ele>
        <time>2022-08-10T06:14:59Z</time>
      </trkpt>
      <trkpt lat="47.14063" lon="5.9811">
        <ele>401.3</ele>
        <time>2022-08-10T06:15:00Z</time>
      </trkpt>
      <trkpt lat="47.14064" lon="5.98112">
        <ele>402.5</ele>
        <time>2022-08-10T06:15:01Z</time>
      </trkpt>
      <trkpt lat="47.14064" lon="5.98114">
        <ele>403.7</ele>
        <time>2022-08-10T06:15:02Z</time>
      </trkpt>
      <trkpt lat="47.14064" lon="5.98117">
        <ele>404.9</ele>
        <time>2022-08-10T06:15:03Z</time>
      </trkpt>
      <trkpt lat="47.14064" lon="5.9812">
        <ele>406.1</ele>
        <time>2022-08-10T06:15:04Z</time>
      </trkpt>
      <trkpt lat="47.14064" lon="5.98123">
        <ele>406.3</ele>
        <time>2022-08-10T06:15:05Z</time>
      </trkpt>
      <trkpt lat="47.14063" lon="5.98125">
        <ele>406.9</ele>
        <time>2022-08-10T06:15:06Z</time>
      </trkpt>
      <trkpt lat="47.14063" lon="5.98128">
        <ele>407.6</ele>
        <time>2022-08-10T06:15:07Z</time>
      </trkpt>
      <trkpt lat="47.14062" lon="5.98132">
        <ele>408.4</ele>
        <time>2022-08-10T06:15:08Z</time>
      </trkpt>
      <trkpt lat="47.14061" lon="5.98135">
        <ele>408.9</ele>
        <time>2022-08-10T06:15:09Z</time>
      </trkpt>
      <trkpt lat="47.1406" lon="5.98139">
        <ele>409.5</ele>
        <time>2022-08-10T06:15:10Z</time>
      </trkpt>
      <trkpt lat="47.1406" lon="5.98143">
        <ele>410.3</ele>
        <time>2022-08-10T06:15:11Z</time>
      </trkpt>
      <trkpt lat="47.14059" lon="5.98147">
        <ele>410.6</ele>
        <time>2022-08-10T06:15:12Z</time>
      </trkpt>
      <trkpt lat="47.14059" lon="5.98151">
        <ele>410.9</ele>
        <time>2022-08-10T06:15:13Z</time>
      </trkpt>
      <trkpt lat="47.14057" lon="5.98154">
        <ele>411.1</ele>
        <time>2022-08-10T06:15:14Z</time>
      </trkpt>
      <trkpt lat="47.14056" lon="5.98157">
        <ele>411.6</ele>
        <time>2022-08-10T06:15:15Z</time>
      </trkpt>
      <trkpt lat="47.14055" lon="5.98161">
        <ele>411.8</ele>
        <time>2022-08-10T06:15:16Z</time>
      </trkpt>
      <trkpt lat="47.14053" lon="5.98165">
        <ele>411.3</ele>
        <time>2022-08-10T06:15:17Z</time>
      </trkpt>
      <trkpt lat="47.14052" lon="5.98169">
        <ele>411.5</ele>
        <time>2022-08-10T06:15:18Z</time>
      </trkpt>
      <trkpt lat="47.14051" lon="5.98172">
        <ele>412.2</ele>
        <time>2022-08-10T06:15:19Z</time>
      </trkpt>
      <trkpt lat="47.14049" lon="5.98176">
        <ele>412.6</ele>
        <time>2022-08-10T06:15:20Z</time>
      </trkpt>
      <trkpt lat="47.14048" lon="5.98179">
        <ele>413.2</ele>
        <time>2022-08-10T06:15:21Z</time>
      </trkpt>
      <trkpt lat="47.14048" lon="5.98182">
        <ele>413.7</ele>
        <time>2022-08-10T06:15:22Z</time>
      </trkpt>
      <trkpt lat="47.14047" lon="5.98186">
        <ele>413.7</ele>
        <time>2022-08-10T06:15:23Z</time>
      </trkpt>
      <trkpt lat="47.14046" lon="5.98189">
        <ele>414.1</ele>
        <time>2022-08-10T06:15:24Z</time>
      </trkpt>
      <trkpt lat="47.14046" lon="5.98191">
        <ele>414.6</ele>
        <time>2022-08-10T06:15:25Z</time>
      </trkpt>
      <trkpt lat="47.14045" lon="5.98195">
        <ele>415.2</ele>
        <time>2022-08-10T06:15:26Z</time>
      </trkpt>
      <trkpt lat="47.14045" lon="5.98198">
        <ele>416.5</ele>
        <time>2022-08-10T06:15:27Z</time>
      </trkpt>
      <trkpt lat="47.14045" lon="5.98201">
        <ele>418</ele>
        <time>2022-08-10T06:15:28Z</time>
      </trkpt>
      <trkpt lat="47.14045" lon="5.98205">
        <ele>418.7</ele>
        <time>2022-08-10T06:15:29Z</time>
      </trkpt>
      <trkpt lat="47.14044" lon="5.98208">
        <ele>419.2</ele>
        <time>2022-08-10T06:15:30Z</time>
      </trkpt>
      <trkpt lat="47.14044" lon="5.98211">
        <ele>419.6</ele>
        <time>2022-08-10T06:15:31Z</time>
      </trkpt>
      <trkpt lat="47.14043" lon="5.98214">
        <ele>420.1</ele>
        <time>2022-08-10T06:15:32Z</time>
      </trkpt>
      <trkpt lat="47.14042" lon="5.98218">
        <ele>420.5</ele>
        <time>2022-08-10T06:15:33Z</time>
      </trkpt>
      <trkpt lat="47.14041" lon="5.98222">
        <ele>421.2</ele>
        <time>2022-08-10T06:15:34Z</time>
      </trkpt>
      <trkpt lat="47.14039" lon="5.98226">
        <ele>421.5</ele>
        <time>2022-08-10T06:15:35Z</time>
      </trkpt>
      <trkpt lat="47.14037" lon="5.98229">
        <ele>421.9</ele>
        <time>2022-08-10T06:15:36Z</time>
      </trkpt>
      <trkpt lat="47.14035" lon="5.98233">
        <ele>422.2</ele>
        <time>2022-08-10T06:15:37Z</time>
      </trkpt>
      <trkpt lat="47.14033" lon="5.98238">
        <ele>422.1</ele>
        <time>2022-08-10T06:15:38Z</time>
      </trkpt>
      <trkpt lat="47.14032" lon="5.98242">
        <ele>422.6</ele>
        <time>2022-08-10T06:15:39Z</time>
      </trkpt>
      <trkpt lat="47.14031" lon="5.98247">
        <ele>423</ele>
        <time>2022-08-10T06:15:40Z</time>
      </trkpt>
      <trkpt lat="47.14029" lon="5.98251">
        <ele>423.4</ele>
        <time>2022-08-10T06:15:41Z</time>
      </trkpt>
      <trkpt lat="47.14028" lon="5.98255">
        <ele>423.8</ele>
        <time>2022-08-10T06:15:42Z</time>
      </trkpt>
      <trkpt lat="47.14026" lon="5.98258">
        <ele>424.7</ele>
        <time>2022-08-10T06:15:43Z</time>
      </trkpt>
      <trkpt lat="47.14025" lon="5.98262">
        <ele>425.4</ele>
        <time>2022-08-10T06:15:44Z</time>
      </trkpt>
      <trkpt lat="47.14024" lon="5.98266">
        <ele>426.3</ele>
        <time>2022-08-10T06:15:45Z</time>
      </trkpt>
      <trkpt lat="47.14023" lon="5.9827">
        <ele>427.2</ele>
        <time>2022-08-10T06:15:46Z</time>
      </trkpt>
      <trkpt lat="47.14023" lon="5.98274">
        <ele>428.1</ele>
        <time>2022-08-10T06:15:47Z</time>
      </trkpt>
      <trkpt lat="47.14022" lon="5.98278">
        <ele>429.2</ele>
        <time>2022-08-10T06:15:48Z</time>
      </trkpt>
      <trkpt lat="47.14023" lon="5.98285">
        <ele>428.5</ele>
        <time>2022-08-10T06:15:49Z</time>
      </trkpt>
      <trkpt lat="47.14022" lon="5.98288">
        <ele>429.1</ele>
        <time>2022-08-10T06:15:50Z</time>
      </trkpt>
      <trkpt lat="47.14021" lon="5.98291">
        <ele>429.8</ele>
        <time>2022-08-10T06:15:51Z</time>
      </trkpt>
      <trkpt lat="47.1402" lon="5.98294">
        <ele>430.1</ele>
        <time>2022-08-10T06:15:52Z</time>
      </trkpt>
      <trkpt lat="47.14019" lon="5.98297">
        <ele>430.5</ele>
        <time>2022-08-10T06:15:53Z</time>
      </trkpt>
      <trkpt lat="47.14017" lon="5.98299">
        <ele>431.1</ele>
        <time>2022-08-10T06:15:54Z</time>
      </trkpt>
      <trkpt lat="47.14015" lon="5.98302">
        <ele>431.3</ele>
        <time>2022-08-10T06:15:55Z</time>
      </trkpt>
      <trkpt lat="47.14013" lon="5.98304">
        <ele>431.2</ele>
        <time>2022-08-10T06:15:56Z</time>
      </trkpt>
      <trkpt lat="47.14011" lon="5.98306">
        <ele>431.1</ele>
        <time>2022-08-10T06:15:57Z</time>
      </trkpt>
      <trkpt lat="47.14009" lon="5.98308">
        <ele>430.7</ele>
        <time>2022-08-10T06:15:58Z</time>
      </trkpt>
      <trkpt lat="47.14007" lon="5.98309">
        <ele>430.1</ele>
        <time>2022-08-10T06:15:59Z</time>
      </trkpt>
      <trkpt lat="47.14004" lon="5.98311">
        <ele>429.4</ele>
        <time>2022-08-10T06:16:00Z</time>
      </trkpt>
      <trkpt lat="47.14002" lon="5.98314">
        <ele>428.8</ele>
        <time>2022-08-10T06:16:01Z</time>
      </trkpt>
      <trkpt lat="47.13999" lon="5.98316">
        <ele>428.3</ele>
        <time>2022-08-10T06:16:02Z</time>
      </trkpt>
      <trkpt lat="47.13996" lon="5.98318">
        <ele>427.6</ele>
        <time>2022-08-10T06:16:03Z</time>
      </trkpt>
      <trkpt lat="47.13995" lon="5.9832">
        <ele>427.3</ele>
        <time>2022-08-10T06:16:04Z</time>
      </trkpt>
      <trkpt lat="47.13993" lon="5.98321">
        <ele>426.7</ele>
        <time>2022-08-10T06:16:05Z</time>
      </trkpt>
      <trkpt lat="47.1399" lon="5.98323">
        <ele>426.4</ele>
        <time>2022-08-10T06:16:06Z</time>
      </trkpt>
      <trkpt lat="47.13987" lon="5.98325">
        <ele>426.1</ele>
        <time>2022-08-10T06:16:07Z</time>
      </trkpt>
      <trkpt lat="47.13984" lon="5.98327">
        <ele>425.6</ele>
        <time>2022-08-10T06:16:08Z</time>
      </trkpt>
      <trkpt lat="47.13982" lon="5.98329">
        <ele>425.8</ele>
        <time>2022-08-10T06:16:09Z</time>
      </trkpt>
      <trkpt lat="47.13979" lon="5.98331">
        <ele>425.9</ele>
        <time>2022-08-10T06:16:10Z</time>
      </trkpt>
      <trkpt lat="47.13976" lon="5.98334">
        <ele>425.9</ele>
        <time>2022-08-10T06:16:11Z</time>
      </trkpt>
      <trkpt lat="47.13973" lon="5.98337">
        <ele>425.3</ele>
        <time>2022-08-10T06:16:12Z</time>
      </trkpt>
      <trkpt lat="47.13971" lon="5.9834">
        <ele>425.4</ele>
        <time>2022-08-10T06:16:13Z</time>
      </trkpt>
      <trkpt lat="47.13967" lon="5.98342">
        <ele>425.6</ele>
        <time>2022-08-10T06:16:14Z</time>
      </trkpt>
      <trkpt lat="47.13964" lon="5.98344">
        <ele>425.6</ele>
        <time>2022-08-10T06:16:15Z</time>
      </trkpt>
      <trkpt lat="47.13961" lon="5.98346">
        <ele>425.4</ele>
        <time>2022-08-10T06:16:16Z</time>
      </trkpt>
      <trkpt lat="47.13958" lon="5.98349">
        <ele>425.3</ele>
        <time>2022-08-10T06:16:17Z</time>
      </trkpt>
      <trkpt lat="47.13955" lon="5.98351">
        <ele>425.6</ele>
        <time>2022-08-10T06:16:18Z</time>
      </trkpt>
      <trkpt lat="47.13952" lon="5.98353">
        <ele>425.6</ele>
        <time>2022-08-10T06:16:19Z</time>
      </trkpt>
      <trkpt lat="47.13949" lon="5.98355">
        <ele>425.8</ele>
        <time>2022-08-10T06:16:20Z</time>
      </trkpt>
      <trkpt lat="47.13947" lon="5.98357">
        <ele>426</ele>
        <time>2022-08-10T06:16:21Z</time>
      </trkpt>
      <trkpt lat="47.13944" lon="5.98359">
        <ele>426</ele>
        <time>2022-08-10T06:16:22Z</time>
      </trkpt>
      <trkpt lat="47.13942" lon="5.98361">
        <ele>425.8</ele>
        <time>2022-08-10T06:16:23Z</time>
      </trkpt>
      <trkpt lat="47.1394" lon="5.98364">
        <ele>425.9</ele>
        <time>2022-08-10T06:16:24Z</time>
      </trkpt>
      <trkpt lat="47.13938" lon="5.98366">
        <ele>426</ele>
        <time>2022-08-10T06:16:25Z</time>
      </trkpt>
      <trkpt lat="47.13936" lon="5.98369">
        <ele>425.3</ele>
        <time>2022-08-10T06:16:26Z</time>
      </trkpt>
      <trkpt lat="47.13935" lon="5.98371">
        <ele>426.1</ele>
        <time>2022-08-10T06:16:27Z</time>
      </trkpt>
      <trkpt lat="47.13934" lon="5.98373">
        <ele>426.4</ele>
        <time>2022-08-10T06:16:28Z</time>
      </trkpt>
      <trkpt lat="47.13931" lon="5.98375">
        <ele>425.9</ele>
        <time>2022-08-10T06:16:29Z</time>
      </trkpt>
      <trkpt lat="47.13928" lon="5.98378">
        <ele>426</ele>
        <time>2022-08-10T06:16:30Z</time>
      </trkpt>
      <trkpt lat="47.13922" lon="5.98381">
        <ele>423.2</ele>
        <time>2022-08-10T06:16:31Z</time>
      </trkpt>
      <trkpt lat="47.13919" lon="5.98383">
        <ele>423.2</ele>
        <time>2022-08-10T06:16:32Z</time>
      </trkpt>
      <trkpt lat="47.13916" lon="5.98386">
        <ele>423.3</ele>
        <time>2022-08-10T06:16:33Z</time>
      </trkpt>
      <trkpt lat="47.13914" lon="5.98388">
        <ele>423.6</ele>
        <time>2022-08-10T06:16:34Z</time>
      </trkpt>
      <trkpt lat="47.13912" lon="5.9839">
        <ele>424.1</ele>
        <time>2022-08-10T06:16:35Z</time>
      </trkpt>
      <trkpt lat="47.13909" lon="5.98392">
        <ele>424.3</ele>
        <time>2022-08-10T06:16:36Z</time>
      </trkpt>
      <trkpt lat="47.13907" lon="5.98394">
        <ele>424.5</ele>
        <time>2022-08-10T06:16:37Z</time>
      </trkpt>
      <trkpt lat="47.13904" lon="5.98396">
        <ele>425.1</ele>
        <time>2022-08-10T06:16:38Z</time>
      </trkpt>
      <trkpt lat="47.13901" lon="5.98398">
        <ele>425.3</ele>
        <time>2022-08-10T06:16:39Z</time>
      </trkpt>
      <trkpt lat="47.13899" lon="5.98401">
        <ele>425.7</ele>
        <time>2022-08-10T06:16:40Z</time>
      </trkpt>
      <trkpt lat="47.13896" lon="5.98403">
        <ele>426</ele>
        <time>2022-08-10T06:16:41Z</time>
      </trkpt>
      <trkpt lat="47.13893" lon="5.98406">
        <ele>425.5</ele>
        <time>2022-08-10T06:16:42Z</time>
      </trkpt>
      <trkpt lat="47.13889" lon="5.98408">
        <ele>425.8</ele>
        <time>2022-08-10T06:16:43Z</time>
      </trkpt>
      <trkpt lat="47.13886" lon="5.98411">
        <ele>425.9</ele>
        <time>2022-08-10T06:16:44Z</time>
      </trkpt>
      <trkpt lat="47.13882" lon="5.98414">
        <ele>426.5</ele>
        <time>2022-08-10T06:16:45Z</time>
      </trkpt>
      <trkpt lat="47.13878" lon="5.98418">
        <ele>426.7</ele>
        <time>2022-08-10T06:16:46Z</time>
      </trkpt>
      <trkpt lat="47.13875" lon="5.98424">
        <ele>427</ele>
        <time>2022-08-10T06:16:47Z</time>
      </trkpt>
      <trkpt lat="47.13873" lon="5.98429">
        <ele>427.4</ele>
        <time>2022-08-10T06:16:48Z</time>
      </trkpt>
      <trkpt lat="47.1387" lon="5.98436">
        <ele>427.5</ele>
        <time>2022-08-10T06:16:49Z</time>
      </trkpt>
      <trkpt lat="47.13867" lon="5.98443">
        <ele>427.5</ele>
        <time>2022-08-10T06:16:50Z</time>
      </trkpt>
      <trkpt lat="47.13864" lon="5.9845">
        <ele>427.6</ele>
        <time>2022-08-10T06:16:51Z</time>
      </trkpt>
      <trkpt lat="47.13862" lon="5.98457">
        <ele>427.1</ele>
        <time>2022-08-10T06:16:52Z</time>
      </trkpt>
      <trkpt lat="47.1386" lon="5.98464">
        <ele>427.1</ele>
        <time>2022-08-10T06:16:53Z</time>
      </trkpt>
      <trkpt lat="47.13858" lon="5.9847">
        <ele>427.1</ele>
        <time>2022-08-10T06:16:54Z</time>
      </trkpt>
      <trkpt lat="47.13855" lon="5.98475">
        <ele>425.6</ele>
        <time>2022-08-10T06:16:55Z</time>
      </trkpt>
      <trkpt lat="47.13852" lon="5.98481">
        <ele>425.4</ele>
        <time>2022-08-10T06:16:56Z</time>
      </trkpt>
      <trkpt lat="47.13849" lon="5.98486">
        <ele>425.4</ele>
        <time>2022-08-10T06:16:57Z</time>
      </trkpt>
      <trkpt lat="47.13847" lon="5.9849">
        <ele>425.4</ele>
        <time>2022-08-10T06:16:58Z</time>
      </trkpt>
      <trkpt lat="47.13844" lon="5.98495">
        <ele>425.4</ele>
        <time>2022-08-10T06:16:59Z</time>
      </trkpt>
      <trkpt lat="47.1384" lon="5.985">
        <ele>424.8</ele>
        <time>2022-08-10T06:17:00Z</time>
      </trkpt>
      <trkpt lat="47.13838" lon="5.98504">
        <ele>424.4</ele>
        <time>2022-08-10T06:17:01Z</time>
      </trkpt>
      <trkpt lat="47.13834" lon="5.98509">
        <ele>424</ele>
        <time>2022-08-10T06:17:02Z</time>
      </trkpt>
      <trkpt lat="47.13833" lon="5.98513">
        <ele>423.7</ele>
        <time>2022-08-10T06:17:03Z</time>
      </trkpt>
      <trkpt lat="47.13831" lon="5.98518">
        <ele>422.8</ele>
        <time>2022-08-10T06:17:04Z</time>
      </trkpt>
      <trkpt lat="47.13829" lon="5.98522">
        <ele>422.5</ele>
        <time>2022-08-10T06:17:05Z</time>
      </trkpt>
      <trkpt lat="47.13828" lon="5.98527">
        <ele>422.5</ele>
        <time>2022-08-10T06:17:06Z</time>
      </trkpt>
      <trkpt lat="47.13826" lon="5.98531">
        <ele>422.3</ele>
        <time>2022-08-10T06:17:07Z</time>
      </trkpt>
      <trkpt lat="47.13823" lon="5.98534">
        <ele>422.1</ele>
        <time>2022-08-10T06:17:08Z</time>
      </trkpt>
      <trkpt lat="47.1382" lon="5.98539">
        <ele>420.8</ele>
        <time>2022-08-10T06:17:09Z</time>
      </trkpt>
      <trkpt lat="47.13817" lon="5.98542">
        <ele>420.4</ele>
        <time>2022-08-10T06:17:10Z</time>
      </trkpt>
      <trkpt lat="47.13813" lon="5.98544">
        <ele>420</ele>
        <time>2022-08-10T06:17:11Z</time>
      </trkpt>
      <trkpt lat="47.1381" lon="5.98546">
        <ele>420</ele>
        <time>2022-08-10T06:17:12Z</time>
      </trkpt>
      <trkpt lat="47.13806" lon="5.98547">
        <ele>419.7</ele>
        <time>2022-08-10T06:17:13Z</time>
      </trkpt>
      <trkpt lat="47.13802" lon="5.98548">
        <ele>419.4</ele>
        <time>2022-08-10T06:17:14Z</time>
      </trkpt>
      <trkpt lat="47.13799" lon="5.98549">
        <ele>418.6</ele>
        <time>2022-08-10T06:17:15Z</time>
      </trkpt>
      <trkpt lat="47.13795" lon="5.98549">
        <ele>417.7</ele>
        <time>2022-08-10T06:17:16Z</time>
      </trkpt>
      <trkpt lat="47.13792" lon="5.98549">
        <ele>417.2</ele>
        <time>2022-08-10T06:17:17Z</time>
      </trkpt>
      <trkpt lat="47.13788" lon="5.9855">
        <ele>416.9</ele>
        <time>2022-08-10T06:17:18Z</time>
      </trkpt>
      <trkpt lat="47.13783" lon="5.98551">
        <ele>416.3</ele>
        <time>2022-08-10T06:17:19Z</time>
      </trkpt>
      <trkpt lat="47.13779" lon="5.98552">
        <ele>415</ele>
        <time>2022-08-10T06:17:20Z</time>
      </trkpt>
      <trkpt lat="47.13774" lon="5.98553">
        <ele>414.4</ele>
        <time>2022-08-10T06:17:21Z</time>
      </trkpt>
      <trkpt lat="47.1377" lon="5.98554">
        <ele>414.4</ele>
        <time>2022-08-10T06:17:22Z</time>
      </trkpt>
      <trkpt lat="47.13765" lon="5.98556">
        <ele>413.7</ele>
        <time>2022-08-10T06:17:23Z</time>
      </trkpt>
      <trkpt lat="47.13761" lon="5.98558">
        <ele>413.5</ele>
        <time>2022-08-10T06:17:24Z</time>
      </trkpt>
      <trkpt lat="47.13757" lon="5.98561">
        <ele>413.2</ele>
        <time>2022-08-10T06:17:25Z</time>
      </trkpt>
      <trkpt lat="47.13753" lon="5.98563">
        <ele>412.8</ele>
        <time>2022-08-10T06:17:26Z</time>
      </trkpt>
      <trkpt lat="47.13751" lon="5.98566">
        <ele>412.7</ele>
        <time>2022-08-10T06:17:27Z</time>
      </trkpt>
      <trkpt lat="47.13748" lon="5.98568">
        <ele>412.5</ele>
        <time>2022-08-10T06:17:28Z</time>
      </trkpt>
      <trkpt lat="47.13746" lon="5.9857">
        <ele>412.7</ele>
        <time>2022-08-10T06:17:29Z</time>
      </trkpt>
      <trkpt lat="47.13741" lon="5.98572">
        <ele>411.9</ele>
        <time>2022-08-10T06:17:30Z</time>
      </trkpt>
      <trkpt lat="47.1374" lon="5.98574">
        <ele>412.4</ele>
        <time>2022-08-10T06:17:31Z</time>
      </trkpt>
      <trkpt lat="47.13737" lon="5.98575">
        <ele>412.8</ele>
        <time>2022-08-10T06:17:32Z</time>
      </trkpt>
      <trkpt lat="47.13734" lon="5.98576">
        <ele>413.7</ele>
        <time>2022-08-10T06:17:33Z</time>
      </trkpt>
      <trkpt lat="47.13731" lon="5.98578">
        <ele>413.9</ele>
        <time>2022-08-10T06:17:34Z</time>
      </trkpt>
      <trkpt lat="47.13728" lon="5.98581">
        <ele>414.9</ele>
        <time>2022-08-10T06:17:35Z</time>
      </trkpt>
      <trkpt lat="47.13726" lon="5.98584">
        <ele>415.2</ele>
        <time>2022-08-10T06:17:36Z</time>
      </trkpt>
      <trkpt lat="47.13722" lon="5.98588">
        <ele>415.7</ele>
        <time>2022-08-10T06:17:37Z</time>
      </trkpt>
      <trkpt lat="47.1372" lon="5.98592">
        <ele>416.1</ele>
        <time>2022-08-10T06:17:38Z</time>
      </trkpt>
      <trkpt lat="47.13717" lon="5.98594">
        <ele>416.7</ele>
        <time>2022-08-10T06:17:39Z</time>
      </trkpt>
      <trkpt lat="47.13714" lon="5.98597">
        <ele>417</ele>
        <time>2022-08-10T06:17:40Z</time>
      </trkpt>
      <trkpt lat="47.1371" lon="5.98598">
        <ele>416.8</ele>
        <time>2022-08-10T06:17:41Z</time>
      </trkpt>
      <trkpt lat="47.13705" lon="5.98598">
        <ele>416.7</ele>
        <time>2022-08-10T06:17:42Z</time>
      </trkpt>
      <trkpt lat="47.137" lon="5.98598">
        <ele>416.6</ele>
        <time>2022-08-10T06:17:43Z</time>
      </trkpt>
      <trkpt lat="47.13695" lon="5.98598">
        <ele>416.4</ele>
        <time>2022-08-10T06:17:44Z</time>
      </trkpt>
      <trkpt lat="47.1369" lon="5.98598">
        <ele>416.3</ele>
        <time>2022-08-10T06:17:45Z</time>
      </trkpt>
      <trkpt lat="47.13685" lon="5.98598">
        <ele>416</ele>
        <time>2022-08-10T06:17:46Z</time>
      </trkpt>
      <trkpt lat="47.1368" lon="5.98598">
        <ele>415.7</ele>
        <time>2022-08-10T06:17:47Z</time>
      </trkpt>
      <trkpt lat="47.13674" lon="5.98597">
        <ele>415</ele>
        <time>2022-08-10T06:17:48Z</time>
      </trkpt>
      <trkpt lat="47.13669" lon="5.98597">
        <ele>414.3</ele>
        <time>2022-08-10T06:17:49Z</time>
      </trkpt>
      <trkpt lat="47.13664" lon="5.98598">
        <ele>413.9</ele>
        <time>2022-08-10T06:17:50Z</time>
      </trkpt>
      <trkpt lat="47.13658" lon="5.98598">
        <ele>413.2</ele>
        <time>2022-08-10T06:17:51Z</time>
      </trkpt>
      <trkpt lat="47.13654" lon="5.98598">
        <ele>412.8</ele>
        <time>2022-08-10T06:17:52Z</time>
      </trkpt>
      <trkpt lat="47.13649" lon="5.986">
        <ele>412.3</ele>
        <time>2022-08-10T06:17:53Z</time>
      </trkpt>
      <trkpt lat="47.13646" lon="5.98602">
        <ele>411.9</ele>
        <time>2022-08-10T06:17:54Z</time>
      </trkpt>
      <trkpt lat="47.13643" lon="5.98605">
        <ele>411.4</ele>
        <time>2022-08-10T06:17:55Z</time>
      </trkpt>
      <trkpt lat="47.13641" lon="5.9861">
        <ele>411.7</ele>
        <time>2022-08-10T06:17:56Z</time>
      </trkpt>
      <trkpt lat="47.13638" lon="5.98614">
        <ele>411.9</ele>
        <time>2022-08-10T06:17:57Z</time>
      </trkpt>
      <trkpt lat="47.13636" lon="5.98617">
        <ele>412.1</ele>
        <time>2022-08-10T06:17:58Z</time>
      </trkpt>
      <trkpt lat="47.13633" lon="5.98622">
        <ele>412.6</ele>
        <time>2022-08-10T06:17:59Z</time>
      </trkpt>
      <trkpt lat="47.1363" lon="5.98626">
        <ele>413.1</ele>
        <time>2022-08-10T06:18:00Z</time>
      </trkpt>
      <trkpt lat="47.13627" lon="5.98631">
        <ele>414.3</ele>
        <time>2022-08-10T06:18:01Z</time>
      </trkpt>
      <trkpt lat="47.13625" lon="5.98635">
        <ele>415.4</ele>
        <time>2022-08-10T06:18:02Z</time>
      </trkpt>
      <trkpt lat="47.13622" lon="5.9864">
        <ele>416.3</ele>
        <time>2022-08-10T06:18:03Z</time>
      </trkpt>
      <trkpt lat="47.1362" lon="5.98645">
        <ele>417.5</ele>
        <time>2022-08-10T06:18:04Z</time>
      </trkpt>
      <trkpt lat="47.13616" lon="5.9865">
        <ele>418</ele>
        <time>2022-08-10T06:18:05Z</time>
      </trkpt>
      <trkpt lat="47.13613" lon="5.98655">
        <ele>418.4</ele>
        <time>2022-08-10T06:18:06Z</time>
      </trkpt>
      <trkpt lat="47.1361" lon="5.98659">
        <ele>418.5</ele>
        <time>2022-08-10T06:18:07Z</time>
      </trkpt>
      <trkpt lat="47.13607" lon="5.98664">
        <ele>418.7</ele>
        <time>2022-08-10T06:18:08Z</time>
      </trkpt>
      <trkpt lat="47.13604" lon="5.98668">
        <ele>419</ele>
        <time>2022-08-10T06:18:09Z</time>
      </trkpt>
      <trkpt lat="47.13601" lon="5.98672">
        <ele>419.2</ele>
        <time>2022-08-10T06:18:10Z</time>
      </trkpt>
      <trkpt lat="47.13598" lon="5.98676">
        <ele>419.4</ele>
        <time>2022-08-10T06:18:11Z</time>
      </trkpt>
      <trkpt lat="47.13596" lon="5.98679">
        <ele>419.7</ele>
        <time>2022-08-10T06:18:12Z</time>
      </trkpt>
      <trkpt lat="47.13593" lon="5.98683">
        <ele>420.1</ele>
        <time>2022-08-10T06:18:13Z</time>
      </trkpt>
      <trkpt lat="47.13591" lon="5.98686">
        <ele>420.6</ele>
        <time>2022-08-10T06:18:14Z</time>
      </trkpt>
      <trkpt lat="47.1359" lon="5.98688">
        <ele>421</ele>
        <time>2022-08-10T06:18:15Z</time>
      </trkpt>
      <trkpt lat="47.13587" lon="5.98692">
        <ele>419.6</ele>
        <time>2022-08-10T06:18:16Z</time>
      </trkpt>
      <trkpt lat="47.13584" lon="5.98696">
        <ele>417</ele>
        <time>2022-08-10T06:18:17Z</time>
      </trkpt>
      <trkpt lat="47.1358" lon="5.987">
        <ele>415.1</ele>
        <time>2022-08-10T06:18:18Z</time>
      </trkpt>
      <trkpt lat="47.13578" lon="5.98703">
        <ele>415.2</ele>
        <time>2022-08-10T06:18:19Z</time>
      </trkpt>
      <trkpt lat="47.13577" lon="5.98707">
        <ele>415.4</ele>
        <time>2022-08-10T06:18:20Z</time>
      </trkpt>
      <trkpt lat="47.13574" lon="5.98711">
        <ele>414.4</ele>
        <time>2022-08-10T06:18:21Z</time>
      </trkpt>
      <trkpt lat="47.13572" lon="5.98714">
        <ele>413.9</ele>
        <time>2022-08-10T06:18:22Z</time>
      </trkpt>
      <trkpt lat="47.1357" lon="5.98718">
        <ele>414.1</ele>
        <time>2022-08-10T06:18:23Z</time>
      </trkpt>
      <trkpt lat="47.13569" lon="5.98721">
        <ele>414.5</ele>
        <time>2022-08-10T06:18:24Z</time>
      </trkpt>
      <trkpt lat="47.13567" lon="5.98724">
        <ele>414.6</ele>
        <time>2022-08-10T06:18:25Z</time>
      </trkpt>
      <trkpt lat="47.13565" lon="5.98727">
        <ele>414.8</ele>
        <time>2022-08-10T06:18:26Z</time>
      </trkpt>
      <trkpt lat="47.13563" lon="5.9873">
        <ele>415</ele>
        <time>2022-08-10T06:18:27Z</time>
      </trkpt>
      <trkpt lat="47.13561" lon="5.98733">
        <ele>414.9</ele>
        <time>2022-08-10T06:18:28Z</time>
      </trkpt>
      <trkpt lat="47.1356" lon="5.98735">
        <ele>415.2</ele>
        <time>2022-08-10T06:18:29Z</time>
      </trkpt>
      <trkpt lat="47.13557" lon="5.98738">
        <ele>414.8</ele>
        <time>2022-08-10T06:18:30Z</time>
      </trkpt>
      <trkpt lat="47.13554" lon="5.98741">
        <ele>414.1</ele>
        <time>2022-08-10T06:18:31Z</time>
      </trkpt>
      <trkpt lat="47.13552" lon="5.98743">
        <ele>414</ele>
        <time>2022-08-10T06:18:32Z</time>
      </trkpt>
      <trkpt lat="47.1355" lon="5.98745">
        <ele>413.8</ele>
        <time>2022-08-10T06:18:33Z</time>
      </trkpt>
      <trkpt lat="47.13548" lon="5.98748">
        <ele>413.5</ele>
        <time>2022-08-10T06:18:34Z</time>
      </trkpt>
      <trkpt lat="47.13546" lon="5.9875">
        <ele>413.4</ele>
        <time>2022-08-10T06:18:35Z</time>
      </trkpt>
      <trkpt lat="47.13545" lon="5.98752">
        <ele>413.2</ele>
        <time>2022-08-10T06:18:36Z</time>
      </trkpt>
      <trkpt lat="47.13544" lon="5.98754">
        <ele>413</ele>
        <time>2022-08-10T06:18:37Z</time>
      </trkpt>
      <trkpt lat="47.13542" lon="5.98756">
        <ele>413.4</ele>
        <time>2022-08-10T06:18:38Z</time>
      </trkpt>
      <trkpt lat="47.1354" lon="5.98759">
        <ele>413.8</ele>
        <time>2022-08-10T06:18:39Z</time>
      </trkpt>
      <trkpt lat="47.13539" lon="5.98762">
        <ele>414.6</ele>
        <time>2022-08-10T06:18:40Z</time>
      </trkpt>
      <trkpt lat="47.13537" lon="5.98766">
        <ele>414.8</ele>
        <time>2022-08-10T06:18:41Z</time>
      </trkpt>
      <trkpt lat="47.13536" lon="5.98769">
        <ele>415.1</ele>
        <time>2022-08-10T06:18:42Z</time>
      </trkpt>
      <trkpt lat="47.13535" lon="5.98772">
        <ele>415.1</ele>
        <time>2022-08-10T06:18:43Z</time>
      </trkpt>
      <trkpt lat="47.13534" lon="5.98775">
        <ele>415.7</ele>
        <time>2022-08-10T06:18:44Z</time>
      </trkpt>
      <trkpt lat="47.13532" lon="5.98777">
        <ele>416.9</ele>
        <time>2022-08-10T06:18:45Z</time>
      </trkpt>
      <trkpt lat="47.13531" lon="5.9878">
        <ele>418.4</ele>
        <time>2022-08-10T06:18:46Z</time>
      </trkpt>
      <trkpt lat="47.13528" lon="5.98782">
        <ele>419.3</ele>
        <time>2022-08-10T06:18:47Z</time>
      </trkpt>
      <trkpt lat="47.13526" lon="5.98784">
        <ele>420.1</ele>
        <time>2022-08-10T06:18:48Z</time>
      </trkpt>
      <trkpt lat="47.13524" lon="5.98786">
        <ele>421.1</ele>
        <time>2022-08-10T06:18:49Z</time>
      </trkpt>
      <trkpt lat="47.13522" lon="5.98789">
        <ele>421.2</ele>
        <time>2022-08-10T06:18:50Z</time>
      </trkpt>
      <trkpt lat="47.1352" lon="5.98793">
        <ele>421.6</ele>
        <time>2022-08-10T06:18:51Z</time>
      </trkpt>
      <trkpt lat="47.13518" lon="5.98796">
        <ele>422.3</ele>
        <time>2022-08-10T06:18:52Z</time>
      </trkpt>
      <trkpt lat="47.13514" lon="5.988">
        <ele>421.4</ele>
        <time>2022-08-10T06:18:53Z</time>
      </trkpt>
      <trkpt lat="47.13511" lon="5.98803">
        <ele>420.5</ele>
        <time>2022-08-10T06:18:54Z</time>
      </trkpt>
      <trkpt lat="47.13509" lon="5.98803">
        <ele>420.6</ele>
        <time>2022-08-10T06:18:55Z</time>
      </trkpt>
      <trkpt lat="47.13508" lon="5.98803">
        <ele>421</ele>
        <time>2022-08-10T06:18:56Z</time>
      </trkpt>
      <trkpt lat="47.13506" lon="5.98804">
        <ele>421.3</ele>
        <time>2022-08-10T06:18:57Z</time>
      </trkpt>
      <trkpt lat="47.13504" lon="5.98804">
        <ele>421.6</ele>
        <time>2022-08-10T06:18:58Z</time>
      </trkpt>
      <trkpt lat="47.13501" lon="5.98804">
        <ele>421.8</ele>
        <time>2022-08-10T06:18:59Z</time>
      </trkpt>
      <trkpt lat="47.13499" lon="5.98805">
        <ele>422.1</ele>
        <time>2022-08-10T06:19:00Z</time>
      </trkpt>
      <trkpt lat="47.13497" lon="5.98805">
        <ele>422.4</ele>
        <time>2022-08-10T06:19:01Z</time>
      </trkpt>
      <trkpt lat="47.13495" lon="5.98807">
        <ele>422.6</ele>
        <time>2022-08-10T06:19:02Z</time>
      </trkpt>
      <trkpt lat="47.13492" lon="5.9881">
        <ele>423.5</ele>
        <time>2022-08-10T06:19:03Z</time>
      </trkpt>
      <trkpt lat="47.1349" lon="5.98812">
        <ele>424.3</ele>
        <time>2022-08-10T06:19:04Z</time>
      </trkpt>
      <trkpt lat="47.13487" lon="5.98815">
        <ele>425</ele>
        <time>2022-08-10T06:19:05Z</time>
      </trkpt>
      <trkpt lat="47.13486" lon="5.98817">
        <ele>425.5</ele>
        <time>2022-08-10T06:19:06Z</time>
      </trkpt>
      <trkpt lat="47.13483" lon="5.98821">
        <ele>425.9</ele>
        <time>2022-08-10T06:19:07Z</time>
      </trkpt>
      <trkpt lat="47.13481" lon="5.98824">
        <ele>426</ele>
        <time>2022-08-10T06:19:08Z</time>
      </trkpt>
      <trkpt lat="47.13479" lon="5.98826">
        <ele>426.7</ele>
        <time>2022-08-10T06:19:09Z</time>
      </trkpt>
      <trkpt lat="47.13476" lon="5.98829">
        <ele>427.2</ele>
        <time>2022-08-10T06:19:10Z</time>
      </trkpt>
      <trkpt lat="47.13474" lon="5.98832">
        <ele>428.2</ele>
        <time>2022-08-10T06:19:11Z</time>
      </trkpt>
      <trkpt lat="47.13472" lon="5.98835">
        <ele>428.9</ele>
        <time>2022-08-10T06:19:12Z</time>
      </trkpt>
      <trkpt lat="47.1347" lon="5.98837">
        <ele>429.1</ele>
        <time>2022-08-10T06:19:13Z</time>
      </trkpt>
      <trkpt lat="47.13468" lon="5.9884">
        <ele>429.2</ele>
        <time>2022-08-10T06:19:14Z</time>
      </trkpt>
      <trkpt lat="47.13465" lon="5.98842">
        <ele>429.5</ele>
        <time>2022-08-10T06:19:15Z</time>
      </trkpt>
      <trkpt lat="47.13463" lon="5.98843">
        <ele>429.8</ele>
        <time>2022-08-10T06:19:16Z</time>
      </trkpt>
      <trkpt lat="47.13459" lon="5.98844">
        <ele>429.4</ele>
        <time>2022-08-10T06:19:17Z</time>
      </trkpt>
      <trkpt lat="47.13456" lon="5.98845">
        <ele>428.9</ele>
        <time>2022-08-10T06:19:18Z</time>
      </trkpt>
      <trkpt lat="47.13453" lon="5.98847">
        <ele>429.1</ele>
        <time>2022-08-10T06:19:19Z</time>
      </trkpt>
      <trkpt lat="47.13451" lon="5.98849">
        <ele>428.5</ele>
        <time>2022-08-10T06:19:20Z</time>
      </trkpt>
      <trkpt lat="47.13448" lon="5.98851">
        <ele>428.1</ele>
        <time>2022-08-10T06:19:21Z</time>
      </trkpt>
      <trkpt lat="47.13446" lon="5.98854">
        <ele>428</ele>
        <time>2022-08-10T06:19:22Z</time>
      </trkpt>
      <trkpt lat="47.13444" lon="5.98856">
        <ele>428.2</ele>
        <time>2022-08-10T06:19:23Z</time>
      </trkpt>
      <trkpt lat="47.13441" lon="5.98859">
        <ele>428.6</ele>
        <time>2022-08-10T06:19:24Z</time>
      </trkpt>
      <trkpt lat="47.13439" lon="5.98861">
        <ele>429.1</ele>
        <time>2022-08-10T06:19:25Z</time>
      </trkpt>
      <trkpt lat="47.13437" lon="5.98865">
        <ele>429.4</ele>
        <time>2022-08-10T06:19:26Z</time>
      </trkpt>
      <trkpt lat="47.13436" lon="5.98867">
        <ele>429.9</ele>
        <time>2022-08-10T06:19:27Z</time>
      </trkpt>
      <trkpt lat="47.13435" lon="5.9887">
        <ele>430.9</ele>
        <time>2022-08-10T06:19:28Z</time>
      </trkpt>
      <trkpt lat="47.13433" lon="5.98872">
        <ele>431.6</ele>
        <time>2022-08-10T06:19:29Z</time>
      </trkpt>
      <trkpt lat="47.13432" lon="5.98875">
        <ele>432.5</ele>
        <time>2022-08-10T06:19:30Z</time>
      </trkpt>
      <trkpt lat="47.13431" lon="5.98877">
        <ele>433.8</ele>
        <time>2022-08-10T06:19:31Z</time>
      </trkpt>
      <trkpt lat="47.1343" lon="5.9888">
        <ele>435.6</ele>
        <time>2022-08-10T06:19:32Z</time>
      </trkpt>
      <trkpt lat="47.13429" lon="5.98884">
        <ele>437.2</ele>
        <time>2022-08-10T06:19:33Z</time>
      </trkpt>
      <trkpt lat="47.13429" lon="5.98887">
        <ele>438.9</ele>
        <time>2022-08-10T06:19:34Z</time>
      </trkpt>
      <trkpt lat="47.13428" lon="5.9889">
        <ele>440.4</ele>
        <time>2022-08-10T06:19:35Z</time>
      </trkpt>
      <trkpt lat="47.13428" lon="5.98893">
        <ele>441.4</ele>
        <time>2022-08-10T06:19:36Z</time>
      </trkpt>
      <trkpt lat="47.13428" lon="5.98895">
        <ele>442.6</ele>
        <time>2022-08-10T06:19:37Z</time>
      </trkpt>
      <trkpt lat="47.13428" lon="5.98897">
        <ele>442.1</ele>
        <time>2022-08-10T06:19:38Z</time>
      </trkpt>
      <trkpt lat="47.13428" lon="5.989">
        <ele>442.9</ele>
        <time>2022-08-10T06:19:39Z</time>
      </trkpt>
      <trkpt lat="47.13427" lon="5.98903">
        <ele>443.1</ele>
        <time>2022-08-10T06:19:40Z</time>
      </trkpt>
      <trkpt lat="47.13427" lon="5.98908">
        <ele>442.8</ele>
        <time>2022-08-10T06:19:41Z</time>
      </trkpt>
      <trkpt lat="47.13426" lon="5.98911">
        <ele>443.6</ele>
        <time>2022-08-10T06:19:42Z</time>
      </trkpt>
      <trkpt lat="47.13425" lon="5.98914">
        <ele>444.6</ele>
        <time>2022-08-10T06:19:43Z</time>
      </trkpt>
      <trkpt lat="47.13423" lon="5.98916">
        <ele>445.4</ele>
        <time>2022-08-10T06:19:44Z</time>
      </trkpt>
      <trkpt lat="47.13422" lon="5.98923">
        <ele>444.9</ele>
        <time>2022-08-10T06:19:45Z</time>
      </trkpt>
      <trkpt lat="47.1342" lon="5.98924">
        <ele>445.5</ele>
        <time>2022-08-10T06:19:46Z</time>
      </trkpt>
      <trkpt lat="47.13418" lon="5.98926">
        <ele>445.8</ele>
        <time>2022-08-10T06:19:47Z</time>
      </trkpt>
      <trkpt lat="47.13416" lon="5.98927">
        <ele>446.4</ele>
        <time>2022-08-10T06:19:48Z</time>
      </trkpt>
      <trkpt lat="47.13414" lon="5.98929">
        <ele>447.1</ele>
        <time>2022-08-10T06:19:49Z</time>
      </trkpt>
      <trkpt lat="47.13413" lon="5.98931">
        <ele>447.2</ele>
        <time>2022-08-10T06:19:50Z</time>
      </trkpt>
      <trkpt lat="47.13411" lon="5.98933">
        <ele>447.3</ele>
        <time>2022-08-10T06:19:51Z</time>
      </trkpt>
      <trkpt lat="47.13409" lon="5.98935">
        <ele>447.5</ele>
        <time>2022-08-10T06:19:52Z</time>
      </trkpt>
      <trkpt lat="47.13406" lon="5.98937">
        <ele>447.6</ele>
        <time>2022-08-10T06:19:53Z</time>
      </trkpt>
      <trkpt lat="47.13403" lon="5.98939">
        <ele>447.3</ele>
        <time>2022-08-10T06:19:54Z</time>
      </trkpt>
      <trkpt lat="47.134" lon="5.9894">
        <ele>447.3</ele>
        <time>2022-08-10T06:19:55Z</time>
      </trkpt>
      <trkpt lat="47.13396" lon="5.9894">
        <ele>446.9</ele>
        <time>2022-08-10T06:19:56Z</time>
      </trkpt>
      <trkpt lat="47.13393" lon="5.98941">
        <ele>446.5</ele>
        <time>2022-08-10T06:19:57Z</time>
      </trkpt>
      <trkpt lat="47.1339" lon="5.98941">
        <ele>446.2</ele>
        <time>2022-08-10T06:19:58Z</time>
      </trkpt>
      <trkpt lat="47.13387" lon="5.9894">
        <ele>445.9</ele>
        <time>2022-08-10T06:19:59Z</time>
      </trkpt>
      <trkpt lat="47.13385" lon="5.9894">
        <ele>445.7</ele>
        <time>2022-08-10T06:20:00Z</time>
      </trkpt>
      <trkpt lat="47.13382" lon="5.9894">
        <ele>445.1</ele>
        <time>2022-08-10T06:20:01Z</time>
      </trkpt>
      <trkpt lat="47.13379" lon="5.9894">
        <ele>444.4</ele>
        <time>2022-08-10T06:20:02Z</time>
      </trkpt>
      <trkpt lat="47.13376" lon="5.9894">
        <ele>443.6</ele>
        <time>2022-08-10T06:20:03Z</time>
      </trkpt>
      <trkpt lat="47.13373" lon="5.98941">
        <ele>442.6</ele>
        <time>2022-08-10T06:20:04Z</time>
      </trkpt>
      <trkpt lat="47.13371" lon="5.98942">
        <ele>442</ele>
        <time>2022-08-10T06:20:05Z</time>
      </trkpt>
      <trkpt lat="47.13369" lon="5.98943">
        <ele>441.3</ele>
        <time>2022-08-10T06:20:06Z</time>
      </trkpt>
      <trkpt lat="47.13367" lon="5.98944">
        <ele>441.3</ele>
        <time>2022-08-10T06:20:07Z</time>
      </trkpt>
      <trkpt lat="47.13366" lon="5.98944">
        <ele>441</ele>
        <time>2022-08-10T06:20:08Z</time>
      </trkpt>
      <trkpt lat="47.13364" lon="5.98946">
        <ele>440.8</ele>
        <time>2022-08-10T06:20:09Z</time>
      </trkpt>
      <trkpt lat="47.13362" lon="5.98947">
        <ele>440.4</ele>
        <time>2022-08-10T06:20:10Z</time>
      </trkpt>
      <trkpt lat="47.1336" lon="5.98948">
        <ele>440.5</ele>
        <time>2022-08-10T06:20:11Z</time>
      </trkpt>
      <trkpt lat="47.13358" lon="5.98949">
        <ele>440.7</ele>
        <time>2022-08-10T06:20:12Z</time>
      </trkpt>
      <trkpt lat="47.13356" lon="5.98951">
        <ele>441.2</ele>
        <time>2022-08-10T06:20:13Z</time>
      </trkpt>
      <trkpt lat="47.13354" lon="5.98953">
        <ele>441.6</ele>
        <time>2022-08-10T06:20:14Z</time>
      </trkpt>
      <trkpt lat="47.13352" lon="5.98955">
        <ele>441.6</ele>
        <time>2022-08-10T06:20:15Z</time>
      </trkpt>
      <trkpt lat="47.1335" lon="5.98956">
        <ele>441.5</ele>
        <time>2022-08-10T06:20:16Z</time>
      </trkpt>
      <trkpt lat="47.13348" lon="5.98958">
        <ele>442</ele>
        <time>2022-08-10T06:20:17Z</time>
      </trkpt>
      <trkpt lat="47.13346" lon="5.98961">
        <ele>441.8</ele>
        <time>2022-08-10T06:20:18Z</time>
      </trkpt>
      <trkpt lat="47.13344" lon="5.98963">
        <ele>441.9</ele>
        <time>2022-08-10T06:20:19Z</time>
      </trkpt>
      <trkpt lat="47.13343" lon="5.98965">
        <ele>442.9</ele>
        <time>2022-08-10T06:20:20Z</time>
      </trkpt>
      <trkpt lat="47.13341" lon="5.98967">
        <ele>443.2</ele>
        <time>2022-08-10T06:20:21Z</time>
      </trkpt>
      <trkpt lat="47.1334" lon="5.9897">
        <ele>443.9</ele>
        <time>2022-08-10T06:20:22Z</time>
      </trkpt>
      <trkpt lat="47.13338" lon="5.98972">
        <ele>444.8</ele>
        <time>2022-08-10T06:20:23Z</time>
      </trkpt>
      <trkpt lat="47.13336" lon="5.98975">
        <ele>445</ele>
        <time>2022-08-10T06:20:24Z</time>
      </trkpt>
      <trkpt lat="47.13334" lon="5.98977">
        <ele>445.2</ele>
        <time>2022-08-10T06:20:25Z</time>
      </trkpt>
      <trkpt lat="47.13331" lon="5.98979">
        <ele>444.3</ele>
        <time>2022-08-10T06:20:26Z</time>
      </trkpt>
      <trkpt lat="47.13328" lon="5.98979">
        <ele>444.3</ele>
        <time>2022-08-10T06:20:27Z</time>
      </trkpt>
      <trkpt lat="47.13322" lon="5.98982">
        <ele>442.6</ele>
        <time>2022-08-10T06:20:28Z</time>
      </trkpt>
      <trkpt lat="47.13317" lon="5.98984">
        <ele>441.8</ele>
        <time>2022-08-10T06:20:29Z</time>
      </trkpt>
      <trkpt lat="47.13313" lon="5.98985">
        <ele>441.4</ele>
        <time>2022-08-10T06:20:30Z</time>
      </trkpt>
      <trkpt lat="47.13309" lon="5.98986">
        <ele>440.8</ele>
        <time>2022-08-10T06:20:31Z</time>
      </trkpt>
      <trkpt lat="47.13307" lon="5.98988">
        <ele>440.4</ele>
        <time>2022-08-10T06:20:32Z</time>
      </trkpt>
      <trkpt lat="47.13305" lon="5.98991">
        <ele>440.7</ele>
        <time>2022-08-10T06:20:33Z</time>
      </trkpt>
      <trkpt lat="47.13304" lon="5.98994">
        <ele>441</ele>
        <time>2022-08-10T06:20:34Z</time>
      </trkpt>
      <trkpt lat="47.13302" lon="5.98997">
        <ele>441.5</ele>
        <time>2022-08-10T06:20:35Z</time>
      </trkpt>
      <trkpt lat="47.13301" lon="5.99">
        <ele>441.9</ele>
        <time>2022-08-10T06:20:36Z</time>
      </trkpt>
      <trkpt lat="47.133" lon="5.99003">
        <ele>443.3</ele>
        <time>2022-08-10T06:20:37Z</time>
      </trkpt>
      <trkpt lat="47.13298" lon="5.99004">
        <ele>444.4</ele>
        <time>2022-08-10T06:20:38Z</time>
      </trkpt>
      <trkpt lat="47.13297" lon="5.99006">
        <ele>445.4</ele>
        <time>2022-08-10T06:20:39Z</time>
      </trkpt>
      <trkpt lat="47.13296" lon="5.99009">
        <ele>446.8</ele>
        <time>2022-08-10T06:20:40Z</time>
      </trkpt>
      <trkpt lat="47.13295" lon="5.99013">
        <ele>448.1</ele>
        <time>2022-08-10T06:20:41Z</time>
      </trkpt>
      <trkpt lat="47.13295" lon="5.99017">
        <ele>449</ele>
        <time>2022-08-10T06:20:42Z</time>
      </trkpt>
      <trkpt lat="47.13294" lon="5.9902">
        <ele>449.9</ele>
        <time>2022-08-10T06:20:43Z</time>
      </trkpt>
      <trkpt lat="47.13293" lon="5.99023">
        <ele>451</ele>
        <time>2022-08-10T06:20:44Z</time>
      </trkpt>
      <trkpt lat="47.13293" lon="5.99026">
        <ele>452</ele>
        <time>2022-08-10T06:20:45Z</time>
      </trkpt>
      <trkpt lat="47.13292" lon="5.99029">
        <ele>452.6</ele>
        <time>2022-08-10T06:20:46Z</time>
      </trkpt>
      <trkpt lat="47.13289" lon="5.9903">
        <ele>454.1</ele>
        <time>2022-08-10T06:20:47Z</time>
      </trkpt>
      <trkpt lat="47.13287" lon="5.99033">
        <ele>454.6</ele>
        <time>2022-08-10T06:20:48Z</time>
      </trkpt>
      <trkpt lat="47.13284" lon="5.99035">
        <ele>454.9</ele>
        <time>2022-08-10T06:20:49Z</time>
      </trkpt>
      <trkpt lat="47.13282" lon="5.99037">
        <ele>455.3</ele>
        <time>2022-08-10T06:20:50Z</time>
      </trkpt>
      <trkpt lat="47.13279" lon="5.99038">
        <ele>455.7</ele>
        <time>2022-08-10T06:20:51Z</time>
      </trkpt>
      <trkpt lat="47.13277" lon="5.9904">
        <ele>456</ele>
        <time>2022-08-10T06:20:52Z</time>
      </trkpt>
      <trkpt lat="47.13275" lon="5.99042">
        <ele>456.3</ele>
        <time>2022-08-10T06:20:53Z</time>
      </trkpt>
      <trkpt lat="47.13274" lon="5.99043">
        <ele>456.2</ele>
        <time>2022-08-10T06:20:54Z</time>
      </trkpt>
      <trkpt lat="47.1327" lon="5.99046">
        <ele>454.2</ele>
        <time>2022-08-10T06:20:55Z</time>
      </trkpt>
      <trkpt lat="47.13268" lon="5.99047">
        <ele>454.1</ele>
        <time>2022-08-10T06:20:56Z</time>
      </trkpt>
      <trkpt lat="47.13264" lon="5.99048">
        <ele>453.6</ele>
        <time>2022-08-10T06:20:57Z</time>
      </trkpt>
      <trkpt lat="47.13262" lon="5.99048">
        <ele>453</ele>
        <time>2022-08-10T06:20:58Z</time>
      </trkpt>
      <trkpt lat="47.13258" lon="5.9905">
        <ele>452.2</ele>
        <time>2022-08-10T06:20:59Z</time>
      </trkpt>
      <trkpt lat="47.13255" lon="5.99051">
        <ele>451.5</ele>
        <time>2022-08-10T06:21:00Z</time>
      </trkpt>
      <trkpt lat="47.13251" lon="5.99051">
        <ele>450.5</ele>
        <time>2022-08-10T06:21:01Z</time>
      </trkpt>
      <trkpt lat="47.13248" lon="5.99051">
        <ele>450</ele>
        <time>2022-08-10T06:21:02Z</time>
      </trkpt>
      <trkpt lat="47.13243" lon="5.9905">
        <ele>448.9</ele>
        <time>2022-08-10T06:21:03Z</time>
      </trkpt>
      <trkpt lat="47.13239" lon="5.99049">
        <ele>448</ele>
        <time>2022-08-10T06:21:04Z</time>
      </trkpt>
      <trkpt lat="47.13236" lon="5.99047">
        <ele>447.8</ele>
        <time>2022-08-10T06:21:05Z</time>
      </trkpt>
      <trkpt lat="47.13233" lon="5.99046">
        <ele>447.1</ele>
        <time>2022-08-10T06:21:06Z</time>
      </trkpt>
      <trkpt lat="47.13229" lon="5.99044">
        <ele>446.5</ele>
        <time>2022-08-10T06:21:07Z</time>
      </trkpt>
      <trkpt lat="47.13226" lon="5.99041">
        <ele>445.5</ele>
        <time>2022-08-10T06:21:08Z</time>
      </trkpt>
      <trkpt lat="47.13223" lon="5.99038">
        <ele>444.2</ele>
        <time>2022-08-10T06:21:09Z</time>
      </trkpt>
      <trkpt lat="47.13221" lon="5.99034">
        <ele>443.1</ele>
        <time>2022-08-10T06:21:10Z</time>
      </trkpt>
      <trkpt lat="47.1322" lon="5.99031">
        <ele>443.4</ele>
        <time>2022-08-10T06:21:11Z</time>
      </trkpt>
      <trkpt lat="47.13218" lon="5.99028">
        <ele>443.1</ele>
        <time>2022-08-10T06:21:12Z</time>
      </trkpt>
      <trkpt lat="47.13217" lon="5.99025">
        <ele>443.3</ele>
        <time>2022-08-10T06:21:13Z</time>
      </trkpt>
      <trkpt lat="47.13216" lon="5.99022">
        <ele>443.4</ele>
        <time>2022-08-10T06:21:14Z</time>
      </trkpt>
      <trkpt lat="47.13214" lon="5.99018">
        <ele>443.4</ele>
        <time>2022-08-10T06:21:15Z</time>
      </trkpt>
      <trkpt lat="47.13213" lon="5.99014">
        <ele>443.9</ele>
        <time>2022-08-10T06:21:16Z</time>
      </trkpt>
      <trkpt lat="47.13212" lon="5.9901">
        <ele>444.7</ele>
        <time>2022-08-10T06:21:17Z</time>
      </trkpt>
      <trkpt lat="47.13211" lon="5.99007">
        <ele>445.1</ele>
        <time>2022-08-10T06:21:18Z</time>
      </trkpt>
      <trkpt lat="47.1321" lon="5.99004">
        <ele>446</ele>
        <time>2022-08-10T06:21:19Z</time>
      </trkpt>
      <trkpt lat="47.13209" lon="5.99002">
        <ele>447.3</ele>
        <time>2022-08-10T06:21:20Z</time>
      </trkpt>
      <trkpt lat="47.13207" lon="5.98998">
        <ele>447.9</ele>
        <time>2022-08-10T06:21:21Z</time>
      </trkpt>
      <trkpt lat="47.13205" lon="5.98995">
        <ele>448.6</ele>
        <time>2022-08-10T06:21:22Z</time>
      </trkpt>
      <trkpt lat="47.13204" lon="5.98991">
        <ele>448.7</ele>
        <time>2022-08-10T06:21:23Z</time>
      </trkpt>
      <trkpt lat="47.13202" lon="5.98989">
        <ele>448.7</ele>
        <time>2022-08-10T06:21:24Z</time>
      </trkpt>
      <trkpt lat="47.132" lon="5.98986">
        <ele>449.1</ele>
        <time>2022-08-10T06:21:25Z</time>
      </trkpt>
      <trkpt lat="47.13199" lon="5.98984">
        <ele>449.5</ele>
        <time>2022-08-10T06:21:26Z</time>
      </trkpt>
      <trkpt lat="47.13197" lon="5.9898">
        <ele>449.1</ele>
        <time>2022-08-10T06:21:27Z</time>
      </trkpt>
      <trkpt lat="47.13195" lon="5.98978">
        <ele>449.7</ele>
        <time>2022-08-10T06:21:28Z</time>
      </trkpt>
      <trkpt lat="47.13194" lon="5.98974">
        <ele>449.7</ele>
        <time>2022-08-10T06:21:29Z</time>
      </trkpt>
      <trkpt lat="47.13192" lon="5.9897">
        <ele>449.6</ele>
        <time>2022-08-10T06:21:30Z</time>
      </trkpt>
      <trkpt lat="47.1319" lon="5.98966">
        <ele>449.7</ele>
        <time>2022-08-10T06:21:31Z</time>
      </trkpt>
      <trkpt lat="47.13188" lon="5.98962">
        <ele>450</ele>
        <time>2022-08-10T06:21:32Z</time>
      </trkpt>
      <trkpt lat="47.13187" lon="5.98958">
        <ele>450.6</ele>
        <time>2022-08-10T06:21:33Z</time>
      </trkpt>
      <trkpt lat="47.13187" lon="5.98955">
        <ele>451.4</ele>
        <time>2022-08-10T06:21:34Z</time>
      </trkpt>
      <trkpt lat="47.13185" lon="5.98952">
        <ele>452.5</ele>
        <time>2022-08-10T06:21:35Z</time>
      </trkpt>
      <trkpt lat="47.13185" lon="5.98948">
        <ele>452.9</ele>
        <time>2022-08-10T06:21:36Z</time>
      </trkpt>
      <trkpt lat="47.13185" lon="5.98944">
        <ele>453.4</ele>
        <time>2022-08-10T06:21:37Z</time>
      </trkpt>
      <trkpt lat="47.13186" lon="5.98941">
        <ele>453.6</ele>
        <time>2022-08-10T06:21:38Z</time>
      </trkpt>
      <trkpt lat="47.13186" lon="5.98938">
        <ele>453.8</ele>
        <time>2022-08-10T06:21:39Z</time>
      </trkpt>
      <trkpt lat="47.13186" lon="5.98935">
        <ele>453.9</ele>
        <time>2022-08-10T06:21:40Z</time>
      </trkpt>
      <trkpt lat="47.13187" lon="5.98932">
        <ele>453.7</ele>
        <time>2022-08-10T06:21:41Z</time>
      </trkpt>
      <trkpt lat="47.13187" lon="5.98929">
        <ele>453.2</ele>
        <time>2022-08-10T06:21:42Z</time>
      </trkpt>
      <trkpt lat="47.13188" lon="5.98926">
        <ele>452.6</ele>
        <time>2022-08-10T06:21:43Z</time>
      </trkpt>
      <trkpt lat="47.13189" lon="5.98922">
        <ele>452.1</ele>
        <time>2022-08-10T06:21:44Z</time>
      </trkpt>
      <trkpt lat="47.13191" lon="5.98919">
        <ele>451.9</ele>
        <time>2022-08-10T06:21:45Z</time>
      </trkpt>
      <trkpt lat="47.13193" lon="5.98915">
        <ele>451.4</ele>
        <time>2022-08-10T06:21:46Z</time>
      </trkpt>
      <trkpt lat="47.13194" lon="5.98911">
        <ele>450.6</ele>
        <time>2022-08-10T06:21:47Z</time>
      </trkpt>
      <trkpt lat="47.13196" lon="5.98909">
        <ele>450.4</ele>
        <time>2022-08-10T06:21:48Z</time>
      </trkpt>
      <trkpt lat="47.13198" lon="5.98906">
        <ele>449.4</ele>
        <time>2022-08-10T06:21:49Z</time>
      </trkpt>
      <trkpt lat="47.13199" lon="5.98903">
        <ele>448.6</ele>
        <time>2022-08-10T06:21:50Z</time>
      </trkpt>
      <trkpt lat="47.13201" lon="5.98899">
        <ele>447.8</ele>
        <time>2022-08-10T06:21:51Z</time>
      </trkpt>
      <trkpt lat="47.13202" lon="5.98895">
        <ele>447.3</ele>
        <time>2022-08-10T06:21:52Z</time>
      </trkpt>
      <trkpt lat="47.13203" lon="5.98891">
        <ele>447.1</ele>
        <time>2022-08-10T06:21:53Z</time>
      </trkpt>
      <trkpt lat="47.13203" lon="5.98888">
        <ele>447</ele>
        <time>2022-08-10T06:21:54Z</time>
      </trkpt>
      <trkpt lat="47.13203" lon="5.98884">
        <ele>447.3</ele>
        <time>2022-08-10T06:21:55Z</time>
      </trkpt>
      <trkpt lat="47.13203" lon="5.9888">
        <ele>447.1</ele>
        <time>2022-08-10T06:21:56Z</time>
      </trkpt>
      <trkpt lat="47.13202" lon="5.98877">
        <ele>447.2</ele>
        <time>2022-08-10T06:21:57Z</time>
      </trkpt>
      <trkpt lat="47.13202" lon="5.98873">
        <ele>446.5</ele>
        <time>2022-08-10T06:21:58Z</time>
      </trkpt>
      <trkpt lat="47.13201" lon="5.9887">
        <ele>446</ele>
        <time>2022-08-10T06:21:59Z</time>
      </trkpt>
      <trkpt lat="47.13201" lon="5.98867">
        <ele>446.2</ele>
        <time>2022-08-10T06:22:00Z</time>
      </trkpt>
      <trkpt lat="47.13201" lon="5.98864">
        <ele>446.1</ele>
        <time>2022-08-10T06:22:01Z</time>
      </trkpt>
      <trkpt lat="47.13201" lon="5.98861">
        <ele>445.5</ele>
        <time>2022-08-10T06:22:02Z</time>
      </trkpt>
      <trkpt lat="47.132" lon="5.98859">
        <ele>445.3</ele>
        <time>2022-08-10T06:22:03Z</time>
      </trkpt>
      <trkpt lat="47.13199" lon="5.98857">
        <ele>444.4</ele>
        <time>2022-08-10T06:22:04Z</time>
      </trkpt>
      <trkpt lat="47.13198" lon="5.98855">
        <ele>443.4</ele>
        <time>2022-08-10T06:22:05Z</time>
      </trkpt>
      <trkpt lat="47.13197" lon="5.98854">
        <ele>442.7</ele>
        <time>2022-08-10T06:22:06Z</time>
      </trkpt>
      <trkpt lat="47.13195" lon="5.98855">
        <ele>442.4</ele>
        <time>2022-08-10T06:22:07Z</time>
      </trkpt>
      <trkpt lat="47.13194" lon="5.98856">
        <ele>441.9</ele>
        <time>2022-08-10T06:22:08Z</time>
      </trkpt>
      <trkpt lat="47.13193" lon="5.98857">
        <ele>442</ele>
        <time>2022-08-10T06:22:09Z</time>
      </trkpt>
      <trkpt lat="47.13193" lon="5.98858">
        <ele>441.7</ele>
        <time>2022-08-10T06:22:10Z</time>
      </trkpt>
      <trkpt lat="47.13193" lon="5.98858">
        <ele>441.4</ele>
        <time>2022-08-10T06:22:11Z</time>
      </trkpt>
      <trkpt lat="47.13193" lon="5.98858">
        <ele>441.4</ele>
        <time>2022-08-10T06:22:12Z</time>
      </trkpt>
      <trkpt lat="47.13193" lon="5.98858">
        <ele>441.8</ele>
        <time>2022-08-10T06:22:13Z</time>
      </trkpt>
      <trkpt lat="47.13193" lon="5.98859">
        <ele>442.4</ele>
        <time>2022-08-10T06:22:14Z</time>
      </trkpt>
      <trkpt lat="47.13193" lon="5.98859">
        <ele>443</ele>
        <time>2022-08-10T06:22:15Z</time>
      </trkpt>
      <trkpt lat="47.13193" lon="5.9886">
        <ele>443.8</ele>
        <time>2022-08-10T06:22:16Z</time>
      </trkpt>
      <trkpt lat="47.13193" lon="5.98861">
        <ele>444.8</ele>
        <time>2022-08-10T06:22:17Z</time>
      </trkpt>
      <trkpt lat="47.13193" lon="5.98862">
        <ele>445.7</ele>
        <time>2022-08-10T06:22:18Z</time>
      </trkpt>
      <trkpt lat="47.13193" lon="5.98864">
        <ele>446.8</ele>
        <time>2022-08-10T06:22:19Z</time>
      </trkpt>
      <trkpt lat="47.13192" lon="5.98865">
        <ele>447.9</ele>
        <time>2022-08-10T06:22:20Z</time>
      </trkpt>
      <trkpt lat="47.13191" lon="5.98867">
        <ele>449</ele>
        <time>2022-08-10T06:22:21Z</time>
      </trkpt>
      <trkpt lat="47.1319" lon="5.98869">
        <ele>450.1</ele>
        <time>2022-08-10T06:22:22Z</time>
      </trkpt>
      <trkpt lat="47.13189" lon="5.98871">
        <ele>451.6</ele>
        <time>2022-08-10T06:22:23Z</time>
      </trkpt>
      <trkpt lat="47.13187" lon="5.98873">
        <ele>452.5</ele>
        <time>2022-08-10T06:22:24Z</time>
      </trkpt>
      <trkpt lat="47.13185" lon="5.98874">
        <ele>453</ele>
        <time>2022-08-10T06:22:25Z</time>
      </trkpt>
      <trkpt lat="47.13182" lon="5.98876">
        <ele>453.3</ele>
        <time>2022-08-10T06:22:26Z</time>
      </trkpt>
      <trkpt lat="47.13178" lon="5.98876">
        <ele>454.1</ele>
        <time>2022-08-10T06:22:27Z</time>
      </trkpt>
      <trkpt lat="47.13175" lon="5.98876">
        <ele>454.6</ele>
        <time>2022-08-10T06:22:28Z</time>
      </trkpt>
      <trkpt lat="47.13172" lon="5.98876">
        <ele>455.2</ele>
        <time>2022-08-10T06:22:29Z</time>
      </trkpt>
      <trkpt lat="47.13169" lon="5.98876">
        <ele>455.6</ele>
        <time>2022-08-10T06:22:30Z</time>
      </trkpt>
      <trkpt lat="47.13166" lon="5.98876">
        <ele>456</ele>
        <time>2022-08-10T06:22:31Z</time>
      </trkpt>
      <trkpt lat="47.13165" lon="5.98875">
        <ele>456.5</ele>
        <time>2022-08-10T06:22:32Z</time>
      </trkpt>
      <trkpt lat="47.13163" lon="5.98875">
        <ele>456.8</ele>
        <time>2022-08-10T06:22:33Z</time>
      </trkpt>
      <trkpt lat="47.13162" lon="5.98875">
        <ele>457.2</ele>
        <time>2022-08-10T06:22:34Z</time>
      </trkpt>
      <trkpt lat="47.1316" lon="5.98875">
        <ele>457.4</ele>
        <time>2022-08-10T06:22:35Z</time>
      </trkpt>
      <trkpt lat="47.13159" lon="5.98876">
        <ele>457.8</ele>
        <time>2022-08-10T06:22:36Z</time>
      </trkpt>
      <trkpt lat="47.13158" lon="5.98877">
        <ele>458.2</ele>
        <time>2022-08-10T06:22:37Z</time>
      </trkpt>
      <trkpt lat="47.13157" lon="5.98878">
        <ele>458.6</ele>
        <time>2022-08-10T06:22:38Z</time>
      </trkpt>
      <trkpt lat="47.13156" lon="5.9888">
        <ele>458.7</ele>
        <time>2022-08-10T06:22:39Z</time>
      </trkpt>
      <trkpt lat="47.13154" lon="5.98882">
        <ele>458.7</ele>
        <time>2022-08-10T06:22:40Z</time>
      </trkpt>
      <trkpt lat="47.13153" lon="5.98883">
        <ele>458.9</ele>
        <time>2022-08-10T06:22:41Z</time>
      </trkpt>
      <trkpt lat="47.13152" lon="5.98884">
        <ele>459.4</ele>
        <time>2022-08-10T06:22:42Z</time>
      </trkpt>
      <trkpt lat="47.13151" lon="5.98885">
        <ele>459.6</ele>
        <time>2022-08-10T06:22:43Z</time>
      </trkpt>
      <trkpt lat="47.1315" lon="5.98886">
        <ele>460</ele>
        <time>2022-08-10T06:22:44Z</time>
      </trkpt>
      <trkpt lat="47.13148" lon="5.98888">
        <ele>460.4</ele>
        <time>2022-08-10T06:22:45Z</time>
      </trkpt>
      <trkpt lat="47.13146" lon="5.9889">
        <ele>460.3</ele>
        <time>2022-08-10T06:22:46Z</time>
      </trkpt>
      <trkpt lat="47.13145" lon="5.98891">
        <ele>460.3</ele>
        <time>2022-08-10T06:22:47Z</time>
      </trkpt>
      <trkpt lat="47.13143" lon="5.98892">
        <ele>460.1</ele>
        <time>2022-08-10T06:22:48Z</time>
      </trkpt>
      <trkpt lat="47.13141" lon="5.98893">
        <ele>460.1</ele>
        <time>2022-08-10T06:22:49Z</time>
      </trkpt>
      <trkpt lat="47.13139" lon="5.98894">
        <ele>459.6</ele>
        <time>2022-08-10T06:22:50Z</time>
      </trkpt>
      <trkpt lat="47.13137" lon="5.98895">
        <ele>459.5</ele>
        <time>2022-08-10T06:22:51Z</time>
      </trkpt>
      <trkpt lat="47.13135" lon="5.98895">
        <ele>459.1</ele>
        <time>2022-08-10T06:22:52Z</time>
      </trkpt>
      <trkpt lat="47.13133" lon="5.98896">
        <ele>458.9</ele>
        <time>2022-08-10T06:22:53Z</time>
      </trkpt>
      <trkpt lat="47.13131" lon="5.98897">
        <ele>458.4</ele>
        <time>2022-08-10T06:22:54Z</time>
      </trkpt>
      <trkpt lat="47.13129" lon="5.98898">
        <ele>458.3</ele>
        <time>2022-08-10T06:22:55Z</time>
      </trkpt>
      <trkpt lat="47.13127" lon="5.989">
        <ele>458</ele>
        <time>2022-08-10T06:22:56Z</time>
      </trkpt>
      <trkpt lat="47.13125" lon="5.98901">
        <ele>457.9</ele>
        <time>2022-08-10T06:22:57Z</time>
      </trkpt>
      <trkpt lat="47.13123" lon="5.98903">
        <ele>457.6</ele>
        <time>2022-08-10T06:22:58Z</time>
      </trkpt>
      <trkpt lat="47.13121" lon="5.98904">
        <ele>457.2</ele>
        <time>2022-08-10T06:22:59Z</time>
      </trkpt>
      <trkpt lat="47.13119" lon="5.98905">
        <ele>457</ele>
        <time>2022-08-10T06:23:00Z</time>
      </trkpt>
      <trkpt lat="47.13118" lon="5.98906">
        <ele>456.7</ele>
        <time>2022-08-10T06:23:01Z</time>
      </trkpt>
      <trkpt lat="47.13115" lon="5.98907">
        <ele>456.6</ele>
        <time>2022-08-10T06:23:02Z</time>
      </trkpt>
      <trkpt lat="47.13113" lon="5.98908">
        <ele>456.7</ele>
        <time>2022-08-10T06:23:03Z</time>
      </trkpt>
      <trkpt lat="47.1311" lon="5.98908">
        <ele>456.6</ele>
        <time>2022-08-10T06:23:04Z</time>
      </trkpt>
      <trkpt lat="47.13109" lon="5.98908">
        <ele>456.7</ele>
        <time>2022-08-10T06:23:05Z</time>
      </trkpt>
      <trkpt lat="47.13107" lon="5.98909">
        <ele>457</ele>
        <time>2022-08-10T06:23:06Z</time>
      </trkpt>
      <trkpt lat="47.13105" lon="5.9891">
        <ele>457</ele>
        <time>2022-08-10T06:23:07Z</time>
      </trkpt>
      <trkpt lat="47.13103" lon="5.98911">
        <ele>457.1</ele>
        <time>2022-08-10T06:23:08Z</time>
      </trkpt>
      <trkpt lat="47.13102" lon="5.98913">
        <ele>457.4</ele>
        <time>2022-08-10T06:23:09Z</time>
      </trkpt>
      <trkpt lat="47.131" lon="5.98915">
        <ele>457.8</ele>
        <time>2022-08-10T06:23:10Z</time>
      </trkpt>
      <trkpt lat="47.13099" lon="5.98917">
        <ele>457.9</ele>
        <time>2022-08-10T06:23:11Z</time>
      </trkpt>
      <trkpt lat="47.13097" lon="5.9892">
        <ele>458</ele>
        <time>2022-08-10T06:23:12Z</time>
      </trkpt>
      <trkpt lat="47.13095" lon="5.98922">
        <ele>458</ele>
        <time>2022-08-10T06:23:13Z</time>
      </trkpt>
      <trkpt lat="47.13093" lon="5.98924">
        <ele>458.4</ele>
        <time>2022-08-10T06:23:14Z</time>
      </trkpt>
      <trkpt lat="47.13091" lon="5.98925">
        <ele>458.7</ele>
        <time>2022-08-10T06:23:15Z</time>
      </trkpt>
      <trkpt lat="47.13088" lon="5.98927">
        <ele>458.6</ele>
        <time>2022-08-10T06:23:16Z</time>
      </trkpt>
      <trkpt lat="47.13085" lon="5.98928">
        <ele>458.3</ele>
        <time>2022-08-10T06:23:17Z</time>
      </trkpt>
      <trkpt lat="47.13083" lon="5.98929">
        <ele>458.1</ele>
        <time>2022-08-10T06:23:18Z</time>
      </trkpt>
      <trkpt lat="47.1308" lon="5.9893">
        <ele>458.4</ele>
        <time>2022-08-10T06:23:19Z</time>
      </trkpt>
      <trkpt lat="47.13078" lon="5.9893">
        <ele>458.3</ele>
        <time>2022-08-10T06:23:20Z</time>
      </trkpt>
      <trkpt lat="47.13075" lon="5.9893">
        <ele>458.1</ele>
        <time>2022-08-10T06:23:21Z</time>
      </trkpt>
      <trkpt lat="47.13072" lon="5.98931">
        <ele>457.7</ele>
        <time>2022-08-10T06:23:22Z</time>
      </trkpt>
      <trkpt lat="47.13068" lon="5.98934">
        <ele>457.5</ele>
        <time>2022-08-10T06:23:23Z</time>
      </trkpt>
      <trkpt lat="47.13065" lon="5.98936">
        <ele>456.8</ele>
        <time>2022-08-10T06:23:24Z</time>
      </trkpt>
      <trkpt lat="47.13062" lon="5.98938">
        <ele>455.9</ele>
        <time>2022-08-10T06:23:25Z</time>
      </trkpt>
      <trkpt lat="47.13058" lon="5.9894">
        <ele>455</ele>
        <time>2022-08-10T06:23:26Z</time>
      </trkpt>
      <trkpt lat="47.13055" lon="5.98942">
        <ele>454.3</ele>
        <time>2022-08-10T06:23:27Z</time>
      </trkpt>
      <trkpt lat="47.13053" lon="5.98944">
        <ele>454.2</ele>
        <time>2022-08-10T06:23:28Z</time>
      </trkpt>
      <trkpt lat="47.13051" lon="5.98946">
        <ele>453.8</ele>
        <time>2022-08-10T06:23:29Z</time>
      </trkpt>
      <trkpt lat="47.13049" lon="5.98949">
        <ele>453.6</ele>
        <time>2022-08-10T06:23:30Z</time>
      </trkpt>
      <trkpt lat="47.13047" lon="5.98951">
        <ele>453.6</ele>
        <time>2022-08-10T06:23:31Z</time>
      </trkpt>
      <trkpt lat="47.13046" lon="5.98953">
        <ele>454.2</ele>
        <time>2022-08-10T06:23:32Z</time>
      </trkpt>
      <trkpt lat="47.13045" lon="5.98956">
        <ele>454.2</ele>
        <time>2022-08-10T06:23:33Z</time>
      </trkpt>
      <trkpt lat="47.13043" lon="5.98958">
        <ele>454.7</ele>
        <time>2022-08-10T06:23:34Z</time>
      </trkpt>
      <trkpt lat="47.13041" lon="5.98962">
        <ele>454.6</ele>
        <time>2022-08-10T06:23:35Z</time>
      </trkpt>
      <trkpt lat="47.13039" lon="5.98964">
        <ele>455</ele>
        <time>2022-08-10T06:23:36Z</time>
      </trkpt>
      <trkpt lat="47.13037" lon="5.98966">
        <ele>455.4</ele>
        <time>2022-08-10T06:23:37Z</time>
      </trkpt>
      <trkpt lat="47.13035" lon="5.98968">
        <ele>456.2</ele>
        <time>2022-08-10T06:23:38Z</time>
      </trkpt>
      <trkpt lat="47.13033" lon="5.98971">
        <ele>456.5</ele>
        <time>2022-08-10T06:23:39Z</time>
      </trkpt>
      <trkpt lat="47.13032" lon="5.98974">
        <ele>456.8</ele>
        <time>2022-08-10T06:23:40Z</time>
      </trkpt>
      <trkpt lat="47.1303" lon="5.98977">
        <ele>457</ele>
        <time>2022-08-10T06:23:41Z</time>
      </trkpt>
      <trkpt lat="47.13028" lon="5.98979">
        <ele>457.1</ele>
        <time>2022-08-10T06:23:42Z</time>
      </trkpt>
      <trkpt lat="47.13027" lon="5.98981">
        <ele>457.6</ele>
        <time>2022-08-10T06:23:43Z</time>
      </trkpt>
      <trkpt lat="47.13026" lon="5.98984">
        <ele>458.2</ele>
        <time>2022-08-10T06:23:44Z</time>
      </trkpt>
      <trkpt lat="47.13025" lon="5.98986">
        <ele>458.3</ele>
        <time>2022-08-10T06:23:45Z</time>
      </trkpt>
      <trkpt lat="47.13023" lon="5.98988">
        <ele>458.9</ele>
        <time>2022-08-10T06:23:46Z</time>
      </trkpt>
      <trkpt lat="47.13023" lon="5.9899">
        <ele>459.7</ele>
        <time>2022-08-10T06:23:47Z</time>
      </trkpt>
      <trkpt lat="47.13022" lon="5.98992">
        <ele>460.3</ele>
        <time>2022-08-10T06:23:48Z</time>
      </trkpt>
      <trkpt lat="47.1302" lon="5.98994">
        <ele>460.7</ele>
        <time>2022-08-10T06:23:49Z</time>
      </trkpt>
      <trkpt lat="47.13017" lon="5.98997">
        <ele>461</ele>
        <time>2022-08-10T06:23:50Z</time>
      </trkpt>
      <trkpt lat="47.13016" lon="5.98998">
        <ele>461.7</ele>
        <time>2022-08-10T06:23:51Z</time>
      </trkpt>
      <trkpt lat="47.13013" lon="5.99">
        <ele>461.9</ele>
        <time>2022-08-10T06:23:52Z</time>
      </trkpt>
      <trkpt lat="47.1301" lon="5.99001">
        <ele>461.5</ele>
        <time>2022-08-10T06:23:53Z</time>
      </trkpt>
      <trkpt lat="47.13007" lon="5.99003">
        <ele>460.9</ele>
        <time>2022-08-10T06:23:54Z</time>
      </trkpt>
      <trkpt lat="47.13004" lon="5.99004">
        <ele>460.3</ele>
        <time>2022-08-10T06:23:55Z</time>
      </trkpt>
      <trkpt lat="47.13001" lon="5.99004">
        <ele>460</ele>
        <time>2022-08-10T06:23:56Z</time>
      </trkpt>
      <trkpt lat="47.12998" lon="5.99004">
        <ele>459.3</ele>
        <time>2022-08-10T06:23:57Z</time>
      </trkpt>
      <trkpt lat="47.12995" lon="5.99004">
        <ele>458.9</ele>
        <time>2022-08-10T06:23:58Z</time>
      </trkpt>
      <trkpt lat="47.12992" lon="5.99003">
        <ele>458.5</ele>
        <time>2022-08-10T06:23:59Z</time>
      </trkpt>
      <trkpt lat="47.1299" lon="5.99003">
        <ele>458.6</ele>
        <time>2022-08-10T06:24:00Z</time>
      </trkpt>
      <trkpt lat="47.12986" lon="5.99002">
        <ele>457.7</ele>
        <time>2022-08-10T06:24:01Z</time>
      </trkpt>
      <trkpt lat="47.12982" lon="5.99002">
        <ele>456.7</ele>
        <time>2022-08-10T06:24:02Z</time>
      </trkpt>
      <trkpt lat="47.12979" lon="5.99001">
        <ele>456.7</ele>
        <time>2022-08-10T06:24:03Z</time>
      </trkpt>
      <trkpt lat="47.12976" lon="5.98999">
        <ele>456.5</ele>
        <time>2022-08-10T06:24:04Z</time>
      </trkpt>
      <trkpt lat="47.12972" lon="5.98999">
        <ele>455.4</ele>
        <time>2022-08-10T06:24:05Z</time>
      </trkpt>
      <trkpt lat="47.12967" lon="5.98998">
        <ele>453.8</ele>
        <time>2022-08-10T06:24:06Z</time>
      </trkpt>
      <trkpt lat="47.12964" lon="5.98997">
        <ele>453.3</ele>
        <time>2022-08-10T06:24:07Z</time>
      </trkpt>
      <trkpt lat="47.12961" lon="5.98995">
        <ele>452.9</ele>
        <time>2022-08-10T06:24:08Z</time>
      </trkpt>
      <trkpt lat="47.12956" lon="5.98995">
        <ele>451.2</ele>
        <time>2022-08-10T06:24:09Z</time>
      </trkpt>
      <trkpt lat="47.12953" lon="5.98995">
        <ele>451.2</ele>
        <time>2022-08-10T06:24:10Z</time>
      </trkpt>
      <trkpt lat="47.1295" lon="5.98995">
        <ele>450.1</ele>
        <time>2022-08-10T06:24:11Z</time>
      </trkpt>
      <trkpt lat="47.12946" lon="5.98996">
        <ele>450.1</ele>
        <time>2022-08-10T06:24:12Z</time>
      </trkpt>
      <trkpt lat="47.12943" lon="5.98996">
        <ele>449.5</ele>
        <time>2022-08-10T06:24:13Z</time>
      </trkpt>
      <trkpt lat="47.1294" lon="5.98997">
        <ele>449.5</ele>
        <time>2022-08-10T06:24:14Z</time>
      </trkpt>
      <trkpt lat="47.12938" lon="5.98998">
        <ele>449.9</ele>
        <time>2022-08-10T06:24:15Z</time>
      </trkpt>
      <trkpt lat="47.12935" lon="5.98999">
        <ele>450.2</ele>
        <time>2022-08-10T06:24:16Z</time>
      </trkpt>
      <trkpt lat="47.12933" lon="5.99">
        <ele>451.4</ele>
        <time>2022-08-10T06:24:17Z</time>
      </trkpt>
      <trkpt lat="47.12931" lon="5.99">
        <ele>451.4</ele>
        <time>2022-08-10T06:24:18Z</time>
      </trkpt>
      <trkpt lat="47.12928" lon="5.98999">
        <ele>451</ele>
        <time>2022-08-10T06:24:19Z</time>
      </trkpt>
      <trkpt lat="47.12922" lon="5.98999">
        <ele>447.5</ele>
        <time>2022-08-10T06:24:20Z</time>
      </trkpt>
      <trkpt lat="47.12918" lon="5.98998">
        <ele>447.1</ele>
        <time>2022-08-10T06:24:21Z</time>
      </trkpt>
      <trkpt lat="47.12915" lon="5.98997">
        <ele>447</ele>
        <time>2022-08-10T06:24:22Z</time>
      </trkpt>
      <trkpt lat="47.12911" lon="5.98995">
        <ele>446.1</ele>
        <time>2022-08-10T06:24:23Z</time>
      </trkpt>
      <trkpt lat="47.12908" lon="5.98994">
        <ele>445.4</ele>
        <time>2022-08-10T06:24:24Z</time>
      </trkpt>
      <trkpt lat="47.12904" lon="5.98992">
        <ele>444.3</ele>
        <time>2022-08-10T06:24:25Z</time>
      </trkpt>
      <trkpt lat="47.129" lon="5.98991">
        <ele>443.3</ele>
        <time>2022-08-10T06:24:26Z</time>
      </trkpt>
      <trkpt lat="47.12896" lon="5.9899">
        <ele>442.9</ele>
        <time>2022-08-10T06:24:27Z</time>
      </trkpt>
      <trkpt lat="47.12893" lon="5.9899">
        <ele>442.4</ele>
        <time>2022-08-10T06:24:28Z</time>
      </trkpt>
      <trkpt lat="47.12889" lon="5.98989">
        <ele>442.5</ele>
        <time>2022-08-10T06:24:29Z</time>
      </trkpt>
      <trkpt lat="47.12886" lon="5.98989">
        <ele>442.5</ele>
        <time>2022-08-10T06:24:30Z</time>
      </trkpt>
      <trkpt lat="47.12884" lon="5.9899">
        <ele>442.6</ele>
        <time>2022-08-10T06:24:31Z</time>
      </trkpt>
      <trkpt lat="47.12881" lon="5.98993">
        <ele>442.7</ele>
        <time>2022-08-10T06:24:32Z</time>
      </trkpt>
      <trkpt lat="47.12879" lon="5.98995">
        <ele>442.8</ele>
        <time>2022-08-10T06:24:33Z</time>
      </trkpt>
      <trkpt lat="47.12877" lon="5.98999">
        <ele>442.7</ele>
        <time>2022-08-10T06:24:34Z</time>
      </trkpt>
      <trkpt lat="47.12875" lon="5.99002">
        <ele>442.6</ele>
        <time>2022-08-10T06:24:35Z</time>
      </trkpt>
      <trkpt lat="47.12873" lon="5.99006">
        <ele>442.6</ele>
        <time>2022-08-10T06:24:36Z</time>
      </trkpt>
      <trkpt lat="47.12872" lon="5.99009">
        <ele>442.5</ele>
        <time>2022-08-10T06:24:37Z</time>
      </trkpt>
      <trkpt lat="47.1287" lon="5.99013">
        <ele>442.3</ele>
        <time>2022-08-10T06:24:38Z</time>
      </trkpt>
      <trkpt lat="47.12868" lon="5.99016">
        <ele>442.3</ele>
        <time>2022-08-10T06:24:39Z</time>
      </trkpt>
      <trkpt lat="47.12866" lon="5.9902">
        <ele>442.2</ele>
        <time>2022-08-10T06:24:40Z</time>
      </trkpt>
      <trkpt lat="47.12864" lon="5.99023">
        <ele>442.3</ele>
        <time>2022-08-10T06:24:41Z</time>
      </trkpt>
      <trkpt lat="47.12863" lon="5.99027">
        <ele>442.1</ele>
        <time>2022-08-10T06:24:42Z</time>
      </trkpt>
      <trkpt lat="47.12861" lon="5.9903">
        <ele>442</ele>
        <time>2022-08-10T06:24:43Z</time>
      </trkpt>
      <trkpt lat="47.12859" lon="5.99034">
        <ele>442</ele>
        <time>2022-08-10T06:24:44Z</time>
      </trkpt>
      <trkpt lat="47.12857" lon="5.99038">
        <ele>442.1</ele>
        <time>2022-08-10T06:24:45Z</time>
      </trkpt>
      <trkpt lat="47.12855" lon="5.99041">
        <ele>442.1</ele>
        <time>2022-08-10T06:24:46Z</time>
      </trkpt>
      <trkpt lat="47.12853" lon="5.99045">
        <ele>442.3</ele>
        <time>2022-08-10T06:24:47Z</time>
      </trkpt>
      <trkpt lat="47.12852" lon="5.99048">
        <ele>442.7</ele>
        <time>2022-08-10T06:24:48Z</time>
      </trkpt>
      <trkpt lat="47.1285" lon="5.99052">
        <ele>443</ele>
        <time>2022-08-10T06:24:49Z</time>
      </trkpt>
      <trkpt lat="47.12848" lon="5.99055">
        <ele>443.3</ele>
        <time>2022-08-10T06:24:50Z</time>
      </trkpt>
      <trkpt lat="47.12846" lon="5.99058">
        <ele>443.9</ele>
        <time>2022-08-10T06:24:51Z</time>
      </trkpt>
      <trkpt lat="47.12845" lon="5.99062">
        <ele>444.3</ele>
        <time>2022-08-10T06:24:52Z</time>
      </trkpt>
      <trkpt lat="47.12843" lon="5.99065">
        <ele>444.9</ele>
        <time>2022-08-10T06:24:53Z</time>
      </trkpt>
      <trkpt lat="47.12842" lon="5.99068">
        <ele>445.6</ele>
        <time>2022-08-10T06:24:54Z</time>
      </trkpt>
      <trkpt lat="47.12841" lon="5.99071">
        <ele>446.6</ele>
        <time>2022-08-10T06:24:55Z</time>
      </trkpt>
      <trkpt lat="47.1284" lon="5.99073">
        <ele>447.2</ele>
        <time>2022-08-10T06:24:56Z</time>
      </trkpt>
      <trkpt lat="47.12838" lon="5.99076">
        <ele>447.5</ele>
        <time>2022-08-10T06:24:57Z</time>
      </trkpt>
      <trkpt lat="47.12837" lon="5.9908">
        <ele>447.9</ele>
        <time>2022-08-10T06:24:58Z</time>
      </trkpt>
      <trkpt lat="47.12835" lon="5.99084">
        <ele>448.4</ele>
        <time>2022-08-10T06:24:59Z</time>
      </trkpt>
      <trkpt lat="47.12833" lon="5.99087">
        <ele>448.9</ele>
        <time>2022-08-10T06:25:00Z</time>
      </trkpt>
      <trkpt lat="47.12832" lon="5.99091">
        <ele>449.7</ele>
        <time>2022-08-10T06:25:01Z</time>
      </trkpt>
      <trkpt lat="47.1283" lon="5.99093">
        <ele>450.5</ele>
        <time>2022-08-10T06:25:02Z</time>
      </trkpt>
      <trkpt lat="47.12828" lon="5.99097">
        <ele>450.8</ele>
        <time>2022-08-10T06:25:03Z</time>
      </trkpt>
      <trkpt lat="47.12825" lon="5.991">
        <ele>450.9</ele>
        <time>2022-08-10T06:25:04Z</time>
      </trkpt>
      <trkpt lat="47.12822" lon="5.99103">
        <ele>450.9</ele>
        <time>2022-08-10T06:25:05Z</time>
      </trkpt>
      <trkpt lat="47.12819" lon="5.99106">
        <ele>451</ele>
        <time>2022-08-10T06:25:06Z</time>
      </trkpt>
      <trkpt lat="47.12815" lon="5.9911">
        <ele>451</ele>
        <time>2022-08-10T06:25:07Z</time>
      </trkpt>
      <trkpt lat="47.12812" lon="5.99114">
        <ele>451.4</ele>
        <time>2022-08-10T06:25:08Z</time>
      </trkpt>
      <trkpt lat="47.12809" lon="5.99117">
        <ele>451.6</ele>
        <time>2022-08-10T06:25:09Z</time>
      </trkpt>
      <trkpt lat="47.12806" lon="5.99121">
        <ele>451.9</ele>
        <time>2022-08-10T06:25:10Z</time>
      </trkpt>
      <trkpt lat="47.12804" lon="5.99125">
        <ele>452.1</ele>
        <time>2022-08-10T06:25:11Z</time>
      </trkpt>
      <trkpt lat="47.12802" lon="5.9913">
        <ele>452.4</ele>
        <time>2022-08-10T06:25:12Z</time>
      </trkpt>
      <trkpt lat="47.12799" lon="5.99134">
        <ele>452.6</ele>
        <time>2022-08-10T06:25:13Z</time>
      </trkpt>
      <trkpt lat="47.12797" lon="5.99137">
        <ele>452.9</ele>
        <time>2022-08-10T06:25:14Z</time>
      </trkpt>
      <trkpt lat="47.12795" lon="5.99141">
        <ele>453.2</ele>
        <time>2022-08-10T06:25:15Z</time>
      </trkpt>
      <trkpt lat="47.12795" lon="5.99145">
        <ele>453.3</ele>
        <time>2022-08-10T06:25:16Z</time>
      </trkpt>
      <trkpt lat="47.12794" lon="5.9915">
        <ele>452.8</ele>
        <time>2022-08-10T06:25:17Z</time>
      </trkpt>
      <trkpt lat="47.12792" lon="5.99155">
        <ele>450.9</ele>
        <time>2022-08-10T06:25:18Z</time>
      </trkpt>
      <trkpt lat="47.12794" lon="5.9916">
        <ele>450.9</ele>
        <time>2022-08-10T06:25:19Z</time>
      </trkpt>
      <trkpt lat="47.12796" lon="5.99165">
        <ele>450.7</ele>
        <time>2022-08-10T06:25:20Z</time>
      </trkpt>
      <trkpt lat="47.12798" lon="5.99169">
        <ele>450.4</ele>
        <time>2022-08-10T06:25:21Z</time>
      </trkpt>
      <trkpt lat="47.128" lon="5.99174">
        <ele>450.4</ele>
        <time>2022-08-10T06:25:22Z</time>
      </trkpt>
      <trkpt lat="47.12802" lon="5.9918">
        <ele>450.1</ele>
        <time>2022-08-10T06:25:23Z</time>
      </trkpt>
      <trkpt lat="47.12805" lon="5.99185">
        <ele>449.9</ele>
        <time>2022-08-10T06:25:24Z</time>
      </trkpt>
      <trkpt lat="47.12808" lon="5.9919">
        <ele>449.7</ele>
        <time>2022-08-10T06:25:25Z</time>
      </trkpt>
      <trkpt lat="47.12811" lon="5.99195">
        <ele>449.5</ele>
        <time>2022-08-10T06:25:26Z</time>
      </trkpt>
      <trkpt lat="47.12814" lon="5.99199">
        <ele>449.1</ele>
        <time>2022-08-10T06:25:27Z</time>
      </trkpt>
      <trkpt lat="47.12818" lon="5.99203">
        <ele>448.7</ele>
        <time>2022-08-10T06:25:28Z</time>
      </trkpt>
      <trkpt lat="47.12821" lon="5.99206">
        <ele>448.3</ele>
        <time>2022-08-10T06:25:29Z</time>
      </trkpt>
      <trkpt lat="47.12825" lon="5.99209">
        <ele>448</ele>
        <time>2022-08-10T06:25:30Z</time>
      </trkpt>
      <trkpt lat="47.12829" lon="5.99212">
        <ele>448.2</ele>
        <time>2022-08-10T06:25:31Z</time>
      </trkpt>
      <trkpt lat="47.12833" lon="5.99216">
        <ele>448.1</ele>
        <time>2022-08-10T06:25:32Z</time>
      </trkpt>
      <trkpt lat="47.12837" lon="5.9922">
        <ele>447.7</ele>
        <time>2022-08-10T06:25:33Z</time>
      </trkpt>
      <trkpt lat="47.12841" lon="5.99224">
        <ele>447.5</ele>
        <time>2022-08-10T06:25:34Z</time>
      </trkpt>
      <trkpt lat="47.12844" lon="5.99228">
        <ele>447.2</ele>
        <time>2022-08-10T06:25:35Z</time>
      </trkpt>
      <trkpt lat="47.12846" lon="5.99233">
        <ele>446.7</ele>
        <time>2022-08-10T06:25:36Z</time>
      </trkpt>
      <trkpt lat="47.12849" lon="5.99238">
        <ele>446.7</ele>
        <time>2022-08-10T06:25:37Z</time>
      </trkpt>
      <trkpt lat="47.12852" lon="5.99244">
        <ele>447</ele>
        <time>2022-08-10T06:25:38Z</time>
      </trkpt>
      <trkpt lat="47.12853" lon="5.9925">
        <ele>447.2</ele>
        <time>2022-08-10T06:25:39Z</time>
      </trkpt>
      <trkpt lat="47.12854" lon="5.99256">
        <ele>447.2</ele>
        <time>2022-08-10T06:25:40Z</time>
      </trkpt>
      <trkpt lat="47.12855" lon="5.99262">
        <ele>447.3</ele>
        <time>2022-08-10T06:25:41Z</time>
      </trkpt>
      <trkpt lat="47.12857" lon="5.99269">
        <ele>447.4</ele>
        <time>2022-08-10T06:25:42Z</time>
      </trkpt>
      <trkpt lat="47.12859" lon="5.99274">
        <ele>447.7</ele>
        <time>2022-08-10T06:25:43Z</time>
      </trkpt>
      <trkpt lat="47.12861" lon="5.9928">
        <ele>447.9</ele>
        <time>2022-08-10T06:25:44Z</time>
      </trkpt>
      <trkpt lat="47.12863" lon="5.99285">
        <ele>448.3</ele>
        <time>2022-08-10T06:25:45Z</time>
      </trkpt>
      <trkpt lat="47.12865" lon="5.9929">
        <ele>448.8</ele>
        <time>2022-08-10T06:25:46Z</time>
      </trkpt>
      <trkpt lat="47.12867" lon="5.99295">
        <ele>449.4</ele>
        <time>2022-08-10T06:25:47Z</time>
      </trkpt>
      <trkpt lat="47.12869" lon="5.99299">
        <ele>449.9</ele>
        <time>2022-08-10T06:25:48Z</time>
      </trkpt>
      <trkpt lat="47.12872" lon="5.99304">
        <ele>450.7</ele>
        <time>2022-08-10T06:25:49Z</time>
      </trkpt>
      <trkpt lat="47.12873" lon="5.99309">
        <ele>451.6</ele>
        <time>2022-08-10T06:25:50Z</time>
      </trkpt>
      <trkpt lat="47.12875" lon="5.99315">
        <ele>452.5</ele>
        <time>2022-08-10T06:25:51Z</time>
      </trkpt>
      <trkpt lat="47.12878" lon="5.9932">
        <ele>452.9</ele>
        <time>2022-08-10T06:25:52Z</time>
      </trkpt>
      <trkpt lat="47.1288" lon="5.99326">
        <ele>453.2</ele>
        <time>2022-08-10T06:25:53Z</time>
      </trkpt>
      <trkpt lat="47.12882" lon="5.99332">
        <ele>454.1</ele>
        <time>2022-08-10T06:25:54Z</time>
      </trkpt>
      <trkpt lat="47.12883" lon="5.99339">
        <ele>454.6</ele>
        <time>2022-08-10T06:25:55Z</time>
      </trkpt>
      <trkpt lat="47.12884" lon="5.99346">
        <ele>455</ele>
        <time>2022-08-10T06:25:56Z</time>
      </trkpt>
      <trkpt lat="47.12885" lon="5.99353">
        <ele>455.4</ele>
        <time>2022-08-10T06:25:57Z</time>
      </trkpt>
      <trkpt lat="47.12886" lon="5.99359">
        <ele>455.9</ele>
        <time>2022-08-10T06:25:58Z</time>
      </trkpt>
      <trkpt lat="47.12886" lon="5.99365">
        <ele>456.1</ele>
        <time>2022-08-10T06:25:59Z</time>
      </trkpt>
      <trkpt lat="47.12887" lon="5.99371">
        <ele>456.3</ele>
        <time>2022-08-10T06:26:00Z</time>
      </trkpt>
      <trkpt lat="47.12889" lon="5.99376">
        <ele>456.4</ele>
        <time>2022-08-10T06:26:01Z</time>
      </trkpt>
      <trkpt lat="47.1289" lon="5.99382">
        <ele>455.7</ele>
        <time>2022-08-10T06:26:02Z</time>
      </trkpt>
      <trkpt lat="47.12892" lon="5.99389">
        <ele>455.8</ele>
        <time>2022-08-10T06:26:03Z</time>
      </trkpt>
      <trkpt lat="47.12894" lon="5.99395">
        <ele>455.2</ele>
        <time>2022-08-10T06:26:04Z</time>
      </trkpt>
      <trkpt lat="47.12898" lon="5.99402">
        <ele>455.4</ele>
        <time>2022-08-10T06:26:05Z</time>
      </trkpt>
      <trkpt lat="47.12901" lon="5.99409">
        <ele>455.6</ele>
        <time>2022-08-10T06:26:06Z</time>
      </trkpt>
      <trkpt lat="47.12905" lon="5.99415">
        <ele>455.3</ele>
        <time>2022-08-10T06:26:07Z</time>
      </trkpt>
      <trkpt lat="47.12908" lon="5.99423">
        <ele>454.6</ele>
        <time>2022-08-10T06:26:08Z</time>
      </trkpt>
      <trkpt lat="47.12912" lon="5.9943">
        <ele>454.3</ele>
        <time>2022-08-10T06:26:09Z</time>
      </trkpt>
      <trkpt lat="47.12916" lon="5.99439">
        <ele>453.8</ele>
        <time>2022-08-10T06:26:10Z</time>
      </trkpt>
      <trkpt lat="47.1292" lon="5.99447">
        <ele>453.5</ele>
        <time>2022-08-10T06:26:11Z</time>
      </trkpt>
      <trkpt lat="47.12925" lon="5.99456">
        <ele>453.5</ele>
        <time>2022-08-10T06:26:12Z</time>
      </trkpt>
      <trkpt lat="47.1293" lon="5.99464">
        <ele>453.9</ele>
        <time>2022-08-10T06:26:13Z</time>
      </trkpt>
      <trkpt lat="47.12934" lon="5.99472">
        <ele>453.8</ele>
        <time>2022-08-10T06:26:14Z</time>
      </trkpt>
      <trkpt lat="47.12939" lon="5.9948">
        <ele>454.7</ele>
        <time>2022-08-10T06:26:15Z</time>
      </trkpt>
      <trkpt lat="47.12943" lon="5.9949">
        <ele>455.1</ele>
        <time>2022-08-10T06:26:16Z</time>
      </trkpt>
      <trkpt lat="47.12947" lon="5.995">
        <ele>454.8</ele>
        <time>2022-08-10T06:26:17Z</time>
      </trkpt>
      <trkpt lat="47.1295" lon="5.9951">
        <ele>455.6</ele>
        <time>2022-08-10T06:26:18Z</time>
      </trkpt>
      <trkpt lat="47.12953" lon="5.99517">
        <ele>456.2</ele>
        <time>2022-08-10T06:26:19Z</time>
      </trkpt>
      <trkpt lat="47.12954" lon="5.99524">
        <ele>456.1</ele>
        <time>2022-08-10T06:26:20Z</time>
      </trkpt>
      <trkpt lat="47.12954" lon="5.9953">
        <ele>456.1</ele>
        <time>2022-08-10T06:26:21Z</time>
      </trkpt>
      <trkpt lat="47.12955" lon="5.99536">
        <ele>456.4</ele>
        <time>2022-08-10T06:26:22Z</time>
      </trkpt>
      <trkpt lat="47.12956" lon="5.99542">
        <ele>456.1</ele>
        <time>2022-08-10T06:26:23Z</time>
      </trkpt>
      <trkpt lat="47.12958" lon="5.99548">
        <ele>456.8</ele>
        <time>2022-08-10T06:26:24Z</time>
      </trkpt>
      <trkpt lat="47.1296" lon="5.99553">
        <ele>457.3</ele>
        <time>2022-08-10T06:26:25Z</time>
      </trkpt>
      <trkpt lat="47.12962" lon="5.99559">
        <ele>458.1</ele>
        <time>2022-08-10T06:26:26Z</time>
      </trkpt>
      <trkpt lat="47.12965" lon="5.99564">
        <ele>458.7</ele>
        <time>2022-08-10T06:26:27Z</time>
      </trkpt>
      <trkpt lat="47.12967" lon="5.99568">
        <ele>459.7</ele>
        <time>2022-08-10T06:26:28Z</time>
      </trkpt>
      <trkpt lat="47.12969" lon="5.99572">
        <ele>460.6</ele>
        <time>2022-08-10T06:26:29Z</time>
      </trkpt>
      <trkpt lat="47.12972" lon="5.99577">
        <ele>460.4</ele>
        <time>2022-08-10T06:26:30Z</time>
      </trkpt>
      <trkpt lat="47.12974" lon="5.99582">
        <ele>459.7</ele>
        <time>2022-08-10T06:26:31Z</time>
      </trkpt>
      <trkpt lat="47.12977" lon="5.99588">
        <ele>458.9</ele>
        <time>2022-08-10T06:26:32Z</time>
      </trkpt>
      <trkpt lat="47.12979" lon="5.99593">
        <ele>458.4</ele>
        <time>2022-08-10T06:26:33Z</time>
      </trkpt>
      <trkpt lat="47.12982" lon="5.99599">
        <ele>457.9</ele>
        <time>2022-08-10T06:26:34Z</time>
      </trkpt>
      <trkpt lat="47.12984" lon="5.99605">
        <ele>457.1</ele>
        <time>2022-08-10T06:26:35Z</time>
      </trkpt>
      <trkpt lat="47.12986" lon="5.9961">
        <ele>456.8</ele>
        <time>2022-08-10T06:26:36Z</time>
      </trkpt>
      <trkpt lat="47.12987" lon="5.99615">
        <ele>457.3</ele>
        <time>2022-08-10T06:26:37Z</time>
      </trkpt>
      <trkpt lat="47.12988" lon="5.99619">
        <ele>457.8</ele>
        <time>2022-08-10T06:26:38Z</time>
      </trkpt>
      <trkpt lat="47.1299" lon="5.99623">
        <ele>458.6</ele>
        <time>2022-08-10T06:26:39Z</time>
      </trkpt>
      <trkpt lat="47.12992" lon="5.99625">
        <ele>460</ele>
        <time>2022-08-10T06:26:40Z</time>
      </trkpt>
      <trkpt lat="47.12993" lon="5.99627">
        <ele>460.8</ele>
        <time>2022-08-10T06:26:41Z</time>
      </trkpt>
      <trkpt lat="47.12995" lon="5.99629">
        <ele>461.7</ele>
        <time>2022-08-10T06:26:42Z</time>
      </trkpt>
      <trkpt lat="47.12997" lon="5.99632">
        <ele>462.5</ele>
        <time>2022-08-10T06:26:43Z</time>
      </trkpt>
      <trkpt lat="47.13" lon="5.99637">
        <ele>463</ele>
        <time>2022-08-10T06:26:44Z</time>
      </trkpt>
      <trkpt lat="47.13002" lon="5.99642">
        <ele>463.6</ele>
        <time>2022-08-10T06:26:45Z</time>
      </trkpt>
      <trkpt lat="47.13005" lon="5.99648">
        <ele>464.1</ele>
        <time>2022-08-10T06:26:46Z</time>
      </trkpt>
      <trkpt lat="47.13008" lon="5.99655">
        <ele>464.1</ele>
        <time>2022-08-10T06:26:47Z</time>
      </trkpt>
      <trkpt lat="47.1301" lon="5.99662">
        <ele>464.6</ele>
        <time>2022-08-10T06:26:48Z</time>
      </trkpt>
      <trkpt lat="47.13011" lon="5.99669">
        <ele>465.1</ele>
        <time>2022-08-10T06:26:49Z</time>
      </trkpt>
      <trkpt lat="47.13012" lon="5.99675">
        <ele>465.3</ele>
        <time>2022-08-10T06:26:50Z</time>
      </trkpt>
      <trkpt lat="47.13012" lon="5.99683">
        <ele>465.6</ele>
        <time>2022-08-10T06:26:51Z</time>
      </trkpt>
      <trkpt lat="47.13012" lon="5.9969">
        <ele>466.2</ele>
        <time>2022-08-10T06:26:52Z</time>
      </trkpt>
      <trkpt lat="47.13012" lon="5.99698">
        <ele>465.6</ele>
        <time>2022-08-10T06:26:53Z</time>
      </trkpt>
      <trkpt lat="47.13011" lon="5.99705">
        <ele>465.6</ele>
        <time>2022-08-10T06:26:54Z</time>
      </trkpt>
      <trkpt lat="47.13012" lon="5.99712">
        <ele>465.7</ele>
        <time>2022-08-10T06:26:55Z</time>
      </trkpt>
      <trkpt lat="47.13013" lon="5.99719">
        <ele>465.6</ele>
        <time>2022-08-10T06:26:56Z</time>
      </trkpt>
      <trkpt lat="47.13014" lon="5.99725">
        <ele>465.6</ele>
        <time>2022-08-10T06:26:57Z</time>
      </trkpt>
      <trkpt lat="47.13016" lon="5.99731">
        <ele>465.9</ele>
        <time>2022-08-10T06:26:58Z</time>
      </trkpt>
      <trkpt lat="47.13019" lon="5.99738">
        <ele>466.6</ele>
        <time>2022-08-10T06:26:59Z</time>
      </trkpt>
      <trkpt lat="47.13022" lon="5.99743">
        <ele>466.7</ele>
        <time>2022-08-10T06:27:00Z</time>
      </trkpt>
      <trkpt lat="47.13024" lon="5.9975">
        <ele>466.7</ele>
        <time>2022-08-10T06:27:01Z</time>
      </trkpt>
      <trkpt lat="47.13027" lon="5.99757">
        <ele>466.8</ele>
        <time>2022-08-10T06:27:02Z</time>
      </trkpt>
      <trkpt lat="47.1303" lon="5.99765">
        <ele>466.2</ele>
        <time>2022-08-10T06:27:03Z</time>
      </trkpt>
      <trkpt lat="47.13033" lon="5.99772">
        <ele>465.7</ele>
        <time>2022-08-10T06:27:04Z</time>
      </trkpt>
      <trkpt lat="47.13036" lon="5.99778">
        <ele>465.7</ele>
        <time>2022-08-10T06:27:05Z</time>
      </trkpt>
      <trkpt lat="47.13039" lon="5.99784">
        <ele>465.3</ele>
        <time>2022-08-10T06:27:06Z</time>
      </trkpt>
      <trkpt lat="47.13042" lon="5.99792">
        <ele>464.8</ele>
        <time>2022-08-10T06:27:07Z</time>
      </trkpt>
      <trkpt lat="47.13045" lon="5.998">
        <ele>463.8</ele>
        <time>2022-08-10T06:27:08Z</time>
      </trkpt>
      <trkpt lat="47.13048" lon="5.99807">
        <ele>463.3</ele>
        <time>2022-08-10T06:27:09Z</time>
      </trkpt>
      <trkpt lat="47.13051" lon="5.99815">
        <ele>462.9</ele>
        <time>2022-08-10T06:27:10Z</time>
      </trkpt>
      <trkpt lat="47.13054" lon="5.99822">
        <ele>462.4</ele>
        <time>2022-08-10T06:27:11Z</time>
      </trkpt>
      <trkpt lat="47.13056" lon="5.99827">
        <ele>461.7</ele>
        <time>2022-08-10T06:27:12Z</time>
      </trkpt>
      <trkpt lat="47.13057" lon="5.99831">
        <ele>461.3</ele>
        <time>2022-08-10T06:27:13Z</time>
      </trkpt>
      <trkpt lat="47.13059" lon="5.99836">
        <ele>460.7</ele>
        <time>2022-08-10T06:27:14Z</time>
      </trkpt>
      <trkpt lat="47.13062" lon="5.99841">
        <ele>460.5</ele>
        <time>2022-08-10T06:27:15Z</time>
      </trkpt>
      <trkpt lat="47.13065" lon="5.99847">
        <ele>460.2</ele>
        <time>2022-08-10T06:27:16Z</time>
      </trkpt>
      <trkpt lat="47.13068" lon="5.99855">
        <ele>459.4</ele>
        <time>2022-08-10T06:27:17Z</time>
      </trkpt>
      <trkpt lat="47.13069" lon="5.9986">
        <ele>458.2</ele>
        <time>2022-08-10T06:27:18Z</time>
      </trkpt>
      <trkpt lat="47.13071" lon="5.99864">
        <ele>457.7</ele>
        <time>2022-08-10T06:27:19Z</time>
      </trkpt>
      <trkpt lat="47.13073" lon="5.99869">
        <ele>456.7</ele>
        <time>2022-08-10T06:27:20Z</time>
      </trkpt>
      <trkpt lat="47.13075" lon="5.99871">
        <ele>456.1</ele>
        <time>2022-08-10T06:27:21Z</time>
      </trkpt>
      <trkpt lat="47.13075" lon="5.99874">
        <ele>453.7</ele>
        <time>2022-08-10T06:27:22Z</time>
      </trkpt>
      <trkpt lat="47.13076" lon="5.99876">
        <ele>452.8</ele>
        <time>2022-08-10T06:27:23Z</time>
      </trkpt>
      <trkpt lat="47.13076" lon="5.99876">
        <ele>452.3</ele>
        <time>2022-08-10T06:27:24Z</time>
      </trkpt>
      <trkpt lat="47.13076" lon="5.99877">
        <ele>451.8</ele>
        <time>2022-08-10T06:27:25Z</time>
      </trkpt>
      <trkpt lat="47.13076" lon="5.99877">
        <ele>451.8</ele>
        <time>2022-08-10T06:27:26Z</time>
      </trkpt>
      <trkpt lat="47.13076" lon="5.99877">
        <ele>451.8</ele>
        <time>2022-08-10T06:27:27Z</time>
      </trkpt>
      <trkpt lat="47.13076" lon="5.99877">
        <ele>451.8</ele>
        <time>2022-08-10T06:27:28Z</time>
      </trkpt>
      <trkpt lat="47.13076" lon="5.99877">
        <ele>451.8</ele>
        <time>2022-08-10T06:27:29Z</time>
      </trkpt>
      <trkpt lat="47.13076" lon="5.99877">
        <ele>451.8</ele>
        <time>2022-08-10T06:27:30Z</time>
      </trkpt>
      <trkpt lat="47.13076" lon="5.99877">
        <ele>451.8</ele>
        <time>2022-08-10T06:27:31Z</time>
      </trkpt>
      <trkpt lat="47.13076" lon="5.99877">
        <ele>451.8</ele>
        <time>2022-08-10T06:27:32Z</time>
      </trkpt>
      <trkpt lat="47.13076" lon="5.99877">
        <ele>451.8</ele>
        <time>2022-08-10T06:27:33Z</time>
      </trkpt>
      <trkpt lat="47.13076" lon="5.99877">
        <ele>451.8</ele>
        <time>2022-08-10T06:27:34Z</time>
      </trkpt>
      <trkpt lat="47.13076" lon="5.99877">
        <ele>451.8</ele>
        <time>2022-08-10T06:27:35Z</time>
      </trkpt>
      <trkpt lat="47.13076" lon="5.99877">
        <ele>451.8</ele>
        <time>2022-08-10T06:27:36Z</time>
      </trkpt>
      <trkpt lat="47.13076" lon="5.99877">
        <ele>451.8</ele>
        <time>2022-08-10T06:27:37Z</time>
      </trkpt>
      <trkpt lat="47.13076" lon="5.99877">
        <ele>451.8</ele>
        <time>2022-08-10T06:27:38Z</time>
      </trkpt>
      <trkpt lat="47.13076" lon="5.99877">
        <ele>451.8</ele>
        <time>2022-08-10T06:27:39Z</time>
      </trkpt>
      <trkpt lat="47.13076" lon="5.99877">
        <ele>451.8</ele>
        <time>2022-08-10T06:27:40Z</time>
      </trkpt>
      <trkpt lat="47.13076" lon="5.99877">
        <ele>451.8</ele>
        <time>2022-08-10T06:27:41Z</time>
      </trkpt>
      <trkpt lat="47.13076" lon="5.99877">
        <ele>451.8</ele>
        <time>2022-08-10T06:27:42Z</time>
      </trkpt>
      <trkpt lat="47.13076" lon="5.99877">
        <ele>451.8</ele>
        <time>2022-08-10T06:27:43Z</time>
      </trkpt>
      <trkpt lat="47.13076" lon="5.99877">
        <ele>451.8</ele>
        <time>2022-08-10T06:27:44Z</time>
      </trkpt>
      <trkpt lat="47.13076" lon="5.99877">
        <ele>451.8</ele>
        <time>2022-08-10T06:27:45Z</time>
      </trkpt>
      <trkpt lat="47.13076" lon="5.99877">
        <ele>451.8</ele>
        <time>2022-08-10T06:27:46Z</time>
      </trkpt>
      <trkpt lat="47.13076" lon="5.99877">
        <ele>451.8</ele>
        <time>2022-08-10T06:27:47Z</time>
      </trkpt>
      <trkpt lat="47.13076" lon="5.99877">
        <ele>451.8</ele>
        <time>2022-08-10T06:27:48Z</time>
      </trkpt>
      <trkpt lat="47.13076" lon="5.99877">
        <ele>451.8</ele>
        <time>2022-08-10T06:27:49Z</time>
      </trkpt>
      <trkpt lat="47.13076" lon="5.99877">
        <ele>451.8</ele>
        <time>2022-08-10T06:27:50Z</time>
      </trkpt>
      <trkpt lat="47.13076" lon="5.99877">
        <ele>451.8</ele>
        <time>2022-08-10T06:27:51Z</time>
      </trkpt>
      <trkpt lat="47.13076" lon="5.99877">
        <ele>451.8</ele>
        <time>2022-08-10T06:27:52Z</time>
      </trkpt>
      <trkpt lat="47.13076" lon="5.99877">
        <ele>451.8</ele>
        <time>2022-08-10T06:27:53Z</time>
      </trkpt>
      <trkpt lat="47.13076" lon="5.99877">
        <ele>451.8</ele>
        <time>2022-08-10T06:27:54Z</time>
      </trkpt>
      <trkpt lat="47.13076" lon="5.99877">
        <ele>451.8</ele>
        <time>2022-08-10T06:27:55Z</time>
      </trkpt>
      <trkpt lat="47.13076" lon="5.99877">
        <ele>451.8</ele>
        <time>2022-08-10T06:27:56Z</time>
      </trkpt>
      <trkpt lat="47.13076" lon="5.99877">
        <ele>451.8</ele>
        <time>2022-08-10T06:27:57Z</time>
      </trkpt>
      <trkpt lat="47.13076" lon="5.99877">
        <ele>451.8</ele>
        <time>2022-08-10T06:27:58Z</time>
      </trkpt>
      <trkpt lat="47.13076" lon="5.99877">
        <ele>451.8</ele>
        <time>2022-08-10T06:27:59Z</time>
      </trkpt>
      <trkpt lat="47.13076" lon="5.99877">
        <ele>451.8</ele>
        <time>2022-08-10T06:28:00Z</time>
      </trkpt>
      <trkpt lat="47.13076" lon="5.99877">
        <ele>451.8</ele>
        <time>2022-08-10T06:28:01Z</time>
      </trkpt>
      <trkpt lat="47.13076" lon="5.99877">
        <ele>451.8</ele>
        <time>2022-08-10T06:28:02Z</time>
      </trkpt>
      <trkpt lat="47.13077" lon="5.99887">
        <ele>451.4</ele>
        <time>2022-08-10T06:28:03Z</time>
      </trkpt>
      <trkpt lat="47.13079" lon="5.9989">
        <ele>451.6</ele>
        <time>2022-08-10T06:28:04Z</time>
      </trkpt>
      <trkpt lat="47.1308" lon="5.99893">
        <ele>451.7</ele>
        <time>2022-08-10T06:28:05Z</time>
      </trkpt>
      <trkpt lat="47.13082" lon="5.99894">
        <ele>451.8</ele>
        <time>2022-08-10T06:28:06Z</time>
      </trkpt>
      <trkpt lat="47.13084" lon="5.99895">
        <ele>452.1</ele>
        <time>2022-08-10T06:28:07Z</time>
      </trkpt>
      <trkpt lat="47.13086" lon="5.99897">
        <ele>452.3</ele>
        <time>2022-08-10T06:28:08Z</time>
      </trkpt>
      <trkpt lat="47.13088" lon="5.99899">
        <ele>452.4</ele>
        <time>2022-08-10T06:28:09Z</time>
      </trkpt>
      <trkpt lat="47.1309" lon="5.99899">
        <ele>452.3</ele>
        <time>2022-08-10T06:28:10Z</time>
      </trkpt>
      <trkpt lat="47.13093" lon="5.99901">
        <ele>452.5</ele>
        <time>2022-08-10T06:28:11Z</time>
      </trkpt>
      <trkpt lat="47.13096" lon="5.99903">
        <ele>452.9</ele>
        <time>2022-08-10T06:28:12Z</time>
      </trkpt>
      <trkpt lat="47.131" lon="5.99906">
        <ele>453.5</ele>
        <time>2022-08-10T06:28:13Z</time>
      </trkpt>
      <trkpt lat="47.13103" lon="5.99909">
        <ele>453.9</ele>
        <time>2022-08-10T06:28:14Z</time>
      </trkpt>
      <trkpt lat="47.13106" lon="5.99914">
        <ele>454.5</ele>
        <time>2022-08-10T06:28:15Z</time>
      </trkpt>
      <trkpt lat="47.13109" lon="5.9992">
        <ele>454.8</ele>
        <time>2022-08-10T06:28:16Z</time>
      </trkpt>
      <trkpt lat="47.13112" lon="5.99927">
        <ele>455.5</ele>
        <time>2022-08-10T06:28:17Z</time>
      </trkpt>
      <trkpt lat="47.13114" lon="5.99936">
        <ele>455.9</ele>
        <time>2022-08-10T06:28:18Z</time>
      </trkpt>
      <trkpt lat="47.13115" lon="5.99946">
        <ele>456.1</ele>
        <time>2022-08-10T06:28:19Z</time>
      </trkpt>
      <trkpt lat="47.13116" lon="5.99956">
        <ele>456.2</ele>
        <time>2022-08-10T06:28:20Z</time>
      </trkpt>
      <trkpt lat="47.13116" lon="5.99966">
        <ele>456.4</ele>
        <time>2022-08-10T06:28:21Z</time>
      </trkpt>
      <trkpt lat="47.13117" lon="5.99975">
        <ele>456.8</ele>
        <time>2022-08-10T06:28:22Z</time>
      </trkpt>
      <trkpt lat="47.13118" lon="5.99983">
        <ele>457.1</ele>
        <time>2022-08-10T06:28:23Z</time>
      </trkpt>
      <trkpt lat="47.1312" lon="5.99994">
        <ele>457.1</ele>
        <time>2022-08-10T06:28:24Z</time>
      </trkpt>
      <trkpt lat="47.13124" lon="6.00001">
        <ele>457.2</ele>
        <time>2022-08-10T06:28:25Z</time>
      </trkpt>
      <trkpt lat="47.13127" lon="6.00006">
        <ele>457</ele>
        <time>2022-08-10T06:28:26Z</time>
      </trkpt>
      <trkpt lat="47.1313" lon="6.0001">
        <ele>456.9</ele>
        <time>2022-08-10T06:28:27Z</time>
      </trkpt>
      <trkpt lat="47.13133" lon="6.00013">
        <ele>456.9</ele>
        <time>2022-08-10T06:28:28Z</time>
      </trkpt>
      <trkpt lat="47.13136" lon="6.00018">
        <ele>456.4</ele>
        <time>2022-08-10T06:28:29Z</time>
      </trkpt>
      <trkpt lat="47.13139" lon="6.00022">
        <ele>455.9</ele>
        <time>2022-08-10T06:28:30Z</time>
      </trkpt>
      <trkpt lat="47.13142" lon="6.00027">
        <ele>455.5</ele>
        <time>2022-08-10T06:28:31Z</time>
      </trkpt>
      <trkpt lat="47.13145" lon="6.00031">
        <ele>455.6</ele>
        <time>2022-08-10T06:28:32Z</time>
      </trkpt>
      <trkpt lat="47.13148" lon="6.00035">
        <ele>455.6</ele>
        <time>2022-08-10T06:28:33Z</time>
      </trkpt>
      <trkpt lat="47.13151" lon="6.00039">
        <ele>455.5</ele>
        <time>2022-08-10T06:28:34Z</time>
      </trkpt>
      <trkpt lat="47.13153" lon="6.00043">
        <ele>455.3</ele>
        <time>2022-08-10T06:28:35Z</time>
      </trkpt>
      <trkpt lat="47.13156" lon="6.00047">
        <ele>455.3</ele>
        <time>2022-08-10T06:28:36Z</time>
      </trkpt>
      <trkpt lat="47.1316" lon="6.00051">
        <ele>454.9</ele>
        <time>2022-08-10T06:28:37Z</time>
      </trkpt>
      <trkpt lat="47.13164" lon="6.00055">
        <ele>454.4</ele>
        <time>2022-08-10T06:28:38Z</time>
      </trkpt>
      <trkpt lat="47.13168" lon="6.00058">
        <ele>454</ele>
        <time>2022-08-10T06:28:39Z</time>
      </trkpt>
      <trkpt lat="47.13172" lon="6.00061">
        <ele>453.4</ele>
        <time>2022-08-10T06:28:40Z</time>
      </trkpt>
      <trkpt lat="47.13176" lon="6.00065">
        <ele>452.5</ele>
        <time>2022-08-10T06:28:41Z</time>
      </trkpt>
      <trkpt lat="47.13181" lon="6.00068">
        <ele>451.3</ele>
        <time>2022-08-10T06:28:42Z</time>
      </trkpt>
      <trkpt lat="47.13185" lon="6.0007">
        <ele>450.1</ele>
        <time>2022-08-10T06:28:43Z</time>
      </trkpt>
      <trkpt lat="47.13189" lon="6.00073">
        <ele>448.9</ele>
        <time>2022-08-10T06:28:44Z</time>
      </trkpt>
      <trkpt lat="47.13193" lon="6.00075">
        <ele>447.7</ele>
        <time>2022-08-10T06:28:45Z</time>
      </trkpt>
      <trkpt lat="47.13197" lon="6.00078">
        <ele>446.4</ele>
        <time>2022-08-10T06:28:46Z</time>
      </trkpt>
      <trkpt lat="47.132" lon="6.0008">
        <ele>445.3</ele>
        <time>2022-08-10T06:28:47Z</time>
      </trkpt>
      <trkpt lat="47.13202" lon="6.0008">
        <ele>444.4</ele>
        <time>2022-08-10T06:28:48Z</time>
      </trkpt>
      <trkpt lat="47.13204" lon="6.00082">
        <ele>444.1</ele>
        <time>2022-08-10T06:28:49Z</time>
      </trkpt>
      <trkpt lat="47.13206" lon="6.00084">
        <ele>444.1</ele>
        <time>2022-08-10T06:28:50Z</time>
      </trkpt>
      <trkpt lat="47.13208" lon="6.00084">
        <ele>443.8</ele>
        <time>2022-08-10T06:28:51Z</time>
      </trkpt>
      <trkpt lat="47.13209" lon="6.00084">
        <ele>443.8</ele>
        <time>2022-08-10T06:28:52Z</time>
      </trkpt>
      <trkpt lat="47.13211" lon="6.00085">
        <ele>443.6</ele>
        <time>2022-08-10T06:28:53Z</time>
      </trkpt>
      <trkpt lat="47.13214" lon="6.00086">
        <ele>443.7</ele>
        <time>2022-08-10T06:28:54Z</time>
      </trkpt>
      <trkpt lat="47.13216" lon="6.00089">
        <ele>443.7</ele>
        <time>2022-08-10T06:28:55Z</time>
      </trkpt>
      <trkpt lat="47.13219" lon="6.0009">
        <ele>443.6</ele>
        <time>2022-08-10T06:28:56Z</time>
      </trkpt>
      <trkpt lat="47.13222" lon="6.00091">
        <ele>443.5</ele>
        <time>2022-08-10T06:28:57Z</time>
      </trkpt>
      <trkpt lat="47.13226" lon="6.00093">
        <ele>443.4</ele>
        <time>2022-08-10T06:28:58Z</time>
      </trkpt>
      <trkpt lat="47.1323" lon="6.00096">
        <ele>443.3</ele>
        <time>2022-08-10T06:28:59Z</time>
      </trkpt>
      <trkpt lat="47.13234" lon="6.00099">
        <ele>443.5</ele>
        <time>2022-08-10T06:29:00Z</time>
      </trkpt>
      <trkpt lat="47.13238" lon="6.00101">
        <ele>443.5</ele>
        <time>2022-08-10T06:29:01Z</time>
      </trkpt>
      <trkpt lat="47.13243" lon="6.00104">
        <ele>443.2</ele>
        <time>2022-08-10T06:29:02Z</time>
      </trkpt>
      <trkpt lat="47.13247" lon="6.00106">
        <ele>442.7</ele>
        <time>2022-08-10T06:29:03Z</time>
      </trkpt>
      <trkpt lat="47.13252" lon="6.00109">
        <ele>441.8</ele>
        <time>2022-08-10T06:29:04Z</time>
      </trkpt>
      <trkpt lat="47.13256" lon="6.00111">
        <ele>441.1</ele>
        <time>2022-08-10T06:29:05Z</time>
      </trkpt>
      <trkpt lat="47.1326" lon="6.00112">
        <ele>440.6</ele>
        <time>2022-08-10T06:29:06Z</time>
      </trkpt>
      <trkpt lat="47.13263" lon="6.00114">
        <ele>440.3</ele>
        <time>2022-08-10T06:29:07Z</time>
      </trkpt>
      <trkpt lat="47.13267" lon="6.00115">
        <ele>440</ele>
        <time>2022-08-10T06:29:08Z</time>
      </trkpt>
      <trkpt lat="47.13271" lon="6.00117">
        <ele>439.5</ele>
        <time>2022-08-10T06:29:09Z</time>
      </trkpt>
      <trkpt lat="47.13277" lon="6.00118">
        <ele>438.9</ele>
        <time>2022-08-10T06:29:10Z</time>
      </trkpt>
      <trkpt lat="47.13283" lon="6.0012">
        <ele>438.2</ele>
        <time>2022-08-10T06:29:11Z</time>
      </trkpt>
      <trkpt lat="47.13289" lon="6.00122">
        <ele>437.5</ele>
        <time>2022-08-10T06:29:12Z</time>
      </trkpt>
      <trkpt lat="47.13295" lon="6.00124">
        <ele>437.1</ele>
        <time>2022-08-10T06:29:13Z</time>
      </trkpt>
      <trkpt lat="47.13301" lon="6.00126">
        <ele>436.2</ele>
        <time>2022-08-10T06:29:14Z</time>
      </trkpt>
      <trkpt lat="47.13307" lon="6.00128">
        <ele>435.5</ele>
        <time>2022-08-10T06:29:15Z</time>
      </trkpt>
      <trkpt lat="47.13312" lon="6.0013">
        <ele>434.8</ele>
        <time>2022-08-10T06:29:16Z</time>
      </trkpt>
      <trkpt lat="47.13317" lon="6.00133">
        <ele>434.4</ele>
        <time>2022-08-10T06:29:17Z</time>
      </trkpt>
      <trkpt lat="47.13322" lon="6.00135">
        <ele>434</ele>
        <time>2022-08-10T06:29:18Z</time>
      </trkpt>
      <trkpt lat="47.13328" lon="6.00137">
        <ele>433.6</ele>
        <time>2022-08-10T06:29:19Z</time>
      </trkpt>
      <trkpt lat="47.13333" lon="6.00139">
        <ele>433.1</ele>
        <time>2022-08-10T06:29:20Z</time>
      </trkpt>
      <trkpt lat="47.13338" lon="6.00142">
        <ele>432.5</ele>
        <time>2022-08-10T06:29:21Z</time>
      </trkpt>
      <trkpt lat="47.13342" lon="6.00144">
        <ele>431.8</ele>
        <time>2022-08-10T06:29:22Z</time>
      </trkpt>
      <trkpt lat="47.13347" lon="6.00146">
        <ele>431.2</ele>
        <time>2022-08-10T06:29:23Z</time>
      </trkpt>
      <trkpt lat="47.13352" lon="6.00147">
        <ele>430.6</ele>
        <time>2022-08-10T06:29:24Z</time>
      </trkpt>
      <trkpt lat="47.13357" lon="6.00149">
        <ele>430</ele>
        <time>2022-08-10T06:29:25Z</time>
      </trkpt>
      <trkpt lat="47.13362" lon="6.00152">
        <ele>429.7</ele>
        <time>2022-08-10T06:29:26Z</time>
      </trkpt>
      <trkpt lat="47.13367" lon="6.00154">
        <ele>429.3</ele>
        <time>2022-08-10T06:29:27Z</time>
      </trkpt>
      <trkpt lat="47.13371" lon="6.00155">
        <ele>428.8</ele>
        <time>2022-08-10T06:29:28Z</time>
      </trkpt>
      <trkpt lat="47.13376" lon="6.00156">
        <ele>428.4</ele>
        <time>2022-08-10T06:29:29Z</time>
      </trkpt>
      <trkpt lat="47.1338" lon="6.00157">
        <ele>428.3</ele>
        <time>2022-08-10T06:29:30Z</time>
      </trkpt>
      <trkpt lat="47.13384" lon="6.00159">
        <ele>428</ele>
        <time>2022-08-10T06:29:31Z</time>
      </trkpt>
      <trkpt lat="47.13388" lon="6.00162">
        <ele>428.1</ele>
        <time>2022-08-10T06:29:32Z</time>
      </trkpt>
      <trkpt lat="47.13392" lon="6.00166">
        <ele>428.8</ele>
        <time>2022-08-10T06:29:33Z</time>
      </trkpt>
      <trkpt lat="47.13396" lon="6.0017">
        <ele>430</ele>
        <time>2022-08-10T06:29:34Z</time>
      </trkpt>
      <trkpt lat="47.13401" lon="6.00176">
        <ele>430.6</ele>
        <time>2022-08-10T06:29:35Z</time>
      </trkpt>
      <trkpt lat="47.13404" lon="6.00182">
        <ele>431.5</ele>
        <time>2022-08-10T06:29:36Z</time>
      </trkpt>
      <trkpt lat="47.13408" lon="6.00189">
        <ele>432.2</ele>
        <time>2022-08-10T06:29:37Z</time>
      </trkpt>
      <trkpt lat="47.13412" lon="6.00195">
        <ele>433.3</ele>
        <time>2022-08-10T06:29:38Z</time>
      </trkpt>
      <trkpt lat="47.13416" lon="6.002">
        <ele>434</ele>
        <time>2022-08-10T06:29:39Z</time>
      </trkpt>
      <trkpt lat="47.1342" lon="6.00205">
        <ele>434.5</ele>
        <time>2022-08-10T06:29:40Z</time>
      </trkpt>
      <trkpt lat="47.13425" lon="6.00209">
        <ele>434.6</ele>
        <time>2022-08-10T06:29:41Z</time>
      </trkpt>
      <trkpt lat="47.13429" lon="6.00213">
        <ele>434.8</ele>
        <time>2022-08-10T06:29:42Z</time>
      </trkpt>
      <trkpt lat="47.13432" lon="6.00216">
        <ele>435.2</ele>
        <time>2022-08-10T06:29:43Z</time>
      </trkpt>
      <trkpt lat="47.13437" lon="6.00221">
        <ele>435.1</ele>
        <time>2022-08-10T06:29:44Z</time>
      </trkpt>
      <trkpt lat="47.13441" lon="6.00226">
        <ele>435.3</ele>
        <time>2022-08-10T06:29:45Z</time>
      </trkpt>
      <trkpt lat="47.13446" lon="6.00229">
        <ele>435.6</ele>
        <time>2022-08-10T06:29:46Z</time>
      </trkpt>
      <trkpt lat="47.1345" lon="6.00232">
        <ele>435.4</ele>
        <time>2022-08-10T06:29:47Z</time>
      </trkpt>
      <trkpt lat="47.13454" lon="6.00235">
        <ele>435.6</ele>
        <time>2022-08-10T06:29:48Z</time>
      </trkpt>
      <trkpt lat="47.13457" lon="6.00238">
        <ele>435.7</ele>
        <time>2022-08-10T06:29:49Z</time>
      </trkpt>
      <trkpt lat="47.13461" lon="6.00242">
        <ele>435.6</ele>
        <time>2022-08-10T06:29:50Z</time>
      </trkpt>
      <trkpt lat="47.13464" lon="6.00246">
        <ele>435.5</ele>
        <time>2022-08-10T06:29:51Z</time>
      </trkpt>
      <trkpt lat="47.13467" lon="6.0025">
        <ele>435.7</ele>
        <time>2022-08-10T06:29:52Z</time>
      </trkpt>
      <trkpt lat="47.1347" lon="6.00255">
        <ele>435.5</ele>
        <time>2022-08-10T06:29:53Z</time>
      </trkpt>
      <trkpt lat="47.13472" lon="6.0026">
        <ele>435.8</ele>
        <time>2022-08-10T06:29:54Z</time>
      </trkpt>
      <trkpt lat="47.13475" lon="6.00264">
        <ele>435.8</ele>
        <time>2022-08-10T06:29:55Z</time>
      </trkpt>
      <trkpt lat="47.13478" lon="6.00268">
        <ele>435.9</ele>
        <time>2022-08-10T06:29:56Z</time>
      </trkpt>
      <trkpt lat="47.13482" lon="6.00273">
        <ele>436.2</ele>
        <time>2022-08-10T06:29:57Z</time>
      </trkpt>
      <trkpt lat="47.13485" lon="6.00276">
        <ele>436.9</ele>
        <time>2022-08-10T06:29:58Z</time>
      </trkpt>
      <trkpt lat="47.13488" lon="6.00279">
        <ele>437.5</ele>
        <time>2022-08-10T06:29:59Z</time>
      </trkpt>
      <trkpt lat="47.13492" lon="6.00283">
        <ele>437.9</ele>
        <time>2022-08-10T06:30:00Z</time>
      </trkpt>
      <trkpt lat="47.13496" lon="6.00287">
        <ele>438.3</ele>
        <time>2022-08-10T06:30:01Z</time>
      </trkpt>
      <trkpt lat="47.13499" lon="6.00292">
        <ele>438.5</ele>
        <time>2022-08-10T06:30:02Z</time>
      </trkpt>
      <trkpt lat="47.13502" lon="6.00296">
        <ele>438.8</ele>
        <time>2022-08-10T06:30:03Z</time>
      </trkpt>
      <trkpt lat="47.13506" lon="6.00301">
        <ele>439</ele>
        <time>2022-08-10T06:30:04Z</time>
      </trkpt>
      <trkpt lat="47.13509" lon="6.00305">
        <ele>439.6</ele>
        <time>2022-08-10T06:30:05Z</time>
      </trkpt>
      <trkpt lat="47.13512" lon="6.00311">
        <ele>439.8</ele>
        <time>2022-08-10T06:30:06Z</time>
      </trkpt>
      <trkpt lat="47.13517" lon="6.00318">
        <ele>439.7</ele>
        <time>2022-08-10T06:30:07Z</time>
      </trkpt>
      <trkpt lat="47.13522" lon="6.00325">
        <ele>440.1</ele>
        <time>2022-08-10T06:30:08Z</time>
      </trkpt>
      <trkpt lat="47.13526" lon="6.00331">
        <ele>440.4</ele>
        <time>2022-08-10T06:30:09Z</time>
      </trkpt>
      <trkpt lat="47.1353" lon="6.00337">
        <ele>441.2</ele>
        <time>2022-08-10T06:30:10Z</time>
      </trkpt>
      <trkpt lat="47.13533" lon="6.00342">
        <ele>441.1</ele>
        <time>2022-08-10T06:30:11Z</time>
      </trkpt>
      <trkpt lat="47.13536" lon="6.00346">
        <ele>440.8</ele>
        <time>2022-08-10T06:30:12Z</time>
      </trkpt>
      <trkpt lat="47.13538" lon="6.00348">
        <ele>440.8</ele>
        <time>2022-08-10T06:30:13Z</time>
      </trkpt>
      <trkpt lat="47.13541" lon="6.0035">
        <ele>441.1</ele>
        <time>2022-08-10T06:30:14Z</time>
      </trkpt>
      <trkpt lat="47.13543" lon="6.00351">
        <ele>440.8</ele>
        <time>2022-08-10T06:30:15Z</time>
      </trkpt>
      <trkpt lat="47.13546" lon="6.00351">
        <ele>440.7</ele>
        <time>2022-08-10T06:30:16Z</time>
      </trkpt>
      <trkpt lat="47.13548" lon="6.00353">
        <ele>440.4</ele>
        <time>2022-08-10T06:30:17Z</time>
      </trkpt>
      <trkpt lat="47.13551" lon="6.00355">
        <ele>440.8</ele>
        <time>2022-08-10T06:30:18Z</time>
      </trkpt>
      <trkpt lat="47.13554" lon="6.00357">
        <ele>440.6</ele>
        <time>2022-08-10T06:30:19Z</time>
      </trkpt>
      <trkpt lat="47.13557" lon="6.00359">
        <ele>440.8</ele>
        <time>2022-08-10T06:30:20Z</time>
      </trkpt>
      <trkpt lat="47.13561" lon="6.00362">
        <ele>440.8</ele>
        <time>2022-08-10T06:30:21Z</time>
      </trkpt>
      <trkpt lat="47.13565" lon="6.00366">
        <ele>440.4</ele>
        <time>2022-08-10T06:30:22Z</time>
      </trkpt>
      <trkpt lat="47.13569" lon="6.0037">
        <ele>440</ele>
        <time>2022-08-10T06:30:23Z</time>
      </trkpt>
      <trkpt lat="47.13573" lon="6.00374">
        <ele>439.1</ele>
        <time>2022-08-10T06:30:24Z</time>
      </trkpt>
      <trkpt lat="47.13578" lon="6.00378">
        <ele>439.1</ele>
        <time>2022-08-10T06:30:25Z</time>
      </trkpt>
      <trkpt lat="47.13582" lon="6.00381">
        <ele>439.3</ele>
        <time>2022-08-10T06:30:26Z</time>
      </trkpt>
      <trkpt lat="47.13586" lon="6.00384">
        <ele>439.3</ele>
        <time>2022-08-10T06:30:27Z</time>
      </trkpt>
      <trkpt lat="47.13591" lon="6.00387">
        <ele>439.1</ele>
        <time>2022-08-10T06:30:28Z</time>
      </trkpt>
      <trkpt lat="47.13594" lon="6.0039">
        <ele>438.7</ele>
        <time>2022-08-10T06:30:29Z</time>
      </trkpt>
      <trkpt lat="47.13598" lon="6.00393">
        <ele>438.7</ele>
        <time>2022-08-10T06:30:30Z</time>
      </trkpt>
      <trkpt lat="47.13603" lon="6.00395">
        <ele>438.9</ele>
        <time>2022-08-10T06:30:31Z</time>
      </trkpt>
      <trkpt lat="47.13607" lon="6.00398">
        <ele>438.9</ele>
        <time>2022-08-10T06:30:32Z</time>
      </trkpt>
      <trkpt lat="47.13611" lon="6.004">
        <ele>439</ele>
        <time>2022-08-10T06:30:33Z</time>
      </trkpt>
      <trkpt lat="47.13615" lon="6.00402">
        <ele>438.9</ele>
        <time>2022-08-10T06:30:34Z</time>
      </trkpt>
      <trkpt lat="47.13619" lon="6.00404">
        <ele>438.9</ele>
        <time>2022-08-10T06:30:35Z</time>
      </trkpt>
      <trkpt lat="47.13622" lon="6.00405">
        <ele>438.6</ele>
        <time>2022-08-10T06:30:36Z</time>
      </trkpt>
      <trkpt lat="47.13627" lon="6.00405">
        <ele>438.2</ele>
        <time>2022-08-10T06:30:37Z</time>
      </trkpt>
      <trkpt lat="47.13632" lon="6.00404">
        <ele>437.8</ele>
        <time>2022-08-10T06:30:38Z</time>
      </trkpt>
      <trkpt lat="47.13638" lon="6.00403">
        <ele>437.7</ele>
        <time>2022-08-10T06:30:39Z</time>
      </trkpt>
      <trkpt lat="47.13643" lon="6.00401">
        <ele>437.6</ele>
        <time>2022-08-10T06:30:40Z</time>
      </trkpt>
      <trkpt lat="47.13648" lon="6.00399">
        <ele>437.4</ele>
        <time>2022-08-10T06:30:41Z</time>
      </trkpt>
      <trkpt lat="47.13654" lon="6.00398">
        <ele>437.1</ele>
        <time>2022-08-10T06:30:42Z</time>
      </trkpt>
      <trkpt lat="47.13658" lon="6.00396">
        <ele>437</ele>
        <time>2022-08-10T06:30:43Z</time>
      </trkpt>
      <trkpt lat="47.13663" lon="6.00394">
        <ele>436.7</ele>
        <time>2022-08-10T06:30:44Z</time>
      </trkpt>
      <trkpt lat="47.13668" lon="6.00393">
        <ele>436.3</ele>
        <time>2022-08-10T06:30:45Z</time>
      </trkpt>
      <trkpt lat="47.13672" lon="6.00392">
        <ele>435.9</ele>
        <time>2022-08-10T06:30:46Z</time>
      </trkpt>
      <trkpt lat="47.13675" lon="6.00391">
        <ele>435.7</ele>
        <time>2022-08-10T06:30:47Z</time>
      </trkpt>
      <trkpt lat="47.13679" lon="6.0039">
        <ele>435.6</ele>
        <time>2022-08-10T06:30:48Z</time>
      </trkpt>
      <trkpt lat="47.13683" lon="6.00388">
        <ele>435.7</ele>
        <time>2022-08-10T06:30:49Z</time>
      </trkpt>
      <trkpt lat="47.13687" lon="6.00386">
        <ele>435.5</ele>
        <time>2022-08-10T06:30:50Z</time>
      </trkpt>
      <trkpt lat="47.13692" lon="6.00384">
        <ele>435.6</ele>
        <time>2022-08-10T06:30:51Z</time>
      </trkpt>
      <trkpt lat="47.13696" lon="6.00382">
        <ele>435.6</ele>
        <time>2022-08-10T06:30:52Z</time>
      </trkpt>
      <trkpt lat="47.13701" lon="6.00381">
        <ele>435.5</ele>
        <time>2022-08-10T06:30:53Z</time>
      </trkpt>
      <trkpt lat="47.13705" lon="6.00379">
        <ele>435.5</ele>
        <time>2022-08-10T06:30:54Z</time>
      </trkpt>
      <trkpt lat="47.13709" lon="6.00376">
        <ele>435.6</ele>
        <time>2022-08-10T06:30:55Z</time>
      </trkpt>
      <trkpt lat="47.13712" lon="6.00374">
        <ele>435.6</ele>
        <time>2022-08-10T06:30:56Z</time>
      </trkpt>
      <trkpt lat="47.13716" lon="6.00371">
        <ele>435.2</ele>
        <time>2022-08-10T06:30:57Z</time>
      </trkpt>
      <trkpt lat="47.13719" lon="6.00368">
        <ele>435</ele>
        <time>2022-08-10T06:30:58Z</time>
      </trkpt>
      <trkpt lat="47.13724" lon="6.00365">
        <ele>435.3</ele>
        <time>2022-08-10T06:30:59Z</time>
      </trkpt>
      <trkpt lat="47.13728" lon="6.00363">
        <ele>435</ele>
        <time>2022-08-10T06:31:00Z</time>
      </trkpt>
      <trkpt lat="47.13733" lon="6.00362">
        <ele>435</ele>
        <time>2022-08-10T06:31:01Z</time>
      </trkpt>
      <trkpt lat="47.13737" lon="6.00362">
        <ele>435.2</ele>
        <time>2022-08-10T06:31:02Z</time>
      </trkpt>
      <trkpt lat="47.13741" lon="6.0036">
        <ele>435.5</ele>
        <time>2022-08-10T06:31:03Z</time>
      </trkpt>
      <trkpt lat="47.13746" lon="6.0036">
        <ele>436</ele>
        <time>2022-08-10T06:31:04Z</time>
      </trkpt>
      <trkpt lat="47.13751" lon="6.00359">
        <ele>436.4</ele>
        <time>2022-08-10T06:31:05Z</time>
      </trkpt>
      <trkpt lat="47.13755" lon="6.00359">
        <ele>437.2</ele>
        <time>2022-08-10T06:31:06Z</time>
      </trkpt>
      <trkpt lat="47.1376" lon="6.0036">
        <ele>437.6</ele>
        <time>2022-08-10T06:31:07Z</time>
      </trkpt>
      <trkpt lat="47.13763" lon="6.00362">
        <ele>438</ele>
        <time>2022-08-10T06:31:08Z</time>
      </trkpt>
      <trkpt lat="47.13767" lon="6.00365">
        <ele>438.6</ele>
        <time>2022-08-10T06:31:09Z</time>
      </trkpt>
      <trkpt lat="47.1377" lon="6.0037">
        <ele>439.6</ele>
        <time>2022-08-10T06:31:10Z</time>
      </trkpt>
      <trkpt lat="47.13773" lon="6.00375">
        <ele>440.7</ele>
        <time>2022-08-10T06:31:11Z</time>
      </trkpt>
      <trkpt lat="47.13776" lon="6.00382">
        <ele>441.9</ele>
        <time>2022-08-10T06:31:12Z</time>
      </trkpt>
      <trkpt lat="47.13779" lon="6.00387">
        <ele>442.8</ele>
        <time>2022-08-10T06:31:13Z</time>
      </trkpt>
      <trkpt lat="47.13781" lon="6.00391">
        <ele>444.1</ele>
        <time>2022-08-10T06:31:14Z</time>
      </trkpt>
      <trkpt lat="47.13783" lon="6.00398">
        <ele>445.4</ele>
        <time>2022-08-10T06:31:15Z</time>
      </trkpt>
      <trkpt lat="47.13785" lon="6.00403">
        <ele>446.6</ele>
        <time>2022-08-10T06:31:16Z</time>
      </trkpt>
      <trkpt lat="47.13787" lon="6.00408">
        <ele>447.3</ele>
        <time>2022-08-10T06:31:17Z</time>
      </trkpt>
      <trkpt lat="47.1379" lon="6.00415">
        <ele>448.3</ele>
        <time>2022-08-10T06:31:18Z</time>
      </trkpt>
      <trkpt lat="47.13792" lon="6.00421">
        <ele>449.5</ele>
        <time>2022-08-10T06:31:19Z</time>
      </trkpt>
      <trkpt lat="47.13795" lon="6.00428">
        <ele>450.9</ele>
        <time>2022-08-10T06:31:20Z</time>
      </trkpt>
      <trkpt lat="47.13797" lon="6.00436">
        <ele>451.7</ele>
        <time>2022-08-10T06:31:21Z</time>
      </trkpt>
      <trkpt lat="47.13799" lon="6.00444">
        <ele>452.8</ele>
        <time>2022-08-10T06:31:22Z</time>
      </trkpt>
      <trkpt lat="47.13802" lon="6.00452">
        <ele>453.3</ele>
        <time>2022-08-10T06:31:23Z</time>
      </trkpt>
      <trkpt lat="47.13804" lon="6.00459">
        <ele>454.2</ele>
        <time>2022-08-10T06:31:24Z</time>
      </trkpt>
      <trkpt lat="47.13806" lon="6.00467">
        <ele>455.1</ele>
        <time>2022-08-10T06:31:25Z</time>
      </trkpt>
      <trkpt lat="47.13807" lon="6.00473">
        <ele>456</ele>
        <time>2022-08-10T06:31:26Z</time>
      </trkpt>
      <trkpt lat="47.13808" lon="6.00479">
        <ele>456.3</ele>
        <time>2022-08-10T06:31:27Z</time>
      </trkpt>
      <trkpt lat="47.13809" lon="6.00485">
        <ele>456.5</ele>
        <time>2022-08-10T06:31:28Z</time>
      </trkpt>
      <trkpt lat="47.13811" lon="6.00489">
        <ele>457.1</ele>
        <time>2022-08-10T06:31:29Z</time>
      </trkpt>
      <trkpt lat="47.13813" lon="6.00492">
        <ele>457.6</ele>
        <time>2022-08-10T06:31:30Z</time>
      </trkpt>
      <trkpt lat="47.13814" lon="6.00497">
        <ele>456.2</ele>
        <time>2022-08-10T06:31:31Z</time>
      </trkpt>
      <trkpt lat="47.13817" lon="6.005">
        <ele>456.3</ele>
        <time>2022-08-10T06:31:32Z</time>
      </trkpt>
      <trkpt lat="47.1382" lon="6.00505">
        <ele>456.4</ele>
        <time>2022-08-10T06:31:33Z</time>
      </trkpt>
      <trkpt lat="47.13822" lon="6.0051">
        <ele>456.1</ele>
        <time>2022-08-10T06:31:34Z</time>
      </trkpt>
      <trkpt lat="47.13825" lon="6.00514">
        <ele>455.8</ele>
        <time>2022-08-10T06:31:35Z</time>
      </trkpt>
      <trkpt lat="47.13827" lon="6.00518">
        <ele>455.6</ele>
        <time>2022-08-10T06:31:36Z</time>
      </trkpt>
      <trkpt lat="47.13831" lon="6.0052">
        <ele>455</ele>
        <time>2022-08-10T06:31:37Z</time>
      </trkpt>
      <trkpt lat="47.13835" lon="6.00522">
        <ele>453.9</ele>
        <time>2022-08-10T06:31:38Z</time>
      </trkpt>
      <trkpt lat="47.13839" lon="6.00524">
        <ele>453</ele>
        <time>2022-08-10T06:31:39Z</time>
      </trkpt>
      <trkpt lat="47.13842" lon="6.00525">
        <ele>452</ele>
        <time>2022-08-10T06:31:40Z</time>
      </trkpt>
      <trkpt lat="47.13846" lon="6.00527">
        <ele>451.2</ele>
        <time>2022-08-10T06:31:41Z</time>
      </trkpt>
      <trkpt lat="47.13849" lon="6.00528">
        <ele>450.1</ele>
        <time>2022-08-10T06:31:42Z</time>
      </trkpt>
      <trkpt lat="47.13856" lon="6.0053">
        <ele>447.8</ele>
        <time>2022-08-10T06:31:44Z</time>
      </trkpt>
      <trkpt lat="47.1386" lon="6.00531">
        <ele>446.1</ele>
        <time>2022-08-10T06:31:45Z</time>
      </trkpt>
      <trkpt lat="47.13863" lon="6.00531">
        <ele>444.5</ele>
        <time>2022-08-10T06:31:46Z</time>
      </trkpt>
      <trkpt lat="47.13867" lon="6.00531">
        <ele>442.9</ele>
        <time>2022-08-10T06:31:47Z</time>
      </trkpt>
      <trkpt lat="47.13871" lon="6.00531">
        <ele>441.6</ele>
        <time>2022-08-10T06:31:48Z</time>
      </trkpt>
      <trkpt lat="47.13875" lon="6.00531">
        <ele>440.4</ele>
        <time>2022-08-10T06:31:49Z</time>
      </trkpt>
      <trkpt lat="47.13878" lon="6.0053">
        <ele>439.7</ele>
        <time>2022-08-10T06:31:50Z</time>
      </trkpt>
      <trkpt lat="47.13882" lon="6.00531">
        <ele>438.7</ele>
        <time>2022-08-10T06:31:51Z</time>
      </trkpt>
      <trkpt lat="47.13885" lon="6.00531">
        <ele>437.5</ele>
        <time>2022-08-10T06:31:52Z</time>
      </trkpt>
      <trkpt lat="47.13888" lon="6.00531">
        <ele>436.9</ele>
        <time>2022-08-10T06:31:53Z</time>
      </trkpt>
      <trkpt lat="47.13891" lon="6.00531">
        <ele>436.1</ele>
        <time>2022-08-10T06:31:54Z</time>
      </trkpt>
      <trkpt lat="47.13894" lon="6.00531">
        <ele>435.4</ele>
        <time>2022-08-10T06:31:55Z</time>
      </trkpt>
      <trkpt lat="47.13897" lon="6.0053">
        <ele>434.6</ele>
        <time>2022-08-10T06:31:56Z</time>
      </trkpt>
      <trkpt lat="47.13899" lon="6.00531">
        <ele>434.1</ele>
        <time>2022-08-10T06:31:57Z</time>
      </trkpt>
      <trkpt lat="47.13902" lon="6.00531">
        <ele>433</ele>
        <time>2022-08-10T06:31:58Z</time>
      </trkpt>
      <trkpt lat="47.13904" lon="6.00531">
        <ele>432.4</ele>
        <time>2022-08-10T06:31:59Z</time>
      </trkpt>
      <trkpt lat="47.13906" lon="6.00532">
        <ele>431.6</ele>
        <time>2022-08-10T06:32:00Z</time>
      </trkpt>
      <trkpt lat="47.13906" lon="6.00531">
        <ele>431.4</ele>
        <time>2022-08-10T06:32:01Z</time>
      </trkpt>
      <trkpt lat="47.13906" lon="6.00531">
        <ele>431.7</ele>
        <time>2022-08-10T06:32:02Z</time>
      </trkpt>
      <trkpt lat="47.13906" lon="6.00531">
        <ele>431.7</ele>
        <time>2022-08-10T06:32:03Z</time>
      </trkpt>
      <trkpt lat="47.13906" lon="6.00531">
        <ele>431.7</ele>
        <time>2022-08-10T06:32:04Z</time>
      </trkpt>
      <trkpt lat="47.13906" lon="6.00531">
        <ele>431.7</ele>
        <time>2022-08-10T06:32:05Z</time>
      </trkpt>
      <trkpt lat="47.13906" lon="6.00531">
        <ele>431.7</ele>
        <time>2022-08-10T06:32:06Z</time>
      </trkpt>
      <trkpt lat="47.13906" lon="6.00531">
        <ele>431.7</ele>
        <time>2022-08-10T06:32:07Z</time>
      </trkpt>
      <trkpt lat="47.13906" lon="6.00531">
        <ele>431.7</ele>
        <time>2022-08-10T06:32:08Z</time>
      </trkpt>
      <trkpt lat="47.13906" lon="6.00531">
        <ele>431.7</ele>
        <time>2022-08-10T06:32:09Z</time>
      </trkpt>
      <trkpt lat="47.13906" lon="6.00531">
        <ele>431.7</ele>
        <time>2022-08-10T06:32:10Z</time>
      </trkpt>
      <trkpt lat="47.13906" lon="6.00531">
        <ele>431.7</ele>
        <time>2022-08-10T06:32:11Z</time>
      </trkpt>
      <trkpt lat="47.13906" lon="6.00531">
        <ele>431.7</ele>
        <time>2022-08-10T06:32:12Z</time>
      </trkpt>
      <trkpt lat="47.13906" lon="6.00531">
        <ele>431.7</ele>
        <time>2022-08-10T06:32:13Z</time>
      </trkpt>
      <trkpt lat="47.13906" lon="6.00531">
        <ele>431.7</ele>
        <time>2022-08-10T06:32:14Z</time>
      </trkpt>
      <trkpt lat="47.13906" lon="6.00531">
        <ele>431.7</ele>
        <time>2022-08-10T06:32:15Z</time>
      </trkpt>
      <trkpt lat="47.13906" lon="6.00531">
        <ele>431.7</ele>
        <time>2022-08-10T06:32:16Z</time>
      </trkpt>
      <trkpt lat="47.13906" lon="6.00531">
        <ele>431.7</ele>
        <time>2022-08-10T06:32:17Z</time>
      </trkpt>
      <trkpt lat="47.13906" lon="6.00531">
        <ele>431.7</ele>
        <time>2022-08-10T06:32:18Z</time>
      </trkpt>
      <trkpt lat="47.13906" lon="6.00531">
        <ele>431.7</ele>
        <time>2022-08-10T06:32:19Z</time>
      </trkpt>
      <trkpt lat="47.13906" lon="6.00531">
        <ele>431.7</ele>
        <time>2022-08-10T06:32:20Z</time>
      </trkpt>
      <trkpt lat="47.13906" lon="6.00531">
        <ele>431.7</ele>
        <time>2022-08-10T06:32:21Z</time>
      </trkpt>
      <trkpt lat="47.13906" lon="6.00531">
        <ele>431.7</ele>
        <time>2022-08-10T06:32:22Z</time>
      </trkpt>
      <trkpt lat="47.13906" lon="6.00531">
        <ele>431.7</ele>
        <time>2022-08-10T06:32:23Z</time>
      </trkpt>
      <trkpt lat="47.13906" lon="6.00531">
        <ele>431.7</ele>
        <time>2022-08-10T06:32:24Z</time>
      </trkpt>
      <trkpt lat="47.13906" lon="6.00531">
        <ele>431.7</ele>
        <time>2022-08-10T06:32:25Z</time>
      </trkpt>
      <trkpt lat="47.13906" lon="6.00531">
        <ele>431.7</ele>
        <time>2022-08-10T06:32:26Z</time>
      </trkpt>
      <trkpt lat="47.13906" lon="6.00531">
        <ele>431.7</ele>
        <time>2022-08-10T06:32:27Z</time>
      </trkpt>
      <trkpt lat="47.13906" lon="6.00531">
        <ele>431.7</ele>
        <time>2022-08-10T06:32:28Z</time>
      </trkpt>
      <trkpt lat="47.13906" lon="6.00531">
        <ele>431.7</ele>
        <time>2022-08-10T06:32:29Z</time>
      </trkpt>
      <trkpt lat="47.13906" lon="6.00531">
        <ele>431.7</ele>
        <time>2022-08-10T06:32:30Z</time>
      </trkpt>
      <trkpt lat="47.13906" lon="6.00531">
        <ele>431.7</ele>
        <time>2022-08-10T06:32:31Z</time>
      </trkpt>
      <trkpt lat="47.13906" lon="6.00531">
        <ele>431.7</ele>
        <time>2022-08-10T06:32:32Z</time>
      </trkpt>
      <trkpt lat="47.13906" lon="6.00531">
        <ele>431.7</ele>
        <time>2022-08-10T06:32:33Z</time>
      </trkpt>
      <trkpt lat="47.13906" lon="6.00531">
        <ele>431.7</ele>
        <time>2022-08-10T06:32:34Z</time>
      </trkpt>
      <trkpt lat="47.13906" lon="6.00531">
        <ele>431.7</ele>
        <time>2022-08-10T06:32:35Z</time>
      </trkpt>
      <trkpt lat="47.13906" lon="6.00531">
        <ele>431.7</ele>
        <time>2022-08-10T06:32:36Z</time>
      </trkpt>
      <trkpt lat="47.13906" lon="6.00531">
        <ele>431.7</ele>
        <time>2022-08-10T06:32:37Z</time>
      </trkpt>
      <trkpt lat="47.13906" lon="6.00531">
        <ele>431.7</ele>
        <time>2022-08-10T06:32:38Z</time>
      </trkpt>
      <trkpt lat="47.13906" lon="6.00531">
        <ele>431.7</ele>
        <time>2022-08-10T06:32:39Z</time>
      </trkpt>
      <trkpt lat="47.13906" lon="6.00531">
        <ele>431.7</ele>
        <time>2022-08-10T06:32:40Z</time>
      </trkpt>
      <trkpt lat="47.13912" lon="6.00542">
        <ele>430.1</ele>
        <time>2022-08-10T06:32:41Z</time>
      </trkpt>
      <trkpt lat="47.13912" lon="6.00543">
        <ele>430</ele>
        <time>2022-08-10T06:32:42Z</time>
      </trkpt>
      <trkpt lat="47.13912" lon="6.00544">
        <ele>429.8</ele>
        <time>2022-08-10T06:32:43Z</time>
      </trkpt>
      <trkpt lat="47.13913" lon="6.00544">
        <ele>429.9</ele>
        <time>2022-08-10T06:32:44Z</time>
      </trkpt>
      <trkpt lat="47.13913" lon="6.00544">
        <ele>429.9</ele>
        <time>2022-08-10T06:32:45Z</time>
      </trkpt>
      <trkpt lat="47.13913" lon="6.00544">
        <ele>429.9</ele>
        <time>2022-08-10T06:32:46Z</time>
      </trkpt>
      <trkpt lat="47.13913" lon="6.00544">
        <ele>429.9</ele>
        <time>2022-08-10T06:32:47Z</time>
      </trkpt>
      <trkpt lat="47.13913" lon="6.00544">
        <ele>429.9</ele>
        <time>2022-08-10T06:32:48Z</time>
      </trkpt>
      <trkpt lat="47.13913" lon="6.00544">
        <ele>429.9</ele>
        <time>2022-08-10T06:32:49Z</time>
      </trkpt>
      <trkpt lat="47.13913" lon="6.00544">
        <ele>429.9</ele>
        <time>2022-08-10T06:32:50Z</time>
      </trkpt>
      <trkpt lat="47.13913" lon="6.00544">
        <ele>429.9</ele>
        <time>2022-08-10T06:32:51Z</time>
      </trkpt>
      <trkpt lat="47.13913" lon="6.00544">
        <ele>429.9</ele>
        <time>2022-08-10T06:32:52Z</time>
      </trkpt>
      <trkpt lat="47.13913" lon="6.00544">
        <ele>429.9</ele>
        <time>2022-08-10T06:32:53Z</time>
      </trkpt>
      <trkpt lat="47.13913" lon="6.00544">
        <ele>429.9</ele>
        <time>2022-08-10T06:32:54Z</time>
      </trkpt>
      <trkpt lat="47.13913" lon="6.00544">
        <ele>429.9</ele>
        <time>2022-08-10T06:32:55Z</time>
      </trkpt>
      <trkpt lat="47.13913" lon="6.00544">
        <ele>429.9</ele>
        <time>2022-08-10T06:32:56Z</time>
      </trkpt>
      <trkpt lat="47.13913" lon="6.00544">
        <ele>429.9</ele>
        <time>2022-08-10T06:32:57Z</time>
      </trkpt>
      <trkpt lat="47.13913" lon="6.00544">
        <ele>429.9</ele>
        <time>2022-08-10T06:32:58Z</time>
      </trkpt>
      <trkpt lat="47.13917" lon="6.00542">
        <ele>430.6</ele>
        <time>2022-08-10T06:32:59Z</time>
      </trkpt>
      <trkpt lat="47.13918" lon="6.00541">
        <ele>430.7</ele>
        <time>2022-08-10T06:33:00Z</time>
      </trkpt>
      <trkpt lat="47.13919" lon="6.00542">
        <ele>430.9</ele>
        <time>2022-08-10T06:33:01Z</time>
      </trkpt>
      <trkpt lat="47.13921" lon="6.00542">
        <ele>431</ele>
        <time>2022-08-10T06:33:02Z</time>
      </trkpt>
      <trkpt lat="47.13923" lon="6.00544">
        <ele>431.5</ele>
        <time>2022-08-10T06:33:03Z</time>
      </trkpt>
      <trkpt lat="47.13926" lon="6.00546">
        <ele>431.9</ele>
        <time>2022-08-10T06:33:04Z</time>
      </trkpt>
      <trkpt lat="47.13928" lon="6.00548">
        <ele>432.2</ele>
        <time>2022-08-10T06:33:05Z</time>
      </trkpt>
      <trkpt lat="47.13932" lon="6.0055">
        <ele>432.8</ele>
        <time>2022-08-10T06:33:06Z</time>
      </trkpt>
      <trkpt lat="47.13935" lon="6.00552">
        <ele>433.3</ele>
        <time>2022-08-10T06:33:07Z</time>
      </trkpt>
      <trkpt lat="47.13939" lon="6.00554">
        <ele>433.6</ele>
        <time>2022-08-10T06:33:08Z</time>
      </trkpt>
      <trkpt lat="47.13942" lon="6.00556">
        <ele>434</ele>
        <time>2022-08-10T06:33:09Z</time>
      </trkpt>
      <trkpt lat="47.13945" lon="6.00558">
        <ele>434.5</ele>
        <time>2022-08-10T06:33:10Z</time>
      </trkpt>
      <trkpt lat="47.13949" lon="6.0056">
        <ele>435</ele>
        <time>2022-08-10T06:33:11Z</time>
      </trkpt>
      <trkpt lat="47.13952" lon="6.00563">
        <ele>435.3</ele>
        <time>2022-08-10T06:33:12Z</time>
      </trkpt>
      <trkpt lat="47.13956" lon="6.00564">
        <ele>435.7</ele>
        <time>2022-08-10T06:33:13Z</time>
      </trkpt>
      <trkpt lat="47.1396" lon="6.00565">
        <ele>435.8</ele>
        <time>2022-08-10T06:33:14Z</time>
      </trkpt>
      <trkpt lat="47.13963" lon="6.00567">
        <ele>436.3</ele>
        <time>2022-08-10T06:33:15Z</time>
      </trkpt>
      <trkpt lat="47.13967" lon="6.00568">
        <ele>436.8</ele>
        <time>2022-08-10T06:33:16Z</time>
      </trkpt>
      <trkpt lat="47.1397" lon="6.0057">
        <ele>437.3</ele>
        <time>2022-08-10T06:33:17Z</time>
      </trkpt>
      <trkpt lat="47.13974" lon="6.0057">
        <ele>437.9</ele>
        <time>2022-08-10T06:33:18Z</time>
      </trkpt>
      <trkpt lat="47.13978" lon="6.00569">
        <ele>438.2</ele>
        <time>2022-08-10T06:33:19Z</time>
      </trkpt>
      <trkpt lat="47.13981" lon="6.00568">
        <ele>438.5</ele>
        <time>2022-08-10T06:33:20Z</time>
      </trkpt>
      <trkpt lat="47.13984" lon="6.00567">
        <ele>438.8</ele>
        <time>2022-08-10T06:33:21Z</time>
      </trkpt>
      <trkpt lat="47.13987" lon="6.00565">
        <ele>439.4</ele>
        <time>2022-08-10T06:33:22Z</time>
      </trkpt>
      <trkpt lat="47.13991" lon="6.00564">
        <ele>439.2</ele>
        <time>2022-08-10T06:33:23Z</time>
      </trkpt>
      <trkpt lat="47.13995" lon="6.00564">
        <ele>439.2</ele>
        <time>2022-08-10T06:33:24Z</time>
      </trkpt>
      <trkpt lat="47.13999" lon="6.00563">
        <ele>439.1</ele>
        <time>2022-08-10T06:33:25Z</time>
      </trkpt>
      <trkpt lat="47.14003" lon="6.00564">
        <ele>439</ele>
        <time>2022-08-10T06:33:26Z</time>
      </trkpt>
      <trkpt lat="47.14007" lon="6.00564">
        <ele>438.9</ele>
        <time>2022-08-10T06:33:27Z</time>
      </trkpt>
      <trkpt lat="47.1401" lon="6.00565">
        <ele>438.5</ele>
        <time>2022-08-10T06:33:28Z</time>
      </trkpt>
      <trkpt lat="47.14013" lon="6.00566">
        <ele>438.6</ele>
        <time>2022-08-10T06:33:29Z</time>
      </trkpt>
      <trkpt lat="47.14016" lon="6.00568">
        <ele>438.4</ele>
        <time>2022-08-10T06:33:30Z</time>
      </trkpt>
      <trkpt lat="47.1402" lon="6.0057">
        <ele>437.9</ele>
        <time>2022-08-10T06:33:31Z</time>
      </trkpt>
      <trkpt lat="47.14023" lon="6.00572">
        <ele>437.5</ele>
        <time>2022-08-10T06:33:32Z</time>
      </trkpt>
      <trkpt lat="47.14026" lon="6.00575">
        <ele>437.2</ele>
        <time>2022-08-10T06:33:33Z</time>
      </trkpt>
      <trkpt lat="47.14029" lon="6.00579">
        <ele>436.6</ele>
        <time>2022-08-10T06:33:34Z</time>
      </trkpt>
      <trkpt lat="47.14031" lon="6.00582">
        <ele>436</ele>
        <time>2022-08-10T06:33:35Z</time>
      </trkpt>
      <trkpt lat="47.14034" lon="6.00585">
        <ele>436.1</ele>
        <time>2022-08-10T06:33:36Z</time>
      </trkpt>
      <trkpt lat="47.14036" lon="6.00588">
        <ele>436</ele>
        <time>2022-08-10T06:33:37Z</time>
      </trkpt>
      <trkpt lat="47.14038" lon="6.00591">
        <ele>436.1</ele>
        <time>2022-08-10T06:33:38Z</time>
      </trkpt>
      <trkpt lat="47.14041" lon="6.00594">
        <ele>436.1</ele>
        <time>2022-08-10T06:33:39Z</time>
      </trkpt>
      <trkpt lat="47.14044" lon="6.00596">
        <ele>435.9</ele>
        <time>2022-08-10T06:33:40Z</time>
      </trkpt>
      <trkpt lat="47.14047" lon="6.00598">
        <ele>435.7</ele>
        <time>2022-08-10T06:33:41Z</time>
      </trkpt>
      <trkpt lat="47.1405" lon="6.00601">
        <ele>435.1</ele>
        <time>2022-08-10T06:33:42Z</time>
      </trkpt>
      <trkpt lat="47.14054" lon="6.00602">
        <ele>434.4</ele>
        <time>2022-08-10T06:33:43Z</time>
      </trkpt>
      <trkpt lat="47.14058" lon="6.00603">
        <ele>433.8</ele>
        <time>2022-08-10T06:33:44Z</time>
      </trkpt>
      <trkpt lat="47.14061" lon="6.00604">
        <ele>433.4</ele>
        <time>2022-08-10T06:33:45Z</time>
      </trkpt>
      <trkpt lat="47.14065" lon="6.00604">
        <ele>432.7</ele>
        <time>2022-08-10T06:33:46Z</time>
      </trkpt>
      <trkpt lat="47.14068" lon="6.00603">
        <ele>432.6</ele>
        <time>2022-08-10T06:33:47Z</time>
      </trkpt>
      <trkpt lat="47.14072" lon="6.00603">
        <ele>432.8</ele>
        <time>2022-08-10T06:33:48Z</time>
      </trkpt>
      <trkpt lat="47.14076" lon="6.00603">
        <ele>432.7</ele>
        <time>2022-08-10T06:33:49Z</time>
      </trkpt>
      <trkpt lat="47.14079" lon="6.00604">
        <ele>432.7</ele>
        <time>2022-08-10T06:33:50Z</time>
      </trkpt>
      <trkpt lat="47.14083" lon="6.00605">
        <ele>432.5</ele>
        <time>2022-08-10T06:33:51Z</time>
      </trkpt>
      <trkpt lat="47.14086" lon="6.00607">
        <ele>432.6</ele>
        <time>2022-08-10T06:33:52Z</time>
      </trkpt>
      <trkpt lat="47.1409" lon="6.0061">
        <ele>432.8</ele>
        <time>2022-08-10T06:33:53Z</time>
      </trkpt>
      <trkpt lat="47.14093" lon="6.00612">
        <ele>432.9</ele>
        <time>2022-08-10T06:33:54Z</time>
      </trkpt>
      <trkpt lat="47.14098" lon="6.00617">
        <ele>432.6</ele>
        <time>2022-08-10T06:33:55Z</time>
      </trkpt>
      <trkpt lat="47.141" lon="6.00621">
        <ele>432.8</ele>
        <time>2022-08-10T06:33:56Z</time>
      </trkpt>
      <trkpt lat="47.14103" lon="6.00625">
        <ele>433.2</ele>
        <time>2022-08-10T06:33:57Z</time>
      </trkpt>
      <trkpt lat="47.14106" lon="6.00631">
        <ele>433.4</ele>
        <time>2022-08-10T06:33:58Z</time>
      </trkpt>
      <trkpt lat="47.14108" lon="6.00635">
        <ele>433.7</ele>
        <time>2022-08-10T06:33:59Z</time>
      </trkpt>
      <trkpt lat="47.1411" lon="6.0064">
        <ele>434.1</ele>
        <time>2022-08-10T06:34:00Z</time>
      </trkpt>
      <trkpt lat="47.14112" lon="6.00644">
        <ele>434.7</ele>
        <time>2022-08-10T06:34:01Z</time>
      </trkpt>
      <trkpt lat="47.14113" lon="6.00648">
        <ele>435.6</ele>
        <time>2022-08-10T06:34:02Z</time>
      </trkpt>
      <trkpt lat="47.14114" lon="6.00653">
        <ele>436.5</ele>
        <time>2022-08-10T06:34:03Z</time>
      </trkpt>
      <trkpt lat="47.14116" lon="6.00658">
        <ele>437.6</ele>
        <time>2022-08-10T06:34:04Z</time>
      </trkpt>
      <trkpt lat="47.14116" lon="6.00663">
        <ele>438.5</ele>
        <time>2022-08-10T06:34:05Z</time>
      </trkpt>
      <trkpt lat="47.14116" lon="6.00667">
        <ele>439.8</ele>
        <time>2022-08-10T06:34:06Z</time>
      </trkpt>
      <trkpt lat="47.14116" lon="6.00672">
        <ele>440.1</ele>
        <time>2022-08-10T06:34:07Z</time>
      </trkpt>
      <trkpt lat="47.14116" lon="6.00676">
        <ele>440.7</ele>
        <time>2022-08-10T06:34:08Z</time>
      </trkpt>
      <trkpt lat="47.14115" lon="6.00681">
        <ele>441.1</ele>
        <time>2022-08-10T06:34:09Z</time>
      </trkpt>
      <trkpt lat="47.14114" lon="6.00686">
        <ele>441.2</ele>
        <time>2022-08-10T06:34:10Z</time>
      </trkpt>
      <trkpt lat="47.14112" lon="6.00691">
        <ele>441.2</ele>
        <time>2022-08-10T06:34:11Z</time>
      </trkpt>
      <trkpt lat="47.1411" lon="6.00694">
        <ele>440.9</ele>
        <time>2022-08-10T06:34:12Z</time>
      </trkpt>
      <trkpt lat="47.14106" lon="6.00696">
        <ele>440.3</ele>
        <time>2022-08-10T06:34:13Z</time>
      </trkpt>
      <trkpt lat="47.14102" lon="6.00697">
        <ele>439.6</ele>
        <time>2022-08-10T06:34:14Z</time>
      </trkpt>
      <trkpt lat="47.14099" lon="6.00698">
        <ele>439.4</ele>
        <time>2022-08-10T06:34:15Z</time>
      </trkpt>
      <trkpt lat="47.14095" lon="6.007">
        <ele>439.1</ele>
        <time>2022-08-10T06:34:16Z</time>
      </trkpt>
      <trkpt lat="47.14092" lon="6.00701">
        <ele>438.7</ele>
        <time>2022-08-10T06:34:17Z</time>
      </trkpt>
      <trkpt lat="47.14088" lon="6.00704">
        <ele>438.5</ele>
        <time>2022-08-10T06:34:18Z</time>
      </trkpt>
      <trkpt lat="47.14085" lon="6.00706">
        <ele>438</ele>
        <time>2022-08-10T06:34:19Z</time>
      </trkpt>
      <trkpt lat="47.14081" lon="6.00708">
        <ele>437.7</ele>
        <time>2022-08-10T06:34:20Z</time>
      </trkpt>
      <trkpt lat="47.14077" lon="6.0071">
        <ele>437.1</ele>
        <time>2022-08-10T06:34:21Z</time>
      </trkpt>
      <trkpt lat="47.14073" lon="6.00712">
        <ele>436.9</ele>
        <time>2022-08-10T06:34:22Z</time>
      </trkpt>
      <trkpt lat="47.1407" lon="6.00714">
        <ele>436.8</ele>
        <time>2022-08-10T06:34:23Z</time>
      </trkpt>
      <trkpt lat="47.14066" lon="6.00716">
        <ele>436.8</ele>
        <time>2022-08-10T06:34:24Z</time>
      </trkpt>
      <trkpt lat="47.14063" lon="6.00718">
        <ele>436.6</ele>
        <time>2022-08-10T06:34:25Z</time>
      </trkpt>
      <trkpt lat="47.1406" lon="6.0072">
        <ele>436.3</ele>
        <time>2022-08-10T06:34:26Z</time>
      </trkpt>
      <trkpt lat="47.14056" lon="6.00722">
        <ele>436</ele>
        <time>2022-08-10T06:34:27Z</time>
      </trkpt>
      <trkpt lat="47.14053" lon="6.00723">
        <ele>435.6</ele>
        <time>2022-08-10T06:34:28Z</time>
      </trkpt>
      <trkpt lat="47.14049" lon="6.00724">
        <ele>435.4</ele>
        <time>2022-08-10T06:34:29Z</time>
      </trkpt>
      <trkpt lat="47.14046" lon="6.00726">
        <ele>434.8</ele>
        <time>2022-08-10T06:34:30Z</time>
      </trkpt>
      <trkpt lat="47.14042" lon="6.00728">
        <ele>434.5</ele>
        <time>2022-08-10T06:34:31Z</time>
      </trkpt>
      <trkpt lat="47.14039" lon="6.0073">
        <ele>433.9</ele>
        <time>2022-08-10T06:34:32Z</time>
      </trkpt>
      <trkpt lat="47.14035" lon="6.00732">
        <ele>433.3</ele>
        <time>2022-08-10T06:34:33Z</time>
      </trkpt>
      <trkpt lat="47.14031" lon="6.00735">
        <ele>433</ele>
        <time>2022-08-10T06:34:34Z</time>
      </trkpt>
      <trkpt lat="47.14028" lon="6.00737">
        <ele>432.5</ele>
        <time>2022-08-10T06:34:35Z</time>
      </trkpt>
      <trkpt lat="47.14024" lon="6.0074">
        <ele>431.9</ele>
        <time>2022-08-10T06:34:36Z</time>
      </trkpt>
      <trkpt lat="47.14021" lon="6.00742">
        <ele>431.3</ele>
        <time>2022-08-10T06:34:37Z</time>
      </trkpt>
      <trkpt lat="47.14017" lon="6.00745">
        <ele>431.1</ele>
        <time>2022-08-10T06:34:38Z</time>
      </trkpt>
      <trkpt lat="47.14014" lon="6.00748">
        <ele>430.8</ele>
        <time>2022-08-10T06:34:39Z</time>
      </trkpt>
      <trkpt lat="47.1401" lon="6.0075">
        <ele>430.5</ele>
        <time>2022-08-10T06:34:40Z</time>
      </trkpt>
      <trkpt lat="47.14007" lon="6.00753">
        <ele>430.3</ele>
        <time>2022-08-10T06:34:41Z</time>
      </trkpt>
      <trkpt lat="47.14004" lon="6.00756">
        <ele>430.5</ele>
        <time>2022-08-10T06:34:42Z</time>
      </trkpt>
      <trkpt lat="47.14001" lon="6.00759">
        <ele>430.2</ele>
        <time>2022-08-10T06:34:43Z</time>
      </trkpt>
      <trkpt lat="47.13998" lon="6.00761">
        <ele>430.6</ele>
        <time>2022-08-10T06:34:44Z</time>
      </trkpt>
      <trkpt lat="47.13995" lon="6.00765">
        <ele>430.7</ele>
        <time>2022-08-10T06:34:45Z</time>
      </trkpt>
      <trkpt lat="47.13992" lon="6.00768">
        <ele>430.9</ele>
        <time>2022-08-10T06:34:46Z</time>
      </trkpt>
      <trkpt lat="47.13989" lon="6.00771">
        <ele>431.6</ele>
        <time>2022-08-10T06:34:47Z</time>
      </trkpt>
      <trkpt lat="47.13986" lon="6.00775">
        <ele>432</ele>
        <time>2022-08-10T06:34:48Z</time>
      </trkpt>
      <trkpt lat="47.13983" lon="6.00779">
        <ele>432.1</ele>
        <time>2022-08-10T06:34:49Z</time>
      </trkpt>
      <trkpt lat="47.13981" lon="6.00782">
        <ele>432.7</ele>
        <time>2022-08-10T06:34:50Z</time>
      </trkpt>
      <trkpt lat="47.13978" lon="6.00785">
        <ele>433.2</ele>
        <time>2022-08-10T06:34:51Z</time>
      </trkpt>
      <trkpt lat="47.13976" lon="6.00789">
        <ele>433.4</ele>
        <time>2022-08-10T06:34:52Z</time>
      </trkpt>
      <trkpt lat="47.13973" lon="6.00792">
        <ele>433.8</ele>
        <time>2022-08-10T06:34:53Z</time>
      </trkpt>
      <trkpt lat="47.13971" lon="6.00796">
        <ele>433.6</ele>
        <time>2022-08-10T06:34:54Z</time>
      </trkpt>
      <trkpt lat="47.13969" lon="6.008">
        <ele>433.9</ele>
        <time>2022-08-10T06:34:55Z</time>
      </trkpt>
      <trkpt lat="47.13966" lon="6.00803">
        <ele>434.4</ele>
        <time>2022-08-10T06:34:56Z</time>
      </trkpt>
      <trkpt lat="47.13963" lon="6.00807">
        <ele>435.1</ele>
        <time>2022-08-10T06:34:57Z</time>
      </trkpt>
      <trkpt lat="47.1396" lon="6.00811">
        <ele>435.5</ele>
        <time>2022-08-10T06:34:58Z</time>
      </trkpt>
      <trkpt lat="47.13957" lon="6.00815">
        <ele>435.3</ele>
        <time>2022-08-10T06:34:59Z</time>
      </trkpt>
      <trkpt lat="47.13954" lon="6.00819">
        <ele>435.1</ele>
        <time>2022-08-10T06:35:00Z</time>
      </trkpt>
      <trkpt lat="47.13951" lon="6.00822">
        <ele>435</ele>
        <time>2022-08-10T06:35:01Z</time>
      </trkpt>
      <trkpt lat="47.13948" lon="6.00826">
        <ele>434.6</ele>
        <time>2022-08-10T06:35:02Z</time>
      </trkpt>
      <trkpt lat="47.13946" lon="6.00831">
        <ele>434.1</ele>
        <time>2022-08-10T06:35:03Z</time>
      </trkpt>
      <trkpt lat="47.13946" lon="6.00835">
        <ele>434</ele>
        <time>2022-08-10T06:35:04Z</time>
      </trkpt>
      <trkpt lat="47.13947" lon="6.00838">
        <ele>435.2</ele>
        <time>2022-08-10T06:35:05Z</time>
      </trkpt>
      <trkpt lat="47.13949" lon="6.00842">
        <ele>435.8</ele>
        <time>2022-08-10T06:35:06Z</time>
      </trkpt>
      <trkpt lat="47.13951" lon="6.00844">
        <ele>436.5</ele>
        <time>2022-08-10T06:35:07Z</time>
      </trkpt>
      <trkpt lat="47.13953" lon="6.00846">
        <ele>437</ele>
        <time>2022-08-10T06:35:08Z</time>
      </trkpt>
      <trkpt lat="47.13956" lon="6.00849">
        <ele>437.6</ele>
        <time>2022-08-10T06:35:09Z</time>
      </trkpt>
      <trkpt lat="47.13959" lon="6.00852">
        <ele>438.4</ele>
        <time>2022-08-10T06:35:10Z</time>
      </trkpt>
      <trkpt lat="47.13961" lon="6.00854">
        <ele>439.4</ele>
        <time>2022-08-10T06:35:11Z</time>
      </trkpt>
      <trkpt lat="47.13963" lon="6.00857">
        <ele>440.5</ele>
        <time>2022-08-10T06:35:12Z</time>
      </trkpt>
      <trkpt lat="47.13965" lon="6.00861">
        <ele>441.8</ele>
        <time>2022-08-10T06:35:13Z</time>
      </trkpt>
      <trkpt lat="47.13967" lon="6.00864">
        <ele>442.2</ele>
        <time>2022-08-10T06:35:14Z</time>
      </trkpt>
      <trkpt lat="47.13968" lon="6.00867">
        <ele>443.4</ele>
        <time>2022-08-10T06:35:15Z</time>
      </trkpt>
      <trkpt lat="47.13968" lon="6.00871">
        <ele>443.7</ele>
        <time>2022-08-10T06:35:16Z</time>
      </trkpt>
      <trkpt lat="47.13969" lon="6.00875">
        <ele>443.5</ele>
        <time>2022-08-10T06:35:17Z</time>
      </trkpt>
      <trkpt lat="47.1397" lon="6.00878">
        <ele>443.7</ele>
        <time>2022-08-10T06:35:18Z</time>
      </trkpt>
      <trkpt lat="47.13971" lon="6.00881">
        <ele>443.9</ele>
        <time>2022-08-10T06:35:19Z</time>
      </trkpt>
      <trkpt lat="47.13973" lon="6.00884">
        <ele>444.4</ele>
        <time>2022-08-10T06:35:20Z</time>
      </trkpt>
      <trkpt lat="47.13975" lon="6.00887">
        <ele>444.6</ele>
        <time>2022-08-10T06:35:21Z</time>
      </trkpt>
      <trkpt lat="47.13978" lon="6.0089">
        <ele>444.7</ele>
        <time>2022-08-10T06:35:22Z</time>
      </trkpt>
      <trkpt lat="47.13982" lon="6.00895">
        <ele>444.9</ele>
        <time>2022-08-10T06:35:23Z</time>
      </trkpt>
      <trkpt lat="47.13986" lon="6.00898">
        <ele>445.5</ele>
        <time>2022-08-10T06:35:24Z</time>
      </trkpt>
      <trkpt lat="47.13989" lon="6.00901">
        <ele>445.9</ele>
        <time>2022-08-10T06:35:25Z</time>
      </trkpt>
      <trkpt lat="47.13992" lon="6.00904">
        <ele>446.1</ele>
        <time>2022-08-10T06:35:26Z</time>
      </trkpt>
      <trkpt lat="47.13994" lon="6.00906">
        <ele>446.2</ele>
        <time>2022-08-10T06:35:27Z</time>
      </trkpt>
      <trkpt lat="47.13996" lon="6.00908">
        <ele>446.3</ele>
        <time>2022-08-10T06:35:28Z</time>
      </trkpt>
      <trkpt lat="47.13997" lon="6.00909">
        <ele>446.6</ele>
        <time>2022-08-10T06:35:29Z</time>
      </trkpt>
      <trkpt lat="47.13998" lon="6.0091">
        <ele>446.9</ele>
        <time>2022-08-10T06:35:30Z</time>
      </trkpt>
      <trkpt lat="47.13999" lon="6.00911">
        <ele>447.4</ele>
        <time>2022-08-10T06:35:31Z</time>
      </trkpt>
      <trkpt lat="47.14" lon="6.00912">
        <ele>448</ele>
        <time>2022-08-10T06:35:32Z</time>
      </trkpt>
      <trkpt lat="47.14" lon="6.00912">
        <ele>448</ele>
        <time>2022-08-10T06:35:33Z</time>
      </trkpt>
      <trkpt lat="47.14" lon="6.00912">
        <ele>448</ele>
        <time>2022-08-10T06:35:34Z</time>
      </trkpt>
      <trkpt lat="47.14004" lon="6.00914">
        <ele>448.5</ele>
        <time>2022-08-10T06:35:35Z</time>
      </trkpt>
      <trkpt lat="47.14007" lon="6.00917">
        <ele>448.9</ele>
        <time>2022-08-10T06:35:36Z</time>
      </trkpt>
      <trkpt lat="47.14009" lon="6.00917">
        <ele>449.3</ele>
        <time>2022-08-10T06:35:37Z</time>
      </trkpt>
      <trkpt lat="47.14011" lon="6.00917">
        <ele>449.7</ele>
        <time>2022-08-10T06:35:38Z</time>
      </trkpt>
      <trkpt lat="47.14012" lon="6.00917">
        <ele>450.3</ele>
        <time>2022-08-10T06:35:39Z</time>
      </trkpt>
      <trkpt lat="47.14014" lon="6.00918">
        <ele>451.1</ele>
        <time>2022-08-10T06:35:40Z</time>
      </trkpt>
      <trkpt lat="47.14014" lon="6.00918">
        <ele>451.7</ele>
        <time>2022-08-10T06:35:41Z</time>
      </trkpt>
      <trkpt lat="47.14015" lon="6.00919">
        <ele>452.5</ele>
        <time>2022-08-10T06:35:42Z</time>
      </trkpt>
      <trkpt lat="47.14015" lon="6.00919">
        <ele>452.5</ele>
        <time>2022-08-10T06:35:43Z</time>
      </trkpt>
      <trkpt lat="47.14015" lon="6.00919">
        <ele>452.5</ele>
        <time>2022-08-10T06:35:44Z</time>
      </trkpt>
      <trkpt lat="47.14015" lon="6.00919">
        <ele>452.5</ele>
        <time>2022-08-10T06:35:45Z</time>
      </trkpt>
      <trkpt lat="47.1402" lon="6.00926">
        <ele>453.7</ele>
        <time>2022-08-10T06:35:46Z</time>
      </trkpt>
      <trkpt lat="47.14022" lon="6.00929">
        <ele>454.2</ele>
        <time>2022-08-10T06:35:47Z</time>
      </trkpt>
      <trkpt lat="47.14024" lon="6.00932">
        <ele>454.2</ele>
        <time>2022-08-10T06:35:48Z</time>
      </trkpt>
      <trkpt lat="47.14027" lon="6.00936">
        <ele>454.5</ele>
        <time>2022-08-10T06:35:49Z</time>
      </trkpt>
      <trkpt lat="47.14029" lon="6.00939">
        <ele>454.8</ele>
        <time>2022-08-10T06:35:50Z</time>
      </trkpt>
      <trkpt lat="47.14032" lon="6.00942">
        <ele>455.1</ele>
        <time>2022-08-10T06:35:51Z</time>
      </trkpt>
      <trkpt lat="47.14034" lon="6.00945">
        <ele>455.5</ele>
        <time>2022-08-10T06:35:52Z</time>
      </trkpt>
      <trkpt lat="47.14037" lon="6.00946">
        <ele>455.9</ele>
        <time>2022-08-10T06:35:53Z</time>
      </trkpt>
      <trkpt lat="47.14039" lon="6.00948">
        <ele>456.2</ele>
        <time>2022-08-10T06:35:54Z</time>
      </trkpt>
      <trkpt lat="47.14042" lon="6.0095">
        <ele>456.2</ele>
        <time>2022-08-10T06:35:55Z</time>
      </trkpt>
      <trkpt lat="47.14047" lon="6.00954">
        <ele>456.8</ele>
        <time>2022-08-10T06:35:56Z</time>
      </trkpt>
      <trkpt lat="47.14049" lon="6.00955">
        <ele>457.4</ele>
        <time>2022-08-10T06:35:57Z</time>
      </trkpt>
      <trkpt lat="47.14051" lon="6.00956">
        <ele>458.4</ele>
        <time>2022-08-10T06:35:58Z</time>
      </trkpt>
      <trkpt lat="47.14052" lon="6.00957">
        <ele>458.8</ele>
        <time>2022-08-10T06:35:59Z</time>
      </trkpt>
      <trkpt lat="47.14054" lon="6.00959">
        <ele>459.3</ele>
        <time>2022-08-10T06:36:00Z</time>
      </trkpt>
      <trkpt lat="47.14056" lon="6.00961">
        <ele>460</ele>
        <time>2022-08-10T06:36:01Z</time>
      </trkpt>
      <trkpt lat="47.14058" lon="6.00962">
        <ele>460.8</ele>
        <time>2022-08-10T06:36:02Z</time>
      </trkpt>
      <trkpt lat="47.14061" lon="6.00963">
        <ele>461.6</ele>
        <time>2022-08-10T06:36:03Z</time>
      </trkpt>
      <trkpt lat="47.14063" lon="6.00964">
        <ele>462</ele>
        <time>2022-08-10T06:36:04Z</time>
      </trkpt>
      <trkpt lat="47.14066" lon="6.00964">
        <ele>462.8</ele>
        <time>2022-08-10T06:36:05Z</time>
      </trkpt>
      <trkpt lat="47.14068" lon="6.00964">
        <ele>463.4</ele>
        <time>2022-08-10T06:36:06Z</time>
      </trkpt>
      <trkpt lat="47.14071" lon="6.00964">
        <ele>463.7</ele>
        <time>2022-08-10T06:36:07Z</time>
      </trkpt>
      <trkpt lat="47.14073" lon="6.00964">
        <ele>464.2</ele>
        <time>2022-08-10T06:36:08Z</time>
      </trkpt>
      <trkpt lat="47.14075" lon="6.00963">
        <ele>464.4</ele>
        <time>2022-08-10T06:36:09Z</time>
      </trkpt>
      <trkpt lat="47.14078" lon="6.00962">
        <ele>464.7</ele>
        <time>2022-08-10T06:36:10Z</time>
      </trkpt>
      <trkpt lat="47.1408" lon="6.00961">
        <ele>464.9</ele>
        <time>2022-08-10T06:36:11Z</time>
      </trkpt>
      <trkpt lat="47.14083" lon="6.00959">
        <ele>464.8</ele>
        <time>2022-08-10T06:36:12Z</time>
      </trkpt>
      <trkpt lat="47.14087" lon="6.00958">
        <ele>464.4</ele>
        <time>2022-08-10T06:36:13Z</time>
      </trkpt>
      <trkpt lat="47.1409" lon="6.00958">
        <ele>463.8</ele>
        <time>2022-08-10T06:36:14Z</time>
      </trkpt>
      <trkpt lat="47.14093" lon="6.00959">
        <ele>463.2</ele>
        <time>2022-08-10T06:36:15Z</time>
      </trkpt>
      <trkpt lat="47.14096" lon="6.00961">
        <ele>462.6</ele>
        <time>2022-08-10T06:36:16Z</time>
      </trkpt>
      <trkpt lat="47.14098" lon="6.00963">
        <ele>461.9</ele>
        <time>2022-08-10T06:36:17Z</time>
      </trkpt>
      <trkpt lat="47.14101" lon="6.00966">
        <ele>461.4</ele>
        <time>2022-08-10T06:36:18Z</time>
      </trkpt>
      <trkpt lat="47.14103" lon="6.00969">
        <ele>460.5</ele>
        <time>2022-08-10T06:36:19Z</time>
      </trkpt>
      <trkpt lat="47.14106" lon="6.00972">
        <ele>460</ele>
        <time>2022-08-10T06:36:20Z</time>
      </trkpt>
      <trkpt lat="47.14108" lon="6.00975">
        <ele>459.3</ele>
        <time>2022-08-10T06:36:21Z</time>
      </trkpt>
      <trkpt lat="47.14111" lon="6.00978">
        <ele>458.4</ele>
        <time>2022-08-10T06:36:22Z</time>
      </trkpt>
      <trkpt lat="47.14114" lon="6.00981">
        <ele>457.5</ele>
        <time>2022-08-10T06:36:23Z</time>
      </trkpt>
      <trkpt lat="47.14116" lon="6.00984">
        <ele>456.8</ele>
        <time>2022-08-10T06:36:24Z</time>
      </trkpt>
      <trkpt lat="47.14119" lon="6.00987">
        <ele>456.2</ele>
        <time>2022-08-10T06:36:25Z</time>
      </trkpt>
      <trkpt lat="47.14121" lon="6.0099">
        <ele>455.8</ele>
        <time>2022-08-10T06:36:26Z</time>
      </trkpt>
      <trkpt lat="47.14124" lon="6.00993">
        <ele>455.1</ele>
        <time>2022-08-10T06:36:27Z</time>
      </trkpt>
      <trkpt lat="47.14126" lon="6.00996">
        <ele>454</ele>
        <time>2022-08-10T06:36:28Z</time>
      </trkpt>
      <trkpt lat="47.14129" lon="6.01">
        <ele>453.4</ele>
        <time>2022-08-10T06:36:29Z</time>
      </trkpt>
      <trkpt lat="47.1413" lon="6.01005">
        <ele>452.8</ele>
        <time>2022-08-10T06:36:30Z</time>
      </trkpt>
      <trkpt lat="47.14132" lon="6.01009">
        <ele>452.5</ele>
        <time>2022-08-10T06:36:31Z</time>
      </trkpt>
      <trkpt lat="47.14133" lon="6.01013">
        <ele>451.9</ele>
        <time>2022-08-10T06:36:32Z</time>
      </trkpt>
      <trkpt lat="47.14134" lon="6.01017">
        <ele>451.4</ele>
        <time>2022-08-10T06:36:33Z</time>
      </trkpt>
      <trkpt lat="47.14135" lon="6.01021">
        <ele>450.5</ele>
        <time>2022-08-10T06:36:34Z</time>
      </trkpt>
      <trkpt lat="47.14136" lon="6.01025">
        <ele>450</ele>
        <time>2022-08-10T06:36:35Z</time>
      </trkpt>
      <trkpt lat="47.14136" lon="6.01029">
        <ele>449.6</ele>
        <time>2022-08-10T06:36:36Z</time>
      </trkpt>
      <trkpt lat="47.14136" lon="6.01032">
        <ele>449.5</ele>
        <time>2022-08-10T06:36:37Z</time>
      </trkpt>
      <trkpt lat="47.14137" lon="6.01035">
        <ele>449.5</ele>
        <time>2022-08-10T06:36:38Z</time>
      </trkpt>
      <trkpt lat="47.14138" lon="6.01038">
        <ele>449.8</ele>
        <time>2022-08-10T06:36:39Z</time>
      </trkpt>
      <trkpt lat="47.14139" lon="6.01041">
        <ele>450.2</ele>
        <time>2022-08-10T06:36:40Z</time>
      </trkpt>
      <trkpt lat="47.1414" lon="6.01045">
        <ele>450.4</ele>
        <time>2022-08-10T06:36:41Z</time>
      </trkpt>
      <trkpt lat="47.14141" lon="6.01048">
        <ele>450.7</ele>
        <time>2022-08-10T06:36:42Z</time>
      </trkpt>
      <trkpt lat="47.14143" lon="6.01052">
        <ele>450.7</ele>
        <time>2022-08-10T06:36:43Z</time>
      </trkpt>
      <trkpt lat="47.14144" lon="6.01056">
        <ele>451.1</ele>
        <time>2022-08-10T06:36:44Z</time>
      </trkpt>
      <trkpt lat="47.14144" lon="6.01061">
        <ele>451</ele>
        <time>2022-08-10T06:36:45Z</time>
      </trkpt>
      <trkpt lat="47.14146" lon="6.01065">
        <ele>451.8</ele>
        <time>2022-08-10T06:36:46Z</time>
      </trkpt>
      <trkpt lat="47.14147" lon="6.01069">
        <ele>452</ele>
        <time>2022-08-10T06:36:47Z</time>
      </trkpt>
      <trkpt lat="47.14148" lon="6.01073">
        <ele>452</ele>
        <time>2022-08-10T06:36:48Z</time>
      </trkpt>
      <trkpt lat="47.14149" lon="6.01077">
        <ele>452</ele>
        <time>2022-08-10T06:36:49Z</time>
      </trkpt>
      <trkpt lat="47.14151" lon="6.01083">
        <ele>452.4</ele>
        <time>2022-08-10T06:36:50Z</time>
      </trkpt>
      <trkpt lat="47.14152" lon="6.01089">
        <ele>452.5</ele>
        <time>2022-08-10T06:36:51Z</time>
      </trkpt>
      <trkpt lat="47.14153" lon="6.01093">
        <ele>453.3</ele>
        <time>2022-08-10T06:36:52Z</time>
      </trkpt>
      <trkpt lat="47.14153" lon="6.01098">
        <ele>453.4</ele>
        <time>2022-08-10T06:36:53Z</time>
      </trkpt>
      <trkpt lat="47.14154" lon="6.01102">
        <ele>454</ele>
        <time>2022-08-10T06:36:54Z</time>
      </trkpt>
      <trkpt lat="47.14155" lon="6.01107">
        <ele>454.7</ele>
        <time>2022-08-10T06:36:55Z</time>
      </trkpt>
      <trkpt lat="47.14156" lon="6.01112">
        <ele>455.1</ele>
        <time>2022-08-10T06:36:56Z</time>
      </trkpt>
      <trkpt lat="47.14157" lon="6.01117">
        <ele>455.6</ele>
        <time>2022-08-10T06:36:57Z</time>
      </trkpt>
      <trkpt lat="47.14157" lon="6.0112">
        <ele>455.9</ele>
        <time>2022-08-10T06:36:58Z</time>
      </trkpt>
      <trkpt lat="47.14157" lon="6.01124">
        <ele>456.4</ele>
        <time>2022-08-10T06:36:59Z</time>
      </trkpt>
      <trkpt lat="47.14157" lon="6.01129">
        <ele>456.8</ele>
        <time>2022-08-10T06:37:00Z</time>
      </trkpt>
      <trkpt lat="47.14156" lon="6.01134">
        <ele>457.2</ele>
        <time>2022-08-10T06:37:01Z</time>
      </trkpt>
      <trkpt lat="47.14155" lon="6.01141">
        <ele>456.9</ele>
        <time>2022-08-10T06:37:02Z</time>
      </trkpt>
      <trkpt lat="47.14154" lon="6.01146">
        <ele>456.8</ele>
        <time>2022-08-10T06:37:03Z</time>
      </trkpt>
      <trkpt lat="47.14154" lon="6.01152">
        <ele>456.9</ele>
        <time>2022-08-10T06:37:04Z</time>
      </trkpt>
      <trkpt lat="47.14153" lon="6.01158">
        <ele>456.2</ele>
        <time>2022-08-10T06:37:05Z</time>
      </trkpt>
      <trkpt lat="47.14153" lon="6.01164">
        <ele>455.8</ele>
        <time>2022-08-10T06:37:06Z</time>
      </trkpt>
      <trkpt lat="47.14154" lon="6.01168">
        <ele>455.1</ele>
        <time>2022-08-10T06:37:07Z</time>
      </trkpt>
      <trkpt lat="47.14156" lon="6.01172">
        <ele>454.6</ele>
        <time>2022-08-10T06:37:08Z</time>
      </trkpt>
      <trkpt lat="47.14158" lon="6.01176">
        <ele>454.8</ele>
        <time>2022-08-10T06:37:09Z</time>
      </trkpt>
      <trkpt lat="47.1416" lon="6.01181">
        <ele>453.8</ele>
        <time>2022-08-10T06:37:10Z</time>
      </trkpt>
      <trkpt lat="47.14162" lon="6.01184">
        <ele>453.4</ele>
        <time>2022-08-10T06:37:11Z</time>
      </trkpt>
      <trkpt lat="47.14163" lon="6.01188">
        <ele>454.1</ele>
        <time>2022-08-10T06:37:12Z</time>
      </trkpt>
      <trkpt lat="47.14165" lon="6.01191">
        <ele>454</ele>
        <time>2022-08-10T06:37:13Z</time>
      </trkpt>
      <trkpt lat="47.14166" lon="6.01194">
        <ele>454.4</ele>
        <time>2022-08-10T06:37:14Z</time>
      </trkpt>
      <trkpt lat="47.14167" lon="6.01197">
        <ele>454.8</ele>
        <time>2022-08-10T06:37:15Z</time>
      </trkpt>
      <trkpt lat="47.14168" lon="6.012">
        <ele>455.1</ele>
        <time>2022-08-10T06:37:16Z</time>
      </trkpt>
      <trkpt lat="47.1417" lon="6.01203">
        <ele>455.5</ele>
        <time>2022-08-10T06:37:17Z</time>
      </trkpt>
      <trkpt lat="47.14171" lon="6.01207">
        <ele>455.6</ele>
        <time>2022-08-10T06:37:18Z</time>
      </trkpt>
      <trkpt lat="47.14172" lon="6.0121">
        <ele>456</ele>
        <time>2022-08-10T06:37:19Z</time>
      </trkpt>
      <trkpt lat="47.14173" lon="6.01213">
        <ele>456.2</ele>
        <time>2022-08-10T06:37:20Z</time>
      </trkpt>
      <trkpt lat="47.14176" lon="6.01217">
        <ele>456.8</ele>
        <time>2022-08-10T06:37:21Z</time>
      </trkpt>
      <trkpt lat="47.14178" lon="6.01221">
        <ele>457.2</ele>
        <time>2022-08-10T06:37:22Z</time>
      </trkpt>
      <trkpt lat="47.14179" lon="6.01223">
        <ele>457.5</ele>
        <time>2022-08-10T06:37:23Z</time>
      </trkpt>
      <trkpt lat="47.14181" lon="6.01225">
        <ele>458.2</ele>
        <time>2022-08-10T06:37:24Z</time>
      </trkpt>
      <trkpt lat="47.14184" lon="6.01229">
        <ele>459</ele>
        <time>2022-08-10T06:37:25Z</time>
      </trkpt>
      <trkpt lat="47.14185" lon="6.01232">
        <ele>459.5</ele>
        <time>2022-08-10T06:37:26Z</time>
      </trkpt>
      <trkpt lat="47.14187" lon="6.01235">
        <ele>460.4</ele>
        <time>2022-08-10T06:37:27Z</time>
      </trkpt>
      <trkpt lat="47.14189" lon="6.01238">
        <ele>461</ele>
        <time>2022-08-10T06:37:28Z</time>
      </trkpt>
      <trkpt lat="47.14191" lon="6.01242">
        <ele>461.3</ele>
        <time>2022-08-10T06:37:29Z</time>
      </trkpt>
      <trkpt lat="47.14193" lon="6.01247">
        <ele>461.8</ele>
        <time>2022-08-10T06:37:30Z</time>
      </trkpt>
      <trkpt lat="47.14195" lon="6.01252">
        <ele>462.2</ele>
        <time>2022-08-10T06:37:31Z</time>
      </trkpt>
      <trkpt lat="47.14197" lon="6.01257">
        <ele>462.4</ele>
        <time>2022-08-10T06:37:32Z</time>
      </trkpt>
      <trkpt lat="47.14198" lon="6.01262">
        <ele>462.7</ele>
        <time>2022-08-10T06:37:33Z</time>
      </trkpt>
      <trkpt lat="47.142" lon="6.01266">
        <ele>463</ele>
        <time>2022-08-10T06:37:34Z</time>
      </trkpt>
      <trkpt lat="47.14201" lon="6.0127">
        <ele>463.3</ele>
        <time>2022-08-10T06:37:35Z</time>
      </trkpt>
      <trkpt lat="47.14202" lon="6.01273">
        <ele>463.4</ele>
        <time>2022-08-10T06:37:36Z</time>
      </trkpt>
      <trkpt lat="47.14203" lon="6.01277">
        <ele>463.5</ele>
        <time>2022-08-10T06:37:37Z</time>
      </trkpt>
      <trkpt lat="47.14204" lon="6.01281">
        <ele>463.7</ele>
        <time>2022-08-10T06:37:38Z</time>
      </trkpt>
      <trkpt lat="47.14206" lon="6.01286">
        <ele>463.4</ele>
        <time>2022-08-10T06:37:39Z</time>
      </trkpt>
      <trkpt lat="47.14207" lon="6.01291">
        <ele>463</ele>
        <time>2022-08-10T06:37:40Z</time>
      </trkpt>
      <trkpt lat="47.14209" lon="6.01296">
        <ele>462.7</ele>
        <time>2022-08-10T06:37:41Z</time>
      </trkpt>
      <trkpt lat="47.1421" lon="6.01301">
        <ele>462.6</ele>
        <time>2022-08-10T06:37:42Z</time>
      </trkpt>
      <trkpt lat="47.14212" lon="6.01307">
        <ele>462.7</ele>
        <time>2022-08-10T06:37:43Z</time>
      </trkpt>
      <trkpt lat="47.14214" lon="6.01312">
        <ele>462.4</ele>
        <time>2022-08-10T06:37:44Z</time>
      </trkpt>
      <trkpt lat="47.14216" lon="6.01317">
        <ele>461.9</ele>
        <time>2022-08-10T06:37:45Z</time>
      </trkpt>
      <trkpt lat="47.14218" lon="6.01321">
        <ele>461.7</ele>
        <time>2022-08-10T06:37:46Z</time>
      </trkpt>
      <trkpt lat="47.14219" lon="6.01326">
        <ele>461.7</ele>
        <time>2022-08-10T06:37:47Z</time>
      </trkpt>
      <trkpt lat="47.1422" lon="6.01331">
        <ele>461.4</ele>
        <time>2022-08-10T06:37:48Z</time>
      </trkpt>
      <trkpt lat="47.14222" lon="6.01339">
        <ele>461.3</ele>
        <time>2022-08-10T06:37:49Z</time>
      </trkpt>
      <trkpt lat="47.14222" lon="6.01344">
        <ele>461.4</ele>
        <time>2022-08-10T06:37:50Z</time>
      </trkpt>
      <trkpt lat="47.14221" lon="6.01349">
        <ele>461.8</ele>
        <time>2022-08-10T06:37:51Z</time>
      </trkpt>
      <trkpt lat="47.1422" lon="6.01353">
        <ele>462.1</ele>
        <time>2022-08-10T06:37:52Z</time>
      </trkpt>
      <trkpt lat="47.1422" lon="6.01357">
        <ele>462.3</ele>
        <time>2022-08-10T06:37:53Z</time>
      </trkpt>
      <trkpt lat="47.14219" lon="6.01363">
        <ele>462.1</ele>
        <time>2022-08-10T06:37:54Z</time>
      </trkpt>
      <trkpt lat="47.14219" lon="6.0137">
        <ele>462</ele>
        <time>2022-08-10T06:37:55Z</time>
      </trkpt>
      <trkpt lat="47.1422" lon="6.01375">
        <ele>462</ele>
        <time>2022-08-10T06:37:56Z</time>
      </trkpt>
      <trkpt lat="47.14219" lon="6.01381">
        <ele>461.5</ele>
        <time>2022-08-10T06:37:57Z</time>
      </trkpt>
      <trkpt lat="47.14219" lon="6.01388">
        <ele>460.9</ele>
        <time>2022-08-10T06:37:58Z</time>
      </trkpt>
      <trkpt lat="47.14218" lon="6.01394">
        <ele>460.6</ele>
        <time>2022-08-10T06:37:59Z</time>
      </trkpt>
      <trkpt lat="47.14217" lon="6.014">
        <ele>460.1</ele>
        <time>2022-08-10T06:38:00Z</time>
      </trkpt>
      <trkpt lat="47.14216" lon="6.01406">
        <ele>459.6</ele>
        <time>2022-08-10T06:38:01Z</time>
      </trkpt>
      <trkpt lat="47.14215" lon="6.01412">
        <ele>459.5</ele>
        <time>2022-08-10T06:38:02Z</time>
      </trkpt>
      <trkpt lat="47.14213" lon="6.01418">
        <ele>459</ele>
        <time>2022-08-10T06:38:03Z</time>
      </trkpt>
      <trkpt lat="47.14212" lon="6.01424">
        <ele>458.6</ele>
        <time>2022-08-10T06:38:04Z</time>
      </trkpt>
      <trkpt lat="47.14212" lon="6.0143">
        <ele>458</ele>
        <time>2022-08-10T06:38:05Z</time>
      </trkpt>
      <trkpt lat="47.14212" lon="6.01435">
        <ele>457.5</ele>
        <time>2022-08-10T06:38:06Z</time>
      </trkpt>
      <trkpt lat="47.14212" lon="6.01439">
        <ele>456.7</ele>
        <time>2022-08-10T06:38:07Z</time>
      </trkpt>
      <trkpt lat="47.14213" lon="6.01443">
        <ele>456.2</ele>
        <time>2022-08-10T06:38:08Z</time>
      </trkpt>
      <trkpt lat="47.14214" lon="6.01446">
        <ele>456.1</ele>
        <time>2022-08-10T06:38:09Z</time>
      </trkpt>
      <trkpt lat="47.14215" lon="6.0145">
        <ele>456.2</ele>
        <time>2022-08-10T06:38:10Z</time>
      </trkpt>
      <trkpt lat="47.14217" lon="6.01453">
        <ele>456.1</ele>
        <time>2022-08-10T06:38:11Z</time>
      </trkpt>
      <trkpt lat="47.1422" lon="6.01457">
        <ele>456.2</ele>
        <time>2022-08-10T06:38:12Z</time>
      </trkpt>
      <trkpt lat="47.14222" lon="6.01462">
        <ele>456.6</ele>
        <time>2022-08-10T06:38:13Z</time>
      </trkpt>
      <trkpt lat="47.14224" lon="6.01467">
        <ele>456.5</ele>
        <time>2022-08-10T06:38:14Z</time>
      </trkpt>
      <trkpt lat="47.14225" lon="6.01471">
        <ele>456.7</ele>
        <time>2022-08-10T06:38:15Z</time>
      </trkpt>
      <trkpt lat="47.14226" lon="6.01475">
        <ele>456.5</ele>
        <time>2022-08-10T06:38:16Z</time>
      </trkpt>
      <trkpt lat="47.14226" lon="6.0148">
        <ele>456.1</ele>
        <time>2022-08-10T06:38:17Z</time>
      </trkpt>
      <trkpt lat="47.14227" lon="6.01483">
        <ele>456.3</ele>
        <time>2022-08-10T06:38:18Z</time>
      </trkpt>
      <trkpt lat="47.14227" lon="6.01488">
        <ele>456.4</ele>
        <time>2022-08-10T06:38:19Z</time>
      </trkpt>
      <trkpt lat="47.14227" lon="6.01493">
        <ele>456.6</ele>
        <time>2022-08-10T06:38:20Z</time>
      </trkpt>
      <trkpt lat="47.14227" lon="6.01499">
        <ele>457.6</ele>
        <time>2022-08-10T06:38:21Z</time>
      </trkpt>
      <trkpt lat="47.14226" lon="6.01504">
        <ele>457.5</ele>
        <time>2022-08-10T06:38:22Z</time>
      </trkpt>
      <trkpt lat="47.14227" lon="6.01511">
        <ele>457.2</ele>
        <time>2022-08-10T06:38:23Z</time>
      </trkpt>
      <trkpt lat="47.14227" lon="6.01517">
        <ele>456.3</ele>
        <time>2022-08-10T06:38:24Z</time>
      </trkpt>
      <trkpt lat="47.14228" lon="6.01524">
        <ele>455.4</ele>
        <time>2022-08-10T06:38:25Z</time>
      </trkpt>
      <trkpt lat="47.14228" lon="6.01531">
        <ele>454.5</ele>
        <time>2022-08-10T06:38:26Z</time>
      </trkpt>
      <trkpt lat="47.14229" lon="6.01538">
        <ele>453.4</ele>
        <time>2022-08-10T06:38:27Z</time>
      </trkpt>
      <trkpt lat="47.14229" lon="6.01546">
        <ele>452.3</ele>
        <time>2022-08-10T06:38:28Z</time>
      </trkpt>
      <trkpt lat="47.1423" lon="6.01553">
        <ele>451.8</ele>
        <time>2022-08-10T06:38:29Z</time>
      </trkpt>
      <trkpt lat="47.1423" lon="6.01561">
        <ele>451.1</ele>
        <time>2022-08-10T06:38:30Z</time>
      </trkpt>
      <trkpt lat="47.1423" lon="6.01569">
        <ele>450</ele>
        <time>2022-08-10T06:38:31Z</time>
      </trkpt>
      <trkpt lat="47.14231" lon="6.01576">
        <ele>448.8</ele>
        <time>2022-08-10T06:38:32Z</time>
      </trkpt>
      <trkpt lat="47.14231" lon="6.01583">
        <ele>447.6</ele>
        <time>2022-08-10T06:38:33Z</time>
      </trkpt>
      <trkpt lat="47.14232" lon="6.01591">
        <ele>446.8</ele>
        <time>2022-08-10T06:38:34Z</time>
      </trkpt>
      <trkpt lat="47.14231" lon="6.01597">
        <ele>445.7</ele>
        <time>2022-08-10T06:38:35Z</time>
      </trkpt>
      <trkpt lat="47.14231" lon="6.01604">
        <ele>445</ele>
        <time>2022-08-10T06:38:36Z</time>
      </trkpt>
      <trkpt lat="47.14231" lon="6.0161">
        <ele>444.5</ele>
        <time>2022-08-10T06:38:37Z</time>
      </trkpt>
      <trkpt lat="47.14231" lon="6.01617">
        <ele>443.9</ele>
        <time>2022-08-10T06:38:38Z</time>
      </trkpt>
      <trkpt lat="47.1423" lon="6.01623">
        <ele>442.8</ele>
        <time>2022-08-10T06:38:39Z</time>
      </trkpt>
      <trkpt lat="47.1423" lon="6.01629">
        <ele>442.2</ele>
        <time>2022-08-10T06:38:40Z</time>
      </trkpt>
      <trkpt lat="47.14229" lon="6.01635">
        <ele>441.5</ele>
        <time>2022-08-10T06:38:41Z</time>
      </trkpt>
      <trkpt lat="47.14229" lon="6.01641">
        <ele>440.8</ele>
        <time>2022-08-10T06:38:42Z</time>
      </trkpt>
      <trkpt lat="47.14228" lon="6.01648">
        <ele>440.3</ele>
        <time>2022-08-10T06:38:43Z</time>
      </trkpt>
      <trkpt lat="47.14228" lon="6.01653">
        <ele>439.6</ele>
        <time>2022-08-10T06:38:44Z</time>
      </trkpt>
      <trkpt lat="47.14228" lon="6.01659">
        <ele>439</ele>
        <time>2022-08-10T06:38:45Z</time>
      </trkpt>
      <trkpt lat="47.14228" lon="6.01665">
        <ele>438.8</ele>
        <time>2022-08-10T06:38:46Z</time>
      </trkpt>
      <trkpt lat="47.14228" lon="6.01671">
        <ele>438.6</ele>
        <time>2022-08-10T06:38:47Z</time>
      </trkpt>
      <trkpt lat="47.14228" lon="6.01677">
        <ele>438.1</ele>
        <time>2022-08-10T06:38:48Z</time>
      </trkpt>
      <trkpt lat="47.14228" lon="6.01683">
        <ele>437.6</ele>
        <time>2022-08-10T06:38:49Z</time>
      </trkpt>
      <trkpt lat="47.14228" lon="6.01689">
        <ele>436.9</ele>
        <time>2022-08-10T06:38:50Z</time>
      </trkpt>
      <trkpt lat="47.14228" lon="6.01695">
        <ele>436.5</ele>
        <time>2022-08-10T06:38:51Z</time>
      </trkpt>
      <trkpt lat="47.14228" lon="6.01701">
        <ele>436.4</ele>
        <time>2022-08-10T06:38:52Z</time>
      </trkpt>
      <trkpt lat="47.14228" lon="6.01707">
        <ele>436.3</ele>
        <time>2022-08-10T06:38:53Z</time>
      </trkpt>
      <trkpt lat="47.14228" lon="6.01713">
        <ele>436.2</ele>
        <time>2022-08-10T06:38:54Z</time>
      </trkpt>
      <trkpt lat="47.14229" lon="6.01718">
        <ele>435.9</ele>
        <time>2022-08-10T06:38:55Z</time>
      </trkpt>
      <trkpt lat="47.14229" lon="6.01722">
        <ele>435.7</ele>
        <time>2022-08-10T06:38:56Z</time>
      </trkpt>
      <trkpt lat="47.1423" lon="6.01724">
        <ele>435.5</ele>
        <time>2022-08-10T06:38:57Z</time>
      </trkpt>
      <trkpt lat="47.14231" lon="6.01725">
        <ele>435.4</ele>
        <time>2022-08-10T06:38:58Z</time>
      </trkpt>
      <trkpt lat="47.1423" lon="6.01724">
        <ele>435.3</ele>
        <time>2022-08-10T06:38:59Z</time>
      </trkpt>
      <trkpt lat="47.14231" lon="6.01724">
        <ele>435.5</ele>
        <time>2022-08-10T06:39:00Z</time>
      </trkpt>
      <trkpt lat="47.14231" lon="6.01724">
        <ele>435.5</ele>
        <time>2022-08-10T06:39:01Z</time>
      </trkpt>
      <trkpt lat="47.14231" lon="6.01724">
        <ele>435.5</ele>
        <time>2022-08-10T06:39:02Z</time>
      </trkpt>
      <trkpt lat="47.14231" lon="6.01724">
        <ele>435.5</ele>
        <time>2022-08-10T06:39:03Z</time>
      </trkpt>
      <trkpt lat="47.14231" lon="6.01724">
        <ele>435.5</ele>
        <time>2022-08-10T06:39:04Z</time>
      </trkpt>
      <trkpt lat="47.14231" lon="6.01724">
        <ele>435.5</ele>
        <time>2022-08-10T06:39:05Z</time>
      </trkpt>
      <trkpt lat="47.14231" lon="6.01724">
        <ele>435.5</ele>
        <time>2022-08-10T06:39:06Z</time>
      </trkpt>
      <trkpt lat="47.14231" lon="6.01724">
        <ele>435.5</ele>
        <time>2022-08-10T06:39:07Z</time>
      </trkpt>
      <trkpt lat="47.14231" lon="6.01724">
        <ele>435.5</ele>
        <time>2022-08-10T06:39:08Z</time>
      </trkpt>
      <trkpt lat="47.14231" lon="6.01724">
        <ele>435.5</ele>
        <time>2022-08-10T06:39:09Z</time>
      </trkpt>
      <trkpt lat="47.14231" lon="6.01724">
        <ele>435.5</ele>
        <time>2022-08-10T06:39:10Z</time>
      </trkpt>
      <trkpt lat="47.14231" lon="6.01724">
        <ele>435.5</ele>
        <time>2022-08-10T06:39:11Z</time>
      </trkpt>
      <trkpt lat="47.14231" lon="6.01724">
        <ele>435.5</ele>
        <time>2022-08-10T06:39:12Z</time>
      </trkpt>
      <trkpt lat="47.14231" lon="6.01724">
        <ele>435.5</ele>
        <time>2022-08-10T06:39:13Z</time>
      </trkpt>
      <trkpt lat="47.14231" lon="6.01724">
        <ele>435.5</ele>
        <time>2022-08-10T06:39:14Z</time>
      </trkpt>
      <trkpt lat="47.14231" lon="6.01724">
        <ele>435.5</ele>
        <time>2022-08-10T06:39:15Z</time>
      </trkpt>
      <trkpt lat="47.14231" lon="6.01724">
        <ele>435.5</ele>
        <time>2022-08-10T06:39:16Z</time>
      </trkpt>
      <trkpt lat="47.14231" lon="6.01724">
        <ele>435.5</ele>
        <time>2022-08-10T06:39:17Z</time>
      </trkpt>
      <trkpt lat="47.14231" lon="6.01724">
        <ele>435.5</ele>
        <time>2022-08-10T06:39:18Z</time>
      </trkpt>
      <trkpt lat="47.14231" lon="6.01724">
        <ele>435.5</ele>
        <time>2022-08-10T06:39:19Z</time>
      </trkpt>
      <trkpt lat="47.14231" lon="6.01724">
        <ele>435.5</ele>
        <time>2022-08-10T06:39:20Z</time>
      </trkpt>
      <trkpt lat="47.14231" lon="6.01724">
        <ele>435.5</ele>
        <time>2022-08-10T06:39:21Z</time>
      </trkpt>
      <trkpt lat="47.14231" lon="6.01724">
        <ele>435.5</ele>
        <time>2022-08-10T06:39:22Z</time>
      </trkpt>
      <trkpt lat="47.14231" lon="6.01724">
        <ele>435.5</ele>
        <time>2022-08-10T06:39:23Z</time>
      </trkpt>
      <trkpt lat="47.14231" lon="6.01724">
        <ele>435.5</ele>
        <time>2022-08-10T06:39:24Z</time>
      </trkpt>
      <trkpt lat="47.14231" lon="6.01724">
        <ele>435.5</ele>
        <time>2022-08-10T06:39:25Z</time>
      </trkpt>
      <trkpt lat="47.14231" lon="6.01724">
        <ele>435.5</ele>
        <time>2022-08-10T06:39:26Z</time>
      </trkpt>
      <trkpt lat="47.14231" lon="6.01724">
        <ele>435.5</ele>
        <time>2022-08-10T06:39:27Z</time>
      </trkpt>
      <trkpt lat="47.14231" lon="6.01724">
        <ele>435.5</ele>
        <time>2022-08-10T06:39:28Z</time>
      </trkpt>
      <trkpt lat="47.14231" lon="6.01724">
        <ele>435.5</ele>
        <time>2022-08-10T06:39:29Z</time>
      </trkpt>
      <trkpt lat="47.14231" lon="6.01724">
        <ele>435.5</ele>
        <time>2022-08-10T06:39:30Z</time>
      </trkpt>
      <trkpt lat="47.14231" lon="6.01724">
        <ele>435.5</ele>
        <time>2022-08-10T06:39:31Z</time>
      </trkpt>
      <trkpt lat="47.14231" lon="6.01724">
        <ele>435.5</ele>
        <time>2022-08-10T06:39:32Z</time>
      </trkpt>
      <trkpt lat="47.14231" lon="6.01724">
        <ele>435.5</ele>
        <time>2022-08-10T06:39:33Z</time>
      </trkpt>
      <trkpt lat="47.14231" lon="6.01724">
        <ele>435.5</ele>
        <time>2022-08-10T06:39:34Z</time>
      </trkpt>
      <trkpt lat="47.14231" lon="6.01724">
        <ele>435.5</ele>
        <time>2022-08-10T06:39:35Z</time>
      </trkpt>
      <trkpt lat="47.14231" lon="6.01724">
        <ele>435.5</ele>
        <time>2022-08-10T06:39:36Z</time>
      </trkpt>
      <trkpt lat="47.14231" lon="6.01724">
        <ele>435.5</ele>
        <time>2022-08-10T06:39:37Z</time>
      </trkpt>
      <trkpt lat="47.14231" lon="6.01724">
        <ele>435.5</ele>
        <time>2022-08-10T06:39:38Z</time>
      </trkpt>
      <trkpt lat="47.14231" lon="6.01724">
        <ele>435.5</ele>
        <time>2022-08-10T06:39:39Z</time>
      </trkpt>
      <trkpt lat="47.14231" lon="6.01724">
        <ele>435.5</ele>
        <time>2022-08-10T06:39:40Z</time>
      </trkpt>
      <trkpt lat="47.14231" lon="6.01724">
        <ele>435.5</ele>
        <time>2022-08-10T06:39:41Z</time>
      </trkpt>
      <trkpt lat="47.14231" lon="6.01724">
        <ele>435.5</ele>
        <time>2022-08-10T06:39:42Z</time>
      </trkpt>
      <trkpt lat="47.14231" lon="6.01724">
        <ele>435.5</ele>
        <time>2022-08-10T06:39:43Z</time>
      </trkpt>
      <trkpt lat="47.14231" lon="6.01724">
        <ele>435.5</ele>
        <time>2022-08-10T06:39:44Z</time>
      </trkpt>
      <trkpt lat="47.14231" lon="6.01724">
        <ele>435.5</ele>
        <time>2022-08-10T06:39:45Z</time>
      </trkpt>
      <trkpt lat="47.14231" lon="6.01724">
        <ele>435.5</ele>
        <time>2022-08-10T06:39:46Z</time>
      </trkpt>
      <trkpt lat="47.14231" lon="6.01724">
        <ele>435.5</ele>
        <time>2022-08-10T06:39:47Z</time>
      </trkpt>
      <trkpt lat="47.14231" lon="6.01724">
        <ele>435.5</ele>
        <time>2022-08-10T06:39:48Z</time>
      </trkpt>
      <trkpt lat="47.14231" lon="6.01724">
        <ele>435.5</ele>
        <time>2022-08-10T06:39:49Z</time>
      </trkpt>
      <trkpt lat="47.14231" lon="6.01724">
        <ele>435.5</ele>
        <time>2022-08-10T06:39:50Z</time>
      </trkpt>
      <trkpt lat="47.14231" lon="6.01724">
        <ele>435.5</ele>
        <time>2022-08-10T06:39:51Z</time>
      </trkpt>
      <trkpt lat="47.14231" lon="6.01724">
        <ele>435.5</ele>
        <time>2022-08-10T06:39:52Z</time>
      </trkpt>
      <trkpt lat="47.14231" lon="6.01724">
        <ele>435.5</ele>
        <time>2022-08-10T06:39:53Z</time>
      </trkpt>
      <trkpt lat="47.14231" lon="6.01724">
        <ele>435.5</ele>
        <time>2022-08-10T06:39:54Z</time>
      </trkpt>
      <trkpt lat="47.14231" lon="6.01724">
        <ele>435.5</ele>
        <time>2022-08-10T06:39:55Z</time>
      </trkpt>
      <trkpt lat="47.14231" lon="6.01724">
        <ele>435.5</ele>
        <time>2022-08-10T06:39:56Z</time>
      </trkpt>
      <trkpt lat="47.14231" lon="6.01724">
        <ele>435.5</ele>
        <time>2022-08-10T06:39:57Z</time>
      </trkpt>
      <trkpt lat="47.14231" lon="6.01724">
        <ele>435.5</ele>
        <time>2022-08-10T06:39:58Z</time>
      </trkpt>
      <trkpt lat="47.14231" lon="6.01724">
        <ele>435.5</ele>
        <time>2022-08-10T06:39:59Z</time>
      </trkpt>
      <trkpt lat="47.14231" lon="6.01724">
        <ele>435.5</ele>
        <time>2022-08-10T06:40:00Z</time>
      </trkpt>
      <trkpt lat="47.14232" lon="6.01727">
        <ele>436.4</ele>
        <time>2022-08-10T06:40:01Z</time>
      </trkpt>
      <trkpt lat="47.14233" lon="6.01728">
        <ele>436.4</ele>
        <time>2022-08-10T06:40:02Z</time>
      </trkpt>
      <trkpt lat="47.14234" lon="6.01728">
        <ele>436.4</ele>
        <time>2022-08-10T06:40:03Z</time>
      </trkpt>
      <trkpt lat="47.14234" lon="6.01727">
        <ele>436.5</ele>
        <time>2022-08-10T06:40:04Z</time>
      </trkpt>
      <trkpt lat="47.14235" lon="6.01727">
        <ele>436.5</ele>
        <time>2022-08-10T06:40:05Z</time>
      </trkpt>
      <trkpt lat="47.14235" lon="6.01726">
        <ele>436.5</ele>
        <time>2022-08-10T06:40:06Z</time>
      </trkpt>
      <trkpt lat="47.14235" lon="6.01726">
        <ele>436.5</ele>
        <time>2022-08-10T06:40:07Z</time>
      </trkpt>
      <trkpt lat="47.14235" lon="6.01726">
        <ele>436.5</ele>
        <time>2022-08-10T06:40:08Z</time>
      </trkpt>
      <trkpt lat="47.14235" lon="6.01726">
        <ele>436.5</ele>
        <time>2022-08-10T06:40:09Z</time>
      </trkpt>
      <trkpt lat="47.14235" lon="6.01726">
        <ele>436.5</ele>
        <time>2022-08-10T06:40:10Z</time>
      </trkpt>
      <trkpt lat="47.14235" lon="6.01726">
        <ele>436.5</ele>
        <time>2022-08-10T06:40:11Z</time>
      </trkpt>
      <trkpt lat="47.14235" lon="6.01726">
        <ele>436.5</ele>
        <time>2022-08-10T06:40:12Z</time>
      </trkpt>
      <trkpt lat="47.14235" lon="6.01726">
        <ele>436.5</ele>
        <time>2022-08-10T06:40:13Z</time>
      </trkpt>
      <trkpt lat="47.14235" lon="6.01726">
        <ele>436.5</ele>
        <time>2022-08-10T06:40:14Z</time>
      </trkpt>
      <trkpt lat="47.14235" lon="6.01726">
        <ele>436.5</ele>
        <time>2022-08-10T06:40:15Z</time>
      </trkpt>
      <trkpt lat="47.14235" lon="6.01726">
        <ele>436.5</ele>
        <time>2022-08-10T06:40:16Z</time>
      </trkpt>
      <trkpt lat="47.14235" lon="6.01726">
        <ele>436.5</ele>
        <time>2022-08-10T06:40:17Z</time>
      </trkpt>
      <trkpt lat="47.14235" lon="6.01726">
        <ele>436.5</ele>
        <time>2022-08-10T06:40:18Z</time>
      </trkpt>
      <trkpt lat="47.14235" lon="6.01726">
        <ele>436.5</ele>
        <time>2022-08-10T06:40:19Z</time>
      </trkpt>
      <trkpt lat="47.14235" lon="6.01726">
        <ele>436.5</ele>
        <time>2022-08-10T06:40:20Z</time>
      </trkpt>
      <trkpt lat="47.14235" lon="6.01726">
        <ele>436.5</ele>
        <time>2022-08-10T06:40:21Z</time>
      </trkpt>
      <trkpt lat="47.14235" lon="6.01726">
        <ele>436.5</ele>
        <time>2022-08-10T06:40:22Z</time>
      </trkpt>
      <trkpt lat="47.14235" lon="6.01726">
        <ele>436.5</ele>
        <time>2022-08-10T06:40:23Z</time>
      </trkpt>
      <trkpt lat="47.14235" lon="6.01726">
        <ele>436.5</ele>
        <time>2022-08-10T06:40:24Z</time>
      </trkpt>
      <trkpt lat="47.14235" lon="6.01726">
        <ele>436.5</ele>
        <time>2022-08-10T06:40:25Z</time>
      </trkpt>
      <trkpt lat="47.14235" lon="6.01726">
        <ele>436.5</ele>
        <time>2022-08-10T06:40:26Z</time>
      </trkpt>
      <trkpt lat="47.14235" lon="6.01726">
        <ele>436.5</ele>
        <time>2022-08-10T06:40:27Z</time>
      </trkpt>
      <trkpt lat="47.14235" lon="6.01726">
        <ele>436.5</ele>
        <time>2022-08-10T06:40:28Z</time>
      </trkpt>
      <trkpt lat="47.14235" lon="6.01726">
        <ele>436.5</ele>
        <time>2022-08-10T06:40:29Z</time>
      </trkpt>
      <trkpt lat="47.14235" lon="6.01726">
        <ele>436.5</ele>
        <time>2022-08-10T06:40:30Z</time>
      </trkpt>
      <trkpt lat="47.14235" lon="6.01726">
        <ele>436.5</ele>
        <time>2022-08-10T06:40:31Z</time>
      </trkpt>
      <trkpt lat="47.14235" lon="6.01726">
        <ele>436.5</ele>
        <time>2022-08-10T06:40:32Z</time>
      </trkpt>
      <trkpt lat="47.14235" lon="6.01726">
        <ele>436.5</ele>
        <time>2022-08-10T06:40:33Z</time>
      </trkpt>
      <trkpt lat="47.14235" lon="6.01726">
        <ele>436.5</ele>
        <time>2022-08-10T06:40:34Z</time>
      </trkpt>
      <trkpt lat="47.14235" lon="6.01726">
        <ele>436.5</ele>
        <time>2022-08-10T06:40:35Z</time>
      </trkpt>
      <trkpt lat="47.14235" lon="6.01726">
        <ele>436.5</ele>
        <time>2022-08-10T06:40:36Z</time>
      </trkpt>
      <trkpt lat="47.14235" lon="6.01726">
        <ele>436.5</ele>
        <time>2022-08-10T06:40:37Z</time>
      </trkpt>
      <trkpt lat="47.14235" lon="6.01726">
        <ele>436.5</ele>
        <time>2022-08-10T06:40:38Z</time>
      </trkpt>
      <trkpt lat="47.14235" lon="6.01726">
        <ele>436.5</ele>
        <time>2022-08-10T06:40:39Z</time>
      </trkpt>
      <trkpt lat="47.14235" lon="6.01726">
        <ele>436.5</ele>
        <time>2022-08-10T06:40:40Z</time>
      </trkpt>
      <trkpt lat="47.14235" lon="6.01726">
        <ele>436.5</ele>
        <time>2022-08-10T06:40:41Z</time>
      </trkpt>
      <trkpt lat="47.14235" lon="6.01726">
        <ele>436.5</ele>
        <time>2022-08-10T06:40:42Z</time>
      </trkpt>
      <trkpt lat="47.14235" lon="6.01726">
        <ele>436.5</ele>
        <time>2022-08-10T06:40:43Z</time>
      </trkpt>
      <trkpt lat="47.14235" lon="6.01726">
        <ele>436.5</ele>
        <time>2022-08-10T06:40:44Z</time>
      </trkpt>
      <trkpt lat="47.14235" lon="6.01726">
        <ele>436.5</ele>
        <time>2022-08-10T06:40:45Z</time>
      </trkpt>
      <trkpt lat="47.14235" lon="6.01726">
        <ele>436.5</ele>
        <time>2022-08-10T06:40:46Z</time>
      </trkpt>
      <trkpt lat="47.14235" lon="6.01726">
        <ele>436.5</ele>
        <time>2022-08-10T06:40:47Z</time>
      </trkpt>
      <trkpt lat="47.14235" lon="6.01726">
        <ele>436.5</ele>
        <time>2022-08-10T06:40:48Z</time>
      </trkpt>
      <trkpt lat="47.14235" lon="6.01728">
        <ele>438</ele>
        <time>2022-08-10T06:40:49Z</time>
      </trkpt>
      <trkpt lat="47.14234" lon="6.01729">
        <ele>438.1</ele>
        <time>2022-08-10T06:40:50Z</time>
      </trkpt>
      <trkpt lat="47.14233" lon="6.01729">
        <ele>438.2</ele>
        <time>2022-08-10T06:40:51Z</time>
      </trkpt>
      <trkpt lat="47.14232" lon="6.0173">
        <ele>438.3</ele>
        <time>2022-08-10T06:40:52Z</time>
      </trkpt>
      <trkpt lat="47.14231" lon="6.01731">
        <ele>438.3</ele>
        <time>2022-08-10T06:40:53Z</time>
      </trkpt>
      <trkpt lat="47.1423" lon="6.01732">
        <ele>438.4</ele>
        <time>2022-08-10T06:40:54Z</time>
      </trkpt>
      <trkpt lat="47.14229" lon="6.01733">
        <ele>438.7</ele>
        <time>2022-08-10T06:40:55Z</time>
      </trkpt>
      <trkpt lat="47.14228" lon="6.01734">
        <ele>438.9</ele>
        <time>2022-08-10T06:40:56Z</time>
      </trkpt>
      <trkpt lat="47.14227" lon="6.01735">
        <ele>439.1</ele>
        <time>2022-08-10T06:40:57Z</time>
      </trkpt>
      <trkpt lat="47.14227" lon="6.01736">
        <ele>439.4</ele>
        <time>2022-08-10T06:40:58Z</time>
      </trkpt>
      <trkpt lat="47.14226" lon="6.01738">
        <ele>439.5</ele>
        <time>2022-08-10T06:40:59Z</time>
      </trkpt>
      <trkpt lat="47.14226" lon="6.01739">
        <ele>439.7</ele>
        <time>2022-08-10T06:41:00Z</time>
      </trkpt>
      <trkpt lat="47.14226" lon="6.0174">
        <ele>439.9</ele>
        <time>2022-08-10T06:41:01Z</time>
      </trkpt>
      <trkpt lat="47.14225" lon="6.0174">
        <ele>440.2</ele>
        <time>2022-08-10T06:41:02Z</time>
      </trkpt>
      <trkpt lat="47.14225" lon="6.0174">
        <ele>440.2</ele>
        <time>2022-08-10T06:41:03Z</time>
      </trkpt>
      <trkpt lat="47.14225" lon="6.0174">
        <ele>440.2</ele>
        <time>2022-08-10T06:41:04Z</time>
      </trkpt>
      <trkpt lat="47.14225" lon="6.0174">
        <ele>440.2</ele>
        <time>2022-08-10T06:41:05Z</time>
      </trkpt>
      <trkpt lat="47.14225" lon="6.0174">
        <ele>440.2</ele>
        <time>2022-08-10T06:41:06Z</time>
      </trkpt>
      <trkpt lat="47.14225" lon="6.0174">
        <ele>440.2</ele>
        <time>2022-08-10T06:41:07Z</time>
      </trkpt>
      <trkpt lat="47.14225" lon="6.0174">
        <ele>440.2</ele>
        <time>2022-08-10T06:41:08Z</time>
      </trkpt>
      <trkpt lat="47.14225" lon="6.0174">
        <ele>440.2</ele>
        <time>2022-08-10T06:41:09Z</time>
      </trkpt>
      <trkpt lat="47.14225" lon="6.0174">
        <ele>440.2</ele>
        <time>2022-08-10T06:41:10Z</time>
      </trkpt>
      <trkpt lat="47.14225" lon="6.0174">
        <ele>440.2</ele>
        <time>2022-08-10T06:41:11Z</time>
      </trkpt>
      <trkpt lat="47.14225" lon="6.0174">
        <ele>440.2</ele>
        <time>2022-08-10T06:41:12Z</time>
      </trkpt>
      <trkpt lat="47.14225" lon="6.0174">
        <ele>440.2</ele>
        <time>2022-08-10T06:41:13Z</time>
      </trkpt>
      <trkpt lat="47.1422" lon="6.01753">
        <ele>444.6</ele>
        <time>2022-08-10T06:41:14Z</time>
      </trkpt>
      <trkpt lat="47.1422" lon="6.01753">
        <ele>445</ele>
        <time>2022-08-10T06:41:15Z</time>
      </trkpt>
      <trkpt lat="47.1422" lon="6.01753">
        <ele>444.8</ele>
        <time>2022-08-10T06:41:16Z</time>
      </trkpt>
      <trkpt lat="47.1422" lon="6.01753">
        <ele>444.8</ele>
        <time>2022-08-10T06:41:17Z</time>
      </trkpt>
      <trkpt lat="47.1422" lon="6.01753">
        <ele>444.8</ele>
        <time>2022-08-10T06:41:18Z</time>
      </trkpt>
      <trkpt lat="47.1422" lon="6.01753">
        <ele>444.8</ele>
        <time>2022-08-10T06:41:19Z</time>
      </trkpt>
      <trkpt lat="47.1422" lon="6.01753">
        <ele>444.8</ele>
        <time>2022-08-10T06:41:20Z</time>
      </trkpt>
      <trkpt lat="47.1422" lon="6.01753">
        <ele>444.8</ele>
        <time>2022-08-10T06:41:21Z</time>
      </trkpt>
      <trkpt lat="47.1422" lon="6.01753">
        <ele>444.8</ele>
        <time>2022-08-10T06:41:22Z</time>
      </trkpt>
      <trkpt lat="47.1422" lon="6.01753">
        <ele>444.8</ele>
        <time>2022-08-10T06:41:23Z</time>
      </trkpt>
      <trkpt lat="47.1422" lon="6.01753">
        <ele>444.8</ele>
        <time>2022-08-10T06:41:24Z</time>
      </trkpt>
      <trkpt lat="47.1422" lon="6.01753">
        <ele>444.8</ele>
        <time>2022-08-10T06:41:25Z</time>
      </trkpt>
      <trkpt lat="47.1422" lon="6.01753">
        <ele>444.8</ele>
        <time>2022-08-10T06:41:26Z</time>
      </trkpt>
      <trkpt lat="47.1422" lon="6.01753">
        <ele>444.8</ele>
        <time>2022-08-10T06:41:27Z</time>
      </trkpt>
      <trkpt lat="47.1422" lon="6.01753">
        <ele>444.8</ele>
        <time>2022-08-10T06:41:28Z</time>
      </trkpt>
      <trkpt lat="47.1422" lon="6.01753">
        <ele>444.8</ele>
        <time>2022-08-10T06:41:29Z</time>
      </trkpt>
      <trkpt lat="47.1422" lon="6.01753">
        <ele>444.8</ele>
        <time>2022-08-10T06:41:30Z</time>
      </trkpt>
      <trkpt lat="47.1422" lon="6.01753">
        <ele>444.8</ele>
        <time>2022-08-10T06:41:31Z</time>
      </trkpt>
      <trkpt lat="47.1422" lon="6.01753">
        <ele>444.8</ele>
        <time>2022-08-10T06:41:32Z</time>
      </trkpt>
      <trkpt lat="47.14215" lon="6.01765">
        <ele>444.6</ele>
        <time>2022-08-10T06:41:33Z</time>
      </trkpt>
      <trkpt lat="47.14215" lon="6.01766">
        <ele>444.6</ele>
        <time>2022-08-10T06:41:34Z</time>
      </trkpt>
      <trkpt lat="47.14214" lon="6.01767">
        <ele>444.6</ele>
        <time>2022-08-10T06:41:35Z</time>
      </trkpt>
      <trkpt lat="47.14214" lon="6.01768">
        <ele>444.5</ele>
        <time>2022-08-10T06:41:36Z</time>
      </trkpt>
      <trkpt lat="47.14214" lon="6.01768">
        <ele>444.5</ele>
        <time>2022-08-10T06:41:37Z</time>
      </trkpt>
      <trkpt lat="47.14214" lon="6.01768">
        <ele>444.5</ele>
        <time>2022-08-10T06:41:38Z</time>
      </trkpt>
      <trkpt lat="47.14214" lon="6.01768">
        <ele>444.5</ele>
        <time>2022-08-10T06:41:39Z</time>
      </trkpt>
      <trkpt lat="47.14214" lon="6.01768">
        <ele>444.5</ele>
        <time>2022-08-10T06:41:40Z</time>
      </trkpt>
      <trkpt lat="47.14214" lon="6.01768">
        <ele>444.5</ele>
        <time>2022-08-10T06:41:41Z</time>
      </trkpt>
      <trkpt lat="47.14214" lon="6.01768">
        <ele>444.5</ele>
        <time>2022-08-10T06:41:42Z</time>
      </trkpt>
      <trkpt lat="47.14214" lon="6.01768">
        <ele>444.5</ele>
        <time>2022-08-10T06:41:43Z</time>
      </trkpt>
      <trkpt lat="47.14214" lon="6.01768">
        <ele>444.5</ele>
        <time>2022-08-10T06:41:44Z</time>
      </trkpt>
      <trkpt lat="47.14214" lon="6.01768">
        <ele>444.5</ele>
        <time>2022-08-10T06:41:45Z</time>
      </trkpt>
      <trkpt lat="47.14214" lon="6.01768">
        <ele>444.5</ele>
        <time>2022-08-10T06:41:46Z</time>
      </trkpt>
      <trkpt lat="47.14214" lon="6.01768">
        <ele>444.5</ele>
        <time>2022-08-10T06:41:47Z</time>
      </trkpt>
      <trkpt lat="47.14214" lon="6.01768">
        <ele>444.5</ele>
        <time>2022-08-10T06:41:48Z</time>
      </trkpt>
      <trkpt lat="47.14214" lon="6.01768">
        <ele>444.5</ele>
        <time>2022-08-10T06:41:49Z</time>
      </trkpt>
      <trkpt lat="47.14214" lon="6.01768">
        <ele>444.5</ele>
        <time>2022-08-10T06:41:50Z</time>
      </trkpt>
      <trkpt lat="47.14214" lon="6.01768">
        <ele>444.5</ele>
        <time>2022-08-10T06:41:51Z</time>
      </trkpt>
      <trkpt lat="47.14214" lon="6.01768">
        <ele>444.5</ele>
        <time>2022-08-10T06:41:52Z</time>
      </trkpt>
      <trkpt lat="47.14214" lon="6.01768">
        <ele>444.5</ele>
        <time>2022-08-10T06:41:53Z</time>
      </trkpt>
      <trkpt lat="47.14214" lon="6.01768">
        <ele>444.5</ele>
        <time>2022-08-10T06:41:54Z</time>
      </trkpt>
      <trkpt lat="47.14214" lon="6.01768">
        <ele>444.5</ele>
        <time>2022-08-10T06:41:55Z</time>
      </trkpt>
      <trkpt lat="47.14214" lon="6.01768">
        <ele>444.5</ele>
        <time>2022-08-10T06:41:56Z</time>
      </trkpt>
      <trkpt lat="47.14214" lon="6.01768">
        <ele>444.5</ele>
        <time>2022-08-10T06:41:57Z</time>
      </trkpt>
      <trkpt lat="47.14214" lon="6.01768">
        <ele>444.5</ele>
        <time>2022-08-10T06:41:58Z</time>
      </trkpt>
      <trkpt lat="47.14214" lon="6.01768">
        <ele>444.5</ele>
        <time>2022-08-10T06:41:59Z</time>
      </trkpt>
      <trkpt lat="47.14214" lon="6.01768">
        <ele>444.5</ele>
        <time>2022-08-10T06:42:00Z</time>
      </trkpt>
      <trkpt lat="47.14214" lon="6.01768">
        <ele>444.5</ele>
        <time>2022-08-10T06:42:01Z</time>
      </trkpt>
      <trkpt lat="47.14214" lon="6.01768">
        <ele>444.5</ele>
        <time>2022-08-10T06:42:02Z</time>
      </trkpt>
      <trkpt lat="47.14214" lon="6.01768">
        <ele>444.5</ele>
        <time>2022-08-10T06:42:03Z</time>
      </trkpt>
      <trkpt lat="47.14214" lon="6.01768">
        <ele>444.5</ele>
        <time>2022-08-10T06:42:04Z</time>
      </trkpt>
      <trkpt lat="47.14214" lon="6.01768">
        <ele>444.5</ele>
        <time>2022-08-10T06:42:05Z</time>
      </trkpt>
      <trkpt lat="47.14214" lon="6.01768">
        <ele>444.5</ele>
        <time>2022-08-10T06:42:06Z</time>
      </trkpt>
      <trkpt lat="47.14214" lon="6.01768">
        <ele>444.5</ele>
        <time>2022-08-10T06:42:07Z</time>
      </trkpt>
      <trkpt lat="47.14214" lon="6.01768">
        <ele>444.5</ele>
        <time>2022-08-10T06:42:08Z</time>
      </trkpt>
      <trkpt lat="47.14214" lon="6.01768">
        <ele>444.5</ele>
        <time>2022-08-10T06:42:09Z</time>
      </trkpt>
      <trkpt lat="47.14214" lon="6.01768">
        <ele>444.5</ele>
        <time>2022-08-10T06:42:10Z</time>
      </trkpt>
      <trkpt lat="47.14214" lon="6.01768">
        <ele>444.5</ele>
        <time>2022-08-10T06:42:11Z</time>
      </trkpt>
      <trkpt lat="47.14214" lon="6.01768">
        <ele>444.5</ele>
        <time>2022-08-10T06:42:12Z</time>
      </trkpt>
      <trkpt lat="47.14214" lon="6.01768">
        <ele>444.5</ele>
        <time>2022-08-10T06:42:13Z</time>
      </trkpt>
      <trkpt lat="47.14214" lon="6.01768">
        <ele>444.5</ele>
        <time>2022-08-10T06:42:14Z</time>
      </trkpt>
      <trkpt lat="47.14214" lon="6.01768">
        <ele>444.5</ele>
        <time>2022-08-10T06:42:15Z</time>
      </trkpt>
      <trkpt lat="47.14214" lon="6.01768">
        <ele>444.5</ele>
        <time>2022-08-10T06:42:16Z</time>
      </trkpt>
      <trkpt lat="47.14214" lon="6.01768">
        <ele>444.5</ele>
        <time>2022-08-10T06:42:17Z</time>
      </trkpt>
      <trkpt lat="47.14214" lon="6.01768">
        <ele>444.5</ele>
        <time>2022-08-10T06:42:18Z</time>
      </trkpt>
      <trkpt lat="47.14214" lon="6.01768">
        <ele>444.5</ele>
        <time>2022-08-10T06:42:19Z</time>
      </trkpt>
      <trkpt lat="47.14214" lon="6.01768">
        <ele>444.5</ele>
        <time>2022-08-10T06:42:20Z</time>
      </trkpt>
      <trkpt lat="47.14214" lon="6.01768">
        <ele>444.5</ele>
        <time>2022-08-10T06:42:21Z</time>
      </trkpt>
      <trkpt lat="47.14214" lon="6.01768">
        <ele>444.5</ele>
        <time>2022-08-10T06:42:22Z</time>
      </trkpt>
      <trkpt lat="47.14214" lon="6.01768">
        <ele>444.5</ele>
        <time>2022-08-10T06:42:23Z</time>
      </trkpt>
      <trkpt lat="47.14214" lon="6.01768">
        <ele>444.5</ele>
        <time>2022-08-10T06:42:24Z</time>
      </trkpt>
      <trkpt lat="47.14214" lon="6.01768">
        <ele>444.5</ele>
        <time>2022-08-10T06:42:25Z</time>
      </trkpt>
      <trkpt lat="47.14214" lon="6.01768">
        <ele>444.5</ele>
        <time>2022-08-10T06:42:26Z</time>
      </trkpt>
      <trkpt lat="47.14214" lon="6.01768">
        <ele>444.5</ele>
        <time>2022-08-10T06:42:27Z</time>
      </trkpt>
      <trkpt lat="47.14214" lon="6.01768">
        <ele>444.5</ele>
        <time>2022-08-10T06:42:28Z</time>
      </trkpt>
      <trkpt lat="47.14214" lon="6.01768">
        <ele>444.5</ele>
        <time>2022-08-10T06:42:29Z</time>
      </trkpt>
      <trkpt lat="47.14214" lon="6.01768">
        <ele>444.5</ele>
        <time>2022-08-10T06:42:30Z</time>
      </trkpt>
      <trkpt lat="47.14214" lon="6.01768">
        <ele>444.5</ele>
        <time>2022-08-10T06:42:31Z</time>
      </trkpt>
      <trkpt lat="47.14214" lon="6.01768">
        <ele>444.5</ele>
        <time>2022-08-10T06:42:32Z</time>
      </trkpt>
      <trkpt lat="47.14214" lon="6.01768">
        <ele>444.5</ele>
        <time>2022-08-10T06:42:33Z</time>
      </trkpt>
      <trkpt lat="47.14214" lon="6.01768">
        <ele>444.5</ele>
        <time>2022-08-10T06:42:34Z</time>
      </trkpt>
      <trkpt lat="47.14214" lon="6.01768">
        <ele>444.5</ele>
        <time>2022-08-10T06:42:35Z</time>
      </trkpt>
      <trkpt lat="47.14214" lon="6.01768">
        <ele>444.5</ele>
        <time>2022-08-10T06:42:36Z</time>
      </trkpt>
      <trkpt lat="47.14214" lon="6.01768">
        <ele>444.5</ele>
        <time>2022-08-10T06:42:37Z</time>
      </trkpt>
      <trkpt lat="47.14214" lon="6.01768">
        <ele>444.5</ele>
        <time>2022-08-10T06:42:38Z</time>
      </trkpt>
      <trkpt lat="47.14214" lon="6.01768">
        <ele>444.5</ele>
        <time>2022-08-10T06:42:39Z</time>
      </trkpt>
      <trkpt lat="47.14214" lon="6.01768">
        <ele>444.5</ele>
        <time>2022-08-10T06:42:40Z</time>
      </trkpt>
      <trkpt lat="47.14214" lon="6.01768">
        <ele>444.5</ele>
        <time>2022-08-10T06:42:41Z</time>
      </trkpt>
      <trkpt lat="47.14214" lon="6.01768">
        <ele>444.5</ele>
        <time>2022-08-10T06:42:42Z</time>
      </trkpt>
      <trkpt lat="47.14214" lon="6.01768">
        <ele>444.5</ele>
        <time>2022-08-10T06:42:43Z</time>
      </trkpt>
      <trkpt lat="47.14214" lon="6.01768">
        <ele>444.5</ele>
        <time>2022-08-10T06:42:44Z</time>
      </trkpt>
      <trkpt lat="47.14214" lon="6.01768">
        <ele>444.5</ele>
        <time>2022-08-10T06:42:45Z</time>
      </trkpt>
      <trkpt lat="47.14214" lon="6.01768">
        <ele>444.5</ele>
        <time>2022-08-10T06:42:46Z</time>
      </trkpt>
      <trkpt lat="47.14214" lon="6.01768">
        <ele>444.5</ele>
        <time>2022-08-10T06:42:47Z</time>
      </trkpt>
      <trkpt lat="47.14214" lon="6.01768">
        <ele>444.5</ele>
        <time>2022-08-10T06:42:48Z</time>
      </trkpt>
      <trkpt lat="47.14214" lon="6.01768">
        <ele>444.5</ele>
        <time>2022-08-10T06:42:49Z</time>
      </trkpt>
      <trkpt lat="47.14214" lon="6.01768">
        <ele>444.5</ele>
        <time>2022-08-10T06:42:50Z</time>
      </trkpt>
      <trkpt lat="47.14214" lon="6.01768">
        <ele>444.5</ele>
        <time>2022-08-10T06:42:51Z</time>
      </trkpt>
      <trkpt lat="47.14214" lon="6.01768">
        <ele>444.5</ele>
        <time>2022-08-10T06:42:52Z</time>
      </trkpt>
      <trkpt lat="47.14214" lon="6.01768">
        <ele>444.5</ele>
        <time>2022-08-10T06:42:53Z</time>
      </trkpt>
      <trkpt lat="47.14214" lon="6.01768">
        <ele>444.5</ele>
        <time>2022-08-10T06:42:54Z</time>
      </trkpt>
      <trkpt lat="47.1421" lon="6.01781">
        <ele>444</ele>
        <time>2022-08-10T06:42:55Z</time>
      </trkpt>
      <trkpt lat="47.1421" lon="6.01782">
        <ele>444.2</ele>
        <time>2022-08-10T06:42:56Z</time>
      </trkpt>
      <trkpt lat="47.14209" lon="6.01783">
        <ele>444.5</ele>
        <time>2022-08-10T06:42:57Z</time>
      </trkpt>
      <trkpt lat="47.14209" lon="6.01783">
        <ele>444.7</ele>
        <time>2022-08-10T06:42:58Z</time>
      </trkpt>
      <trkpt lat="47.14209" lon="6.01783">
        <ele>444.7</ele>
        <time>2022-08-10T06:42:59Z</time>
      </trkpt>
      <trkpt lat="47.14209" lon="6.01783">
        <ele>444.7</ele>
        <time>2022-08-10T06:43:00Z</time>
      </trkpt>
      <trkpt lat="47.14209" lon="6.01783">
        <ele>444.7</ele>
        <time>2022-08-10T06:43:01Z</time>
      </trkpt>
      <trkpt lat="47.14209" lon="6.01783">
        <ele>444.7</ele>
        <time>2022-08-10T06:43:02Z</time>
      </trkpt>
      <trkpt lat="47.14209" lon="6.01783">
        <ele>444.7</ele>
        <time>2022-08-10T06:43:03Z</time>
      </trkpt>
      <trkpt lat="47.14209" lon="6.01783">
        <ele>444.7</ele>
        <time>2022-08-10T06:43:04Z</time>
      </trkpt>
      <trkpt lat="47.14209" lon="6.01783">
        <ele>444.7</ele>
        <time>2022-08-10T06:43:05Z</time>
      </trkpt>
      <trkpt lat="47.14209" lon="6.01783">
        <ele>444.7</ele>
        <time>2022-08-10T06:43:06Z</time>
      </trkpt>
      <trkpt lat="47.14209" lon="6.01783">
        <ele>444.7</ele>
        <time>2022-08-10T06:43:07Z</time>
      </trkpt>
      <trkpt lat="47.14205" lon="6.01794">
        <ele>446.7</ele>
        <time>2022-08-10T06:43:08Z</time>
      </trkpt>
      <trkpt lat="47.14204" lon="6.01798">
        <ele>447.1</ele>
        <time>2022-08-10T06:43:09Z</time>
      </trkpt>
      <trkpt lat="47.14203" lon="6.01802">
        <ele>447.9</ele>
        <time>2022-08-10T06:43:10Z</time>
      </trkpt>
      <trkpt lat="47.14202" lon="6.01806">
        <ele>448.7</ele>
        <time>2022-08-10T06:43:11Z</time>
      </trkpt>
      <trkpt lat="47.14202" lon="6.01809">
        <ele>450</ele>
        <time>2022-08-10T06:43:12Z</time>
      </trkpt>
      <trkpt lat="47.14201" lon="6.01815">
        <ele>451.9</ele>
        <time>2022-08-10T06:43:13Z</time>
      </trkpt>
      <trkpt lat="47.14201" lon="6.0182">
        <ele>453.6</ele>
        <time>2022-08-10T06:43:14Z</time>
      </trkpt>
      <trkpt lat="47.14202" lon="6.01825">
        <ele>455.6</ele>
        <time>2022-08-10T06:43:15Z</time>
      </trkpt>
      <trkpt lat="47.14202" lon="6.01829">
        <ele>455.7</ele>
        <time>2022-08-10T06:43:16Z</time>
      </trkpt>
      <trkpt lat="47.14203" lon="6.01832">
        <ele>457.1</ele>
        <time>2022-08-10T06:43:17Z</time>
      </trkpt>
      <trkpt lat="47.14203" lon="6.01837">
        <ele>458.3</ele>
        <time>2022-08-10T06:43:18Z</time>
      </trkpt>
      <trkpt lat="47.14204" lon="6.01841">
        <ele>459.3</ele>
        <time>2022-08-10T06:43:19Z</time>
      </trkpt>
      <trkpt lat="47.14204" lon="6.01846">
        <ele>459.8</ele>
        <time>2022-08-10T06:43:20Z</time>
      </trkpt>
      <trkpt lat="47.14204" lon="6.01851">
        <ele>460.5</ele>
        <time>2022-08-10T06:43:21Z</time>
      </trkpt>
      <trkpt lat="47.14204" lon="6.01857">
        <ele>461.6</ele>
        <time>2022-08-10T06:43:22Z</time>
      </trkpt>
      <trkpt lat="47.14204" lon="6.01863">
        <ele>462.9</ele>
        <time>2022-08-10T06:43:23Z</time>
      </trkpt>
      <trkpt lat="47.14203" lon="6.0187">
        <ele>463.6</ele>
        <time>2022-08-10T06:43:24Z</time>
      </trkpt>
      <trkpt lat="47.14203" lon="6.01877">
        <ele>463.7</ele>
        <time>2022-08-10T06:43:25Z</time>
      </trkpt>
      <trkpt lat="47.14202" lon="6.01882">
        <ele>464</ele>
        <time>2022-08-10T06:43:26Z</time>
      </trkpt>
      <trkpt lat="47.14201" lon="6.01888">
        <ele>463.9</ele>
        <time>2022-08-10T06:43:27Z</time>
      </trkpt>
      <trkpt lat="47.142" lon="6.01892">
        <ele>463.6</ele>
        <time>2022-08-10T06:43:28Z</time>
      </trkpt>
      <trkpt lat="47.14199" lon="6.01897">
        <ele>463</ele>
        <time>2022-08-10T06:43:29Z</time>
      </trkpt>
      <trkpt lat="47.14199" lon="6.01901">
        <ele>462.2</ele>
        <time>2022-08-10T06:43:30Z</time>
      </trkpt>
      <trkpt lat="47.14199" lon="6.01905">
        <ele>461.5</ele>
        <time>2022-08-10T06:43:31Z</time>
      </trkpt>
      <trkpt lat="47.14199" lon="6.01909">
        <ele>460.9</ele>
        <time>2022-08-10T06:43:32Z</time>
      </trkpt>
      <trkpt lat="47.142" lon="6.01913">
        <ele>460.1</ele>
        <time>2022-08-10T06:43:33Z</time>
      </trkpt>
      <trkpt lat="47.142" lon="6.01917">
        <ele>459.8</ele>
        <time>2022-08-10T06:43:34Z</time>
      </trkpt>
      <trkpt lat="47.142" lon="6.01921">
        <ele>459.1</ele>
        <time>2022-08-10T06:43:35Z</time>
      </trkpt>
      <trkpt lat="47.14201" lon="6.01925">
        <ele>458.3</ele>
        <time>2022-08-10T06:43:36Z</time>
      </trkpt>
      <trkpt lat="47.14202" lon="6.01929">
        <ele>457.9</ele>
        <time>2022-08-10T06:43:37Z</time>
      </trkpt>
      <trkpt lat="47.14203" lon="6.01933">
        <ele>457.3</ele>
        <time>2022-08-10T06:43:38Z</time>
      </trkpt>
      <trkpt lat="47.14203" lon="6.01937">
        <ele>456.6</ele>
        <time>2022-08-10T06:43:39Z</time>
      </trkpt>
      <trkpt lat="47.14204" lon="6.01942">
        <ele>456.1</ele>
        <time>2022-08-10T06:43:40Z</time>
      </trkpt>
      <trkpt lat="47.14205" lon="6.01946">
        <ele>455.7</ele>
        <time>2022-08-10T06:43:41Z</time>
      </trkpt>
      <trkpt lat="47.14205" lon="6.0195">
        <ele>455</ele>
        <time>2022-08-10T06:43:42Z</time>
      </trkpt>
      <trkpt lat="47.14205" lon="6.01955">
        <ele>454.7</ele>
        <time>2022-08-10T06:43:43Z</time>
      </trkpt>
      <trkpt lat="47.14206" lon="6.01958">
        <ele>454.3</ele>
        <time>2022-08-10T06:43:44Z</time>
      </trkpt>
      <trkpt lat="47.14206" lon="6.01961">
        <ele>453.9</ele>
        <time>2022-08-10T06:43:45Z</time>
      </trkpt>
      <trkpt lat="47.14206" lon="6.01964">
        <ele>453.9</ele>
        <time>2022-08-10T06:43:46Z</time>
      </trkpt>
      <trkpt lat="47.14205" lon="6.01967">
        <ele>453.7</ele>
        <time>2022-08-10T06:43:47Z</time>
      </trkpt>
      <trkpt lat="47.14206" lon="6.0197">
        <ele>454</ele>
        <time>2022-08-10T06:43:48Z</time>
      </trkpt>
      <trkpt lat="47.14206" lon="6.01973">
        <ele>454.1</ele>
        <time>2022-08-10T06:43:49Z</time>
      </trkpt>
      <trkpt lat="47.14206" lon="6.01977">
        <ele>454.1</ele>
        <time>2022-08-10T06:43:50Z</time>
      </trkpt>
      <trkpt lat="47.14206" lon="6.01981">
        <ele>454.3</ele>
        <time>2022-08-10T06:43:51Z</time>
      </trkpt>
      <trkpt lat="47.14207" lon="6.01985">
        <ele>454.3</ele>
        <time>2022-08-10T06:43:52Z</time>
      </trkpt>
      <trkpt lat="47.14209" lon="6.01989">
        <ele>454.6</ele>
        <time>2022-08-10T06:43:53Z</time>
      </trkpt>
      <trkpt lat="47.1421" lon="6.01993">
        <ele>454.6</ele>
        <time>2022-08-10T06:43:54Z</time>
      </trkpt>
      <trkpt lat="47.14212" lon="6.01997">
        <ele>454.6</ele>
        <time>2022-08-10T06:43:55Z</time>
      </trkpt>
      <trkpt lat="47.14214" lon="6.02">
        <ele>454.6</ele>
        <time>2022-08-10T06:43:56Z</time>
      </trkpt>
      <trkpt lat="47.14216" lon="6.02004">
        <ele>454.6</ele>
        <time>2022-08-10T06:43:57Z</time>
      </trkpt>
      <trkpt lat="47.14218" lon="6.02007">
        <ele>454.9</ele>
        <time>2022-08-10T06:43:58Z</time>
      </trkpt>
      <trkpt lat="47.1422" lon="6.0201">
        <ele>455.1</ele>
        <time>2022-08-10T06:43:59Z</time>
      </trkpt>
      <trkpt lat="47.14221" lon="6.02013">
        <ele>455.3</ele>
        <time>2022-08-10T06:44:00Z</time>
      </trkpt>
      <trkpt lat="47.14221" lon="6.02016">
        <ele>455.5</ele>
        <time>2022-08-10T06:44:01Z</time>
      </trkpt>
      <trkpt lat="47.14222" lon="6.02018">
        <ele>455.7</ele>
        <time>2022-08-10T06:44:02Z</time>
      </trkpt>
      <trkpt lat="47.14223" lon="6.0202">
        <ele>455.8</ele>
        <time>2022-08-10T06:44:03Z</time>
      </trkpt>
      <trkpt lat="47.14223" lon="6.0202">
        <ele>455.8</ele>
        <time>2022-08-10T06:44:04Z</time>
      </trkpt>
      <trkpt lat="47.14223" lon="6.0202">
        <ele>455.8</ele>
        <time>2022-08-10T06:44:05Z</time>
      </trkpt>
      <trkpt lat="47.14223" lon="6.0202">
        <ele>455.8</ele>
        <time>2022-08-10T06:44:06Z</time>
      </trkpt>
      <trkpt lat="47.14223" lon="6.0202">
        <ele>455.8</ele>
        <time>2022-08-10T06:44:07Z</time>
      </trkpt>
      <trkpt lat="47.14223" lon="6.0202">
        <ele>455.8</ele>
        <time>2022-08-10T06:44:08Z</time>
      </trkpt>
      <trkpt lat="47.14227" lon="6.02031">
        <ele>458.9</ele>
        <time>2022-08-10T06:44:09Z</time>
      </trkpt>
      <trkpt lat="47.14228" lon="6.02036">
        <ele>459.2</ele>
        <time>2022-08-10T06:44:10Z</time>
      </trkpt>
      <trkpt lat="47.14228" lon="6.0204">
        <ele>460.3</ele>
        <time>2022-08-10T06:44:11Z</time>
      </trkpt>
      <trkpt lat="47.14228" lon="6.02045">
        <ele>461</ele>
        <time>2022-08-10T06:44:12Z</time>
      </trkpt>
      <trkpt lat="47.14228" lon="6.0205">
        <ele>461.9</ele>
        <time>2022-08-10T06:44:13Z</time>
      </trkpt>
      <trkpt lat="47.14229" lon="6.02054">
        <ele>462.6</ele>
        <time>2022-08-10T06:44:14Z</time>
      </trkpt>
      <trkpt lat="47.14229" lon="6.02059">
        <ele>463.1</ele>
        <time>2022-08-10T06:44:15Z</time>
      </trkpt>
      <trkpt lat="47.14229" lon="6.02063">
        <ele>463.5</ele>
        <time>2022-08-10T06:44:16Z</time>
      </trkpt>
      <trkpt lat="47.14229" lon="6.02067">
        <ele>464</ele>
        <time>2022-08-10T06:44:17Z</time>
      </trkpt>
      <trkpt lat="47.14229" lon="6.02071">
        <ele>464.6</ele>
        <time>2022-08-10T06:44:18Z</time>
      </trkpt>
      <trkpt lat="47.1423" lon="6.02075">
        <ele>465</ele>
        <time>2022-08-10T06:44:19Z</time>
      </trkpt>
      <trkpt lat="47.1423" lon="6.02079">
        <ele>465.6</ele>
        <time>2022-08-10T06:44:20Z</time>
      </trkpt>
      <trkpt lat="47.1423" lon="6.02083">
        <ele>466.1</ele>
        <time>2022-08-10T06:44:21Z</time>
      </trkpt>
      <trkpt lat="47.14231" lon="6.02086">
        <ele>466.5</ele>
        <time>2022-08-10T06:44:22Z</time>
      </trkpt>
      <trkpt lat="47.14231" lon="6.0209">
        <ele>467</ele>
        <time>2022-08-10T06:44:23Z</time>
      </trkpt>
      <trkpt lat="47.14231" lon="6.02095">
        <ele>467.2</ele>
        <time>2022-08-10T06:44:24Z</time>
      </trkpt>
      <trkpt lat="47.14232" lon="6.02099">
        <ele>467.3</ele>
        <time>2022-08-10T06:44:25Z</time>
      </trkpt>
      <trkpt lat="47.14234" lon="6.02102">
        <ele>467.2</ele>
        <time>2022-08-10T06:44:26Z</time>
      </trkpt>
      <trkpt lat="47.14235" lon="6.02106">
        <ele>467.2</ele>
        <time>2022-08-10T06:44:27Z</time>
      </trkpt>
      <trkpt lat="47.14236" lon="6.02111">
        <ele>467</ele>
        <time>2022-08-10T06:44:28Z</time>
      </trkpt>
      <trkpt lat="47.14236" lon="6.02115">
        <ele>467</ele>
        <time>2022-08-10T06:44:29Z</time>
      </trkpt>
      <trkpt lat="47.14237" lon="6.02123">
        <ele>467.6</ele>
        <time>2022-08-10T06:44:30Z</time>
      </trkpt>
      <trkpt lat="47.14239" lon="6.02132">
        <ele>468.6</ele>
        <time>2022-08-10T06:44:31Z</time>
      </trkpt>
      <trkpt lat="47.14241" lon="6.02139">
        <ele>469.3</ele>
        <time>2022-08-10T06:44:32Z</time>
      </trkpt>
      <trkpt lat="47.14241" lon="6.02145">
        <ele>469.8</ele>
        <time>2022-08-10T06:44:33Z</time>
      </trkpt>
      <trkpt lat="47.14242" lon="6.02149">
        <ele>470.1</ele>
        <time>2022-08-10T06:44:34Z</time>
      </trkpt>
      <trkpt lat="47.14243" lon="6.02154">
        <ele>470.6</ele>
        <time>2022-08-10T06:44:35Z</time>
      </trkpt>
      <trkpt lat="47.14244" lon="6.02158">
        <ele>471</ele>
        <time>2022-08-10T06:44:36Z</time>
      </trkpt>
      <trkpt lat="47.14243" lon="6.02161">
        <ele>471.3</ele>
        <time>2022-08-10T06:44:37Z</time>
      </trkpt>
      <trkpt lat="47.14243" lon="6.02165">
        <ele>471.6</ele>
        <time>2022-08-10T06:44:38Z</time>
      </trkpt>
      <trkpt lat="47.14242" lon="6.02169">
        <ele>471.7</ele>
        <time>2022-08-10T06:44:39Z</time>
      </trkpt>
      <trkpt lat="47.14242" lon="6.02172">
        <ele>471.7</ele>
        <time>2022-08-10T06:44:40Z</time>
      </trkpt>
      <trkpt lat="47.14241" lon="6.02175">
        <ele>472</ele>
        <time>2022-08-10T06:44:41Z</time>
      </trkpt>
      <trkpt lat="47.14241" lon="6.02178">
        <ele>471.6</ele>
        <time>2022-08-10T06:44:42Z</time>
      </trkpt>
      <trkpt lat="47.14241" lon="6.02182">
        <ele>471.1</ele>
        <time>2022-08-10T06:44:43Z</time>
      </trkpt>
      <trkpt lat="47.1424" lon="6.02187">
        <ele>470.7</ele>
        <time>2022-08-10T06:44:44Z</time>
      </trkpt>
      <trkpt lat="47.14239" lon="6.02191">
        <ele>470.5</ele>
        <time>2022-08-10T06:44:45Z</time>
      </trkpt>
      <trkpt lat="47.14238" lon="6.02195">
        <ele>470.3</ele>
        <time>2022-08-10T06:44:46Z</time>
      </trkpt>
      <trkpt lat="47.14237" lon="6.02199">
        <ele>470.3</ele>
        <time>2022-08-10T06:44:47Z</time>
      </trkpt>
      <trkpt lat="47.14236" lon="6.02203">
        <ele>470.1</ele>
        <time>2022-08-10T06:44:48Z</time>
      </trkpt>
      <trkpt lat="47.14235" lon="6.02207">
        <ele>469.9</ele>
        <time>2022-08-10T06:44:49Z</time>
      </trkpt>
      <trkpt lat="47.14233" lon="6.02211">
        <ele>469.6</ele>
        <time>2022-08-10T06:44:50Z</time>
      </trkpt>
      <trkpt lat="47.14232" lon="6.02214">
        <ele>469.5</ele>
        <time>2022-08-10T06:44:51Z</time>
      </trkpt>
      <trkpt lat="47.1423" lon="6.02218">
        <ele>469.5</ele>
        <time>2022-08-10T06:44:52Z</time>
      </trkpt>
      <trkpt lat="47.14229" lon="6.02221">
        <ele>469.4</ele>
        <time>2022-08-10T06:44:53Z</time>
      </trkpt>
      <trkpt lat="47.14228" lon="6.02225">
        <ele>469.6</ele>
        <time>2022-08-10T06:44:54Z</time>
      </trkpt>
      <trkpt lat="47.14227" lon="6.02228">
        <ele>470</ele>
        <time>2022-08-10T06:44:55Z</time>
      </trkpt>
      <trkpt lat="47.14226" lon="6.02232">
        <ele>470.2</ele>
        <time>2022-08-10T06:44:56Z</time>
      </trkpt>
      <trkpt lat="47.14226" lon="6.02237">
        <ele>471.2</ele>
        <time>2022-08-10T06:44:57Z</time>
      </trkpt>
      <trkpt lat="47.14227" lon="6.02241">
        <ele>472</ele>
        <time>2022-08-10T06:44:58Z</time>
      </trkpt>
      <trkpt lat="47.14227" lon="6.02246">
        <ele>472.5</ele>
        <time>2022-08-10T06:44:59Z</time>
      </trkpt>
      <trkpt lat="47.14227" lon="6.02249">
        <ele>473.2</ele>
        <time>2022-08-10T06:45:00Z</time>
      </trkpt>
      <trkpt lat="47.14227" lon="6.02253">
        <ele>474</ele>
        <time>2022-08-10T06:45:01Z</time>
      </trkpt>
      <trkpt lat="47.14226" lon="6.02256">
        <ele>474.6</ele>
        <time>2022-08-10T06:45:02Z</time>
      </trkpt>
      <trkpt lat="47.14225" lon="6.0226">
        <ele>475</ele>
        <time>2022-08-10T06:45:03Z</time>
      </trkpt>
      <trkpt lat="47.14225" lon="6.02264">
        <ele>475.7</ele>
        <time>2022-08-10T06:45:04Z</time>
      </trkpt>
      <trkpt lat="47.14224" lon="6.02268">
        <ele>476.4</ele>
        <time>2022-08-10T06:45:05Z</time>
      </trkpt>
      <trkpt lat="47.14224" lon="6.02272">
        <ele>476.8</ele>
        <time>2022-08-10T06:45:06Z</time>
      </trkpt>
      <trkpt lat="47.14223" lon="6.02276">
        <ele>477.5</ele>
        <time>2022-08-10T06:45:07Z</time>
      </trkpt>
      <trkpt lat="47.14221" lon="6.02279">
        <ele>478</ele>
        <time>2022-08-10T06:45:08Z</time>
      </trkpt>
      <trkpt lat="47.1422" lon="6.02282">
        <ele>478.3</ele>
        <time>2022-08-10T06:45:09Z</time>
      </trkpt>
      <trkpt lat="47.14218" lon="6.02286">
        <ele>478.7</ele>
        <time>2022-08-10T06:45:10Z</time>
      </trkpt>
      <trkpt lat="47.14218" lon="6.0229">
        <ele>478.8</ele>
        <time>2022-08-10T06:45:11Z</time>
      </trkpt>
      <trkpt lat="47.14217" lon="6.02293">
        <ele>478.5</ele>
        <time>2022-08-10T06:45:12Z</time>
      </trkpt>
      <trkpt lat="47.14216" lon="6.02297">
        <ele>478.6</ele>
        <time>2022-08-10T06:45:13Z</time>
      </trkpt>
      <trkpt lat="47.14216" lon="6.023">
        <ele>478.5</ele>
        <time>2022-08-10T06:45:14Z</time>
      </trkpt>
      <trkpt lat="47.14216" lon="6.02303">
        <ele>478.6</ele>
        <time>2022-08-10T06:45:15Z</time>
      </trkpt>
      <trkpt lat="47.14216" lon="6.02306">
        <ele>478.7</ele>
        <time>2022-08-10T06:45:16Z</time>
      </trkpt>
      <trkpt lat="47.14216" lon="6.0231">
        <ele>478.6</ele>
        <time>2022-08-10T06:45:17Z</time>
      </trkpt>
      <trkpt lat="47.14216" lon="6.02313">
        <ele>478.8</ele>
        <time>2022-08-10T06:45:18Z</time>
      </trkpt>
      <trkpt lat="47.14216" lon="6.02317">
        <ele>478.9</ele>
        <time>2022-08-10T06:45:19Z</time>
      </trkpt>
      <trkpt lat="47.14216" lon="6.02321">
        <ele>478.9</ele>
        <time>2022-08-10T06:45:20Z</time>
      </trkpt>
      <trkpt lat="47.14217" lon="6.02325">
        <ele>479</ele>
        <time>2022-08-10T06:45:21Z</time>
      </trkpt>
      <trkpt lat="47.14217" lon="6.02329">
        <ele>479.1</ele>
        <time>2022-08-10T06:45:22Z</time>
      </trkpt>
      <trkpt lat="47.14216" lon="6.02332">
        <ele>479.3</ele>
        <time>2022-08-10T06:45:23Z</time>
      </trkpt>
      <trkpt lat="47.14216" lon="6.02336">
        <ele>479.4</ele>
        <time>2022-08-10T06:45:24Z</time>
      </trkpt>
      <trkpt lat="47.14215" lon="6.02341">
        <ele>479.5</ele>
        <time>2022-08-10T06:45:25Z</time>
      </trkpt>
      <trkpt lat="47.14214" lon="6.02346">
        <ele>479.2</ele>
        <time>2022-08-10T06:45:26Z</time>
      </trkpt>
      <trkpt lat="47.14214" lon="6.02351">
        <ele>479</ele>
        <time>2022-08-10T06:45:27Z</time>
      </trkpt>
      <trkpt lat="47.14213" lon="6.02356">
        <ele>478.7</ele>
        <time>2022-08-10T06:45:28Z</time>
      </trkpt>
      <trkpt lat="47.14212" lon="6.02361">
        <ele>478.6</ele>
        <time>2022-08-10T06:45:29Z</time>
      </trkpt>
      <trkpt lat="47.14211" lon="6.02366">
        <ele>478.5</ele>
        <time>2022-08-10T06:45:30Z</time>
      </trkpt>
      <trkpt lat="47.1421" lon="6.0237">
        <ele>478.2</ele>
        <time>2022-08-10T06:45:31Z</time>
      </trkpt>
      <trkpt lat="47.1421" lon="6.02374">
        <ele>477.5</ele>
        <time>2022-08-10T06:45:32Z</time>
      </trkpt>
      <trkpt lat="47.14209" lon="6.02378">
        <ele>476.7</ele>
        <time>2022-08-10T06:45:33Z</time>
      </trkpt>
      <trkpt lat="47.14208" lon="6.02383">
        <ele>476.3</ele>
        <time>2022-08-10T06:45:34Z</time>
      </trkpt>
      <trkpt lat="47.14208" lon="6.02387">
        <ele>476.2</ele>
        <time>2022-08-10T06:45:35Z</time>
      </trkpt>
      <trkpt lat="47.14207" lon="6.02392">
        <ele>475.5</ele>
        <time>2022-08-10T06:45:36Z</time>
      </trkpt>
      <trkpt lat="47.14207" lon="6.02398">
        <ele>474.7</ele>
        <time>2022-08-10T06:45:37Z</time>
      </trkpt>
      <trkpt lat="47.14206" lon="6.02403">
        <ele>473.5</ele>
        <time>2022-08-10T06:45:38Z</time>
      </trkpt>
      <trkpt lat="47.14205" lon="6.02408">
        <ele>472.4</ele>
        <time>2022-08-10T06:45:39Z</time>
      </trkpt>
      <trkpt lat="47.14203" lon="6.02413">
        <ele>470.7</ele>
        <time>2022-08-10T06:45:40Z</time>
      </trkpt>
      <trkpt lat="47.14202" lon="6.02417">
        <ele>469.2</ele>
        <time>2022-08-10T06:45:41Z</time>
      </trkpt>
      <trkpt lat="47.142" lon="6.02422">
        <ele>468.3</ele>
        <time>2022-08-10T06:45:42Z</time>
      </trkpt>
      <trkpt lat="47.14198" lon="6.02427">
        <ele>466.9</ele>
        <time>2022-08-10T06:45:43Z</time>
      </trkpt>
      <trkpt lat="47.14197" lon="6.02432">
        <ele>466</ele>
        <time>2022-08-10T06:45:44Z</time>
      </trkpt>
      <trkpt lat="47.14195" lon="6.02436">
        <ele>464.9</ele>
        <time>2022-08-10T06:45:45Z</time>
      </trkpt>
      <trkpt lat="47.14194" lon="6.02439">
        <ele>464.1</ele>
        <time>2022-08-10T06:45:46Z</time>
      </trkpt>
      <trkpt lat="47.14193" lon="6.02445">
        <ele>463.5</ele>
        <time>2022-08-10T06:45:47Z</time>
      </trkpt>
      <trkpt lat="47.14192" lon="6.0245">
        <ele>462.9</ele>
        <time>2022-08-10T06:45:48Z</time>
      </trkpt>
      <trkpt lat="47.14192" lon="6.02455">
        <ele>462.5</ele>
        <time>2022-08-10T06:45:49Z</time>
      </trkpt>
      <trkpt lat="47.14192" lon="6.0246">
        <ele>462.2</ele>
        <time>2022-08-10T06:45:50Z</time>
      </trkpt>
      <trkpt lat="47.14192" lon="6.02465">
        <ele>461.6</ele>
        <time>2022-08-10T06:45:51Z</time>
      </trkpt>
      <trkpt lat="47.14192" lon="6.0247">
        <ele>461.5</ele>
        <time>2022-08-10T06:45:52Z</time>
      </trkpt>
      <trkpt lat="47.14191" lon="6.02475">
        <ele>461.5</ele>
        <time>2022-08-10T06:45:53Z</time>
      </trkpt>
      <trkpt lat="47.14191" lon="6.02481">
        <ele>461.1</ele>
        <time>2022-08-10T06:45:54Z</time>
      </trkpt>
      <trkpt lat="47.1419" lon="6.02486">
        <ele>461.1</ele>
        <time>2022-08-10T06:45:55Z</time>
      </trkpt>
      <trkpt lat="47.14189" lon="6.02491">
        <ele>461.3</ele>
        <time>2022-08-10T06:45:56Z</time>
      </trkpt>
      <trkpt lat="47.14188" lon="6.02496">
        <ele>460.8</ele>
        <time>2022-08-10T06:45:57Z</time>
      </trkpt>
      <trkpt lat="47.14186" lon="6.025">
        <ele>460.5</ele>
        <time>2022-08-10T06:45:58Z</time>
      </trkpt>
      <trkpt lat="47.14185" lon="6.02504">
        <ele>460.4</ele>
        <time>2022-08-10T06:45:59Z</time>
      </trkpt>
      <trkpt lat="47.14184" lon="6.02508">
        <ele>460.8</ele>
        <time>2022-08-10T06:46:00Z</time>
      </trkpt>
      <trkpt lat="47.14182" lon="6.02511">
        <ele>461.6</ele>
        <time>2022-08-10T06:46:01Z</time>
      </trkpt>
      <trkpt lat="47.14181" lon="6.02513">
        <ele>462.5</ele>
        <time>2022-08-10T06:46:02Z</time>
      </trkpt>
      <trkpt lat="47.14179" lon="6.02516">
        <ele>463.1</ele>
        <time>2022-08-10T06:46:03Z</time>
      </trkpt>
      <trkpt lat="47.14178" lon="6.02518">
        <ele>463.6</ele>
        <time>2022-08-10T06:46:04Z</time>
      </trkpt>
      <trkpt lat="47.14177" lon="6.0252">
        <ele>463.7</ele>
        <time>2022-08-10T06:46:05Z</time>
      </trkpt>
      <trkpt lat="47.14175" lon="6.02522">
        <ele>464.1</ele>
        <time>2022-08-10T06:46:06Z</time>
      </trkpt>
      <trkpt lat="47.14174" lon="6.02524">
        <ele>464.4</ele>
        <time>2022-08-10T06:46:07Z</time>
      </trkpt>
      <trkpt lat="47.14172" lon="6.02526">
        <ele>464.9</ele>
        <time>2022-08-10T06:46:08Z</time>
      </trkpt>
      <trkpt lat="47.14171" lon="6.02529">
        <ele>465.5</ele>
        <time>2022-08-10T06:46:09Z</time>
      </trkpt>
      <trkpt lat="47.14169" lon="6.02531">
        <ele>466</ele>
        <time>2022-08-10T06:46:10Z</time>
      </trkpt>
      <trkpt lat="47.14168" lon="6.02534">
        <ele>466.7</ele>
        <time>2022-08-10T06:46:11Z</time>
      </trkpt>
      <trkpt lat="47.14167" lon="6.02539">
        <ele>467.3</ele>
        <time>2022-08-10T06:46:12Z</time>
      </trkpt>
      <trkpt lat="47.14166" lon="6.02543">
        <ele>468.1</ele>
        <time>2022-08-10T06:46:13Z</time>
      </trkpt>
      <trkpt lat="47.14166" lon="6.02547">
        <ele>469.1</ele>
        <time>2022-08-10T06:46:14Z</time>
      </trkpt>
      <trkpt lat="47.14165" lon="6.02551">
        <ele>469.9</ele>
        <time>2022-08-10T06:46:15Z</time>
      </trkpt>
      <trkpt lat="47.14165" lon="6.02554">
        <ele>470.7</ele>
        <time>2022-08-10T06:46:16Z</time>
      </trkpt>
      <trkpt lat="47.14165" lon="6.02557">
        <ele>471.5</ele>
        <time>2022-08-10T06:46:17Z</time>
      </trkpt>
      <trkpt lat="47.14165" lon="6.0256">
        <ele>472.4</ele>
        <time>2022-08-10T06:46:18Z</time>
      </trkpt>
      <trkpt lat="47.14165" lon="6.02563">
        <ele>473.2</ele>
        <time>2022-08-10T06:46:19Z</time>
      </trkpt>
      <trkpt lat="47.14165" lon="6.02566">
        <ele>473.9</ele>
        <time>2022-08-10T06:46:20Z</time>
      </trkpt>
      <trkpt lat="47.14166" lon="6.0257">
        <ele>474.6</ele>
        <time>2022-08-10T06:46:21Z</time>
      </trkpt>
      <trkpt lat="47.14166" lon="6.02573">
        <ele>475.3</ele>
        <time>2022-08-10T06:46:22Z</time>
      </trkpt>
      <trkpt lat="47.14167" lon="6.02577">
        <ele>475.6</ele>
        <time>2022-08-10T06:46:23Z</time>
      </trkpt>
      <trkpt lat="47.14168" lon="6.02581">
        <ele>476.2</ele>
        <time>2022-08-10T06:46:24Z</time>
      </trkpt>
      <trkpt lat="47.14169" lon="6.02586">
        <ele>476.5</ele>
        <time>2022-08-10T06:46:25Z</time>
      </trkpt>
      <trkpt lat="47.1417" lon="6.0259">
        <ele>476.9</ele>
        <time>2022-08-10T06:46:26Z</time>
      </trkpt>
      <trkpt lat="47.14171" lon="6.02595">
        <ele>477.2</ele>
        <time>2022-08-10T06:46:27Z</time>
      </trkpt>
      <trkpt lat="47.14171" lon="6.02601">
        <ele>477.3</ele>
        <time>2022-08-10T06:46:28Z</time>
      </trkpt>
      <trkpt lat="47.14172" lon="6.02605">
        <ele>477.7</ele>
        <time>2022-08-10T06:46:29Z</time>
      </trkpt>
      <trkpt lat="47.14173" lon="6.02609">
        <ele>478</ele>
        <time>2022-08-10T06:46:30Z</time>
      </trkpt>
      <trkpt lat="47.14174" lon="6.02613">
        <ele>478.5</ele>
        <time>2022-08-10T06:46:31Z</time>
      </trkpt>
      <trkpt lat="47.14174" lon="6.02617">
        <ele>478.7</ele>
        <time>2022-08-10T06:46:32Z</time>
      </trkpt>
      <trkpt lat="47.14174" lon="6.02621">
        <ele>478.8</ele>
        <time>2022-08-10T06:46:33Z</time>
      </trkpt>
      <trkpt lat="47.14175" lon="6.02624">
        <ele>478.8</ele>
        <time>2022-08-10T06:46:34Z</time>
      </trkpt>
      <trkpt lat="47.14175" lon="6.02627">
        <ele>478.8</ele>
        <time>2022-08-10T06:46:35Z</time>
      </trkpt>
      <trkpt lat="47.14175" lon="6.02631">
        <ele>479.1</ele>
        <time>2022-08-10T06:46:36Z</time>
      </trkpt>
      <trkpt lat="47.14176" lon="6.02634">
        <ele>479.2</ele>
        <time>2022-08-10T06:46:37Z</time>
      </trkpt>
      <trkpt lat="47.14176" lon="6.02639">
        <ele>479.1</ele>
        <time>2022-08-10T06:46:38Z</time>
      </trkpt>
      <trkpt lat="47.14177" lon="6.02642">
        <ele>479.3</ele>
        <time>2022-08-10T06:46:39Z</time>
      </trkpt>
      <trkpt lat="47.14177" lon="6.02647">
        <ele>479.5</ele>
        <time>2022-08-10T06:46:40Z</time>
      </trkpt>
      <trkpt lat="47.14179" lon="6.02651">
        <ele>479.7</ele>
        <time>2022-08-10T06:46:41Z</time>
      </trkpt>
      <trkpt lat="47.1418" lon="6.02656">
        <ele>480.1</ele>
        <time>2022-08-10T06:46:42Z</time>
      </trkpt>
      <trkpt lat="47.14182" lon="6.0266">
        <ele>480.3</ele>
        <time>2022-08-10T06:46:43Z</time>
      </trkpt>
      <trkpt lat="47.14183" lon="6.02664">
        <ele>480.6</ele>
        <time>2022-08-10T06:46:44Z</time>
      </trkpt>
      <trkpt lat="47.14185" lon="6.02668">
        <ele>481.1</ele>
        <time>2022-08-10T06:46:45Z</time>
      </trkpt>
      <trkpt lat="47.14186" lon="6.02672">
        <ele>481.6</ele>
        <time>2022-08-10T06:46:46Z</time>
      </trkpt>
      <trkpt lat="47.14187" lon="6.02676">
        <ele>481.8</ele>
        <time>2022-08-10T06:46:47Z</time>
      </trkpt>
      <trkpt lat="47.14188" lon="6.02679">
        <ele>482.2</ele>
        <time>2022-08-10T06:46:48Z</time>
      </trkpt>
      <trkpt lat="47.14189" lon="6.02682">
        <ele>482.6</ele>
        <time>2022-08-10T06:46:49Z</time>
      </trkpt>
      <trkpt lat="47.1419" lon="6.02685">
        <ele>482.9</ele>
        <time>2022-08-10T06:46:50Z</time>
      </trkpt>
      <trkpt lat="47.14191" lon="6.02688">
        <ele>483.5</ele>
        <time>2022-08-10T06:46:51Z</time>
      </trkpt>
      <trkpt lat="47.14192" lon="6.02692">
        <ele>484.2</ele>
        <time>2022-08-10T06:46:52Z</time>
      </trkpt>
      <trkpt lat="47.14193" lon="6.02695">
        <ele>484.9</ele>
        <time>2022-08-10T06:46:53Z</time>
      </trkpt>
      <trkpt lat="47.14194" lon="6.02699">
        <ele>484.6</ele>
        <time>2022-08-10T06:46:54Z</time>
      </trkpt>
      <trkpt lat="47.14195" lon="6.02703">
        <ele>484.6</ele>
        <time>2022-08-10T06:46:55Z</time>
      </trkpt>
      <trkpt lat="47.14196" lon="6.02706">
        <ele>484.8</ele>
        <time>2022-08-10T06:46:56Z</time>
      </trkpt>
      <trkpt lat="47.14196" lon="6.0271">
        <ele>484.9</ele>
        <time>2022-08-10T06:46:57Z</time>
      </trkpt>
      <trkpt lat="47.14197" lon="6.02713">
        <ele>484.9</ele>
        <time>2022-08-10T06:46:58Z</time>
      </trkpt>
      <trkpt lat="47.14198" lon="6.02717">
        <ele>485</ele>
        <time>2022-08-10T06:46:59Z</time>
      </trkpt>
      <trkpt lat="47.142" lon="6.0272">
        <ele>485.1</ele>
        <time>2022-08-10T06:47:00Z</time>
      </trkpt>
      <trkpt lat="47.14201" lon="6.02724">
        <ele>485.2</ele>
        <time>2022-08-10T06:47:01Z</time>
      </trkpt>
      <trkpt lat="47.14202" lon="6.02728">
        <ele>485.5</ele>
        <time>2022-08-10T06:47:02Z</time>
      </trkpt>
      <trkpt lat="47.14203" lon="6.02731">
        <ele>485.7</ele>
        <time>2022-08-10T06:47:03Z</time>
      </trkpt>
      <trkpt lat="47.14205" lon="6.02735">
        <ele>486</ele>
        <time>2022-08-10T06:47:04Z</time>
      </trkpt>
      <trkpt lat="47.14206" lon="6.02739">
        <ele>486.4</ele>
        <time>2022-08-10T06:47:05Z</time>
      </trkpt>
      <trkpt lat="47.14208" lon="6.02742">
        <ele>486.4</ele>
        <time>2022-08-10T06:47:06Z</time>
      </trkpt>
      <trkpt lat="47.14209" lon="6.02746">
        <ele>486.8</ele>
        <time>2022-08-10T06:47:07Z</time>
      </trkpt>
      <trkpt lat="47.14211" lon="6.0275">
        <ele>486.8</ele>
        <time>2022-08-10T06:47:08Z</time>
      </trkpt>
      <trkpt lat="47.14213" lon="6.02756">
        <ele>487</ele>
        <time>2022-08-10T06:47:09Z</time>
      </trkpt>
      <trkpt lat="47.14216" lon="6.02761">
        <ele>486.8</ele>
        <time>2022-08-10T06:47:10Z</time>
      </trkpt>
      <trkpt lat="47.14218" lon="6.02766">
        <ele>486.8</ele>
        <time>2022-08-10T06:47:11Z</time>
      </trkpt>
      <trkpt lat="47.14221" lon="6.02771">
        <ele>486.6</ele>
        <time>2022-08-10T06:47:12Z</time>
      </trkpt>
      <trkpt lat="47.14223" lon="6.02776">
        <ele>486.5</ele>
        <time>2022-08-10T06:47:13Z</time>
      </trkpt>
      <trkpt lat="47.14226" lon="6.0278">
        <ele>486.4</ele>
        <time>2022-08-10T06:47:14Z</time>
      </trkpt>
      <trkpt lat="47.14228" lon="6.02785">
        <ele>486.2</ele>
        <time>2022-08-10T06:47:15Z</time>
      </trkpt>
      <trkpt lat="47.14231" lon="6.0279">
        <ele>485.8</ele>
        <time>2022-08-10T06:47:16Z</time>
      </trkpt>
      <trkpt lat="47.14233" lon="6.02793">
        <ele>485.4</ele>
        <time>2022-08-10T06:47:17Z</time>
      </trkpt>
      <trkpt lat="47.14236" lon="6.02797">
        <ele>484.5</ele>
        <time>2022-08-10T06:47:18Z</time>
      </trkpt>
      <trkpt lat="47.14239" lon="6.02801">
        <ele>484.1</ele>
        <time>2022-08-10T06:47:19Z</time>
      </trkpt>
      <trkpt lat="47.14241" lon="6.02804">
        <ele>483.4</ele>
        <time>2022-08-10T06:47:20Z</time>
      </trkpt>
      <trkpt lat="47.14243" lon="6.02807">
        <ele>483</ele>
        <time>2022-08-10T06:47:21Z</time>
      </trkpt>
      <trkpt lat="47.14245" lon="6.0281">
        <ele>482.8</ele>
        <time>2022-08-10T06:47:22Z</time>
      </trkpt>
      <trkpt lat="47.14247" lon="6.02814">
        <ele>482.9</ele>
        <time>2022-08-10T06:47:23Z</time>
      </trkpt>
      <trkpt lat="47.14249" lon="6.02817">
        <ele>482.9</ele>
        <time>2022-08-10T06:47:24Z</time>
      </trkpt>
      <trkpt lat="47.14252" lon="6.0282">
        <ele>482.6</ele>
        <time>2022-08-10T06:47:25Z</time>
      </trkpt>
      <trkpt lat="47.14254" lon="6.02824">
        <ele>482.5</ele>
        <time>2022-08-10T06:47:26Z</time>
      </trkpt>
      <trkpt lat="47.14256" lon="6.02827">
        <ele>482.5</ele>
        <time>2022-08-10T06:47:27Z</time>
      </trkpt>
      <trkpt lat="47.14258" lon="6.0283">
        <ele>482.4</ele>
        <time>2022-08-10T06:47:28Z</time>
      </trkpt>
      <trkpt lat="47.14261" lon="6.02834">
        <ele>482.5</ele>
        <time>2022-08-10T06:47:29Z</time>
      </trkpt>
      <trkpt lat="47.14263" lon="6.02837">
        <ele>482.8</ele>
        <time>2022-08-10T06:47:30Z</time>
      </trkpt>
      <trkpt lat="47.14266" lon="6.02842">
        <ele>483.2</ele>
        <time>2022-08-10T06:47:31Z</time>
      </trkpt>
      <trkpt lat="47.14268" lon="6.02845">
        <ele>483.7</ele>
        <time>2022-08-10T06:47:32Z</time>
      </trkpt>
      <trkpt lat="47.1427" lon="6.02847">
        <ele>484.3</ele>
        <time>2022-08-10T06:47:33Z</time>
      </trkpt>
      <trkpt lat="47.14271" lon="6.0285">
        <ele>484.8</ele>
        <time>2022-08-10T06:47:34Z</time>
      </trkpt>
      <trkpt lat="47.14272" lon="6.02852">
        <ele>485.2</ele>
        <time>2022-08-10T06:47:35Z</time>
      </trkpt>
      <trkpt lat="47.14273" lon="6.02856">
        <ele>485.8</ele>
        <time>2022-08-10T06:47:36Z</time>
      </trkpt>
      <trkpt lat="47.14275" lon="6.02861">
        <ele>486.5</ele>
        <time>2022-08-10T06:47:37Z</time>
      </trkpt>
      <trkpt lat="47.14276" lon="6.02865">
        <ele>487.1</ele>
        <time>2022-08-10T06:47:38Z</time>
      </trkpt>
      <trkpt lat="47.14278" lon="6.02869">
        <ele>487.2</ele>
        <time>2022-08-10T06:47:39Z</time>
      </trkpt>
      <trkpt lat="47.14279" lon="6.02874">
        <ele>487.6</ele>
        <time>2022-08-10T06:47:40Z</time>
      </trkpt>
      <trkpt lat="47.14281" lon="6.02879">
        <ele>487.6</ele>
        <time>2022-08-10T06:47:41Z</time>
      </trkpt>
      <trkpt lat="47.14283" lon="6.02883">
        <ele>487.7</ele>
        <time>2022-08-10T06:47:42Z</time>
      </trkpt>
      <trkpt lat="47.14284" lon="6.02888">
        <ele>487.6</ele>
        <time>2022-08-10T06:47:43Z</time>
      </trkpt>
      <trkpt lat="47.14286" lon="6.02893">
        <ele>488.5</ele>
        <time>2022-08-10T06:47:44Z</time>
      </trkpt>
      <trkpt lat="47.14288" lon="6.02898">
        <ele>489</ele>
        <time>2022-08-10T06:47:45Z</time>
      </trkpt>
      <trkpt lat="47.14289" lon="6.02903">
        <ele>489.3</ele>
        <time>2022-08-10T06:47:46Z</time>
      </trkpt>
      <trkpt lat="47.14291" lon="6.02909">
        <ele>489.6</ele>
        <time>2022-08-10T06:47:47Z</time>
      </trkpt>
      <trkpt lat="47.14294" lon="6.02914">
        <ele>489.7</ele>
        <time>2022-08-10T06:47:48Z</time>
      </trkpt>
      <trkpt lat="47.14297" lon="6.0292">
        <ele>489.4</ele>
        <time>2022-08-10T06:47:49Z</time>
      </trkpt>
      <trkpt lat="47.14299" lon="6.02926">
        <ele>489.3</ele>
        <time>2022-08-10T06:47:50Z</time>
      </trkpt>
      <trkpt lat="47.14302" lon="6.02931">
        <ele>489.2</ele>
        <time>2022-08-10T06:47:51Z</time>
      </trkpt>
      <trkpt lat="47.14304" lon="6.02936">
        <ele>488.7</ele>
        <time>2022-08-10T06:47:52Z</time>
      </trkpt>
      <trkpt lat="47.14307" lon="6.02941">
        <ele>488.7</ele>
        <time>2022-08-10T06:47:53Z</time>
      </trkpt>
      <trkpt lat="47.14309" lon="6.02946">
        <ele>488.9</ele>
        <time>2022-08-10T06:47:54Z</time>
      </trkpt>
      <trkpt lat="47.14311" lon="6.0295">
        <ele>489</ele>
        <time>2022-08-10T06:47:55Z</time>
      </trkpt>
      <trkpt lat="47.14313" lon="6.02954">
        <ele>489</ele>
        <time>2022-08-10T06:47:56Z</time>
      </trkpt>
      <trkpt lat="47.14315" lon="6.02958">
        <ele>488.8</ele>
        <time>2022-08-10T06:47:57Z</time>
      </trkpt>
      <trkpt lat="47.14317" lon="6.02963">
        <ele>488.8</ele>
        <time>2022-08-10T06:47:58Z</time>
      </trkpt>
      <trkpt lat="47.1432" lon="6.02968">
        <ele>488.9</ele>
        <time>2022-08-10T06:47:59Z</time>
      </trkpt>
      <trkpt lat="47.14322" lon="6.02974">
        <ele>488.6</ele>
        <time>2022-08-10T06:48:00Z</time>
      </trkpt>
      <trkpt lat="47.14325" lon="6.0298">
        <ele>487.9</ele>
        <time>2022-08-10T06:48:01Z</time>
      </trkpt>
      <trkpt lat="47.14327" lon="6.02985">
        <ele>487.2</ele>
        <time>2022-08-10T06:48:02Z</time>
      </trkpt>
      <trkpt lat="47.14329" lon="6.0299">
        <ele>486.4</ele>
        <time>2022-08-10T06:48:03Z</time>
      </trkpt>
      <trkpt lat="47.14331" lon="6.02996">
        <ele>485.1</ele>
        <time>2022-08-10T06:48:04Z</time>
      </trkpt>
      <trkpt lat="47.14332" lon="6.03001">
        <ele>484.4</ele>
        <time>2022-08-10T06:48:05Z</time>
      </trkpt>
      <trkpt lat="47.14333" lon="6.03006">
        <ele>483.6</ele>
        <time>2022-08-10T06:48:06Z</time>
      </trkpt>
      <trkpt lat="47.14335" lon="6.03012">
        <ele>482.8</ele>
        <time>2022-08-10T06:48:07Z</time>
      </trkpt>
      <trkpt lat="47.14336" lon="6.03017">
        <ele>481.6</ele>
        <time>2022-08-10T06:48:08Z</time>
      </trkpt>
      <trkpt lat="47.14338" lon="6.03023">
        <ele>480.8</ele>
        <time>2022-08-10T06:48:09Z</time>
      </trkpt>
      <trkpt lat="47.14339" lon="6.03029">
        <ele>480.3</ele>
        <time>2022-08-10T06:48:10Z</time>
      </trkpt>
      <trkpt lat="47.1434" lon="6.03036">
        <ele>479.6</ele>
        <time>2022-08-10T06:48:11Z</time>
      </trkpt>
      <trkpt lat="47.14344" lon="6.03051">
        <ele>478.7</ele>
        <time>2022-08-10T06:48:12Z</time>
      </trkpt>
      <trkpt lat="47.14345" lon="6.03059">
        <ele>478.1</ele>
        <time>2022-08-10T06:48:13Z</time>
      </trkpt>
      <trkpt lat="47.14345" lon="6.03064">
        <ele>477.6</ele>
        <time>2022-08-10T06:48:14Z</time>
      </trkpt>
      <trkpt lat="47.14344" lon="6.0307">
        <ele>476.9</ele>
        <time>2022-08-10T06:48:15Z</time>
      </trkpt>
      <trkpt lat="47.14345" lon="6.03079">
        <ele>476.1</ele>
        <time>2022-08-10T06:48:16Z</time>
      </trkpt>
      <trkpt lat="47.14346" lon="6.03088">
        <ele>475.5</ele>
        <time>2022-08-10T06:48:17Z</time>
      </trkpt>
      <trkpt lat="47.14346" lon="6.03097">
        <ele>474.6</ele>
        <time>2022-08-10T06:48:18Z</time>
      </trkpt>
      <trkpt lat="47.14347" lon="6.03103">
        <ele>473.8</ele>
        <time>2022-08-10T06:48:19Z</time>
      </trkpt>
      <trkpt lat="47.14349" lon="6.03109">
        <ele>473.1</ele>
        <time>2022-08-10T06:48:20Z</time>
      </trkpt>
      <trkpt lat="47.1435" lon="6.03115">
        <ele>472.7</ele>
        <time>2022-08-10T06:48:21Z</time>
      </trkpt>
      <trkpt lat="47.14351" lon="6.0312">
        <ele>471.9</ele>
        <time>2022-08-10T06:48:22Z</time>
      </trkpt>
      <trkpt lat="47.14352" lon="6.03125">
        <ele>471.1</ele>
        <time>2022-08-10T06:48:23Z</time>
      </trkpt>
      <trkpt lat="47.14351" lon="6.0313">
        <ele>470.6</ele>
        <time>2022-08-10T06:48:24Z</time>
      </trkpt>
      <trkpt lat="47.14351" lon="6.03135">
        <ele>469.9</ele>
        <time>2022-08-10T06:48:25Z</time>
      </trkpt>
      <trkpt lat="47.14351" lon="6.0314">
        <ele>469.2</ele>
        <time>2022-08-10T06:48:26Z</time>
      </trkpt>
      <trkpt lat="47.1435" lon="6.03146">
        <ele>468.6</ele>
        <time>2022-08-10T06:48:27Z</time>
      </trkpt>
      <trkpt lat="47.1435" lon="6.03152">
        <ele>468.2</ele>
        <time>2022-08-10T06:48:28Z</time>
      </trkpt>
      <trkpt lat="47.14349" lon="6.03158">
        <ele>467.6</ele>
        <time>2022-08-10T06:48:29Z</time>
      </trkpt>
      <trkpt lat="47.1435" lon="6.03167">
        <ele>466.1</ele>
        <time>2022-08-10T06:48:30Z</time>
      </trkpt>
      <trkpt lat="47.1435" lon="6.03173">
        <ele>466.2</ele>
        <time>2022-08-10T06:48:31Z</time>
      </trkpt>
      <trkpt lat="47.1435" lon="6.03178">
        <ele>466</ele>
        <time>2022-08-10T06:48:32Z</time>
      </trkpt>
      <trkpt lat="47.14349" lon="6.03184">
        <ele>465.9</ele>
        <time>2022-08-10T06:48:33Z</time>
      </trkpt>
      <trkpt lat="47.14349" lon="6.0319">
        <ele>466</ele>
        <time>2022-08-10T06:48:34Z</time>
      </trkpt>
      <trkpt lat="47.1435" lon="6.03195">
        <ele>466.7</ele>
        <time>2022-08-10T06:48:35Z</time>
      </trkpt>
      <trkpt lat="47.14351" lon="6.03199">
        <ele>467</ele>
        <time>2022-08-10T06:48:36Z</time>
      </trkpt>
      <trkpt lat="47.14353" lon="6.03203">
        <ele>467.5</ele>
        <time>2022-08-10T06:48:37Z</time>
      </trkpt>
      <trkpt lat="47.14354" lon="6.03207">
        <ele>467.7</ele>
        <time>2022-08-10T06:48:38Z</time>
      </trkpt>
      <trkpt lat="47.14355" lon="6.03211">
        <ele>467.5</ele>
        <time>2022-08-10T06:48:39Z</time>
      </trkpt>
      <trkpt lat="47.14356" lon="6.03215">
        <ele>467.6</ele>
        <time>2022-08-10T06:48:40Z</time>
      </trkpt>
      <trkpt lat="47.14356" lon="6.0322">
        <ele>467.8</ele>
        <time>2022-08-10T06:48:41Z</time>
      </trkpt>
      <trkpt lat="47.14356" lon="6.03224">
        <ele>467.9</ele>
        <time>2022-08-10T06:48:42Z</time>
      </trkpt>
      <trkpt lat="47.14355" lon="6.03229">
        <ele>467.8</ele>
        <time>2022-08-10T06:48:43Z</time>
      </trkpt>
      <trkpt lat="47.14355" lon="6.03233">
        <ele>467.7</ele>
        <time>2022-08-10T06:48:44Z</time>
      </trkpt>
      <trkpt lat="47.14354" lon="6.03239">
        <ele>468</ele>
        <time>2022-08-10T06:48:45Z</time>
      </trkpt>
      <trkpt lat="47.14354" lon="6.03245">
        <ele>468.4</ele>
        <time>2022-08-10T06:48:46Z</time>
      </trkpt>
      <trkpt lat="47.14354" lon="6.03252">
        <ele>468.8</ele>
        <time>2022-08-10T06:48:47Z</time>
      </trkpt>
      <trkpt lat="47.14354" lon="6.03259">
        <ele>469.7</ele>
        <time>2022-08-10T06:48:48Z</time>
      </trkpt>
      <trkpt lat="47.14354" lon="6.03267">
        <ele>470</ele>
        <time>2022-08-10T06:48:49Z</time>
      </trkpt>
      <trkpt lat="47.14355" lon="6.03274">
        <ele>470.6</ele>
        <time>2022-08-10T06:48:50Z</time>
      </trkpt>
      <trkpt lat="47.14356" lon="6.03281">
        <ele>470.9</ele>
        <time>2022-08-10T06:48:51Z</time>
      </trkpt>
      <trkpt lat="47.14359" lon="6.03287">
        <ele>471.4</ele>
        <time>2022-08-10T06:48:52Z</time>
      </trkpt>
      <trkpt lat="47.14361" lon="6.03293">
        <ele>471.7</ele>
        <time>2022-08-10T06:48:53Z</time>
      </trkpt>
      <trkpt lat="47.14364" lon="6.03299">
        <ele>472</ele>
        <time>2022-08-10T06:48:54Z</time>
      </trkpt>
      <trkpt lat="47.14367" lon="6.03304">
        <ele>472.4</ele>
        <time>2022-08-10T06:48:55Z</time>
      </trkpt>
      <trkpt lat="47.1437" lon="6.0331">
        <ele>471.8</ele>
        <time>2022-08-10T06:48:56Z</time>
      </trkpt>
      <trkpt lat="47.14371" lon="6.03315">
        <ele>472</ele>
        <time>2022-08-10T06:48:57Z</time>
      </trkpt>
      <trkpt lat="47.14373" lon="6.03319">
        <ele>472.2</ele>
        <time>2022-08-10T06:48:58Z</time>
      </trkpt>
      <trkpt lat="47.14375" lon="6.03324">
        <ele>471.9</ele>
        <time>2022-08-10T06:48:59Z</time>
      </trkpt>
      <trkpt lat="47.14377" lon="6.03328">
        <ele>471.4</ele>
        <time>2022-08-10T06:49:00Z</time>
      </trkpt>
      <trkpt lat="47.14378" lon="6.03332">
        <ele>471.6</ele>
        <time>2022-08-10T06:49:01Z</time>
      </trkpt>
      <trkpt lat="47.14379" lon="6.03336">
        <ele>471.8</ele>
        <time>2022-08-10T06:49:02Z</time>
      </trkpt>
      <trkpt lat="47.14381" lon="6.03339">
        <ele>471.8</ele>
        <time>2022-08-10T06:49:03Z</time>
      </trkpt>
      <trkpt lat="47.14383" lon="6.03346">
        <ele>472.5</ele>
        <time>2022-08-10T06:49:04Z</time>
      </trkpt>
      <trkpt lat="47.14384" lon="6.03349">
        <ele>472.1</ele>
        <time>2022-08-10T06:49:05Z</time>
      </trkpt>
      <trkpt lat="47.14385" lon="6.03351">
        <ele>472.1</ele>
        <time>2022-08-10T06:49:06Z</time>
      </trkpt>
      <trkpt lat="47.14386" lon="6.03353">
        <ele>471.9</ele>
        <time>2022-08-10T06:49:07Z</time>
      </trkpt>
      <trkpt lat="47.14386" lon="6.03354">
        <ele>472</ele>
        <time>2022-08-10T06:49:08Z</time>
      </trkpt>
      <trkpt lat="47.14386" lon="6.03355">
        <ele>472</ele>
        <time>2022-08-10T06:49:09Z</time>
      </trkpt>
      <trkpt lat="47.14386" lon="6.03355">
        <ele>472</ele>
        <time>2022-08-10T06:49:10Z</time>
      </trkpt>
      <trkpt lat="47.14386" lon="6.03355">
        <ele>472</ele>
        <time>2022-08-10T06:49:11Z</time>
      </trkpt>
      <trkpt lat="47.14386" lon="6.03355">
        <ele>472</ele>
        <time>2022-08-10T06:49:12Z</time>
      </trkpt>
      <trkpt lat="47.14386" lon="6.03355">
        <ele>472</ele>
        <time>2022-08-10T06:49:13Z</time>
      </trkpt>
      <trkpt lat="47.14386" lon="6.03355">
        <ele>472</ele>
        <time>2022-08-10T06:49:14Z</time>
      </trkpt>
      <trkpt lat="47.14386" lon="6.03355">
        <ele>472</ele>
        <time>2022-08-10T06:49:15Z</time>
      </trkpt>
      <trkpt lat="47.14386" lon="6.03355">
        <ele>472</ele>
        <time>2022-08-10T06:49:16Z</time>
      </trkpt>
      <trkpt lat="47.14386" lon="6.03355">
        <ele>472</ele>
        <time>2022-08-10T06:49:17Z</time>
      </trkpt>
      <trkpt lat="47.14386" lon="6.03355">
        <ele>472</ele>
        <time>2022-08-10T06:49:18Z</time>
      </trkpt>
      <trkpt lat="47.14386" lon="6.03355">
        <ele>472</ele>
        <time>2022-08-10T06:49:19Z</time>
      </trkpt>
      <trkpt lat="47.14386" lon="6.03355">
        <ele>472</ele>
        <time>2022-08-10T06:49:20Z</time>
      </trkpt>
      <trkpt lat="47.14386" lon="6.03355">
        <ele>472</ele>
        <time>2022-08-10T06:49:21Z</time>
      </trkpt>
      <trkpt lat="47.14386" lon="6.03355">
        <ele>472</ele>
        <time>2022-08-10T06:49:22Z</time>
      </trkpt>
      <trkpt lat="47.14386" lon="6.03355">
        <ele>472</ele>
        <time>2022-08-10T06:49:23Z</time>
      </trkpt>
      <trkpt lat="47.14386" lon="6.03355">
        <ele>472</ele>
        <time>2022-08-10T06:49:24Z</time>
      </trkpt>
      <trkpt lat="47.14386" lon="6.03355">
        <ele>472</ele>
        <time>2022-08-10T06:49:25Z</time>
      </trkpt>
      <trkpt lat="47.14386" lon="6.03355">
        <ele>472</ele>
        <time>2022-08-10T06:49:26Z</time>
      </trkpt>
      <trkpt lat="47.14386" lon="6.03355">
        <ele>472</ele>
        <time>2022-08-10T06:49:27Z</time>
      </trkpt>
      <trkpt lat="47.14386" lon="6.03355">
        <ele>472</ele>
        <time>2022-08-10T06:49:28Z</time>
      </trkpt>
      <trkpt lat="47.14386" lon="6.03355">
        <ele>472</ele>
        <time>2022-08-10T06:49:29Z</time>
      </trkpt>
      <trkpt lat="47.14386" lon="6.03355">
        <ele>472</ele>
        <time>2022-08-10T06:49:30Z</time>
      </trkpt>
      <trkpt lat="47.14386" lon="6.03355">
        <ele>472</ele>
        <time>2022-08-10T06:49:31Z</time>
      </trkpt>
      <trkpt lat="47.14386" lon="6.03355">
        <ele>472</ele>
        <time>2022-08-10T06:49:32Z</time>
      </trkpt>
      <trkpt lat="47.14386" lon="6.03355">
        <ele>472</ele>
        <time>2022-08-10T06:49:33Z</time>
      </trkpt>
      <trkpt lat="47.14386" lon="6.03355">
        <ele>472</ele>
        <time>2022-08-10T06:49:34Z</time>
      </trkpt>
      <trkpt lat="47.14386" lon="6.03355">
        <ele>472</ele>
        <time>2022-08-10T06:49:35Z</time>
      </trkpt>
      <trkpt lat="47.14386" lon="6.03355">
        <ele>472</ele>
        <time>2022-08-10T06:49:36Z</time>
      </trkpt>
      <trkpt lat="47.1439" lon="6.03368">
        <ele>471.6</ele>
        <time>2022-08-10T06:49:37Z</time>
      </trkpt>
      <trkpt lat="47.14391" lon="6.03369">
        <ele>471.5</ele>
        <time>2022-08-10T06:49:38Z</time>
      </trkpt>
      <trkpt lat="47.14393" lon="6.0337">
        <ele>471.3</ele>
        <time>2022-08-10T06:49:39Z</time>
      </trkpt>
      <trkpt lat="47.14394" lon="6.03371">
        <ele>471.2</ele>
        <time>2022-08-10T06:49:40Z</time>
      </trkpt>
      <trkpt lat="47.14394" lon="6.03371">
        <ele>471.2</ele>
        <time>2022-08-10T06:49:41Z</time>
      </trkpt>
      <trkpt lat="47.14394" lon="6.03371">
        <ele>471.2</ele>
        <time>2022-08-10T06:49:42Z</time>
      </trkpt>
      <trkpt lat="47.14394" lon="6.03371">
        <ele>471.2</ele>
        <time>2022-08-10T06:49:43Z</time>
      </trkpt>
      <trkpt lat="47.14394" lon="6.03371">
        <ele>471.2</ele>
        <time>2022-08-10T06:49:44Z</time>
      </trkpt>
      <trkpt lat="47.14394" lon="6.03371">
        <ele>471.2</ele>
        <time>2022-08-10T06:49:45Z</time>
      </trkpt>
      <trkpt lat="47.14394" lon="6.03371">
        <ele>471.2</ele>
        <time>2022-08-10T06:49:46Z</time>
      </trkpt>
      <trkpt lat="47.14394" lon="6.03371">
        <ele>471.2</ele>
        <time>2022-08-10T06:49:47Z</time>
      </trkpt>
      <trkpt lat="47.14394" lon="6.03371">
        <ele>471.2</ele>
        <time>2022-08-10T06:49:48Z</time>
      </trkpt>
      <trkpt lat="47.14394" lon="6.03371">
        <ele>471.2</ele>
        <time>2022-08-10T06:49:49Z</time>
      </trkpt>
      <trkpt lat="47.14394" lon="6.03371">
        <ele>471.2</ele>
        <time>2022-08-10T06:49:50Z</time>
      </trkpt>
      <trkpt lat="47.14394" lon="6.03371">
        <ele>471.2</ele>
        <time>2022-08-10T06:49:51Z</time>
      </trkpt>
      <trkpt lat="47.14394" lon="6.03371">
        <ele>471.2</ele>
        <time>2022-08-10T06:49:52Z</time>
      </trkpt>
      <trkpt lat="47.14394" lon="6.03371">
        <ele>471.2</ele>
        <time>2022-08-10T06:49:53Z</time>
      </trkpt>
      <trkpt lat="47.14394" lon="6.03371">
        <ele>471.2</ele>
        <time>2022-08-10T06:49:54Z</time>
      </trkpt>
      <trkpt lat="47.14394" lon="6.03371">
        <ele>471.2</ele>
        <time>2022-08-10T06:49:55Z</time>
      </trkpt>
      <trkpt lat="47.14394" lon="6.03371">
        <ele>471.2</ele>
        <time>2022-08-10T06:49:56Z</time>
      </trkpt>
      <trkpt lat="47.14394" lon="6.03371">
        <ele>471.2</ele>
        <time>2022-08-10T06:49:57Z</time>
      </trkpt>
      <trkpt lat="47.14394" lon="6.03371">
        <ele>471.2</ele>
        <time>2022-08-10T06:49:58Z</time>
      </trkpt>
      <trkpt lat="47.14394" lon="6.03371">
        <ele>471.2</ele>
        <time>2022-08-10T06:49:59Z</time>
      </trkpt>
      <trkpt lat="47.14394" lon="6.03371">
        <ele>471.2</ele>
        <time>2022-08-10T06:50:00Z</time>
      </trkpt>
      <trkpt lat="47.14394" lon="6.03371">
        <ele>471.2</ele>
        <time>2022-08-10T06:50:01Z</time>
      </trkpt>
      <trkpt lat="47.14394" lon="6.03371">
        <ele>471.2</ele>
        <time>2022-08-10T06:50:02Z</time>
      </trkpt>
      <trkpt lat="47.14394" lon="6.03371">
        <ele>471.2</ele>
        <time>2022-08-10T06:50:03Z</time>
      </trkpt>
      <trkpt lat="47.14394" lon="6.03371">
        <ele>471.2</ele>
        <time>2022-08-10T06:50:04Z</time>
      </trkpt>
      <trkpt lat="47.14394" lon="6.03371">
        <ele>471.2</ele>
        <time>2022-08-10T06:50:05Z</time>
      </trkpt>
      <trkpt lat="47.14394" lon="6.03371">
        <ele>471.2</ele>
        <time>2022-08-10T06:50:06Z</time>
      </trkpt>
      <trkpt lat="47.14394" lon="6.03371">
        <ele>471.2</ele>
        <time>2022-08-10T06:50:07Z</time>
      </trkpt>
      <trkpt lat="47.14394" lon="6.03371">
        <ele>471.2</ele>
        <time>2022-08-10T06:50:08Z</time>
      </trkpt>
      <trkpt lat="47.14394" lon="6.03371">
        <ele>471.2</ele>
        <time>2022-08-10T06:50:09Z</time>
      </trkpt>
      <trkpt lat="47.14394" lon="6.03371">
        <ele>471.2</ele>
        <time>2022-08-10T06:50:10Z</time>
      </trkpt>
      <trkpt lat="47.14394" lon="6.03371">
        <ele>471.2</ele>
        <time>2022-08-10T06:50:11Z</time>
      </trkpt>
      <trkpt lat="47.14394" lon="6.03371">
        <ele>471.2</ele>
        <time>2022-08-10T06:50:12Z</time>
      </trkpt>
      <trkpt lat="47.14394" lon="6.03371">
        <ele>471.2</ele>
        <time>2022-08-10T06:50:13Z</time>
      </trkpt>
      <trkpt lat="47.14394" lon="6.03371">
        <ele>471.2</ele>
        <time>2022-08-10T06:50:14Z</time>
      </trkpt>
      <trkpt lat="47.14394" lon="6.03371">
        <ele>471.2</ele>
        <time>2022-08-10T06:50:15Z</time>
      </trkpt>
      <trkpt lat="47.14394" lon="6.03371">
        <ele>471.2</ele>
        <time>2022-08-10T06:50:16Z</time>
      </trkpt>
      <trkpt lat="47.14394" lon="6.03371">
        <ele>471.2</ele>
        <time>2022-08-10T06:50:17Z</time>
      </trkpt>
      <trkpt lat="47.14394" lon="6.03371">
        <ele>471.2</ele>
        <time>2022-08-10T06:50:18Z</time>
      </trkpt>
      <trkpt lat="47.14394" lon="6.03371">
        <ele>471.2</ele>
        <time>2022-08-10T06:50:19Z</time>
      </trkpt>
      <trkpt lat="47.14394" lon="6.03371">
        <ele>471.2</ele>
        <time>2022-08-10T06:50:20Z</time>
      </trkpt>
      <trkpt lat="47.14394" lon="6.03371">
        <ele>471.2</ele>
        <time>2022-08-10T06:50:21Z</time>
      </trkpt>
      <trkpt lat="47.14394" lon="6.03371">
        <ele>471.2</ele>
        <time>2022-08-10T06:50:22Z</time>
      </trkpt>
      <trkpt lat="47.14394" lon="6.03371">
        <ele>471.2</ele>
        <time>2022-08-10T06:50:23Z</time>
      </trkpt>
      <trkpt lat="47.14394" lon="6.03371">
        <ele>471.2</ele>
        <time>2022-08-10T06:50:24Z</time>
      </trkpt>
      <trkpt lat="47.14394" lon="6.03371">
        <ele>471.2</ele>
        <time>2022-08-10T06:50:25Z</time>
      </trkpt>
      <trkpt lat="47.14394" lon="6.03371">
        <ele>471.2</ele>
        <time>2022-08-10T06:50:26Z</time>
      </trkpt>
      <trkpt lat="47.14394" lon="6.03371">
        <ele>471.2</ele>
        <time>2022-08-10T06:50:27Z</time>
      </trkpt>
      <trkpt lat="47.14396" lon="6.03381">
        <ele>471.2</ele>
        <time>2022-08-10T06:50:28Z</time>
      </trkpt>
      <trkpt lat="47.14398" lon="6.03384">
        <ele>471.2</ele>
        <time>2022-08-10T06:50:29Z</time>
      </trkpt>
      <trkpt lat="47.144" lon="6.03386">
        <ele>471.1</ele>
        <time>2022-08-10T06:50:30Z</time>
      </trkpt>
      <trkpt lat="47.14402" lon="6.03389">
        <ele>471.2</ele>
        <time>2022-08-10T06:50:31Z</time>
      </trkpt>
      <trkpt lat="47.14404" lon="6.03392">
        <ele>471.5</ele>
        <time>2022-08-10T06:50:32Z</time>
      </trkpt>
      <trkpt lat="47.14407" lon="6.03396">
        <ele>471.8</ele>
        <time>2022-08-10T06:50:33Z</time>
      </trkpt>
      <trkpt lat="47.14409" lon="6.03399">
        <ele>471.5</ele>
        <time>2022-08-10T06:50:34Z</time>
      </trkpt>
      <trkpt lat="47.14412" lon="6.03403">
        <ele>471.2</ele>
        <time>2022-08-10T06:50:35Z</time>
      </trkpt>
      <trkpt lat="47.14415" lon="6.03407">
        <ele>471.1</ele>
        <time>2022-08-10T06:50:36Z</time>
      </trkpt>
      <trkpt lat="47.14418" lon="6.03411">
        <ele>471.3</ele>
        <time>2022-08-10T06:50:37Z</time>
      </trkpt>
      <trkpt lat="47.14421" lon="6.03416">
        <ele>471.1</ele>
        <time>2022-08-10T06:50:38Z</time>
      </trkpt>
      <trkpt lat="47.14424" lon="6.0342">
        <ele>470.4</ele>
        <time>2022-08-10T06:50:39Z</time>
      </trkpt>
      <trkpt lat="47.14427" lon="6.03425">
        <ele>470</ele>
        <time>2022-08-10T06:50:40Z</time>
      </trkpt>
      <trkpt lat="47.14429" lon="6.0343">
        <ele>469.8</ele>
        <time>2022-08-10T06:50:41Z</time>
      </trkpt>
      <trkpt lat="47.14433" lon="6.03435">
        <ele>469.2</ele>
        <time>2022-08-10T06:50:42Z</time>
      </trkpt>
      <trkpt lat="47.14436" lon="6.03439">
        <ele>468.4</ele>
        <time>2022-08-10T06:50:43Z</time>
      </trkpt>
      <trkpt lat="47.1444" lon="6.03444">
        <ele>467.9</ele>
        <time>2022-08-10T06:50:44Z</time>
      </trkpt>
      <trkpt lat="47.14443" lon="6.03448">
        <ele>467.2</ele>
        <time>2022-08-10T06:50:45Z</time>
      </trkpt>
      <trkpt lat="47.14447" lon="6.03452">
        <ele>466.9</ele>
        <time>2022-08-10T06:50:46Z</time>
      </trkpt>
      <trkpt lat="47.1445" lon="6.03457">
        <ele>466.5</ele>
        <time>2022-08-10T06:50:47Z</time>
      </trkpt>
      <trkpt lat="47.14453" lon="6.03461">
        <ele>466.3</ele>
        <time>2022-08-10T06:50:48Z</time>
      </trkpt>
      <trkpt lat="47.14456" lon="6.03466">
        <ele>466.2</ele>
        <time>2022-08-10T06:50:49Z</time>
      </trkpt>
      <trkpt lat="47.14459" lon="6.0347">
        <ele>465.7</ele>
        <time>2022-08-10T06:50:50Z</time>
      </trkpt>
      <trkpt lat="47.14462" lon="6.03474">
        <ele>464.9</ele>
        <time>2022-08-10T06:50:51Z</time>
      </trkpt>
      <trkpt lat="47.14465" lon="6.03479">
        <ele>464.2</ele>
        <time>2022-08-10T06:50:52Z</time>
      </trkpt>
      <trkpt lat="47.14467" lon="6.03483">
        <ele>463.7</ele>
        <time>2022-08-10T06:50:53Z</time>
      </trkpt>
      <trkpt lat="47.1447" lon="6.03488">
        <ele>463.1</ele>
        <time>2022-08-10T06:50:54Z</time>
      </trkpt>
      <trkpt lat="47.14473" lon="6.03492">
        <ele>462.4</ele>
        <time>2022-08-10T06:50:55Z</time>
      </trkpt>
      <trkpt lat="47.14476" lon="6.03496">
        <ele>461.6</ele>
        <time>2022-08-10T06:50:56Z</time>
      </trkpt>
      <trkpt lat="47.14478" lon="6.03501">
        <ele>461.1</ele>
        <time>2022-08-10T06:50:57Z</time>
      </trkpt>
      <trkpt lat="47.14481" lon="6.03505">
        <ele>460.5</ele>
        <time>2022-08-10T06:50:58Z</time>
      </trkpt>
      <trkpt lat="47.14483" lon="6.03511">
        <ele>459.7</ele>
        <time>2022-08-10T06:50:59Z</time>
      </trkpt>
      <trkpt lat="47.14485" lon="6.03516">
        <ele>459.2</ele>
        <time>2022-08-10T06:51:00Z</time>
      </trkpt>
      <trkpt lat="47.14486" lon="6.03522">
        <ele>458.8</ele>
        <time>2022-08-10T06:51:01Z</time>
      </trkpt>
      <trkpt lat="47.14487" lon="6.03528">
        <ele>458.2</ele>
        <time>2022-08-10T06:51:02Z</time>
      </trkpt>
      <trkpt lat="47.14486" lon="6.03534">
        <ele>457.8</ele>
        <time>2022-08-10T06:51:03Z</time>
      </trkpt>
      <trkpt lat="47.14486" lon="6.0354">
        <ele>457.4</ele>
        <time>2022-08-10T06:51:04Z</time>
      </trkpt>
      <trkpt lat="47.14486" lon="6.03546">
        <ele>457.2</ele>
        <time>2022-08-10T06:51:05Z</time>
      </trkpt>
      <trkpt lat="47.14486" lon="6.03552">
        <ele>457.4</ele>
        <time>2022-08-10T06:51:06Z</time>
      </trkpt>
      <trkpt lat="47.14485" lon="6.03558">
        <ele>457.6</ele>
        <time>2022-08-10T06:51:07Z</time>
      </trkpt>
      <trkpt lat="47.14485" lon="6.03564">
        <ele>458</ele>
        <time>2022-08-10T06:51:08Z</time>
      </trkpt>
      <trkpt lat="47.14485" lon="6.0357">
        <ele>457.9</ele>
        <time>2022-08-10T06:51:09Z</time>
      </trkpt>
      <trkpt lat="47.14485" lon="6.03576">
        <ele>458</ele>
        <time>2022-08-10T06:51:10Z</time>
      </trkpt>
      <trkpt lat="47.14484" lon="6.03582">
        <ele>458.2</ele>
        <time>2022-08-10T06:51:11Z</time>
      </trkpt>
      <trkpt lat="47.14484" lon="6.03589">
        <ele>458.5</ele>
        <time>2022-08-10T06:51:12Z</time>
      </trkpt>
      <trkpt lat="47.14483" lon="6.03595">
        <ele>458.5</ele>
        <time>2022-08-10T06:51:13Z</time>
      </trkpt>
      <trkpt lat="47.14483" lon="6.03601">
        <ele>458.7</ele>
        <time>2022-08-10T06:51:14Z</time>
      </trkpt>
      <trkpt lat="47.14482" lon="6.03608">
        <ele>458.4</ele>
        <time>2022-08-10T06:51:15Z</time>
      </trkpt>
      <trkpt lat="47.14482" lon="6.03616">
        <ele>458.1</ele>
        <time>2022-08-10T06:51:16Z</time>
      </trkpt>
      <trkpt lat="47.14482" lon="6.03624">
        <ele>457.9</ele>
        <time>2022-08-10T06:51:17Z</time>
      </trkpt>
      <trkpt lat="47.14482" lon="6.03631">
        <ele>457.6</ele>
        <time>2022-08-10T06:51:18Z</time>
      </trkpt>
      <trkpt lat="47.14482" lon="6.03639">
        <ele>457.5</ele>
        <time>2022-08-10T06:51:19Z</time>
      </trkpt>
      <trkpt lat="47.14484" lon="6.03647">
        <ele>457.3</ele>
        <time>2022-08-10T06:51:20Z</time>
      </trkpt>
      <trkpt lat="47.14486" lon="6.03655">
        <ele>456.9</ele>
        <time>2022-08-10T06:51:21Z</time>
      </trkpt>
      <trkpt lat="47.14487" lon="6.03663">
        <ele>456.7</ele>
        <time>2022-08-10T06:51:22Z</time>
      </trkpt>
      <trkpt lat="47.14489" lon="6.0367">
        <ele>456.4</ele>
        <time>2022-08-10T06:51:23Z</time>
      </trkpt>
      <trkpt lat="47.14491" lon="6.03678">
        <ele>456.4</ele>
        <time>2022-08-10T06:51:24Z</time>
      </trkpt>
      <trkpt lat="47.14492" lon="6.03685">
        <ele>456.3</ele>
        <time>2022-08-10T06:51:25Z</time>
      </trkpt>
      <trkpt lat="47.14494" lon="6.03693">
        <ele>456.4</ele>
        <time>2022-08-10T06:51:26Z</time>
      </trkpt>
      <trkpt lat="47.14496" lon="6.037">
        <ele>456.1</ele>
        <time>2022-08-10T06:51:27Z</time>
      </trkpt>
      <trkpt lat="47.14498" lon="6.03708">
        <ele>456</ele>
        <time>2022-08-10T06:51:28Z</time>
      </trkpt>
      <trkpt lat="47.145" lon="6.03715">
        <ele>455.8</ele>
        <time>2022-08-10T06:51:29Z</time>
      </trkpt>
      <trkpt lat="47.14501" lon="6.03723">
        <ele>455.6</ele>
        <time>2022-08-10T06:51:30Z</time>
      </trkpt>
      <trkpt lat="47.14503" lon="6.03731">
        <ele>455.8</ele>
        <time>2022-08-10T06:51:31Z</time>
      </trkpt>
      <trkpt lat="47.14504" lon="6.03739">
        <ele>456.2</ele>
        <time>2022-08-10T06:51:32Z</time>
      </trkpt>
      <trkpt lat="47.14505" lon="6.03747">
        <ele>457.1</ele>
        <time>2022-08-10T06:51:33Z</time>
      </trkpt>
      <trkpt lat="47.14505" lon="6.03756">
        <ele>457.8</ele>
        <time>2022-08-10T06:51:34Z</time>
      </trkpt>
      <trkpt lat="47.14506" lon="6.03764">
        <ele>458.4</ele>
        <time>2022-08-10T06:51:35Z</time>
      </trkpt>
      <trkpt lat="47.14507" lon="6.03772">
        <ele>458.9</ele>
        <time>2022-08-10T06:51:36Z</time>
      </trkpt>
      <trkpt lat="47.14507" lon="6.0378">
        <ele>459.5</ele>
        <time>2022-08-10T06:51:37Z</time>
      </trkpt>
      <trkpt lat="47.14506" lon="6.03787">
        <ele>459.8</ele>
        <time>2022-08-10T06:51:38Z</time>
      </trkpt>
      <trkpt lat="47.14506" lon="6.03795">
        <ele>459.9</ele>
        <time>2022-08-10T06:51:39Z</time>
      </trkpt>
      <trkpt lat="47.14505" lon="6.03804">
        <ele>459.6</ele>
        <time>2022-08-10T06:51:40Z</time>
      </trkpt>
      <trkpt lat="47.14505" lon="6.03812">
        <ele>459.4</ele>
        <time>2022-08-10T06:51:41Z</time>
      </trkpt>
      <trkpt lat="47.14504" lon="6.0382">
        <ele>459.3</ele>
        <time>2022-08-10T06:51:42Z</time>
      </trkpt>
      <trkpt lat="47.14503" lon="6.03829">
        <ele>459.3</ele>
        <time>2022-08-10T06:51:43Z</time>
      </trkpt>
      <trkpt lat="47.14502" lon="6.03837">
        <ele>459.2</ele>
        <time>2022-08-10T06:51:44Z</time>
      </trkpt>
      <trkpt lat="47.14501" lon="6.03845">
        <ele>459.2</ele>
        <time>2022-08-10T06:51:45Z</time>
      </trkpt>
      <trkpt lat="47.14499" lon="6.03853">
        <ele>459.2</ele>
        <time>2022-08-10T06:51:46Z</time>
      </trkpt>
      <trkpt lat="47.14497" lon="6.03861">
        <ele>459.4</ele>
        <time>2022-08-10T06:51:47Z</time>
      </trkpt>
      <trkpt lat="47.14496" lon="6.03868">
        <ele>459.6</ele>
        <time>2022-08-10T06:51:48Z</time>
      </trkpt>
      <trkpt lat="47.14494" lon="6.03876">
        <ele>459.7</ele>
        <time>2022-08-10T06:51:49Z</time>
      </trkpt>
      <trkpt lat="47.14492" lon="6.03883">
        <ele>459.9</ele>
        <time>2022-08-10T06:51:50Z</time>
      </trkpt>
      <trkpt lat="47.14491" lon="6.0389">
        <ele>459.9</ele>
        <time>2022-08-10T06:51:51Z</time>
      </trkpt>
      <trkpt lat="47.14489" lon="6.03898">
        <ele>459.9</ele>
        <time>2022-08-10T06:51:52Z</time>
      </trkpt>
      <trkpt lat="47.14488" lon="6.03905">
        <ele>460.2</ele>
        <time>2022-08-10T06:51:53Z</time>
      </trkpt>
      <trkpt lat="47.14486" lon="6.03912">
        <ele>460.6</ele>
        <time>2022-08-10T06:51:54Z</time>
      </trkpt>
      <trkpt lat="47.14485" lon="6.0392">
        <ele>460.7</ele>
        <time>2022-08-10T06:51:55Z</time>
      </trkpt>
      <trkpt lat="47.14484" lon="6.03927">
        <ele>460.7</ele>
        <time>2022-08-10T06:51:56Z</time>
      </trkpt>
      <trkpt lat="47.14483" lon="6.03935">
        <ele>461.1</ele>
        <time>2022-08-10T06:51:57Z</time>
      </trkpt>
      <trkpt lat="47.14482" lon="6.03942">
        <ele>461.7</ele>
        <time>2022-08-10T06:51:58Z</time>
      </trkpt>
      <trkpt lat="47.14481" lon="6.03949">
        <ele>462.3</ele>
        <time>2022-08-10T06:51:59Z</time>
      </trkpt>
      <trkpt lat="47.1448" lon="6.03956">
        <ele>462.7</ele>
        <time>2022-08-10T06:52:00Z</time>
      </trkpt>
      <trkpt lat="47.1448" lon="6.03964">
        <ele>463.1</ele>
        <time>2022-08-10T06:52:01Z</time>
      </trkpt>
      <trkpt lat="47.14479" lon="6.03971">
        <ele>463.3</ele>
        <time>2022-08-10T06:52:02Z</time>
      </trkpt>
      <trkpt lat="47.14478" lon="6.03978">
        <ele>463.5</ele>
        <time>2022-08-10T06:52:03Z</time>
      </trkpt>
      <trkpt lat="47.14478" lon="6.03985">
        <ele>463.5</ele>
        <time>2022-08-10T06:52:04Z</time>
      </trkpt>
      <trkpt lat="47.14477" lon="6.03993">
        <ele>463.2</ele>
        <time>2022-08-10T06:52:05Z</time>
      </trkpt>
      <trkpt lat="47.14476" lon="6.04">
        <ele>463.1</ele>
        <time>2022-08-10T06:52:06Z</time>
      </trkpt>
      <trkpt lat="47.14475" lon="6.04008">
        <ele>462.8</ele>
        <time>2022-08-10T06:52:07Z</time>
      </trkpt>
      <trkpt lat="47.14475" lon="6.04016">
        <ele>462.5</ele>
        <time>2022-08-10T06:52:08Z</time>
      </trkpt>
      <trkpt lat="47.14474" lon="6.04024">
        <ele>462</ele>
        <time>2022-08-10T06:52:09Z</time>
      </trkpt>
      <trkpt lat="47.14473" lon="6.04032">
        <ele>462</ele>
        <time>2022-08-10T06:52:10Z</time>
      </trkpt>
      <trkpt lat="47.14472" lon="6.04041">
        <ele>462</ele>
        <time>2022-08-10T06:52:11Z</time>
      </trkpt>
      <trkpt lat="47.1447" lon="6.04049">
        <ele>462</ele>
        <time>2022-08-10T06:52:12Z</time>
      </trkpt>
      <trkpt lat="47.14469" lon="6.04057">
        <ele>461.9</ele>
        <time>2022-08-10T06:52:13Z</time>
      </trkpt>
      <trkpt lat="47.14467" lon="6.04065">
        <ele>462.3</ele>
        <time>2022-08-10T06:52:14Z</time>
      </trkpt>
      <trkpt lat="47.14465" lon="6.04073">
        <ele>462.3</ele>
        <time>2022-08-10T06:52:15Z</time>
      </trkpt>
      <trkpt lat="47.14464" lon="6.04081">
        <ele>462.2</ele>
        <time>2022-08-10T06:52:16Z</time>
      </trkpt>
      <trkpt lat="47.14462" lon="6.04088">
        <ele>462.2</ele>
        <time>2022-08-10T06:52:17Z</time>
      </trkpt>
      <trkpt lat="47.1446" lon="6.04096">
        <ele>462.1</ele>
        <time>2022-08-10T06:52:18Z</time>
      </trkpt>
      <trkpt lat="47.14459" lon="6.04103">
        <ele>462.7</ele>
        <time>2022-08-10T06:52:19Z</time>
      </trkpt>
      <trkpt lat="47.14458" lon="6.04111">
        <ele>462.9</ele>
        <time>2022-08-10T06:52:20Z</time>
      </trkpt>
      <trkpt lat="47.14456" lon="6.04119">
        <ele>462.8</ele>
        <time>2022-08-10T06:52:21Z</time>
      </trkpt>
      <trkpt lat="47.14454" lon="6.04127">
        <ele>462.7</ele>
        <time>2022-08-10T06:52:22Z</time>
      </trkpt>
      <trkpt lat="47.14452" lon="6.04136">
        <ele>462.8</ele>
        <time>2022-08-10T06:52:23Z</time>
      </trkpt>
      <trkpt lat="47.14451" lon="6.04144">
        <ele>462.8</ele>
        <time>2022-08-10T06:52:24Z</time>
      </trkpt>
      <trkpt lat="47.14449" lon="6.04152">
        <ele>462.6</ele>
        <time>2022-08-10T06:52:25Z</time>
      </trkpt>
      <trkpt lat="47.14447" lon="6.04159">
        <ele>462.4</ele>
        <time>2022-08-10T06:52:26Z</time>
      </trkpt>
      <trkpt lat="47.14445" lon="6.04167">
        <ele>462.4</ele>
        <time>2022-08-10T06:52:27Z</time>
      </trkpt>
      <trkpt lat="47.14443" lon="6.04175">
        <ele>462.7</ele>
        <time>2022-08-10T06:52:28Z</time>
      </trkpt>
      <trkpt lat="47.14442" lon="6.04182">
        <ele>462.7</ele>
        <time>2022-08-10T06:52:29Z</time>
      </trkpt>
      <trkpt lat="47.14441" lon="6.0419">
        <ele>462.7</ele>
        <time>2022-08-10T06:52:30Z</time>
      </trkpt>
      <trkpt lat="47.14439" lon="6.04197">
        <ele>462.8</ele>
        <time>2022-08-10T06:52:31Z</time>
      </trkpt>
      <trkpt lat="47.14437" lon="6.04204">
        <ele>463</ele>
        <time>2022-08-10T06:52:32Z</time>
      </trkpt>
      <trkpt lat="47.14435" lon="6.04211">
        <ele>463.5</ele>
        <time>2022-08-10T06:52:33Z</time>
      </trkpt>
      <trkpt lat="47.14434" lon="6.04218">
        <ele>463.7</ele>
        <time>2022-08-10T06:52:34Z</time>
      </trkpt>
      <trkpt lat="47.14432" lon="6.04224">
        <ele>464</ele>
        <time>2022-08-10T06:52:35Z</time>
      </trkpt>
      <trkpt lat="47.1443" lon="6.04231">
        <ele>464.1</ele>
        <time>2022-08-10T06:52:36Z</time>
      </trkpt>
      <trkpt lat="47.14428" lon="6.04238">
        <ele>464.4</ele>
        <time>2022-08-10T06:52:37Z</time>
      </trkpt>
      <trkpt lat="47.14426" lon="6.04246">
        <ele>464.4</ele>
        <time>2022-08-10T06:52:38Z</time>
      </trkpt>
      <trkpt lat="47.14424" lon="6.04253">
        <ele>464.3</ele>
        <time>2022-08-10T06:52:39Z</time>
      </trkpt>
      <trkpt lat="47.14423" lon="6.0426">
        <ele>464.2</ele>
        <time>2022-08-10T06:52:40Z</time>
      </trkpt>
      <trkpt lat="47.14421" lon="6.04268">
        <ele>464.1</ele>
        <time>2022-08-10T06:52:41Z</time>
      </trkpt>
      <trkpt lat="47.14419" lon="6.04276">
        <ele>464.1</ele>
        <time>2022-08-10T06:52:42Z</time>
      </trkpt>
      <trkpt lat="47.14418" lon="6.04283">
        <ele>464.2</ele>
        <time>2022-08-10T06:52:43Z</time>
      </trkpt>
      <trkpt lat="47.14416" lon="6.04289">
        <ele>464.5</ele>
        <time>2022-08-10T06:52:44Z</time>
      </trkpt>
      <trkpt lat="47.14415" lon="6.04297">
        <ele>464.5</ele>
        <time>2022-08-10T06:52:45Z</time>
      </trkpt>
      <trkpt lat="47.14413" lon="6.04304">
        <ele>464.5</ele>
        <time>2022-08-10T06:52:46Z</time>
      </trkpt>
      <trkpt lat="47.14412" lon="6.04312">
        <ele>464.5</ele>
        <time>2022-08-10T06:52:47Z</time>
      </trkpt>
      <trkpt lat="47.14411" lon="6.04319">
        <ele>464.7</ele>
        <time>2022-08-10T06:52:48Z</time>
      </trkpt>
      <trkpt lat="47.14409" lon="6.04326">
        <ele>464.6</ele>
        <time>2022-08-10T06:52:49Z</time>
      </trkpt>
      <trkpt lat="47.14408" lon="6.04334">
        <ele>464.3</ele>
        <time>2022-08-10T06:52:50Z</time>
      </trkpt>
      <trkpt lat="47.14405" lon="6.04341">
        <ele>464.2</ele>
        <time>2022-08-10T06:52:51Z</time>
      </trkpt>
      <trkpt lat="47.14403" lon="6.04349">
        <ele>464.3</ele>
        <time>2022-08-10T06:52:52Z</time>
      </trkpt>
      <trkpt lat="47.14401" lon="6.04357">
        <ele>464.2</ele>
        <time>2022-08-10T06:52:53Z</time>
      </trkpt>
      <trkpt lat="47.144" lon="6.04365">
        <ele>463.8</ele>
        <time>2022-08-10T06:52:54Z</time>
      </trkpt>
      <trkpt lat="47.14398" lon="6.04373">
        <ele>463.8</ele>
        <time>2022-08-10T06:52:55Z</time>
      </trkpt>
      <trkpt lat="47.14396" lon="6.04381">
        <ele>463.6</ele>
        <time>2022-08-10T06:52:56Z</time>
      </trkpt>
      <trkpt lat="47.14395" lon="6.04389">
        <ele>463.1</ele>
        <time>2022-08-10T06:52:57Z</time>
      </trkpt>
      <trkpt lat="47.14393" lon="6.04397">
        <ele>462.7</ele>
        <time>2022-08-10T06:52:58Z</time>
      </trkpt>
      <trkpt lat="47.14392" lon="6.04405">
        <ele>462.6</ele>
        <time>2022-08-10T06:52:59Z</time>
      </trkpt>
      <trkpt lat="47.1439" lon="6.04413">
        <ele>462.4</ele>
        <time>2022-08-10T06:53:00Z</time>
      </trkpt>
      <trkpt lat="47.14389" lon="6.04421">
        <ele>462.4</ele>
        <time>2022-08-10T06:53:01Z</time>
      </trkpt>
      <trkpt lat="47.14387" lon="6.04429">
        <ele>462.1</ele>
        <time>2022-08-10T06:53:02Z</time>
      </trkpt>
      <trkpt lat="47.14385" lon="6.04437">
        <ele>462.1</ele>
        <time>2022-08-10T06:53:03Z</time>
      </trkpt>
      <trkpt lat="47.14384" lon="6.04444">
        <ele>461.9</ele>
        <time>2022-08-10T06:53:04Z</time>
      </trkpt>
      <trkpt lat="47.14382" lon="6.04452">
        <ele>461.5</ele>
        <time>2022-08-10T06:53:05Z</time>
      </trkpt>
      <trkpt lat="47.14381" lon="6.0446">
        <ele>461.5</ele>
        <time>2022-08-10T06:53:06Z</time>
      </trkpt>
      <trkpt lat="47.14379" lon="6.04468">
        <ele>461.3</ele>
        <time>2022-08-10T06:53:07Z</time>
      </trkpt>
      <trkpt lat="47.14378" lon="6.04476">
        <ele>461</ele>
        <time>2022-08-10T06:53:08Z</time>
      </trkpt>
      <trkpt lat="47.14376" lon="6.04484">
        <ele>461</ele>
        <time>2022-08-10T06:53:09Z</time>
      </trkpt>
      <trkpt lat="47.14375" lon="6.04492">
        <ele>460.9</ele>
        <time>2022-08-10T06:53:10Z</time>
      </trkpt>
      <trkpt lat="47.14374" lon="6.04499">
        <ele>460.9</ele>
        <time>2022-08-10T06:53:11Z</time>
      </trkpt>
      <trkpt lat="47.14373" lon="6.04507">
        <ele>460.9</ele>
        <time>2022-08-10T06:53:12Z</time>
      </trkpt>
      <trkpt lat="47.14372" lon="6.04515">
        <ele>460.6</ele>
        <time>2022-08-10T06:53:13Z</time>
      </trkpt>
      <trkpt lat="47.14373" lon="6.04523">
        <ele>460.3</ele>
        <time>2022-08-10T06:53:14Z</time>
      </trkpt>
      <trkpt lat="47.14374" lon="6.04532">
        <ele>460.2</ele>
        <time>2022-08-10T06:53:15Z</time>
      </trkpt>
      <trkpt lat="47.14375" lon="6.0454">
        <ele>459.9</ele>
        <time>2022-08-10T06:53:16Z</time>
      </trkpt>
      <trkpt lat="47.14377" lon="6.04548">
        <ele>460.1</ele>
        <time>2022-08-10T06:53:17Z</time>
      </trkpt>
      <trkpt lat="47.14379" lon="6.04556">
        <ele>460.5</ele>
        <time>2022-08-10T06:53:18Z</time>
      </trkpt>
      <trkpt lat="47.14381" lon="6.04565">
        <ele>459.9</ele>
        <time>2022-08-10T06:53:19Z</time>
      </trkpt>
      <trkpt lat="47.14383" lon="6.04572">
        <ele>459.7</ele>
        <time>2022-08-10T06:53:20Z</time>
      </trkpt>
      <trkpt lat="47.14385" lon="6.0458">
        <ele>459.6</ele>
        <time>2022-08-10T06:53:21Z</time>
      </trkpt>
      <trkpt lat="47.14386" lon="6.04588">
        <ele>460.4</ele>
        <time>2022-08-10T06:53:22Z</time>
      </trkpt>
      <trkpt lat="47.14386" lon="6.04596">
        <ele>460.9</ele>
        <time>2022-08-10T06:53:23Z</time>
      </trkpt>
      <trkpt lat="47.14386" lon="6.04604">
        <ele>461.6</ele>
        <time>2022-08-10T06:53:24Z</time>
      </trkpt>
      <trkpt lat="47.14385" lon="6.0461">
        <ele>462.5</ele>
        <time>2022-08-10T06:53:25Z</time>
      </trkpt>
      <trkpt lat="47.14383" lon="6.04616">
        <ele>463.4</ele>
        <time>2022-08-10T06:53:26Z</time>
      </trkpt>
      <trkpt lat="47.14378" lon="6.04621">
        <ele>463</ele>
        <time>2022-08-10T06:53:27Z</time>
      </trkpt>
      <trkpt lat="47.14373" lon="6.04625">
        <ele>463.1</ele>
        <time>2022-08-10T06:53:28Z</time>
      </trkpt>
      <trkpt lat="47.14368" lon="6.04627">
        <ele>463</ele>
        <time>2022-08-10T06:53:29Z</time>
      </trkpt>
      <trkpt lat="47.14362" lon="6.0463">
        <ele>462.5</ele>
        <time>2022-08-10T06:53:30Z</time>
      </trkpt>
      <trkpt lat="47.14357" lon="6.04633">
        <ele>462.1</ele>
        <time>2022-08-10T06:53:31Z</time>
      </trkpt>
      <trkpt lat="47.14352" lon="6.04636">
        <ele>461.5</ele>
        <time>2022-08-10T06:53:32Z</time>
      </trkpt>
      <trkpt lat="47.14347" lon="6.04639">
        <ele>461.3</ele>
        <time>2022-08-10T06:53:33Z</time>
      </trkpt>
      <trkpt lat="47.14342" lon="6.04642">
        <ele>461.3</ele>
        <time>2022-08-10T06:53:34Z</time>
      </trkpt>
      <trkpt lat="47.14337" lon="6.04646">
        <ele>461.6</ele>
        <time>2022-08-10T06:53:35Z</time>
      </trkpt>
      <trkpt lat="47.14333" lon="6.04651">
        <ele>461.5</ele>
        <time>2022-08-10T06:53:36Z</time>
      </trkpt>
      <trkpt lat="47.14329" lon="6.04656">
        <ele>461.3</ele>
        <time>2022-08-10T06:53:37Z</time>
      </trkpt>
      <trkpt lat="47.14324" lon="6.04661">
        <ele>461.1</ele>
        <time>2022-08-10T06:53:38Z</time>
      </trkpt>
      <trkpt lat="47.1432" lon="6.04666">
        <ele>460.9</ele>
        <time>2022-08-10T06:53:39Z</time>
      </trkpt>
      <trkpt lat="47.14315" lon="6.04671">
        <ele>460.7</ele>
        <time>2022-08-10T06:53:40Z</time>
      </trkpt>
      <trkpt lat="47.14311" lon="6.04676">
        <ele>460.3</ele>
        <time>2022-08-10T06:53:41Z</time>
      </trkpt>
      <trkpt lat="47.14307" lon="6.0468">
        <ele>460.4</ele>
        <time>2022-08-10T06:53:42Z</time>
      </trkpt>
      <trkpt lat="47.14303" lon="6.04684">
        <ele>460.4</ele>
        <time>2022-08-10T06:53:43Z</time>
      </trkpt>
      <trkpt lat="47.143" lon="6.04687">
        <ele>460.5</ele>
        <time>2022-08-10T06:53:44Z</time>
      </trkpt>
      <trkpt lat="47.14298" lon="6.0469">
        <ele>460.3</ele>
        <time>2022-08-10T06:53:45Z</time>
      </trkpt>
      <trkpt lat="47.14296" lon="6.04693">
        <ele>460.3</ele>
        <time>2022-08-10T06:53:46Z</time>
      </trkpt>
      <trkpt lat="47.14294" lon="6.04696">
        <ele>460.4</ele>
        <time>2022-08-10T06:53:47Z</time>
      </trkpt>
      <trkpt lat="47.14293" lon="6.04699">
        <ele>460.5</ele>
        <time>2022-08-10T06:53:48Z</time>
      </trkpt>
      <trkpt lat="47.1429" lon="6.04704">
        <ele>460.1</ele>
        <time>2022-08-10T06:53:49Z</time>
      </trkpt>
      <trkpt lat="47.14288" lon="6.0471">
        <ele>459.8</ele>
        <time>2022-08-10T06:53:50Z</time>
      </trkpt>
      <trkpt lat="47.14285" lon="6.04716">
        <ele>459.8</ele>
        <time>2022-08-10T06:53:51Z</time>
      </trkpt>
      <trkpt lat="47.14282" lon="6.04722">
        <ele>459.7</ele>
        <time>2022-08-10T06:53:52Z</time>
      </trkpt>
      <trkpt lat="47.14279" lon="6.04729">
        <ele>459.7</ele>
        <time>2022-08-10T06:53:53Z</time>
      </trkpt>
      <trkpt lat="47.14276" lon="6.04736">
        <ele>459.5</ele>
        <time>2022-08-10T06:53:54Z</time>
      </trkpt>
      <trkpt lat="47.14273" lon="6.04743">
        <ele>459.3</ele>
        <time>2022-08-10T06:53:55Z</time>
      </trkpt>
      <trkpt lat="47.14269" lon="6.0475">
        <ele>458.8</ele>
        <time>2022-08-10T06:53:56Z</time>
      </trkpt>
      <trkpt lat="47.14266" lon="6.04757">
        <ele>458.3</ele>
        <time>2022-08-10T06:53:57Z</time>
      </trkpt>
      <trkpt lat="47.14263" lon="6.04763">
        <ele>458.3</ele>
        <time>2022-08-10T06:53:58Z</time>
      </trkpt>
      <trkpt lat="47.1426" lon="6.0477">
        <ele>458.4</ele>
        <time>2022-08-10T06:53:59Z</time>
      </trkpt>
      <trkpt lat="47.14257" lon="6.04778">
        <ele>458.1</ele>
        <time>2022-08-10T06:54:00Z</time>
      </trkpt>
      <trkpt lat="47.14253" lon="6.04785">
        <ele>457.9</ele>
        <time>2022-08-10T06:54:01Z</time>
      </trkpt>
      <trkpt lat="47.1425" lon="6.04792">
        <ele>457.9</ele>
        <time>2022-08-10T06:54:02Z</time>
      </trkpt>
      <trkpt lat="47.14247" lon="6.048">
        <ele>457.7</ele>
        <time>2022-08-10T06:54:03Z</time>
      </trkpt>
      <trkpt lat="47.14246" lon="6.04808">
        <ele>457.9</ele>
        <time>2022-08-10T06:54:04Z</time>
      </trkpt>
      <trkpt lat="47.14247" lon="6.04817">
        <ele>457.4</ele>
        <time>2022-08-10T06:54:05Z</time>
      </trkpt>
      <trkpt lat="47.14248" lon="6.04826">
        <ele>456.9</ele>
        <time>2022-08-10T06:54:06Z</time>
      </trkpt>
      <trkpt lat="47.1425" lon="6.04835">
        <ele>456.9</ele>
        <time>2022-08-10T06:54:07Z</time>
      </trkpt>
      <trkpt lat="47.1425" lon="6.04844">
        <ele>457.1</ele>
        <time>2022-08-10T06:54:08Z</time>
      </trkpt>
      <trkpt lat="47.1425" lon="6.04853">
        <ele>457.4</ele>
        <time>2022-08-10T06:54:09Z</time>
      </trkpt>
      <trkpt lat="47.14249" lon="6.04862">
        <ele>457.8</ele>
        <time>2022-08-10T06:54:10Z</time>
      </trkpt>
      <trkpt lat="47.14248" lon="6.0487">
        <ele>457.8</ele>
        <time>2022-08-10T06:54:11Z</time>
      </trkpt>
      <trkpt lat="47.14247" lon="6.04879">
        <ele>457.6</ele>
        <time>2022-08-10T06:54:12Z</time>
      </trkpt>
      <trkpt lat="47.14247" lon="6.04889">
        <ele>457.2</ele>
        <time>2022-08-10T06:54:13Z</time>
      </trkpt>
      <trkpt lat="47.14248" lon="6.04898">
        <ele>457</ele>
        <time>2022-08-10T06:54:14Z</time>
      </trkpt>
      <trkpt lat="47.14249" lon="6.04906">
        <ele>456.9</ele>
        <time>2022-08-10T06:54:15Z</time>
      </trkpt>
      <trkpt lat="47.1425" lon="6.04914">
        <ele>457.1</ele>
        <time>2022-08-10T06:54:16Z</time>
      </trkpt>
      <trkpt lat="47.14253" lon="6.0492">
        <ele>457.6</ele>
        <time>2022-08-10T06:54:17Z</time>
      </trkpt>
      <trkpt lat="47.14256" lon="6.04923">
        <ele>458.1</ele>
        <time>2022-08-10T06:54:18Z</time>
      </trkpt>
      <trkpt lat="47.1426" lon="6.04925">
        <ele>458.6</ele>
        <time>2022-08-10T06:54:19Z</time>
      </trkpt>
      <trkpt lat="47.14263" lon="6.04927">
        <ele>458.8</ele>
        <time>2022-08-10T06:54:20Z</time>
      </trkpt>
      <trkpt lat="47.14267" lon="6.0493">
        <ele>458.9</ele>
        <time>2022-08-10T06:54:21Z</time>
      </trkpt>
      <trkpt lat="47.1427" lon="6.04935">
        <ele>459.3</ele>
        <time>2022-08-10T06:54:22Z</time>
      </trkpt>
      <trkpt lat="47.14273" lon="6.04939">
        <ele>460.4</ele>
        <time>2022-08-10T06:54:23Z</time>
      </trkpt>
      <trkpt lat="47.14277" lon="6.04944">
        <ele>461.4</ele>
        <time>2022-08-10T06:54:24Z</time>
      </trkpt>
      <trkpt lat="47.14281" lon="6.0495">
        <ele>462</ele>
        <time>2022-08-10T06:54:25Z</time>
      </trkpt>
      <trkpt lat="47.14284" lon="6.04955">
        <ele>461.8</ele>
        <time>2022-08-10T06:54:26Z</time>
      </trkpt>
      <trkpt lat="47.14288" lon="6.04961">
        <ele>461.5</ele>
        <time>2022-08-10T06:54:27Z</time>
      </trkpt>
      <trkpt lat="47.14292" lon="6.04966">
        <ele>461.1</ele>
        <time>2022-08-10T06:54:28Z</time>
      </trkpt>
      <trkpt lat="47.14296" lon="6.04972">
        <ele>460.7</ele>
        <time>2022-08-10T06:54:29Z</time>
      </trkpt>
      <trkpt lat="47.14299" lon="6.04977">
        <ele>460.7</ele>
        <time>2022-08-10T06:54:30Z</time>
      </trkpt>
      <trkpt lat="47.14303" lon="6.04983">
        <ele>460.5</ele>
        <time>2022-08-10T06:54:31Z</time>
      </trkpt>
      <trkpt lat="47.14306" lon="6.04988">
        <ele>460.3</ele>
        <time>2022-08-10T06:54:32Z</time>
      </trkpt>
      <trkpt lat="47.14309" lon="6.04994">
        <ele>460.3</ele>
        <time>2022-08-10T06:54:33Z</time>
      </trkpt>
      <trkpt lat="47.14311" lon="6.05">
        <ele>460.7</ele>
        <time>2022-08-10T06:54:34Z</time>
      </trkpt>
      <trkpt lat="47.14312" lon="6.05006">
        <ele>461.1</ele>
        <time>2022-08-10T06:54:35Z</time>
      </trkpt>
      <trkpt lat="47.14313" lon="6.05011">
        <ele>461.3</ele>
        <time>2022-08-10T06:54:36Z</time>
      </trkpt>
      <trkpt lat="47.14313" lon="6.05017">
        <ele>461.6</ele>
        <time>2022-08-10T06:54:37Z</time>
      </trkpt>
      <trkpt lat="47.14313" lon="6.05023">
        <ele>462</ele>
        <time>2022-08-10T06:54:38Z</time>
      </trkpt>
      <trkpt lat="47.14312" lon="6.05029">
        <ele>462.2</ele>
        <time>2022-08-10T06:54:39Z</time>
      </trkpt>
      <trkpt lat="47.14312" lon="6.05034">
        <ele>462.2</ele>
        <time>2022-08-10T06:54:40Z</time>
      </trkpt>
      <trkpt lat="47.14312" lon="6.0504">
        <ele>462.2</ele>
        <time>2022-08-10T06:54:41Z</time>
      </trkpt>
      <trkpt lat="47.14311" lon="6.05045">
        <ele>462.3</ele>
        <time>2022-08-10T06:54:42Z</time>
      </trkpt>
      <trkpt lat="47.1431" lon="6.05051">
        <ele>462.5</ele>
        <time>2022-08-10T06:54:43Z</time>
      </trkpt>
      <trkpt lat="47.1431" lon="6.05056">
        <ele>462.9</ele>
        <time>2022-08-10T06:54:44Z</time>
      </trkpt>
      <trkpt lat="47.14309" lon="6.05061">
        <ele>462.6</ele>
        <time>2022-08-10T06:54:45Z</time>
      </trkpt>
      <trkpt lat="47.14308" lon="6.05066">
        <ele>462.8</ele>
        <time>2022-08-10T06:54:46Z</time>
      </trkpt>
      <trkpt lat="47.14307" lon="6.0507">
        <ele>463.5</ele>
        <time>2022-08-10T06:54:47Z</time>
      </trkpt>
      <trkpt lat="47.14306" lon="6.05075">
        <ele>464.4</ele>
        <time>2022-08-10T06:54:48Z</time>
      </trkpt>
      <trkpt lat="47.14305" lon="6.05079">
        <ele>465.3</ele>
        <time>2022-08-10T06:54:49Z</time>
      </trkpt>
      <trkpt lat="47.14304" lon="6.05084">
        <ele>466.1</ele>
        <time>2022-08-10T06:54:50Z</time>
      </trkpt>
      <trkpt lat="47.14302" lon="6.05088">
        <ele>467</ele>
        <time>2022-08-10T06:54:51Z</time>
      </trkpt>
      <trkpt lat="47.143" lon="6.05092">
        <ele>467.4</ele>
        <time>2022-08-10T06:54:52Z</time>
      </trkpt>
      <trkpt lat="47.14298" lon="6.05095">
        <ele>468.2</ele>
        <time>2022-08-10T06:54:53Z</time>
      </trkpt>
      <trkpt lat="47.14297" lon="6.05098">
        <ele>468.9</ele>
        <time>2022-08-10T06:54:54Z</time>
      </trkpt>
      <trkpt lat="47.14295" lon="6.05102">
        <ele>470.1</ele>
        <time>2022-08-10T06:54:55Z</time>
      </trkpt>
      <trkpt lat="47.14293" lon="6.05106">
        <ele>471.1</ele>
        <time>2022-08-10T06:54:56Z</time>
      </trkpt>
      <trkpt lat="47.1429" lon="6.05109">
        <ele>471.9</ele>
        <time>2022-08-10T06:54:57Z</time>
      </trkpt>
      <trkpt lat="47.14288" lon="6.05112">
        <ele>472.7</ele>
        <time>2022-08-10T06:54:58Z</time>
      </trkpt>
      <trkpt lat="47.14286" lon="6.05115">
        <ele>473.4</ele>
        <time>2022-08-10T06:54:59Z</time>
      </trkpt>
      <trkpt lat="47.14284" lon="6.05119">
        <ele>474.2</ele>
        <time>2022-08-10T06:55:00Z</time>
      </trkpt>
      <trkpt lat="47.14282" lon="6.05123">
        <ele>474.9</ele>
        <time>2022-08-10T06:55:01Z</time>
      </trkpt>
      <trkpt lat="47.1428" lon="6.05126">
        <ele>475.8</ele>
        <time>2022-08-10T06:55:02Z</time>
      </trkpt>
      <trkpt lat="47.14279" lon="6.05128">
        <ele>476.5</ele>
        <time>2022-08-10T06:55:03Z</time>
      </trkpt>
      <trkpt lat="47.14277" lon="6.0513">
        <ele>476.8</ele>
        <time>2022-08-10T06:55:04Z</time>
      </trkpt>
      <trkpt lat="47.14274" lon="6.05131">
        <ele>477.3</ele>
        <time>2022-08-10T06:55:05Z</time>
      </trkpt>
      <trkpt lat="47.14272" lon="6.05131">
        <ele>477.9</ele>
        <time>2022-08-10T06:55:06Z</time>
      </trkpt>
      <trkpt lat="47.14269" lon="6.05131">
        <ele>478.3</ele>
        <time>2022-08-10T06:55:07Z</time>
      </trkpt>
      <trkpt lat="47.14266" lon="6.05133">
        <ele>478.4</ele>
        <time>2022-08-10T06:55:08Z</time>
      </trkpt>
      <trkpt lat="47.14262" lon="6.05136">
        <ele>478.2</ele>
        <time>2022-08-10T06:55:09Z</time>
      </trkpt>
      <trkpt lat="47.14257" lon="6.05139">
        <ele>478.4</ele>
        <time>2022-08-10T06:55:10Z</time>
      </trkpt>
      <trkpt lat="47.14252" lon="6.05141">
        <ele>478.4</ele>
        <time>2022-08-10T06:55:11Z</time>
      </trkpt>
      <trkpt lat="47.14247" lon="6.05145">
        <ele>478</ele>
        <time>2022-08-10T06:55:12Z</time>
      </trkpt>
      <trkpt lat="47.1424" lon="6.05149">
        <ele>477.6</ele>
        <time>2022-08-10T06:55:13Z</time>
      </trkpt>
      <trkpt lat="47.14233" lon="6.05152">
        <ele>476.8</ele>
        <time>2022-08-10T06:55:14Z</time>
      </trkpt>
      <trkpt lat="47.14226" lon="6.05156">
        <ele>476.3</ele>
        <time>2022-08-10T06:55:15Z</time>
      </trkpt>
      <trkpt lat="47.14219" lon="6.05161">
        <ele>475.6</ele>
        <time>2022-08-10T06:55:16Z</time>
      </trkpt>
      <trkpt lat="47.14212" lon="6.05165">
        <ele>475</ele>
        <time>2022-08-10T06:55:17Z</time>
      </trkpt>
      <trkpt lat="47.14205" lon="6.0517">
        <ele>474.2</ele>
        <time>2022-08-10T06:55:18Z</time>
      </trkpt>
      <trkpt lat="47.14197" lon="6.05176">
        <ele>472.8</ele>
        <time>2022-08-10T06:55:19Z</time>
      </trkpt>
      <trkpt lat="47.14189" lon="6.05182">
        <ele>471</ele>
        <time>2022-08-10T06:55:20Z</time>
      </trkpt>
      <trkpt lat="47.1418" lon="6.05188">
        <ele>469.6</ele>
        <time>2022-08-10T06:55:21Z</time>
      </trkpt>
      <trkpt lat="47.14173" lon="6.05195">
        <ele>467.6</ele>
        <time>2022-08-10T06:55:22Z</time>
      </trkpt>
      <trkpt lat="47.14165" lon="6.05202">
        <ele>466.7</ele>
        <time>2022-08-10T06:55:23Z</time>
      </trkpt>
      <trkpt lat="47.14158" lon="6.05209">
        <ele>465.4</ele>
        <time>2022-08-10T06:55:24Z</time>
      </trkpt>
      <trkpt lat="47.1415" lon="6.05217">
        <ele>464.5</ele>
        <time>2022-08-10T06:55:25Z</time>
      </trkpt>
      <trkpt lat="47.14142" lon="6.05224">
        <ele>462.6</ele>
        <time>2022-08-10T06:55:26Z</time>
      </trkpt>
      <trkpt lat="47.14135" lon="6.05233">
        <ele>460.6</ele>
        <time>2022-08-10T06:55:27Z</time>
      </trkpt>
      <trkpt lat="47.14128" lon="6.05241">
        <ele>459.3</ele>
        <time>2022-08-10T06:55:28Z</time>
      </trkpt>
      <trkpt lat="47.14121" lon="6.05251">
        <ele>458</ele>
        <time>2022-08-10T06:55:29Z</time>
      </trkpt>
      <trkpt lat="47.14115" lon="6.05261">
        <ele>456.8</ele>
        <time>2022-08-10T06:55:30Z</time>
      </trkpt>
      <trkpt lat="47.1411" lon="6.05272">
        <ele>456.1</ele>
        <time>2022-08-10T06:55:31Z</time>
      </trkpt>
      <trkpt lat="47.14105" lon="6.05283">
        <ele>455.6</ele>
        <time>2022-08-10T06:55:32Z</time>
      </trkpt>
      <trkpt lat="47.141" lon="6.05294">
        <ele>454.8</ele>
        <time>2022-08-10T06:55:33Z</time>
      </trkpt>
      <trkpt lat="47.14095" lon="6.05304">
        <ele>454.3</ele>
        <time>2022-08-10T06:55:34Z</time>
      </trkpt>
      <trkpt lat="47.14089" lon="6.05314">
        <ele>453.6</ele>
        <time>2022-08-10T06:55:35Z</time>
      </trkpt>
      <trkpt lat="47.14084" lon="6.05323">
        <ele>453.4</ele>
        <time>2022-08-10T06:55:36Z</time>
      </trkpt>
      <trkpt lat="47.14078" lon="6.05332">
        <ele>453.2</ele>
        <time>2022-08-10T06:55:37Z</time>
      </trkpt>
      <trkpt lat="47.14072" lon="6.05341">
        <ele>452.9</ele>
        <time>2022-08-10T06:55:38Z</time>
      </trkpt>
      <trkpt lat="47.14065" lon="6.05349">
        <ele>452.7</ele>
        <time>2022-08-10T06:55:39Z</time>
      </trkpt>
      <trkpt lat="47.14059" lon="6.05357">
        <ele>452.6</ele>
        <time>2022-08-10T06:55:40Z</time>
      </trkpt>
      <trkpt lat="47.14053" lon="6.05365">
        <ele>452.7</ele>
        <time>2022-08-10T06:55:41Z</time>
      </trkpt>
      <trkpt lat="47.14047" lon="6.05373">
        <ele>452.5</ele>
        <time>2022-08-10T06:55:42Z</time>
      </trkpt>
      <trkpt lat="47.1404" lon="6.0538">
        <ele>452.3</ele>
        <time>2022-08-10T06:55:43Z</time>
      </trkpt>
      <trkpt lat="47.14034" lon="6.05388">
        <ele>452.3</ele>
        <time>2022-08-10T06:55:44Z</time>
      </trkpt>
      <trkpt lat="47.14028" lon="6.05396">
        <ele>452.2</ele>
        <time>2022-08-10T06:55:45Z</time>
      </trkpt>
      <trkpt lat="47.14022" lon="6.05403">
        <ele>452.1</ele>
        <time>2022-08-10T06:55:46Z</time>
      </trkpt>
      <trkpt lat="47.14016" lon="6.05411">
        <ele>452</ele>
        <time>2022-08-10T06:55:47Z</time>
      </trkpt>
      <trkpt lat="47.1401" lon="6.05418">
        <ele>451.6</ele>
        <time>2022-08-10T06:55:48Z</time>
      </trkpt>
      <trkpt lat="47.14004" lon="6.05426">
        <ele>451.2</ele>
        <time>2022-08-10T06:55:49Z</time>
      </trkpt>
      <trkpt lat="47.13998" lon="6.05433">
        <ele>451</ele>
        <time>2022-08-10T06:55:50Z</time>
      </trkpt>
      <trkpt lat="47.13992" lon="6.0544">
        <ele>450.7</ele>
        <time>2022-08-10T06:55:51Z</time>
      </trkpt>
      <trkpt lat="47.13986" lon="6.05447">
        <ele>450.6</ele>
        <time>2022-08-10T06:55:52Z</time>
      </trkpt>
      <trkpt lat="47.1398" lon="6.05455">
        <ele>450.4</ele>
        <time>2022-08-10T06:55:53Z</time>
      </trkpt>
      <trkpt lat="47.13975" lon="6.05462">
        <ele>450.2</ele>
        <time>2022-08-10T06:55:54Z</time>
      </trkpt>
      <trkpt lat="47.13969" lon="6.05469">
        <ele>449.9</ele>
        <time>2022-08-10T06:55:55Z</time>
      </trkpt>
      <trkpt lat="47.13963" lon="6.05476">
        <ele>449.7</ele>
        <time>2022-08-10T06:55:56Z</time>
      </trkpt>
      <trkpt lat="47.13958" lon="6.05484">
        <ele>449.6</ele>
        <time>2022-08-10T06:55:57Z</time>
      </trkpt>
      <trkpt lat="47.13954" lon="6.05492">
        <ele>449.4</ele>
        <time>2022-08-10T06:55:58Z</time>
      </trkpt>
      <trkpt lat="47.1395" lon="6.05501">
        <ele>449.3</ele>
        <time>2022-08-10T06:55:59Z</time>
      </trkpt>
      <trkpt lat="47.13947" lon="6.05511">
        <ele>449.1</ele>
        <time>2022-08-10T06:56:00Z</time>
      </trkpt>
      <trkpt lat="47.13945" lon="6.0552">
        <ele>448.8</ele>
        <time>2022-08-10T06:56:01Z</time>
      </trkpt>
      <trkpt lat="47.13943" lon="6.0553">
        <ele>448.5</ele>
        <time>2022-08-10T06:56:02Z</time>
      </trkpt>
      <trkpt lat="47.13941" lon="6.0554">
        <ele>448.4</ele>
        <time>2022-08-10T06:56:03Z</time>
      </trkpt>
      <trkpt lat="47.13938" lon="6.0555">
        <ele>448.2</ele>
        <time>2022-08-10T06:56:04Z</time>
      </trkpt>
      <trkpt lat="47.13936" lon="6.05559">
        <ele>448</ele>
        <time>2022-08-10T06:56:05Z</time>
      </trkpt>
      <trkpt lat="47.13933" lon="6.05568">
        <ele>447.9</ele>
        <time>2022-08-10T06:56:06Z</time>
      </trkpt>
      <trkpt lat="47.13929" lon="6.05576">
        <ele>447.9</ele>
        <time>2022-08-10T06:56:07Z</time>
      </trkpt>
      <trkpt lat="47.13924" lon="6.05582">
        <ele>447.9</ele>
        <time>2022-08-10T06:56:08Z</time>
      </trkpt>
      <trkpt lat="47.1392" lon="6.05589">
        <ele>447.8</ele>
        <time>2022-08-10T06:56:09Z</time>
      </trkpt>
      <trkpt lat="47.13914" lon="6.05594">
        <ele>447.9</ele>
        <time>2022-08-10T06:56:10Z</time>
      </trkpt>
      <trkpt lat="47.13909" lon="6.056">
        <ele>447.9</ele>
        <time>2022-08-10T06:56:11Z</time>
      </trkpt>
      <trkpt lat="47.13904" lon="6.05605">
        <ele>448</ele>
        <time>2022-08-10T06:56:12Z</time>
      </trkpt>
      <trkpt lat="47.13899" lon="6.05611">
        <ele>447.8</ele>
        <time>2022-08-10T06:56:13Z</time>
      </trkpt>
      <trkpt lat="47.13895" lon="6.05616">
        <ele>447.6</ele>
        <time>2022-08-10T06:56:14Z</time>
      </trkpt>
      <trkpt lat="47.1389" lon="6.05622">
        <ele>447.6</ele>
        <time>2022-08-10T06:56:15Z</time>
      </trkpt>
      <trkpt lat="47.13885" lon="6.05627">
        <ele>447.5</ele>
        <time>2022-08-10T06:56:16Z</time>
      </trkpt>
      <trkpt lat="47.1388" lon="6.05632">
        <ele>447.6</ele>
        <time>2022-08-10T06:56:17Z</time>
      </trkpt>
      <trkpt lat="47.13875" lon="6.05638">
        <ele>447.8</ele>
        <time>2022-08-10T06:56:18Z</time>
      </trkpt>
      <trkpt lat="47.13871" lon="6.05643">
        <ele>447.9</ele>
        <time>2022-08-10T06:56:19Z</time>
      </trkpt>
      <trkpt lat="47.13866" lon="6.05648">
        <ele>448</ele>
        <time>2022-08-10T06:56:20Z</time>
      </trkpt>
      <trkpt lat="47.13862" lon="6.05653">
        <ele>448</ele>
        <time>2022-08-10T06:56:21Z</time>
      </trkpt>
      <trkpt lat="47.13858" lon="6.05659">
        <ele>448.2</ele>
        <time>2022-08-10T06:56:22Z</time>
      </trkpt>
      <trkpt lat="47.13854" lon="6.05664">
        <ele>448.3</ele>
        <time>2022-08-10T06:56:23Z</time>
      </trkpt>
      <trkpt lat="47.13849" lon="6.0567">
        <ele>448.3</ele>
        <time>2022-08-10T06:56:24Z</time>
      </trkpt>
      <trkpt lat="47.13845" lon="6.05675">
        <ele>448.2</ele>
        <time>2022-08-10T06:56:25Z</time>
      </trkpt>
      <trkpt lat="47.13841" lon="6.05681">
        <ele>448.2</ele>
        <time>2022-08-10T06:56:26Z</time>
      </trkpt>
      <trkpt lat="47.13837" lon="6.05686">
        <ele>448.4</ele>
        <time>2022-08-10T06:56:27Z</time>
      </trkpt>
      <trkpt lat="47.13834" lon="6.05692">
        <ele>448.5</ele>
        <time>2022-08-10T06:56:28Z</time>
      </trkpt>
      <trkpt lat="47.1383" lon="6.05697">
        <ele>448.7</ele>
        <time>2022-08-10T06:56:29Z</time>
      </trkpt>
      <trkpt lat="47.13826" lon="6.05702">
        <ele>448.9</ele>
        <time>2022-08-10T06:56:30Z</time>
      </trkpt>
      <trkpt lat="47.13822" lon="6.05708">
        <ele>449.1</ele>
        <time>2022-08-10T06:56:31Z</time>
      </trkpt>
      <trkpt lat="47.13818" lon="6.05713">
        <ele>449.2</ele>
        <time>2022-08-10T06:56:32Z</time>
      </trkpt>
      <trkpt lat="47.13815" lon="6.05719">
        <ele>449.3</ele>
        <time>2022-08-10T06:56:33Z</time>
      </trkpt>
      <trkpt lat="47.13812" lon="6.05726">
        <ele>449.3</ele>
        <time>2022-08-10T06:56:34Z</time>
      </trkpt>
      <trkpt lat="47.1381" lon="6.05733">
        <ele>449.2</ele>
        <time>2022-08-10T06:56:35Z</time>
      </trkpt>
      <trkpt lat="47.13809" lon="6.05741">
        <ele>449</ele>
        <time>2022-08-10T06:56:36Z</time>
      </trkpt>
      <trkpt lat="47.13808" lon="6.05749">
        <ele>448.5</ele>
        <time>2022-08-10T06:56:37Z</time>
      </trkpt>
      <trkpt lat="47.13809" lon="6.05757">
        <ele>448.1</ele>
        <time>2022-08-10T06:56:38Z</time>
      </trkpt>
      <trkpt lat="47.1381" lon="6.05765">
        <ele>448</ele>
        <time>2022-08-10T06:56:39Z</time>
      </trkpt>
      <trkpt lat="47.13811" lon="6.05772">
        <ele>447.9</ele>
        <time>2022-08-10T06:56:40Z</time>
      </trkpt>
      <trkpt lat="47.13814" lon="6.05779">
        <ele>447.7</ele>
        <time>2022-08-10T06:56:41Z</time>
      </trkpt>
      <trkpt lat="47.13817" lon="6.05786">
        <ele>447.7</ele>
        <time>2022-08-10T06:56:42Z</time>
      </trkpt>
      <trkpt lat="47.1382" lon="6.05792">
        <ele>447.6</ele>
        <time>2022-08-10T06:56:43Z</time>
      </trkpt>
      <trkpt lat="47.13824" lon="6.05798">
        <ele>447.6</ele>
        <time>2022-08-10T06:56:44Z</time>
      </trkpt>
      <trkpt lat="47.13828" lon="6.05804">
        <ele>447.7</ele>
        <time>2022-08-10T06:56:45Z</time>
      </trkpt>
      <trkpt lat="47.13832" lon="6.05809">
        <ele>447.8</ele>
        <time>2022-08-10T06:56:46Z</time>
      </trkpt>
      <trkpt lat="47.13836" lon="6.05815">
        <ele>447.8</ele>
        <time>2022-08-10T06:56:47Z</time>
      </trkpt>
      <trkpt lat="47.1384" lon="6.0582">
        <ele>448.1</ele>
        <time>2022-08-10T06:56:48Z</time>
      </trkpt>
      <trkpt lat="47.13845" lon="6.05825">
        <ele>448.1</ele>
        <time>2022-08-10T06:56:49Z</time>
      </trkpt>
      <trkpt lat="47.13849" lon="6.0583">
        <ele>448.1</ele>
        <time>2022-08-10T06:56:50Z</time>
      </trkpt>
      <trkpt lat="47.13854" lon="6.05835">
        <ele>448.1</ele>
        <time>2022-08-10T06:56:51Z</time>
      </trkpt>
      <trkpt lat="47.13858" lon="6.05839">
        <ele>448.2</ele>
        <time>2022-08-10T06:56:52Z</time>
      </trkpt>
      <trkpt lat="47.13863" lon="6.05843">
        <ele>448.4</ele>
        <time>2022-08-10T06:56:53Z</time>
      </trkpt>
      <trkpt lat="47.13868" lon="6.05846">
        <ele>448.6</ele>
        <time>2022-08-10T06:56:54Z</time>
      </trkpt>
      <trkpt lat="47.13873" lon="6.0585">
        <ele>448.7</ele>
        <time>2022-08-10T06:56:55Z</time>
      </trkpt>
      <trkpt lat="47.13878" lon="6.05854">
        <ele>448.8</ele>
        <time>2022-08-10T06:56:56Z</time>
      </trkpt>
      <trkpt lat="47.13884" lon="6.05858">
        <ele>449.2</ele>
        <time>2022-08-10T06:56:57Z</time>
      </trkpt>
      <trkpt lat="47.13889" lon="6.05861">
        <ele>449.3</ele>
        <time>2022-08-10T06:56:58Z</time>
      </trkpt>
      <trkpt lat="47.13894" lon="6.05865">
        <ele>449.5</ele>
        <time>2022-08-10T06:56:59Z</time>
      </trkpt>
      <trkpt lat="47.13899" lon="6.05869">
        <ele>449.4</ele>
        <time>2022-08-10T06:57:00Z</time>
      </trkpt>
      <trkpt lat="47.13904" lon="6.05873">
        <ele>449.4</ele>
        <time>2022-08-10T06:57:01Z</time>
      </trkpt>
      <trkpt lat="47.13909" lon="6.05877">
        <ele>449.5</ele>
        <time>2022-08-10T06:57:02Z</time>
      </trkpt>
      <trkpt lat="47.13914" lon="6.05882">
        <ele>449.6</ele>
        <time>2022-08-10T06:57:03Z</time>
      </trkpt>
      <trkpt lat="47.13919" lon="6.05887">
        <ele>449.7</ele>
        <time>2022-08-10T06:57:04Z</time>
      </trkpt>
      <trkpt lat="47.13924" lon="6.05891">
        <ele>449.9</ele>
        <time>2022-08-10T06:57:05Z</time>
      </trkpt>
      <trkpt lat="47.13929" lon="6.05896">
        <ele>450</ele>
        <time>2022-08-10T06:57:06Z</time>
      </trkpt>
      <trkpt lat="47.13933" lon="6.05901">
        <ele>450.1</ele>
        <time>2022-08-10T06:57:07Z</time>
      </trkpt>
      <trkpt lat="47.13938" lon="6.05905">
        <ele>450.1</ele>
        <time>2022-08-10T06:57:08Z</time>
      </trkpt>
      <trkpt lat="47.13943" lon="6.05909">
        <ele>450.1</ele>
        <time>2022-08-10T06:57:09Z</time>
      </trkpt>
      <trkpt lat="47.13948" lon="6.05914">
        <ele>450.2</ele>
        <time>2022-08-10T06:57:10Z</time>
      </trkpt>
      <trkpt lat="47.13953" lon="6.05918">
        <ele>450.7</ele>
        <time>2022-08-10T06:57:11Z</time>
      </trkpt>
      <trkpt lat="47.13957" lon="6.05923">
        <ele>450.9</ele>
        <time>2022-08-10T06:57:12Z</time>
      </trkpt>
      <trkpt lat="47.13962" lon="6.05927">
        <ele>451.3</ele>
        <time>2022-08-10T06:57:13Z</time>
      </trkpt>
      <trkpt lat="47.13966" lon="6.05932">
        <ele>451.5</ele>
        <time>2022-08-10T06:57:14Z</time>
      </trkpt>
      <trkpt lat="47.1397" lon="6.05936">
        <ele>451.8</ele>
        <time>2022-08-10T06:57:15Z</time>
      </trkpt>
      <trkpt lat="47.13974" lon="6.05941">
        <ele>452</ele>
        <time>2022-08-10T06:57:16Z</time>
      </trkpt>
      <trkpt lat="47.13978" lon="6.05945">
        <ele>452.3</ele>
        <time>2022-08-10T06:57:17Z</time>
      </trkpt>
      <trkpt lat="47.13982" lon="6.0595">
        <ele>452.6</ele>
        <time>2022-08-10T06:57:18Z</time>
      </trkpt>
      <trkpt lat="47.13986" lon="6.05954">
        <ele>453</ele>
        <time>2022-08-10T06:57:19Z</time>
      </trkpt>
      <trkpt lat="47.1399" lon="6.05958">
        <ele>453.2</ele>
        <time>2022-08-10T06:57:20Z</time>
      </trkpt>
      <trkpt lat="47.13994" lon="6.05963">
        <ele>453.1</ele>
        <time>2022-08-10T06:57:21Z</time>
      </trkpt>
      <trkpt lat="47.13999" lon="6.05968">
        <ele>453.2</ele>
        <time>2022-08-10T06:57:22Z</time>
      </trkpt>
      <trkpt lat="47.14003" lon="6.05973">
        <ele>453.2</ele>
        <time>2022-08-10T06:57:23Z</time>
      </trkpt>
      <trkpt lat="47.14008" lon="6.05977">
        <ele>453.3</ele>
        <time>2022-08-10T06:57:24Z</time>
      </trkpt>
      <trkpt lat="47.14012" lon="6.05982">
        <ele>453.5</ele>
        <time>2022-08-10T06:57:25Z</time>
      </trkpt>
      <trkpt lat="47.14017" lon="6.05987">
        <ele>453.6</ele>
        <time>2022-08-10T06:57:26Z</time>
      </trkpt>
      <trkpt lat="47.14021" lon="6.05992">
        <ele>453.9</ele>
        <time>2022-08-10T06:57:27Z</time>
      </trkpt>
      <trkpt lat="47.14026" lon="6.05996">
        <ele>454.1</ele>
        <time>2022-08-10T06:57:28Z</time>
      </trkpt>
      <trkpt lat="47.1403" lon="6.06">
        <ele>454.3</ele>
        <time>2022-08-10T06:57:29Z</time>
      </trkpt>
      <trkpt lat="47.14034" lon="6.06004">
        <ele>454.4</ele>
        <time>2022-08-10T06:57:30Z</time>
      </trkpt>
      <trkpt lat="47.14039" lon="6.06009">
        <ele>454.1</ele>
        <time>2022-08-10T06:57:31Z</time>
      </trkpt>
      <trkpt lat="47.14043" lon="6.06013">
        <ele>453.7</ele>
        <time>2022-08-10T06:57:32Z</time>
      </trkpt>
      <trkpt lat="47.14048" lon="6.06018">
        <ele>453.5</ele>
        <time>2022-08-10T06:57:33Z</time>
      </trkpt>
      <trkpt lat="47.14052" lon="6.06022">
        <ele>453.2</ele>
        <time>2022-08-10T06:57:34Z</time>
      </trkpt>
      <trkpt lat="47.14057" lon="6.06027">
        <ele>452.8</ele>
        <time>2022-08-10T06:57:35Z</time>
      </trkpt>
      <trkpt lat="47.14061" lon="6.06031">
        <ele>452.7</ele>
        <time>2022-08-10T06:57:36Z</time>
      </trkpt>
      <trkpt lat="47.14065" lon="6.06036">
        <ele>452.5</ele>
        <time>2022-08-10T06:57:37Z</time>
      </trkpt>
      <trkpt lat="47.14069" lon="6.0604">
        <ele>452.1</ele>
        <time>2022-08-10T06:57:38Z</time>
      </trkpt>
      <trkpt lat="47.14074" lon="6.06045">
        <ele>451.8</ele>
        <time>2022-08-10T06:57:39Z</time>
      </trkpt>
      <trkpt lat="47.14078" lon="6.06049">
        <ele>451.8</ele>
        <time>2022-08-10T06:57:40Z</time>
      </trkpt>
      <trkpt lat="47.14082" lon="6.06054">
        <ele>452</ele>
        <time>2022-08-10T06:57:41Z</time>
      </trkpt>
      <trkpt lat="47.14086" lon="6.06059">
        <ele>452</ele>
        <time>2022-08-10T06:57:42Z</time>
      </trkpt>
      <trkpt lat="47.1409" lon="6.06063">
        <ele>452.1</ele>
        <time>2022-08-10T06:57:43Z</time>
      </trkpt>
      <trkpt lat="47.14095" lon="6.06067">
        <ele>452.1</ele>
        <time>2022-08-10T06:57:44Z</time>
      </trkpt>
      <trkpt lat="47.14099" lon="6.06072">
        <ele>452.1</ele>
        <time>2022-08-10T06:57:45Z</time>
      </trkpt>
      <trkpt lat="47.14103" lon="6.06076">
        <ele>452</ele>
        <time>2022-08-10T06:57:46Z</time>
      </trkpt>
      <trkpt lat="47.14107" lon="6.0608">
        <ele>451.9</ele>
        <time>2022-08-10T06:57:47Z</time>
      </trkpt>
      <trkpt lat="47.14111" lon="6.06084">
        <ele>451.9</ele>
        <time>2022-08-10T06:57:48Z</time>
      </trkpt>
      <trkpt lat="47.14115" lon="6.06088">
        <ele>451.7</ele>
        <time>2022-08-10T06:57:49Z</time>
      </trkpt>
      <trkpt lat="47.1412" lon="6.06091">
        <ele>451.6</ele>
        <time>2022-08-10T06:57:50Z</time>
      </trkpt>
      <trkpt lat="47.14124" lon="6.06094">
        <ele>451.1</ele>
        <time>2022-08-10T06:57:51Z</time>
      </trkpt>
      <trkpt lat="47.14128" lon="6.06097">
        <ele>451</ele>
        <time>2022-08-10T06:57:52Z</time>
      </trkpt>
      <trkpt lat="47.14131" lon="6.06099">
        <ele>451.2</ele>
        <time>2022-08-10T06:57:53Z</time>
      </trkpt>
      <trkpt lat="47.14134" lon="6.06101">
        <ele>451.3</ele>
        <time>2022-08-10T06:57:54Z</time>
      </trkpt>
      <trkpt lat="47.14136" lon="6.06102">
        <ele>451.4</ele>
        <time>2022-08-10T06:57:55Z</time>
      </trkpt>
      <trkpt lat="47.14137" lon="6.06102">
        <ele>451.5</ele>
        <time>2022-08-10T06:57:56Z</time>
      </trkpt>
      <trkpt lat="47.14138" lon="6.06102">
        <ele>451.6</ele>
        <time>2022-08-10T06:57:57Z</time>
      </trkpt>
      <trkpt lat="47.14138" lon="6.06101">
        <ele>451.7</ele>
        <time>2022-08-10T06:57:58Z</time>
      </trkpt>
      <trkpt lat="47.14138" lon="6.06101">
        <ele>451.7</ele>
        <time>2022-08-10T06:57:59Z</time>
      </trkpt>
      <trkpt lat="47.14138" lon="6.06101">
        <ele>451.7</ele>
        <time>2022-08-10T06:58:00Z</time>
      </trkpt>
      <trkpt lat="47.14138" lon="6.06101">
        <ele>451.7</ele>
        <time>2022-08-10T06:58:01Z</time>
      </trkpt>
      <trkpt lat="47.14138" lon="6.06101">
        <ele>451.7</ele>
        <time>2022-08-10T06:58:02Z</time>
      </trkpt>
      <trkpt lat="47.14138" lon="6.06101">
        <ele>451.7</ele>
        <time>2022-08-10T06:58:03Z</time>
      </trkpt>
      <trkpt lat="47.14138" lon="6.06101">
        <ele>451.7</ele>
        <time>2022-08-10T06:58:04Z</time>
      </trkpt>
      <trkpt lat="47.14138" lon="6.06101">
        <ele>451.7</ele>
        <time>2022-08-10T06:58:05Z</time>
      </trkpt>
      <trkpt lat="47.14138" lon="6.06101">
        <ele>451.7</ele>
        <time>2022-08-10T06:58:06Z</time>
      </trkpt>
      <trkpt lat="47.14138" lon="6.06101">
        <ele>451.7</ele>
        <time>2022-08-10T06:58:07Z</time>
      </trkpt>
      <trkpt lat="47.14138" lon="6.06101">
        <ele>451.7</ele>
        <time>2022-08-10T06:58:08Z</time>
      </trkpt>
      <trkpt lat="47.14138" lon="6.06101">
        <ele>451.7</ele>
        <time>2022-08-10T06:58:09Z</time>
      </trkpt>
      <trkpt lat="47.14138" lon="6.06101">
        <ele>451.7</ele>
        <time>2022-08-10T06:58:10Z</time>
      </trkpt>
      <trkpt lat="47.14138" lon="6.06101">
        <ele>451.7</ele>
        <time>2022-08-10T06:58:11Z</time>
      </trkpt>
      <trkpt lat="47.14138" lon="6.06101">
        <ele>451.7</ele>
        <time>2022-08-10T06:58:12Z</time>
      </trkpt>
      <trkpt lat="47.14138" lon="6.06101">
        <ele>451.7</ele>
        <time>2022-08-10T06:58:13Z</time>
      </trkpt>
      <trkpt lat="47.14138" lon="6.06101">
        <ele>451.7</ele>
        <time>2022-08-10T06:58:14Z</time>
      </trkpt>
      <trkpt lat="47.14138" lon="6.06101">
        <ele>451.7</ele>
        <time>2022-08-10T06:58:15Z</time>
      </trkpt>
      <trkpt lat="47.14138" lon="6.06101">
        <ele>451.7</ele>
        <time>2022-08-10T06:58:16Z</time>
      </trkpt>
      <trkpt lat="47.14138" lon="6.06101">
        <ele>451.7</ele>
        <time>2022-08-10T06:58:17Z</time>
      </trkpt>
      <trkpt lat="47.14138" lon="6.06101">
        <ele>451.7</ele>
        <time>2022-08-10T06:58:18Z</time>
      </trkpt>
      <trkpt lat="47.14138" lon="6.06101">
        <ele>451.7</ele>
        <time>2022-08-10T06:58:19Z</time>
      </trkpt>
      <trkpt lat="47.14138" lon="6.06101">
        <ele>451.7</ele>
        <time>2022-08-10T06:58:20Z</time>
      </trkpt>
      <trkpt lat="47.14138" lon="6.06101">
        <ele>451.7</ele>
        <time>2022-08-10T06:58:21Z</time>
      </trkpt>
      <trkpt lat="47.14138" lon="6.06101">
        <ele>451.7</ele>
        <time>2022-08-10T06:58:22Z</time>
      </trkpt>
      <trkpt lat="47.14138" lon="6.06101">
        <ele>451.7</ele>
        <time>2022-08-10T06:58:23Z</time>
      </trkpt>
      <trkpt lat="47.14138" lon="6.06101">
        <ele>451.7</ele>
        <time>2022-08-10T06:58:24Z</time>
      </trkpt>
      <trkpt lat="47.14138" lon="6.06101">
        <ele>451.7</ele>
        <time>2022-08-10T06:58:25Z</time>
      </trkpt>
      <trkpt lat="47.14138" lon="6.06101">
        <ele>451.7</ele>
        <time>2022-08-10T06:58:26Z</time>
      </trkpt>
      <trkpt lat="47.14138" lon="6.06101">
        <ele>451.7</ele>
        <time>2022-08-10T06:58:27Z</time>
      </trkpt>
      <trkpt lat="47.14138" lon="6.06101">
        <ele>451.7</ele>
        <time>2022-08-10T06:58:28Z</time>
      </trkpt>
      <trkpt lat="47.14138" lon="6.06101">
        <ele>451.7</ele>
        <time>2022-08-10T06:58:29Z</time>
      </trkpt>
      <trkpt lat="47.14138" lon="6.06101">
        <ele>451.7</ele>
        <time>2022-08-10T06:58:30Z</time>
      </trkpt>
      <trkpt lat="47.14138" lon="6.06101">
        <ele>451.7</ele>
        <time>2022-08-10T06:58:31Z</time>
      </trkpt>
      <trkpt lat="47.14138" lon="6.06101">
        <ele>451.7</ele>
        <time>2022-08-10T06:58:32Z</time>
      </trkpt>
      <trkpt lat="47.14138" lon="6.06101">
        <ele>451.7</ele>
        <time>2022-08-10T06:58:33Z</time>
      </trkpt>
      <trkpt lat="47.14138" lon="6.06101">
        <ele>451.7</ele>
        <time>2022-08-10T06:58:34Z</time>
      </trkpt>
      <trkpt lat="47.14138" lon="6.06101">
        <ele>451.7</ele>
        <time>2022-08-10T06:58:35Z</time>
      </trkpt>
      <trkpt lat="47.14138" lon="6.06101">
        <ele>451.7</ele>
        <time>2022-08-10T06:58:36Z</time>
      </trkpt>
      <trkpt lat="47.14138" lon="6.06101">
        <ele>451.7</ele>
        <time>2022-08-10T06:58:37Z</time>
      </trkpt>
      <trkpt lat="47.14138" lon="6.06101">
        <ele>451.7</ele>
        <time>2022-08-10T06:58:38Z</time>
      </trkpt>
      <trkpt lat="47.14138" lon="6.06101">
        <ele>451.7</ele>
        <time>2022-08-10T06:58:39Z</time>
      </trkpt>
      <trkpt lat="47.14138" lon="6.06101">
        <ele>451.7</ele>
        <time>2022-08-10T06:58:40Z</time>
      </trkpt>
      <trkpt lat="47.14138" lon="6.06101">
        <ele>451.7</ele>
        <time>2022-08-10T06:58:41Z</time>
      </trkpt>
      <trkpt lat="47.14138" lon="6.06101">
        <ele>451.7</ele>
        <time>2022-08-10T06:58:42Z</time>
      </trkpt>
      <trkpt lat="47.14138" lon="6.06101">
        <ele>451.7</ele>
        <time>2022-08-10T06:58:43Z</time>
      </trkpt>
      <trkpt lat="47.14138" lon="6.06101">
        <ele>451.7</ele>
        <time>2022-08-10T06:58:44Z</time>
      </trkpt>
      <trkpt lat="47.1414" lon="6.06108">
        <ele>452</ele>
        <time>2022-08-10T06:58:45Z</time>
      </trkpt>
      <trkpt lat="47.14141" lon="6.0611">
        <ele>452.3</ele>
        <time>2022-08-10T06:58:46Z</time>
      </trkpt>
      <trkpt lat="47.14143" lon="6.06112">
        <ele>452.6</ele>
        <time>2022-08-10T06:58:47Z</time>
      </trkpt>
      <trkpt lat="47.14146" lon="6.06114">
        <ele>453.1</ele>
        <time>2022-08-10T06:58:48Z</time>
      </trkpt>
      <trkpt lat="47.14149" lon="6.06116">
        <ele>453.7</ele>
        <time>2022-08-10T06:58:49Z</time>
      </trkpt>
      <trkpt lat="47.14152" lon="6.06117">
        <ele>454.4</ele>
        <time>2022-08-10T06:58:50Z</time>
      </trkpt>
      <trkpt lat="47.14156" lon="6.06119">
        <ele>455</ele>
        <time>2022-08-10T06:58:51Z</time>
      </trkpt>
      <trkpt lat="47.14159" lon="6.0612">
        <ele>455.8</ele>
        <time>2022-08-10T06:58:52Z</time>
      </trkpt>
      <trkpt lat="47.14162" lon="6.06122">
        <ele>456.8</ele>
        <time>2022-08-10T06:58:53Z</time>
      </trkpt>
      <trkpt lat="47.14166" lon="6.06124">
        <ele>457.8</ele>
        <time>2022-08-10T06:58:54Z</time>
      </trkpt>
      <trkpt lat="47.14169" lon="6.06127">
        <ele>458.9</ele>
        <time>2022-08-10T06:58:55Z</time>
      </trkpt>
      <trkpt lat="47.14173" lon="6.0613">
        <ele>460</ele>
        <time>2022-08-10T06:58:56Z</time>
      </trkpt>
      <trkpt lat="47.14178" lon="6.06134">
        <ele>461</ele>
        <time>2022-08-10T06:58:57Z</time>
      </trkpt>
      <trkpt lat="47.14182" lon="6.06137">
        <ele>461.1</ele>
        <time>2022-08-10T06:58:58Z</time>
      </trkpt>
      <trkpt lat="47.14187" lon="6.0614">
        <ele>461.3</ele>
        <time>2022-08-10T06:58:59Z</time>
      </trkpt>
      <trkpt lat="47.14191" lon="6.06143">
        <ele>461.2</ele>
        <time>2022-08-10T06:59:00Z</time>
      </trkpt>
      <trkpt lat="47.14195" lon="6.06147">
        <ele>461.2</ele>
        <time>2022-08-10T06:59:01Z</time>
      </trkpt>
      <trkpt lat="47.142" lon="6.0615">
        <ele>460.9</ele>
        <time>2022-08-10T06:59:02Z</time>
      </trkpt>
      <trkpt lat="47.14204" lon="6.06154">
        <ele>460.9</ele>
        <time>2022-08-10T06:59:03Z</time>
      </trkpt>
      <trkpt lat="47.14208" lon="6.06159">
        <ele>460.2</ele>
        <time>2022-08-10T06:59:04Z</time>
      </trkpt>
      <trkpt lat="47.14212" lon="6.06163">
        <ele>459.7</ele>
        <time>2022-08-10T06:59:05Z</time>
      </trkpt>
      <trkpt lat="47.14215" lon="6.06168">
        <ele>459.2</ele>
        <time>2022-08-10T06:59:06Z</time>
      </trkpt>
      <trkpt lat="47.14219" lon="6.06173">
        <ele>458.6</ele>
        <time>2022-08-10T06:59:07Z</time>
      </trkpt>
      <trkpt lat="47.14222" lon="6.06178">
        <ele>458</ele>
        <time>2022-08-10T06:59:08Z</time>
      </trkpt>
      <trkpt lat="47.14226" lon="6.06183">
        <ele>457.6</ele>
        <time>2022-08-10T06:59:09Z</time>
      </trkpt>
      <trkpt lat="47.14229" lon="6.06189">
        <ele>457.2</ele>
        <time>2022-08-10T06:59:10Z</time>
      </trkpt>
      <trkpt lat="47.14232" lon="6.06194">
        <ele>457.1</ele>
        <time>2022-08-10T06:59:11Z</time>
      </trkpt>
      <trkpt lat="47.14236" lon="6.06199">
        <ele>456.7</ele>
        <time>2022-08-10T06:59:12Z</time>
      </trkpt>
      <trkpt lat="47.14239" lon="6.06204">
        <ele>456.3</ele>
        <time>2022-08-10T06:59:13Z</time>
      </trkpt>
      <trkpt lat="47.14242" lon="6.0621">
        <ele>456.1</ele>
        <time>2022-08-10T06:59:14Z</time>
      </trkpt>
      <trkpt lat="47.14246" lon="6.06214">
        <ele>456.1</ele>
        <time>2022-08-10T06:59:15Z</time>
      </trkpt>
      <trkpt lat="47.14249" lon="6.06219">
        <ele>456.4</ele>
        <time>2022-08-10T06:59:16Z</time>
      </trkpt>
      <trkpt lat="47.14253" lon="6.06223">
        <ele>456.7</ele>
        <time>2022-08-10T06:59:17Z</time>
      </trkpt>
      <trkpt lat="47.14257" lon="6.06227">
        <ele>457.1</ele>
        <time>2022-08-10T06:59:18Z</time>
      </trkpt>
      <trkpt lat="47.14261" lon="6.0623">
        <ele>457.6</ele>
        <time>2022-08-10T06:59:19Z</time>
      </trkpt>
      <trkpt lat="47.14264" lon="6.06235">
        <ele>458.2</ele>
        <time>2022-08-10T06:59:20Z</time>
      </trkpt>
      <trkpt lat="47.14268" lon="6.06239">
        <ele>458.7</ele>
        <time>2022-08-10T06:59:21Z</time>
      </trkpt>
      <trkpt lat="47.14272" lon="6.06242">
        <ele>459.8</ele>
        <time>2022-08-10T06:59:22Z</time>
      </trkpt>
      <trkpt lat="47.14276" lon="6.06245">
        <ele>460.6</ele>
        <time>2022-08-10T06:59:23Z</time>
      </trkpt>
      <trkpt lat="47.1428" lon="6.06248">
        <ele>461.5</ele>
        <time>2022-08-10T06:59:24Z</time>
      </trkpt>
      <trkpt lat="47.14284" lon="6.06251">
        <ele>462.8</ele>
        <time>2022-08-10T06:59:25Z</time>
      </trkpt>
      <trkpt lat="47.14288" lon="6.06254">
        <ele>463.1</ele>
        <time>2022-08-10T06:59:26Z</time>
      </trkpt>
      <trkpt lat="47.14292" lon="6.06257">
        <ele>463.7</ele>
        <time>2022-08-10T06:59:27Z</time>
      </trkpt>
      <trkpt lat="47.14296" lon="6.0626">
        <ele>463.5</ele>
        <time>2022-08-10T06:59:28Z</time>
      </trkpt>
      <trkpt lat="47.143" lon="6.06264">
        <ele>463.6</ele>
        <time>2022-08-10T06:59:29Z</time>
      </trkpt>
      <trkpt lat="47.14305" lon="6.06267">
        <ele>463.9</ele>
        <time>2022-08-10T06:59:30Z</time>
      </trkpt>
      <trkpt lat="47.14309" lon="6.0627">
        <ele>464.1</ele>
        <time>2022-08-10T06:59:31Z</time>
      </trkpt>
      <trkpt lat="47.14313" lon="6.06273">
        <ele>464</ele>
        <time>2022-08-10T06:59:32Z</time>
      </trkpt>
      <trkpt lat="47.14317" lon="6.06277">
        <ele>463.7</ele>
        <time>2022-08-10T06:59:33Z</time>
      </trkpt>
      <trkpt lat="47.14321" lon="6.0628">
        <ele>463.5</ele>
        <time>2022-08-10T06:59:34Z</time>
      </trkpt>
      <trkpt lat="47.14325" lon="6.06284">
        <ele>463.6</ele>
        <time>2022-08-10T06:59:35Z</time>
      </trkpt>
      <trkpt lat="47.14329" lon="6.06287">
        <ele>463.4</ele>
        <time>2022-08-10T06:59:36Z</time>
      </trkpt>
      <trkpt lat="47.14333" lon="6.0629">
        <ele>463.8</ele>
        <time>2022-08-10T06:59:37Z</time>
      </trkpt>
      <trkpt lat="47.14337" lon="6.06293">
        <ele>464.1</ele>
        <time>2022-08-10T06:59:38Z</time>
      </trkpt>
      <trkpt lat="47.1434" lon="6.06296">
        <ele>464.5</ele>
        <time>2022-08-10T06:59:39Z</time>
      </trkpt>
      <trkpt lat="47.14344" lon="6.063">
        <ele>464.4</ele>
        <time>2022-08-10T06:59:40Z</time>
      </trkpt>
      <trkpt lat="47.14349" lon="6.06304">
        <ele>464.5</ele>
        <time>2022-08-10T06:59:41Z</time>
      </trkpt>
      <trkpt lat="47.14352" lon="6.06307">
        <ele>464.8</ele>
        <time>2022-08-10T06:59:42Z</time>
      </trkpt>
      <trkpt lat="47.14357" lon="6.06311">
        <ele>464.8</ele>
        <time>2022-08-10T06:59:43Z</time>
      </trkpt>
      <trkpt lat="47.14361" lon="6.06314">
        <ele>465.1</ele>
        <time>2022-08-10T06:59:44Z</time>
      </trkpt>
      <trkpt lat="47.14364" lon="6.06318">
        <ele>465.6</ele>
        <time>2022-08-10T06:59:45Z</time>
      </trkpt>
      <trkpt lat="47.14368" lon="6.06322">
        <ele>465.3</ele>
        <time>2022-08-10T06:59:46Z</time>
      </trkpt>
      <trkpt lat="47.14372" lon="6.06326">
        <ele>465.3</ele>
        <time>2022-08-10T06:59:47Z</time>
      </trkpt>
      <trkpt lat="47.14376" lon="6.0633">
        <ele>465.2</ele>
        <time>2022-08-10T06:59:48Z</time>
      </trkpt>
      <trkpt lat="47.14379" lon="6.06334">
        <ele>465.4</ele>
        <time>2022-08-10T06:59:49Z</time>
      </trkpt>
      <trkpt lat="47.14382" lon="6.06338">
        <ele>465.5</ele>
        <time>2022-08-10T06:59:50Z</time>
      </trkpt>
      <trkpt lat="47.14386" lon="6.06343">
        <ele>465</ele>
        <time>2022-08-10T06:59:51Z</time>
      </trkpt>
      <trkpt lat="47.14389" lon="6.06349">
        <ele>464.2</ele>
        <time>2022-08-10T06:59:52Z</time>
      </trkpt>
      <trkpt lat="47.14392" lon="6.06354">
        <ele>463.9</ele>
        <time>2022-08-10T06:59:53Z</time>
      </trkpt>
      <trkpt lat="47.14395" lon="6.06359">
        <ele>463.5</ele>
        <time>2022-08-10T06:59:54Z</time>
      </trkpt>
      <trkpt lat="47.14397" lon="6.06364">
        <ele>463.3</ele>
        <time>2022-08-10T06:59:55Z</time>
      </trkpt>
      <trkpt lat="47.144" lon="6.06369">
        <ele>463.2</ele>
        <time>2022-08-10T06:59:56Z</time>
      </trkpt>
      <trkpt lat="47.14403" lon="6.06374">
        <ele>462.9</ele>
        <time>2022-08-10T06:59:57Z</time>
      </trkpt>
      <trkpt lat="47.14406" lon="6.06379">
        <ele>462.1</ele>
        <time>2022-08-10T06:59:58Z</time>
      </trkpt>
      <trkpt lat="47.14409" lon="6.06385">
        <ele>461.6</ele>
        <time>2022-08-10T06:59:59Z</time>
      </trkpt>
      <trkpt lat="47.14412" lon="6.0639">
        <ele>461</ele>
        <time>2022-08-10T07:00:00Z</time>
      </trkpt>
      <trkpt lat="47.14415" lon="6.06395">
        <ele>460.7</ele>
        <time>2022-08-10T07:00:01Z</time>
      </trkpt>
      <trkpt lat="47.14417" lon="6.06401">
        <ele>460</ele>
        <time>2022-08-10T07:00:02Z</time>
      </trkpt>
      <trkpt lat="47.1442" lon="6.06406">
        <ele>459.4</ele>
        <time>2022-08-10T07:00:03Z</time>
      </trkpt>
      <trkpt lat="47.14423" lon="6.06411">
        <ele>459</ele>
        <time>2022-08-10T07:00:04Z</time>
      </trkpt>
      <trkpt lat="47.14426" lon="6.06416">
        <ele>458.6</ele>
        <time>2022-08-10T07:00:05Z</time>
      </trkpt>
      <trkpt lat="47.14429" lon="6.06421">
        <ele>458.4</ele>
        <time>2022-08-10T07:00:06Z</time>
      </trkpt>
      <trkpt lat="47.14432" lon="6.06426">
        <ele>458.2</ele>
        <time>2022-08-10T07:00:07Z</time>
      </trkpt>
      <trkpt lat="47.14435" lon="6.06431">
        <ele>458.1</ele>
        <time>2022-08-10T07:00:08Z</time>
      </trkpt>
      <trkpt lat="47.14438" lon="6.06435">
        <ele>457.9</ele>
        <time>2022-08-10T07:00:09Z</time>
      </trkpt>
      <trkpt lat="47.14441" lon="6.0644">
        <ele>457.8</ele>
        <time>2022-08-10T07:00:10Z</time>
      </trkpt>
      <trkpt lat="47.14444" lon="6.06444">
        <ele>457.8</ele>
        <time>2022-08-10T07:00:11Z</time>
      </trkpt>
      <trkpt lat="47.14448" lon="6.06449">
        <ele>457.6</ele>
        <time>2022-08-10T07:00:12Z</time>
      </trkpt>
      <trkpt lat="47.14451" lon="6.06454">
        <ele>457.4</ele>
        <time>2022-08-10T07:00:13Z</time>
      </trkpt>
      <trkpt lat="47.14455" lon="6.06459">
        <ele>457.3</ele>
        <time>2022-08-10T07:00:14Z</time>
      </trkpt>
      <trkpt lat="47.14458" lon="6.06464">
        <ele>457.2</ele>
        <time>2022-08-10T07:00:15Z</time>
      </trkpt>
      <trkpt lat="47.14461" lon="6.06468">
        <ele>457.1</ele>
        <time>2022-08-10T07:00:16Z</time>
      </trkpt>
      <trkpt lat="47.14465" lon="6.06473">
        <ele>457.1</ele>
        <time>2022-08-10T07:00:17Z</time>
      </trkpt>
      <trkpt lat="47.14468" lon="6.06477">
        <ele>457.1</ele>
        <time>2022-08-10T07:00:18Z</time>
      </trkpt>
      <trkpt lat="47.14471" lon="6.06482">
        <ele>457.1</ele>
        <time>2022-08-10T07:00:19Z</time>
      </trkpt>
      <trkpt lat="47.14474" lon="6.06487">
        <ele>457.4</ele>
        <time>2022-08-10T07:00:20Z</time>
      </trkpt>
      <trkpt lat="47.14478" lon="6.06491">
        <ele>457.5</ele>
        <time>2022-08-10T07:00:21Z</time>
      </trkpt>
      <trkpt lat="47.14481" lon="6.06496">
        <ele>457.4</ele>
        <time>2022-08-10T07:00:22Z</time>
      </trkpt>
      <trkpt lat="47.14484" lon="6.065">
        <ele>457.6</ele>
        <time>2022-08-10T07:00:23Z</time>
      </trkpt>
      <trkpt lat="47.14487" lon="6.06504">
        <ele>457.6</ele>
        <time>2022-08-10T07:00:24Z</time>
      </trkpt>
      <trkpt lat="47.14491" lon="6.06509">
        <ele>457.8</ele>
        <time>2022-08-10T07:00:25Z</time>
      </trkpt>
      <trkpt lat="47.14494" lon="6.06514">
        <ele>457.9</ele>
        <time>2022-08-10T07:00:26Z</time>
      </trkpt>
      <trkpt lat="47.14497" lon="6.06519">
        <ele>458</ele>
        <time>2022-08-10T07:00:27Z</time>
      </trkpt>
      <trkpt lat="47.145" lon="6.06523">
        <ele>457.9</ele>
        <time>2022-08-10T07:00:28Z</time>
      </trkpt>
      <trkpt lat="47.14504" lon="6.06528">
        <ele>457.8</ele>
        <time>2022-08-10T07:00:29Z</time>
      </trkpt>
      <trkpt lat="47.14507" lon="6.06533">
        <ele>457.8</ele>
        <time>2022-08-10T07:00:30Z</time>
      </trkpt>
      <trkpt lat="47.1451" lon="6.06537">
        <ele>457.7</ele>
        <time>2022-08-10T07:00:31Z</time>
      </trkpt>
      <trkpt lat="47.14514" lon="6.06542">
        <ele>457.7</ele>
        <time>2022-08-10T07:00:32Z</time>
      </trkpt>
      <trkpt lat="47.14517" lon="6.06546">
        <ele>457.6</ele>
        <time>2022-08-10T07:00:33Z</time>
      </trkpt>
      <trkpt lat="47.1452" lon="6.0655">
        <ele>457.6</ele>
        <time>2022-08-10T07:00:34Z</time>
      </trkpt>
      <trkpt lat="47.14524" lon="6.06554">
        <ele>457.6</ele>
        <time>2022-08-10T07:00:35Z</time>
      </trkpt>
      <trkpt lat="47.14528" lon="6.06558">
        <ele>457.5</ele>
        <time>2022-08-10T07:00:36Z</time>
      </trkpt>
      <trkpt lat="47.14531" lon="6.06561">
        <ele>457.5</ele>
        <time>2022-08-10T07:00:37Z</time>
      </trkpt>
      <trkpt lat="47.14535" lon="6.06564">
        <ele>457.6</ele>
        <time>2022-08-10T07:00:38Z</time>
      </trkpt>
      <trkpt lat="47.14539" lon="6.06567">
        <ele>457.8</ele>
        <time>2022-08-10T07:00:39Z</time>
      </trkpt>
      <trkpt lat="47.14543" lon="6.0657">
        <ele>458</ele>
        <time>2022-08-10T07:00:40Z</time>
      </trkpt>
      <trkpt lat="47.14547" lon="6.06573">
        <ele>458.3</ele>
        <time>2022-08-10T07:00:41Z</time>
      </trkpt>
      <trkpt lat="47.14551" lon="6.06576">
        <ele>458.5</ele>
        <time>2022-08-10T07:00:42Z</time>
      </trkpt>
      <trkpt lat="47.14555" lon="6.06578">
        <ele>458.7</ele>
        <time>2022-08-10T07:00:43Z</time>
      </trkpt>
      <trkpt lat="47.14559" lon="6.06581">
        <ele>458.7</ele>
        <time>2022-08-10T07:00:44Z</time>
      </trkpt>
      <trkpt lat="47.14563" lon="6.06584">
        <ele>458.8</ele>
        <time>2022-08-10T07:00:45Z</time>
      </trkpt>
      <trkpt lat="47.14567" lon="6.06587">
        <ele>458.8</ele>
        <time>2022-08-10T07:00:46Z</time>
      </trkpt>
      <trkpt lat="47.14571" lon="6.0659">
        <ele>458.9</ele>
        <time>2022-08-10T07:00:47Z</time>
      </trkpt>
      <trkpt lat="47.14575" lon="6.06594">
        <ele>458.9</ele>
        <time>2022-08-10T07:00:48Z</time>
      </trkpt>
      <trkpt lat="47.14578" lon="6.06597">
        <ele>459</ele>
        <time>2022-08-10T07:00:49Z</time>
      </trkpt>
      <trkpt lat="47.14582" lon="6.06599">
        <ele>459.1</ele>
        <time>2022-08-10T07:00:50Z</time>
      </trkpt>
      <trkpt lat="47.14587" lon="6.06601">
        <ele>459.2</ele>
        <time>2022-08-10T07:00:51Z</time>
      </trkpt>
      <trkpt lat="47.14591" lon="6.06604">
        <ele>459.2</ele>
        <time>2022-08-10T07:00:52Z</time>
      </trkpt>
      <trkpt lat="47.14595" lon="6.06606">
        <ele>459.3</ele>
        <time>2022-08-10T07:00:53Z</time>
      </trkpt>
      <trkpt lat="47.146" lon="6.06607">
        <ele>459.2</ele>
        <time>2022-08-10T07:00:54Z</time>
      </trkpt>
      <trkpt lat="47.14604" lon="6.06609">
        <ele>459.3</ele>
        <time>2022-08-10T07:00:55Z</time>
      </trkpt>
      <trkpt lat="47.14608" lon="6.0661">
        <ele>459.4</ele>
        <time>2022-08-10T07:00:56Z</time>
      </trkpt>
      <trkpt lat="47.14612" lon="6.06612">
        <ele>459.4</ele>
        <time>2022-08-10T07:00:57Z</time>
      </trkpt>
      <trkpt lat="47.14617" lon="6.06614">
        <ele>459.5</ele>
        <time>2022-08-10T07:00:58Z</time>
      </trkpt>
      <trkpt lat="47.14621" lon="6.06617">
        <ele>459.7</ele>
        <time>2022-08-10T07:00:59Z</time>
      </trkpt>
      <trkpt lat="47.14625" lon="6.0662">
        <ele>460</ele>
        <time>2022-08-10T07:01:00Z</time>
      </trkpt>
      <trkpt lat="47.14629" lon="6.06623">
        <ele>460.4</ele>
        <time>2022-08-10T07:01:01Z</time>
      </trkpt>
      <trkpt lat="47.14633" lon="6.06626">
        <ele>460.9</ele>
        <time>2022-08-10T07:01:02Z</time>
      </trkpt>
      <trkpt lat="47.14637" lon="6.06628">
        <ele>461.1</ele>
        <time>2022-08-10T07:01:03Z</time>
      </trkpt>
      <trkpt lat="47.14641" lon="6.06631">
        <ele>461.5</ele>
        <time>2022-08-10T07:01:04Z</time>
      </trkpt>
      <trkpt lat="47.14645" lon="6.06634">
        <ele>461.8</ele>
        <time>2022-08-10T07:01:05Z</time>
      </trkpt>
      <trkpt lat="47.14649" lon="6.06637">
        <ele>462</ele>
        <time>2022-08-10T07:01:06Z</time>
      </trkpt>
      <trkpt lat="47.14653" lon="6.0664">
        <ele>462.3</ele>
        <time>2022-08-10T07:01:07Z</time>
      </trkpt>
      <trkpt lat="47.14657" lon="6.06643">
        <ele>462.4</ele>
        <time>2022-08-10T07:01:08Z</time>
      </trkpt>
      <trkpt lat="47.14661" lon="6.06646">
        <ele>462.5</ele>
        <time>2022-08-10T07:01:09Z</time>
      </trkpt>
      <trkpt lat="47.14665" lon="6.06648">
        <ele>462.6</ele>
        <time>2022-08-10T07:01:10Z</time>
      </trkpt>
      <trkpt lat="47.14669" lon="6.0665">
        <ele>462.7</ele>
        <time>2022-08-10T07:01:11Z</time>
      </trkpt>
      <trkpt lat="47.14673" lon="6.06653">
        <ele>462.7</ele>
        <time>2022-08-10T07:01:12Z</time>
      </trkpt>
      <trkpt lat="47.14677" lon="6.06655">
        <ele>462.9</ele>
        <time>2022-08-10T07:01:13Z</time>
      </trkpt>
      <trkpt lat="47.14681" lon="6.06658">
        <ele>463</ele>
        <time>2022-08-10T07:01:14Z</time>
      </trkpt>
      <trkpt lat="47.14685" lon="6.06659">
        <ele>463.1</ele>
        <time>2022-08-10T07:01:15Z</time>
      </trkpt>
      <trkpt lat="47.1469" lon="6.06661">
        <ele>463.1</ele>
        <time>2022-08-10T07:01:16Z</time>
      </trkpt>
      <trkpt lat="47.14694" lon="6.06663">
        <ele>463.2</ele>
        <time>2022-08-10T07:01:17Z</time>
      </trkpt>
      <trkpt lat="47.14698" lon="6.06664">
        <ele>463.5</ele>
        <time>2022-08-10T07:01:18Z</time>
      </trkpt>
      <trkpt lat="47.14702" lon="6.06665">
        <ele>464.1</ele>
        <time>2022-08-10T07:01:19Z</time>
      </trkpt>
      <trkpt lat="47.14707" lon="6.06666">
        <ele>464.8</ele>
        <time>2022-08-10T07:01:20Z</time>
      </trkpt>
      <trkpt lat="47.14711" lon="6.06667">
        <ele>465.5</ele>
        <time>2022-08-10T07:01:21Z</time>
      </trkpt>
      <trkpt lat="47.14715" lon="6.06669">
        <ele>466.2</ele>
        <time>2022-08-10T07:01:22Z</time>
      </trkpt>
      <trkpt lat="47.14719" lon="6.0667">
        <ele>466.8</ele>
        <time>2022-08-10T07:01:23Z</time>
      </trkpt>
      <trkpt lat="47.14724" lon="6.0667">
        <ele>467.5</ele>
        <time>2022-08-10T07:01:24Z</time>
      </trkpt>
      <trkpt lat="47.14728" lon="6.06671">
        <ele>467.8</ele>
        <time>2022-08-10T07:01:25Z</time>
      </trkpt>
      <trkpt lat="47.14733" lon="6.06672">
        <ele>468.3</ele>
        <time>2022-08-10T07:01:26Z</time>
      </trkpt>
      <trkpt lat="47.14737" lon="6.06673">
        <ele>468.2</ele>
        <time>2022-08-10T07:01:27Z</time>
      </trkpt>
      <trkpt lat="47.14741" lon="6.06674">
        <ele>468.2</ele>
        <time>2022-08-10T07:01:28Z</time>
      </trkpt>
      <trkpt lat="47.14746" lon="6.06675">
        <ele>468.1</ele>
        <time>2022-08-10T07:01:29Z</time>
      </trkpt>
      <trkpt lat="47.1475" lon="6.06676">
        <ele>468.1</ele>
        <time>2022-08-10T07:01:30Z</time>
      </trkpt>
      <trkpt lat="47.14754" lon="6.06677">
        <ele>467.9</ele>
        <time>2022-08-10T07:01:31Z</time>
      </trkpt>
      <trkpt lat="47.14759" lon="6.06678">
        <ele>467.8</ele>
        <time>2022-08-10T07:01:32Z</time>
      </trkpt>
      <trkpt lat="47.14763" lon="6.06679">
        <ele>467.6</ele>
        <time>2022-08-10T07:01:33Z</time>
      </trkpt>
      <trkpt lat="47.14768" lon="6.0668">
        <ele>467.5</ele>
        <time>2022-08-10T07:01:34Z</time>
      </trkpt>
      <trkpt lat="47.14772" lon="6.06681">
        <ele>467.3</ele>
        <time>2022-08-10T07:01:35Z</time>
      </trkpt>
      <trkpt lat="47.14776" lon="6.06683">
        <ele>467.3</ele>
        <time>2022-08-10T07:01:36Z</time>
      </trkpt>
      <trkpt lat="47.1478" lon="6.06683">
        <ele>467.4</ele>
        <time>2022-08-10T07:01:37Z</time>
      </trkpt>
      <trkpt lat="47.14784" lon="6.06684">
        <ele>467.5</ele>
        <time>2022-08-10T07:01:38Z</time>
      </trkpt>
      <trkpt lat="47.14788" lon="6.06685">
        <ele>467.8</ele>
        <time>2022-08-10T07:01:39Z</time>
      </trkpt>
      <trkpt lat="47.14792" lon="6.06685">
        <ele>468.2</ele>
        <time>2022-08-10T07:01:40Z</time>
      </trkpt>
      <trkpt lat="47.14796" lon="6.06684">
        <ele>468.6</ele>
        <time>2022-08-10T07:01:41Z</time>
      </trkpt>
      <trkpt lat="47.148" lon="6.06685">
        <ele>468.9</ele>
        <time>2022-08-10T07:01:42Z</time>
      </trkpt>
      <trkpt lat="47.14804" lon="6.06686">
        <ele>469.1</ele>
        <time>2022-08-10T07:01:43Z</time>
      </trkpt>
      <trkpt lat="47.14808" lon="6.06688">
        <ele>469.5</ele>
        <time>2022-08-10T07:01:44Z</time>
      </trkpt>
      <trkpt lat="47.14812" lon="6.0669">
        <ele>469.4</ele>
        <time>2022-08-10T07:01:45Z</time>
      </trkpt>
      <trkpt lat="47.14816" lon="6.06692">
        <ele>469.7</ele>
        <time>2022-08-10T07:01:46Z</time>
      </trkpt>
      <trkpt lat="47.14821" lon="6.06693">
        <ele>469.6</ele>
        <time>2022-08-10T07:01:47Z</time>
      </trkpt>
      <trkpt lat="47.14825" lon="6.06694">
        <ele>469.8</ele>
        <time>2022-08-10T07:01:48Z</time>
      </trkpt>
      <trkpt lat="47.14829" lon="6.06695">
        <ele>470.1</ele>
        <time>2022-08-10T07:01:49Z</time>
      </trkpt>
      <trkpt lat="47.14833" lon="6.06696">
        <ele>470.3</ele>
        <time>2022-08-10T07:01:50Z</time>
      </trkpt>
      <trkpt lat="47.14837" lon="6.06696">
        <ele>470.6</ele>
        <time>2022-08-10T07:01:51Z</time>
      </trkpt>
      <trkpt lat="47.14842" lon="6.06696">
        <ele>470.7</ele>
        <time>2022-08-10T07:01:52Z</time>
      </trkpt>
      <trkpt lat="47.14846" lon="6.06696">
        <ele>471.2</ele>
        <time>2022-08-10T07:01:53Z</time>
      </trkpt>
      <trkpt lat="47.1485" lon="6.06697">
        <ele>471.2</ele>
        <time>2022-08-10T07:01:54Z</time>
      </trkpt>
      <trkpt lat="47.14855" lon="6.06698">
        <ele>471.4</ele>
        <time>2022-08-10T07:01:55Z</time>
      </trkpt>
      <trkpt lat="47.14859" lon="6.06698">
        <ele>471.3</ele>
        <time>2022-08-10T07:01:56Z</time>
      </trkpt>
      <trkpt lat="47.14864" lon="6.06699">
        <ele>471.5</ele>
        <time>2022-08-10T07:01:57Z</time>
      </trkpt>
      <trkpt lat="47.14868" lon="6.06699">
        <ele>471.8</ele>
        <time>2022-08-10T07:01:58Z</time>
      </trkpt>
      <trkpt lat="47.14873" lon="6.067">
        <ele>471.8</ele>
        <time>2022-08-10T07:01:59Z</time>
      </trkpt>
      <trkpt lat="47.14877" lon="6.06701">
        <ele>471.7</ele>
        <time>2022-08-10T07:02:00Z</time>
      </trkpt>
      <trkpt lat="47.14882" lon="6.06702">
        <ele>471.8</ele>
        <time>2022-08-10T07:02:01Z</time>
      </trkpt>
      <trkpt lat="47.14886" lon="6.06704">
        <ele>471.6</ele>
        <time>2022-08-10T07:02:02Z</time>
      </trkpt>
      <trkpt lat="47.14891" lon="6.06706">
        <ele>471.7</ele>
        <time>2022-08-10T07:02:03Z</time>
      </trkpt>
      <trkpt lat="47.14895" lon="6.06708">
        <ele>471.8</ele>
        <time>2022-08-10T07:02:04Z</time>
      </trkpt>
      <trkpt lat="47.14899" lon="6.06711">
        <ele>472.1</ele>
        <time>2022-08-10T07:02:05Z</time>
      </trkpt>
      <trkpt lat="47.14904" lon="6.06713">
        <ele>471.9</ele>
        <time>2022-08-10T07:02:06Z</time>
      </trkpt>
      <trkpt lat="47.14908" lon="6.06716">
        <ele>471.9</ele>
        <time>2022-08-10T07:02:07Z</time>
      </trkpt>
      <trkpt lat="47.14913" lon="6.06718">
        <ele>471.9</ele>
        <time>2022-08-10T07:02:08Z</time>
      </trkpt>
      <trkpt lat="47.14918" lon="6.06721">
        <ele>472</ele>
        <time>2022-08-10T07:02:09Z</time>
      </trkpt>
      <trkpt lat="47.14922" lon="6.06724">
        <ele>471.8</ele>
        <time>2022-08-10T07:02:10Z</time>
      </trkpt>
      <trkpt lat="47.14927" lon="6.06727">
        <ele>471.2</ele>
        <time>2022-08-10T07:02:11Z</time>
      </trkpt>
      <trkpt lat="47.14931" lon="6.06729">
        <ele>470.9</ele>
        <time>2022-08-10T07:02:12Z</time>
      </trkpt>
      <trkpt lat="47.14935" lon="6.06732">
        <ele>471</ele>
        <time>2022-08-10T07:02:13Z</time>
      </trkpt>
      <trkpt lat="47.14939" lon="6.06735">
        <ele>471.1</ele>
        <time>2022-08-10T07:02:14Z</time>
      </trkpt>
      <trkpt lat="47.14944" lon="6.06737">
        <ele>471.3</ele>
        <time>2022-08-10T07:02:15Z</time>
      </trkpt>
      <trkpt lat="47.14949" lon="6.0674">
        <ele>471</ele>
        <time>2022-08-10T07:02:16Z</time>
      </trkpt>
      <trkpt lat="47.14953" lon="6.06744">
        <ele>470.5</ele>
        <time>2022-08-10T07:02:17Z</time>
      </trkpt>
      <trkpt lat="47.14958" lon="6.06747">
        <ele>470.2</ele>
        <time>2022-08-10T07:02:18Z</time>
      </trkpt>
      <trkpt lat="47.14963" lon="6.0675">
        <ele>470.2</ele>
        <time>2022-08-10T07:02:19Z</time>
      </trkpt>
      <trkpt lat="47.14968" lon="6.06752">
        <ele>469.9</ele>
        <time>2022-08-10T07:02:20Z</time>
      </trkpt>
      <trkpt lat="47.14973" lon="6.06755">
        <ele>469.6</ele>
        <time>2022-08-10T07:02:21Z</time>
      </trkpt>
      <trkpt lat="47.14978" lon="6.06757">
        <ele>469.8</ele>
        <time>2022-08-10T07:02:22Z</time>
      </trkpt>
      <trkpt lat="47.14983" lon="6.06757">
        <ele>470.3</ele>
        <time>2022-08-10T07:02:23Z</time>
      </trkpt>
      <trkpt lat="47.14988" lon="6.06758">
        <ele>470.6</ele>
        <time>2022-08-10T07:02:24Z</time>
      </trkpt>
      <trkpt lat="47.14994" lon="6.06759">
        <ele>470.5</ele>
        <time>2022-08-10T07:02:25Z</time>
      </trkpt>
      <trkpt lat="47.14998" lon="6.06762">
        <ele>469.9</ele>
        <time>2022-08-10T07:02:26Z</time>
      </trkpt>
      <trkpt lat="47.15003" lon="6.06767">
        <ele>469.4</ele>
        <time>2022-08-10T07:02:27Z</time>
      </trkpt>
      <trkpt lat="47.15007" lon="6.06771">
        <ele>468.9</ele>
        <time>2022-08-10T07:02:28Z</time>
      </trkpt>
      <trkpt lat="47.15011" lon="6.06777">
        <ele>468.4</ele>
        <time>2022-08-10T07:02:29Z</time>
      </trkpt>
      <trkpt lat="47.15015" lon="6.06782">
        <ele>468.2</ele>
        <time>2022-08-10T07:02:30Z</time>
      </trkpt>
      <trkpt lat="47.15018" lon="6.06787">
        <ele>467.7</ele>
        <time>2022-08-10T07:02:31Z</time>
      </trkpt>
      <trkpt lat="47.15022" lon="6.06792">
        <ele>467.3</ele>
        <time>2022-08-10T07:02:32Z</time>
      </trkpt>
      <trkpt lat="47.15025" lon="6.06797">
        <ele>467.2</ele>
        <time>2022-08-10T07:02:33Z</time>
      </trkpt>
      <trkpt lat="47.15028" lon="6.06803">
        <ele>467.2</ele>
        <time>2022-08-10T07:02:34Z</time>
      </trkpt>
      <trkpt lat="47.15032" lon="6.06808">
        <ele>466.6</ele>
        <time>2022-08-10T07:02:35Z</time>
      </trkpt>
      <trkpt lat="47.15035" lon="6.06813">
        <ele>466.6</ele>
        <time>2022-08-10T07:02:36Z</time>
      </trkpt>
      <trkpt lat="47.15038" lon="6.06819">
        <ele>466.3</ele>
        <time>2022-08-10T07:02:37Z</time>
      </trkpt>
      <trkpt lat="47.15041" lon="6.06824">
        <ele>466.1</ele>
        <time>2022-08-10T07:02:38Z</time>
      </trkpt>
      <trkpt lat="47.15045" lon="6.0683">
        <ele>466</ele>
        <time>2022-08-10T07:02:39Z</time>
      </trkpt>
      <trkpt lat="47.15048" lon="6.06836">
        <ele>466</ele>
        <time>2022-08-10T07:02:40Z</time>
      </trkpt>
      <trkpt lat="47.15051" lon="6.06841">
        <ele>466.1</ele>
        <time>2022-08-10T07:02:41Z</time>
      </trkpt>
      <trkpt lat="47.15055" lon="6.06846">
        <ele>466.4</ele>
        <time>2022-08-10T07:02:42Z</time>
      </trkpt>
      <trkpt lat="47.15058" lon="6.06852">
        <ele>466.6</ele>
        <time>2022-08-10T07:02:43Z</time>
      </trkpt>
      <trkpt lat="47.1506" lon="6.06857">
        <ele>467.3</ele>
        <time>2022-08-10T07:02:44Z</time>
      </trkpt>
      <trkpt lat="47.15063" lon="6.06863">
        <ele>467</ele>
        <time>2022-08-10T07:02:45Z</time>
      </trkpt>
      <trkpt lat="47.15063" lon="6.06869">
        <ele>467.5</ele>
        <time>2022-08-10T07:02:46Z</time>
      </trkpt>
      <trkpt lat="47.15062" lon="6.06875">
        <ele>467.4</ele>
        <time>2022-08-10T07:02:47Z</time>
      </trkpt>
      <trkpt lat="47.1506" lon="6.06881">
        <ele>467.5</ele>
        <time>2022-08-10T07:02:48Z</time>
      </trkpt>
      <trkpt lat="47.15058" lon="6.06887">
        <ele>467.9</ele>
        <time>2022-08-10T07:02:49Z</time>
      </trkpt>
      <trkpt lat="47.15057" lon="6.06893">
        <ele>468.4</ele>
        <time>2022-08-10T07:02:50Z</time>
      </trkpt>
      <trkpt lat="47.15056" lon="6.06899">
        <ele>468.7</ele>
        <time>2022-08-10T07:02:51Z</time>
      </trkpt>
      <trkpt lat="47.15053" lon="6.06904">
        <ele>469.1</ele>
        <time>2022-08-10T07:02:52Z</time>
      </trkpt>
      <trkpt lat="47.15049" lon="6.06907">
        <ele>469.1</ele>
        <time>2022-08-10T07:02:53Z</time>
      </trkpt>
      <trkpt lat="47.15045" lon="6.0691">
        <ele>469</ele>
        <time>2022-08-10T07:02:54Z</time>
      </trkpt>
      <trkpt lat="47.15042" lon="6.06914">
        <ele>468.9</ele>
        <time>2022-08-10T07:02:55Z</time>
      </trkpt>
      <trkpt lat="47.15038" lon="6.06917">
        <ele>468.8</ele>
        <time>2022-08-10T07:02:56Z</time>
      </trkpt>
      <trkpt lat="47.15034" lon="6.0692">
        <ele>468.7</ele>
        <time>2022-08-10T07:02:57Z</time>
      </trkpt>
      <trkpt lat="47.1503" lon="6.06923">
        <ele>468.5</ele>
        <time>2022-08-10T07:02:58Z</time>
      </trkpt>
      <trkpt lat="47.15026" lon="6.06925">
        <ele>468.5</ele>
        <time>2022-08-10T07:02:59Z</time>
      </trkpt>
      <trkpt lat="47.15022" lon="6.06928">
        <ele>468.4</ele>
        <time>2022-08-10T07:03:00Z</time>
      </trkpt>
      <trkpt lat="47.15018" lon="6.0693">
        <ele>468.4</ele>
        <time>2022-08-10T07:03:01Z</time>
      </trkpt>
      <trkpt lat="47.15014" lon="6.06932">
        <ele>468.6</ele>
        <time>2022-08-10T07:03:02Z</time>
      </trkpt>
      <trkpt lat="47.1501" lon="6.06935">
        <ele>468.3</ele>
        <time>2022-08-10T07:03:03Z</time>
      </trkpt>
      <trkpt lat="47.15006" lon="6.06937">
        <ele>468</ele>
        <time>2022-08-10T07:03:04Z</time>
      </trkpt>
      <trkpt lat="47.15002" lon="6.0694">
        <ele>468.3</ele>
        <time>2022-08-10T07:03:05Z</time>
      </trkpt>
      <trkpt lat="47.14999" lon="6.06942">
        <ele>468.6</ele>
        <time>2022-08-10T07:03:06Z</time>
      </trkpt>
      <trkpt lat="47.14996" lon="6.06944">
        <ele>469.2</ele>
        <time>2022-08-10T07:03:07Z</time>
      </trkpt>
      <trkpt lat="47.14993" lon="6.06946">
        <ele>469.5</ele>
        <time>2022-08-10T07:03:08Z</time>
      </trkpt>
      <trkpt lat="47.1499" lon="6.06948">
        <ele>470</ele>
        <time>2022-08-10T07:03:09Z</time>
      </trkpt>
      <trkpt lat="47.14987" lon="6.06951">
        <ele>470.4</ele>
        <time>2022-08-10T07:03:10Z</time>
      </trkpt>
      <trkpt lat="47.14985" lon="6.06953">
        <ele>471</ele>
        <time>2022-08-10T07:03:11Z</time>
      </trkpt>
      <trkpt lat="47.14982" lon="6.06956">
        <ele>471.4</ele>
        <time>2022-08-10T07:03:12Z</time>
      </trkpt>
      <trkpt lat="47.14978" lon="6.06958">
        <ele>471.7</ele>
        <time>2022-08-10T07:03:13Z</time>
      </trkpt>
      <trkpt lat="47.14975" lon="6.0696">
        <ele>472.1</ele>
        <time>2022-08-10T07:03:14Z</time>
      </trkpt>
      <trkpt lat="47.14972" lon="6.06963">
        <ele>472.5</ele>
        <time>2022-08-10T07:03:15Z</time>
      </trkpt>
      <trkpt lat="47.14968" lon="6.06966">
        <ele>472.9</ele>
        <time>2022-08-10T07:03:16Z</time>
      </trkpt>
      <trkpt lat="47.14965" lon="6.06968">
        <ele>473.2</ele>
        <time>2022-08-10T07:03:17Z</time>
      </trkpt>
      <trkpt lat="47.14962" lon="6.06971">
        <ele>473.8</ele>
        <time>2022-08-10T07:03:18Z</time>
      </trkpt>
      <trkpt lat="47.14959" lon="6.06973">
        <ele>474.2</ele>
        <time>2022-08-10T07:03:19Z</time>
      </trkpt>
      <trkpt lat="47.14956" lon="6.06976">
        <ele>474.5</ele>
        <time>2022-08-10T07:03:20Z</time>
      </trkpt>
      <trkpt lat="47.14952" lon="6.06979">
        <ele>474.9</ele>
        <time>2022-08-10T07:03:21Z</time>
      </trkpt>
      <trkpt lat="47.14949" lon="6.06981">
        <ele>475.3</ele>
        <time>2022-08-10T07:03:22Z</time>
      </trkpt>
      <trkpt lat="47.14945" lon="6.06984">
        <ele>475.7</ele>
        <time>2022-08-10T07:03:23Z</time>
      </trkpt>
      <trkpt lat="47.14942" lon="6.06986">
        <ele>476.2</ele>
        <time>2022-08-10T07:03:24Z</time>
      </trkpt>
      <trkpt lat="47.14939" lon="6.06988">
        <ele>476.6</ele>
        <time>2022-08-10T07:03:25Z</time>
      </trkpt>
      <trkpt lat="47.14936" lon="6.06991">
        <ele>477.3</ele>
        <time>2022-08-10T07:03:26Z</time>
      </trkpt>
      <trkpt lat="47.14933" lon="6.06993">
        <ele>477.8</ele>
        <time>2022-08-10T07:03:27Z</time>
      </trkpt>
      <trkpt lat="47.1493" lon="6.06996">
        <ele>478.5</ele>
        <time>2022-08-10T07:03:28Z</time>
      </trkpt>
      <trkpt lat="47.14927" lon="6.06999">
        <ele>479.2</ele>
        <time>2022-08-10T07:03:29Z</time>
      </trkpt>
      <trkpt lat="47.14924" lon="6.07001">
        <ele>479.6</ele>
        <time>2022-08-10T07:03:30Z</time>
      </trkpt>
      <trkpt lat="47.14921" lon="6.07003">
        <ele>480.1</ele>
        <time>2022-08-10T07:03:31Z</time>
      </trkpt>
      <trkpt lat="47.14918" lon="6.07005">
        <ele>480.3</ele>
        <time>2022-08-10T07:03:32Z</time>
      </trkpt>
      <trkpt lat="47.14915" lon="6.07007">
        <ele>480.7</ele>
        <time>2022-08-10T07:03:33Z</time>
      </trkpt>
      <trkpt lat="47.14912" lon="6.07008">
        <ele>481.5</ele>
        <time>2022-08-10T07:03:34Z</time>
      </trkpt>
      <trkpt lat="47.14908" lon="6.07009">
        <ele>481.9</ele>
        <time>2022-08-10T07:03:35Z</time>
      </trkpt>
      <trkpt lat="47.14905" lon="6.07009">
        <ele>482.2</ele>
        <time>2022-08-10T07:03:36Z</time>
      </trkpt>
      <trkpt lat="47.14901" lon="6.07009">
        <ele>482.2</ele>
        <time>2022-08-10T07:03:37Z</time>
      </trkpt>
      <trkpt lat="47.14898" lon="6.07009">
        <ele>482.5</ele>
        <time>2022-08-10T07:03:38Z</time>
      </trkpt>
      <trkpt lat="47.14894" lon="6.07009">
        <ele>482.4</ele>
        <time>2022-08-10T07:03:39Z</time>
      </trkpt>
      <trkpt lat="47.14891" lon="6.07007">
        <ele>482.8</ele>
        <time>2022-08-10T07:03:40Z</time>
      </trkpt>
      <trkpt lat="47.14888" lon="6.07006">
        <ele>483.5</ele>
        <time>2022-08-10T07:03:41Z</time>
      </trkpt>
      <trkpt lat="47.14884" lon="6.07003">
        <ele>484.1</ele>
        <time>2022-08-10T07:03:42Z</time>
      </trkpt>
      <trkpt lat="47.14881" lon="6.07001">
        <ele>484.7</ele>
        <time>2022-08-10T07:03:43Z</time>
      </trkpt>
      <trkpt lat="47.14879" lon="6.06998">
        <ele>485.6</ele>
        <time>2022-08-10T07:03:44Z</time>
      </trkpt>
      <trkpt lat="47.14876" lon="6.06995">
        <ele>486.5</ele>
        <time>2022-08-10T07:03:45Z</time>
      </trkpt>
      <trkpt lat="47.14873" lon="6.06992">
        <ele>486.8</ele>
        <time>2022-08-10T07:03:46Z</time>
      </trkpt>
      <trkpt lat="47.14871" lon="6.06989">
        <ele>487.7</ele>
        <time>2022-08-10T07:03:47Z</time>
      </trkpt>
      <trkpt lat="47.14869" lon="6.06986">
        <ele>488.6</ele>
        <time>2022-08-10T07:03:48Z</time>
      </trkpt>
      <trkpt lat="47.14866" lon="6.06983">
        <ele>489.3</ele>
        <time>2022-08-10T07:03:49Z</time>
      </trkpt>
      <trkpt lat="47.14864" lon="6.0698">
        <ele>490</ele>
        <time>2022-08-10T07:03:50Z</time>
      </trkpt>
      <trkpt lat="47.14861" lon="6.06977">
        <ele>491</ele>
        <time>2022-08-10T07:03:51Z</time>
      </trkpt>
      <trkpt lat="47.14859" lon="6.06974">
        <ele>491.8</ele>
        <time>2022-08-10T07:03:52Z</time>
      </trkpt>
      <trkpt lat="47.14856" lon="6.06971">
        <ele>492.7</ele>
        <time>2022-08-10T07:03:53Z</time>
      </trkpt>
      <trkpt lat="47.14854" lon="6.06968">
        <ele>493.8</ele>
        <time>2022-08-10T07:03:54Z</time>
      </trkpt>
      <trkpt lat="47.14851" lon="6.06965">
        <ele>494.4</ele>
        <time>2022-08-10T07:03:55Z</time>
      </trkpt>
      <trkpt lat="47.14848" lon="6.06962">
        <ele>495.7</ele>
        <time>2022-08-10T07:03:56Z</time>
      </trkpt>
      <trkpt lat="47.14846" lon="6.06959">
        <ele>496.7</ele>
        <time>2022-08-10T07:03:57Z</time>
      </trkpt>
      <trkpt lat="47.14843" lon="6.06956">
        <ele>497.6</ele>
        <time>2022-08-10T07:03:58Z</time>
      </trkpt>
      <trkpt lat="47.14839" lon="6.06953">
        <ele>497.9</ele>
        <time>2022-08-10T07:03:59Z</time>
      </trkpt>
      <trkpt lat="47.14836" lon="6.0695">
        <ele>498.2</ele>
        <time>2022-08-10T07:04:00Z</time>
      </trkpt>
      <trkpt lat="47.14833" lon="6.06947">
        <ele>498.6</ele>
        <time>2022-08-10T07:04:01Z</time>
      </trkpt>
      <trkpt lat="47.1483" lon="6.06944">
        <ele>498.6</ele>
        <time>2022-08-10T07:04:02Z</time>
      </trkpt>
      <trkpt lat="47.14826" lon="6.06941">
        <ele>498.6</ele>
        <time>2022-08-10T07:04:03Z</time>
      </trkpt>
      <trkpt lat="47.14823" lon="6.06939">
        <ele>499.2</ele>
        <time>2022-08-10T07:04:04Z</time>
      </trkpt>
      <trkpt lat="47.1482" lon="6.06936">
        <ele>500</ele>
        <time>2022-08-10T07:04:05Z</time>
      </trkpt>
      <trkpt lat="47.14817" lon="6.06934">
        <ele>500.5</ele>
        <time>2022-08-10T07:04:06Z</time>
      </trkpt>
      <trkpt lat="47.14814" lon="6.06932">
        <ele>500.7</ele>
        <time>2022-08-10T07:04:07Z</time>
      </trkpt>
      <trkpt lat="47.14811" lon="6.06929">
        <ele>501.1</ele>
        <time>2022-08-10T07:04:08Z</time>
      </trkpt>
      <trkpt lat="47.14808" lon="6.06927">
        <ele>501.5</ele>
        <time>2022-08-10T07:04:09Z</time>
      </trkpt>
      <trkpt lat="47.14805" lon="6.06924">
        <ele>501.8</ele>
        <time>2022-08-10T07:04:10Z</time>
      </trkpt>
      <trkpt lat="47.14802" lon="6.06922">
        <ele>502.2</ele>
        <time>2022-08-10T07:04:11Z</time>
      </trkpt>
      <trkpt lat="47.148" lon="6.0692">
        <ele>502.9</ele>
        <time>2022-08-10T07:04:12Z</time>
      </trkpt>
      <trkpt lat="47.14797" lon="6.06918">
        <ele>503.5</ele>
        <time>2022-08-10T07:04:13Z</time>
      </trkpt>
      <trkpt lat="47.14795" lon="6.06916">
        <ele>504.8</ele>
        <time>2022-08-10T07:04:14Z</time>
      </trkpt>
      <trkpt lat="47.14792" lon="6.06914">
        <ele>505.8</ele>
        <time>2022-08-10T07:04:15Z</time>
      </trkpt>
      <trkpt lat="47.1479" lon="6.06913">
        <ele>506.8</ele>
        <time>2022-08-10T07:04:16Z</time>
      </trkpt>
      <trkpt lat="47.14787" lon="6.06911">
        <ele>507.9</ele>
        <time>2022-08-10T07:04:17Z</time>
      </trkpt>
      <trkpt lat="47.14784" lon="6.06909">
        <ele>509</ele>
        <time>2022-08-10T07:04:18Z</time>
      </trkpt>
      <trkpt lat="47.14781" lon="6.06907">
        <ele>510.2</ele>
        <time>2022-08-10T07:04:19Z</time>
      </trkpt>
      <trkpt lat="47.14778" lon="6.06905">
        <ele>511.3</ele>
        <time>2022-08-10T07:04:20Z</time>
      </trkpt>
      <trkpt lat="47.14774" lon="6.06904">
        <ele>511.9</ele>
        <time>2022-08-10T07:04:21Z</time>
      </trkpt>
      <trkpt lat="47.14771" lon="6.06902">
        <ele>512.3</ele>
        <time>2022-08-10T07:04:22Z</time>
      </trkpt>
      <trkpt lat="47.14767" lon="6.069">
        <ele>512.9</ele>
        <time>2022-08-10T07:04:23Z</time>
      </trkpt>
      <trkpt lat="47.14764" lon="6.06898">
        <ele>513.7</ele>
        <time>2022-08-10T07:04:24Z</time>
      </trkpt>
      <trkpt lat="47.14761" lon="6.06897">
        <ele>514.1</ele>
        <time>2022-08-10T07:04:25Z</time>
      </trkpt>
      <trkpt lat="47.14754" lon="6.06897">
        <ele>512.2</ele>
        <time>2022-08-10T07:04:26Z</time>
      </trkpt>
      <trkpt lat="47.14751" lon="6.06897">
        <ele>512.3</ele>
        <time>2022-08-10T07:04:27Z</time>
      </trkpt>
      <trkpt lat="47.14745" lon="6.06898">
        <ele>511.1</ele>
        <time>2022-08-10T07:04:28Z</time>
      </trkpt>
      <trkpt lat="47.14741" lon="6.06898">
        <ele>511.2</ele>
        <time>2022-08-10T07:04:29Z</time>
      </trkpt>
      <trkpt lat="47.14737" lon="6.069">
        <ele>511.1</ele>
        <time>2022-08-10T07:04:30Z</time>
      </trkpt>
      <trkpt lat="47.14733" lon="6.06901">
        <ele>511</ele>
        <time>2022-08-10T07:04:31Z</time>
      </trkpt>
      <trkpt lat="47.14729" lon="6.06903">
        <ele>510.9</ele>
        <time>2022-08-10T07:04:32Z</time>
      </trkpt>
      <trkpt lat="47.14726" lon="6.06906">
        <ele>510.7</ele>
        <time>2022-08-10T07:04:33Z</time>
      </trkpt>
      <trkpt lat="47.14723" lon="6.06909">
        <ele>510.1</ele>
        <time>2022-08-10T07:04:34Z</time>
      </trkpt>
      <trkpt lat="47.1472" lon="6.06913">
        <ele>510</ele>
        <time>2022-08-10T07:04:35Z</time>
      </trkpt>
      <trkpt lat="47.14718" lon="6.06917">
        <ele>509.9</ele>
        <time>2022-08-10T07:04:36Z</time>
      </trkpt>
      <trkpt lat="47.14716" lon="6.06922">
        <ele>510.1</ele>
        <time>2022-08-10T07:04:37Z</time>
      </trkpt>
      <trkpt lat="47.14715" lon="6.06927">
        <ele>510</ele>
        <time>2022-08-10T07:04:38Z</time>
      </trkpt>
      <trkpt lat="47.14715" lon="6.06932">
        <ele>509.9</ele>
        <time>2022-08-10T07:04:39Z</time>
      </trkpt>
      <trkpt lat="47.14715" lon="6.06937">
        <ele>510.1</ele>
        <time>2022-08-10T07:04:40Z</time>
      </trkpt>
      <trkpt lat="47.14716" lon="6.06942">
        <ele>510.4</ele>
        <time>2022-08-10T07:04:41Z</time>
      </trkpt>
      <trkpt lat="47.14717" lon="6.06947">
        <ele>511</ele>
        <time>2022-08-10T07:04:42Z</time>
      </trkpt>
      <trkpt lat="47.14718" lon="6.06951">
        <ele>511.7</ele>
        <time>2022-08-10T07:04:43Z</time>
      </trkpt>
      <trkpt lat="47.14719" lon="6.06956">
        <ele>512.3</ele>
        <time>2022-08-10T07:04:44Z</time>
      </trkpt>
      <trkpt lat="47.1472" lon="6.0696">
        <ele>513.4</ele>
        <time>2022-08-10T07:04:45Z</time>
      </trkpt>
      <trkpt lat="47.14721" lon="6.06964">
        <ele>514.6</ele>
        <time>2022-08-10T07:04:46Z</time>
      </trkpt>
      <trkpt lat="47.14722" lon="6.06968">
        <ele>515.9</ele>
        <time>2022-08-10T07:04:47Z</time>
      </trkpt>
      <trkpt lat="47.14724" lon="6.06973">
        <ele>516.8</ele>
        <time>2022-08-10T07:04:48Z</time>
      </trkpt>
      <trkpt lat="47.14725" lon="6.06976">
        <ele>517.6</ele>
        <time>2022-08-10T07:04:49Z</time>
      </trkpt>
      <trkpt lat="47.14726" lon="6.0698">
        <ele>518.8</ele>
        <time>2022-08-10T07:04:50Z</time>
      </trkpt>
      <trkpt lat="47.14727" lon="6.06984">
        <ele>519.6</ele>
        <time>2022-08-10T07:04:51Z</time>
      </trkpt>
      <trkpt lat="47.14727" lon="6.06989">
        <ele>520.2</ele>
        <time>2022-08-10T07:04:52Z</time>
      </trkpt>
      <trkpt lat="47.14728" lon="6.06993">
        <ele>520.5</ele>
        <time>2022-08-10T07:04:53Z</time>
      </trkpt>
      <trkpt lat="47.14729" lon="6.06999">
        <ele>521.1</ele>
        <time>2022-08-10T07:04:54Z</time>
      </trkpt>
      <trkpt lat="47.14729" lon="6.07005">
        <ele>521.4</ele>
        <time>2022-08-10T07:04:55Z</time>
      </trkpt>
      <trkpt lat="47.1473" lon="6.0701">
        <ele>521.7</ele>
        <time>2022-08-10T07:04:56Z</time>
      </trkpt>
      <trkpt lat="47.14731" lon="6.07015">
        <ele>521.2</ele>
        <time>2022-08-10T07:04:57Z</time>
      </trkpt>
      <trkpt lat="47.14732" lon="6.07019">
        <ele>521.4</ele>
        <time>2022-08-10T07:04:58Z</time>
      </trkpt>
      <trkpt lat="47.14732" lon="6.07023">
        <ele>521.5</ele>
        <time>2022-08-10T07:04:59Z</time>
      </trkpt>
      <trkpt lat="47.14733" lon="6.07028">
        <ele>521.8</ele>
        <time>2022-08-10T07:05:00Z</time>
      </trkpt>
      <trkpt lat="47.14733" lon="6.07032">
        <ele>522.1</ele>
        <time>2022-08-10T07:05:01Z</time>
      </trkpt>
      <trkpt lat="47.14734" lon="6.07037">
        <ele>522.5</ele>
        <time>2022-08-10T07:05:02Z</time>
      </trkpt>
      <trkpt lat="47.14734" lon="6.07042">
        <ele>522.8</ele>
        <time>2022-08-10T07:05:03Z</time>
      </trkpt>
      <trkpt lat="47.14735" lon="6.07047">
        <ele>523.2</ele>
        <time>2022-08-10T07:05:04Z</time>
      </trkpt>
      <trkpt lat="47.14735" lon="6.07053">
        <ele>523</ele>
        <time>2022-08-10T07:05:05Z</time>
      </trkpt>
      <trkpt lat="47.14736" lon="6.07058">
        <ele>523.3</ele>
        <time>2022-08-10T07:05:06Z</time>
      </trkpt>
      <trkpt lat="47.14737" lon="6.07064">
        <ele>523.8</ele>
        <time>2022-08-10T07:05:07Z</time>
      </trkpt>
      <trkpt lat="47.14738" lon="6.0707">
        <ele>524.1</ele>
        <time>2022-08-10T07:05:08Z</time>
      </trkpt>
      <trkpt lat="47.14738" lon="6.07077">
        <ele>524.3</ele>
        <time>2022-08-10T07:05:09Z</time>
      </trkpt>
      <trkpt lat="47.14737" lon="6.07083">
        <ele>524.5</ele>
        <time>2022-08-10T07:05:10Z</time>
      </trkpt>
      <trkpt lat="47.14736" lon="6.07088">
        <ele>524.6</ele>
        <time>2022-08-10T07:05:11Z</time>
      </trkpt>
      <trkpt lat="47.14735" lon="6.07093">
        <ele>524.7</ele>
        <time>2022-08-10T07:05:12Z</time>
      </trkpt>
      <trkpt lat="47.14734" lon="6.07098">
        <ele>524.5</ele>
        <time>2022-08-10T07:05:13Z</time>
      </trkpt>
      <trkpt lat="47.14732" lon="6.07103">
        <ele>524.2</ele>
        <time>2022-08-10T07:05:14Z</time>
      </trkpt>
      <trkpt lat="47.14731" lon="6.07108">
        <ele>524.1</ele>
        <time>2022-08-10T07:05:15Z</time>
      </trkpt>
      <trkpt lat="47.1473" lon="6.07115">
        <ele>523.6</ele>
        <time>2022-08-10T07:05:16Z</time>
      </trkpt>
      <trkpt lat="47.14729" lon="6.07121">
        <ele>523.3</ele>
        <time>2022-08-10T07:05:17Z</time>
      </trkpt>
      <trkpt lat="47.14727" lon="6.07127">
        <ele>522.6</ele>
        <time>2022-08-10T07:05:18Z</time>
      </trkpt>
      <trkpt lat="47.14726" lon="6.07133">
        <ele>521.9</ele>
        <time>2022-08-10T07:05:19Z</time>
      </trkpt>
      <trkpt lat="47.14724" lon="6.07139">
        <ele>521.1</ele>
        <time>2022-08-10T07:05:20Z</time>
      </trkpt>
      <trkpt lat="47.14723" lon="6.07144">
        <ele>520.7</ele>
        <time>2022-08-10T07:05:21Z</time>
      </trkpt>
      <trkpt lat="47.14722" lon="6.0715">
        <ele>519.9</ele>
        <time>2022-08-10T07:05:22Z</time>
      </trkpt>
      <trkpt lat="47.1472" lon="6.07155">
        <ele>520</ele>
        <time>2022-08-10T07:05:23Z</time>
      </trkpt>
      <trkpt lat="47.14719" lon="6.0716">
        <ele>519.7</ele>
        <time>2022-08-10T07:05:24Z</time>
      </trkpt>
      <trkpt lat="47.14717" lon="6.07165">
        <ele>520</ele>
        <time>2022-08-10T07:05:25Z</time>
      </trkpt>
      <trkpt lat="47.14716" lon="6.0717">
        <ele>520.3</ele>
        <time>2022-08-10T07:05:26Z</time>
      </trkpt>
      <trkpt lat="47.14715" lon="6.07175">
        <ele>520.5</ele>
        <time>2022-08-10T07:05:27Z</time>
      </trkpt>
      <trkpt lat="47.14714" lon="6.0718">
        <ele>520.7</ele>
        <time>2022-08-10T07:05:28Z</time>
      </trkpt>
      <trkpt lat="47.14712" lon="6.07185">
        <ele>520.5</ele>
        <time>2022-08-10T07:05:29Z</time>
      </trkpt>
      <trkpt lat="47.14711" lon="6.0719">
        <ele>520.6</ele>
        <time>2022-08-10T07:05:30Z</time>
      </trkpt>
      <trkpt lat="47.14709" lon="6.07195">
        <ele>520.8</ele>
        <time>2022-08-10T07:05:31Z</time>
      </trkpt>
      <trkpt lat="47.14707" lon="6.072">
        <ele>521</ele>
        <time>2022-08-10T07:05:32Z</time>
      </trkpt>
      <trkpt lat="47.14706" lon="6.07204">
        <ele>521.2</ele>
        <time>2022-08-10T07:05:33Z</time>
      </trkpt>
      <trkpt lat="47.14703" lon="6.07209">
        <ele>521.2</ele>
        <time>2022-08-10T07:05:34Z</time>
      </trkpt>
      <trkpt lat="47.14701" lon="6.07213">
        <ele>521.3</ele>
        <time>2022-08-10T07:05:35Z</time>
      </trkpt>
      <trkpt lat="47.14699" lon="6.07217">
        <ele>521.2</ele>
        <time>2022-08-10T07:05:36Z</time>
      </trkpt>
      <trkpt lat="47.14696" lon="6.07222">
        <ele>521</ele>
        <time>2022-08-10T07:05:37Z</time>
      </trkpt>
      <trkpt lat="47.14694" lon="6.07226">
        <ele>521.2</ele>
        <time>2022-08-10T07:05:38Z</time>
      </trkpt>
      <trkpt lat="47.14691" lon="6.07229">
        <ele>521.8</ele>
        <time>2022-08-10T07:05:39Z</time>
      </trkpt>
      <trkpt lat="47.14689" lon="6.07233">
        <ele>522.2</ele>
        <time>2022-08-10T07:05:40Z</time>
      </trkpt>
      <trkpt lat="47.14687" lon="6.07236">
        <ele>522.7</ele>
        <time>2022-08-10T07:05:41Z</time>
      </trkpt>
      <trkpt lat="47.14684" lon="6.07239">
        <ele>522.9</ele>
        <time>2022-08-10T07:05:42Z</time>
      </trkpt>
      <trkpt lat="47.14681" lon="6.07243">
        <ele>523</ele>
        <time>2022-08-10T07:05:43Z</time>
      </trkpt>
      <trkpt lat="47.14678" lon="6.07246">
        <ele>522.8</ele>
        <time>2022-08-10T07:05:44Z</time>
      </trkpt>
      <trkpt lat="47.14675" lon="6.07249">
        <ele>522.8</ele>
        <time>2022-08-10T07:05:45Z</time>
      </trkpt>
      <trkpt lat="47.14672" lon="6.07252">
        <ele>522.9</ele>
        <time>2022-08-10T07:05:46Z</time>
      </trkpt>
      <trkpt lat="47.14669" lon="6.07255">
        <ele>522.9</ele>
        <time>2022-08-10T07:05:47Z</time>
      </trkpt>
      <trkpt lat="47.14666" lon="6.07257">
        <ele>523.1</ele>
        <time>2022-08-10T07:05:48Z</time>
      </trkpt>
      <trkpt lat="47.14662" lon="6.0726">
        <ele>523.1</ele>
        <time>2022-08-10T07:05:49Z</time>
      </trkpt>
      <trkpt lat="47.14659" lon="6.07262">
        <ele>523.7</ele>
        <time>2022-08-10T07:05:50Z</time>
      </trkpt>
      <trkpt lat="47.14657" lon="6.07265">
        <ele>524</ele>
        <time>2022-08-10T07:05:51Z</time>
      </trkpt>
      <trkpt lat="47.14654" lon="6.07267">
        <ele>524</ele>
        <time>2022-08-10T07:05:52Z</time>
      </trkpt>
      <trkpt lat="47.14651" lon="6.07268">
        <ele>524</ele>
        <time>2022-08-10T07:05:53Z</time>
      </trkpt>
      <trkpt lat="47.14647" lon="6.07269">
        <ele>523.7</ele>
        <time>2022-08-10T07:05:54Z</time>
      </trkpt>
      <trkpt lat="47.14644" lon="6.07271">
        <ele>523.9</ele>
        <time>2022-08-10T07:05:55Z</time>
      </trkpt>
      <trkpt lat="47.1464" lon="6.07272">
        <ele>523.8</ele>
        <time>2022-08-10T07:05:56Z</time>
      </trkpt>
      <trkpt lat="47.14637" lon="6.07274">
        <ele>524</ele>
        <time>2022-08-10T07:05:57Z</time>
      </trkpt>
      <trkpt lat="47.14633" lon="6.07275">
        <ele>523.5</ele>
        <time>2022-08-10T07:05:58Z</time>
      </trkpt>
      <trkpt lat="47.14628" lon="6.07276">
        <ele>523.1</ele>
        <time>2022-08-10T07:05:59Z</time>
      </trkpt>
      <trkpt lat="47.14624" lon="6.07277">
        <ele>522.9</ele>
        <time>2022-08-10T07:06:00Z</time>
      </trkpt>
      <trkpt lat="47.1462" lon="6.07278">
        <ele>523</ele>
        <time>2022-08-10T07:06:01Z</time>
      </trkpt>
      <trkpt lat="47.14616" lon="6.07279">
        <ele>523</ele>
        <time>2022-08-10T07:06:02Z</time>
      </trkpt>
      <trkpt lat="47.14612" lon="6.07281">
        <ele>523.2</ele>
        <time>2022-08-10T07:06:03Z</time>
      </trkpt>
      <trkpt lat="47.14608" lon="6.07282">
        <ele>523.3</ele>
        <time>2022-08-10T07:06:04Z</time>
      </trkpt>
      <trkpt lat="47.14603" lon="6.07283">
        <ele>523.4</ele>
        <time>2022-08-10T07:06:05Z</time>
      </trkpt>
      <trkpt lat="47.14599" lon="6.07284">
        <ele>523.4</ele>
        <time>2022-08-10T07:06:06Z</time>
      </trkpt>
      <trkpt lat="47.14595" lon="6.07284">
        <ele>523.2</ele>
        <time>2022-08-10T07:06:07Z</time>
      </trkpt>
      <trkpt lat="47.14591" lon="6.07284">
        <ele>523</ele>
        <time>2022-08-10T07:06:08Z</time>
      </trkpt>
      <trkpt lat="47.14586" lon="6.07284">
        <ele>522.7</ele>
        <time>2022-08-10T07:06:09Z</time>
      </trkpt>
      <trkpt lat="47.14581" lon="6.07284">
        <ele>522.7</ele>
        <time>2022-08-10T07:06:10Z</time>
      </trkpt>
      <trkpt lat="47.14576" lon="6.07284">
        <ele>522.7</ele>
        <time>2022-08-10T07:06:11Z</time>
      </trkpt>
      <trkpt lat="47.1457" lon="6.07284">
        <ele>522.4</ele>
        <time>2022-08-10T07:06:12Z</time>
      </trkpt>
      <trkpt lat="47.14565" lon="6.07283">
        <ele>522.3</ele>
        <time>2022-08-10T07:06:13Z</time>
      </trkpt>
      <trkpt lat="47.14559" lon="6.07281">
        <ele>522.2</ele>
        <time>2022-08-10T07:06:14Z</time>
      </trkpt>
      <trkpt lat="47.14554" lon="6.0728">
        <ele>522</ele>
        <time>2022-08-10T07:06:15Z</time>
      </trkpt>
      <trkpt lat="47.14548" lon="6.07278">
        <ele>522</ele>
        <time>2022-08-10T07:06:16Z</time>
      </trkpt>
      <trkpt lat="47.14543" lon="6.07277">
        <ele>522.4</ele>
        <time>2022-08-10T07:06:17Z</time>
      </trkpt>
      <trkpt lat="47.14538" lon="6.07276">
        <ele>523.1</ele>
        <time>2022-08-10T07:06:18Z</time>
      </trkpt>
      <trkpt lat="47.14532" lon="6.07275">
        <ele>523.4</ele>
        <time>2022-08-10T07:06:19Z</time>
      </trkpt>
      <trkpt lat="47.14527" lon="6.07274">
        <ele>523.6</ele>
        <time>2022-08-10T07:06:20Z</time>
      </trkpt>
      <trkpt lat="47.14522" lon="6.07273">
        <ele>523.9</ele>
        <time>2022-08-10T07:06:21Z</time>
      </trkpt>
      <trkpt lat="47.14516" lon="6.07273">
        <ele>523.6</ele>
        <time>2022-08-10T07:06:22Z</time>
      </trkpt>
      <trkpt lat="47.14511" lon="6.07272">
        <ele>523.3</ele>
        <time>2022-08-10T07:06:23Z</time>
      </trkpt>
      <trkpt lat="47.14505" lon="6.07271">
        <ele>523.1</ele>
        <time>2022-08-10T07:06:24Z</time>
      </trkpt>
      <trkpt lat="47.145" lon="6.0727">
        <ele>523</ele>
        <time>2022-08-10T07:06:25Z</time>
      </trkpt>
      <trkpt lat="47.14495" lon="6.07269">
        <ele>522.9</ele>
        <time>2022-08-10T07:06:26Z</time>
      </trkpt>
      <trkpt lat="47.1449" lon="6.07268">
        <ele>523</ele>
        <time>2022-08-10T07:06:27Z</time>
      </trkpt>
      <trkpt lat="47.14484" lon="6.07266">
        <ele>523</ele>
        <time>2022-08-10T07:06:28Z</time>
      </trkpt>
      <trkpt lat="47.14479" lon="6.07265">
        <ele>522.6</ele>
        <time>2022-08-10T07:06:29Z</time>
      </trkpt>
      <trkpt lat="47.14474" lon="6.07264">
        <ele>522.6</ele>
        <time>2022-08-10T07:06:30Z</time>
      </trkpt>
      <trkpt lat="47.14468" lon="6.07263">
        <ele>522.3</ele>
        <time>2022-08-10T07:06:31Z</time>
      </trkpt>
      <trkpt lat="47.14463" lon="6.07261">
        <ele>522.2</ele>
        <time>2022-08-10T07:06:32Z</time>
      </trkpt>
      <trkpt lat="47.14458" lon="6.0726">
        <ele>522.2</ele>
        <time>2022-08-10T07:06:33Z</time>
      </trkpt>
      <trkpt lat="47.14453" lon="6.07258">
        <ele>522.1</ele>
        <time>2022-08-10T07:06:34Z</time>
      </trkpt>
      <trkpt lat="47.14447" lon="6.07256">
        <ele>521.8</ele>
        <time>2022-08-10T07:06:35Z</time>
      </trkpt>
      <trkpt lat="47.14442" lon="6.07255">
        <ele>521.7</ele>
        <time>2022-08-10T07:06:36Z</time>
      </trkpt>
      <trkpt lat="47.14437" lon="6.07254">
        <ele>521.7</ele>
        <time>2022-08-10T07:06:37Z</time>
      </trkpt>
      <trkpt lat="47.14431" lon="6.07252">
        <ele>521.3</ele>
        <time>2022-08-10T07:06:38Z</time>
      </trkpt>
      <trkpt lat="47.14425" lon="6.07251">
        <ele>520.9</ele>
        <time>2022-08-10T07:06:39Z</time>
      </trkpt>
      <trkpt lat="47.1442" lon="6.0725">
        <ele>520.7</ele>
        <time>2022-08-10T07:06:40Z</time>
      </trkpt>
      <trkpt lat="47.14414" lon="6.07249">
        <ele>520.5</ele>
        <time>2022-08-10T07:06:41Z</time>
      </trkpt>
      <trkpt lat="47.14408" lon="6.07248">
        <ele>520.4</ele>
        <time>2022-08-10T07:06:42Z</time>
      </trkpt>
      <trkpt lat="47.14403" lon="6.07247">
        <ele>520.4</ele>
        <time>2022-08-10T07:06:43Z</time>
      </trkpt>
      <trkpt lat="47.14397" lon="6.07246">
        <ele>520.5</ele>
        <time>2022-08-10T07:06:44Z</time>
      </trkpt>
      <trkpt lat="47.14392" lon="6.07245">
        <ele>520.3</ele>
        <time>2022-08-10T07:06:45Z</time>
      </trkpt>
      <trkpt lat="47.14387" lon="6.07244">
        <ele>520.2</ele>
        <time>2022-08-10T07:06:46Z</time>
      </trkpt>
      <trkpt lat="47.14381" lon="6.07243">
        <ele>520.4</ele>
        <time>2022-08-10T07:06:47Z</time>
      </trkpt>
      <trkpt lat="47.14376" lon="6.07242">
        <ele>520.2</ele>
        <time>2022-08-10T07:06:48Z</time>
      </trkpt>
      <trkpt lat="47.14371" lon="6.07241">
        <ele>520.2</ele>
        <time>2022-08-10T07:06:49Z</time>
      </trkpt>
      <trkpt lat="47.14365" lon="6.0724">
        <ele>520.2</ele>
        <time>2022-08-10T07:06:50Z</time>
      </trkpt>
      <trkpt lat="47.1436" lon="6.07241">
        <ele>520.6</ele>
        <time>2022-08-10T07:06:51Z</time>
      </trkpt>
      <trkpt lat="47.14355" lon="6.07241">
        <ele>520.8</ele>
        <time>2022-08-10T07:06:52Z</time>
      </trkpt>
      <trkpt lat="47.1435" lon="6.07241">
        <ele>521</ele>
        <time>2022-08-10T07:06:53Z</time>
      </trkpt>
      <trkpt lat="47.14346" lon="6.07241">
        <ele>521.2</ele>
        <time>2022-08-10T07:06:54Z</time>
      </trkpt>
      <trkpt lat="47.14341" lon="6.0724">
        <ele>521</ele>
        <time>2022-08-10T07:06:55Z</time>
      </trkpt>
      <trkpt lat="47.14337" lon="6.07241">
        <ele>520.9</ele>
        <time>2022-08-10T07:06:56Z</time>
      </trkpt>
      <trkpt lat="47.14333" lon="6.07241">
        <ele>520.7</ele>
        <time>2022-08-10T07:06:57Z</time>
      </trkpt>
      <trkpt lat="47.14328" lon="6.07241">
        <ele>520.5</ele>
        <time>2022-08-10T07:06:58Z</time>
      </trkpt>
      <trkpt lat="47.14323" lon="6.07241">
        <ele>520.2</ele>
        <time>2022-08-10T07:06:59Z</time>
      </trkpt>
      <trkpt lat="47.14318" lon="6.07241">
        <ele>519.6</ele>
        <time>2022-08-10T07:07:00Z</time>
      </trkpt>
      <trkpt lat="47.14313" lon="6.07241">
        <ele>519.3</ele>
        <time>2022-08-10T07:07:01Z</time>
      </trkpt>
      <trkpt lat="47.14308" lon="6.07242">
        <ele>518.9</ele>
        <time>2022-08-10T07:07:02Z</time>
      </trkpt>
      <trkpt lat="47.14302" lon="6.07243">
        <ele>518.2</ele>
        <time>2022-08-10T07:07:03Z</time>
      </trkpt>
      <trkpt lat="47.14297" lon="6.07243">
        <ele>518</ele>
        <time>2022-08-10T07:07:04Z</time>
      </trkpt>
      <trkpt lat="47.14292" lon="6.07243">
        <ele>517.6</ele>
        <time>2022-08-10T07:07:05Z</time>
      </trkpt>
      <trkpt lat="47.14286" lon="6.07243">
        <ele>517</ele>
        <time>2022-08-10T07:07:06Z</time>
      </trkpt>
      <trkpt lat="47.14281" lon="6.07242">
        <ele>516.8</ele>
        <time>2022-08-10T07:07:07Z</time>
      </trkpt>
      <trkpt lat="47.14275" lon="6.07241">
        <ele>516.7</ele>
        <time>2022-08-10T07:07:08Z</time>
      </trkpt>
      <trkpt lat="47.1427" lon="6.07241">
        <ele>516.4</ele>
        <time>2022-08-10T07:07:09Z</time>
      </trkpt>
      <trkpt lat="47.14265" lon="6.0724">
        <ele>516.3</ele>
        <time>2022-08-10T07:07:10Z</time>
      </trkpt>
      <trkpt lat="47.1426" lon="6.07239">
        <ele>516.2</ele>
        <time>2022-08-10T07:07:11Z</time>
      </trkpt>
      <trkpt lat="47.14255" lon="6.07239">
        <ele>516.3</ele>
        <time>2022-08-10T07:07:12Z</time>
      </trkpt>
      <trkpt lat="47.14249" lon="6.07238">
        <ele>516.1</ele>
        <time>2022-08-10T07:07:13Z</time>
      </trkpt>
      <trkpt lat="47.14242" lon="6.07238">
        <ele>515.7</ele>
        <time>2022-08-10T07:07:14Z</time>
      </trkpt>
      <trkpt lat="47.14236" lon="6.07238">
        <ele>515.8</ele>
        <time>2022-08-10T07:07:15Z</time>
      </trkpt>
      <trkpt lat="47.1423" lon="6.07238">
        <ele>515.8</ele>
        <time>2022-08-10T07:07:16Z</time>
      </trkpt>
      <trkpt lat="47.14223" lon="6.07239">
        <ele>515.5</ele>
        <time>2022-08-10T07:07:17Z</time>
      </trkpt>
      <trkpt lat="47.14217" lon="6.0724">
        <ele>515.2</ele>
        <time>2022-08-10T07:07:18Z</time>
      </trkpt>
      <trkpt lat="47.14211" lon="6.0724">
        <ele>515.2</ele>
        <time>2022-08-10T07:07:19Z</time>
      </trkpt>
      <trkpt lat="47.14205" lon="6.0724">
        <ele>515</ele>
        <time>2022-08-10T07:07:20Z</time>
      </trkpt>
      <trkpt lat="47.14199" lon="6.0724">
        <ele>514.7</ele>
        <time>2022-08-10T07:07:21Z</time>
      </trkpt>
      <trkpt lat="47.14194" lon="6.0724">
        <ele>514.6</ele>
        <time>2022-08-10T07:07:22Z</time>
      </trkpt>
      <trkpt lat="47.14188" lon="6.07241">
        <ele>514.2</ele>
        <time>2022-08-10T07:07:23Z</time>
      </trkpt>
      <trkpt lat="47.14182" lon="6.07241">
        <ele>513.9</ele>
        <time>2022-08-10T07:07:24Z</time>
      </trkpt>
      <trkpt lat="47.14176" lon="6.07241">
        <ele>513.5</ele>
        <time>2022-08-10T07:07:25Z</time>
      </trkpt>
      <trkpt lat="47.14171" lon="6.07242">
        <ele>513.6</ele>
        <time>2022-08-10T07:07:26Z</time>
      </trkpt>
      <trkpt lat="47.14166" lon="6.07243">
        <ele>513.7</ele>
        <time>2022-08-10T07:07:27Z</time>
      </trkpt>
      <trkpt lat="47.14161" lon="6.07244">
        <ele>513.8</ele>
        <time>2022-08-10T07:07:28Z</time>
      </trkpt>
      <trkpt lat="47.14157" lon="6.07246">
        <ele>513.9</ele>
        <time>2022-08-10T07:07:29Z</time>
      </trkpt>
      <trkpt lat="47.14153" lon="6.07247">
        <ele>513.8</ele>
        <time>2022-08-10T07:07:30Z</time>
      </trkpt>
      <trkpt lat="47.14149" lon="6.07248">
        <ele>514.1</ele>
        <time>2022-08-10T07:07:31Z</time>
      </trkpt>
      <trkpt lat="47.14146" lon="6.07249">
        <ele>514.3</ele>
        <time>2022-08-10T07:07:32Z</time>
      </trkpt>
      <trkpt lat="47.14142" lon="6.0725">
        <ele>514.4</ele>
        <time>2022-08-10T07:07:33Z</time>
      </trkpt>
      <trkpt lat="47.14139" lon="6.07251">
        <ele>514.3</ele>
        <time>2022-08-10T07:07:34Z</time>
      </trkpt>
      <trkpt lat="47.14136" lon="6.07251">
        <ele>514.5</ele>
        <time>2022-08-10T07:07:35Z</time>
      </trkpt>
      <trkpt lat="47.14132" lon="6.07252">
        <ele>514.8</ele>
        <time>2022-08-10T07:07:36Z</time>
      </trkpt>
      <trkpt lat="47.14129" lon="6.07253">
        <ele>514.8</ele>
        <time>2022-08-10T07:07:37Z</time>
      </trkpt>
      <trkpt lat="47.14126" lon="6.07254">
        <ele>515</ele>
        <time>2022-08-10T07:07:38Z</time>
      </trkpt>
      <trkpt lat="47.14122" lon="6.07255">
        <ele>515.1</ele>
        <time>2022-08-10T07:07:39Z</time>
      </trkpt>
      <trkpt lat="47.14118" lon="6.07257">
        <ele>514.9</ele>
        <time>2022-08-10T07:07:40Z</time>
      </trkpt>
      <trkpt lat="47.14115" lon="6.07258">
        <ele>515.5</ele>
        <time>2022-08-10T07:07:41Z</time>
      </trkpt>
      <trkpt lat="47.14111" lon="6.0726">
        <ele>516.4</ele>
        <time>2022-08-10T07:07:42Z</time>
      </trkpt>
      <trkpt lat="47.14108" lon="6.07262">
        <ele>516.9</ele>
        <time>2022-08-10T07:07:43Z</time>
      </trkpt>
      <trkpt lat="47.14104" lon="6.07264">
        <ele>517.2</ele>
        <time>2022-08-10T07:07:44Z</time>
      </trkpt>
      <trkpt lat="47.141" lon="6.07266">
        <ele>517</ele>
        <time>2022-08-10T07:07:45Z</time>
      </trkpt>
      <trkpt lat="47.14097" lon="6.07267">
        <ele>517.2</ele>
        <time>2022-08-10T07:07:46Z</time>
      </trkpt>
      <trkpt lat="47.14093" lon="6.07269">
        <ele>517</ele>
        <time>2022-08-10T07:07:47Z</time>
      </trkpt>
      <trkpt lat="47.14089" lon="6.07271">
        <ele>517</ele>
        <time>2022-08-10T07:07:48Z</time>
      </trkpt>
      <trkpt lat="47.14084" lon="6.07273">
        <ele>517.1</ele>
        <time>2022-08-10T07:07:49Z</time>
      </trkpt>
      <trkpt lat="47.14079" lon="6.07276">
        <ele>516.9</ele>
        <time>2022-08-10T07:07:50Z</time>
      </trkpt>
      <trkpt lat="47.14074" lon="6.07278">
        <ele>516.7</ele>
        <time>2022-08-10T07:07:51Z</time>
      </trkpt>
      <trkpt lat="47.14069" lon="6.0728">
        <ele>516.3</ele>
        <time>2022-08-10T07:07:52Z</time>
      </trkpt>
      <trkpt lat="47.14065" lon="6.0728">
        <ele>516.2</ele>
        <time>2022-08-10T07:07:53Z</time>
      </trkpt>
      <trkpt lat="47.1406" lon="6.07281">
        <ele>515.7</ele>
        <time>2022-08-10T07:07:54Z</time>
      </trkpt>
      <trkpt lat="47.14056" lon="6.07282">
        <ele>515.6</ele>
        <time>2022-08-10T07:07:55Z</time>
      </trkpt>
      <trkpt lat="47.14054" lon="6.07284">
        <ele>515.5</ele>
        <time>2022-08-10T07:07:56Z</time>
      </trkpt>
      <trkpt lat="47.14051" lon="6.07285">
        <ele>514.9</ele>
        <time>2022-08-10T07:07:57Z</time>
      </trkpt>
      <trkpt lat="47.14049" lon="6.07285">
        <ele>514.2</ele>
        <time>2022-08-10T07:07:58Z</time>
      </trkpt>
      <trkpt lat="47.14046" lon="6.07286">
        <ele>513.7</ele>
        <time>2022-08-10T07:07:59Z</time>
      </trkpt>
      <trkpt lat="47.14043" lon="6.07285">
        <ele>513.2</ele>
        <time>2022-08-10T07:08:00Z</time>
      </trkpt>
      <trkpt lat="47.1404" lon="6.07284">
        <ele>513.1</ele>
        <time>2022-08-10T07:08:01Z</time>
      </trkpt>
      <trkpt lat="47.14037" lon="6.07284">
        <ele>512.9</ele>
        <time>2022-08-10T07:08:02Z</time>
      </trkpt>
      <trkpt lat="47.14034" lon="6.07283">
        <ele>512.9</ele>
        <time>2022-08-10T07:08:03Z</time>
      </trkpt>
      <trkpt lat="47.14031" lon="6.07283">
        <ele>512.9</ele>
        <time>2022-08-10T07:08:04Z</time>
      </trkpt>
      <trkpt lat="47.14028" lon="6.07284">
        <ele>512.9</ele>
        <time>2022-08-10T07:08:05Z</time>
      </trkpt>
      <trkpt lat="47.14024" lon="6.07284">
        <ele>513</ele>
        <time>2022-08-10T07:08:06Z</time>
      </trkpt>
      <trkpt lat="47.1402" lon="6.07284">
        <ele>513</ele>
        <time>2022-08-10T07:08:07Z</time>
      </trkpt>
      <trkpt lat="47.14016" lon="6.07285">
        <ele>512.8</ele>
        <time>2022-08-10T07:08:08Z</time>
      </trkpt>
      <trkpt lat="47.14012" lon="6.07286">
        <ele>513.2</ele>
        <time>2022-08-10T07:08:09Z</time>
      </trkpt>
      <trkpt lat="47.14008" lon="6.07288">
        <ele>513.2</ele>
        <time>2022-08-10T07:08:10Z</time>
      </trkpt>
      <trkpt lat="47.14005" lon="6.07291">
        <ele>513.6</ele>
        <time>2022-08-10T07:08:11Z</time>
      </trkpt>
      <trkpt lat="47.14001" lon="6.07293">
        <ele>513.4</ele>
        <time>2022-08-10T07:08:12Z</time>
      </trkpt>
      <trkpt lat="47.13998" lon="6.07296">
        <ele>513.1</ele>
        <time>2022-08-10T07:08:13Z</time>
      </trkpt>
      <trkpt lat="47.13994" lon="6.07297">
        <ele>512.7</ele>
        <time>2022-08-10T07:08:14Z</time>
      </trkpt>
      <trkpt lat="47.13989" lon="6.07297">
        <ele>512</ele>
        <time>2022-08-10T07:08:15Z</time>
      </trkpt>
      <trkpt lat="47.13985" lon="6.07297">
        <ele>511.4</ele>
        <time>2022-08-10T07:08:16Z</time>
      </trkpt>
      <trkpt lat="47.1398" lon="6.07296">
        <ele>511</ele>
        <time>2022-08-10T07:08:17Z</time>
      </trkpt>
      <trkpt lat="47.13975" lon="6.07296">
        <ele>510.6</ele>
        <time>2022-08-10T07:08:18Z</time>
      </trkpt>
      <trkpt lat="47.1397" lon="6.07297">
        <ele>509.9</ele>
        <time>2022-08-10T07:08:19Z</time>
      </trkpt>
      <trkpt lat="47.13965" lon="6.07298">
        <ele>510</ele>
        <time>2022-08-10T07:08:20Z</time>
      </trkpt>
      <trkpt lat="47.1396" lon="6.07299">
        <ele>509.4</ele>
        <time>2022-08-10T07:08:21Z</time>
      </trkpt>
      <trkpt lat="47.13955" lon="6.073">
        <ele>509.3</ele>
        <time>2022-08-10T07:08:22Z</time>
      </trkpt>
      <trkpt lat="47.1395" lon="6.07301">
        <ele>509</ele>
        <time>2022-08-10T07:08:23Z</time>
      </trkpt>
      <trkpt lat="47.13945" lon="6.073">
        <ele>507.8</ele>
        <time>2022-08-10T07:08:24Z</time>
      </trkpt>
      <trkpt lat="47.13939" lon="6.07299">
        <ele>507.6</ele>
        <time>2022-08-10T07:08:25Z</time>
      </trkpt>
      <trkpt lat="47.13934" lon="6.07298">
        <ele>507.3</ele>
        <time>2022-08-10T07:08:26Z</time>
      </trkpt>
      <trkpt lat="47.13929" lon="6.07298">
        <ele>507.3</ele>
        <time>2022-08-10T07:08:27Z</time>
      </trkpt>
      <trkpt lat="47.13924" lon="6.07298">
        <ele>507.3</ele>
        <time>2022-08-10T07:08:28Z</time>
      </trkpt>
      <trkpt lat="47.1392" lon="6.07297">
        <ele>507.4</ele>
        <time>2022-08-10T07:08:29Z</time>
      </trkpt>
      <trkpt lat="47.13915" lon="6.07296">
        <ele>507.5</ele>
        <time>2022-08-10T07:08:30Z</time>
      </trkpt>
      <trkpt lat="47.1391" lon="6.07295">
        <ele>507.4</ele>
        <time>2022-08-10T07:08:31Z</time>
      </trkpt>
      <trkpt lat="47.13905" lon="6.07295">
        <ele>507.5</ele>
        <time>2022-08-10T07:08:32Z</time>
      </trkpt>
      <trkpt lat="47.13901" lon="6.07295">
        <ele>507.5</ele>
        <time>2022-08-10T07:08:33Z</time>
      </trkpt>
      <trkpt lat="47.13896" lon="6.07294">
        <ele>507.1</ele>
        <time>2022-08-10T07:08:34Z</time>
      </trkpt>
      <trkpt lat="47.1389" lon="6.07294">
        <ele>506.8</ele>
        <time>2022-08-10T07:08:35Z</time>
      </trkpt>
      <trkpt lat="47.13885" lon="6.07294">
        <ele>506.5</ele>
        <time>2022-08-10T07:08:36Z</time>
      </trkpt>
      <trkpt lat="47.1388" lon="6.07294">
        <ele>506.7</ele>
        <time>2022-08-10T07:08:37Z</time>
      </trkpt>
      <trkpt lat="47.13877" lon="6.07293">
        <ele>506.7</ele>
        <time>2022-08-10T07:08:38Z</time>
      </trkpt>
      <trkpt lat="47.13874" lon="6.07293">
        <ele>507.2</ele>
        <time>2022-08-10T07:08:39Z</time>
      </trkpt>
      <trkpt lat="47.13872" lon="6.07293">
        <ele>507.5</ele>
        <time>2022-08-10T07:08:40Z</time>
      </trkpt>
      <trkpt lat="47.13869" lon="6.07293">
        <ele>507.6</ele>
        <time>2022-08-10T07:08:41Z</time>
      </trkpt>
      <trkpt lat="47.13866" lon="6.07293">
        <ele>507.7</ele>
        <time>2022-08-10T07:08:42Z</time>
      </trkpt>
      <trkpt lat="47.13862" lon="6.07292">
        <ele>507.5</ele>
        <time>2022-08-10T07:08:43Z</time>
      </trkpt>
      <trkpt lat="47.13858" lon="6.0729">
        <ele>507.7</ele>
        <time>2022-08-10T07:08:44Z</time>
      </trkpt>
      <trkpt lat="47.13854" lon="6.07289">
        <ele>508.1</ele>
        <time>2022-08-10T07:08:45Z</time>
      </trkpt>
      <trkpt lat="47.1385" lon="6.07289">
        <ele>508.7</ele>
        <time>2022-08-10T07:08:46Z</time>
      </trkpt>
      <trkpt lat="47.13846" lon="6.07289">
        <ele>509</ele>
        <time>2022-08-10T07:08:47Z</time>
      </trkpt>
      <trkpt lat="47.13843" lon="6.07287">
        <ele>509.3</ele>
        <time>2022-08-10T07:08:48Z</time>
      </trkpt>
      <trkpt lat="47.13839" lon="6.07285">
        <ele>509.6</ele>
        <time>2022-08-10T07:08:49Z</time>
      </trkpt>
      <trkpt lat="47.13836" lon="6.07283">
        <ele>510</ele>
        <time>2022-08-10T07:08:50Z</time>
      </trkpt>
      <trkpt lat="47.13832" lon="6.0728">
        <ele>510.4</ele>
        <time>2022-08-10T07:08:51Z</time>
      </trkpt>
      <trkpt lat="47.13828" lon="6.07279">
        <ele>510.2</ele>
        <time>2022-08-10T07:08:52Z</time>
      </trkpt>
      <trkpt lat="47.13825" lon="6.07278">
        <ele>510.4</ele>
        <time>2022-08-10T07:08:53Z</time>
      </trkpt>
      <trkpt lat="47.13821" lon="6.07277">
        <ele>510.8</ele>
        <time>2022-08-10T07:08:54Z</time>
      </trkpt>
      <trkpt lat="47.13817" lon="6.07275">
        <ele>511.1</ele>
        <time>2022-08-10T07:08:55Z</time>
      </trkpt>
      <trkpt lat="47.13813" lon="6.07272">
        <ele>511.8</ele>
        <time>2022-08-10T07:08:56Z</time>
      </trkpt>
      <trkpt lat="47.13809" lon="6.0727">
        <ele>512.5</ele>
        <time>2022-08-10T07:08:57Z</time>
      </trkpt>
      <trkpt lat="47.13806" lon="6.07267">
        <ele>513.3</ele>
        <time>2022-08-10T07:08:58Z</time>
      </trkpt>
      <trkpt lat="47.13801" lon="6.07265">
        <ele>513.5</ele>
        <time>2022-08-10T07:08:59Z</time>
      </trkpt>
      <trkpt lat="47.13797" lon="6.07263">
        <ele>513.9</ele>
        <time>2022-08-10T07:09:00Z</time>
      </trkpt>
      <trkpt lat="47.13794" lon="6.07261">
        <ele>514.8</ele>
        <time>2022-08-10T07:09:01Z</time>
      </trkpt>
      <trkpt lat="47.1379" lon="6.0726">
        <ele>515.6</ele>
        <time>2022-08-10T07:09:02Z</time>
      </trkpt>
      <trkpt lat="47.13786" lon="6.0726">
        <ele>515.7</ele>
        <time>2022-08-10T07:09:03Z</time>
      </trkpt>
      <trkpt lat="47.13781" lon="6.07259">
        <ele>515.6</ele>
        <time>2022-08-10T07:09:04Z</time>
      </trkpt>
      <trkpt lat="47.13777" lon="6.07259">
        <ele>515.5</ele>
        <time>2022-08-10T07:09:05Z</time>
      </trkpt>
      <trkpt lat="47.13773" lon="6.07258">
        <ele>515.1</ele>
        <time>2022-08-10T07:09:06Z</time>
      </trkpt>
      <trkpt lat="47.13769" lon="6.07256">
        <ele>515.2</ele>
        <time>2022-08-10T07:09:07Z</time>
      </trkpt>
      <trkpt lat="47.13765" lon="6.07254">
        <ele>516.1</ele>
        <time>2022-08-10T07:09:08Z</time>
      </trkpt>
      <trkpt lat="47.13761" lon="6.07252">
        <ele>516.3</ele>
        <time>2022-08-10T07:09:09Z</time>
      </trkpt>
      <trkpt lat="47.13757" lon="6.0725">
        <ele>516.8</ele>
        <time>2022-08-10T07:09:10Z</time>
      </trkpt>
      <trkpt lat="47.13754" lon="6.07248">
        <ele>517.2</ele>
        <time>2022-08-10T07:09:11Z</time>
      </trkpt>
      <trkpt lat="47.1375" lon="6.07247">
        <ele>517.4</ele>
        <time>2022-08-10T07:09:12Z</time>
      </trkpt>
      <trkpt lat="47.13747" lon="6.07245">
        <ele>518.1</ele>
        <time>2022-08-10T07:09:13Z</time>
      </trkpt>
      <trkpt lat="47.13742" lon="6.07243">
        <ele>518.4</ele>
        <time>2022-08-10T07:09:14Z</time>
      </trkpt>
      <trkpt lat="47.13738" lon="6.07241">
        <ele>518.6</ele>
        <time>2022-08-10T07:09:15Z</time>
      </trkpt>
      <trkpt lat="47.13735" lon="6.07238">
        <ele>519.1</ele>
        <time>2022-08-10T07:09:16Z</time>
      </trkpt>
      <trkpt lat="47.13731" lon="6.07235">
        <ele>519.8</ele>
        <time>2022-08-10T07:09:17Z</time>
      </trkpt>
      <trkpt lat="47.13728" lon="6.07232">
        <ele>520.6</ele>
        <time>2022-08-10T07:09:18Z</time>
      </trkpt>
      <trkpt lat="47.13723" lon="6.0723">
        <ele>520.5</ele>
        <time>2022-08-10T07:09:19Z</time>
      </trkpt>
      <trkpt lat="47.13719" lon="6.07228">
        <ele>520.5</ele>
        <time>2022-08-10T07:09:20Z</time>
      </trkpt>
      <trkpt lat="47.13714" lon="6.07227">
        <ele>520.5</ele>
        <time>2022-08-10T07:09:21Z</time>
      </trkpt>
      <trkpt lat="47.1371" lon="6.07226">
        <ele>520.6</ele>
        <time>2022-08-10T07:09:22Z</time>
      </trkpt>
      <trkpt lat="47.13706" lon="6.07225">
        <ele>520.4</ele>
        <time>2022-08-10T07:09:23Z</time>
      </trkpt>
      <trkpt lat="47.13702" lon="6.07223">
        <ele>520.3</ele>
        <time>2022-08-10T07:09:24Z</time>
      </trkpt>
      <trkpt lat="47.13697" lon="6.07221">
        <ele>519.8</ele>
        <time>2022-08-10T07:09:25Z</time>
      </trkpt>
      <trkpt lat="47.13693" lon="6.07219">
        <ele>519</ele>
        <time>2022-08-10T07:09:26Z</time>
      </trkpt>
      <trkpt lat="47.13688" lon="6.07218">
        <ele>517.8</ele>
        <time>2022-08-10T07:09:27Z</time>
      </trkpt>
      <trkpt lat="47.13683" lon="6.07216">
        <ele>516.5</ele>
        <time>2022-08-10T07:09:28Z</time>
      </trkpt>
      <trkpt lat="47.13679" lon="6.07215">
        <ele>515.7</ele>
        <time>2022-08-10T07:09:29Z</time>
      </trkpt>
      <trkpt lat="47.13675" lon="6.07215">
        <ele>515.5</ele>
        <time>2022-08-10T07:09:30Z</time>
      </trkpt>
      <trkpt lat="47.13671" lon="6.07214">
        <ele>514.9</ele>
        <time>2022-08-10T07:09:31Z</time>
      </trkpt>
      <trkpt lat="47.13667" lon="6.07214">
        <ele>514.7</ele>
        <time>2022-08-10T07:09:32Z</time>
      </trkpt>
      <trkpt lat="47.13663" lon="6.07215">
        <ele>514.4</ele>
        <time>2022-08-10T07:09:33Z</time>
      </trkpt>
      <trkpt lat="47.13658" lon="6.07215">
        <ele>514.4</ele>
        <time>2022-08-10T07:09:34Z</time>
      </trkpt>
      <trkpt lat="47.13654" lon="6.07216">
        <ele>514.1</ele>
        <time>2022-08-10T07:09:35Z</time>
      </trkpt>
      <trkpt lat="47.1365" lon="6.07216">
        <ele>513.8</ele>
        <time>2022-08-10T07:09:36Z</time>
      </trkpt>
      <trkpt lat="47.13645" lon="6.07215">
        <ele>513.6</ele>
        <time>2022-08-10T07:09:37Z</time>
      </trkpt>
      <trkpt lat="47.13641" lon="6.07213">
        <ele>513.1</ele>
        <time>2022-08-10T07:09:38Z</time>
      </trkpt>
      <trkpt lat="47.13637" lon="6.07212">
        <ele>512.9</ele>
        <time>2022-08-10T07:09:39Z</time>
      </trkpt>
      <trkpt lat="47.13633" lon="6.07212">
        <ele>512.3</ele>
        <time>2022-08-10T07:09:40Z</time>
      </trkpt>
      <trkpt lat="47.1363" lon="6.07212">
        <ele>512.3</ele>
        <time>2022-08-10T07:09:41Z</time>
      </trkpt>
      <trkpt lat="47.13625" lon="6.07212">
        <ele>512.3</ele>
        <time>2022-08-10T07:09:42Z</time>
      </trkpt>
      <trkpt lat="47.13621" lon="6.07213">
        <ele>512.6</ele>
        <time>2022-08-10T07:09:43Z</time>
      </trkpt>
      <trkpt lat="47.13617" lon="6.07213">
        <ele>512.7</ele>
        <time>2022-08-10T07:09:44Z</time>
      </trkpt>
      <trkpt lat="47.13613" lon="6.07213">
        <ele>512.8</ele>
        <time>2022-08-10T07:09:45Z</time>
      </trkpt>
      <trkpt lat="47.13608" lon="6.07213">
        <ele>512.6</ele>
        <time>2022-08-10T07:09:46Z</time>
      </trkpt>
      <trkpt lat="47.13603" lon="6.07214">
        <ele>512.5</ele>
        <time>2022-08-10T07:09:47Z</time>
      </trkpt>
      <trkpt lat="47.13598" lon="6.07215">
        <ele>512.6</ele>
        <time>2022-08-10T07:09:48Z</time>
      </trkpt>
      <trkpt lat="47.13593" lon="6.07217">
        <ele>512.5</ele>
        <time>2022-08-10T07:09:49Z</time>
      </trkpt>
      <trkpt lat="47.13588" lon="6.0722">
        <ele>512</ele>
        <time>2022-08-10T07:09:50Z</time>
      </trkpt>
      <trkpt lat="47.13583" lon="6.07223">
        <ele>511.3</ele>
        <time>2022-08-10T07:09:51Z</time>
      </trkpt>
      <trkpt lat="47.13578" lon="6.07227">
        <ele>510.7</ele>
        <time>2022-08-10T07:09:52Z</time>
      </trkpt>
      <trkpt lat="47.13573" lon="6.0723">
        <ele>510.3</ele>
        <time>2022-08-10T07:09:53Z</time>
      </trkpt>
      <trkpt lat="47.13569" lon="6.07233">
        <ele>510.4</ele>
        <time>2022-08-10T07:09:54Z</time>
      </trkpt>
      <trkpt lat="47.13564" lon="6.07236">
        <ele>509.8</ele>
        <time>2022-08-10T07:09:55Z</time>
      </trkpt>
      <trkpt lat="47.13559" lon="6.07239">
        <ele>509.1</ele>
        <time>2022-08-10T07:09:56Z</time>
      </trkpt>
      <trkpt lat="47.13553" lon="6.07243">
        <ele>508.5</ele>
        <time>2022-08-10T07:09:57Z</time>
      </trkpt>
      <trkpt lat="47.13548" lon="6.07248">
        <ele>508.3</ele>
        <time>2022-08-10T07:09:58Z</time>
      </trkpt>
      <trkpt lat="47.13544" lon="6.07254">
        <ele>507.8</ele>
        <time>2022-08-10T07:09:59Z</time>
      </trkpt>
      <trkpt lat="47.1354" lon="6.0726">
        <ele>507</ele>
        <time>2022-08-10T07:10:00Z</time>
      </trkpt>
      <trkpt lat="47.13536" lon="6.07266">
        <ele>506.5</ele>
        <time>2022-08-10T07:10:01Z</time>
      </trkpt>
      <trkpt lat="47.13531" lon="6.07272">
        <ele>506.3</ele>
        <time>2022-08-10T07:10:02Z</time>
      </trkpt>
      <trkpt lat="47.13527" lon="6.07276">
        <ele>506.1</ele>
        <time>2022-08-10T07:10:03Z</time>
      </trkpt>
      <trkpt lat="47.13523" lon="6.07279">
        <ele>506.2</ele>
        <time>2022-08-10T07:10:04Z</time>
      </trkpt>
      <trkpt lat="47.13518" lon="6.07282">
        <ele>506.1</ele>
        <time>2022-08-10T07:10:05Z</time>
      </trkpt>
      <trkpt lat="47.13513" lon="6.07284">
        <ele>506.2</ele>
        <time>2022-08-10T07:10:06Z</time>
      </trkpt>
      <trkpt lat="47.13509" lon="6.07286">
        <ele>506.4</ele>
        <time>2022-08-10T07:10:07Z</time>
      </trkpt>
      <trkpt lat="47.13504" lon="6.07288">
        <ele>506.5</ele>
        <time>2022-08-10T07:10:08Z</time>
      </trkpt>
      <trkpt lat="47.135" lon="6.0729">
        <ele>506.1</ele>
        <time>2022-08-10T07:10:09Z</time>
      </trkpt>
      <trkpt lat="47.13496" lon="6.07291">
        <ele>506.1</ele>
        <time>2022-08-10T07:10:10Z</time>
      </trkpt>
      <trkpt lat="47.13492" lon="6.07292">
        <ele>506.1</ele>
        <time>2022-08-10T07:10:11Z</time>
      </trkpt>
      <trkpt lat="47.13488" lon="6.07293">
        <ele>506.2</ele>
        <time>2022-08-10T07:10:12Z</time>
      </trkpt>
      <trkpt lat="47.13484" lon="6.07294">
        <ele>506.6</ele>
        <time>2022-08-10T07:10:13Z</time>
      </trkpt>
      <trkpt lat="47.1348" lon="6.07294">
        <ele>507.3</ele>
        <time>2022-08-10T07:10:14Z</time>
      </trkpt>
      <trkpt lat="47.13476" lon="6.07296">
        <ele>508.2</ele>
        <time>2022-08-10T07:10:15Z</time>
      </trkpt>
      <trkpt lat="47.13472" lon="6.07297">
        <ele>508.8</ele>
        <time>2022-08-10T07:10:16Z</time>
      </trkpt>
      <trkpt lat="47.13468" lon="6.073">
        <ele>509.5</ele>
        <time>2022-08-10T07:10:17Z</time>
      </trkpt>
      <trkpt lat="47.13464" lon="6.07303">
        <ele>509.6</ele>
        <time>2022-08-10T07:10:18Z</time>
      </trkpt>
      <trkpt lat="47.1346" lon="6.07307">
        <ele>509.6</ele>
        <time>2022-08-10T07:10:19Z</time>
      </trkpt>
      <trkpt lat="47.13457" lon="6.0731">
        <ele>510</ele>
        <time>2022-08-10T07:10:20Z</time>
      </trkpt>
      <trkpt lat="47.13453" lon="6.07314">
        <ele>510.3</ele>
        <time>2022-08-10T07:10:21Z</time>
      </trkpt>
      <trkpt lat="47.1345" lon="6.07318">
        <ele>510.6</ele>
        <time>2022-08-10T07:10:22Z</time>
      </trkpt>
      <trkpt lat="47.13448" lon="6.07322">
        <ele>511.3</ele>
        <time>2022-08-10T07:10:23Z</time>
      </trkpt>
      <trkpt lat="47.13446" lon="6.07327">
        <ele>511.8</ele>
        <time>2022-08-10T07:10:24Z</time>
      </trkpt>
      <trkpt lat="47.13443" lon="6.07331">
        <ele>512.3</ele>
        <time>2022-08-10T07:10:25Z</time>
      </trkpt>
      <trkpt lat="47.13441" lon="6.07335">
        <ele>512.6</ele>
        <time>2022-08-10T07:10:26Z</time>
      </trkpt>
      <trkpt lat="47.13439" lon="6.0734">
        <ele>512.7</ele>
        <time>2022-08-10T07:10:27Z</time>
      </trkpt>
      <trkpt lat="47.13436" lon="6.07344">
        <ele>512.9</ele>
        <time>2022-08-10T07:10:28Z</time>
      </trkpt>
      <trkpt lat="47.13433" lon="6.07348">
        <ele>512.9</ele>
        <time>2022-08-10T07:10:29Z</time>
      </trkpt>
      <trkpt lat="47.1343" lon="6.07352">
        <ele>512.7</ele>
        <time>2022-08-10T07:10:30Z</time>
      </trkpt>
      <trkpt lat="47.13427" lon="6.07355">
        <ele>512</ele>
        <time>2022-08-10T07:10:31Z</time>
      </trkpt>
      <trkpt lat="47.13424" lon="6.07358">
        <ele>511.1</ele>
        <time>2022-08-10T07:10:32Z</time>
      </trkpt>
      <trkpt lat="47.13422" lon="6.07361">
        <ele>510.6</ele>
        <time>2022-08-10T07:10:33Z</time>
      </trkpt>
      <trkpt lat="47.13421" lon="6.07364">
        <ele>510.4</ele>
        <time>2022-08-10T07:10:34Z</time>
      </trkpt>
      <trkpt lat="47.13419" lon="6.07369">
        <ele>510.5</ele>
        <time>2022-08-10T07:10:35Z</time>
      </trkpt>
      <trkpt lat="47.13417" lon="6.07373">
        <ele>510.4</ele>
        <time>2022-08-10T07:10:36Z</time>
      </trkpt>
      <trkpt lat="47.13415" lon="6.07377">
        <ele>510.3</ele>
        <time>2022-08-10T07:10:37Z</time>
      </trkpt>
      <trkpt lat="47.13413" lon="6.07382">
        <ele>510.4</ele>
        <time>2022-08-10T07:10:38Z</time>
      </trkpt>
      <trkpt lat="47.1341" lon="6.07386">
        <ele>510.6</ele>
        <time>2022-08-10T07:10:39Z</time>
      </trkpt>
      <trkpt lat="47.13408" lon="6.07391">
        <ele>511</ele>
        <time>2022-08-10T07:10:40Z</time>
      </trkpt>
      <trkpt lat="47.13407" lon="6.07395">
        <ele>511.1</ele>
        <time>2022-08-10T07:10:41Z</time>
      </trkpt>
      <trkpt lat="47.13404" lon="6.07399">
        <ele>511.1</ele>
        <time>2022-08-10T07:10:42Z</time>
      </trkpt>
      <trkpt lat="47.13402" lon="6.07403">
        <ele>511.5</ele>
        <time>2022-08-10T07:10:43Z</time>
      </trkpt>
      <trkpt lat="47.134" lon="6.07406">
        <ele>512</ele>
        <time>2022-08-10T07:10:44Z</time>
      </trkpt>
      <trkpt lat="47.13397" lon="6.0741">
        <ele>512.4</ele>
        <time>2022-08-10T07:10:45Z</time>
      </trkpt>
      <trkpt lat="47.13395" lon="6.07413">
        <ele>512.6</ele>
        <time>2022-08-10T07:10:46Z</time>
      </trkpt>
      <trkpt lat="47.13392" lon="6.07416">
        <ele>513</ele>
        <time>2022-08-10T07:10:47Z</time>
      </trkpt>
      <trkpt lat="47.13389" lon="6.07419">
        <ele>513.4</ele>
        <time>2022-08-10T07:10:48Z</time>
      </trkpt>
      <trkpt lat="47.13387" lon="6.07422">
        <ele>514</ele>
        <time>2022-08-10T07:10:49Z</time>
      </trkpt>
      <trkpt lat="47.13386" lon="6.07426">
        <ele>514.7</ele>
        <time>2022-08-10T07:10:50Z</time>
      </trkpt>
      <trkpt lat="47.13385" lon="6.07431">
        <ele>515.7</ele>
        <time>2022-08-10T07:10:51Z</time>
      </trkpt>
      <trkpt lat="47.13383" lon="6.07435">
        <ele>516.1</ele>
        <time>2022-08-10T07:10:52Z</time>
      </trkpt>
      <trkpt lat="47.13382" lon="6.07439">
        <ele>516.7</ele>
        <time>2022-08-10T07:10:53Z</time>
      </trkpt>
      <trkpt lat="47.1338" lon="6.07442">
        <ele>517.3</ele>
        <time>2022-08-10T07:10:54Z</time>
      </trkpt>
      <trkpt lat="47.13378" lon="6.07446">
        <ele>517.7</ele>
        <time>2022-08-10T07:10:55Z</time>
      </trkpt>
      <trkpt lat="47.13376" lon="6.07449">
        <ele>518.5</ele>
        <time>2022-08-10T07:10:56Z</time>
      </trkpt>
      <trkpt lat="47.13374" lon="6.07453">
        <ele>518.9</ele>
        <time>2022-08-10T07:10:57Z</time>
      </trkpt>
      <trkpt lat="47.13372" lon="6.07457">
        <ele>519.1</ele>
        <time>2022-08-10T07:10:58Z</time>
      </trkpt>
      <trkpt lat="47.13369" lon="6.07461">
        <ele>519.3</ele>
        <time>2022-08-10T07:10:59Z</time>
      </trkpt>
      <trkpt lat="47.13367" lon="6.07465">
        <ele>519.5</ele>
        <time>2022-08-10T07:11:00Z</time>
      </trkpt>
      <trkpt lat="47.13365" lon="6.07468">
        <ele>519.9</ele>
        <time>2022-08-10T07:11:01Z</time>
      </trkpt>
      <trkpt lat="47.13363" lon="6.07471">
        <ele>520.1</ele>
        <time>2022-08-10T07:11:02Z</time>
      </trkpt>
      <trkpt lat="47.13362" lon="6.07475">
        <ele>520.4</ele>
        <time>2022-08-10T07:11:03Z</time>
      </trkpt>
      <trkpt lat="47.13361" lon="6.07477">
        <ele>520.4</ele>
        <time>2022-08-10T07:11:04Z</time>
      </trkpt>
      <trkpt lat="47.13359" lon="6.0748">
        <ele>520.3</ele>
        <time>2022-08-10T07:11:05Z</time>
      </trkpt>
      <trkpt lat="47.13358" lon="6.07481">
        <ele>520.3</ele>
        <time>2022-08-10T07:11:06Z</time>
      </trkpt>
      <trkpt lat="47.13355" lon="6.07481">
        <ele>520</ele>
        <time>2022-08-10T07:11:07Z</time>
      </trkpt>
      <trkpt lat="47.13353" lon="6.0748">
        <ele>519.5</ele>
        <time>2022-08-10T07:11:08Z</time>
      </trkpt>
      <trkpt lat="47.1335" lon="6.07478">
        <ele>518.8</ele>
        <time>2022-08-10T07:11:09Z</time>
      </trkpt>
      <trkpt lat="47.13348" lon="6.07474">
        <ele>518.3</ele>
        <time>2022-08-10T07:11:10Z</time>
      </trkpt>
      <trkpt lat="47.13345" lon="6.0747">
        <ele>517.9</ele>
        <time>2022-08-10T07:11:11Z</time>
      </trkpt>
      <trkpt lat="47.13342" lon="6.07465">
        <ele>517.1</ele>
        <time>2022-08-10T07:11:12Z</time>
      </trkpt>
      <trkpt lat="47.13338" lon="6.0746">
        <ele>515.6</ele>
        <time>2022-08-10T07:11:13Z</time>
      </trkpt>
      <trkpt lat="47.13334" lon="6.07454">
        <ele>514.3</ele>
        <time>2022-08-10T07:11:14Z</time>
      </trkpt>
      <trkpt lat="47.13331" lon="6.07448">
        <ele>513</ele>
        <time>2022-08-10T07:11:15Z</time>
      </trkpt>
      <trkpt lat="47.13327" lon="6.07442">
        <ele>512.1</ele>
        <time>2022-08-10T07:11:16Z</time>
      </trkpt>
      <trkpt lat="47.13323" lon="6.07437">
        <ele>511.5</ele>
        <time>2022-08-10T07:11:17Z</time>
      </trkpt>
      <trkpt lat="47.1332" lon="6.07432">
        <ele>511.1</ele>
        <time>2022-08-10T07:11:18Z</time>
      </trkpt>
      <trkpt lat="47.13317" lon="6.07427">
        <ele>510.7</ele>
        <time>2022-08-10T07:11:19Z</time>
      </trkpt>
      <trkpt lat="47.13313" lon="6.07423">
        <ele>510.3</ele>
        <time>2022-08-10T07:11:20Z</time>
      </trkpt>
      <trkpt lat="47.13309" lon="6.07423">
        <ele>509.9</ele>
        <time>2022-08-10T07:11:21Z</time>
      </trkpt>
      <trkpt lat="47.13306" lon="6.07424">
        <ele>509.8</ele>
        <time>2022-08-10T07:11:22Z</time>
      </trkpt>
      <trkpt lat="47.13303" lon="6.07428">
        <ele>509.6</ele>
        <time>2022-08-10T07:11:23Z</time>
      </trkpt>
      <trkpt lat="47.13301" lon="6.07431">
        <ele>509.6</ele>
        <time>2022-08-10T07:11:24Z</time>
      </trkpt>
      <trkpt lat="47.13299" lon="6.07433">
        <ele>509.6</ele>
        <time>2022-08-10T07:11:25Z</time>
      </trkpt>
      <trkpt lat="47.13298" lon="6.07435">
        <ele>509.6</ele>
        <time>2022-08-10T07:11:26Z</time>
      </trkpt>
      <trkpt lat="47.13296" lon="6.07437">
        <ele>509.9</ele>
        <time>2022-08-10T07:11:27Z</time>
      </trkpt>
      <trkpt lat="47.13294" lon="6.07438">
        <ele>509.9</ele>
        <time>2022-08-10T07:11:28Z</time>
      </trkpt>
      <trkpt lat="47.13292" lon="6.0744">
        <ele>510</ele>
        <time>2022-08-10T07:11:29Z</time>
      </trkpt>
      <trkpt lat="47.13291" lon="6.07441">
        <ele>510</ele>
        <time>2022-08-10T07:11:30Z</time>
      </trkpt>
      <trkpt lat="47.13289" lon="6.07443">
        <ele>510</ele>
        <time>2022-08-10T07:11:31Z</time>
      </trkpt>
      <trkpt lat="47.13287" lon="6.07444">
        <ele>510.1</ele>
        <time>2022-08-10T07:11:32Z</time>
      </trkpt>
      <trkpt lat="47.13285" lon="6.07446">
        <ele>510.4</ele>
        <time>2022-08-10T07:11:33Z</time>
      </trkpt>
      <trkpt lat="47.13284" lon="6.07447">
        <ele>510.8</ele>
        <time>2022-08-10T07:11:34Z</time>
      </trkpt>
      <trkpt lat="47.13282" lon="6.07449">
        <ele>511.2</ele>
        <time>2022-08-10T07:11:35Z</time>
      </trkpt>
      <trkpt lat="47.13281" lon="6.0745">
        <ele>511.8</ele>
        <time>2022-08-10T07:11:36Z</time>
      </trkpt>
      <trkpt lat="47.1328" lon="6.07452">
        <ele>512</ele>
        <time>2022-08-10T07:11:37Z</time>
      </trkpt>
      <trkpt lat="47.13278" lon="6.07453">
        <ele>512</ele>
        <time>2022-08-10T07:11:38Z</time>
      </trkpt>
      <trkpt lat="47.13276" lon="6.07455">
        <ele>512.3</ele>
        <time>2022-08-10T07:11:39Z</time>
      </trkpt>
      <trkpt lat="47.13275" lon="6.07456">
        <ele>512.6</ele>
        <time>2022-08-10T07:11:40Z</time>
      </trkpt>
      <trkpt lat="47.13273" lon="6.07458">
        <ele>512.9</ele>
        <time>2022-08-10T07:11:41Z</time>
      </trkpt>
      <trkpt lat="47.13272" lon="6.07459">
        <ele>513.2</ele>
        <time>2022-08-10T07:11:42Z</time>
      </trkpt>
      <trkpt lat="47.1327" lon="6.07461">
        <ele>513.5</ele>
        <time>2022-08-10T07:11:43Z</time>
      </trkpt>
      <trkpt lat="47.13268" lon="6.07462">
        <ele>513.6</ele>
        <time>2022-08-10T07:11:44Z</time>
      </trkpt>
      <trkpt lat="47.13267" lon="6.07464">
        <ele>513.6</ele>
        <time>2022-08-10T07:11:45Z</time>
      </trkpt>
      <trkpt lat="47.13265" lon="6.07466">
        <ele>513.9</ele>
        <time>2022-08-10T07:11:46Z</time>
      </trkpt>
      <trkpt lat="47.13263" lon="6.07467">
        <ele>514.1</ele>
        <time>2022-08-10T07:11:47Z</time>
      </trkpt>
      <trkpt lat="47.13261" lon="6.07468">
        <ele>514.3</ele>
        <time>2022-08-10T07:11:48Z</time>
      </trkpt>
      <trkpt lat="47.1326" lon="6.0747">
        <ele>514.3</ele>
        <time>2022-08-10T07:11:49Z</time>
      </trkpt>
      <trkpt lat="47.13258" lon="6.07471">
        <ele>514.8</ele>
        <time>2022-08-10T07:11:50Z</time>
      </trkpt>
      <trkpt lat="47.13257" lon="6.07473">
        <ele>515</ele>
        <time>2022-08-10T07:11:51Z</time>
      </trkpt>
      <trkpt lat="47.13255" lon="6.07474">
        <ele>515.4</ele>
        <time>2022-08-10T07:11:52Z</time>
      </trkpt>
      <trkpt lat="47.13254" lon="6.07476">
        <ele>515.9</ele>
        <time>2022-08-10T07:11:53Z</time>
      </trkpt>
      <trkpt lat="47.13252" lon="6.07477">
        <ele>516.4</ele>
        <time>2022-08-10T07:11:54Z</time>
      </trkpt>
      <trkpt lat="47.13251" lon="6.07478">
        <ele>516.9</ele>
        <time>2022-08-10T07:11:55Z</time>
      </trkpt>
      <trkpt lat="47.13249" lon="6.0748">
        <ele>517</ele>
        <time>2022-08-10T07:11:56Z</time>
      </trkpt>
      <trkpt lat="47.13248" lon="6.07481">
        <ele>517.3</ele>
        <time>2022-08-10T07:11:57Z</time>
      </trkpt>
      <trkpt lat="47.13246" lon="6.07482">
        <ele>517.9</ele>
        <time>2022-08-10T07:11:58Z</time>
      </trkpt>
      <trkpt lat="47.13245" lon="6.07484">
        <ele>518.2</ele>
        <time>2022-08-10T07:11:59Z</time>
      </trkpt>
      <trkpt lat="47.13243" lon="6.07485">
        <ele>518.5</ele>
        <time>2022-08-10T07:12:00Z</time>
      </trkpt>
      <trkpt lat="47.13241" lon="6.07486">
        <ele>518.6</ele>
        <time>2022-08-10T07:12:01Z</time>
      </trkpt>
      <trkpt lat="47.1324" lon="6.07487">
        <ele>519</ele>
        <time>2022-08-10T07:12:02Z</time>
      </trkpt>
      <trkpt lat="47.13239" lon="6.07488">
        <ele>519.4</ele>
        <time>2022-08-10T07:12:03Z</time>
      </trkpt>
      <trkpt lat="47.13238" lon="6.07489">
        <ele>519.9</ele>
        <time>2022-08-10T07:12:04Z</time>
      </trkpt>
      <trkpt lat="47.13237" lon="6.0749">
        <ele>520.3</ele>
        <time>2022-08-10T07:12:05Z</time>
      </trkpt>
      <trkpt lat="47.13236" lon="6.07492">
        <ele>520.9</ele>
        <time>2022-08-10T07:12:06Z</time>
      </trkpt>
      <trkpt lat="47.13235" lon="6.07493">
        <ele>521.4</ele>
        <time>2022-08-10T07:12:07Z</time>
      </trkpt>
      <trkpt lat="47.13233" lon="6.07494">
        <ele>522.1</ele>
        <time>2022-08-10T07:12:08Z</time>
      </trkpt>
      <trkpt lat="47.13232" lon="6.07495">
        <ele>522.5</ele>
        <time>2022-08-10T07:12:09Z</time>
      </trkpt>
      <trkpt lat="47.13231" lon="6.07495">
        <ele>522.9</ele>
        <time>2022-08-10T07:12:10Z</time>
      </trkpt>
      <trkpt lat="47.1323" lon="6.07496">
        <ele>523</ele>
        <time>2022-08-10T07:12:11Z</time>
      </trkpt>
      <trkpt lat="47.13229" lon="6.07497">
        <ele>523.5</ele>
        <time>2022-08-10T07:12:12Z</time>
      </trkpt>
      <trkpt lat="47.13228" lon="6.07498">
        <ele>524</ele>
        <time>2022-08-10T07:12:13Z</time>
      </trkpt>
      <trkpt lat="47.13227" lon="6.07499">
        <ele>524.4</ele>
        <time>2022-08-10T07:12:14Z</time>
      </trkpt>
      <trkpt lat="47.13226" lon="6.075">
        <ele>524.8</ele>
        <time>2022-08-10T07:12:15Z</time>
      </trkpt>
      <trkpt lat="47.13225" lon="6.07501">
        <ele>525.2</ele>
        <time>2022-08-10T07:12:16Z</time>
      </trkpt>
      <trkpt lat="47.13224" lon="6.07502">
        <ele>525.8</ele>
        <time>2022-08-10T07:12:17Z</time>
      </trkpt>
      <trkpt lat="47.13223" lon="6.07502">
        <ele>526.2</ele>
        <time>2022-08-10T07:12:18Z</time>
      </trkpt>
      <trkpt lat="47.13222" lon="6.07503">
        <ele>526.7</ele>
        <time>2022-08-10T07:12:19Z</time>
      </trkpt>
      <trkpt lat="47.13222" lon="6.07503">
        <ele>526.7</ele>
        <time>2022-08-10T07:12:20Z</time>
      </trkpt>
      <trkpt lat="47.1322" lon="6.07504">
        <ele>527.7</ele>
        <time>2022-08-10T07:12:21Z</time>
      </trkpt>
      <trkpt lat="47.13218" lon="6.07505">
        <ele>528.2</ele>
        <time>2022-08-10T07:12:22Z</time>
      </trkpt>
      <trkpt lat="47.13217" lon="6.07506">
        <ele>528.9</ele>
        <time>2022-08-10T07:12:23Z</time>
      </trkpt>
      <trkpt lat="47.13216" lon="6.07506">
        <ele>529.6</ele>
        <time>2022-08-10T07:12:24Z</time>
      </trkpt>
      <trkpt lat="47.13214" lon="6.07506">
        <ele>530.4</ele>
        <time>2022-08-10T07:12:25Z</time>
      </trkpt>
      <trkpt lat="47.13213" lon="6.07506">
        <ele>531.4</ele>
        <time>2022-08-10T07:12:26Z</time>
      </trkpt>
      <trkpt lat="47.13212" lon="6.07505">
        <ele>532.2</ele>
        <time>2022-08-10T07:12:27Z</time>
      </trkpt>
      <trkpt lat="47.13211" lon="6.07504">
        <ele>532.7</ele>
        <time>2022-08-10T07:12:28Z</time>
      </trkpt>
      <trkpt lat="47.1321" lon="6.07503">
        <ele>533.2</ele>
        <time>2022-08-10T07:12:29Z</time>
      </trkpt>
      <trkpt lat="47.13208" lon="6.07502">
        <ele>533.5</ele>
        <time>2022-08-10T07:12:30Z</time>
      </trkpt>
      <trkpt lat="47.13207" lon="6.07501">
        <ele>533.8</ele>
        <time>2022-08-10T07:12:31Z</time>
      </trkpt>
      <trkpt lat="47.13205" lon="6.075">
        <ele>534.1</ele>
        <time>2022-08-10T07:12:32Z</time>
      </trkpt>
      <trkpt lat="47.13204" lon="6.07499">
        <ele>534.5</ele>
        <time>2022-08-10T07:12:33Z</time>
      </trkpt>
      <trkpt lat="47.13203" lon="6.07498">
        <ele>534.7</ele>
        <time>2022-08-10T07:12:34Z</time>
      </trkpt>
      <trkpt lat="47.13202" lon="6.07497">
        <ele>535</ele>
        <time>2022-08-10T07:12:35Z</time>
      </trkpt>
      <trkpt lat="47.132" lon="6.07496">
        <ele>535.4</ele>
        <time>2022-08-10T07:12:36Z</time>
      </trkpt>
      <trkpt lat="47.13199" lon="6.07496">
        <ele>535.6</ele>
        <time>2022-08-10T07:12:37Z</time>
      </trkpt>
      <trkpt lat="47.13197" lon="6.07495">
        <ele>535.8</ele>
        <time>2022-08-10T07:12:38Z</time>
      </trkpt>
      <trkpt lat="47.13196" lon="6.07494">
        <ele>536.3</ele>
        <time>2022-08-10T07:12:39Z</time>
      </trkpt>
      <trkpt lat="47.13194" lon="6.07493">
        <ele>536.6</ele>
        <time>2022-08-10T07:12:40Z</time>
      </trkpt>
      <trkpt lat="47.13193" lon="6.07491">
        <ele>537.2</ele>
        <time>2022-08-10T07:12:41Z</time>
      </trkpt>
      <trkpt lat="47.13193" lon="6.0749">
        <ele>537.9</ele>
        <time>2022-08-10T07:12:42Z</time>
      </trkpt>
      <trkpt lat="47.13192" lon="6.07488">
        <ele>538.4</ele>
        <time>2022-08-10T07:12:43Z</time>
      </trkpt>
      <trkpt lat="47.13191" lon="6.07487">
        <ele>538.7</ele>
        <time>2022-08-10T07:12:44Z</time>
      </trkpt>
      <trkpt lat="47.13191" lon="6.07485">
        <ele>539.3</ele>
        <time>2022-08-10T07:12:45Z</time>
      </trkpt>
      <trkpt lat="47.1319" lon="6.07485">
        <ele>539.8</ele>
        <time>2022-08-10T07:12:46Z</time>
      </trkpt>
      <trkpt lat="47.13189" lon="6.07484">
        <ele>540.2</ele>
        <time>2022-08-10T07:12:47Z</time>
      </trkpt>
      <trkpt lat="47.13188" lon="6.07484">
        <ele>540.7</ele>
        <time>2022-08-10T07:12:48Z</time>
      </trkpt>
      <trkpt lat="47.13186" lon="6.07482">
        <ele>541</ele>
        <time>2022-08-10T07:12:49Z</time>
      </trkpt>
      <trkpt lat="47.13184" lon="6.07481">
        <ele>541.4</ele>
        <time>2022-08-10T07:12:50Z</time>
      </trkpt>
      <trkpt lat="47.13182" lon="6.07481">
        <ele>542</ele>
        <time>2022-08-10T07:12:51Z</time>
      </trkpt>
      <trkpt lat="47.1318" lon="6.0748">
        <ele>542.5</ele>
        <time>2022-08-10T07:12:52Z</time>
      </trkpt>
      <trkpt lat="47.13178" lon="6.07479">
        <ele>542.9</ele>
        <time>2022-08-10T07:12:53Z</time>
      </trkpt>
      <trkpt lat="47.13176" lon="6.07479">
        <ele>543.1</ele>
        <time>2022-08-10T07:12:54Z</time>
      </trkpt>
      <trkpt lat="47.13175" lon="6.07478">
        <ele>543.3</ele>
        <time>2022-08-10T07:12:55Z</time>
      </trkpt>
      <trkpt lat="47.13174" lon="6.07478">
        <ele>543.7</ele>
        <time>2022-08-10T07:12:56Z</time>
      </trkpt>
      <trkpt lat="47.13173" lon="6.07477">
        <ele>544</ele>
        <time>2022-08-10T07:12:57Z</time>
      </trkpt>
      <trkpt lat="47.13172" lon="6.07477">
        <ele>544.3</ele>
        <time>2022-08-10T07:12:58Z</time>
      </trkpt>
      <trkpt lat="47.13171" lon="6.07477">
        <ele>544.7</ele>
        <time>2022-08-10T07:12:59Z</time>
      </trkpt>
      <trkpt lat="47.13169" lon="6.07476">
        <ele>544.7</ele>
        <time>2022-08-10T07:13:00Z</time>
      </trkpt>
      <trkpt lat="47.13168" lon="6.07476">
        <ele>544.8</ele>
        <time>2022-08-10T07:13:01Z</time>
      </trkpt>
      <trkpt lat="47.13166" lon="6.07476">
        <ele>545</ele>
        <time>2022-08-10T07:13:02Z</time>
      </trkpt>
      <trkpt lat="47.13166" lon="6.07476">
        <ele>545.4</ele>
        <time>2022-08-10T07:13:03Z</time>
      </trkpt>
      <trkpt lat="47.13165" lon="6.07475">
        <ele>545.8</ele>
        <time>2022-08-10T07:13:04Z</time>
      </trkpt>
      <trkpt lat="47.13165" lon="6.07475">
        <ele>545.8</ele>
        <time>2022-08-10T07:13:05Z</time>
      </trkpt>
      <trkpt lat="47.13165" lon="6.07475">
        <ele>545.8</ele>
        <time>2022-08-10T07:13:06Z</time>
      </trkpt>
      <trkpt lat="47.13165" lon="6.07475">
        <ele>545.8</ele>
        <time>2022-08-10T07:13:07Z</time>
      </trkpt>
      <trkpt lat="47.13165" lon="6.07475">
        <ele>545.8</ele>
        <time>2022-08-10T07:13:08Z</time>
      </trkpt>
      <trkpt lat="47.13159" lon="6.07476">
        <ele>547.9</ele>
        <time>2022-08-10T07:13:09Z</time>
      </trkpt>
      <trkpt lat="47.13157" lon="6.07476">
        <ele>548.1</ele>
        <time>2022-08-10T07:13:10Z</time>
      </trkpt>
      <trkpt lat="47.13156" lon="6.07476">
        <ele>548.4</ele>
        <time>2022-08-10T07:13:11Z</time>
      </trkpt>
      <trkpt lat="47.13154" lon="6.07477">
        <ele>548.8</ele>
        <time>2022-08-10T07:13:12Z</time>
      </trkpt>
      <trkpt lat="47.13154" lon="6.07478">
        <ele>549.2</ele>
        <time>2022-08-10T07:13:13Z</time>
      </trkpt>
      <trkpt lat="47.13153" lon="6.07479">
        <ele>549.7</ele>
        <time>2022-08-10T07:13:14Z</time>
      </trkpt>
      <trkpt lat="47.13153" lon="6.07479">
        <ele>549.7</ele>
        <time>2022-08-10T07:13:15Z</time>
      </trkpt>
      <trkpt lat="47.13153" lon="6.07479">
        <ele>549.7</ele>
        <time>2022-08-10T07:13:16Z</time>
      </trkpt>
      <trkpt lat="47.13148" lon="6.07481">
        <ele>550.9</ele>
        <time>2022-08-10T07:13:17Z</time>
      </trkpt>
      <trkpt lat="47.13147" lon="6.07481">
        <ele>551.5</ele>
        <time>2022-08-10T07:13:18Z</time>
      </trkpt>
      <trkpt lat="47.13146" lon="6.07483">
        <ele>551.9</ele>
        <time>2022-08-10T07:13:19Z</time>
      </trkpt>
      <trkpt lat="47.13145" lon="6.07483">
        <ele>552.4</ele>
        <time>2022-08-10T07:13:20Z</time>
      </trkpt>
      <trkpt lat="47.13145" lon="6.07483">
        <ele>552.4</ele>
        <time>2022-08-10T07:13:21Z</time>
      </trkpt>
      <trkpt lat="47.13145" lon="6.07483">
        <ele>552.4</ele>
        <time>2022-08-10T07:13:22Z</time>
      </trkpt>
      <trkpt lat="47.13145" lon="6.07483">
        <ele>552.4</ele>
        <time>2022-08-10T07:13:23Z</time>
      </trkpt>
      <trkpt lat="47.13145" lon="6.07483">
        <ele>552.4</ele>
        <time>2022-08-10T07:13:24Z</time>
      </trkpt>
      <trkpt lat="47.1314" lon="6.07489">
        <ele>553.9</ele>
        <time>2022-08-10T07:13:25Z</time>
      </trkpt>
      <trkpt lat="47.13138" lon="6.0749">
        <ele>554.3</ele>
        <time>2022-08-10T07:13:26Z</time>
      </trkpt>
      <trkpt lat="47.13136" lon="6.07492">
        <ele>554.1</ele>
        <time>2022-08-10T07:13:27Z</time>
      </trkpt>
      <trkpt lat="47.13134" lon="6.07494">
        <ele>554.2</ele>
        <time>2022-08-10T07:13:28Z</time>
      </trkpt>
      <trkpt lat="47.13132" lon="6.07495">
        <ele>554.3</ele>
        <time>2022-08-10T07:13:29Z</time>
      </trkpt>
      <trkpt lat="47.13131" lon="6.07497">
        <ele>554.4</ele>
        <time>2022-08-10T07:13:30Z</time>
      </trkpt>
      <trkpt lat="47.1313" lon="6.07499">
        <ele>554.4</ele>
        <time>2022-08-10T07:13:31Z</time>
      </trkpt>
      <trkpt lat="47.13128" lon="6.07501">
        <ele>554.5</ele>
        <time>2022-08-10T07:13:32Z</time>
      </trkpt>
      <trkpt lat="47.13127" lon="6.07503">
        <ele>554.5</ele>
        <time>2022-08-10T07:13:33Z</time>
      </trkpt>
      <trkpt lat="47.13126" lon="6.07506">
        <ele>554.5</ele>
        <time>2022-08-10T07:13:34Z</time>
      </trkpt>
      <trkpt lat="47.13125" lon="6.07508">
        <ele>554.6</ele>
        <time>2022-08-10T07:13:35Z</time>
      </trkpt>
      <trkpt lat="47.13124" lon="6.0751">
        <ele>554.7</ele>
        <time>2022-08-10T07:13:36Z</time>
      </trkpt>
      <trkpt lat="47.13122" lon="6.07513">
        <ele>554.9</ele>
        <time>2022-08-10T07:13:37Z</time>
      </trkpt>
      <trkpt lat="47.13121" lon="6.07515">
        <ele>555.1</ele>
        <time>2022-08-10T07:13:38Z</time>
      </trkpt>
      <trkpt lat="47.1312" lon="6.07517">
        <ele>555.4</ele>
        <time>2022-08-10T07:13:39Z</time>
      </trkpt>
      <trkpt lat="47.1312" lon="6.0752">
        <ele>555.5</ele>
        <time>2022-08-10T07:13:40Z</time>
      </trkpt>
      <trkpt lat="47.13119" lon="6.07522">
        <ele>555.5</ele>
        <time>2022-08-10T07:13:41Z</time>
      </trkpt>
      <trkpt lat="47.13118" lon="6.07524">
        <ele>555.5</ele>
        <time>2022-08-10T07:13:42Z</time>
      </trkpt>
      <trkpt lat="47.13117" lon="6.07526">
        <ele>555.6</ele>
        <time>2022-08-10T07:13:43Z</time>
      </trkpt>
      <trkpt lat="47.13116" lon="6.07529">
        <ele>555.5</ele>
        <time>2022-08-10T07:13:44Z</time>
      </trkpt>
      <trkpt lat="47.13115" lon="6.07531">
        <ele>555.4</ele>
        <time>2022-08-10T07:13:45Z</time>
      </trkpt>
      <trkpt lat="47.13114" lon="6.07533">
        <ele>555.4</ele>
        <time>2022-08-10T07:13:46Z</time>
      </trkpt>
      <trkpt lat="47.13113" lon="6.07535">
        <ele>555.5</ele>
        <time>2022-08-10T07:13:47Z</time>
      </trkpt>
      <trkpt lat="47.13112" lon="6.07537">
        <ele>555.5</ele>
        <time>2022-08-10T07:13:48Z</time>
      </trkpt>
      <trkpt lat="47.13111" lon="6.07539">
        <ele>555.6</ele>
        <time>2022-08-10T07:13:49Z</time>
      </trkpt>
      <trkpt lat="47.13111" lon="6.07541">
        <ele>555.5</ele>
        <time>2022-08-10T07:13:50Z</time>
      </trkpt>
      <trkpt lat="47.1311" lon="6.07543">
        <ele>555.6</ele>
        <time>2022-08-10T07:13:51Z</time>
      </trkpt>
      <trkpt lat="47.13109" lon="6.07545">
        <ele>555.5</ele>
        <time>2022-08-10T07:13:52Z</time>
      </trkpt>
      <trkpt lat="47.13109" lon="6.07546">
        <ele>555.4</ele>
        <time>2022-08-10T07:13:53Z</time>
      </trkpt>
      <trkpt lat="47.13108" lon="6.07548">
        <ele>555.6</ele>
        <time>2022-08-10T07:13:54Z</time>
      </trkpt>
      <trkpt lat="47.13108" lon="6.0755">
        <ele>555.8</ele>
        <time>2022-08-10T07:13:55Z</time>
      </trkpt>
      <trkpt lat="47.13107" lon="6.07552">
        <ele>556</ele>
        <time>2022-08-10T07:13:56Z</time>
      </trkpt>
      <trkpt lat="47.13106" lon="6.07555">
        <ele>556.3</ele>
        <time>2022-08-10T07:13:57Z</time>
      </trkpt>
      <trkpt lat="47.13106" lon="6.07557">
        <ele>556.5</ele>
        <time>2022-08-10T07:13:58Z</time>
      </trkpt>
      <trkpt lat="47.13105" lon="6.07559">
        <ele>556.7</ele>
        <time>2022-08-10T07:13:59Z</time>
      </trkpt>
      <trkpt lat="47.13104" lon="6.07562">
        <ele>557.1</ele>
        <time>2022-08-10T07:14:00Z</time>
      </trkpt>
      <trkpt lat="47.13103" lon="6.07564">
        <ele>557.2</ele>
        <time>2022-08-10T07:14:01Z</time>
      </trkpt>
      <trkpt lat="47.13102" lon="6.07566">
        <ele>557.1</ele>
        <time>2022-08-10T07:14:02Z</time>
      </trkpt>
      <trkpt lat="47.13101" lon="6.07568">
        <ele>557.5</ele>
        <time>2022-08-10T07:14:03Z</time>
      </trkpt>
      <trkpt lat="47.131" lon="6.0757">
        <ele>557.6</ele>
        <time>2022-08-10T07:14:04Z</time>
      </trkpt>
      <trkpt lat="47.13099" lon="6.07572">
        <ele>557.8</ele>
        <time>2022-08-10T07:14:05Z</time>
      </trkpt>
      <trkpt lat="47.13099" lon="6.07574">
        <ele>558.1</ele>
        <time>2022-08-10T07:14:06Z</time>
      </trkpt>
      <trkpt lat="47.13098" lon="6.07575">
        <ele>558.5</ele>
        <time>2022-08-10T07:14:07Z</time>
      </trkpt>
      <trkpt lat="47.13098" lon="6.07577">
        <ele>558.8</ele>
        <time>2022-08-10T07:14:08Z</time>
      </trkpt>
      <trkpt lat="47.13098" lon="6.07579">
        <ele>559.3</ele>
        <time>2022-08-10T07:14:09Z</time>
      </trkpt>
      <trkpt lat="47.13097" lon="6.07582">
        <ele>559.5</ele>
        <time>2022-08-10T07:14:10Z</time>
      </trkpt>
      <trkpt lat="47.13097" lon="6.07585">
        <ele>559.6</ele>
        <time>2022-08-10T07:14:11Z</time>
      </trkpt>
      <trkpt lat="47.13096" lon="6.07587">
        <ele>559.8</ele>
        <time>2022-08-10T07:14:12Z</time>
      </trkpt>
      <trkpt lat="47.13095" lon="6.0759">
        <ele>560</ele>
        <time>2022-08-10T07:14:13Z</time>
      </trkpt>
      <trkpt lat="47.13095" lon="6.07592">
        <ele>560.2</ele>
        <time>2022-08-10T07:14:14Z</time>
      </trkpt>
      <trkpt lat="47.13094" lon="6.07595">
        <ele>560.2</ele>
        <time>2022-08-10T07:14:15Z</time>
      </trkpt>
      <trkpt lat="47.13093" lon="6.07598">
        <ele>560.3</ele>
        <time>2022-08-10T07:14:16Z</time>
      </trkpt>
      <trkpt lat="47.13092" lon="6.076">
        <ele>560.3</ele>
        <time>2022-08-10T07:14:17Z</time>
      </trkpt>
      <trkpt lat="47.13091" lon="6.07603">
        <ele>560.3</ele>
        <time>2022-08-10T07:14:18Z</time>
      </trkpt>
      <trkpt lat="47.13091" lon="6.07605">
        <ele>560.5</ele>
        <time>2022-08-10T07:14:19Z</time>
      </trkpt>
      <trkpt lat="47.1309" lon="6.07607">
        <ele>560.6</ele>
        <time>2022-08-10T07:14:20Z</time>
      </trkpt>
      <trkpt lat="47.1309" lon="6.07609">
        <ele>560.8</ele>
        <time>2022-08-10T07:14:21Z</time>
      </trkpt>
      <trkpt lat="47.13089" lon="6.07611">
        <ele>561.2</ele>
        <time>2022-08-10T07:14:22Z</time>
      </trkpt>
      <trkpt lat="47.13089" lon="6.07613">
        <ele>561.5</ele>
        <time>2022-08-10T07:14:23Z</time>
      </trkpt>
      <trkpt lat="47.13088" lon="6.07616">
        <ele>561.6</ele>
        <time>2022-08-10T07:14:24Z</time>
      </trkpt>
      <trkpt lat="47.13087" lon="6.07618">
        <ele>561.7</ele>
        <time>2022-08-10T07:14:25Z</time>
      </trkpt>
      <trkpt lat="47.13086" lon="6.0762">
        <ele>561.8</ele>
        <time>2022-08-10T07:14:26Z</time>
      </trkpt>
      <trkpt lat="47.13085" lon="6.07622">
        <ele>561.8</ele>
        <time>2022-08-10T07:14:27Z</time>
      </trkpt>
      <trkpt lat="47.13084" lon="6.07625">
        <ele>561.9</ele>
        <time>2022-08-10T07:14:28Z</time>
      </trkpt>
      <trkpt lat="47.13083" lon="6.07627">
        <ele>561.9</ele>
        <time>2022-08-10T07:14:29Z</time>
      </trkpt>
      <trkpt lat="47.13082" lon="6.0763">
        <ele>561.9</ele>
        <time>2022-08-10T07:14:30Z</time>
      </trkpt>
      <trkpt lat="47.13081" lon="6.07632">
        <ele>562</ele>
        <time>2022-08-10T07:14:31Z</time>
      </trkpt>
      <trkpt lat="47.1308" lon="6.07635">
        <ele>562</ele>
        <time>2022-08-10T07:14:32Z</time>
      </trkpt>
      <trkpt lat="47.13079" lon="6.07638">
        <ele>562</ele>
        <time>2022-08-10T07:14:33Z</time>
      </trkpt>
      <trkpt lat="47.13078" lon="6.0764">
        <ele>562.1</ele>
        <time>2022-08-10T07:14:34Z</time>
      </trkpt>
      <trkpt lat="47.13077" lon="6.07642">
        <ele>562.2</ele>
        <time>2022-08-10T07:14:35Z</time>
      </trkpt>
      <trkpt lat="47.13076" lon="6.07643">
        <ele>562.5</ele>
        <time>2022-08-10T07:14:36Z</time>
      </trkpt>
      <trkpt lat="47.13076" lon="6.07644">
        <ele>562.7</ele>
        <time>2022-08-10T07:14:37Z</time>
      </trkpt>
      <trkpt lat="47.13075" lon="6.07646">
        <ele>562.9</ele>
        <time>2022-08-10T07:14:38Z</time>
      </trkpt>
      <trkpt lat="47.13075" lon="6.07647">
        <ele>563.3</ele>
        <time>2022-08-10T07:14:39Z</time>
      </trkpt>
      <trkpt lat="47.13074" lon="6.07648">
        <ele>563.5</ele>
        <time>2022-08-10T07:14:40Z</time>
      </trkpt>
      <trkpt lat="47.13073" lon="6.0765">
        <ele>563.6</ele>
        <time>2022-08-10T07:14:41Z</time>
      </trkpt>
      <trkpt lat="47.13072" lon="6.07652">
        <ele>563.6</ele>
        <time>2022-08-10T07:14:42Z</time>
      </trkpt>
      <trkpt lat="47.13072" lon="6.07654">
        <ele>563.6</ele>
        <time>2022-08-10T07:14:43Z</time>
      </trkpt>
      <trkpt lat="47.13071" lon="6.07655">
        <ele>563.9</ele>
        <time>2022-08-10T07:14:44Z</time>
      </trkpt>
      <trkpt lat="47.13071" lon="6.07656">
        <ele>564.2</ele>
        <time>2022-08-10T07:14:45Z</time>
      </trkpt>
      <trkpt lat="47.13071" lon="6.07656">
        <ele>564.2</ele>
        <time>2022-08-10T07:14:46Z</time>
      </trkpt>
      <trkpt lat="47.13069" lon="6.0766">
        <ele>564.8</ele>
        <time>2022-08-10T07:14:47Z</time>
      </trkpt>
      <trkpt lat="47.13068" lon="6.07663">
        <ele>565.1</ele>
        <time>2022-08-10T07:14:48Z</time>
      </trkpt>
      <trkpt lat="47.13068" lon="6.07666">
        <ele>565.4</ele>
        <time>2022-08-10T07:14:49Z</time>
      </trkpt>
      <trkpt lat="47.13067" lon="6.07668">
        <ele>565.7</ele>
        <time>2022-08-10T07:14:50Z</time>
      </trkpt>
      <trkpt lat="47.13066" lon="6.0767">
        <ele>565.9</ele>
        <time>2022-08-10T07:14:51Z</time>
      </trkpt>
      <trkpt lat="47.13065" lon="6.07672">
        <ele>566.1</ele>
        <time>2022-08-10T07:14:52Z</time>
      </trkpt>
      <trkpt lat="47.13064" lon="6.07675">
        <ele>566.3</ele>
        <time>2022-08-10T07:14:53Z</time>
      </trkpt>
      <trkpt lat="47.13064" lon="6.07677">
        <ele>566.8</ele>
        <time>2022-08-10T07:14:54Z</time>
      </trkpt>
      <trkpt lat="47.13063" lon="6.07679">
        <ele>567.1</ele>
        <time>2022-08-10T07:14:55Z</time>
      </trkpt>
      <trkpt lat="47.13062" lon="6.07681">
        <ele>567.6</ele>
        <time>2022-08-10T07:14:56Z</time>
      </trkpt>
      <trkpt lat="47.13061" lon="6.07682">
        <ele>568</ele>
        <time>2022-08-10T07:14:57Z</time>
      </trkpt>
      <trkpt lat="47.1306" lon="6.07685">
        <ele>568.5</ele>
        <time>2022-08-10T07:14:58Z</time>
      </trkpt>
      <trkpt lat="47.13059" lon="6.07687">
        <ele>568.8</ele>
        <time>2022-08-10T07:14:59Z</time>
      </trkpt>
      <trkpt lat="47.13058" lon="6.07688">
        <ele>569.2</ele>
        <time>2022-08-10T07:15:00Z</time>
      </trkpt>
      <trkpt lat="47.13057" lon="6.0769">
        <ele>569.5</ele>
        <time>2022-08-10T07:15:01Z</time>
      </trkpt>
      <trkpt lat="47.13056" lon="6.07692">
        <ele>569.9</ele>
        <time>2022-08-10T07:15:02Z</time>
      </trkpt>
      <trkpt lat="47.13055" lon="6.07694">
        <ele>570.3</ele>
        <time>2022-08-10T07:15:03Z</time>
      </trkpt>
      <trkpt lat="47.13054" lon="6.07695">
        <ele>570.6</ele>
        <time>2022-08-10T07:15:04Z</time>
      </trkpt>
      <trkpt lat="47.13053" lon="6.07697">
        <ele>570.8</ele>
        <time>2022-08-10T07:15:05Z</time>
      </trkpt>
      <trkpt lat="47.13053" lon="6.07699">
        <ele>571.1</ele>
        <time>2022-08-10T07:15:06Z</time>
      </trkpt>
      <trkpt lat="47.13052" lon="6.07701">
        <ele>571.6</ele>
        <time>2022-08-10T07:15:07Z</time>
      </trkpt>
      <trkpt lat="47.13051" lon="6.07702">
        <ele>571.9</ele>
        <time>2022-08-10T07:15:08Z</time>
      </trkpt>
      <trkpt lat="47.1305" lon="6.07704">
        <ele>572.2</ele>
        <time>2022-08-10T07:15:09Z</time>
      </trkpt>
      <trkpt lat="47.13048" lon="6.07705">
        <ele>572.4</ele>
        <time>2022-08-10T07:15:10Z</time>
      </trkpt>
      <trkpt lat="47.13047" lon="6.07707">
        <ele>572.6</ele>
        <time>2022-08-10T07:15:11Z</time>
      </trkpt>
      <trkpt lat="47.13047" lon="6.07708">
        <ele>573</ele>
        <time>2022-08-10T07:15:12Z</time>
      </trkpt>
      <trkpt lat="47.13046" lon="6.07709">
        <ele>573.4</ele>
        <time>2022-08-10T07:15:13Z</time>
      </trkpt>
      <trkpt lat="47.13044" lon="6.0771">
        <ele>573.3</ele>
        <time>2022-08-10T07:15:14Z</time>
      </trkpt>
      <trkpt lat="47.13042" lon="6.07712">
        <ele>573.4</ele>
        <time>2022-08-10T07:15:15Z</time>
      </trkpt>
      <trkpt lat="47.13041" lon="6.07714">
        <ele>573.5</ele>
        <time>2022-08-10T07:15:16Z</time>
      </trkpt>
      <trkpt lat="47.1304" lon="6.07716">
        <ele>573.7</ele>
        <time>2022-08-10T07:15:17Z</time>
      </trkpt>
      <trkpt lat="47.13039" lon="6.07719">
        <ele>574.1</ele>
        <time>2022-08-10T07:15:18Z</time>
      </trkpt>
      <trkpt lat="47.13038" lon="6.07721">
        <ele>574.6</ele>
        <time>2022-08-10T07:15:19Z</time>
      </trkpt>
      <trkpt lat="47.13038" lon="6.07723">
        <ele>574.9</ele>
        <time>2022-08-10T07:15:20Z</time>
      </trkpt>
      <trkpt lat="47.13038" lon="6.07725">
        <ele>575.2</ele>
        <time>2022-08-10T07:15:21Z</time>
      </trkpt>
      <trkpt lat="47.13038" lon="6.07727">
        <ele>575.4</ele>
        <time>2022-08-10T07:15:22Z</time>
      </trkpt>
      <trkpt lat="47.13039" lon="6.0773">
        <ele>575.8</ele>
        <time>2022-08-10T07:15:23Z</time>
      </trkpt>
      <trkpt lat="47.13039" lon="6.07732">
        <ele>576</ele>
        <time>2022-08-10T07:15:24Z</time>
      </trkpt>
      <trkpt lat="47.1304" lon="6.07735">
        <ele>576.4</ele>
        <time>2022-08-10T07:15:25Z</time>
      </trkpt>
      <trkpt lat="47.1304" lon="6.07737">
        <ele>576.9</ele>
        <time>2022-08-10T07:15:26Z</time>
      </trkpt>
      <trkpt lat="47.13039" lon="6.07741">
        <ele>577.3</ele>
        <time>2022-08-10T07:15:27Z</time>
      </trkpt>
      <trkpt lat="47.13039" lon="6.07743">
        <ele>578.1</ele>
        <time>2022-08-10T07:15:28Z</time>
      </trkpt>
      <trkpt lat="47.13039" lon="6.07745">
        <ele>578.6</ele>
        <time>2022-08-10T07:15:29Z</time>
      </trkpt>
      <trkpt lat="47.13039" lon="6.07746">
        <ele>579.1</ele>
        <time>2022-08-10T07:15:30Z</time>
      </trkpt>
      <trkpt lat="47.13039" lon="6.07749">
        <ele>579.7</ele>
        <time>2022-08-10T07:15:31Z</time>
      </trkpt>
      <trkpt lat="47.13038" lon="6.07751">
        <ele>580</ele>
        <time>2022-08-10T07:15:32Z</time>
      </trkpt>
      <trkpt lat="47.13037" lon="6.07754">
        <ele>580.3</ele>
        <time>2022-08-10T07:15:33Z</time>
      </trkpt>
      <trkpt lat="47.13037" lon="6.07755">
        <ele>580.6</ele>
        <time>2022-08-10T07:15:34Z</time>
      </trkpt>
      <trkpt lat="47.13037" lon="6.07756">
        <ele>581</ele>
        <time>2022-08-10T07:15:35Z</time>
      </trkpt>
      <trkpt lat="47.13037" lon="6.07756">
        <ele>581</ele>
        <time>2022-08-10T07:15:36Z</time>
      </trkpt>
      <trkpt lat="47.13035" lon="6.07762">
        <ele>581.8</ele>
        <time>2022-08-10T07:15:37Z</time>
      </trkpt>
      <trkpt lat="47.13035" lon="6.07764">
        <ele>582.4</ele>
        <time>2022-08-10T07:15:38Z</time>
      </trkpt>
      <trkpt lat="47.13035" lon="6.07765">
        <ele>583</ele>
        <time>2022-08-10T07:15:39Z</time>
      </trkpt>
      <trkpt lat="47.13035" lon="6.07767">
        <ele>583.7</ele>
        <time>2022-08-10T07:15:40Z</time>
      </trkpt>
      <trkpt lat="47.13035" lon="6.07767">
        <ele>583.7</ele>
        <time>2022-08-10T07:15:41Z</time>
      </trkpt>
      <trkpt lat="47.13036" lon="6.07772">
        <ele>585.2</ele>
        <time>2022-08-10T07:15:42Z</time>
      </trkpt>
      <trkpt lat="47.13036" lon="6.07775">
        <ele>585.8</ele>
        <time>2022-08-10T07:15:43Z</time>
      </trkpt>
      <trkpt lat="47.13037" lon="6.07778">
        <ele>586.1</ele>
        <time>2022-08-10T07:15:44Z</time>
      </trkpt>
      <trkpt lat="47.13038" lon="6.07781">
        <ele>586.5</ele>
        <time>2022-08-10T07:15:45Z</time>
      </trkpt>
      <trkpt lat="47.13038" lon="6.07784">
        <ele>586.7</ele>
        <time>2022-08-10T07:15:46Z</time>
      </trkpt>
      <trkpt lat="47.13038" lon="6.07787">
        <ele>586.8</ele>
        <time>2022-08-10T07:15:47Z</time>
      </trkpt>
      <trkpt lat="47.13039" lon="6.0779">
        <ele>587</ele>
        <time>2022-08-10T07:15:48Z</time>
      </trkpt>
      <trkpt lat="47.13039" lon="6.07793">
        <ele>587.1</ele>
        <time>2022-08-10T07:15:49Z</time>
      </trkpt>
      <trkpt lat="47.1304" lon="6.07796">
        <ele>587.4</ele>
        <time>2022-08-10T07:15:50Z</time>
      </trkpt>
      <trkpt lat="47.1304" lon="6.07798">
        <ele>587.6</ele>
        <time>2022-08-10T07:15:51Z</time>
      </trkpt>
      <trkpt lat="47.1304" lon="6.078">
        <ele>587.9</ele>
        <time>2022-08-10T07:15:52Z</time>
      </trkpt>
      <trkpt lat="47.13041" lon="6.07801">
        <ele>588.1</ele>
        <time>2022-08-10T07:15:53Z</time>
      </trkpt>
      <trkpt lat="47.13042" lon="6.07805">
        <ele>588.1</ele>
        <time>2022-08-10T07:15:54Z</time>
      </trkpt>
      <trkpt lat="47.13042" lon="6.07808">
        <ele>587.9</ele>
        <time>2022-08-10T07:15:55Z</time>
      </trkpt>
      <trkpt lat="47.13043" lon="6.07812">
        <ele>587.9</ele>
        <time>2022-08-10T07:15:56Z</time>
      </trkpt>
      <trkpt lat="47.13042" lon="6.07815">
        <ele>587.8</ele>
        <time>2022-08-10T07:15:57Z</time>
      </trkpt>
      <trkpt lat="47.13042" lon="6.07819">
        <ele>587.6</ele>
        <time>2022-08-10T07:15:58Z</time>
      </trkpt>
      <trkpt lat="47.13042" lon="6.07822">
        <ele>587.5</ele>
        <time>2022-08-10T07:15:59Z</time>
      </trkpt>
      <trkpt lat="47.13042" lon="6.07824">
        <ele>587.5</ele>
        <time>2022-08-10T07:16:00Z</time>
      </trkpt>
      <trkpt lat="47.13041" lon="6.07826">
        <ele>587.6</ele>
        <time>2022-08-10T07:16:01Z</time>
      </trkpt>
      <trkpt lat="47.13041" lon="6.07827">
        <ele>587.8</ele>
        <time>2022-08-10T07:16:02Z</time>
      </trkpt>
      <trkpt lat="47.13041" lon="6.07827">
        <ele>587.8</ele>
        <time>2022-08-10T07:16:03Z</time>
      </trkpt>
      <trkpt lat="47.13041" lon="6.07827">
        <ele>587.8</ele>
        <time>2022-08-10T07:16:04Z</time>
      </trkpt>
      <trkpt lat="47.13041" lon="6.07827">
        <ele>587.8</ele>
        <time>2022-08-10T07:16:05Z</time>
      </trkpt>
      <trkpt lat="47.13041" lon="6.07827">
        <ele>587.8</ele>
        <time>2022-08-10T07:16:06Z</time>
      </trkpt>
      <trkpt lat="47.13041" lon="6.07827">
        <ele>587.8</ele>
        <time>2022-08-10T07:16:07Z</time>
      </trkpt>
      <trkpt lat="47.13041" lon="6.07827">
        <ele>587.8</ele>
        <time>2022-08-10T07:16:08Z</time>
      </trkpt>
      <trkpt lat="47.13041" lon="6.07827">
        <ele>587.8</ele>
        <time>2022-08-10T07:16:09Z</time>
      </trkpt>
      <trkpt lat="47.1304" lon="6.07842">
        <ele>588.6</ele>
        <time>2022-08-10T07:16:10Z</time>
      </trkpt>
      <trkpt lat="47.1304" lon="6.07846">
        <ele>588.4</ele>
        <time>2022-08-10T07:16:11Z</time>
      </trkpt>
      <trkpt lat="47.1304" lon="6.0785">
        <ele>588.1</ele>
        <time>2022-08-10T07:16:12Z</time>
      </trkpt>
      <trkpt lat="47.1304" lon="6.07853">
        <ele>587.6</ele>
        <time>2022-08-10T07:16:13Z</time>
      </trkpt>
      <trkpt lat="47.1304" lon="6.07857">
        <ele>587.2</ele>
        <time>2022-08-10T07:16:14Z</time>
      </trkpt>
      <trkpt lat="47.13041" lon="6.07862">
        <ele>586.7</ele>
        <time>2022-08-10T07:16:15Z</time>
      </trkpt>
      <trkpt lat="47.13042" lon="6.07866">
        <ele>586.3</ele>
        <time>2022-08-10T07:16:16Z</time>
      </trkpt>
      <trkpt lat="47.13042" lon="6.07869">
        <ele>586.1</ele>
        <time>2022-08-10T07:16:17Z</time>
      </trkpt>
      <trkpt lat="47.13042" lon="6.07873">
        <ele>586</ele>
        <time>2022-08-10T07:16:18Z</time>
      </trkpt>
      <trkpt lat="47.13043" lon="6.07877">
        <ele>585.7</ele>
        <time>2022-08-10T07:16:19Z</time>
      </trkpt>
      <trkpt lat="47.13044" lon="6.07879">
        <ele>585.9</ele>
        <time>2022-08-10T07:16:20Z</time>
      </trkpt>
      <trkpt lat="47.13044" lon="6.07882">
        <ele>585.8</ele>
        <time>2022-08-10T07:16:21Z</time>
      </trkpt>
      <trkpt lat="47.13044" lon="6.07884">
        <ele>586</ele>
        <time>2022-08-10T07:16:22Z</time>
      </trkpt>
      <trkpt lat="47.13045" lon="6.07885">
        <ele>586.3</ele>
        <time>2022-08-10T07:16:23Z</time>
      </trkpt>
      <trkpt lat="47.13045" lon="6.07885">
        <ele>586.3</ele>
        <time>2022-08-10T07:16:24Z</time>
      </trkpt>
      <trkpt lat="47.13045" lon="6.07885">
        <ele>586.3</ele>
        <time>2022-08-10T07:16:25Z</time>
      </trkpt>
      <trkpt lat="47.13045" lon="6.07885">
        <ele>586.3</ele>
        <time>2022-08-10T07:16:26Z</time>
      </trkpt>
      <trkpt lat="47.13047" lon="6.07893">
        <ele>586.9</ele>
        <time>2022-08-10T07:16:27Z</time>
      </trkpt>
      <trkpt lat="47.13047" lon="6.07895">
        <ele>586.8</ele>
        <time>2022-08-10T07:16:28Z</time>
      </trkpt>
      <trkpt lat="47.13047" lon="6.07897">
        <ele>586.9</ele>
        <time>2022-08-10T07:16:29Z</time>
      </trkpt>
      <trkpt lat="47.13047" lon="6.07898">
        <ele>587</ele>
        <time>2022-08-10T07:16:30Z</time>
      </trkpt>
      <trkpt lat="47.13047" lon="6.079">
        <ele>587.1</ele>
        <time>2022-08-10T07:16:31Z</time>
      </trkpt>
      <trkpt lat="47.13047" lon="6.079">
        <ele>587.1</ele>
        <time>2022-08-10T07:16:32Z</time>
      </trkpt>
      <trkpt lat="47.13049" lon="6.07905">
        <ele>587</ele>
        <time>2022-08-10T07:16:33Z</time>
      </trkpt>
      <trkpt lat="47.13049" lon="6.07908">
        <ele>586.7</ele>
        <time>2022-08-10T07:16:34Z</time>
      </trkpt>
      <trkpt lat="47.13049" lon="6.07911">
        <ele>586.4</ele>
        <time>2022-08-10T07:16:35Z</time>
      </trkpt>
      <trkpt lat="47.1305" lon="6.07914">
        <ele>586.4</ele>
        <time>2022-08-10T07:16:36Z</time>
      </trkpt>
      <trkpt lat="47.13051" lon="6.07917">
        <ele>586.3</ele>
        <time>2022-08-10T07:16:37Z</time>
      </trkpt>
      <trkpt lat="47.13052" lon="6.07919">
        <ele>586.2</ele>
        <time>2022-08-10T07:16:38Z</time>
      </trkpt>
      <trkpt lat="47.13052" lon="6.07922">
        <ele>586.3</ele>
        <time>2022-08-10T07:16:39Z</time>
      </trkpt>
      <trkpt lat="47.13053" lon="6.07925">
        <ele>586.2</ele>
        <time>2022-08-10T07:16:40Z</time>
      </trkpt>
      <trkpt lat="47.13054" lon="6.07928">
        <ele>586.4</ele>
        <time>2022-08-10T07:16:41Z</time>
      </trkpt>
      <trkpt lat="47.13055" lon="6.07931">
        <ele>586.6</ele>
        <time>2022-08-10T07:16:42Z</time>
      </trkpt>
      <trkpt lat="47.13055" lon="6.07934">
        <ele>586.9</ele>
        <time>2022-08-10T07:16:43Z</time>
      </trkpt>
      <trkpt lat="47.13056" lon="6.07938">
        <ele>587</ele>
        <time>2022-08-10T07:16:44Z</time>
      </trkpt>
      <trkpt lat="47.13058" lon="6.07941">
        <ele>587.1</ele>
        <time>2022-08-10T07:16:45Z</time>
      </trkpt>
      <trkpt lat="47.13059" lon="6.07945">
        <ele>587.3</ele>
        <time>2022-08-10T07:16:46Z</time>
      </trkpt>
      <trkpt lat="47.13059" lon="6.07948">
        <ele>587.5</ele>
        <time>2022-08-10T07:16:47Z</time>
      </trkpt>
      <trkpt lat="47.1306" lon="6.07951">
        <ele>587.7</ele>
        <time>2022-08-10T07:16:48Z</time>
      </trkpt>
      <trkpt lat="47.1306" lon="6.07954">
        <ele>587.8</ele>
        <time>2022-08-10T07:16:49Z</time>
      </trkpt>
      <trkpt lat="47.13061" lon="6.07958">
        <ele>588.1</ele>
        <time>2022-08-10T07:16:50Z</time>
      </trkpt>
      <trkpt lat="47.13062" lon="6.07961">
        <ele>588.2</ele>
        <time>2022-08-10T07:16:51Z</time>
      </trkpt>
      <trkpt lat="47.13063" lon="6.07967">
        <ele>588.3</ele>
        <time>2022-08-10T07:16:52Z</time>
      </trkpt>
      <trkpt lat="47.13063" lon="6.0797">
        <ele>588.4</ele>
        <time>2022-08-10T07:16:53Z</time>
      </trkpt>
      <trkpt lat="47.13064" lon="6.07973">
        <ele>588.4</ele>
        <time>2022-08-10T07:16:54Z</time>
      </trkpt>
      <trkpt lat="47.13064" lon="6.07976">
        <ele>588.6</ele>
        <time>2022-08-10T07:16:55Z</time>
      </trkpt>
      <trkpt lat="47.13065" lon="6.0798">
        <ele>588.5</ele>
        <time>2022-08-10T07:16:56Z</time>
      </trkpt>
      <trkpt lat="47.13065" lon="6.07983">
        <ele>588.6</ele>
        <time>2022-08-10T07:16:57Z</time>
      </trkpt>
      <trkpt lat="47.13066" lon="6.07985">
        <ele>588.6</ele>
        <time>2022-08-10T07:16:58Z</time>
      </trkpt>
      <trkpt lat="47.13066" lon="6.07988">
        <ele>588.6</ele>
        <time>2022-08-10T07:16:59Z</time>
      </trkpt>
      <trkpt lat="47.13066" lon="6.0799">
        <ele>588.8</ele>
        <time>2022-08-10T07:17:00Z</time>
      </trkpt>
      <trkpt lat="47.13065" lon="6.07992">
        <ele>589</ele>
        <time>2022-08-10T07:17:01Z</time>
      </trkpt>
      <trkpt lat="47.13065" lon="6.07995">
        <ele>589.4</ele>
        <time>2022-08-10T07:17:02Z</time>
      </trkpt>
      <trkpt lat="47.13065" lon="6.07998">
        <ele>589.5</ele>
        <time>2022-08-10T07:17:03Z</time>
      </trkpt>
      <trkpt lat="47.13065" lon="6.08001">
        <ele>589.6</ele>
        <time>2022-08-10T07:17:04Z</time>
      </trkpt>
      <trkpt lat="47.13066" lon="6.08005">
        <ele>589.6</ele>
        <time>2022-08-10T07:17:05Z</time>
      </trkpt>
      <trkpt lat="47.13066" lon="6.08009">
        <ele>589.7</ele>
        <time>2022-08-10T07:17:06Z</time>
      </trkpt>
      <trkpt lat="47.13066" lon="6.08014">
        <ele>589.4</ele>
        <time>2022-08-10T07:17:07Z</time>
      </trkpt>
      <trkpt lat="47.13067" lon="6.08017">
        <ele>589.4</ele>
        <time>2022-08-10T07:17:08Z</time>
      </trkpt>
      <trkpt lat="47.13067" lon="6.0802">
        <ele>589.4</ele>
        <time>2022-08-10T07:17:09Z</time>
      </trkpt>
      <trkpt lat="47.13068" lon="6.08023">
        <ele>589.5</ele>
        <time>2022-08-10T07:17:10Z</time>
      </trkpt>
      <trkpt lat="47.13068" lon="6.08026">
        <ele>589.1</ele>
        <time>2022-08-10T07:17:11Z</time>
      </trkpt>
      <trkpt lat="47.13069" lon="6.08029">
        <ele>589.2</ele>
        <time>2022-08-10T07:17:12Z</time>
      </trkpt>
      <trkpt lat="47.1307" lon="6.08032">
        <ele>589.1</ele>
        <time>2022-08-10T07:17:13Z</time>
      </trkpt>
      <trkpt lat="47.1307" lon="6.08035">
        <ele>589.3</ele>
        <time>2022-08-10T07:17:14Z</time>
      </trkpt>
      <trkpt lat="47.1307" lon="6.08038">
        <ele>589.4</ele>
        <time>2022-08-10T07:17:15Z</time>
      </trkpt>
      <trkpt lat="47.1307" lon="6.08041">
        <ele>589.1</ele>
        <time>2022-08-10T07:17:16Z</time>
      </trkpt>
      <trkpt lat="47.13071" lon="6.08043">
        <ele>589</ele>
        <time>2022-08-10T07:17:17Z</time>
      </trkpt>
      <trkpt lat="47.13071" lon="6.08046">
        <ele>588.9</ele>
        <time>2022-08-10T07:17:18Z</time>
      </trkpt>
      <trkpt lat="47.13071" lon="6.08049">
        <ele>588.9</ele>
        <time>2022-08-10T07:17:19Z</time>
      </trkpt>
      <trkpt lat="47.13072" lon="6.08052">
        <ele>588.7</ele>
        <time>2022-08-10T07:17:20Z</time>
      </trkpt>
      <trkpt lat="47.13072" lon="6.08055">
        <ele>588.8</ele>
        <time>2022-08-10T07:17:21Z</time>
      </trkpt>
      <trkpt lat="47.13072" lon="6.08058">
        <ele>588.8</ele>
        <time>2022-08-10T07:17:22Z</time>
      </trkpt>
      <trkpt lat="47.13073" lon="6.08061">
        <ele>588.7</ele>
        <time>2022-08-10T07:17:23Z</time>
      </trkpt>
      <trkpt lat="47.13073" lon="6.08064">
        <ele>588.7</ele>
        <time>2022-08-10T07:17:24Z</time>
      </trkpt>
      <trkpt lat="47.13074" lon="6.08068">
        <ele>588.9</ele>
        <time>2022-08-10T07:17:25Z</time>
      </trkpt>
      <trkpt lat="47.13074" lon="6.08073">
        <ele>588.9</ele>
        <time>2022-08-10T07:17:26Z</time>
      </trkpt>
      <trkpt lat="47.13074" lon="6.08077">
        <ele>589.1</ele>
        <time>2022-08-10T07:17:27Z</time>
      </trkpt>
      <trkpt lat="47.13074" lon="6.0808">
        <ele>589.5</ele>
        <time>2022-08-10T07:17:28Z</time>
      </trkpt>
      <trkpt lat="47.13075" lon="6.08084">
        <ele>589.5</ele>
        <time>2022-08-10T07:17:29Z</time>
      </trkpt>
      <trkpt lat="47.13075" lon="6.08088">
        <ele>589.2</ele>
        <time>2022-08-10T07:17:30Z</time>
      </trkpt>
      <trkpt lat="47.13076" lon="6.08093">
        <ele>589.4</ele>
        <time>2022-08-10T07:17:31Z</time>
      </trkpt>
      <trkpt lat="47.13076" lon="6.08099">
        <ele>589.2</ele>
        <time>2022-08-10T07:17:32Z</time>
      </trkpt>
      <trkpt lat="47.13078" lon="6.08105">
        <ele>589.2</ele>
        <time>2022-08-10T07:17:33Z</time>
      </trkpt>
      <trkpt lat="47.13079" lon="6.08111">
        <ele>589.2</ele>
        <time>2022-08-10T07:17:34Z</time>
      </trkpt>
      <trkpt lat="47.1308" lon="6.08116">
        <ele>589.1</ele>
        <time>2022-08-10T07:17:35Z</time>
      </trkpt>
      <trkpt lat="47.13081" lon="6.08122">
        <ele>588.6</ele>
        <time>2022-08-10T07:17:36Z</time>
      </trkpt>
      <trkpt lat="47.13082" lon="6.08126">
        <ele>588.1</ele>
        <time>2022-08-10T07:17:37Z</time>
      </trkpt>
      <trkpt lat="47.13082" lon="6.08129">
        <ele>587.5</ele>
        <time>2022-08-10T07:17:38Z</time>
      </trkpt>
      <trkpt lat="47.13083" lon="6.08132">
        <ele>587.2</ele>
        <time>2022-08-10T07:17:39Z</time>
      </trkpt>
      <trkpt lat="47.13083" lon="6.08135">
        <ele>587.1</ele>
        <time>2022-08-10T07:17:40Z</time>
      </trkpt>
      <trkpt lat="47.13083" lon="6.08138">
        <ele>586.7</ele>
        <time>2022-08-10T07:17:41Z</time>
      </trkpt>
      <trkpt lat="47.13084" lon="6.08142">
        <ele>585.9</ele>
        <time>2022-08-10T07:17:42Z</time>
      </trkpt>
      <trkpt lat="47.13084" lon="6.08145">
        <ele>585.7</ele>
        <time>2022-08-10T07:17:43Z</time>
      </trkpt>
      <trkpt lat="47.13084" lon="6.08148">
        <ele>585.7</ele>
        <time>2022-08-10T07:17:44Z</time>
      </trkpt>
      <trkpt lat="47.13084" lon="6.08152">
        <ele>585.8</ele>
        <time>2022-08-10T07:17:45Z</time>
      </trkpt>
      <trkpt lat="47.13084" lon="6.08156">
        <ele>585.8</ele>
        <time>2022-08-10T07:17:46Z</time>
      </trkpt>
      <trkpt lat="47.13084" lon="6.08158">
        <ele>585.8</ele>
        <time>2022-08-10T07:17:47Z</time>
      </trkpt>
      <trkpt lat="47.13084" lon="6.08162">
        <ele>585.9</ele>
        <time>2022-08-10T07:17:48Z</time>
      </trkpt>
      <trkpt lat="47.13085" lon="6.08165">
        <ele>585.9</ele>
        <time>2022-08-10T07:17:49Z</time>
      </trkpt>
      <trkpt lat="47.13085" lon="6.08167">
        <ele>586</ele>
        <time>2022-08-10T07:17:50Z</time>
      </trkpt>
      <trkpt lat="47.13086" lon="6.0817">
        <ele>586.3</ele>
        <time>2022-08-10T07:17:51Z</time>
      </trkpt>
      <trkpt lat="47.13086" lon="6.08174">
        <ele>586.3</ele>
        <time>2022-08-10T07:17:52Z</time>
      </trkpt>
      <trkpt lat="47.13087" lon="6.08177">
        <ele>586.6</ele>
        <time>2022-08-10T07:17:53Z</time>
      </trkpt>
      <trkpt lat="47.13088" lon="6.0818">
        <ele>587</ele>
        <time>2022-08-10T07:17:54Z</time>
      </trkpt>
      <trkpt lat="47.13089" lon="6.08184">
        <ele>587.3</ele>
        <time>2022-08-10T07:17:55Z</time>
      </trkpt>
      <trkpt lat="47.13089" lon="6.08186">
        <ele>587.4</ele>
        <time>2022-08-10T07:17:56Z</time>
      </trkpt>
      <trkpt lat="47.1309" lon="6.08188">
        <ele>587.4</ele>
        <time>2022-08-10T07:17:57Z</time>
      </trkpt>
      <trkpt lat="47.1309" lon="6.08189">
        <ele>587.5</ele>
        <time>2022-08-10T07:17:58Z</time>
      </trkpt>
      <trkpt lat="47.1309" lon="6.0819">
        <ele>587.9</ele>
        <time>2022-08-10T07:17:59Z</time>
      </trkpt>
      <trkpt lat="47.1309" lon="6.0819">
        <ele>587.9</ele>
        <time>2022-08-10T07:18:00Z</time>
      </trkpt>
      <trkpt lat="47.1309" lon="6.0819">
        <ele>587.9</ele>
        <time>2022-08-10T07:18:01Z</time>
      </trkpt>
      <trkpt lat="47.1309" lon="6.0819">
        <ele>587.9</ele>
        <time>2022-08-10T07:18:02Z</time>
      </trkpt>
      <trkpt lat="47.1309" lon="6.0819">
        <ele>587.9</ele>
        <time>2022-08-10T07:18:03Z</time>
      </trkpt>
      <trkpt lat="47.1309" lon="6.08202">
        <ele>589.2</ele>
        <time>2022-08-10T07:18:04Z</time>
      </trkpt>
      <trkpt lat="47.13091" lon="6.08206">
        <ele>589.4</ele>
        <time>2022-08-10T07:18:05Z</time>
      </trkpt>
      <trkpt lat="47.13091" lon="6.08209">
        <ele>589.4</ele>
        <time>2022-08-10T07:18:06Z</time>
      </trkpt>
      <trkpt lat="47.13092" lon="6.08213">
        <ele>589.6</ele>
        <time>2022-08-10T07:18:07Z</time>
      </trkpt>
      <trkpt lat="47.13093" lon="6.08218">
        <ele>589.8</ele>
        <time>2022-08-10T07:18:08Z</time>
      </trkpt>
      <trkpt lat="47.13094" lon="6.08222">
        <ele>590</ele>
        <time>2022-08-10T07:18:09Z</time>
      </trkpt>
      <trkpt lat="47.13095" lon="6.08226">
        <ele>590.1</ele>
        <time>2022-08-10T07:18:10Z</time>
      </trkpt>
      <trkpt lat="47.13096" lon="6.08233">
        <ele>590.7</ele>
        <time>2022-08-10T07:18:11Z</time>
      </trkpt>
      <trkpt lat="47.13096" lon="6.08236">
        <ele>591</ele>
        <time>2022-08-10T07:18:12Z</time>
      </trkpt>
      <trkpt lat="47.13097" lon="6.08242">
        <ele>591.7</ele>
        <time>2022-08-10T07:18:13Z</time>
      </trkpt>
      <trkpt lat="47.13097" lon="6.08245">
        <ele>591.9</ele>
        <time>2022-08-10T07:18:14Z</time>
      </trkpt>
      <trkpt lat="47.13098" lon="6.08247">
        <ele>592.1</ele>
        <time>2022-08-10T07:18:15Z</time>
      </trkpt>
      <trkpt lat="47.13098" lon="6.08251">
        <ele>592.5</ele>
        <time>2022-08-10T07:18:16Z</time>
      </trkpt>
      <trkpt lat="47.13099" lon="6.08254">
        <ele>593</ele>
        <time>2022-08-10T07:18:17Z</time>
      </trkpt>
      <trkpt lat="47.13099" lon="6.08257">
        <ele>593.6</ele>
        <time>2022-08-10T07:18:18Z</time>
      </trkpt>
      <trkpt lat="47.131" lon="6.0826">
        <ele>593.9</ele>
        <time>2022-08-10T07:18:19Z</time>
      </trkpt>
      <trkpt lat="47.131" lon="6.08262">
        <ele>594.5</ele>
        <time>2022-08-10T07:18:20Z</time>
      </trkpt>
      <trkpt lat="47.131" lon="6.08266">
        <ele>595.2</ele>
        <time>2022-08-10T07:18:21Z</time>
      </trkpt>
      <trkpt lat="47.131" lon="6.08269">
        <ele>595.8</ele>
        <time>2022-08-10T07:18:22Z</time>
      </trkpt>
      <trkpt lat="47.13101" lon="6.08273">
        <ele>596.6</ele>
        <time>2022-08-10T07:18:23Z</time>
      </trkpt>
      <trkpt lat="47.13101" lon="6.08276">
        <ele>597</ele>
        <time>2022-08-10T07:18:24Z</time>
      </trkpt>
      <trkpt lat="47.13102" lon="6.0828">
        <ele>597.5</ele>
        <time>2022-08-10T07:18:25Z</time>
      </trkpt>
      <trkpt lat="47.13103" lon="6.08283">
        <ele>598.2</ele>
        <time>2022-08-10T07:18:26Z</time>
      </trkpt>
      <trkpt lat="47.13104" lon="6.08287">
        <ele>598.6</ele>
        <time>2022-08-10T07:18:27Z</time>
      </trkpt>
      <trkpt lat="47.13105" lon="6.0829">
        <ele>599.2</ele>
        <time>2022-08-10T07:18:28Z</time>
      </trkpt>
      <trkpt lat="47.13107" lon="6.08294">
        <ele>599.9</ele>
        <time>2022-08-10T07:18:29Z</time>
      </trkpt>
      <trkpt lat="47.13108" lon="6.08298">
        <ele>600.6</ele>
        <time>2022-08-10T07:18:30Z</time>
      </trkpt>
      <trkpt lat="47.13109" lon="6.08302">
        <ele>601.3</ele>
        <time>2022-08-10T07:18:31Z</time>
      </trkpt>
      <trkpt lat="47.1311" lon="6.08306">
        <ele>601.7</ele>
        <time>2022-08-10T07:18:32Z</time>
      </trkpt>
      <trkpt lat="47.13111" lon="6.0831">
        <ele>602.5</ele>
        <time>2022-08-10T07:18:33Z</time>
      </trkpt>
      <trkpt lat="47.13112" lon="6.08314">
        <ele>603.2</ele>
        <time>2022-08-10T07:18:34Z</time>
      </trkpt>
      <trkpt lat="47.13113" lon="6.08319">
        <ele>603.7</ele>
        <time>2022-08-10T07:18:35Z</time>
      </trkpt>
      <trkpt lat="47.13113" lon="6.08321">
        <ele>604.1</ele>
        <time>2022-08-10T07:18:36Z</time>
      </trkpt>
      <trkpt lat="47.13113" lon="6.08323">
        <ele>604.6</ele>
        <time>2022-08-10T07:18:37Z</time>
      </trkpt>
      <trkpt lat="47.13115" lon="6.08327">
        <ele>604.7</ele>
        <time>2022-08-10T07:18:38Z</time>
      </trkpt>
      <trkpt lat="47.13116" lon="6.08331">
        <ele>604.7</ele>
        <time>2022-08-10T07:18:39Z</time>
      </trkpt>
      <trkpt lat="47.13117" lon="6.08335">
        <ele>604.4</ele>
        <time>2022-08-10T07:18:40Z</time>
      </trkpt>
      <trkpt lat="47.13118" lon="6.0834">
        <ele>604.1</ele>
        <time>2022-08-10T07:18:41Z</time>
      </trkpt>
      <trkpt lat="47.13119" lon="6.08344">
        <ele>603.9</ele>
        <time>2022-08-10T07:18:42Z</time>
      </trkpt>
      <trkpt lat="47.1312" lon="6.08348">
        <ele>603.6</ele>
        <time>2022-08-10T07:18:43Z</time>
      </trkpt>
      <trkpt lat="47.13121" lon="6.08351">
        <ele>603.3</ele>
        <time>2022-08-10T07:18:44Z</time>
      </trkpt>
      <trkpt lat="47.13122" lon="6.08355">
        <ele>603.2</ele>
        <time>2022-08-10T07:18:45Z</time>
      </trkpt>
      <trkpt lat="47.13123" lon="6.08359">
        <ele>602.9</ele>
        <time>2022-08-10T07:18:46Z</time>
      </trkpt>
      <trkpt lat="47.13125" lon="6.08363">
        <ele>602.2</ele>
        <time>2022-08-10T07:18:47Z</time>
      </trkpt>
      <trkpt lat="47.13125" lon="6.08367">
        <ele>601.9</ele>
        <time>2022-08-10T07:18:48Z</time>
      </trkpt>
      <trkpt lat="47.13126" lon="6.08371">
        <ele>601.1</ele>
        <time>2022-08-10T07:18:49Z</time>
      </trkpt>
      <trkpt lat="47.13128" lon="6.08376">
        <ele>600.7</ele>
        <time>2022-08-10T07:18:50Z</time>
      </trkpt>
      <trkpt lat="47.13129" lon="6.08381">
        <ele>599.8</ele>
        <time>2022-08-10T07:18:51Z</time>
      </trkpt>
      <trkpt lat="47.1313" lon="6.08385">
        <ele>599.2</ele>
        <time>2022-08-10T07:18:52Z</time>
      </trkpt>
      <trkpt lat="47.13131" lon="6.08389">
        <ele>598.5</ele>
        <time>2022-08-10T07:18:53Z</time>
      </trkpt>
      <trkpt lat="47.13132" lon="6.08392">
        <ele>598.1</ele>
        <time>2022-08-10T07:18:54Z</time>
      </trkpt>
      <trkpt lat="47.13132" lon="6.08393">
        <ele>597.7</ele>
        <time>2022-08-10T07:18:55Z</time>
      </trkpt>
      <trkpt lat="47.13133" lon="6.08393">
        <ele>597.8</ele>
        <time>2022-08-10T07:18:56Z</time>
      </trkpt>
      <trkpt lat="47.13133" lon="6.08393">
        <ele>597.8</ele>
        <time>2022-08-10T07:18:57Z</time>
      </trkpt>
      <trkpt lat="47.13133" lon="6.08393">
        <ele>597.8</ele>
        <time>2022-08-10T07:18:58Z</time>
      </trkpt>
      <trkpt lat="47.13133" lon="6.08393">
        <ele>597.8</ele>
        <time>2022-08-10T07:18:59Z</time>
      </trkpt>
      <trkpt lat="47.13133" lon="6.08393">
        <ele>597.8</ele>
        <time>2022-08-10T07:19:00Z</time>
      </trkpt>
      <trkpt lat="47.13133" lon="6.08393">
        <ele>597.8</ele>
        <time>2022-08-10T07:19:01Z</time>
      </trkpt>
      <trkpt lat="47.13133" lon="6.08393">
        <ele>597.8</ele>
        <time>2022-08-10T07:19:02Z</time>
      </trkpt>
      <trkpt lat="47.13133" lon="6.08393">
        <ele>597.8</ele>
        <time>2022-08-10T07:19:03Z</time>
      </trkpt>
      <trkpt lat="47.13133" lon="6.08393">
        <ele>597.8</ele>
        <time>2022-08-10T07:19:04Z</time>
      </trkpt>
      <trkpt lat="47.13133" lon="6.08393">
        <ele>597.8</ele>
        <time>2022-08-10T07:19:05Z</time>
      </trkpt>
      <trkpt lat="47.13133" lon="6.08393">
        <ele>597.8</ele>
        <time>2022-08-10T07:19:06Z</time>
      </trkpt>
      <trkpt lat="47.13133" lon="6.08393">
        <ele>597.8</ele>
        <time>2022-08-10T07:19:07Z</time>
      </trkpt>
      <trkpt lat="47.13133" lon="6.08393">
        <ele>597.8</ele>
        <time>2022-08-10T07:19:08Z</time>
      </trkpt>
      <trkpt lat="47.13133" lon="6.08393">
        <ele>597.8</ele>
        <time>2022-08-10T07:19:09Z</time>
      </trkpt>
      <trkpt lat="47.13133" lon="6.08393">
        <ele>597.8</ele>
        <time>2022-08-10T07:19:10Z</time>
      </trkpt>
      <trkpt lat="47.13133" lon="6.08393">
        <ele>597.8</ele>
        <time>2022-08-10T07:19:11Z</time>
      </trkpt>
      <trkpt lat="47.13133" lon="6.08393">
        <ele>597.8</ele>
        <time>2022-08-10T07:19:12Z</time>
      </trkpt>
      <trkpt lat="47.13133" lon="6.08393">
        <ele>597.8</ele>
        <time>2022-08-10T07:19:13Z</time>
      </trkpt>
      <trkpt lat="47.13133" lon="6.08393">
        <ele>597.8</ele>
        <time>2022-08-10T07:19:14Z</time>
      </trkpt>
      <trkpt lat="47.13133" lon="6.08393">
        <ele>597.8</ele>
        <time>2022-08-10T07:19:15Z</time>
      </trkpt>
      <trkpt lat="47.13133" lon="6.08393">
        <ele>597.8</ele>
        <time>2022-08-10T07:19:16Z</time>
      </trkpt>
      <trkpt lat="47.13133" lon="6.08393">
        <ele>597.8</ele>
        <time>2022-08-10T07:19:17Z</time>
      </trkpt>
      <trkpt lat="47.13133" lon="6.08393">
        <ele>597.8</ele>
        <time>2022-08-10T07:19:18Z</time>
      </trkpt>
      <trkpt lat="47.13133" lon="6.08393">
        <ele>597.8</ele>
        <time>2022-08-10T07:19:19Z</time>
      </trkpt>
      <trkpt lat="47.13133" lon="6.08393">
        <ele>597.8</ele>
        <time>2022-08-10T07:19:20Z</time>
      </trkpt>
      <trkpt lat="47.13133" lon="6.08393">
        <ele>597.8</ele>
        <time>2022-08-10T07:19:21Z</time>
      </trkpt>
      <trkpt lat="47.13133" lon="6.08393">
        <ele>597.8</ele>
        <time>2022-08-10T07:19:22Z</time>
      </trkpt>
      <trkpt lat="47.13133" lon="6.08393">
        <ele>597.8</ele>
        <time>2022-08-10T07:19:23Z</time>
      </trkpt>
      <trkpt lat="47.13133" lon="6.08393">
        <ele>597.8</ele>
        <time>2022-08-10T07:19:24Z</time>
      </trkpt>
      <trkpt lat="47.13133" lon="6.08393">
        <ele>597.8</ele>
        <time>2022-08-10T07:19:25Z</time>
      </trkpt>
      <trkpt lat="47.13133" lon="6.08393">
        <ele>597.8</ele>
        <time>2022-08-10T07:19:26Z</time>
      </trkpt>
      <trkpt lat="47.13133" lon="6.08393">
        <ele>597.8</ele>
        <time>2022-08-10T07:19:27Z</time>
      </trkpt>
      <trkpt lat="47.13133" lon="6.08393">
        <ele>597.8</ele>
        <time>2022-08-10T07:19:28Z</time>
      </trkpt>
      <trkpt lat="47.13133" lon="6.08393">
        <ele>597.8</ele>
        <time>2022-08-10T07:19:29Z</time>
      </trkpt>
      <trkpt lat="47.13133" lon="6.08393">
        <ele>597.8</ele>
        <time>2022-08-10T07:19:30Z</time>
      </trkpt>
      <trkpt lat="47.13133" lon="6.08393">
        <ele>597.8</ele>
        <time>2022-08-10T07:19:31Z</time>
      </trkpt>
      <trkpt lat="47.13133" lon="6.08393">
        <ele>597.8</ele>
        <time>2022-08-10T07:19:32Z</time>
      </trkpt>
      <trkpt lat="47.13133" lon="6.08393">
        <ele>597.8</ele>
        <time>2022-08-10T07:19:33Z</time>
      </trkpt>
      <trkpt lat="47.13133" lon="6.08393">
        <ele>597.8</ele>
        <time>2022-08-10T07:19:34Z</time>
      </trkpt>
      <trkpt lat="47.13133" lon="6.08393">
        <ele>597.8</ele>
        <time>2022-08-10T07:19:35Z</time>
      </trkpt>
      <trkpt lat="47.13133" lon="6.08393">
        <ele>597.8</ele>
        <time>2022-08-10T07:19:36Z</time>
      </trkpt>
      <trkpt lat="47.13133" lon="6.08393">
        <ele>597.8</ele>
        <time>2022-08-10T07:19:37Z</time>
      </trkpt>
      <trkpt lat="47.13133" lon="6.08393">
        <ele>597.8</ele>
        <time>2022-08-10T07:19:38Z</time>
      </trkpt>
      <trkpt lat="47.13133" lon="6.08393">
        <ele>597.8</ele>
        <time>2022-08-10T07:19:39Z</time>
      </trkpt>
      <trkpt lat="47.13133" lon="6.08393">
        <ele>597.8</ele>
        <time>2022-08-10T07:19:40Z</time>
      </trkpt>
      <trkpt lat="47.13133" lon="6.08393">
        <ele>597.8</ele>
        <time>2022-08-10T07:19:41Z</time>
      </trkpt>
      <trkpt lat="47.13133" lon="6.08393">
        <ele>597.8</ele>
        <time>2022-08-10T07:19:42Z</time>
      </trkpt>
      <trkpt lat="47.13133" lon="6.08393">
        <ele>597.8</ele>
        <time>2022-08-10T07:19:43Z</time>
      </trkpt>
      <trkpt lat="47.13133" lon="6.08393">
        <ele>597.8</ele>
        <time>2022-08-10T07:19:44Z</time>
      </trkpt>
      <trkpt lat="47.13133" lon="6.08393">
        <ele>597.8</ele>
        <time>2022-08-10T07:19:45Z</time>
      </trkpt>
      <trkpt lat="47.13133" lon="6.08393">
        <ele>597.8</ele>
        <time>2022-08-10T07:19:46Z</time>
      </trkpt>
      <trkpt lat="47.13133" lon="6.08393">
        <ele>597.8</ele>
        <time>2022-08-10T07:19:47Z</time>
      </trkpt>
      <trkpt lat="47.13133" lon="6.08393">
        <ele>597.8</ele>
        <time>2022-08-10T07:19:48Z</time>
      </trkpt>
      <trkpt lat="47.13133" lon="6.08393">
        <ele>597.8</ele>
        <time>2022-08-10T07:19:49Z</time>
      </trkpt>
      <trkpt lat="47.13133" lon="6.08393">
        <ele>597.8</ele>
        <time>2022-08-10T07:19:50Z</time>
      </trkpt>
      <trkpt lat="47.13133" lon="6.08393">
        <ele>597.8</ele>
        <time>2022-08-10T07:19:51Z</time>
      </trkpt>
      <trkpt lat="47.13133" lon="6.08393">
        <ele>597.8</ele>
        <time>2022-08-10T07:19:52Z</time>
      </trkpt>
      <trkpt lat="47.13133" lon="6.08393">
        <ele>597.8</ele>
        <time>2022-08-10T07:19:53Z</time>
      </trkpt>
      <trkpt lat="47.13133" lon="6.08393">
        <ele>597.8</ele>
        <time>2022-08-10T07:19:54Z</time>
      </trkpt>
      <trkpt lat="47.13133" lon="6.08393">
        <ele>597.8</ele>
        <time>2022-08-10T07:19:55Z</time>
      </trkpt>
      <trkpt lat="47.13133" lon="6.08393">
        <ele>597.8</ele>
        <time>2022-08-10T07:19:56Z</time>
      </trkpt>
      <trkpt lat="47.13133" lon="6.08393">
        <ele>597.8</ele>
        <time>2022-08-10T07:19:57Z</time>
      </trkpt>
      <trkpt lat="47.13134" lon="6.08407">
        <ele>597.5</ele>
        <time>2022-08-10T07:19:58Z</time>
      </trkpt>
      <trkpt lat="47.13133" lon="6.08407">
        <ele>597.5</ele>
        <time>2022-08-10T07:19:59Z</time>
      </trkpt>
      <trkpt lat="47.13133" lon="6.08406">
        <ele>597.4</ele>
        <time>2022-08-10T07:20:00Z</time>
      </trkpt>
      <trkpt lat="47.13132" lon="6.08404">
        <ele>597.3</ele>
        <time>2022-08-10T07:20:01Z</time>
      </trkpt>
      <trkpt lat="47.13132" lon="6.08404">
        <ele>597.3</ele>
        <time>2022-08-10T07:20:02Z</time>
      </trkpt>
      <trkpt lat="47.13132" lon="6.08404">
        <ele>597.3</ele>
        <time>2022-08-10T07:20:03Z</time>
      </trkpt>
      <trkpt lat="47.13132" lon="6.08404">
        <ele>597.3</ele>
        <time>2022-08-10T07:20:04Z</time>
      </trkpt>
      <trkpt lat="47.13132" lon="6.08404">
        <ele>597.3</ele>
        <time>2022-08-10T07:20:05Z</time>
      </trkpt>
      <trkpt lat="47.13132" lon="6.08404">
        <ele>597.3</ele>
        <time>2022-08-10T07:20:06Z</time>
      </trkpt>
      <trkpt lat="47.13132" lon="6.08404">
        <ele>597.3</ele>
        <time>2022-08-10T07:20:07Z</time>
      </trkpt>
      <trkpt lat="47.13132" lon="6.08404">
        <ele>597.3</ele>
        <time>2022-08-10T07:20:08Z</time>
      </trkpt>
      <trkpt lat="47.13132" lon="6.08404">
        <ele>597.3</ele>
        <time>2022-08-10T07:20:09Z</time>
      </trkpt>
      <trkpt lat="47.13132" lon="6.08404">
        <ele>597.3</ele>
        <time>2022-08-10T07:20:10Z</time>
      </trkpt>
      <trkpt lat="47.13132" lon="6.08404">
        <ele>597.3</ele>
        <time>2022-08-10T07:20:11Z</time>
      </trkpt>
      <trkpt lat="47.13132" lon="6.08404">
        <ele>597.3</ele>
        <time>2022-08-10T07:20:12Z</time>
      </trkpt>
      <trkpt lat="47.13132" lon="6.08404">
        <ele>597.3</ele>
        <time>2022-08-10T07:20:13Z</time>
      </trkpt>
      <trkpt lat="47.13132" lon="6.08404">
        <ele>597.3</ele>
        <time>2022-08-10T07:20:14Z</time>
      </trkpt>
      <trkpt lat="47.13132" lon="6.08404">
        <ele>597.3</ele>
        <time>2022-08-10T07:20:15Z</time>
      </trkpt>
      <trkpt lat="47.13132" lon="6.08404">
        <ele>597.3</ele>
        <time>2022-08-10T07:20:16Z</time>
      </trkpt>
      <trkpt lat="47.13132" lon="6.08404">
        <ele>597.3</ele>
        <time>2022-08-10T07:20:17Z</time>
      </trkpt>
      <trkpt lat="47.13132" lon="6.08404">
        <ele>597.3</ele>
        <time>2022-08-10T07:20:18Z</time>
      </trkpt>
      <trkpt lat="47.13132" lon="6.08404">
        <ele>597.3</ele>
        <time>2022-08-10T07:20:19Z</time>
      </trkpt>
      <trkpt lat="47.13132" lon="6.08404">
        <ele>597.3</ele>
        <time>2022-08-10T07:20:20Z</time>
      </trkpt>
      <trkpt lat="47.13132" lon="6.08404">
        <ele>597.3</ele>
        <time>2022-08-10T07:20:21Z</time>
      </trkpt>
      <trkpt lat="47.13132" lon="6.08404">
        <ele>597.3</ele>
        <time>2022-08-10T07:20:22Z</time>
      </trkpt>
      <trkpt lat="47.13132" lon="6.08404">
        <ele>597.3</ele>
        <time>2022-08-10T07:20:23Z</time>
      </trkpt>
      <trkpt lat="47.13132" lon="6.08404">
        <ele>597.3</ele>
        <time>2022-08-10T07:20:24Z</time>
      </trkpt>
      <trkpt lat="47.13132" lon="6.08404">
        <ele>597.3</ele>
        <time>2022-08-10T07:20:25Z</time>
      </trkpt>
      <trkpt lat="47.13132" lon="6.08404">
        <ele>597.3</ele>
        <time>2022-08-10T07:20:26Z</time>
      </trkpt>
      <trkpt lat="47.13132" lon="6.08404">
        <ele>597.3</ele>
        <time>2022-08-10T07:20:27Z</time>
      </trkpt>
      <trkpt lat="47.13132" lon="6.08404">
        <ele>597.3</ele>
        <time>2022-08-10T07:20:28Z</time>
      </trkpt>
      <trkpt lat="47.13132" lon="6.08404">
        <ele>597.3</ele>
        <time>2022-08-10T07:20:29Z</time>
      </trkpt>
      <trkpt lat="47.13132" lon="6.08404">
        <ele>597.3</ele>
        <time>2022-08-10T07:20:30Z</time>
      </trkpt>
      <trkpt lat="47.13132" lon="6.08404">
        <ele>597.3</ele>
        <time>2022-08-10T07:20:31Z</time>
      </trkpt>
      <trkpt lat="47.13132" lon="6.08404">
        <ele>597.3</ele>
        <time>2022-08-10T07:20:32Z</time>
      </trkpt>
      <trkpt lat="47.13132" lon="6.08404">
        <ele>597.3</ele>
        <time>2022-08-10T07:20:33Z</time>
      </trkpt>
      <trkpt lat="47.13132" lon="6.08404">
        <ele>597.3</ele>
        <time>2022-08-10T07:20:34Z</time>
      </trkpt>
      <trkpt lat="47.13132" lon="6.08404">
        <ele>597.3</ele>
        <time>2022-08-10T07:20:35Z</time>
      </trkpt>
      <trkpt lat="47.13132" lon="6.08404">
        <ele>597.3</ele>
        <time>2022-08-10T07:20:36Z</time>
      </trkpt>
      <trkpt lat="47.13132" lon="6.08404">
        <ele>597.3</ele>
        <time>2022-08-10T07:20:37Z</time>
      </trkpt>
      <trkpt lat="47.13132" lon="6.08404">
        <ele>597.3</ele>
        <time>2022-08-10T07:20:38Z</time>
      </trkpt>
      <trkpt lat="47.13132" lon="6.08404">
        <ele>597.3</ele>
        <time>2022-08-10T07:20:39Z</time>
      </trkpt>
      <trkpt lat="47.13132" lon="6.08404">
        <ele>597.3</ele>
        <time>2022-08-10T07:20:40Z</time>
      </trkpt>
      <trkpt lat="47.13132" lon="6.08404">
        <ele>597.3</ele>
        <time>2022-08-10T07:20:41Z</time>
      </trkpt>
      <trkpt lat="47.13132" lon="6.08404">
        <ele>597.3</ele>
        <time>2022-08-10T07:20:42Z</time>
      </trkpt>
      <trkpt lat="47.13132" lon="6.08404">
        <ele>597.3</ele>
        <time>2022-08-10T07:20:43Z</time>
      </trkpt>
      <trkpt lat="47.13132" lon="6.08404">
        <ele>597.3</ele>
        <time>2022-08-10T07:20:44Z</time>
      </trkpt>
      <trkpt lat="47.13132" lon="6.08404">
        <ele>597.3</ele>
        <time>2022-08-10T07:20:45Z</time>
      </trkpt>
      <trkpt lat="47.13132" lon="6.08404">
        <ele>597.3</ele>
        <time>2022-08-10T07:20:46Z</time>
      </trkpt>
      <trkpt lat="47.13132" lon="6.08404">
        <ele>597.3</ele>
        <time>2022-08-10T07:20:47Z</time>
      </trkpt>
      <trkpt lat="47.13132" lon="6.08404">
        <ele>597.3</ele>
        <time>2022-08-10T07:20:48Z</time>
      </trkpt>
      <trkpt lat="47.13132" lon="6.08404">
        <ele>597.3</ele>
        <time>2022-08-10T07:20:49Z</time>
      </trkpt>
      <trkpt lat="47.13132" lon="6.08404">
        <ele>597.3</ele>
        <time>2022-08-10T07:20:50Z</time>
      </trkpt>
      <trkpt lat="47.13132" lon="6.08404">
        <ele>597.3</ele>
        <time>2022-08-10T07:20:51Z</time>
      </trkpt>
      <trkpt lat="47.13132" lon="6.08404">
        <ele>597.3</ele>
        <time>2022-08-10T07:20:52Z</time>
      </trkpt>
      <trkpt lat="47.13132" lon="6.08404">
        <ele>597.3</ele>
        <time>2022-08-10T07:20:53Z</time>
      </trkpt>
      <trkpt lat="47.13132" lon="6.08404">
        <ele>597.3</ele>
        <time>2022-08-10T07:20:54Z</time>
      </trkpt>
      <trkpt lat="47.13132" lon="6.08404">
        <ele>597.3</ele>
        <time>2022-08-10T07:20:55Z</time>
      </trkpt>
      <trkpt lat="47.13132" lon="6.08404">
        <ele>597.3</ele>
        <time>2022-08-10T07:20:56Z</time>
      </trkpt>
      <trkpt lat="47.13132" lon="6.08404">
        <ele>597.3</ele>
        <time>2022-08-10T07:20:57Z</time>
      </trkpt>
      <trkpt lat="47.13132" lon="6.08404">
        <ele>597.3</ele>
        <time>2022-08-10T07:20:58Z</time>
      </trkpt>
      <trkpt lat="47.13132" lon="6.08404">
        <ele>597.3</ele>
        <time>2022-08-10T07:20:59Z</time>
      </trkpt>
      <trkpt lat="47.13132" lon="6.08404">
        <ele>597.3</ele>
        <time>2022-08-10T07:21:00Z</time>
      </trkpt>
      <trkpt lat="47.13132" lon="6.08404">
        <ele>597.3</ele>
        <time>2022-08-10T07:21:01Z</time>
      </trkpt>
      <trkpt lat="47.13132" lon="6.08404">
        <ele>597.3</ele>
        <time>2022-08-10T07:21:02Z</time>
      </trkpt>
      <trkpt lat="47.13132" lon="6.08404">
        <ele>597.3</ele>
        <time>2022-08-10T07:21:03Z</time>
      </trkpt>
      <trkpt lat="47.13132" lon="6.08404">
        <ele>597.3</ele>
        <time>2022-08-10T07:21:04Z</time>
      </trkpt>
      <trkpt lat="47.13132" lon="6.08404">
        <ele>597.3</ele>
        <time>2022-08-10T07:21:05Z</time>
      </trkpt>
      <trkpt lat="47.13132" lon="6.08404">
        <ele>597.3</ele>
        <time>2022-08-10T07:21:06Z</time>
      </trkpt>
      <trkpt lat="47.13132" lon="6.08404">
        <ele>597.3</ele>
        <time>2022-08-10T07:21:07Z</time>
      </trkpt>
      <trkpt lat="47.13132" lon="6.08404">
        <ele>597.3</ele>
        <time>2022-08-10T07:21:08Z</time>
      </trkpt>
      <trkpt lat="47.13132" lon="6.08404">
        <ele>597.3</ele>
        <time>2022-08-10T07:21:09Z</time>
      </trkpt>
      <trkpt lat="47.13132" lon="6.08404">
        <ele>597.3</ele>
        <time>2022-08-10T07:21:10Z</time>
      </trkpt>
      <trkpt lat="47.13132" lon="6.08404">
        <ele>597.3</ele>
        <time>2022-08-10T07:21:11Z</time>
      </trkpt>
      <trkpt lat="47.13132" lon="6.08404">
        <ele>597.3</ele>
        <time>2022-08-10T07:21:12Z</time>
      </trkpt>
      <trkpt lat="47.13132" lon="6.08404">
        <ele>597.3</ele>
        <time>2022-08-10T07:21:13Z</time>
      </trkpt>
      <trkpt lat="47.13132" lon="6.08404">
        <ele>597.3</ele>
        <time>2022-08-10T07:21:14Z</time>
      </trkpt>
      <trkpt lat="47.13132" lon="6.08404">
        <ele>597.3</ele>
        <time>2022-08-10T07:21:15Z</time>
      </trkpt>
      <trkpt lat="47.13132" lon="6.08404">
        <ele>597.3</ele>
        <time>2022-08-10T07:21:16Z</time>
      </trkpt>
      <trkpt lat="47.13132" lon="6.08404">
        <ele>597.3</ele>
        <time>2022-08-10T07:21:17Z</time>
      </trkpt>
      <trkpt lat="47.13132" lon="6.08404">
        <ele>597.3</ele>
        <time>2022-08-10T07:21:18Z</time>
      </trkpt>
      <trkpt lat="47.13132" lon="6.08404">
        <ele>597.3</ele>
        <time>2022-08-10T07:21:19Z</time>
      </trkpt>
      <trkpt lat="47.13132" lon="6.08404">
        <ele>597.3</ele>
        <time>2022-08-10T07:21:20Z</time>
      </trkpt>
      <trkpt lat="47.13132" lon="6.08404">
        <ele>597.3</ele>
        <time>2022-08-10T07:21:21Z</time>
      </trkpt>
      <trkpt lat="47.13132" lon="6.08404">
        <ele>597.3</ele>
        <time>2022-08-10T07:21:22Z</time>
      </trkpt>
      <trkpt lat="47.13132" lon="6.08404">
        <ele>597.3</ele>
        <time>2022-08-10T07:21:23Z</time>
      </trkpt>
      <trkpt lat="47.13132" lon="6.08404">
        <ele>597.3</ele>
        <time>2022-08-10T07:21:24Z</time>
      </trkpt>
      <trkpt lat="47.13132" lon="6.08404">
        <ele>597.3</ele>
        <time>2022-08-10T07:21:25Z</time>
      </trkpt>
      <trkpt lat="47.13132" lon="6.08404">
        <ele>597.3</ele>
        <time>2022-08-10T07:21:26Z</time>
      </trkpt>
      <trkpt lat="47.13132" lon="6.08404">
        <ele>597.3</ele>
        <time>2022-08-10T07:21:27Z</time>
      </trkpt>
      <trkpt lat="47.13132" lon="6.08404">
        <ele>597.3</ele>
        <time>2022-08-10T07:21:28Z</time>
      </trkpt>
      <trkpt lat="47.13132" lon="6.08404">
        <ele>597.3</ele>
        <time>2022-08-10T07:21:29Z</time>
      </trkpt>
      <trkpt lat="47.13136" lon="6.08418">
        <ele>593.5</ele>
        <time>2022-08-10T07:21:30Z</time>
      </trkpt>
      <trkpt lat="47.13136" lon="6.08421">
        <ele>593.4</ele>
        <time>2022-08-10T07:21:31Z</time>
      </trkpt>
      <trkpt lat="47.13136" lon="6.08425">
        <ele>593.4</ele>
        <time>2022-08-10T07:21:32Z</time>
      </trkpt>
      <trkpt lat="47.13135" lon="6.08428">
        <ele>593.2</ele>
        <time>2022-08-10T07:21:33Z</time>
      </trkpt>
      <trkpt lat="47.13135" lon="6.08431">
        <ele>593</ele>
        <time>2022-08-10T07:21:34Z</time>
      </trkpt>
      <trkpt lat="47.13136" lon="6.08434">
        <ele>592.8</ele>
        <time>2022-08-10T07:21:35Z</time>
      </trkpt>
      <trkpt lat="47.13136" lon="6.08437">
        <ele>592.7</ele>
        <time>2022-08-10T07:21:36Z</time>
      </trkpt>
      <trkpt lat="47.13136" lon="6.08441">
        <ele>592.5</ele>
        <time>2022-08-10T07:21:37Z</time>
      </trkpt>
      <trkpt lat="47.13136" lon="6.08445">
        <ele>592.4</ele>
        <time>2022-08-10T07:21:38Z</time>
      </trkpt>
      <trkpt lat="47.13136" lon="6.08449">
        <ele>592.3</ele>
        <time>2022-08-10T07:21:39Z</time>
      </trkpt>
      <trkpt lat="47.13136" lon="6.08453">
        <ele>592.2</ele>
        <time>2022-08-10T07:21:40Z</time>
      </trkpt>
      <trkpt lat="47.13136" lon="6.08457">
        <ele>591.9</ele>
        <time>2022-08-10T07:21:41Z</time>
      </trkpt>
      <trkpt lat="47.13137" lon="6.08461">
        <ele>591.8</ele>
        <time>2022-08-10T07:21:42Z</time>
      </trkpt>
      <trkpt lat="47.13137" lon="6.08465">
        <ele>591.7</ele>
        <time>2022-08-10T07:21:43Z</time>
      </trkpt>
      <trkpt lat="47.13137" lon="6.08469">
        <ele>591.6</ele>
        <time>2022-08-10T07:21:44Z</time>
      </trkpt>
      <trkpt lat="47.13138" lon="6.08474">
        <ele>591.6</ele>
        <time>2022-08-10T07:21:45Z</time>
      </trkpt>
      <trkpt lat="47.13139" lon="6.08478">
        <ele>591.3</ele>
        <time>2022-08-10T07:21:46Z</time>
      </trkpt>
      <trkpt lat="47.13139" lon="6.08482">
        <ele>591.2</ele>
        <time>2022-08-10T07:21:47Z</time>
      </trkpt>
      <trkpt lat="47.13139" lon="6.08486">
        <ele>591.2</ele>
        <time>2022-08-10T07:21:48Z</time>
      </trkpt>
      <trkpt lat="47.1314" lon="6.08491">
        <ele>591.7</ele>
        <time>2022-08-10T07:21:49Z</time>
      </trkpt>
      <trkpt lat="47.1314" lon="6.08495">
        <ele>592.7</ele>
        <time>2022-08-10T07:21:50Z</time>
      </trkpt>
      <trkpt lat="47.13141" lon="6.085">
        <ele>592.5</ele>
        <time>2022-08-10T07:21:51Z</time>
      </trkpt>
      <trkpt lat="47.13142" lon="6.08505">
        <ele>592.6</ele>
        <time>2022-08-10T07:21:52Z</time>
      </trkpt>
      <trkpt lat="47.13142" lon="6.08509">
        <ele>592.5</ele>
        <time>2022-08-10T07:21:53Z</time>
      </trkpt>
      <trkpt lat="47.13143" lon="6.08514">
        <ele>592.4</ele>
        <time>2022-08-10T07:21:54Z</time>
      </trkpt>
      <trkpt lat="47.13144" lon="6.08519">
        <ele>593.1</ele>
        <time>2022-08-10T07:21:55Z</time>
      </trkpt>
      <trkpt lat="47.13145" lon="6.08524">
        <ele>593.2</ele>
        <time>2022-08-10T07:21:56Z</time>
      </trkpt>
      <trkpt lat="47.13145" lon="6.08528">
        <ele>593.7</ele>
        <time>2022-08-10T07:21:57Z</time>
      </trkpt>
      <trkpt lat="47.13146" lon="6.08532">
        <ele>593.9</ele>
        <time>2022-08-10T07:21:58Z</time>
      </trkpt>
      <trkpt lat="47.13147" lon="6.08536">
        <ele>594.1</ele>
        <time>2022-08-10T07:21:59Z</time>
      </trkpt>
      <trkpt lat="47.13148" lon="6.0854">
        <ele>594.4</ele>
        <time>2022-08-10T07:22:00Z</time>
      </trkpt>
      <trkpt lat="47.13148" lon="6.08544">
        <ele>594.6</ele>
        <time>2022-08-10T07:22:01Z</time>
      </trkpt>
      <trkpt lat="47.13148" lon="6.08548">
        <ele>595</ele>
        <time>2022-08-10T07:22:02Z</time>
      </trkpt>
      <trkpt lat="47.13148" lon="6.08552">
        <ele>595.4</ele>
        <time>2022-08-10T07:22:03Z</time>
      </trkpt>
      <trkpt lat="47.13149" lon="6.08554">
        <ele>595.2</ele>
        <time>2022-08-10T07:22:04Z</time>
      </trkpt>
      <trkpt lat="47.13149" lon="6.08558">
        <ele>595.3</ele>
        <time>2022-08-10T07:22:05Z</time>
      </trkpt>
      <trkpt lat="47.1315" lon="6.08561">
        <ele>595.4</ele>
        <time>2022-08-10T07:22:06Z</time>
      </trkpt>
      <trkpt lat="47.1315" lon="6.08565">
        <ele>595.6</ele>
        <time>2022-08-10T07:22:07Z</time>
      </trkpt>
      <trkpt lat="47.13151" lon="6.08569">
        <ele>595.5</ele>
        <time>2022-08-10T07:22:08Z</time>
      </trkpt>
      <trkpt lat="47.13151" lon="6.08573">
        <ele>595.4</ele>
        <time>2022-08-10T07:22:09Z</time>
      </trkpt>
      <trkpt lat="47.13152" lon="6.08577">
        <ele>595.4</ele>
        <time>2022-08-10T07:22:10Z</time>
      </trkpt>
      <trkpt lat="47.13153" lon="6.08581">
        <ele>595.3</ele>
        <time>2022-08-10T07:22:11Z</time>
      </trkpt>
      <trkpt lat="47.13154" lon="6.08585">
        <ele>595.3</ele>
        <time>2022-08-10T07:22:12Z</time>
      </trkpt>
      <trkpt lat="47.13155" lon="6.08589">
        <ele>595.3</ele>
        <time>2022-08-10T07:22:13Z</time>
      </trkpt>
      <trkpt lat="47.13156" lon="6.08593">
        <ele>595.4</ele>
        <time>2022-08-10T07:22:14Z</time>
      </trkpt>
      <trkpt lat="47.13158" lon="6.08597">
        <ele>595.6</ele>
        <time>2022-08-10T07:22:15Z</time>
      </trkpt>
      <trkpt lat="47.13159" lon="6.08603">
        <ele>595.9</ele>
        <time>2022-08-10T07:22:16Z</time>
      </trkpt>
      <trkpt lat="47.1316" lon="6.08607">
        <ele>596</ele>
        <time>2022-08-10T07:22:17Z</time>
      </trkpt>
      <trkpt lat="47.13161" lon="6.08612">
        <ele>595.9</ele>
        <time>2022-08-10T07:22:18Z</time>
      </trkpt>
      <trkpt lat="47.13162" lon="6.08617">
        <ele>596</ele>
        <time>2022-08-10T07:22:19Z</time>
      </trkpt>
      <trkpt lat="47.13162" lon="6.08622">
        <ele>595.8</ele>
        <time>2022-08-10T07:22:20Z</time>
      </trkpt>
      <trkpt lat="47.13163" lon="6.08625">
        <ele>595.7</ele>
        <time>2022-08-10T07:22:21Z</time>
      </trkpt>
      <trkpt lat="47.13164" lon="6.08628">
        <ele>595.8</ele>
        <time>2022-08-10T07:22:22Z</time>
      </trkpt>
      <trkpt lat="47.13164" lon="6.08631">
        <ele>596</ele>
        <time>2022-08-10T07:22:23Z</time>
      </trkpt>
      <trkpt lat="47.13165" lon="6.08634">
        <ele>596.1</ele>
        <time>2022-08-10T07:22:24Z</time>
      </trkpt>
      <trkpt lat="47.13166" lon="6.08637">
        <ele>595.8</ele>
        <time>2022-08-10T07:22:25Z</time>
      </trkpt>
      <trkpt lat="47.13166" lon="6.0864">
        <ele>595.8</ele>
        <time>2022-08-10T07:22:26Z</time>
      </trkpt>
      <trkpt lat="47.13166" lon="6.08643">
        <ele>596</ele>
        <time>2022-08-10T07:22:27Z</time>
      </trkpt>
      <trkpt lat="47.13166" lon="6.08646">
        <ele>596.1</ele>
        <time>2022-08-10T07:22:28Z</time>
      </trkpt>
      <trkpt lat="47.13167" lon="6.08649">
        <ele>596.4</ele>
        <time>2022-08-10T07:22:29Z</time>
      </trkpt>
      <trkpt lat="47.13168" lon="6.08652">
        <ele>596.8</ele>
        <time>2022-08-10T07:22:30Z</time>
      </trkpt>
      <trkpt lat="47.13168" lon="6.08655">
        <ele>597.2</ele>
        <time>2022-08-10T07:22:31Z</time>
      </trkpt>
      <trkpt lat="47.13169" lon="6.08658">
        <ele>597.3</ele>
        <time>2022-08-10T07:22:32Z</time>
      </trkpt>
      <trkpt lat="47.13171" lon="6.08662">
        <ele>597.6</ele>
        <time>2022-08-10T07:22:33Z</time>
      </trkpt>
      <trkpt lat="47.13172" lon="6.08666">
        <ele>598</ele>
        <time>2022-08-10T07:22:34Z</time>
      </trkpt>
      <trkpt lat="47.13173" lon="6.0867">
        <ele>598.5</ele>
        <time>2022-08-10T07:22:35Z</time>
      </trkpt>
      <trkpt lat="47.13174" lon="6.08673">
        <ele>599.1</ele>
        <time>2022-08-10T07:22:36Z</time>
      </trkpt>
      <trkpt lat="47.13174" lon="6.08677">
        <ele>599.9</ele>
        <time>2022-08-10T07:22:37Z</time>
      </trkpt>
      <trkpt lat="47.13175" lon="6.0868">
        <ele>600.6</ele>
        <time>2022-08-10T07:22:38Z</time>
      </trkpt>
      <trkpt lat="47.13175" lon="6.08684">
        <ele>600.9</ele>
        <time>2022-08-10T07:22:39Z</time>
      </trkpt>
      <trkpt lat="47.13176" lon="6.08688">
        <ele>601</ele>
        <time>2022-08-10T07:22:40Z</time>
      </trkpt>
      <trkpt lat="47.13177" lon="6.08691">
        <ele>600.8</ele>
        <time>2022-08-10T07:22:41Z</time>
      </trkpt>
      <trkpt lat="47.13179" lon="6.08695">
        <ele>600.9</ele>
        <time>2022-08-10T07:22:42Z</time>
      </trkpt>
      <trkpt lat="47.1318" lon="6.08698">
        <ele>601.1</ele>
        <time>2022-08-10T07:22:43Z</time>
      </trkpt>
      <trkpt lat="47.13181" lon="6.08702">
        <ele>601.1</ele>
        <time>2022-08-10T07:22:44Z</time>
      </trkpt>
      <trkpt lat="47.13181" lon="6.08705">
        <ele>601.4</ele>
        <time>2022-08-10T07:22:45Z</time>
      </trkpt>
      <trkpt lat="47.13182" lon="6.08708">
        <ele>601.6</ele>
        <time>2022-08-10T07:22:46Z</time>
      </trkpt>
      <trkpt lat="47.13183" lon="6.08711">
        <ele>601.8</ele>
        <time>2022-08-10T07:22:47Z</time>
      </trkpt>
      <trkpt lat="47.13183" lon="6.08714">
        <ele>602</ele>
        <time>2022-08-10T07:22:48Z</time>
      </trkpt>
      <trkpt lat="47.13183" lon="6.08715">
        <ele>602.5</ele>
        <time>2022-08-10T07:22:49Z</time>
      </trkpt>
      <trkpt lat="47.13184" lon="6.08718">
        <ele>602.5</ele>
        <time>2022-08-10T07:22:50Z</time>
      </trkpt>
      <trkpt lat="47.13184" lon="6.0872">
        <ele>602.6</ele>
        <time>2022-08-10T07:22:51Z</time>
      </trkpt>
      <trkpt lat="47.13184" lon="6.08722">
        <ele>602.4</ele>
        <time>2022-08-10T07:22:52Z</time>
      </trkpt>
      <trkpt lat="47.13184" lon="6.08725">
        <ele>602.1</ele>
        <time>2022-08-10T07:22:53Z</time>
      </trkpt>
      <trkpt lat="47.13185" lon="6.08728">
        <ele>602.3</ele>
        <time>2022-08-10T07:22:54Z</time>
      </trkpt>
      <trkpt lat="47.13185" lon="6.0873">
        <ele>602.2</ele>
        <time>2022-08-10T07:22:55Z</time>
      </trkpt>
      <trkpt lat="47.13185" lon="6.08732">
        <ele>602.1</ele>
        <time>2022-08-10T07:22:56Z</time>
      </trkpt>
      <trkpt lat="47.13185" lon="6.08734">
        <ele>601.8</ele>
        <time>2022-08-10T07:22:57Z</time>
      </trkpt>
      <trkpt lat="47.13185" lon="6.08736">
        <ele>601.9</ele>
        <time>2022-08-10T07:22:58Z</time>
      </trkpt>
      <trkpt lat="47.13185" lon="6.08738">
        <ele>602.1</ele>
        <time>2022-08-10T07:22:59Z</time>
      </trkpt>
      <trkpt lat="47.13186" lon="6.0874">
        <ele>602.1</ele>
        <time>2022-08-10T07:23:00Z</time>
      </trkpt>
      <trkpt lat="47.13186" lon="6.0874">
        <ele>602.1</ele>
        <time>2022-08-10T07:23:01Z</time>
      </trkpt>
      <trkpt lat="47.13186" lon="6.0874">
        <ele>602.1</ele>
        <time>2022-08-10T07:23:02Z</time>
      </trkpt>
      <trkpt lat="47.13186" lon="6.0874">
        <ele>602.1</ele>
        <time>2022-08-10T07:23:03Z</time>
      </trkpt>
      <trkpt lat="47.13186" lon="6.0874">
        <ele>602.1</ele>
        <time>2022-08-10T07:23:04Z</time>
      </trkpt>
      <trkpt lat="47.13186" lon="6.0874">
        <ele>602.1</ele>
        <time>2022-08-10T07:23:05Z</time>
      </trkpt>
      <trkpt lat="47.13186" lon="6.0874">
        <ele>602.1</ele>
        <time>2022-08-10T07:23:06Z</time>
      </trkpt>
      <trkpt lat="47.13186" lon="6.08753">
        <ele>603.6</ele>
        <time>2022-08-10T07:23:07Z</time>
      </trkpt>
      <trkpt lat="47.13186" lon="6.08756">
        <ele>603.6</ele>
        <time>2022-08-10T07:23:08Z</time>
      </trkpt>
      <trkpt lat="47.13186" lon="6.08759">
        <ele>603.5</ele>
        <time>2022-08-10T07:23:09Z</time>
      </trkpt>
      <trkpt lat="47.13186" lon="6.08761">
        <ele>603.5</ele>
        <time>2022-08-10T07:23:10Z</time>
      </trkpt>
      <trkpt lat="47.13186" lon="6.08764">
        <ele>603.5</ele>
        <time>2022-08-10T07:23:11Z</time>
      </trkpt>
      <trkpt lat="47.13187" lon="6.08766">
        <ele>603.5</ele>
        <time>2022-08-10T07:23:12Z</time>
      </trkpt>
      <trkpt lat="47.13187" lon="6.08767">
        <ele>603.8</ele>
        <time>2022-08-10T07:23:13Z</time>
      </trkpt>
      <trkpt lat="47.13188" lon="6.08768">
        <ele>604.1</ele>
        <time>2022-08-10T07:23:14Z</time>
      </trkpt>
      <trkpt lat="47.13188" lon="6.08768">
        <ele>604.1</ele>
        <time>2022-08-10T07:23:15Z</time>
      </trkpt>
      <trkpt lat="47.13188" lon="6.08768">
        <ele>604.1</ele>
        <time>2022-08-10T07:23:16Z</time>
      </trkpt>
      <trkpt lat="47.13188" lon="6.08768">
        <ele>604.1</ele>
        <time>2022-08-10T07:23:17Z</time>
      </trkpt>
      <trkpt lat="47.13188" lon="6.08768">
        <ele>604.1</ele>
        <time>2022-08-10T07:23:18Z</time>
      </trkpt>
      <trkpt lat="47.13188" lon="6.08768">
        <ele>604.1</ele>
        <time>2022-08-10T07:23:19Z</time>
      </trkpt>
      <trkpt lat="47.13188" lon="6.08768">
        <ele>604.1</ele>
        <time>2022-08-10T07:23:20Z</time>
      </trkpt>
      <trkpt lat="47.13188" lon="6.08768">
        <ele>604.1</ele>
        <time>2022-08-10T07:23:21Z</time>
      </trkpt>
      <trkpt lat="47.13188" lon="6.08768">
        <ele>604.1</ele>
        <time>2022-08-10T07:23:22Z</time>
      </trkpt>
      <trkpt lat="47.13188" lon="6.08768">
        <ele>604.1</ele>
        <time>2022-08-10T07:23:23Z</time>
      </trkpt>
      <trkpt lat="47.13188" lon="6.08768">
        <ele>604.1</ele>
        <time>2022-08-10T07:23:24Z</time>
      </trkpt>
      <trkpt lat="47.13188" lon="6.08768">
        <ele>604.1</ele>
        <time>2022-08-10T07:23:25Z</time>
      </trkpt>
      <trkpt lat="47.13188" lon="6.08768">
        <ele>604.1</ele>
        <time>2022-08-10T07:23:26Z</time>
      </trkpt>
      <trkpt lat="47.13188" lon="6.08768">
        <ele>604.1</ele>
        <time>2022-08-10T07:23:27Z</time>
      </trkpt>
      <trkpt lat="47.13188" lon="6.08768">
        <ele>604.1</ele>
        <time>2022-08-10T07:23:28Z</time>
      </trkpt>
      <trkpt lat="47.13187" lon="6.08782">
        <ele>603.7</ele>
        <time>2022-08-10T07:23:29Z</time>
      </trkpt>
      <trkpt lat="47.13187" lon="6.08783">
        <ele>603.6</ele>
        <time>2022-08-10T07:23:30Z</time>
      </trkpt>
      <trkpt lat="47.13188" lon="6.08784">
        <ele>603.6</ele>
        <time>2022-08-10T07:23:31Z</time>
      </trkpt>
      <trkpt lat="47.13188" lon="6.08785">
        <ele>603.5</ele>
        <time>2022-08-10T07:23:32Z</time>
      </trkpt>
      <trkpt lat="47.13188" lon="6.08785">
        <ele>603.5</ele>
        <time>2022-08-10T07:23:33Z</time>
      </trkpt>
      <trkpt lat="47.13188" lon="6.08785">
        <ele>603.5</ele>
        <time>2022-08-10T07:23:34Z</time>
      </trkpt>
      <trkpt lat="47.13188" lon="6.08785">
        <ele>603.5</ele>
        <time>2022-08-10T07:23:35Z</time>
      </trkpt>
      <trkpt lat="47.13188" lon="6.08785">
        <ele>603.5</ele>
        <time>2022-08-10T07:23:36Z</time>
      </trkpt>
      <trkpt lat="47.13188" lon="6.08785">
        <ele>603.5</ele>
        <time>2022-08-10T07:23:37Z</time>
      </trkpt>
      <trkpt lat="47.13188" lon="6.08785">
        <ele>603.5</ele>
        <time>2022-08-10T07:23:38Z</time>
      </trkpt>
      <trkpt lat="47.13188" lon="6.08785">
        <ele>603.5</ele>
        <time>2022-08-10T07:23:39Z</time>
      </trkpt>
      <trkpt lat="47.13188" lon="6.08785">
        <ele>603.5</ele>
        <time>2022-08-10T07:23:40Z</time>
      </trkpt>
      <trkpt lat="47.13188" lon="6.08785">
        <ele>603.5</ele>
        <time>2022-08-10T07:23:41Z</time>
      </trkpt>
      <trkpt lat="47.13188" lon="6.08785">
        <ele>603.5</ele>
        <time>2022-08-10T07:23:42Z</time>
      </trkpt>
      <trkpt lat="47.13188" lon="6.08785">
        <ele>603.5</ele>
        <time>2022-08-10T07:23:43Z</time>
      </trkpt>
      <trkpt lat="47.13188" lon="6.08785">
        <ele>603.5</ele>
        <time>2022-08-10T07:23:44Z</time>
      </trkpt>
      <trkpt lat="47.13188" lon="6.08785">
        <ele>603.5</ele>
        <time>2022-08-10T07:23:45Z</time>
      </trkpt>
      <trkpt lat="47.13188" lon="6.08785">
        <ele>603.5</ele>
        <time>2022-08-10T07:23:46Z</time>
      </trkpt>
      <trkpt lat="47.13188" lon="6.08785">
        <ele>603.5</ele>
        <time>2022-08-10T07:23:47Z</time>
      </trkpt>
      <trkpt lat="47.13189" lon="6.088">
        <ele>603.2</ele>
        <time>2022-08-10T07:23:48Z</time>
      </trkpt>
      <trkpt lat="47.13189" lon="6.08801">
        <ele>603.2</ele>
        <time>2022-08-10T07:23:49Z</time>
      </trkpt>
      <trkpt lat="47.13189" lon="6.08803">
        <ele>603.3</ele>
        <time>2022-08-10T07:23:50Z</time>
      </trkpt>
      <trkpt lat="47.13189" lon="6.08804">
        <ele>603.3</ele>
        <time>2022-08-10T07:23:51Z</time>
      </trkpt>
      <trkpt lat="47.13189" lon="6.08804">
        <ele>603.3</ele>
        <time>2022-08-10T07:23:52Z</time>
      </trkpt>
      <trkpt lat="47.13189" lon="6.08804">
        <ele>603.3</ele>
        <time>2022-08-10T07:23:53Z</time>
      </trkpt>
      <trkpt lat="47.13189" lon="6.08804">
        <ele>603.3</ele>
        <time>2022-08-10T07:23:54Z</time>
      </trkpt>
      <trkpt lat="47.13189" lon="6.08804">
        <ele>603.3</ele>
        <time>2022-08-10T07:23:55Z</time>
      </trkpt>
      <trkpt lat="47.13189" lon="6.08804">
        <ele>603.3</ele>
        <time>2022-08-10T07:23:56Z</time>
      </trkpt>
      <trkpt lat="47.13189" lon="6.08804">
        <ele>603.3</ele>
        <time>2022-08-10T07:23:57Z</time>
      </trkpt>
      <trkpt lat="47.13189" lon="6.08804">
        <ele>603.3</ele>
        <time>2022-08-10T07:23:58Z</time>
      </trkpt>
      <trkpt lat="47.13189" lon="6.08804">
        <ele>603.3</ele>
        <time>2022-08-10T07:23:59Z</time>
      </trkpt>
      <trkpt lat="47.13189" lon="6.08804">
        <ele>603.3</ele>
        <time>2022-08-10T07:24:00Z</time>
      </trkpt>
      <trkpt lat="47.13189" lon="6.08804">
        <ele>603.3</ele>
        <time>2022-08-10T07:24:01Z</time>
      </trkpt>
      <trkpt lat="47.13189" lon="6.08804">
        <ele>603.3</ele>
        <time>2022-08-10T07:24:02Z</time>
      </trkpt>
      <trkpt lat="47.13189" lon="6.08804">
        <ele>603.3</ele>
        <time>2022-08-10T07:24:03Z</time>
      </trkpt>
      <trkpt lat="47.13189" lon="6.08804">
        <ele>603.3</ele>
        <time>2022-08-10T07:24:04Z</time>
      </trkpt>
      <trkpt lat="47.13189" lon="6.08804">
        <ele>603.3</ele>
        <time>2022-08-10T07:24:05Z</time>
      </trkpt>
      <trkpt lat="47.13189" lon="6.08804">
        <ele>603.3</ele>
        <time>2022-08-10T07:24:06Z</time>
      </trkpt>
      <trkpt lat="47.1319" lon="6.08819">
        <ele>603.7</ele>
        <time>2022-08-10T07:24:07Z</time>
      </trkpt>
      <trkpt lat="47.1319" lon="6.0882">
        <ele>603.8</ele>
        <time>2022-08-10T07:24:08Z</time>
      </trkpt>
      <trkpt lat="47.1319" lon="6.08821">
        <ele>603.9</ele>
        <time>2022-08-10T07:24:09Z</time>
      </trkpt>
      <trkpt lat="47.1319" lon="6.08822">
        <ele>604</ele>
        <time>2022-08-10T07:24:10Z</time>
      </trkpt>
      <trkpt lat="47.1319" lon="6.08822">
        <ele>604</ele>
        <time>2022-08-10T07:24:11Z</time>
      </trkpt>
      <trkpt lat="47.1319" lon="6.08822">
        <ele>604</ele>
        <time>2022-08-10T07:24:12Z</time>
      </trkpt>
      <trkpt lat="47.1319" lon="6.08822">
        <ele>604</ele>
        <time>2022-08-10T07:24:13Z</time>
      </trkpt>
      <trkpt lat="47.1319" lon="6.08822">
        <ele>604</ele>
        <time>2022-08-10T07:24:14Z</time>
      </trkpt>
      <trkpt lat="47.1319" lon="6.08822">
        <ele>604</ele>
        <time>2022-08-10T07:24:15Z</time>
      </trkpt>
      <trkpt lat="47.1319" lon="6.08822">
        <ele>604</ele>
        <time>2022-08-10T07:24:16Z</time>
      </trkpt>
      <trkpt lat="47.1319" lon="6.08822">
        <ele>604</ele>
        <time>2022-08-10T07:24:17Z</time>
      </trkpt>
      <trkpt lat="47.1319" lon="6.08822">
        <ele>604</ele>
        <time>2022-08-10T07:24:18Z</time>
      </trkpt>
      <trkpt lat="47.13192" lon="6.08836">
        <ele>605.5</ele>
        <time>2022-08-10T07:24:19Z</time>
      </trkpt>
      <trkpt lat="47.13192" lon="6.08835">
        <ele>605.4</ele>
        <time>2022-08-10T07:24:20Z</time>
      </trkpt>
      <trkpt lat="47.13192" lon="6.08835">
        <ele>605.4</ele>
        <time>2022-08-10T07:24:21Z</time>
      </trkpt>
      <trkpt lat="47.13192" lon="6.08836">
        <ele>605.4</ele>
        <time>2022-08-10T07:24:22Z</time>
      </trkpt>
      <trkpt lat="47.13192" lon="6.08836">
        <ele>605.4</ele>
        <time>2022-08-10T07:24:23Z</time>
      </trkpt>
      <trkpt lat="47.13192" lon="6.08836">
        <ele>605.4</ele>
        <time>2022-08-10T07:24:24Z</time>
      </trkpt>
      <trkpt lat="47.13192" lon="6.08836">
        <ele>605.4</ele>
        <time>2022-08-10T07:24:25Z</time>
      </trkpt>
      <trkpt lat="47.13192" lon="6.08836">
        <ele>605.4</ele>
        <time>2022-08-10T07:24:26Z</time>
      </trkpt>
      <trkpt lat="47.13192" lon="6.08836">
        <ele>605.4</ele>
        <time>2022-08-10T07:24:27Z</time>
      </trkpt>
      <trkpt lat="47.13192" lon="6.08836">
        <ele>605.4</ele>
        <time>2022-08-10T07:24:28Z</time>
      </trkpt>
      <trkpt lat="47.13192" lon="6.08836">
        <ele>605.4</ele>
        <time>2022-08-10T07:24:29Z</time>
      </trkpt>
      <trkpt lat="47.13192" lon="6.08836">
        <ele>605.4</ele>
        <time>2022-08-10T07:24:30Z</time>
      </trkpt>
      <trkpt lat="47.13192" lon="6.08836">
        <ele>605.4</ele>
        <time>2022-08-10T07:24:31Z</time>
      </trkpt>
      <trkpt lat="47.13192" lon="6.08836">
        <ele>605.4</ele>
        <time>2022-08-10T07:24:32Z</time>
      </trkpt>
      <trkpt lat="47.13193" lon="6.08849">
        <ele>605.5</ele>
        <time>2022-08-10T07:24:33Z</time>
      </trkpt>
      <trkpt lat="47.13194" lon="6.08851">
        <ele>605.5</ele>
        <time>2022-08-10T07:24:34Z</time>
      </trkpt>
      <trkpt lat="47.13194" lon="6.08852">
        <ele>605.5</ele>
        <time>2022-08-10T07:24:35Z</time>
      </trkpt>
      <trkpt lat="47.13194" lon="6.08853">
        <ele>605.5</ele>
        <time>2022-08-10T07:24:36Z</time>
      </trkpt>
      <trkpt lat="47.13194" lon="6.08853">
        <ele>605.5</ele>
        <time>2022-08-10T07:24:37Z</time>
      </trkpt>
      <trkpt lat="47.13194" lon="6.08853">
        <ele>605.5</ele>
        <time>2022-08-10T07:24:38Z</time>
      </trkpt>
      <trkpt lat="47.13194" lon="6.08853">
        <ele>605.5</ele>
        <time>2022-08-10T07:24:39Z</time>
      </trkpt>
      <trkpt lat="47.13194" lon="6.08853">
        <ele>605.5</ele>
        <time>2022-08-10T07:24:40Z</time>
      </trkpt>
      <trkpt lat="47.13194" lon="6.08853">
        <ele>605.5</ele>
        <time>2022-08-10T07:24:41Z</time>
      </trkpt>
      <trkpt lat="47.13194" lon="6.08853">
        <ele>605.5</ele>
        <time>2022-08-10T07:24:42Z</time>
      </trkpt>
      <trkpt lat="47.13194" lon="6.08853">
        <ele>605.5</ele>
        <time>2022-08-10T07:24:43Z</time>
      </trkpt>
      <trkpt lat="47.13194" lon="6.08853">
        <ele>605.5</ele>
        <time>2022-08-10T07:24:44Z</time>
      </trkpt>
      <trkpt lat="47.13194" lon="6.08853">
        <ele>605.5</ele>
        <time>2022-08-10T07:24:45Z</time>
      </trkpt>
      <trkpt lat="47.13194" lon="6.08853">
        <ele>605.5</ele>
        <time>2022-08-10T07:24:46Z</time>
      </trkpt>
      <trkpt lat="47.13194" lon="6.08853">
        <ele>605.5</ele>
        <time>2022-08-10T07:24:47Z</time>
      </trkpt>
      <trkpt lat="47.13194" lon="6.08853">
        <ele>605.5</ele>
        <time>2022-08-10T07:24:48Z</time>
      </trkpt>
      <trkpt lat="47.13194" lon="6.08853">
        <ele>605.5</ele>
        <time>2022-08-10T07:24:49Z</time>
      </trkpt>
      <trkpt lat="47.13194" lon="6.08853">
        <ele>605.5</ele>
        <time>2022-08-10T07:24:50Z</time>
      </trkpt>
      <trkpt lat="47.13196" lon="6.08868">
        <ele>606.5</ele>
        <time>2022-08-10T07:24:51Z</time>
      </trkpt>
      <trkpt lat="47.13196" lon="6.08869">
        <ele>606.7</ele>
        <time>2022-08-10T07:24:52Z</time>
      </trkpt>
      <trkpt lat="47.13197" lon="6.08871">
        <ele>606.9</ele>
        <time>2022-08-10T07:24:53Z</time>
      </trkpt>
      <trkpt lat="47.13197" lon="6.08874">
        <ele>607.1</ele>
        <time>2022-08-10T07:24:54Z</time>
      </trkpt>
      <trkpt lat="47.13197" lon="6.08877">
        <ele>607.3</ele>
        <time>2022-08-10T07:24:55Z</time>
      </trkpt>
      <trkpt lat="47.13197" lon="6.0888">
        <ele>607.5</ele>
        <time>2022-08-10T07:24:56Z</time>
      </trkpt>
      <trkpt lat="47.13198" lon="6.08883">
        <ele>607.7</ele>
        <time>2022-08-10T07:24:57Z</time>
      </trkpt>
      <trkpt lat="47.13199" lon="6.08886">
        <ele>608</ele>
        <time>2022-08-10T07:24:58Z</time>
      </trkpt>
      <trkpt lat="47.13199" lon="6.08889">
        <ele>608.2</ele>
        <time>2022-08-10T07:24:59Z</time>
      </trkpt>
      <trkpt lat="47.13199" lon="6.08892">
        <ele>608.4</ele>
        <time>2022-08-10T07:25:00Z</time>
      </trkpt>
      <trkpt lat="47.132" lon="6.08895">
        <ele>608.6</ele>
        <time>2022-08-10T07:25:01Z</time>
      </trkpt>
      <trkpt lat="47.132" lon="6.08898">
        <ele>608.8</ele>
        <time>2022-08-10T07:25:02Z</time>
      </trkpt>
      <trkpt lat="47.13201" lon="6.089">
        <ele>608.9</ele>
        <time>2022-08-10T07:25:03Z</time>
      </trkpt>
      <trkpt lat="47.13201" lon="6.08903">
        <ele>609.1</ele>
        <time>2022-08-10T07:25:04Z</time>
      </trkpt>
      <trkpt lat="47.13201" lon="6.08905">
        <ele>609.3</ele>
        <time>2022-08-10T07:25:05Z</time>
      </trkpt>
      <trkpt lat="47.13202" lon="6.08908">
        <ele>609.4</ele>
        <time>2022-08-10T07:25:06Z</time>
      </trkpt>
      <trkpt lat="47.13202" lon="6.08911">
        <ele>609.5</ele>
        <time>2022-08-10T07:25:07Z</time>
      </trkpt>
      <trkpt lat="47.13203" lon="6.08913">
        <ele>609.7</ele>
        <time>2022-08-10T07:25:08Z</time>
      </trkpt>
      <trkpt lat="47.13203" lon="6.08916">
        <ele>609.8</ele>
        <time>2022-08-10T07:25:09Z</time>
      </trkpt>
      <trkpt lat="47.13204" lon="6.08917">
        <ele>610.1</ele>
        <time>2022-08-10T07:25:10Z</time>
      </trkpt>
      <trkpt lat="47.13204" lon="6.08919">
        <ele>610.5</ele>
        <time>2022-08-10T07:25:11Z</time>
      </trkpt>
      <trkpt lat="47.13204" lon="6.08919">
        <ele>610.5</ele>
        <time>2022-08-10T07:25:12Z</time>
      </trkpt>
      <trkpt lat="47.13204" lon="6.08919">
        <ele>610.5</ele>
        <time>2022-08-10T07:25:13Z</time>
      </trkpt>
      <trkpt lat="47.13204" lon="6.08919">
        <ele>610.5</ele>
        <time>2022-08-10T07:25:14Z</time>
      </trkpt>
      <trkpt lat="47.13204" lon="6.08919">
        <ele>610.5</ele>
        <time>2022-08-10T07:25:15Z</time>
      </trkpt>
      <trkpt lat="47.13204" lon="6.08919">
        <ele>610.5</ele>
        <time>2022-08-10T07:25:16Z</time>
      </trkpt>
      <trkpt lat="47.13204" lon="6.08919">
        <ele>610.5</ele>
        <time>2022-08-10T07:25:17Z</time>
      </trkpt>
      <trkpt lat="47.13206" lon="6.08932">
        <ele>612.4</ele>
        <time>2022-08-10T07:25:18Z</time>
      </trkpt>
      <trkpt lat="47.13207" lon="6.08935">
        <ele>612.6</ele>
        <time>2022-08-10T07:25:19Z</time>
      </trkpt>
      <trkpt lat="47.13208" lon="6.08939">
        <ele>612.8</ele>
        <time>2022-08-10T07:25:20Z</time>
      </trkpt>
      <trkpt lat="47.13208" lon="6.08941">
        <ele>613</ele>
        <time>2022-08-10T07:25:21Z</time>
      </trkpt>
      <trkpt lat="47.13208" lon="6.08944">
        <ele>613.2</ele>
        <time>2022-08-10T07:25:22Z</time>
      </trkpt>
      <trkpt lat="47.13209" lon="6.08946">
        <ele>613.5</ele>
        <time>2022-08-10T07:25:23Z</time>
      </trkpt>
      <trkpt lat="47.13209" lon="6.08949">
        <ele>613.6</ele>
        <time>2022-08-10T07:25:24Z</time>
      </trkpt>
      <trkpt lat="47.13209" lon="6.08952">
        <ele>613.7</ele>
        <time>2022-08-10T07:25:25Z</time>
      </trkpt>
      <trkpt lat="47.1321" lon="6.08955">
        <ele>613.8</ele>
        <time>2022-08-10T07:25:26Z</time>
      </trkpt>
      <trkpt lat="47.1321" lon="6.08959">
        <ele>613.8</ele>
        <time>2022-08-10T07:25:27Z</time>
      </trkpt>
      <trkpt lat="47.13211" lon="6.08963">
        <ele>613.9</ele>
        <time>2022-08-10T07:25:28Z</time>
      </trkpt>
      <trkpt lat="47.13212" lon="6.08965">
        <ele>614.1</ele>
        <time>2022-08-10T07:25:29Z</time>
      </trkpt>
      <trkpt lat="47.13212" lon="6.08969">
        <ele>614</ele>
        <time>2022-08-10T07:25:30Z</time>
      </trkpt>
      <trkpt lat="47.13212" lon="6.08971">
        <ele>614.1</ele>
        <time>2022-08-10T07:25:31Z</time>
      </trkpt>
      <trkpt lat="47.13212" lon="6.08973">
        <ele>614.2</ele>
        <time>2022-08-10T07:25:32Z</time>
      </trkpt>
      <trkpt lat="47.13213" lon="6.08976">
        <ele>614.3</ele>
        <time>2022-08-10T07:25:33Z</time>
      </trkpt>
      <trkpt lat="47.13213" lon="6.0898">
        <ele>614.6</ele>
        <time>2022-08-10T07:25:34Z</time>
      </trkpt>
      <trkpt lat="47.13213" lon="6.08983">
        <ele>614.6</ele>
        <time>2022-08-10T07:25:35Z</time>
      </trkpt>
      <trkpt lat="47.13213" lon="6.08987">
        <ele>614.6</ele>
        <time>2022-08-10T07:25:36Z</time>
      </trkpt>
      <trkpt lat="47.13214" lon="6.0899">
        <ele>614.5</ele>
        <time>2022-08-10T07:25:37Z</time>
      </trkpt>
      <trkpt lat="47.13215" lon="6.08994">
        <ele>614.3</ele>
        <time>2022-08-10T07:25:38Z</time>
      </trkpt>
      <trkpt lat="47.13216" lon="6.08997">
        <ele>614.2</ele>
        <time>2022-08-10T07:25:39Z</time>
      </trkpt>
      <trkpt lat="47.13217" lon="6.09">
        <ele>614</ele>
        <time>2022-08-10T07:25:40Z</time>
      </trkpt>
      <trkpt lat="47.13218" lon="6.09003">
        <ele>613.8</ele>
        <time>2022-08-10T07:25:41Z</time>
      </trkpt>
      <trkpt lat="47.13219" lon="6.09006">
        <ele>613.6</ele>
        <time>2022-08-10T07:25:42Z</time>
      </trkpt>
      <trkpt lat="47.1322" lon="6.09009">
        <ele>613.4</ele>
        <time>2022-08-10T07:25:43Z</time>
      </trkpt>
      <trkpt lat="47.13221" lon="6.09011">
        <ele>613</ele>
        <time>2022-08-10T07:25:44Z</time>
      </trkpt>
      <trkpt lat="47.13221" lon="6.09014">
        <ele>612.7</ele>
        <time>2022-08-10T07:25:45Z</time>
      </trkpt>
      <trkpt lat="47.1322" lon="6.09016">
        <ele>612.5</ele>
        <time>2022-08-10T07:25:46Z</time>
      </trkpt>
      <trkpt lat="47.1322" lon="6.09018">
        <ele>611.8</ele>
        <time>2022-08-10T07:25:47Z</time>
      </trkpt>
      <trkpt lat="47.13219" lon="6.09021">
        <ele>611</ele>
        <time>2022-08-10T07:25:48Z</time>
      </trkpt>
      <trkpt lat="47.13218" lon="6.09023">
        <ele>610.3</ele>
        <time>2022-08-10T07:25:49Z</time>
      </trkpt>
      <trkpt lat="47.13217" lon="6.09025">
        <ele>609.5</ele>
        <time>2022-08-10T07:25:50Z</time>
      </trkpt>
      <trkpt lat="47.13216" lon="6.09027">
        <ele>608.6</ele>
        <time>2022-08-10T07:25:51Z</time>
      </trkpt>
      <trkpt lat="47.13214" lon="6.09029">
        <ele>607.7</ele>
        <time>2022-08-10T07:25:52Z</time>
      </trkpt>
      <trkpt lat="47.13212" lon="6.09031">
        <ele>606.7</ele>
        <time>2022-08-10T07:25:53Z</time>
      </trkpt>
      <trkpt lat="47.13211" lon="6.09032">
        <ele>605.8</ele>
        <time>2022-08-10T07:25:54Z</time>
      </trkpt>
      <trkpt lat="47.1321" lon="6.09034">
        <ele>604.8</ele>
        <time>2022-08-10T07:25:55Z</time>
      </trkpt>
      <trkpt lat="47.13208" lon="6.09035">
        <ele>603.9</ele>
        <time>2022-08-10T07:25:56Z</time>
      </trkpt>
      <trkpt lat="47.13207" lon="6.09036">
        <ele>603.1</ele>
        <time>2022-08-10T07:25:57Z</time>
      </trkpt>
      <trkpt lat="47.13207" lon="6.09037">
        <ele>602.7</ele>
        <time>2022-08-10T07:25:58Z</time>
      </trkpt>
      <trkpt lat="47.13206" lon="6.09037">
        <ele>602</ele>
        <time>2022-08-10T07:25:59Z</time>
      </trkpt>
      <trkpt lat="47.13204" lon="6.09039">
        <ele>601.1</ele>
        <time>2022-08-10T07:26:00Z</time>
      </trkpt>
      <trkpt lat="47.13203" lon="6.0904">
        <ele>600.1</ele>
        <time>2022-08-10T07:26:01Z</time>
      </trkpt>
      <trkpt lat="47.13201" lon="6.09042">
        <ele>599.1</ele>
        <time>2022-08-10T07:26:02Z</time>
      </trkpt>
      <trkpt lat="47.132" lon="6.09044">
        <ele>598</ele>
        <time>2022-08-10T07:26:03Z</time>
      </trkpt>
      <trkpt lat="47.13198" lon="6.09045">
        <ele>597</ele>
        <time>2022-08-10T07:26:04Z</time>
      </trkpt>
      <trkpt lat="47.13197" lon="6.09046">
        <ele>596</ele>
        <time>2022-08-10T07:26:05Z</time>
      </trkpt>
      <trkpt lat="47.13196" lon="6.09047">
        <ele>595.1</ele>
        <time>2022-08-10T07:26:06Z</time>
      </trkpt>
      <trkpt lat="47.13195" lon="6.09048">
        <ele>594.2</ele>
        <time>2022-08-10T07:26:07Z</time>
      </trkpt>
      <trkpt lat="47.13195" lon="6.0905">
        <ele>593.5</ele>
        <time>2022-08-10T07:26:08Z</time>
      </trkpt>
      <trkpt lat="47.13195" lon="6.0905">
        <ele>593</ele>
        <time>2022-08-10T07:26:09Z</time>
      </trkpt>
      <trkpt lat="47.13194" lon="6.0905">
        <ele>593.2</ele>
        <time>2022-08-10T07:26:10Z</time>
      </trkpt>
      <trkpt lat="47.13194" lon="6.0905">
        <ele>593.2</ele>
        <time>2022-08-10T07:26:11Z</time>
      </trkpt>
      <trkpt lat="47.13194" lon="6.0905">
        <ele>593.2</ele>
        <time>2022-08-10T07:26:12Z</time>
      </trkpt>
      <trkpt lat="47.13194" lon="6.0905">
        <ele>593.2</ele>
        <time>2022-08-10T07:26:13Z</time>
      </trkpt>
      <trkpt lat="47.13194" lon="6.0905">
        <ele>593.2</ele>
        <time>2022-08-10T07:26:14Z</time>
      </trkpt>
      <trkpt lat="47.13194" lon="6.0905">
        <ele>593.2</ele>
        <time>2022-08-10T07:26:15Z</time>
      </trkpt>
      <trkpt lat="47.13194" lon="6.0905">
        <ele>593.2</ele>
        <time>2022-08-10T07:26:16Z</time>
      </trkpt>
      <trkpt lat="47.13194" lon="6.0905">
        <ele>593.2</ele>
        <time>2022-08-10T07:26:17Z</time>
      </trkpt>
      <trkpt lat="47.13194" lon="6.0905">
        <ele>593.2</ele>
        <time>2022-08-10T07:26:18Z</time>
      </trkpt>
      <trkpt lat="47.13194" lon="6.0905">
        <ele>593.2</ele>
        <time>2022-08-10T07:26:19Z</time>
      </trkpt>
      <trkpt lat="47.13194" lon="6.0905">
        <ele>593.2</ele>
        <time>2022-08-10T07:26:20Z</time>
      </trkpt>
      <trkpt lat="47.13194" lon="6.0905">
        <ele>593.2</ele>
        <time>2022-08-10T07:26:21Z</time>
      </trkpt>
      <trkpt lat="47.13194" lon="6.0905">
        <ele>593.2</ele>
        <time>2022-08-10T07:26:22Z</time>
      </trkpt>
      <trkpt lat="47.13194" lon="6.0905">
        <ele>593.2</ele>
        <time>2022-08-10T07:26:23Z</time>
      </trkpt>
      <trkpt lat="47.13188" lon="6.09055">
        <ele>593.6</ele>
        <time>2022-08-10T07:26:24Z</time>
      </trkpt>
      <trkpt lat="47.13185" lon="6.09058">
        <ele>593.5</ele>
        <time>2022-08-10T07:26:25Z</time>
      </trkpt>
      <trkpt lat="47.13182" lon="6.09062">
        <ele>593.5</ele>
        <time>2022-08-10T07:26:26Z</time>
      </trkpt>
      <trkpt lat="47.13179" lon="6.09066">
        <ele>593.4</ele>
        <time>2022-08-10T07:26:27Z</time>
      </trkpt>
      <trkpt lat="47.13175" lon="6.0907">
        <ele>593.2</ele>
        <time>2022-08-10T07:26:28Z</time>
      </trkpt>
      <trkpt lat="47.13172" lon="6.09074">
        <ele>593.2</ele>
        <time>2022-08-10T07:26:29Z</time>
      </trkpt>
      <trkpt lat="47.13169" lon="6.09078">
        <ele>593</ele>
        <time>2022-08-10T07:26:30Z</time>
      </trkpt>
      <trkpt lat="47.13167" lon="6.09082">
        <ele>592.9</ele>
        <time>2022-08-10T07:26:31Z</time>
      </trkpt>
      <trkpt lat="47.13166" lon="6.09086">
        <ele>592.7</ele>
        <time>2022-08-10T07:26:32Z</time>
      </trkpt>
      <trkpt lat="47.13165" lon="6.09089">
        <ele>592.3</ele>
        <time>2022-08-10T07:26:33Z</time>
      </trkpt>
      <trkpt lat="47.13166" lon="6.09092">
        <ele>591.9</ele>
        <time>2022-08-10T07:26:34Z</time>
      </trkpt>
      <trkpt lat="47.13166" lon="6.09093">
        <ele>591.6</ele>
        <time>2022-08-10T07:26:35Z</time>
      </trkpt>
      <trkpt lat="47.13166" lon="6.09093">
        <ele>591.6</ele>
        <time>2022-08-10T07:26:36Z</time>
      </trkpt>
      <trkpt lat="47.13166" lon="6.09094">
        <ele>591.7</ele>
        <time>2022-08-10T07:26:37Z</time>
      </trkpt>
      <trkpt lat="47.13166" lon="6.09094">
        <ele>591.7</ele>
        <time>2022-08-10T07:26:38Z</time>
      </trkpt>
      <trkpt lat="47.13166" lon="6.09094">
        <ele>591.7</ele>
        <time>2022-08-10T07:26:39Z</time>
      </trkpt>
      <trkpt lat="47.13166" lon="6.09094">
        <ele>591.7</ele>
        <time>2022-08-10T07:26:40Z</time>
      </trkpt>
      <trkpt lat="47.13166" lon="6.09094">
        <ele>591.7</ele>
        <time>2022-08-10T07:26:41Z</time>
      </trkpt>
      <trkpt lat="47.13166" lon="6.09094">
        <ele>591.7</ele>
        <time>2022-08-10T07:26:42Z</time>
      </trkpt>
      <trkpt lat="47.13166" lon="6.09094">
        <ele>591.7</ele>
        <time>2022-08-10T07:26:43Z</time>
      </trkpt>
      <trkpt lat="47.13166" lon="6.09094">
        <ele>591.7</ele>
        <time>2022-08-10T07:26:44Z</time>
      </trkpt>
      <trkpt lat="47.13166" lon="6.09094">
        <ele>591.7</ele>
        <time>2022-08-10T07:26:45Z</time>
      </trkpt>
      <trkpt lat="47.13166" lon="6.09094">
        <ele>591.7</ele>
        <time>2022-08-10T07:26:46Z</time>
      </trkpt>
      <trkpt lat="47.13166" lon="6.09094">
        <ele>591.7</ele>
        <time>2022-08-10T07:26:47Z</time>
      </trkpt>
      <trkpt lat="47.13166" lon="6.09094">
        <ele>591.7</ele>
        <time>2022-08-10T07:26:48Z</time>
      </trkpt>
      <trkpt lat="47.13166" lon="6.09094">
        <ele>591.7</ele>
        <time>2022-08-10T07:26:49Z</time>
      </trkpt>
      <trkpt lat="47.13166" lon="6.09094">
        <ele>591.7</ele>
        <time>2022-08-10T07:26:50Z</time>
      </trkpt>
      <trkpt lat="47.13166" lon="6.09094">
        <ele>591.7</ele>
        <time>2022-08-10T07:26:51Z</time>
      </trkpt>
      <trkpt lat="47.13166" lon="6.09094">
        <ele>591.7</ele>
        <time>2022-08-10T07:26:52Z</time>
      </trkpt>
      <trkpt lat="47.13166" lon="6.09094">
        <ele>591.7</ele>
        <time>2022-08-10T07:26:53Z</time>
      </trkpt>
      <trkpt lat="47.13166" lon="6.09094">
        <ele>591.7</ele>
        <time>2022-08-10T07:26:54Z</time>
      </trkpt>
      <trkpt lat="47.13166" lon="6.09094">
        <ele>591.7</ele>
        <time>2022-08-10T07:26:55Z</time>
      </trkpt>
      <trkpt lat="47.13166" lon="6.09094">
        <ele>591.7</ele>
        <time>2022-08-10T07:26:56Z</time>
      </trkpt>
      <trkpt lat="47.13166" lon="6.09094">
        <ele>591.7</ele>
        <time>2022-08-10T07:26:57Z</time>
      </trkpt>
      <trkpt lat="47.13166" lon="6.09094">
        <ele>591.7</ele>
        <time>2022-08-10T07:26:58Z</time>
      </trkpt>
      <trkpt lat="47.13166" lon="6.09094">
        <ele>591.7</ele>
        <time>2022-08-10T07:26:59Z</time>
      </trkpt>
      <trkpt lat="47.13166" lon="6.09094">
        <ele>591.7</ele>
        <time>2022-08-10T07:27:00Z</time>
      </trkpt>
      <trkpt lat="47.13166" lon="6.09094">
        <ele>591.7</ele>
        <time>2022-08-10T07:27:01Z</time>
      </trkpt>
      <trkpt lat="47.13166" lon="6.09094">
        <ele>591.7</ele>
        <time>2022-08-10T07:27:02Z</time>
      </trkpt>
      <trkpt lat="47.13158" lon="6.09099">
        <ele>588.9</ele>
        <time>2022-08-10T07:27:03Z</time>
      </trkpt>
      <trkpt lat="47.13156" lon="6.091">
        <ele>589</ele>
        <time>2022-08-10T07:27:04Z</time>
      </trkpt>
      <trkpt lat="47.13153" lon="6.091">
        <ele>588.9</ele>
        <time>2022-08-10T07:27:05Z</time>
      </trkpt>
      <trkpt lat="47.13151" lon="6.09101">
        <ele>588.9</ele>
        <time>2022-08-10T07:27:06Z</time>
      </trkpt>
      <trkpt lat="47.13149" lon="6.09101">
        <ele>588.9</ele>
        <time>2022-08-10T07:27:07Z</time>
      </trkpt>
      <trkpt lat="47.13147" lon="6.09101">
        <ele>588.9</ele>
        <time>2022-08-10T07:27:08Z</time>
      </trkpt>
      <trkpt lat="47.13144" lon="6.09101">
        <ele>589</ele>
        <time>2022-08-10T07:27:09Z</time>
      </trkpt>
      <trkpt lat="47.13142" lon="6.09102">
        <ele>589.3</ele>
        <time>2022-08-10T07:27:10Z</time>
      </trkpt>
      <trkpt lat="47.1314" lon="6.09102">
        <ele>589.5</ele>
        <time>2022-08-10T07:27:11Z</time>
      </trkpt>
      <trkpt lat="47.13137" lon="6.09103">
        <ele>589.4</ele>
        <time>2022-08-10T07:27:12Z</time>
      </trkpt>
      <trkpt lat="47.13135" lon="6.09104">
        <ele>589.6</ele>
        <time>2022-08-10T07:27:13Z</time>
      </trkpt>
      <trkpt lat="47.13132" lon="6.09104">
        <ele>589.8</ele>
        <time>2022-08-10T07:27:14Z</time>
      </trkpt>
      <trkpt lat="47.13129" lon="6.09104">
        <ele>590.4</ele>
        <time>2022-08-10T07:27:15Z</time>
      </trkpt>
      <trkpt lat="47.13127" lon="6.09105">
        <ele>590.6</ele>
        <time>2022-08-10T07:27:16Z</time>
      </trkpt>
      <trkpt lat="47.13124" lon="6.09105">
        <ele>590.7</ele>
        <time>2022-08-10T07:27:17Z</time>
      </trkpt>
      <trkpt lat="47.13121" lon="6.09106">
        <ele>590.8</ele>
        <time>2022-08-10T07:27:18Z</time>
      </trkpt>
      <trkpt lat="47.13119" lon="6.09106">
        <ele>591</ele>
        <time>2022-08-10T07:27:19Z</time>
      </trkpt>
      <trkpt lat="47.13116" lon="6.09107">
        <ele>591</ele>
        <time>2022-08-10T07:27:20Z</time>
      </trkpt>
      <trkpt lat="47.13114" lon="6.09108">
        <ele>590.7</ele>
        <time>2022-08-10T07:27:21Z</time>
      </trkpt>
      <trkpt lat="47.13111" lon="6.09109">
        <ele>590.9</ele>
        <time>2022-08-10T07:27:22Z</time>
      </trkpt>
      <trkpt lat="47.13109" lon="6.0911">
        <ele>590.7</ele>
        <time>2022-08-10T07:27:23Z</time>
      </trkpt>
      <trkpt lat="47.13106" lon="6.09111">
        <ele>590.3</ele>
        <time>2022-08-10T07:27:24Z</time>
      </trkpt>
      <trkpt lat="47.13104" lon="6.09112">
        <ele>590.1</ele>
        <time>2022-08-10T07:27:25Z</time>
      </trkpt>
      <trkpt lat="47.13102" lon="6.09113">
        <ele>590.5</ele>
        <time>2022-08-10T07:27:26Z</time>
      </trkpt>
      <trkpt lat="47.13099" lon="6.09113">
        <ele>590.4</ele>
        <time>2022-08-10T07:27:27Z</time>
      </trkpt>
      <trkpt lat="47.13097" lon="6.09114">
        <ele>590.1</ele>
        <time>2022-08-10T07:27:28Z</time>
      </trkpt>
      <trkpt lat="47.13095" lon="6.09115">
        <ele>590.6</ele>
        <time>2022-08-10T07:27:29Z</time>
      </trkpt>
      <trkpt lat="47.13093" lon="6.09115">
        <ele>590.7</ele>
        <time>2022-08-10T07:27:30Z</time>
      </trkpt>
      <trkpt lat="47.1309" lon="6.09115">
        <ele>591.2</ele>
        <time>2022-08-10T07:27:31Z</time>
      </trkpt>
      <trkpt lat="47.13088" lon="6.09115">
        <ele>591</ele>
        <time>2022-08-10T07:27:32Z</time>
      </trkpt>
      <trkpt lat="47.13085" lon="6.09116">
        <ele>590.7</ele>
        <time>2022-08-10T07:27:33Z</time>
      </trkpt>
      <trkpt lat="47.13083" lon="6.09116">
        <ele>590.8</ele>
        <time>2022-08-10T07:27:34Z</time>
      </trkpt>
      <trkpt lat="47.1308" lon="6.09116">
        <ele>591</ele>
        <time>2022-08-10T07:27:35Z</time>
      </trkpt>
      <trkpt lat="47.13078" lon="6.09116">
        <ele>591.8</ele>
        <time>2022-08-10T07:27:36Z</time>
      </trkpt>
      <trkpt lat="47.13076" lon="6.09115">
        <ele>591.9</ele>
        <time>2022-08-10T07:27:37Z</time>
      </trkpt>
      <trkpt lat="47.13074" lon="6.09115">
        <ele>592.2</ele>
        <time>2022-08-10T07:27:38Z</time>
      </trkpt>
      <trkpt lat="47.13072" lon="6.09114">
        <ele>592.5</ele>
        <time>2022-08-10T07:27:39Z</time>
      </trkpt>
      <trkpt lat="47.1307" lon="6.09114">
        <ele>592.6</ele>
        <time>2022-08-10T07:27:40Z</time>
      </trkpt>
      <trkpt lat="47.13068" lon="6.09113">
        <ele>592.9</ele>
        <time>2022-08-10T07:27:41Z</time>
      </trkpt>
      <trkpt lat="47.13065" lon="6.09112">
        <ele>592.8</ele>
        <time>2022-08-10T07:27:42Z</time>
      </trkpt>
      <trkpt lat="47.13063" lon="6.09111">
        <ele>593.3</ele>
        <time>2022-08-10T07:27:43Z</time>
      </trkpt>
      <trkpt lat="47.1306" lon="6.0911">
        <ele>593.8</ele>
        <time>2022-08-10T07:27:44Z</time>
      </trkpt>
      <trkpt lat="47.13058" lon="6.09108">
        <ele>594.4</ele>
        <time>2022-08-10T07:27:45Z</time>
      </trkpt>
      <trkpt lat="47.13056" lon="6.09107">
        <ele>595.2</ele>
        <time>2022-08-10T07:27:46Z</time>
      </trkpt>
      <trkpt lat="47.13053" lon="6.09106">
        <ele>596.3</ele>
        <time>2022-08-10T07:27:47Z</time>
      </trkpt>
      <trkpt lat="47.13051" lon="6.09105">
        <ele>597.1</ele>
        <time>2022-08-10T07:27:48Z</time>
      </trkpt>
      <trkpt lat="47.13049" lon="6.09104">
        <ele>597.8</ele>
        <time>2022-08-10T07:27:49Z</time>
      </trkpt>
      <trkpt lat="47.13047" lon="6.09103">
        <ele>598.4</ele>
        <time>2022-08-10T07:27:50Z</time>
      </trkpt>
      <trkpt lat="47.13044" lon="6.09102">
        <ele>599.2</ele>
        <time>2022-08-10T07:27:51Z</time>
      </trkpt>
      <trkpt lat="47.13042" lon="6.091">
        <ele>600.3</ele>
        <time>2022-08-10T07:27:52Z</time>
      </trkpt>
      <trkpt lat="47.1304" lon="6.09098">
        <ele>600.8</ele>
        <time>2022-08-10T07:27:53Z</time>
      </trkpt>
      <trkpt lat="47.13038" lon="6.09095">
        <ele>601.7</ele>
        <time>2022-08-10T07:27:54Z</time>
      </trkpt>
      <trkpt lat="47.13036" lon="6.09093">
        <ele>602.5</ele>
        <time>2022-08-10T07:27:55Z</time>
      </trkpt>
      <trkpt lat="47.13033" lon="6.09091">
        <ele>602.6</ele>
        <time>2022-08-10T07:27:56Z</time>
      </trkpt>
      <trkpt lat="47.13031" lon="6.09089">
        <ele>603.1</ele>
        <time>2022-08-10T07:27:57Z</time>
      </trkpt>
      <trkpt lat="47.13029" lon="6.09087">
        <ele>603.6</ele>
        <time>2022-08-10T07:27:58Z</time>
      </trkpt>
      <trkpt lat="47.13027" lon="6.09085">
        <ele>603.6</ele>
        <time>2022-08-10T07:27:59Z</time>
      </trkpt>
      <trkpt lat="47.13025" lon="6.09083">
        <ele>604.2</ele>
        <time>2022-08-10T07:28:00Z</time>
      </trkpt>
      <trkpt lat="47.13023" lon="6.09081">
        <ele>604.5</ele>
        <time>2022-08-10T07:28:01Z</time>
      </trkpt>
      <trkpt lat="47.1302" lon="6.09079">
        <ele>604.7</ele>
        <time>2022-08-10T07:28:02Z</time>
      </trkpt>
      <trkpt lat="47.13018" lon="6.09078">
        <ele>604.9</ele>
        <time>2022-08-10T07:28:03Z</time>
      </trkpt>
      <trkpt lat="47.13015" lon="6.09076">
        <ele>605.1</ele>
        <time>2022-08-10T07:28:04Z</time>
      </trkpt>
      <trkpt lat="47.1301" lon="6.09075">
        <ele>605.4</ele>
        <time>2022-08-10T07:28:05Z</time>
      </trkpt>
      <trkpt lat="47.13006" lon="6.09073">
        <ele>605.7</ele>
        <time>2022-08-10T07:28:06Z</time>
      </trkpt>
      <trkpt lat="47.13003" lon="6.09072">
        <ele>605.6</ele>
        <time>2022-08-10T07:28:07Z</time>
      </trkpt>
      <trkpt lat="47.13" lon="6.09071">
        <ele>605.5</ele>
        <time>2022-08-10T07:28:08Z</time>
      </trkpt>
      <trkpt lat="47.12997" lon="6.09071">
        <ele>605.7</ele>
        <time>2022-08-10T07:28:09Z</time>
      </trkpt>
      <trkpt lat="47.12994" lon="6.0907">
        <ele>605.9</ele>
        <time>2022-08-10T07:28:10Z</time>
      </trkpt>
      <trkpt lat="47.1299" lon="6.09069">
        <ele>605.8</ele>
        <time>2022-08-10T07:28:11Z</time>
      </trkpt>
      <trkpt lat="47.12986" lon="6.09068">
        <ele>605.3</ele>
        <time>2022-08-10T07:28:12Z</time>
      </trkpt>
      <trkpt lat="47.12982" lon="6.09067">
        <ele>604.1</ele>
        <time>2022-08-10T07:28:13Z</time>
      </trkpt>
      <trkpt lat="47.12977" lon="6.09066">
        <ele>603.2</ele>
        <time>2022-08-10T07:28:14Z</time>
      </trkpt>
      <trkpt lat="47.12973" lon="6.09065">
        <ele>602.6</ele>
        <time>2022-08-10T07:28:15Z</time>
      </trkpt>
      <trkpt lat="47.12968" lon="6.09065">
        <ele>601.8</ele>
        <time>2022-08-10T07:28:16Z</time>
      </trkpt>
      <trkpt lat="47.12962" lon="6.09064">
        <ele>601.1</ele>
        <time>2022-08-10T07:28:17Z</time>
      </trkpt>
      <trkpt lat="47.12957" lon="6.09063">
        <ele>600.3</ele>
        <time>2022-08-10T07:28:18Z</time>
      </trkpt>
      <trkpt lat="47.12952" lon="6.09063">
        <ele>599.5</ele>
        <time>2022-08-10T07:28:19Z</time>
      </trkpt>
      <trkpt lat="47.12946" lon="6.09063">
        <ele>598.7</ele>
        <time>2022-08-10T07:28:20Z</time>
      </trkpt>
      <trkpt lat="47.12939" lon="6.09064">
        <ele>597.8</ele>
        <time>2022-08-10T07:28:21Z</time>
      </trkpt>
      <trkpt lat="47.12934" lon="6.09065">
        <ele>597.2</ele>
        <time>2022-08-10T07:28:22Z</time>
      </trkpt>
      <trkpt lat="47.12929" lon="6.09067">
        <ele>597</ele>
        <time>2022-08-10T07:28:23Z</time>
      </trkpt>
      <trkpt lat="47.12923" lon="6.0907">
        <ele>596.3</ele>
        <time>2022-08-10T07:28:24Z</time>
      </trkpt>
      <trkpt lat="47.12917" lon="6.09073">
        <ele>595.8</ele>
        <time>2022-08-10T07:28:25Z</time>
      </trkpt>
      <trkpt lat="47.12911" lon="6.09076">
        <ele>595.7</ele>
        <time>2022-08-10T07:28:26Z</time>
      </trkpt>
      <trkpt lat="47.12905" lon="6.09079">
        <ele>595.1</ele>
        <time>2022-08-10T07:28:27Z</time>
      </trkpt>
      <trkpt lat="47.12899" lon="6.09083">
        <ele>594.6</ele>
        <time>2022-08-10T07:28:28Z</time>
      </trkpt>
      <trkpt lat="47.12893" lon="6.09087">
        <ele>593.9</ele>
        <time>2022-08-10T07:28:29Z</time>
      </trkpt>
      <trkpt lat="47.12887" lon="6.0909">
        <ele>593.1</ele>
        <time>2022-08-10T07:28:30Z</time>
      </trkpt>
      <trkpt lat="47.12882" lon="6.09093">
        <ele>592.6</ele>
        <time>2022-08-10T07:28:31Z</time>
      </trkpt>
      <trkpt lat="47.12876" lon="6.09096">
        <ele>592.5</ele>
        <time>2022-08-10T07:28:32Z</time>
      </trkpt>
      <trkpt lat="47.1287" lon="6.09099">
        <ele>591.7</ele>
        <time>2022-08-10T07:28:33Z</time>
      </trkpt>
      <trkpt lat="47.12864" lon="6.09101">
        <ele>591</ele>
        <time>2022-08-10T07:28:34Z</time>
      </trkpt>
      <trkpt lat="47.12858" lon="6.09102">
        <ele>590.3</ele>
        <time>2022-08-10T07:28:35Z</time>
      </trkpt>
      <trkpt lat="47.12851" lon="6.09104">
        <ele>588</ele>
        <time>2022-08-10T07:28:36Z</time>
      </trkpt>
      <trkpt lat="47.12844" lon="6.09106">
        <ele>586.7</ele>
        <time>2022-08-10T07:28:37Z</time>
      </trkpt>
      <trkpt lat="47.12836" lon="6.09108">
        <ele>585.2</ele>
        <time>2022-08-10T07:28:38Z</time>
      </trkpt>
      <trkpt lat="47.12829" lon="6.0911">
        <ele>583.8</ele>
        <time>2022-08-10T07:28:39Z</time>
      </trkpt>
      <trkpt lat="47.12821" lon="6.09112">
        <ele>582.6</ele>
        <time>2022-08-10T07:28:40Z</time>
      </trkpt>
      <trkpt lat="47.12812" lon="6.09113">
        <ele>581.8</ele>
        <time>2022-08-10T07:28:41Z</time>
      </trkpt>
      <trkpt lat="47.12803" lon="6.09114">
        <ele>581.2</ele>
        <time>2022-08-10T07:28:42Z</time>
      </trkpt>
      <trkpt lat="47.12795" lon="6.09115">
        <ele>580.9</ele>
        <time>2022-08-10T07:28:43Z</time>
      </trkpt>
      <trkpt lat="47.12786" lon="6.09116">
        <ele>580.7</ele>
        <time>2022-08-10T07:28:44Z</time>
      </trkpt>
      <trkpt lat="47.12777" lon="6.09116">
        <ele>580.6</ele>
        <time>2022-08-10T07:28:45Z</time>
      </trkpt>
      <trkpt lat="47.12767" lon="6.09116">
        <ele>580</ele>
        <time>2022-08-10T07:28:46Z</time>
      </trkpt>
      <trkpt lat="47.12758" lon="6.09116">
        <ele>579.5</ele>
        <time>2022-08-10T07:28:47Z</time>
      </trkpt>
      <trkpt lat="47.12748" lon="6.09116">
        <ele>579.1</ele>
        <time>2022-08-10T07:28:48Z</time>
      </trkpt>
      <trkpt lat="47.12739" lon="6.09114">
        <ele>578.7</ele>
        <time>2022-08-10T07:28:49Z</time>
      </trkpt>
      <trkpt lat="47.12729" lon="6.09112">
        <ele>578.7</ele>
        <time>2022-08-10T07:28:50Z</time>
      </trkpt>
      <trkpt lat="47.1272" lon="6.09111">
        <ele>578.5</ele>
        <time>2022-08-10T07:28:51Z</time>
      </trkpt>
      <trkpt lat="47.12711" lon="6.09113">
        <ele>578.5</ele>
        <time>2022-08-10T07:28:52Z</time>
      </trkpt>
      <trkpt lat="47.12702" lon="6.09117">
        <ele>578.3</ele>
        <time>2022-08-10T07:28:53Z</time>
      </trkpt>
      <trkpt lat="47.12693" lon="6.09123">
        <ele>577.9</ele>
        <time>2022-08-10T07:28:54Z</time>
      </trkpt>
      <trkpt lat="47.12684" lon="6.09129">
        <ele>577.6</ele>
        <time>2022-08-10T07:28:55Z</time>
      </trkpt>
      <trkpt lat="47.12675" lon="6.09133">
        <ele>577.1</ele>
        <time>2022-08-10T07:28:56Z</time>
      </trkpt>
      <trkpt lat="47.12666" lon="6.09135">
        <ele>577</ele>
        <time>2022-08-10T07:28:57Z</time>
      </trkpt>
      <trkpt lat="47.12658" lon="6.09137">
        <ele>576.7</ele>
        <time>2022-08-10T07:28:58Z</time>
      </trkpt>
      <trkpt lat="47.1265" lon="6.09137">
        <ele>576.4</ele>
        <time>2022-08-10T07:28:59Z</time>
      </trkpt>
      <trkpt lat="47.12642" lon="6.09136">
        <ele>575.9</ele>
        <time>2022-08-10T07:29:00Z</time>
      </trkpt>
      <trkpt lat="47.12635" lon="6.09133">
        <ele>575.6</ele>
        <time>2022-08-10T07:29:01Z</time>
      </trkpt>
      <trkpt lat="47.12628" lon="6.09128">
        <ele>575</ele>
        <time>2022-08-10T07:29:02Z</time>
      </trkpt>
      <trkpt lat="47.12621" lon="6.09122">
        <ele>574.4</ele>
        <time>2022-08-10T07:29:03Z</time>
      </trkpt>
      <trkpt lat="47.12615" lon="6.09117">
        <ele>574.2</ele>
        <time>2022-08-10T07:29:04Z</time>
      </trkpt>
      <trkpt lat="47.12608" lon="6.09111">
        <ele>574.2</ele>
        <time>2022-08-10T07:29:05Z</time>
      </trkpt>
      <trkpt lat="47.12603" lon="6.09105">
        <ele>574.4</ele>
        <time>2022-08-10T07:29:06Z</time>
      </trkpt>
      <trkpt lat="47.12597" lon="6.09099">
        <ele>574.5</ele>
        <time>2022-08-10T07:29:07Z</time>
      </trkpt>
      <trkpt lat="47.12592" lon="6.09092">
        <ele>575</ele>
        <time>2022-08-10T07:29:08Z</time>
      </trkpt>
      <trkpt lat="47.12587" lon="6.09085">
        <ele>575</ele>
        <time>2022-08-10T07:29:09Z</time>
      </trkpt>
      <trkpt lat="47.12582" lon="6.09078">
        <ele>575</ele>
        <time>2022-08-10T07:29:10Z</time>
      </trkpt>
      <trkpt lat="47.12578" lon="6.09071">
        <ele>575</ele>
        <time>2022-08-10T07:29:11Z</time>
      </trkpt>
      <trkpt lat="47.12573" lon="6.09064">
        <ele>574.8</ele>
        <time>2022-08-10T07:29:12Z</time>
      </trkpt>
      <trkpt lat="47.12568" lon="6.09058">
        <ele>574.6</ele>
        <time>2022-08-10T07:29:13Z</time>
      </trkpt>
      <trkpt lat="47.12563" lon="6.0905">
        <ele>574.6</ele>
        <time>2022-08-10T07:29:14Z</time>
      </trkpt>
      <trkpt lat="47.12558" lon="6.09043">
        <ele>574.5</ele>
        <time>2022-08-10T07:29:15Z</time>
      </trkpt>
      <trkpt lat="47.12553" lon="6.09036">
        <ele>574</ele>
        <time>2022-08-10T07:29:16Z</time>
      </trkpt>
      <trkpt lat="47.12549" lon="6.09028">
        <ele>573.5</ele>
        <time>2022-08-10T07:29:17Z</time>
      </trkpt>
      <trkpt lat="47.12544" lon="6.0902">
        <ele>573.5</ele>
        <time>2022-08-10T07:29:18Z</time>
      </trkpt>
      <trkpt lat="47.1254" lon="6.09013">
        <ele>573.3</ele>
        <time>2022-08-10T07:29:19Z</time>
      </trkpt>
      <trkpt lat="47.12535" lon="6.09006">
        <ele>573.3</ele>
        <time>2022-08-10T07:29:20Z</time>
      </trkpt>
      <trkpt lat="47.12531" lon="6.08999">
        <ele>572.9</ele>
        <time>2022-08-10T07:29:21Z</time>
      </trkpt>
      <trkpt lat="47.12527" lon="6.08991">
        <ele>572.7</ele>
        <time>2022-08-10T07:29:22Z</time>
      </trkpt>
      <trkpt lat="47.12522" lon="6.08985">
        <ele>572.1</ele>
        <time>2022-08-10T07:29:23Z</time>
      </trkpt>
      <trkpt lat="47.12517" lon="6.08978">
        <ele>572</ele>
        <time>2022-08-10T07:29:24Z</time>
      </trkpt>
      <trkpt lat="47.12513" lon="6.08971">
        <ele>571.8</ele>
        <time>2022-08-10T07:29:25Z</time>
      </trkpt>
      <trkpt lat="47.12509" lon="6.08964">
        <ele>571.7</ele>
        <time>2022-08-10T07:29:26Z</time>
      </trkpt>
      <trkpt lat="47.12505" lon="6.08958">
        <ele>571.5</ele>
        <time>2022-08-10T07:29:27Z</time>
      </trkpt>
      <trkpt lat="47.12501" lon="6.08952">
        <ele>571.5</ele>
        <time>2022-08-10T07:29:28Z</time>
      </trkpt>
      <trkpt lat="47.12496" lon="6.08945">
        <ele>571.6</ele>
        <time>2022-08-10T07:29:29Z</time>
      </trkpt>
      <trkpt lat="47.12492" lon="6.08939">
        <ele>571.8</ele>
        <time>2022-08-10T07:29:30Z</time>
      </trkpt>
      <trkpt lat="47.12488" lon="6.08933">
        <ele>571.8</ele>
        <time>2022-08-10T07:29:31Z</time>
      </trkpt>
      <trkpt lat="47.12484" lon="6.08928">
        <ele>571.8</ele>
        <time>2022-08-10T07:29:32Z</time>
      </trkpt>
      <trkpt lat="47.1248" lon="6.08922">
        <ele>571.7</ele>
        <time>2022-08-10T07:29:33Z</time>
      </trkpt>
      <trkpt lat="47.12476" lon="6.08916">
        <ele>571.8</ele>
        <time>2022-08-10T07:29:34Z</time>
      </trkpt>
      <trkpt lat="47.12473" lon="6.08912">
        <ele>571.6</ele>
        <time>2022-08-10T07:29:35Z</time>
      </trkpt>
      <trkpt lat="47.12469" lon="6.08908">
        <ele>571.5</ele>
        <time>2022-08-10T07:29:36Z</time>
      </trkpt>
      <trkpt lat="47.12465" lon="6.08904">
        <ele>571.6</ele>
        <time>2022-08-10T07:29:37Z</time>
      </trkpt>
      <trkpt lat="47.12462" lon="6.08901">
        <ele>571.5</ele>
        <time>2022-08-10T07:29:38Z</time>
      </trkpt>
      <trkpt lat="47.12459" lon="6.08898">
        <ele>571.7</ele>
        <time>2022-08-10T07:29:39Z</time>
      </trkpt>
      <trkpt lat="47.12457" lon="6.08896">
        <ele>571.8</ele>
        <time>2022-08-10T07:29:40Z</time>
      </trkpt>
      <trkpt lat="47.12455" lon="6.08895">
        <ele>572.1</ele>
        <time>2022-08-10T07:29:41Z</time>
      </trkpt>
      <trkpt lat="47.12454" lon="6.08894">
        <ele>572.1</ele>
        <time>2022-08-10T07:29:42Z</time>
      </trkpt>
      <trkpt lat="47.12453" lon="6.08895">
        <ele>572.2</ele>
        <time>2022-08-10T07:29:43Z</time>
      </trkpt>
      <trkpt lat="47.12453" lon="6.08897">
        <ele>572.3</ele>
        <time>2022-08-10T07:29:44Z</time>
      </trkpt>
      <trkpt lat="47.12454" lon="6.089">
        <ele>572.2</ele>
        <time>2022-08-10T07:29:45Z</time>
      </trkpt>
      <trkpt lat="47.12456" lon="6.08902">
        <ele>572.4</ele>
        <time>2022-08-10T07:29:46Z</time>
      </trkpt>
      <trkpt lat="47.12458" lon="6.08905">
        <ele>572.6</ele>
        <time>2022-08-10T07:29:47Z</time>
      </trkpt>
      <trkpt lat="47.12461" lon="6.08909">
        <ele>572.8</ele>
        <time>2022-08-10T07:29:48Z</time>
      </trkpt>
      <trkpt lat="47.12465" lon="6.08912">
        <ele>572.8</ele>
        <time>2022-08-10T07:29:49Z</time>
      </trkpt>
      <trkpt lat="47.12469" lon="6.08917">
        <ele>572.7</ele>
        <time>2022-08-10T07:29:50Z</time>
      </trkpt>
      <trkpt lat="47.12474" lon="6.08921">
        <ele>572.5</ele>
        <time>2022-08-10T07:29:51Z</time>
      </trkpt>
      <trkpt lat="47.12477" lon="6.08926">
        <ele>572.3</ele>
        <time>2022-08-10T07:29:52Z</time>
      </trkpt>
      <trkpt lat="47.1248" lon="6.08931">
        <ele>572.2</ele>
        <time>2022-08-10T07:29:53Z</time>
      </trkpt>
      <trkpt lat="47.12484" lon="6.08936">
        <ele>572.1</ele>
        <time>2022-08-10T07:29:54Z</time>
      </trkpt>
      <trkpt lat="47.12487" lon="6.08941">
        <ele>571.7</ele>
        <time>2022-08-10T07:29:55Z</time>
      </trkpt>
      <trkpt lat="47.12491" lon="6.08946">
        <ele>571.4</ele>
        <time>2022-08-10T07:29:56Z</time>
      </trkpt>
      <trkpt lat="47.12494" lon="6.08951">
        <ele>571.2</ele>
        <time>2022-08-10T07:29:57Z</time>
      </trkpt>
      <trkpt lat="47.12497" lon="6.08956">
        <ele>570.8</ele>
        <time>2022-08-10T07:29:58Z</time>
      </trkpt>
      <trkpt lat="47.12501" lon="6.08961">
        <ele>570.4</ele>
        <time>2022-08-10T07:29:59Z</time>
      </trkpt>
      <trkpt lat="47.12504" lon="6.08966">
        <ele>570.3</ele>
        <time>2022-08-10T07:30:00Z</time>
      </trkpt>
      <trkpt lat="47.12507" lon="6.08971">
        <ele>570.1</ele>
        <time>2022-08-10T07:30:01Z</time>
      </trkpt>
      <trkpt lat="47.1251" lon="6.08976">
        <ele>570.2</ele>
        <time>2022-08-10T07:30:02Z</time>
      </trkpt>
      <trkpt lat="47.12513" lon="6.08981">
        <ele>570.3</ele>
        <time>2022-08-10T07:30:03Z</time>
      </trkpt>
      <trkpt lat="47.12517" lon="6.08986">
        <ele>570.3</ele>
        <time>2022-08-10T07:30:04Z</time>
      </trkpt>
      <trkpt lat="47.1252" lon="6.08991">
        <ele>570.1</ele>
        <time>2022-08-10T07:30:05Z</time>
      </trkpt>
      <trkpt lat="47.12523" lon="6.08996">
        <ele>570.7</ele>
        <time>2022-08-10T07:30:06Z</time>
      </trkpt>
      <trkpt lat="47.12526" lon="6.09">
        <ele>570.9</ele>
        <time>2022-08-10T07:30:07Z</time>
      </trkpt>
      <trkpt lat="47.12528" lon="6.09004">
        <ele>571.4</ele>
        <time>2022-08-10T07:30:08Z</time>
      </trkpt>
      <trkpt lat="47.12531" lon="6.09009">
        <ele>571.9</ele>
        <time>2022-08-10T07:30:09Z</time>
      </trkpt>
      <trkpt lat="47.12534" lon="6.09013">
        <ele>572.1</ele>
        <time>2022-08-10T07:30:10Z</time>
      </trkpt>
      <trkpt lat="47.12536" lon="6.09016">
        <ele>572.7</ele>
        <time>2022-08-10T07:30:11Z</time>
      </trkpt>
      <trkpt lat="47.12539" lon="6.09021">
        <ele>572.6</ele>
        <time>2022-08-10T07:30:12Z</time>
      </trkpt>
      <trkpt lat="47.12542" lon="6.09025">
        <ele>572.6</ele>
        <time>2022-08-10T07:30:13Z</time>
      </trkpt>
      <trkpt lat="47.12544" lon="6.09029">
        <ele>572.5</ele>
        <time>2022-08-10T07:30:14Z</time>
      </trkpt>
      <trkpt lat="47.12547" lon="6.09033">
        <ele>572.6</ele>
        <time>2022-08-10T07:30:15Z</time>
      </trkpt>
      <trkpt lat="47.1255" lon="6.09037">
        <ele>573.1</ele>
        <time>2022-08-10T07:30:16Z</time>
      </trkpt>
      <trkpt lat="47.12553" lon="6.09041">
        <ele>573.4</ele>
        <time>2022-08-10T07:30:17Z</time>
      </trkpt>
      <trkpt lat="47.12555" lon="6.09045">
        <ele>573.8</ele>
        <time>2022-08-10T07:30:18Z</time>
      </trkpt>
      <trkpt lat="47.12558" lon="6.09049">
        <ele>574.4</ele>
        <time>2022-08-10T07:30:19Z</time>
      </trkpt>
      <trkpt lat="47.1256" lon="6.09054">
        <ele>574.8</ele>
        <time>2022-08-10T07:30:20Z</time>
      </trkpt>
      <trkpt lat="47.12563" lon="6.09059">
        <ele>574.9</ele>
        <time>2022-08-10T07:30:21Z</time>
      </trkpt>
      <trkpt lat="47.12566" lon="6.09063">
        <ele>575.1</ele>
        <time>2022-08-10T07:30:22Z</time>
      </trkpt>
      <trkpt lat="47.12569" lon="6.09068">
        <ele>574.9</ele>
        <time>2022-08-10T07:30:23Z</time>
      </trkpt>
      <trkpt lat="47.12572" lon="6.09072">
        <ele>574.8</ele>
        <time>2022-08-10T07:30:24Z</time>
      </trkpt>
      <trkpt lat="47.12575" lon="6.09077">
        <ele>574.4</ele>
        <time>2022-08-10T07:30:25Z</time>
      </trkpt>
      <trkpt lat="47.12578" lon="6.09081">
        <ele>574.3</ele>
        <time>2022-08-10T07:30:26Z</time>
      </trkpt>
      <trkpt lat="47.12581" lon="6.09085">
        <ele>574.2</ele>
        <time>2022-08-10T07:30:27Z</time>
      </trkpt>
      <trkpt lat="47.12584" lon="6.09089">
        <ele>574</ele>
        <time>2022-08-10T07:30:28Z</time>
      </trkpt>
      <trkpt lat="47.12587" lon="6.09094">
        <ele>574.2</ele>
        <time>2022-08-10T07:30:29Z</time>
      </trkpt>
      <trkpt lat="47.1259" lon="6.09098">
        <ele>574.2</ele>
        <time>2022-08-10T07:30:30Z</time>
      </trkpt>
      <trkpt lat="47.12593" lon="6.09102">
        <ele>574.7</ele>
        <time>2022-08-10T07:30:31Z</time>
      </trkpt>
      <trkpt lat="47.12596" lon="6.09105">
        <ele>574.6</ele>
        <time>2022-08-10T07:30:32Z</time>
      </trkpt>
      <trkpt lat="47.12599" lon="6.09109">
        <ele>574.8</ele>
        <time>2022-08-10T07:30:33Z</time>
      </trkpt>
      <trkpt lat="47.12603" lon="6.09112">
        <ele>575</ele>
        <time>2022-08-10T07:30:34Z</time>
      </trkpt>
      <trkpt lat="47.12606" lon="6.09115">
        <ele>575.1</ele>
        <time>2022-08-10T07:30:35Z</time>
      </trkpt>
      <trkpt lat="47.1261" lon="6.09118">
        <ele>575.8</ele>
        <time>2022-08-10T07:30:36Z</time>
      </trkpt>
      <trkpt lat="47.12614" lon="6.09121">
        <ele>575.6</ele>
        <time>2022-08-10T07:30:37Z</time>
      </trkpt>
      <trkpt lat="47.12618" lon="6.09124">
        <ele>575.6</ele>
        <time>2022-08-10T07:30:38Z</time>
      </trkpt>
      <trkpt lat="47.12622" lon="6.09127">
        <ele>575.8</ele>
        <time>2022-08-10T07:30:39Z</time>
      </trkpt>
      <trkpt lat="47.12626" lon="6.0913">
        <ele>576.1</ele>
        <time>2022-08-10T07:30:40Z</time>
      </trkpt>
      <trkpt lat="47.1263" lon="6.09132">
        <ele>577</ele>
        <time>2022-08-10T07:30:41Z</time>
      </trkpt>
      <trkpt lat="47.12634" lon="6.09135">
        <ele>577.2</ele>
        <time>2022-08-10T07:30:42Z</time>
      </trkpt>
      <trkpt lat="47.12638" lon="6.09138">
        <ele>577.6</ele>
        <time>2022-08-10T07:30:43Z</time>
      </trkpt>
      <trkpt lat="47.12642" lon="6.09141">
        <ele>577.9</ele>
        <time>2022-08-10T07:30:44Z</time>
      </trkpt>
      <trkpt lat="47.12646" lon="6.09144">
        <ele>577.7</ele>
        <time>2022-08-10T07:30:45Z</time>
      </trkpt>
      <trkpt lat="47.12649" lon="6.09147">
        <ele>577.7</ele>
        <time>2022-08-10T07:30:46Z</time>
      </trkpt>
      <trkpt lat="47.12653" lon="6.0915">
        <ele>577.6</ele>
        <time>2022-08-10T07:30:47Z</time>
      </trkpt>
      <trkpt lat="47.12657" lon="6.09153">
        <ele>578.2</ele>
        <time>2022-08-10T07:30:48Z</time>
      </trkpt>
      <trkpt lat="47.12661" lon="6.09156">
        <ele>578.8</ele>
        <time>2022-08-10T07:30:49Z</time>
      </trkpt>
      <trkpt lat="47.12665" lon="6.0916">
        <ele>579.6</ele>
        <time>2022-08-10T07:30:50Z</time>
      </trkpt>
      <trkpt lat="47.12668" lon="6.09163">
        <ele>579.9</ele>
        <time>2022-08-10T07:30:51Z</time>
      </trkpt>
      <trkpt lat="47.12672" lon="6.09166">
        <ele>580.2</ele>
        <time>2022-08-10T07:30:52Z</time>
      </trkpt>
      <trkpt lat="47.12675" lon="6.09169">
        <ele>580.2</ele>
        <time>2022-08-10T07:30:53Z</time>
      </trkpt>
      <trkpt lat="47.12679" lon="6.09173">
        <ele>580.3</ele>
        <time>2022-08-10T07:30:54Z</time>
      </trkpt>
      <trkpt lat="47.12682" lon="6.09176">
        <ele>580.8</ele>
        <time>2022-08-10T07:30:55Z</time>
      </trkpt>
      <trkpt lat="47.12686" lon="6.09179">
        <ele>581.4</ele>
        <time>2022-08-10T07:30:56Z</time>
      </trkpt>
      <trkpt lat="47.12689" lon="6.09182">
        <ele>581.2</ele>
        <time>2022-08-10T07:30:57Z</time>
      </trkpt>
      <trkpt lat="47.12693" lon="6.09186">
        <ele>581</ele>
        <time>2022-08-10T07:30:58Z</time>
      </trkpt>
      <trkpt lat="47.12696" lon="6.0919">
        <ele>580.8</ele>
        <time>2022-08-10T07:30:59Z</time>
      </trkpt>
      <trkpt lat="47.127" lon="6.09194">
        <ele>580.9</ele>
        <time>2022-08-10T07:31:00Z</time>
      </trkpt>
      <trkpt lat="47.12703" lon="6.09198">
        <ele>581.2</ele>
        <time>2022-08-10T07:31:01Z</time>
      </trkpt>
      <trkpt lat="47.12707" lon="6.09202">
        <ele>581.5</ele>
        <time>2022-08-10T07:31:02Z</time>
      </trkpt>
      <trkpt lat="47.1271" lon="6.09206">
        <ele>581.8</ele>
        <time>2022-08-10T07:31:03Z</time>
      </trkpt>
      <trkpt lat="47.12714" lon="6.0921">
        <ele>581.9</ele>
        <time>2022-08-10T07:31:04Z</time>
      </trkpt>
      <trkpt lat="47.12717" lon="6.09214">
        <ele>582</ele>
        <time>2022-08-10T07:31:05Z</time>
      </trkpt>
      <trkpt lat="47.12721" lon="6.09218">
        <ele>581.5</ele>
        <time>2022-08-10T07:31:06Z</time>
      </trkpt>
      <trkpt lat="47.12724" lon="6.09222">
        <ele>581.1</ele>
        <time>2022-08-10T07:31:07Z</time>
      </trkpt>
      <trkpt lat="47.12728" lon="6.09227">
        <ele>581</ele>
        <time>2022-08-10T07:31:08Z</time>
      </trkpt>
      <trkpt lat="47.12731" lon="6.09231">
        <ele>581.2</ele>
        <time>2022-08-10T07:31:09Z</time>
      </trkpt>
      <trkpt lat="47.12734" lon="6.09236">
        <ele>580.6</ele>
        <time>2022-08-10T07:31:10Z</time>
      </trkpt>
      <trkpt lat="47.12738" lon="6.09242">
        <ele>580.2</ele>
        <time>2022-08-10T07:31:11Z</time>
      </trkpt>
      <trkpt lat="47.12741" lon="6.09248">
        <ele>580</ele>
        <time>2022-08-10T07:31:12Z</time>
      </trkpt>
      <trkpt lat="47.12744" lon="6.09254">
        <ele>579.7</ele>
        <time>2022-08-10T07:31:13Z</time>
      </trkpt>
      <trkpt lat="47.12747" lon="6.0926">
        <ele>579.5</ele>
        <time>2022-08-10T07:31:14Z</time>
      </trkpt>
      <trkpt lat="47.12751" lon="6.09266">
        <ele>579.2</ele>
        <time>2022-08-10T07:31:15Z</time>
      </trkpt>
      <trkpt lat="47.12754" lon="6.09272">
        <ele>579.1</ele>
        <time>2022-08-10T07:31:16Z</time>
      </trkpt>
      <trkpt lat="47.12757" lon="6.09278">
        <ele>579</ele>
        <time>2022-08-10T07:31:17Z</time>
      </trkpt>
      <trkpt lat="47.1276" lon="6.09284">
        <ele>579.4</ele>
        <time>2022-08-10T07:31:18Z</time>
      </trkpt>
      <trkpt lat="47.12764" lon="6.0929">
        <ele>580.1</ele>
        <time>2022-08-10T07:31:19Z</time>
      </trkpt>
      <trkpt lat="47.12766" lon="6.09296">
        <ele>580.9</ele>
        <time>2022-08-10T07:31:20Z</time>
      </trkpt>
      <trkpt lat="47.1277" lon="6.09302">
        <ele>581.6</ele>
        <time>2022-08-10T07:31:21Z</time>
      </trkpt>
      <trkpt lat="47.12773" lon="6.09308">
        <ele>582.3</ele>
        <time>2022-08-10T07:31:22Z</time>
      </trkpt>
      <trkpt lat="47.12775" lon="6.09313">
        <ele>583.3</ele>
        <time>2022-08-10T07:31:23Z</time>
      </trkpt>
      <trkpt lat="47.12778" lon="6.09319">
        <ele>583.8</ele>
        <time>2022-08-10T07:31:24Z</time>
      </trkpt>
      <trkpt lat="47.12781" lon="6.09324">
        <ele>584.5</ele>
        <time>2022-08-10T07:31:25Z</time>
      </trkpt>
      <trkpt lat="47.12783" lon="6.0933">
        <ele>585.4</ele>
        <time>2022-08-10T07:31:26Z</time>
      </trkpt>
      <trkpt lat="47.12786" lon="6.09335">
        <ele>586.4</ele>
        <time>2022-08-10T07:31:27Z</time>
      </trkpt>
      <trkpt lat="47.12788" lon="6.09341">
        <ele>586.8</ele>
        <time>2022-08-10T07:31:28Z</time>
      </trkpt>
      <trkpt lat="47.12791" lon="6.09347">
        <ele>587.4</ele>
        <time>2022-08-10T07:31:29Z</time>
      </trkpt>
      <trkpt lat="47.12793" lon="6.09352">
        <ele>587.9</ele>
        <time>2022-08-10T07:31:30Z</time>
      </trkpt>
      <trkpt lat="47.12796" lon="6.09358">
        <ele>588.4</ele>
        <time>2022-08-10T07:31:31Z</time>
      </trkpt>
      <trkpt lat="47.12798" lon="6.09364">
        <ele>588.9</ele>
        <time>2022-08-10T07:31:32Z</time>
      </trkpt>
      <trkpt lat="47.12801" lon="6.09369">
        <ele>589.9</ele>
        <time>2022-08-10T07:31:33Z</time>
      </trkpt>
      <trkpt lat="47.12804" lon="6.09374">
        <ele>590.5</ele>
        <time>2022-08-10T07:31:34Z</time>
      </trkpt>
      <trkpt lat="47.12806" lon="6.09379">
        <ele>591.3</ele>
        <time>2022-08-10T07:31:35Z</time>
      </trkpt>
      <trkpt lat="47.12809" lon="6.09385">
        <ele>592.4</ele>
        <time>2022-08-10T07:31:36Z</time>
      </trkpt>
      <trkpt lat="47.12812" lon="6.0939">
        <ele>593.1</ele>
        <time>2022-08-10T07:31:37Z</time>
      </trkpt>
      <trkpt lat="47.12814" lon="6.09397">
        <ele>593.6</ele>
        <time>2022-08-10T07:31:38Z</time>
      </trkpt>
      <trkpt lat="47.12817" lon="6.09403">
        <ele>594.3</ele>
        <time>2022-08-10T07:31:39Z</time>
      </trkpt>
      <trkpt lat="47.1282" lon="6.09409">
        <ele>594.5</ele>
        <time>2022-08-10T07:31:40Z</time>
      </trkpt>
      <trkpt lat="47.12822" lon="6.09414">
        <ele>594.9</ele>
        <time>2022-08-10T07:31:41Z</time>
      </trkpt>
      <trkpt lat="47.12825" lon="6.0942">
        <ele>595.3</ele>
        <time>2022-08-10T07:31:42Z</time>
      </trkpt>
      <trkpt lat="47.12828" lon="6.09425">
        <ele>595.6</ele>
        <time>2022-08-10T07:31:43Z</time>
      </trkpt>
      <trkpt lat="47.12831" lon="6.09432">
        <ele>595.4</ele>
        <time>2022-08-10T07:31:44Z</time>
      </trkpt>
      <trkpt lat="47.12833" lon="6.09438">
        <ele>595</ele>
        <time>2022-08-10T07:31:45Z</time>
      </trkpt>
      <trkpt lat="47.12836" lon="6.09443">
        <ele>595</ele>
        <time>2022-08-10T07:31:46Z</time>
      </trkpt>
      <trkpt lat="47.12838" lon="6.09448">
        <ele>594.8</ele>
        <time>2022-08-10T07:31:47Z</time>
      </trkpt>
      <trkpt lat="47.12841" lon="6.09453">
        <ele>594.8</ele>
        <time>2022-08-10T07:31:48Z</time>
      </trkpt>
      <trkpt lat="47.12843" lon="6.09458">
        <ele>594.6</ele>
        <time>2022-08-10T07:31:49Z</time>
      </trkpt>
      <trkpt lat="47.12845" lon="6.09463">
        <ele>594.7</ele>
        <time>2022-08-10T07:31:50Z</time>
      </trkpt>
      <trkpt lat="47.12847" lon="6.09468">
        <ele>594.2</ele>
        <time>2022-08-10T07:31:51Z</time>
      </trkpt>
      <trkpt lat="47.12849" lon="6.09473">
        <ele>594</ele>
        <time>2022-08-10T07:31:52Z</time>
      </trkpt>
      <trkpt lat="47.12851" lon="6.09479">
        <ele>593.6</ele>
        <time>2022-08-10T07:31:53Z</time>
      </trkpt>
      <trkpt lat="47.12854" lon="6.09486">
        <ele>593.2</ele>
        <time>2022-08-10T07:31:54Z</time>
      </trkpt>
      <trkpt lat="47.12857" lon="6.09492">
        <ele>593.2</ele>
        <time>2022-08-10T07:31:55Z</time>
      </trkpt>
      <trkpt lat="47.12859" lon="6.09499">
        <ele>592</ele>
        <time>2022-08-10T07:31:56Z</time>
      </trkpt>
      <trkpt lat="47.12861" lon="6.09506">
        <ele>591.6</ele>
        <time>2022-08-10T07:31:57Z</time>
      </trkpt>
      <trkpt lat="47.12864" lon="6.09513">
        <ele>591.1</ele>
        <time>2022-08-10T07:31:58Z</time>
      </trkpt>
      <trkpt lat="47.12867" lon="6.09521">
        <ele>589</ele>
        <time>2022-08-10T07:31:59Z</time>
      </trkpt>
      <trkpt lat="47.1287" lon="6.09529">
        <ele>587.9</ele>
        <time>2022-08-10T07:32:00Z</time>
      </trkpt>
      <trkpt lat="47.12872" lon="6.09537">
        <ele>586.9</ele>
        <time>2022-08-10T07:32:01Z</time>
      </trkpt>
      <trkpt lat="47.12874" lon="6.09545">
        <ele>586.2</ele>
        <time>2022-08-10T07:32:02Z</time>
      </trkpt>
      <trkpt lat="47.12876" lon="6.09554">
        <ele>585.2</ele>
        <time>2022-08-10T07:32:03Z</time>
      </trkpt>
      <trkpt lat="47.12879" lon="6.09563">
        <ele>584.2</ele>
        <time>2022-08-10T07:32:04Z</time>
      </trkpt>
      <trkpt lat="47.12881" lon="6.09572">
        <ele>583.7</ele>
        <time>2022-08-10T07:32:05Z</time>
      </trkpt>
      <trkpt lat="47.12884" lon="6.09581">
        <ele>583.1</ele>
        <time>2022-08-10T07:32:06Z</time>
      </trkpt>
      <trkpt lat="47.12887" lon="6.0959">
        <ele>582.2</ele>
        <time>2022-08-10T07:32:07Z</time>
      </trkpt>
      <trkpt lat="47.1289" lon="6.09599">
        <ele>581.7</ele>
        <time>2022-08-10T07:32:08Z</time>
      </trkpt>
      <trkpt lat="47.12894" lon="6.09609">
        <ele>581.1</ele>
        <time>2022-08-10T07:32:09Z</time>
      </trkpt>
      <trkpt lat="47.12897" lon="6.09618">
        <ele>580.6</ele>
        <time>2022-08-10T07:32:10Z</time>
      </trkpt>
      <trkpt lat="47.12901" lon="6.09628">
        <ele>580</ele>
        <time>2022-08-10T07:32:11Z</time>
      </trkpt>
      <trkpt lat="47.12905" lon="6.09637">
        <ele>579.7</ele>
        <time>2022-08-10T07:32:12Z</time>
      </trkpt>
      <trkpt lat="47.1291" lon="6.09646">
        <ele>579.1</ele>
        <time>2022-08-10T07:32:13Z</time>
      </trkpt>
      <trkpt lat="47.12914" lon="6.09655">
        <ele>578.6</ele>
        <time>2022-08-10T07:32:14Z</time>
      </trkpt>
      <trkpt lat="47.12919" lon="6.09665">
        <ele>578.2</ele>
        <time>2022-08-10T07:32:15Z</time>
      </trkpt>
      <trkpt lat="47.12924" lon="6.09674">
        <ele>577.5</ele>
        <time>2022-08-10T07:32:16Z</time>
      </trkpt>
      <trkpt lat="47.12929" lon="6.09684">
        <ele>577.1</ele>
        <time>2022-08-10T07:32:17Z</time>
      </trkpt>
      <trkpt lat="47.12933" lon="6.09694">
        <ele>576.2</ele>
        <time>2022-08-10T07:32:18Z</time>
      </trkpt>
      <trkpt lat="47.12938" lon="6.09704">
        <ele>575.5</ele>
        <time>2022-08-10T07:32:19Z</time>
      </trkpt>
      <trkpt lat="47.12943" lon="6.09715">
        <ele>574.8</ele>
        <time>2022-08-10T07:32:20Z</time>
      </trkpt>
      <trkpt lat="47.12948" lon="6.09725">
        <ele>574.1</ele>
        <time>2022-08-10T07:32:21Z</time>
      </trkpt>
      <trkpt lat="47.12953" lon="6.09736">
        <ele>573</ele>
        <time>2022-08-10T07:32:22Z</time>
      </trkpt>
      <trkpt lat="47.12958" lon="6.09747">
        <ele>572.2</ele>
        <time>2022-08-10T07:32:23Z</time>
      </trkpt>
      <trkpt lat="47.12963" lon="6.09757">
        <ele>571.6</ele>
        <time>2022-08-10T07:32:24Z</time>
      </trkpt>
      <trkpt lat="47.12968" lon="6.09767">
        <ele>571</ele>
        <time>2022-08-10T07:32:25Z</time>
      </trkpt>
      <trkpt lat="47.12974" lon="6.09777">
        <ele>570.3</ele>
        <time>2022-08-10T07:32:26Z</time>
      </trkpt>
      <trkpt lat="47.1298" lon="6.09787">
        <ele>569.9</ele>
        <time>2022-08-10T07:32:27Z</time>
      </trkpt>
      <trkpt lat="47.12987" lon="6.09796">
        <ele>569.5</ele>
        <time>2022-08-10T07:32:28Z</time>
      </trkpt>
      <trkpt lat="47.12994" lon="6.09806">
        <ele>568.9</ele>
        <time>2022-08-10T07:32:29Z</time>
      </trkpt>
      <trkpt lat="47.13" lon="6.09816">
        <ele>568.2</ele>
        <time>2022-08-10T07:32:30Z</time>
      </trkpt>
      <trkpt lat="47.13006" lon="6.09827">
        <ele>567.8</ele>
        <time>2022-08-10T07:32:31Z</time>
      </trkpt>
      <trkpt lat="47.13011" lon="6.09838">
        <ele>567.4</ele>
        <time>2022-08-10T07:32:32Z</time>
      </trkpt>
      <trkpt lat="47.13016" lon="6.09849">
        <ele>567.2</ele>
        <time>2022-08-10T07:32:33Z</time>
      </trkpt>
      <trkpt lat="47.13022" lon="6.09861">
        <ele>566.8</ele>
        <time>2022-08-10T07:32:34Z</time>
      </trkpt>
      <trkpt lat="47.13027" lon="6.09873">
        <ele>566.6</ele>
        <time>2022-08-10T07:32:35Z</time>
      </trkpt>
      <trkpt lat="47.13032" lon="6.09885">
        <ele>566.1</ele>
        <time>2022-08-10T07:32:36Z</time>
      </trkpt>
      <trkpt lat="47.13037" lon="6.09896">
        <ele>565.6</ele>
        <time>2022-08-10T07:32:37Z</time>
      </trkpt>
      <trkpt lat="47.13041" lon="6.09909">
        <ele>564.9</ele>
        <time>2022-08-10T07:32:38Z</time>
      </trkpt>
      <trkpt lat="47.13046" lon="6.09921">
        <ele>564.5</ele>
        <time>2022-08-10T07:32:39Z</time>
      </trkpt>
      <trkpt lat="47.13051" lon="6.09934">
        <ele>564.1</ele>
        <time>2022-08-10T07:32:40Z</time>
      </trkpt>
      <trkpt lat="47.13055" lon="6.09947">
        <ele>563.6</ele>
        <time>2022-08-10T07:32:41Z</time>
      </trkpt>
      <trkpt lat="47.13059" lon="6.0996">
        <ele>563</ele>
        <time>2022-08-10T07:32:42Z</time>
      </trkpt>
      <trkpt lat="47.13063" lon="6.09974">
        <ele>562.5</ele>
        <time>2022-08-10T07:32:43Z</time>
      </trkpt>
      <trkpt lat="47.13068" lon="6.09987">
        <ele>562.1</ele>
        <time>2022-08-10T07:32:44Z</time>
      </trkpt>
      <trkpt lat="47.13072" lon="6.10001">
        <ele>561.1</ele>
        <time>2022-08-10T07:32:45Z</time>
      </trkpt>
      <trkpt lat="47.13076" lon="6.10015">
        <ele>560.6</ele>
        <time>2022-08-10T07:32:46Z</time>
      </trkpt>
      <trkpt lat="47.1308" lon="6.10029">
        <ele>559.7</ele>
        <time>2022-08-10T07:32:47Z</time>
      </trkpt>
      <trkpt lat="47.13084" lon="6.10043">
        <ele>558.5</ele>
        <time>2022-08-10T07:32:48Z</time>
      </trkpt>
      <trkpt lat="47.13087" lon="6.10057">
        <ele>557.4</ele>
        <time>2022-08-10T07:32:49Z</time>
      </trkpt>
      <trkpt lat="47.13091" lon="6.10071">
        <ele>556.6</ele>
        <time>2022-08-10T07:32:50Z</time>
      </trkpt>
      <trkpt lat="47.13095" lon="6.10085">
        <ele>555.9</ele>
        <time>2022-08-10T07:32:51Z</time>
      </trkpt>
      <trkpt lat="47.13099" lon="6.10099">
        <ele>555.1</ele>
        <time>2022-08-10T07:32:52Z</time>
      </trkpt>
      <trkpt lat="47.13104" lon="6.10112">
        <ele>554</ele>
        <time>2022-08-10T07:32:53Z</time>
      </trkpt>
      <trkpt lat="47.13108" lon="6.10126">
        <ele>553.2</ele>
        <time>2022-08-10T07:32:54Z</time>
      </trkpt>
      <trkpt lat="47.13113" lon="6.1014">
        <ele>552.4</ele>
        <time>2022-08-10T07:32:55Z</time>
      </trkpt>
      <trkpt lat="47.13117" lon="6.10154">
        <ele>551.9</ele>
        <time>2022-08-10T07:32:56Z</time>
      </trkpt>
      <trkpt lat="47.13122" lon="6.10168">
        <ele>550.7</ele>
        <time>2022-08-10T07:32:57Z</time>
      </trkpt>
      <trkpt lat="47.13126" lon="6.10182">
        <ele>549.8</ele>
        <time>2022-08-10T07:32:58Z</time>
      </trkpt>
      <trkpt lat="47.13129" lon="6.10197">
        <ele>549.2</ele>
        <time>2022-08-10T07:32:59Z</time>
      </trkpt>
      <trkpt lat="47.13132" lon="6.10212">
        <ele>548.5</ele>
        <time>2022-08-10T07:33:00Z</time>
      </trkpt>
      <trkpt lat="47.13135" lon="6.10227">
        <ele>547.8</ele>
        <time>2022-08-10T07:33:01Z</time>
      </trkpt>
      <trkpt lat="47.13138" lon="6.10243">
        <ele>547</ele>
        <time>2022-08-10T07:33:02Z</time>
      </trkpt>
      <trkpt lat="47.13141" lon="6.10258">
        <ele>546.2</ele>
        <time>2022-08-10T07:33:03Z</time>
      </trkpt>
      <trkpt lat="47.13143" lon="6.10274">
        <ele>545.4</ele>
        <time>2022-08-10T07:33:04Z</time>
      </trkpt>
      <trkpt lat="47.13146" lon="6.10289">
        <ele>545.4</ele>
        <time>2022-08-10T07:33:05Z</time>
      </trkpt>
      <trkpt lat="47.13148" lon="6.10305">
        <ele>544.8</ele>
        <time>2022-08-10T07:33:06Z</time>
      </trkpt>
      <trkpt lat="47.1315" lon="6.10321">
        <ele>544.4</ele>
        <time>2022-08-10T07:33:07Z</time>
      </trkpt>
      <trkpt lat="47.13152" lon="6.10337">
        <ele>544.3</ele>
        <time>2022-08-10T07:33:08Z</time>
      </trkpt>
      <trkpt lat="47.13154" lon="6.10353">
        <ele>543.3</ele>
        <time>2022-08-10T07:33:09Z</time>
      </trkpt>
      <trkpt lat="47.13155" lon="6.1037">
        <ele>542.6</ele>
        <time>2022-08-10T07:33:10Z</time>
      </trkpt>
      <trkpt lat="47.13155" lon="6.10386">
        <ele>542</ele>
        <time>2022-08-10T07:33:11Z</time>
      </trkpt>
      <trkpt lat="47.13156" lon="6.10402">
        <ele>541.6</ele>
        <time>2022-08-10T07:33:12Z</time>
      </trkpt>
      <trkpt lat="47.13156" lon="6.10417">
        <ele>538.6</ele>
        <time>2022-08-10T07:33:13Z</time>
      </trkpt>
      <trkpt lat="47.13157" lon="6.10433">
        <ele>537.6</ele>
        <time>2022-08-10T07:33:14Z</time>
      </trkpt>
      <trkpt lat="47.13159" lon="6.10448">
        <ele>537</ele>
        <time>2022-08-10T07:33:15Z</time>
      </trkpt>
      <trkpt lat="47.13162" lon="6.10463">
        <ele>536.3</ele>
        <time>2022-08-10T07:33:16Z</time>
      </trkpt>
      <trkpt lat="47.13164" lon="6.10478">
        <ele>535.6</ele>
        <time>2022-08-10T07:33:17Z</time>
      </trkpt>
      <trkpt lat="47.13167" lon="6.10492">
        <ele>535</ele>
        <time>2022-08-10T07:33:18Z</time>
      </trkpt>
      <trkpt lat="47.1317" lon="6.10507">
        <ele>534.8</ele>
        <time>2022-08-10T07:33:19Z</time>
      </trkpt>
      <trkpt lat="47.13173" lon="6.10522">
        <ele>534.6</ele>
        <time>2022-08-10T07:33:20Z</time>
      </trkpt>
      <trkpt lat="47.13175" lon="6.10537">
        <ele>534.1</ele>
        <time>2022-08-10T07:33:21Z</time>
      </trkpt>
      <trkpt lat="47.13177" lon="6.10552">
        <ele>534.4</ele>
        <time>2022-08-10T07:33:22Z</time>
      </trkpt>
      <trkpt lat="47.13179" lon="6.10567">
        <ele>534.4</ele>
        <time>2022-08-10T07:33:23Z</time>
      </trkpt>
      <trkpt lat="47.13182" lon="6.10581">
        <ele>534.2</ele>
        <time>2022-08-10T07:33:24Z</time>
      </trkpt>
      <trkpt lat="47.13184" lon="6.10596">
        <ele>534</ele>
        <time>2022-08-10T07:33:25Z</time>
      </trkpt>
      <trkpt lat="47.13187" lon="6.1061">
        <ele>533.6</ele>
        <time>2022-08-10T07:33:26Z</time>
      </trkpt>
      <trkpt lat="47.1319" lon="6.10624">
        <ele>533.2</ele>
        <time>2022-08-10T07:33:27Z</time>
      </trkpt>
      <trkpt lat="47.13193" lon="6.10638">
        <ele>532.4</ele>
        <time>2022-08-10T07:33:28Z</time>
      </trkpt>
      <trkpt lat="47.13197" lon="6.10652">
        <ele>531.9</ele>
        <time>2022-08-10T07:33:29Z</time>
      </trkpt>
      <trkpt lat="47.13201" lon="6.10665">
        <ele>531.4</ele>
        <time>2022-08-10T07:33:30Z</time>
      </trkpt>
      <trkpt lat="47.13206" lon="6.10678">
        <ele>531</ele>
        <time>2022-08-10T07:33:31Z</time>
      </trkpt>
      <trkpt lat="47.1321" lon="6.10692">
        <ele>530.2</ele>
        <time>2022-08-10T07:33:32Z</time>
      </trkpt>
      <trkpt lat="47.13215" lon="6.10704">
        <ele>529.7</ele>
        <time>2022-08-10T07:33:33Z</time>
      </trkpt>
      <trkpt lat="47.1322" lon="6.10718">
        <ele>528.8</ele>
        <time>2022-08-10T07:33:34Z</time>
      </trkpt>
      <trkpt lat="47.13225" lon="6.10731">
        <ele>528.3</ele>
        <time>2022-08-10T07:33:35Z</time>
      </trkpt>
      <trkpt lat="47.13229" lon="6.10744">
        <ele>527.9</ele>
        <time>2022-08-10T07:33:36Z</time>
      </trkpt>
      <trkpt lat="47.13233" lon="6.10758">
        <ele>527.3</ele>
        <time>2022-08-10T07:33:37Z</time>
      </trkpt>
      <trkpt lat="47.13237" lon="6.10772">
        <ele>526.6</ele>
        <time>2022-08-10T07:33:38Z</time>
      </trkpt>
      <trkpt lat="47.13241" lon="6.10786">
        <ele>525.7</ele>
        <time>2022-08-10T07:33:39Z</time>
      </trkpt>
      <trkpt lat="47.13245" lon="6.10801">
        <ele>525.2</ele>
        <time>2022-08-10T07:33:40Z</time>
      </trkpt>
      <trkpt lat="47.13249" lon="6.10815">
        <ele>524.4</ele>
        <time>2022-08-10T07:33:41Z</time>
      </trkpt>
      <trkpt lat="47.13253" lon="6.10828">
        <ele>523.7</ele>
        <time>2022-08-10T07:33:42Z</time>
      </trkpt>
      <trkpt lat="47.13257" lon="6.10842">
        <ele>523</ele>
        <time>2022-08-10T07:33:43Z</time>
      </trkpt>
      <trkpt lat="47.13261" lon="6.10856">
        <ele>522.7</ele>
        <time>2022-08-10T07:33:44Z</time>
      </trkpt>
      <trkpt lat="47.13265" lon="6.1087">
        <ele>522.5</ele>
        <time>2022-08-10T07:33:45Z</time>
      </trkpt>
      <trkpt lat="47.13269" lon="6.10883">
        <ele>522.3</ele>
        <time>2022-08-10T07:33:46Z</time>
      </trkpt>
      <trkpt lat="47.13272" lon="6.10897">
        <ele>521.6</ele>
        <time>2022-08-10T07:33:47Z</time>
      </trkpt>
      <trkpt lat="47.13276" lon="6.10911">
        <ele>521.1</ele>
        <time>2022-08-10T07:33:48Z</time>
      </trkpt>
      <trkpt lat="47.13279" lon="6.10925">
        <ele>519.8</ele>
        <time>2022-08-10T07:33:49Z</time>
      </trkpt>
      <trkpt lat="47.13283" lon="6.10939">
        <ele>519.4</ele>
        <time>2022-08-10T07:33:50Z</time>
      </trkpt>
      <trkpt lat="47.13286" lon="6.10953">
        <ele>518.8</ele>
        <time>2022-08-10T07:33:51Z</time>
      </trkpt>
      <trkpt lat="47.13289" lon="6.10968">
        <ele>517.8</ele>
        <time>2022-08-10T07:33:52Z</time>
      </trkpt>
      <trkpt lat="47.13292" lon="6.10983">
        <ele>516.8</ele>
        <time>2022-08-10T07:33:53Z</time>
      </trkpt>
      <trkpt lat="47.13295" lon="6.10997">
        <ele>516</ele>
        <time>2022-08-10T07:33:54Z</time>
      </trkpt>
      <trkpt lat="47.13298" lon="6.11012">
        <ele>515.4</ele>
        <time>2022-08-10T07:33:55Z</time>
      </trkpt>
      <trkpt lat="47.13302" lon="6.11026">
        <ele>514.9</ele>
        <time>2022-08-10T07:33:56Z</time>
      </trkpt>
      <trkpt lat="47.13306" lon="6.11039">
        <ele>513.9</ele>
        <time>2022-08-10T07:33:57Z</time>
      </trkpt>
      <trkpt lat="47.1331" lon="6.11053">
        <ele>512.9</ele>
        <time>2022-08-10T07:33:58Z</time>
      </trkpt>
      <trkpt lat="47.13315" lon="6.11067">
        <ele>512.1</ele>
        <time>2022-08-10T07:33:59Z</time>
      </trkpt>
      <trkpt lat="47.13319" lon="6.11081">
        <ele>511.6</ele>
        <time>2022-08-10T07:34:00Z</time>
      </trkpt>
      <trkpt lat="47.13323" lon="6.11095">
        <ele>510.6</ele>
        <time>2022-08-10T07:34:01Z</time>
      </trkpt>
      <trkpt lat="47.13328" lon="6.11109">
        <ele>509.9</ele>
        <time>2022-08-10T07:34:02Z</time>
      </trkpt>
      <trkpt lat="47.13332" lon="6.11123">
        <ele>509.5</ele>
        <time>2022-08-10T07:34:03Z</time>
      </trkpt>
      <trkpt lat="47.13337" lon="6.11137">
        <ele>509.1</ele>
        <time>2022-08-10T07:34:04Z</time>
      </trkpt>
      <trkpt lat="47.13341" lon="6.11151">
        <ele>508.6</ele>
        <time>2022-08-10T07:34:05Z</time>
      </trkpt>
      <trkpt lat="47.13346" lon="6.11164">
        <ele>508</ele>
        <time>2022-08-10T07:34:06Z</time>
      </trkpt>
      <trkpt lat="47.13351" lon="6.11178">
        <ele>507.6</ele>
        <time>2022-08-10T07:34:07Z</time>
      </trkpt>
      <trkpt lat="47.13355" lon="6.11192">
        <ele>507.1</ele>
        <time>2022-08-10T07:34:08Z</time>
      </trkpt>
      <trkpt lat="47.1336" lon="6.11205">
        <ele>506.5</ele>
        <time>2022-08-10T07:34:09Z</time>
      </trkpt>
      <trkpt lat="47.13365" lon="6.11219">
        <ele>506.1</ele>
        <time>2022-08-10T07:34:10Z</time>
      </trkpt>
      <trkpt lat="47.1337" lon="6.11232">
        <ele>505.6</ele>
        <time>2022-08-10T07:34:11Z</time>
      </trkpt>
      <trkpt lat="47.13375" lon="6.11246">
        <ele>505.1</ele>
        <time>2022-08-10T07:34:12Z</time>
      </trkpt>
      <trkpt lat="47.1338" lon="6.1126">
        <ele>504.4</ele>
        <time>2022-08-10T07:34:13Z</time>
      </trkpt>
      <trkpt lat="47.13384" lon="6.11273">
        <ele>504.3</ele>
        <time>2022-08-10T07:34:14Z</time>
      </trkpt>
      <trkpt lat="47.13389" lon="6.11286">
        <ele>503.4</ele>
        <time>2022-08-10T07:34:15Z</time>
      </trkpt>
      <trkpt lat="47.13393" lon="6.11298">
        <ele>502.9</ele>
        <time>2022-08-10T07:34:16Z</time>
      </trkpt>
      <trkpt lat="47.13397" lon="6.1131">
        <ele>502.2</ele>
        <time>2022-08-10T07:34:17Z</time>
      </trkpt>
      <trkpt lat="47.13401" lon="6.1132">
        <ele>501.6</ele>
        <time>2022-08-10T07:34:18Z</time>
      </trkpt>
      <trkpt lat="47.13404" lon="6.11329">
        <ele>501</ele>
        <time>2022-08-10T07:34:19Z</time>
      </trkpt>
      <trkpt lat="47.13407" lon="6.11337">
        <ele>500.6</ele>
        <time>2022-08-10T07:34:20Z</time>
      </trkpt>
      <trkpt lat="47.13409" lon="6.11344">
        <ele>500.3</ele>
        <time>2022-08-10T07:34:21Z</time>
      </trkpt>
      <trkpt lat="47.13411" lon="6.11351">
        <ele>499.9</ele>
        <time>2022-08-10T07:34:22Z</time>
      </trkpt>
      <trkpt lat="47.13411" lon="6.11356">
        <ele>499.3</ele>
        <time>2022-08-10T07:34:23Z</time>
      </trkpt>
      <trkpt lat="47.13411" lon="6.11361">
        <ele>499</ele>
        <time>2022-08-10T07:34:24Z</time>
      </trkpt>
      <trkpt lat="47.13408" lon="6.11364">
        <ele>498.4</ele>
        <time>2022-08-10T07:34:25Z</time>
      </trkpt>
      <trkpt lat="47.13405" lon="6.11365">
        <ele>498</ele>
        <time>2022-08-10T07:34:26Z</time>
      </trkpt>
      <trkpt lat="47.13401" lon="6.11363">
        <ele>498.1</ele>
        <time>2022-08-10T07:34:27Z</time>
      </trkpt>
      <trkpt lat="47.13397" lon="6.1136">
        <ele>498.3</ele>
        <time>2022-08-10T07:34:28Z</time>
      </trkpt>
      <trkpt lat="47.13393" lon="6.11355">
        <ele>498.6</ele>
        <time>2022-08-10T07:34:29Z</time>
      </trkpt>
      <trkpt lat="47.13388" lon="6.1135">
        <ele>498.6</ele>
        <time>2022-08-10T07:34:30Z</time>
      </trkpt>
      <trkpt lat="47.13384" lon="6.11344">
        <ele>498.2</ele>
        <time>2022-08-10T07:34:31Z</time>
      </trkpt>
      <trkpt lat="47.13379" lon="6.11338">
        <ele>498.1</ele>
        <time>2022-08-10T07:34:32Z</time>
      </trkpt>
      <trkpt lat="47.13375" lon="6.11331">
        <ele>498</ele>
        <time>2022-08-10T07:34:33Z</time>
      </trkpt>
      <trkpt lat="47.1337" lon="6.11324">
        <ele>497.7</ele>
        <time>2022-08-10T07:34:34Z</time>
      </trkpt>
      <trkpt lat="47.13365" lon="6.11316">
        <ele>497.6</ele>
        <time>2022-08-10T07:34:35Z</time>
      </trkpt>
      <trkpt lat="47.13361" lon="6.11308">
        <ele>497.5</ele>
        <time>2022-08-10T07:34:36Z</time>
      </trkpt>
      <trkpt lat="47.13356" lon="6.113">
        <ele>497.2</ele>
        <time>2022-08-10T07:34:37Z</time>
      </trkpt>
      <trkpt lat="47.13351" lon="6.11292">
        <ele>497.1</ele>
        <time>2022-08-10T07:34:38Z</time>
      </trkpt>
      <trkpt lat="47.13346" lon="6.11284">
        <ele>497</ele>
        <time>2022-08-10T07:34:39Z</time>
      </trkpt>
      <trkpt lat="47.1334" lon="6.11278">
        <ele>496.9</ele>
        <time>2022-08-10T07:34:40Z</time>
      </trkpt>
      <trkpt lat="47.13334" lon="6.11272">
        <ele>496.6</ele>
        <time>2022-08-10T07:34:41Z</time>
      </trkpt>
      <trkpt lat="47.13327" lon="6.11268">
        <ele>496.1</ele>
        <time>2022-08-10T07:34:42Z</time>
      </trkpt>
      <trkpt lat="47.1332" lon="6.11266">
        <ele>495.8</ele>
        <time>2022-08-10T07:34:43Z</time>
      </trkpt>
      <trkpt lat="47.13312" lon="6.11266">
        <ele>495.4</ele>
        <time>2022-08-10T07:34:44Z</time>
      </trkpt>
      <trkpt lat="47.13304" lon="6.11267">
        <ele>495.1</ele>
        <time>2022-08-10T07:34:45Z</time>
      </trkpt>
      <trkpt lat="47.13297" lon="6.11271">
        <ele>494.6</ele>
        <time>2022-08-10T07:34:46Z</time>
      </trkpt>
      <trkpt lat="47.13289" lon="6.11277">
        <ele>494.7</ele>
        <time>2022-08-10T07:34:47Z</time>
      </trkpt>
      <trkpt lat="47.13283" lon="6.11285">
        <ele>494.9</ele>
        <time>2022-08-10T07:34:48Z</time>
      </trkpt>
      <trkpt lat="47.13278" lon="6.11295">
        <ele>494.7</ele>
        <time>2022-08-10T07:34:49Z</time>
      </trkpt>
      <trkpt lat="47.13275" lon="6.11306">
        <ele>494.6</ele>
        <time>2022-08-10T07:34:50Z</time>
      </trkpt>
      <trkpt lat="47.13273" lon="6.11318">
        <ele>494.4</ele>
        <time>2022-08-10T07:34:51Z</time>
      </trkpt>
      <trkpt lat="47.13272" lon="6.11331">
        <ele>493.8</ele>
        <time>2022-08-10T07:34:52Z</time>
      </trkpt>
      <trkpt lat="47.13271" lon="6.11344">
        <ele>493.2</ele>
        <time>2022-08-10T07:34:53Z</time>
      </trkpt>
      <trkpt lat="47.13271" lon="6.11356">
        <ele>492.5</ele>
        <time>2022-08-10T07:34:54Z</time>
      </trkpt>
      <trkpt lat="47.13272" lon="6.11368">
        <ele>492.2</ele>
        <time>2022-08-10T07:34:55Z</time>
      </trkpt>
      <trkpt lat="47.13272" lon="6.11378">
        <ele>491.5</ele>
        <time>2022-08-10T07:34:56Z</time>
      </trkpt>
      <trkpt lat="47.13273" lon="6.11387">
        <ele>491.4</ele>
        <time>2022-08-10T07:34:57Z</time>
      </trkpt>
      <trkpt lat="47.13273" lon="6.11395">
        <ele>490.8</ele>
        <time>2022-08-10T07:34:58Z</time>
      </trkpt>
      <trkpt lat="47.13273" lon="6.11403">
        <ele>490.5</ele>
        <time>2022-08-10T07:34:59Z</time>
      </trkpt>
      <trkpt lat="47.13273" lon="6.1141">
        <ele>490</ele>
        <time>2022-08-10T07:35:00Z</time>
      </trkpt>
      <trkpt lat="47.13274" lon="6.11417">
        <ele>490</ele>
        <time>2022-08-10T07:35:01Z</time>
      </trkpt>
      <trkpt lat="47.13274" lon="6.11423">
        <ele>490.1</ele>
        <time>2022-08-10T07:35:02Z</time>
      </trkpt>
      <trkpt lat="47.13272" lon="6.11428">
        <ele>490.5</ele>
        <time>2022-08-10T07:35:03Z</time>
      </trkpt>
      <trkpt lat="47.1327" lon="6.11433">
        <ele>490.4</ele>
        <time>2022-08-10T07:35:04Z</time>
      </trkpt>
      <trkpt lat="47.13266" lon="6.11439">
        <ele>490.4</ele>
        <time>2022-08-10T07:35:05Z</time>
      </trkpt>
      <trkpt lat="47.13263" lon="6.11444">
        <ele>490.5</ele>
        <time>2022-08-10T07:35:06Z</time>
      </trkpt>
      <trkpt lat="47.13259" lon="6.1145">
        <ele>490</ele>
        <time>2022-08-10T07:35:07Z</time>
      </trkpt>
      <trkpt lat="47.13255" lon="6.11456">
        <ele>489.6</ele>
        <time>2022-08-10T07:35:08Z</time>
      </trkpt>
      <trkpt lat="47.13252" lon="6.11461">
        <ele>489.5</ele>
        <time>2022-08-10T07:35:09Z</time>
      </trkpt>
      <trkpt lat="47.13246" lon="6.11466">
        <ele>489.3</ele>
        <time>2022-08-10T07:35:10Z</time>
      </trkpt>
      <trkpt lat="47.13242" lon="6.11471">
        <ele>489.5</ele>
        <time>2022-08-10T07:35:11Z</time>
      </trkpt>
      <trkpt lat="47.13237" lon="6.11476">
        <ele>489.8</ele>
        <time>2022-08-10T07:35:12Z</time>
      </trkpt>
      <trkpt lat="47.13234" lon="6.11481">
        <ele>490.5</ele>
        <time>2022-08-10T07:35:13Z</time>
      </trkpt>
      <trkpt lat="47.13231" lon="6.11486">
        <ele>490.9</ele>
        <time>2022-08-10T07:35:14Z</time>
      </trkpt>
      <trkpt lat="47.13228" lon="6.11491">
        <ele>491.5</ele>
        <time>2022-08-10T07:35:15Z</time>
      </trkpt>
      <trkpt lat="47.13225" lon="6.11494">
        <ele>491.6</ele>
        <time>2022-08-10T07:35:16Z</time>
      </trkpt>
      <trkpt lat="47.13222" lon="6.11498">
        <ele>491.9</ele>
        <time>2022-08-10T07:35:17Z</time>
      </trkpt>
      <trkpt lat="47.13219" lon="6.11501">
        <ele>492.2</ele>
        <time>2022-08-10T07:35:18Z</time>
      </trkpt>
      <trkpt lat="47.13216" lon="6.11504">
        <ele>492.4</ele>
        <time>2022-08-10T07:35:19Z</time>
      </trkpt>
      <trkpt lat="47.13213" lon="6.11507">
        <ele>493.1</ele>
        <time>2022-08-10T07:35:20Z</time>
      </trkpt>
      <trkpt lat="47.13209" lon="6.11511">
        <ele>493.7</ele>
        <time>2022-08-10T07:35:21Z</time>
      </trkpt>
      <trkpt lat="47.13206" lon="6.11515">
        <ele>494.4</ele>
        <time>2022-08-10T07:35:22Z</time>
      </trkpt>
      <trkpt lat="47.13202" lon="6.11519">
        <ele>494.9</ele>
        <time>2022-08-10T07:35:23Z</time>
      </trkpt>
      <trkpt lat="47.13199" lon="6.11525">
        <ele>495.2</ele>
        <time>2022-08-10T07:35:24Z</time>
      </trkpt>
      <trkpt lat="47.13196" lon="6.1153">
        <ele>494.9</ele>
        <time>2022-08-10T07:35:25Z</time>
      </trkpt>
      <trkpt lat="47.13192" lon="6.11535">
        <ele>494.8</ele>
        <time>2022-08-10T07:35:26Z</time>
      </trkpt>
      <trkpt lat="47.13188" lon="6.1154">
        <ele>494.8</ele>
        <time>2022-08-10T07:35:27Z</time>
      </trkpt>
      <trkpt lat="47.13185" lon="6.11544">
        <ele>494.5</ele>
        <time>2022-08-10T07:35:28Z</time>
      </trkpt>
      <trkpt lat="47.13181" lon="6.11549">
        <ele>494.3</ele>
        <time>2022-08-10T07:35:29Z</time>
      </trkpt>
      <trkpt lat="47.13176" lon="6.11553">
        <ele>493.9</ele>
        <time>2022-08-10T07:35:30Z</time>
      </trkpt>
      <trkpt lat="47.13172" lon="6.11557">
        <ele>493.8</ele>
        <time>2022-08-10T07:35:31Z</time>
      </trkpt>
      <trkpt lat="47.13168" lon="6.11561">
        <ele>493.4</ele>
        <time>2022-08-10T07:35:32Z</time>
      </trkpt>
      <trkpt lat="47.13165" lon="6.11565">
        <ele>492.9</ele>
        <time>2022-08-10T07:35:33Z</time>
      </trkpt>
      <trkpt lat="47.13162" lon="6.11568">
        <ele>492.9</ele>
        <time>2022-08-10T07:35:34Z</time>
      </trkpt>
      <trkpt lat="47.13158" lon="6.1157">
        <ele>492</ele>
        <time>2022-08-10T07:35:35Z</time>
      </trkpt>
      <trkpt lat="47.13156" lon="6.11571">
        <ele>491.8</ele>
        <time>2022-08-10T07:35:36Z</time>
      </trkpt>
      <trkpt lat="47.13153" lon="6.11574">
        <ele>491.4</ele>
        <time>2022-08-10T07:35:37Z</time>
      </trkpt>
      <trkpt lat="47.13149" lon="6.11576">
        <ele>490.6</ele>
        <time>2022-08-10T07:35:38Z</time>
      </trkpt>
      <trkpt lat="47.13144" lon="6.11578">
        <ele>490.2</ele>
        <time>2022-08-10T07:35:39Z</time>
      </trkpt>
      <trkpt lat="47.13139" lon="6.11579">
        <ele>489.7</ele>
        <time>2022-08-10T07:35:40Z</time>
      </trkpt>
      <trkpt lat="47.13134" lon="6.11579">
        <ele>489.2</ele>
        <time>2022-08-10T07:35:41Z</time>
      </trkpt>
      <trkpt lat="47.13129" lon="6.11579">
        <ele>488.6</ele>
        <time>2022-08-10T07:35:42Z</time>
      </trkpt>
      <trkpt lat="47.13124" lon="6.11579">
        <ele>487.9</ele>
        <time>2022-08-10T07:35:43Z</time>
      </trkpt>
      <trkpt lat="47.13119" lon="6.11579">
        <ele>487.3</ele>
        <time>2022-08-10T07:35:44Z</time>
      </trkpt>
      <trkpt lat="47.13115" lon="6.1158">
        <ele>486.9</ele>
        <time>2022-08-10T07:35:45Z</time>
      </trkpt>
      <trkpt lat="47.1311" lon="6.1158">
        <ele>486.5</ele>
        <time>2022-08-10T07:35:46Z</time>
      </trkpt>
      <trkpt lat="47.13105" lon="6.1158">
        <ele>486.2</ele>
        <time>2022-08-10T07:35:47Z</time>
      </trkpt>
      <trkpt lat="47.131" lon="6.1158">
        <ele>485.9</ele>
        <time>2022-08-10T07:35:48Z</time>
      </trkpt>
      <trkpt lat="47.13096" lon="6.1158">
        <ele>485.6</ele>
        <time>2022-08-10T07:35:49Z</time>
      </trkpt>
      <trkpt lat="47.13092" lon="6.1158">
        <ele>485.5</ele>
        <time>2022-08-10T07:35:50Z</time>
      </trkpt>
      <trkpt lat="47.13089" lon="6.11579">
        <ele>485.4</ele>
        <time>2022-08-10T07:35:51Z</time>
      </trkpt>
      <trkpt lat="47.13086" lon="6.11579">
        <ele>485.4</ele>
        <time>2022-08-10T07:35:52Z</time>
      </trkpt>
      <trkpt lat="47.13083" lon="6.11578">
        <ele>485.7</ele>
        <time>2022-08-10T07:35:53Z</time>
      </trkpt>
      <trkpt lat="47.13081" lon="6.11578">
        <ele>485.8</ele>
        <time>2022-08-10T07:35:54Z</time>
      </trkpt>
      <trkpt lat="47.13079" lon="6.11577">
        <ele>486.1</ele>
        <time>2022-08-10T07:35:55Z</time>
      </trkpt>
      <trkpt lat="47.13077" lon="6.11577">
        <ele>486.4</ele>
        <time>2022-08-10T07:35:56Z</time>
      </trkpt>
      <trkpt lat="47.13075" lon="6.11577">
        <ele>486.4</ele>
        <time>2022-08-10T07:35:57Z</time>
      </trkpt>
      <trkpt lat="47.13073" lon="6.11576">
        <ele>486.1</ele>
        <time>2022-08-10T07:35:58Z</time>
      </trkpt>
      <trkpt lat="47.13072" lon="6.11575">
        <ele>486.3</ele>
        <time>2022-08-10T07:35:59Z</time>
      </trkpt>
      <trkpt lat="47.1307" lon="6.11575">
        <ele>486.2</ele>
        <time>2022-08-10T07:36:00Z</time>
      </trkpt>
      <trkpt lat="47.13068" lon="6.11575">
        <ele>486.2</ele>
        <time>2022-08-10T07:36:01Z</time>
      </trkpt>
      <trkpt lat="47.13066" lon="6.11575">
        <ele>486.2</ele>
        <time>2022-08-10T07:36:02Z</time>
      </trkpt>
      <trkpt lat="47.13064" lon="6.11575">
        <ele>486.1</ele>
        <time>2022-08-10T07:36:03Z</time>
      </trkpt>
      <trkpt lat="47.13061" lon="6.11575">
        <ele>485.9</ele>
        <time>2022-08-10T07:36:04Z</time>
      </trkpt>
      <trkpt lat="47.13058" lon="6.11574">
        <ele>485.1</ele>
        <time>2022-08-10T07:36:05Z</time>
      </trkpt>
      <trkpt lat="47.13054" lon="6.11574">
        <ele>484.8</ele>
        <time>2022-08-10T07:36:06Z</time>
      </trkpt>
      <trkpt lat="47.13051" lon="6.11573">
        <ele>484.7</ele>
        <time>2022-08-10T07:36:07Z</time>
      </trkpt>
      <trkpt lat="47.13048" lon="6.11573">
        <ele>484.5</ele>
        <time>2022-08-10T07:36:08Z</time>
      </trkpt>
      <trkpt lat="47.13044" lon="6.11573">
        <ele>484.5</ele>
        <time>2022-08-10T07:36:09Z</time>
      </trkpt>
      <trkpt lat="47.13041" lon="6.11573">
        <ele>484.6</ele>
        <time>2022-08-10T07:36:10Z</time>
      </trkpt>
      <trkpt lat="47.13038" lon="6.11573">
        <ele>484.4</ele>
        <time>2022-08-10T07:36:11Z</time>
      </trkpt>
      <trkpt lat="47.13035" lon="6.11573">
        <ele>484.3</ele>
        <time>2022-08-10T07:36:12Z</time>
      </trkpt>
      <trkpt lat="47.13032" lon="6.11574">
        <ele>484.4</ele>
        <time>2022-08-10T07:36:13Z</time>
      </trkpt>
      <trkpt lat="47.13029" lon="6.11574">
        <ele>484.6</ele>
        <time>2022-08-10T07:36:14Z</time>
      </trkpt>
      <trkpt lat="47.13026" lon="6.11574">
        <ele>484.4</ele>
        <time>2022-08-10T07:36:15Z</time>
      </trkpt>
      <trkpt lat="47.13023" lon="6.11575">
        <ele>484.5</ele>
        <time>2022-08-10T07:36:16Z</time>
      </trkpt>
      <trkpt lat="47.1302" lon="6.11576">
        <ele>484.6</ele>
        <time>2022-08-10T07:36:17Z</time>
      </trkpt>
      <trkpt lat="47.13016" lon="6.11578">
        <ele>485</ele>
        <time>2022-08-10T07:36:18Z</time>
      </trkpt>
      <trkpt lat="47.13013" lon="6.1158">
        <ele>484.9</ele>
        <time>2022-08-10T07:36:19Z</time>
      </trkpt>
      <trkpt lat="47.13009" lon="6.11582">
        <ele>484.8</ele>
        <time>2022-08-10T07:36:20Z</time>
      </trkpt>
      <trkpt lat="47.13004" lon="6.11584">
        <ele>484.6</ele>
        <time>2022-08-10T07:36:21Z</time>
      </trkpt>
      <trkpt lat="47.13001" lon="6.11586">
        <ele>484.7</ele>
        <time>2022-08-10T07:36:22Z</time>
      </trkpt>
      <trkpt lat="47.12998" lon="6.11588">
        <ele>484.6</ele>
        <time>2022-08-10T07:36:23Z</time>
      </trkpt>
      <trkpt lat="47.12995" lon="6.1159">
        <ele>484.2</ele>
        <time>2022-08-10T07:36:24Z</time>
      </trkpt>
      <trkpt lat="47.12991" lon="6.11591">
        <ele>484.1</ele>
        <time>2022-08-10T07:36:25Z</time>
      </trkpt>
      <trkpt lat="47.12987" lon="6.11594">
        <ele>483.6</ele>
        <time>2022-08-10T07:36:26Z</time>
      </trkpt>
      <trkpt lat="47.12984" lon="6.11596">
        <ele>483.2</ele>
        <time>2022-08-10T07:36:27Z</time>
      </trkpt>
      <trkpt lat="47.1298" lon="6.11598">
        <ele>483.1</ele>
        <time>2022-08-10T07:36:28Z</time>
      </trkpt>
      <trkpt lat="47.12978" lon="6.11601">
        <ele>482.9</ele>
        <time>2022-08-10T07:36:29Z</time>
      </trkpt>
      <trkpt lat="47.12975" lon="6.11604">
        <ele>482.7</ele>
        <time>2022-08-10T07:36:30Z</time>
      </trkpt>
      <trkpt lat="47.12973" lon="6.11608">
        <ele>482.5</ele>
        <time>2022-08-10T07:36:31Z</time>
      </trkpt>
      <trkpt lat="47.12971" lon="6.11612">
        <ele>482.4</ele>
        <time>2022-08-10T07:36:32Z</time>
      </trkpt>
      <trkpt lat="47.12968" lon="6.11617">
        <ele>482.6</ele>
        <time>2022-08-10T07:36:33Z</time>
      </trkpt>
      <trkpt lat="47.12965" lon="6.1162">
        <ele>482.4</ele>
        <time>2022-08-10T07:36:34Z</time>
      </trkpt>
      <trkpt lat="47.12963" lon="6.11623">
        <ele>481.9</ele>
        <time>2022-08-10T07:36:35Z</time>
      </trkpt>
      <trkpt lat="47.12961" lon="6.11626">
        <ele>482.1</ele>
        <time>2022-08-10T07:36:36Z</time>
      </trkpt>
      <trkpt lat="47.12959" lon="6.1163">
        <ele>482.2</ele>
        <time>2022-08-10T07:36:37Z</time>
      </trkpt>
      <trkpt lat="47.12957" lon="6.11635">
        <ele>482.4</ele>
        <time>2022-08-10T07:36:38Z</time>
      </trkpt>
      <trkpt lat="47.12955" lon="6.1164">
        <ele>481.7</ele>
        <time>2022-08-10T07:36:39Z</time>
      </trkpt>
      <trkpt lat="47.12953" lon="6.11645">
        <ele>481.4</ele>
        <time>2022-08-10T07:36:40Z</time>
      </trkpt>
      <trkpt lat="47.12951" lon="6.1165">
        <ele>481.6</ele>
        <time>2022-08-10T07:36:41Z</time>
      </trkpt>
      <trkpt lat="47.1295" lon="6.11654">
        <ele>481.8</ele>
        <time>2022-08-10T07:36:42Z</time>
      </trkpt>
      <trkpt lat="47.1295" lon="6.11659">
        <ele>481.6</ele>
        <time>2022-08-10T07:36:43Z</time>
      </trkpt>
      <trkpt lat="47.12949" lon="6.11664">
        <ele>481.2</ele>
        <time>2022-08-10T07:36:44Z</time>
      </trkpt>
      <trkpt lat="47.12948" lon="6.1167">
        <ele>481</ele>
        <time>2022-08-10T07:36:45Z</time>
      </trkpt>
      <trkpt lat="47.12948" lon="6.11676">
        <ele>480.8</ele>
        <time>2022-08-10T07:36:46Z</time>
      </trkpt>
      <trkpt lat="47.12947" lon="6.11683">
        <ele>480.2</ele>
        <time>2022-08-10T07:36:47Z</time>
      </trkpt>
      <trkpt lat="47.12946" lon="6.1169">
        <ele>480.2</ele>
        <time>2022-08-10T07:36:48Z</time>
      </trkpt>
      <trkpt lat="47.12945" lon="6.11697">
        <ele>479.8</ele>
        <time>2022-08-10T07:36:49Z</time>
      </trkpt>
      <trkpt lat="47.12944" lon="6.11703">
        <ele>479.5</ele>
        <time>2022-08-10T07:36:50Z</time>
      </trkpt>
      <trkpt lat="47.12943" lon="6.11709">
        <ele>478.8</ele>
        <time>2022-08-10T07:36:51Z</time>
      </trkpt>
      <trkpt lat="47.12942" lon="6.11714">
        <ele>478</ele>
        <time>2022-08-10T07:36:52Z</time>
      </trkpt>
      <trkpt lat="47.12941" lon="6.11719">
        <ele>477.3</ele>
        <time>2022-08-10T07:36:53Z</time>
      </trkpt>
      <trkpt lat="47.12941" lon="6.11725">
        <ele>476.6</ele>
        <time>2022-08-10T07:36:54Z</time>
      </trkpt>
      <trkpt lat="47.1294" lon="6.11732">
        <ele>476.2</ele>
        <time>2022-08-10T07:36:55Z</time>
      </trkpt>
      <trkpt lat="47.12939" lon="6.11739">
        <ele>475.8</ele>
        <time>2022-08-10T07:36:56Z</time>
      </trkpt>
      <trkpt lat="47.12938" lon="6.11746">
        <ele>475.5</ele>
        <time>2022-08-10T07:36:57Z</time>
      </trkpt>
      <trkpt lat="47.12936" lon="6.11753">
        <ele>474.7</ele>
        <time>2022-08-10T07:36:58Z</time>
      </trkpt>
      <trkpt lat="47.12934" lon="6.11759">
        <ele>474.1</ele>
        <time>2022-08-10T07:36:59Z</time>
      </trkpt>
      <trkpt lat="47.12934" lon="6.11765">
        <ele>473.6</ele>
        <time>2022-08-10T07:37:00Z</time>
      </trkpt>
      <trkpt lat="47.12933" lon="6.11771">
        <ele>473.3</ele>
        <time>2022-08-10T07:37:01Z</time>
      </trkpt>
      <trkpt lat="47.12933" lon="6.11776">
        <ele>473.4</ele>
        <time>2022-08-10T07:37:02Z</time>
      </trkpt>
      <trkpt lat="47.12932" lon="6.11781">
        <ele>473.4</ele>
        <time>2022-08-10T07:37:03Z</time>
      </trkpt>
      <trkpt lat="47.12932" lon="6.11786">
        <ele>473.1</ele>
        <time>2022-08-10T07:37:04Z</time>
      </trkpt>
      <trkpt lat="47.12931" lon="6.1179">
        <ele>473</ele>
        <time>2022-08-10T07:37:05Z</time>
      </trkpt>
      <trkpt lat="47.12931" lon="6.11794">
        <ele>473.1</ele>
        <time>2022-08-10T07:37:06Z</time>
      </trkpt>
      <trkpt lat="47.1293" lon="6.11798">
        <ele>472.9</ele>
        <time>2022-08-10T07:37:07Z</time>
      </trkpt>
      <trkpt lat="47.12929" lon="6.11802">
        <ele>472.7</ele>
        <time>2022-08-10T07:37:08Z</time>
      </trkpt>
      <trkpt lat="47.12927" lon="6.11807">
        <ele>472.4</ele>
        <time>2022-08-10T07:37:09Z</time>
      </trkpt>
      <trkpt lat="47.12926" lon="6.11812">
        <ele>472.9</ele>
        <time>2022-08-10T07:37:10Z</time>
      </trkpt>
      <trkpt lat="47.12925" lon="6.11816">
        <ele>473.3</ele>
        <time>2022-08-10T07:37:11Z</time>
      </trkpt>
      <trkpt lat="47.12924" lon="6.11821">
        <ele>473.3</ele>
        <time>2022-08-10T07:37:12Z</time>
      </trkpt>
      <trkpt lat="47.12922" lon="6.11826">
        <ele>473.4</ele>
        <time>2022-08-10T07:37:13Z</time>
      </trkpt>
      <trkpt lat="47.12921" lon="6.11831">
        <ele>473.1</ele>
        <time>2022-08-10T07:37:14Z</time>
      </trkpt>
      <trkpt lat="47.12921" lon="6.11835">
        <ele>472.7</ele>
        <time>2022-08-10T07:37:15Z</time>
      </trkpt>
      <trkpt lat="47.1292" lon="6.1184">
        <ele>472.4</ele>
        <time>2022-08-10T07:37:16Z</time>
      </trkpt>
      <trkpt lat="47.12919" lon="6.11845">
        <ele>472.4</ele>
        <time>2022-08-10T07:37:17Z</time>
      </trkpt>
      <trkpt lat="47.12919" lon="6.11851">
        <ele>472.6</ele>
        <time>2022-08-10T07:37:18Z</time>
      </trkpt>
      <trkpt lat="47.12918" lon="6.11858">
        <ele>472.6</ele>
        <time>2022-08-10T07:37:19Z</time>
      </trkpt>
      <trkpt lat="47.12917" lon="6.11865">
        <ele>472.4</ele>
        <time>2022-08-10T07:37:20Z</time>
      </trkpt>
      <trkpt lat="47.12916" lon="6.11874">
        <ele>472.4</ele>
        <time>2022-08-10T07:37:21Z</time>
      </trkpt>
      <trkpt lat="47.12916" lon="6.11882">
        <ele>471.6</ele>
        <time>2022-08-10T07:37:22Z</time>
      </trkpt>
      <trkpt lat="47.12915" lon="6.11892">
        <ele>471.4</ele>
        <time>2022-08-10T07:37:23Z</time>
      </trkpt>
      <trkpt lat="47.12914" lon="6.11902">
        <ele>471.4</ele>
        <time>2022-08-10T07:37:24Z</time>
      </trkpt>
      <trkpt lat="47.12913" lon="6.1191">
        <ele>471.5</ele>
        <time>2022-08-10T07:37:25Z</time>
      </trkpt>
      <trkpt lat="47.12912" lon="6.11919">
        <ele>471.3</ele>
        <time>2022-08-10T07:37:26Z</time>
      </trkpt>
      <trkpt lat="47.1291" lon="6.11927">
        <ele>471.3</ele>
        <time>2022-08-10T07:37:27Z</time>
      </trkpt>
      <trkpt lat="47.12909" lon="6.11934">
        <ele>471.2</ele>
        <time>2022-08-10T07:37:28Z</time>
      </trkpt>
      <trkpt lat="47.12908" lon="6.1194">
        <ele>471.4</ele>
        <time>2022-08-10T07:37:29Z</time>
      </trkpt>
      <trkpt lat="47.12906" lon="6.11948">
        <ele>471.3</ele>
        <time>2022-08-10T07:37:30Z</time>
      </trkpt>
      <trkpt lat="47.12905" lon="6.11955">
        <ele>470.8</ele>
        <time>2022-08-10T07:37:31Z</time>
      </trkpt>
      <trkpt lat="47.12904" lon="6.11962">
        <ele>470.4</ele>
        <time>2022-08-10T07:37:32Z</time>
      </trkpt>
      <trkpt lat="47.12903" lon="6.11969">
        <ele>470</ele>
        <time>2022-08-10T07:37:33Z</time>
      </trkpt>
      <trkpt lat="47.12902" lon="6.11977">
        <ele>468.6</ele>
        <time>2022-08-10T07:37:34Z</time>
      </trkpt>
      <trkpt lat="47.12902" lon="6.11985">
        <ele>466.9</ele>
        <time>2022-08-10T07:37:35Z</time>
      </trkpt>
      <trkpt lat="47.129" lon="6.11993">
        <ele>466.2</ele>
        <time>2022-08-10T07:37:36Z</time>
      </trkpt>
      <trkpt lat="47.12898" lon="6.12001">
        <ele>465.2</ele>
        <time>2022-08-10T07:37:37Z</time>
      </trkpt>
      <trkpt lat="47.12896" lon="6.1201">
        <ele>464.9</ele>
        <time>2022-08-10T07:37:38Z</time>
      </trkpt>
      <trkpt lat="47.12895" lon="6.12017">
        <ele>464.1</ele>
        <time>2022-08-10T07:37:39Z</time>
      </trkpt>
      <trkpt lat="47.12893" lon="6.12024">
        <ele>463.4</ele>
        <time>2022-08-10T07:37:40Z</time>
      </trkpt>
      <trkpt lat="47.1289" lon="6.12031">
        <ele>462.7</ele>
        <time>2022-08-10T07:37:41Z</time>
      </trkpt>
      <trkpt lat="47.12888" lon="6.12037">
        <ele>462.1</ele>
        <time>2022-08-10T07:37:42Z</time>
      </trkpt>
      <trkpt lat="47.12886" lon="6.12044">
        <ele>461.7</ele>
        <time>2022-08-10T07:37:43Z</time>
      </trkpt>
      <trkpt lat="47.12884" lon="6.12051">
        <ele>460.8</ele>
        <time>2022-08-10T07:37:44Z</time>
      </trkpt>
      <trkpt lat="47.12882" lon="6.12057">
        <ele>460.2</ele>
        <time>2022-08-10T07:37:45Z</time>
      </trkpt>
      <trkpt lat="47.12879" lon="6.12063">
        <ele>459.2</ele>
        <time>2022-08-10T07:37:46Z</time>
      </trkpt>
      <trkpt lat="47.12877" lon="6.12069">
        <ele>458.6</ele>
        <time>2022-08-10T07:37:47Z</time>
      </trkpt>
      <trkpt lat="47.12875" lon="6.12075">
        <ele>458.1</ele>
        <time>2022-08-10T07:37:48Z</time>
      </trkpt>
      <trkpt lat="47.12873" lon="6.12081">
        <ele>457.9</ele>
        <time>2022-08-10T07:37:49Z</time>
      </trkpt>
      <trkpt lat="47.1287" lon="6.12086">
        <ele>457.6</ele>
        <time>2022-08-10T07:37:50Z</time>
      </trkpt>
      <trkpt lat="47.12867" lon="6.12092">
        <ele>457.1</ele>
        <time>2022-08-10T07:37:51Z</time>
      </trkpt>
      <trkpt lat="47.12864" lon="6.12098">
        <ele>456.7</ele>
        <time>2022-08-10T07:37:52Z</time>
      </trkpt>
      <trkpt lat="47.12861" lon="6.12103">
        <ele>456</ele>
        <time>2022-08-10T07:37:53Z</time>
      </trkpt>
      <trkpt lat="47.12857" lon="6.12109">
        <ele>455.2</ele>
        <time>2022-08-10T07:37:54Z</time>
      </trkpt>
      <trkpt lat="47.12853" lon="6.12114">
        <ele>454.5</ele>
        <time>2022-08-10T07:37:55Z</time>
      </trkpt>
      <trkpt lat="47.12849" lon="6.1212">
        <ele>453.5</ele>
        <time>2022-08-10T07:37:56Z</time>
      </trkpt>
      <trkpt lat="47.12845" lon="6.12124">
        <ele>452.7</ele>
        <time>2022-08-10T07:37:57Z</time>
      </trkpt>
      <trkpt lat="47.12842" lon="6.12129">
        <ele>451.5</ele>
        <time>2022-08-10T07:37:58Z</time>
      </trkpt>
      <trkpt lat="47.12839" lon="6.12133">
        <ele>451</ele>
        <time>2022-08-10T07:37:59Z</time>
      </trkpt>
      <trkpt lat="47.12836" lon="6.12136">
        <ele>450.5</ele>
        <time>2022-08-10T07:38:00Z</time>
      </trkpt>
      <trkpt lat="47.12834" lon="6.12138">
        <ele>449.8</ele>
        <time>2022-08-10T07:38:01Z</time>
      </trkpt>
      <trkpt lat="47.12832" lon="6.12139">
        <ele>448.5</ele>
        <time>2022-08-10T07:38:02Z</time>
      </trkpt>
      <trkpt lat="47.1283" lon="6.12141">
        <ele>447.8</ele>
        <time>2022-08-10T07:38:03Z</time>
      </trkpt>
      <trkpt lat="47.12828" lon="6.12144">
        <ele>447.3</ele>
        <time>2022-08-10T07:38:04Z</time>
      </trkpt>
      <trkpt lat="47.12826" lon="6.12146">
        <ele>447.4</ele>
        <time>2022-08-10T07:38:05Z</time>
      </trkpt>
      <trkpt lat="47.12823" lon="6.12149">
        <ele>446.9</ele>
        <time>2022-08-10T07:38:06Z</time>
      </trkpt>
      <trkpt lat="47.1282" lon="6.12152">
        <ele>447.1</ele>
        <time>2022-08-10T07:38:07Z</time>
      </trkpt>
      <trkpt lat="47.12817" lon="6.12154">
        <ele>447.2</ele>
        <time>2022-08-10T07:38:08Z</time>
      </trkpt>
      <trkpt lat="47.12814" lon="6.12156">
        <ele>447.1</ele>
        <time>2022-08-10T07:38:09Z</time>
      </trkpt>
      <trkpt lat="47.12812" lon="6.12158">
        <ele>447</ele>
        <time>2022-08-10T07:38:10Z</time>
      </trkpt>
      <trkpt lat="47.12809" lon="6.12161">
        <ele>447</ele>
        <time>2022-08-10T07:38:11Z</time>
      </trkpt>
      <trkpt lat="47.12806" lon="6.12163">
        <ele>446.6</ele>
        <time>2022-08-10T07:38:12Z</time>
      </trkpt>
      <trkpt lat="47.12803" lon="6.12164">
        <ele>446.3</ele>
        <time>2022-08-10T07:38:13Z</time>
      </trkpt>
      <trkpt lat="47.128" lon="6.12165">
        <ele>446.1</ele>
        <time>2022-08-10T07:38:14Z</time>
      </trkpt>
      <trkpt lat="47.12797" lon="6.12166">
        <ele>445.9</ele>
        <time>2022-08-10T07:38:15Z</time>
      </trkpt>
      <trkpt lat="47.12795" lon="6.12168">
        <ele>445.6</ele>
        <time>2022-08-10T07:38:16Z</time>
      </trkpt>
      <trkpt lat="47.12793" lon="6.12169">
        <ele>445.7</ele>
        <time>2022-08-10T07:38:17Z</time>
      </trkpt>
      <trkpt lat="47.12791" lon="6.12171">
        <ele>445.5</ele>
        <time>2022-08-10T07:38:18Z</time>
      </trkpt>
      <trkpt lat="47.12788" lon="6.12173">
        <ele>445.5</ele>
        <time>2022-08-10T07:38:19Z</time>
      </trkpt>
      <trkpt lat="47.12785" lon="6.12175">
        <ele>445.6</ele>
        <time>2022-08-10T07:38:20Z</time>
      </trkpt>
      <trkpt lat="47.12782" lon="6.12177">
        <ele>445.5</ele>
        <time>2022-08-10T07:38:21Z</time>
      </trkpt>
      <trkpt lat="47.12779" lon="6.12179">
        <ele>445.1</ele>
        <time>2022-08-10T07:38:22Z</time>
      </trkpt>
      <trkpt lat="47.12775" lon="6.12182">
        <ele>444.4</ele>
        <time>2022-08-10T07:38:23Z</time>
      </trkpt>
      <trkpt lat="47.12771" lon="6.12185">
        <ele>443.9</ele>
        <time>2022-08-10T07:38:24Z</time>
      </trkpt>
      <trkpt lat="47.12767" lon="6.12188">
        <ele>443.7</ele>
        <time>2022-08-10T07:38:25Z</time>
      </trkpt>
      <trkpt lat="47.12764" lon="6.1219">
        <ele>443.4</ele>
        <time>2022-08-10T07:38:26Z</time>
      </trkpt>
      <trkpt lat="47.12761" lon="6.12192">
        <ele>443</ele>
        <time>2022-08-10T07:38:27Z</time>
      </trkpt>
      <trkpt lat="47.12759" lon="6.12196">
        <ele>442.6</ele>
        <time>2022-08-10T07:38:28Z</time>
      </trkpt>
      <trkpt lat="47.12756" lon="6.12198">
        <ele>442</ele>
        <time>2022-08-10T07:38:29Z</time>
      </trkpt>
      <trkpt lat="47.12753" lon="6.12201">
        <ele>441.9</ele>
        <time>2022-08-10T07:38:30Z</time>
      </trkpt>
      <trkpt lat="47.1275" lon="6.12202">
        <ele>442</ele>
        <time>2022-08-10T07:38:31Z</time>
      </trkpt>
      <trkpt lat="47.12746" lon="6.12203">
        <ele>441.6</ele>
        <time>2022-08-10T07:38:32Z</time>
      </trkpt>
      <trkpt lat="47.12742" lon="6.12204">
        <ele>441.5</ele>
        <time>2022-08-10T07:38:33Z</time>
      </trkpt>
      <trkpt lat="47.12738" lon="6.12206">
        <ele>441.1</ele>
        <time>2022-08-10T07:38:34Z</time>
      </trkpt>
      <trkpt lat="47.12735" lon="6.12207">
        <ele>440.6</ele>
        <time>2022-08-10T07:38:35Z</time>
      </trkpt>
      <trkpt lat="47.12731" lon="6.12208">
        <ele>439.8</ele>
        <time>2022-08-10T07:38:36Z</time>
      </trkpt>
      <trkpt lat="47.12728" lon="6.1221">
        <ele>439.1</ele>
        <time>2022-08-10T07:38:37Z</time>
      </trkpt>
      <trkpt lat="47.12724" lon="6.12211">
        <ele>438.3</ele>
        <time>2022-08-10T07:38:38Z</time>
      </trkpt>
      <trkpt lat="47.1272" lon="6.12212">
        <ele>437.8</ele>
        <time>2022-08-10T07:38:39Z</time>
      </trkpt>
      <trkpt lat="47.12716" lon="6.12212">
        <ele>436.9</ele>
        <time>2022-08-10T07:38:40Z</time>
      </trkpt>
      <trkpt lat="47.12712" lon="6.12213">
        <ele>435.6</ele>
        <time>2022-08-10T07:38:41Z</time>
      </trkpt>
      <trkpt lat="47.12708" lon="6.12214">
        <ele>434.5</ele>
        <time>2022-08-10T07:38:42Z</time>
      </trkpt>
      <trkpt lat="47.12704" lon="6.12214">
        <ele>433.6</ele>
        <time>2022-08-10T07:38:43Z</time>
      </trkpt>
      <trkpt lat="47.127" lon="6.12215">
        <ele>432.5</ele>
        <time>2022-08-10T07:38:44Z</time>
      </trkpt>
      <trkpt lat="47.12696" lon="6.12216">
        <ele>431.5</ele>
        <time>2022-08-10T07:38:45Z</time>
      </trkpt>
      <trkpt lat="47.12692" lon="6.12217">
        <ele>430.7</ele>
        <time>2022-08-10T07:38:46Z</time>
      </trkpt>
      <trkpt lat="47.12689" lon="6.12218">
        <ele>430</ele>
        <time>2022-08-10T07:38:47Z</time>
      </trkpt>
      <trkpt lat="47.12684" lon="6.12219">
        <ele>429</ele>
        <time>2022-08-10T07:38:48Z</time>
      </trkpt>
      <trkpt lat="47.1268" lon="6.12219">
        <ele>428.3</ele>
        <time>2022-08-10T07:38:49Z</time>
      </trkpt>
      <trkpt lat="47.12675" lon="6.12219">
        <ele>427.7</ele>
        <time>2022-08-10T07:38:50Z</time>
      </trkpt>
      <trkpt lat="47.1267" lon="6.1222">
        <ele>426.9</ele>
        <time>2022-08-10T07:38:51Z</time>
      </trkpt>
      <trkpt lat="47.12665" lon="6.12221">
        <ele>426.3</ele>
        <time>2022-08-10T07:38:52Z</time>
      </trkpt>
      <trkpt lat="47.1266" lon="6.12222">
        <ele>426.2</ele>
        <time>2022-08-10T07:38:53Z</time>
      </trkpt>
      <trkpt lat="47.12654" lon="6.12222">
        <ele>425.8</ele>
        <time>2022-08-10T07:38:54Z</time>
      </trkpt>
      <trkpt lat="47.12648" lon="6.12223">
        <ele>425</ele>
        <time>2022-08-10T07:38:55Z</time>
      </trkpt>
      <trkpt lat="47.12643" lon="6.12223">
        <ele>424.6</ele>
        <time>2022-08-10T07:38:56Z</time>
      </trkpt>
      <trkpt lat="47.12637" lon="6.12222">
        <ele>424.2</ele>
        <time>2022-08-10T07:38:57Z</time>
      </trkpt>
      <trkpt lat="47.12631" lon="6.12222">
        <ele>423.2</ele>
        <time>2022-08-10T07:38:58Z</time>
      </trkpt>
      <trkpt lat="47.12626" lon="6.12221">
        <ele>422.7</ele>
        <time>2022-08-10T07:38:59Z</time>
      </trkpt>
      <trkpt lat="47.12622" lon="6.12221">
        <ele>422.1</ele>
        <time>2022-08-10T07:39:00Z</time>
      </trkpt>
      <trkpt lat="47.12617" lon="6.12219">
        <ele>421.6</ele>
        <time>2022-08-10T07:39:01Z</time>
      </trkpt>
      <trkpt lat="47.12612" lon="6.12217">
        <ele>420.5</ele>
        <time>2022-08-10T07:39:02Z</time>
      </trkpt>
      <trkpt lat="47.12608" lon="6.12215">
        <ele>418.9</ele>
        <time>2022-08-10T07:39:03Z</time>
      </trkpt>
      <trkpt lat="47.12604" lon="6.12215">
        <ele>417.6</ele>
        <time>2022-08-10T07:39:04Z</time>
      </trkpt>
      <trkpt lat="47.126" lon="6.12214">
        <ele>416.8</ele>
        <time>2022-08-10T07:39:05Z</time>
      </trkpt>
      <trkpt lat="47.12595" lon="6.12212">
        <ele>415.7</ele>
        <time>2022-08-10T07:39:06Z</time>
      </trkpt>
      <trkpt lat="47.12591" lon="6.1221">
        <ele>415</ele>
        <time>2022-08-10T07:39:07Z</time>
      </trkpt>
      <trkpt lat="47.12588" lon="6.12208">
        <ele>414.2</ele>
        <time>2022-08-10T07:39:08Z</time>
      </trkpt>
      <trkpt lat="47.12584" lon="6.12207">
        <ele>413.4</ele>
        <time>2022-08-10T07:39:09Z</time>
      </trkpt>
      <trkpt lat="47.12581" lon="6.12207">
        <ele>412.4</ele>
        <time>2022-08-10T07:39:10Z</time>
      </trkpt>
      <trkpt lat="47.12578" lon="6.12206">
        <ele>411.5</ele>
        <time>2022-08-10T07:39:11Z</time>
      </trkpt>
      <trkpt lat="47.12576" lon="6.12205">
        <ele>410.4</ele>
        <time>2022-08-10T07:39:12Z</time>
      </trkpt>
      <trkpt lat="47.12572" lon="6.12205">
        <ele>409.2</ele>
        <time>2022-08-10T07:39:13Z</time>
      </trkpt>
      <trkpt lat="47.12569" lon="6.12206">
        <ele>408.5</ele>
        <time>2022-08-10T07:39:14Z</time>
      </trkpt>
      <trkpt lat="47.12566" lon="6.12206">
        <ele>407.9</ele>
        <time>2022-08-10T07:39:15Z</time>
      </trkpt>
      <trkpt lat="47.12562" lon="6.12205">
        <ele>408.2</ele>
        <time>2022-08-10T07:39:16Z</time>
      </trkpt>
      <trkpt lat="47.12559" lon="6.12204">
        <ele>408</ele>
        <time>2022-08-10T07:39:17Z</time>
      </trkpt>
      <trkpt lat="47.12556" lon="6.12203">
        <ele>407.7</ele>
        <time>2022-08-10T07:39:18Z</time>
      </trkpt>
      <trkpt lat="47.12553" lon="6.12201">
        <ele>407.5</ele>
        <time>2022-08-10T07:39:19Z</time>
      </trkpt>
      <trkpt lat="47.1255" lon="6.12199">
        <ele>407.3</ele>
        <time>2022-08-10T07:39:20Z</time>
      </trkpt>
      <trkpt lat="47.12546" lon="6.12198">
        <ele>407</ele>
        <time>2022-08-10T07:39:21Z</time>
      </trkpt>
      <trkpt lat="47.12543" lon="6.12196">
        <ele>406.5</ele>
        <time>2022-08-10T07:39:22Z</time>
      </trkpt>
      <trkpt lat="47.12539" lon="6.12195">
        <ele>405.9</ele>
        <time>2022-08-10T07:39:23Z</time>
      </trkpt>
      <trkpt lat="47.12535" lon="6.12193">
        <ele>404.5</ele>
        <time>2022-08-10T07:39:24Z</time>
      </trkpt>
      <trkpt lat="47.12531" lon="6.12191">
        <ele>404</ele>
        <time>2022-08-10T07:39:25Z</time>
      </trkpt>
      <trkpt lat="47.12526" lon="6.12189">
        <ele>403.6</ele>
        <time>2022-08-10T07:39:26Z</time>
      </trkpt>
      <trkpt lat="47.12522" lon="6.12187">
        <ele>403.2</ele>
        <time>2022-08-10T07:39:27Z</time>
      </trkpt>
      <trkpt lat="47.12518" lon="6.12186">
        <ele>403.2</ele>
        <time>2022-08-10T07:39:28Z</time>
      </trkpt>
      <trkpt lat="47.12514" lon="6.12184">
        <ele>403.6</ele>
        <time>2022-08-10T07:39:29Z</time>
      </trkpt>
      <trkpt lat="47.12512" lon="6.12182">
        <ele>403.8</ele>
        <time>2022-08-10T07:39:30Z</time>
      </trkpt>
      <trkpt lat="47.12509" lon="6.1218">
        <ele>403.6</ele>
        <time>2022-08-10T07:39:31Z</time>
      </trkpt>
      <trkpt lat="47.12507" lon="6.12179">
        <ele>403.6</ele>
        <time>2022-08-10T07:39:32Z</time>
      </trkpt>
      <trkpt lat="47.12504" lon="6.12177">
        <ele>403.9</ele>
        <time>2022-08-10T07:39:33Z</time>
      </trkpt>
      <trkpt lat="47.12502" lon="6.12175">
        <ele>404.1</ele>
        <time>2022-08-10T07:39:34Z</time>
      </trkpt>
      <trkpt lat="47.12499" lon="6.12174">
        <ele>404.6</ele>
        <time>2022-08-10T07:39:35Z</time>
      </trkpt>
      <trkpt lat="47.12496" lon="6.12173">
        <ele>404.8</ele>
        <time>2022-08-10T07:39:36Z</time>
      </trkpt>
      <trkpt lat="47.12493" lon="6.12171">
        <ele>405.2</ele>
        <time>2022-08-10T07:39:37Z</time>
      </trkpt>
      <trkpt lat="47.1249" lon="6.1217">
        <ele>405.5</ele>
        <time>2022-08-10T07:39:38Z</time>
      </trkpt>
      <trkpt lat="47.12486" lon="6.12169">
        <ele>405.7</ele>
        <time>2022-08-10T07:39:39Z</time>
      </trkpt>
      <trkpt lat="47.12483" lon="6.12167">
        <ele>405.8</ele>
        <time>2022-08-10T07:39:40Z</time>
      </trkpt>
      <trkpt lat="47.1248" lon="6.12166">
        <ele>406.2</ele>
        <time>2022-08-10T07:39:41Z</time>
      </trkpt>
      <trkpt lat="47.12477" lon="6.12164">
        <ele>406.2</ele>
        <time>2022-08-10T07:39:42Z</time>
      </trkpt>
      <trkpt lat="47.12474" lon="6.12162">
        <ele>406.1</ele>
        <time>2022-08-10T07:39:43Z</time>
      </trkpt>
      <trkpt lat="47.12471" lon="6.1216">
        <ele>406</ele>
        <time>2022-08-10T07:39:44Z</time>
      </trkpt>
      <trkpt lat="47.12468" lon="6.12158">
        <ele>406</ele>
        <time>2022-08-10T07:39:45Z</time>
      </trkpt>
      <trkpt lat="47.12465" lon="6.12157">
        <ele>405.8</ele>
        <time>2022-08-10T07:39:46Z</time>
      </trkpt>
      <trkpt lat="47.12462" lon="6.12155">
        <ele>405.1</ele>
        <time>2022-08-10T07:39:47Z</time>
      </trkpt>
      <trkpt lat="47.12459" lon="6.12154">
        <ele>404.2</ele>
        <time>2022-08-10T07:39:48Z</time>
      </trkpt>
      <trkpt lat="47.12457" lon="6.12152">
        <ele>403.4</ele>
        <time>2022-08-10T07:39:49Z</time>
      </trkpt>
      <trkpt lat="47.12453" lon="6.1215">
        <ele>403</ele>
        <time>2022-08-10T07:39:50Z</time>
      </trkpt>
      <trkpt lat="47.1245" lon="6.12148">
        <ele>402.5</ele>
        <time>2022-08-10T07:39:51Z</time>
      </trkpt>
      <trkpt lat="47.12446" lon="6.12146">
        <ele>402.2</ele>
        <time>2022-08-10T07:39:52Z</time>
      </trkpt>
      <trkpt lat="47.12442" lon="6.12145">
        <ele>401.9</ele>
        <time>2022-08-10T07:39:53Z</time>
      </trkpt>
      <trkpt lat="47.12439" lon="6.12143">
        <ele>401.4</ele>
        <time>2022-08-10T07:39:54Z</time>
      </trkpt>
      <trkpt lat="47.12435" lon="6.12142">
        <ele>401.1</ele>
        <time>2022-08-10T07:39:55Z</time>
      </trkpt>
      <trkpt lat="47.12431" lon="6.12141">
        <ele>401</ele>
        <time>2022-08-10T07:39:56Z</time>
      </trkpt>
      <trkpt lat="47.12428" lon="6.12141">
        <ele>400.7</ele>
        <time>2022-08-10T07:39:57Z</time>
      </trkpt>
      <trkpt lat="47.12424" lon="6.1214">
        <ele>400.4</ele>
        <time>2022-08-10T07:39:58Z</time>
      </trkpt>
      <trkpt lat="47.12421" lon="6.12139">
        <ele>400</ele>
        <time>2022-08-10T07:39:59Z</time>
      </trkpt>
      <trkpt lat="47.12417" lon="6.12138">
        <ele>399.6</ele>
        <time>2022-08-10T07:40:00Z</time>
      </trkpt>
      <trkpt lat="47.12414" lon="6.12138">
        <ele>399.6</ele>
        <time>2022-08-10T07:40:01Z</time>
      </trkpt>
      <trkpt lat="47.12411" lon="6.12138">
        <ele>399.5</ele>
        <time>2022-08-10T07:40:02Z</time>
      </trkpt>
      <trkpt lat="47.12408" lon="6.12137">
        <ele>399.1</ele>
        <time>2022-08-10T07:40:03Z</time>
      </trkpt>
      <trkpt lat="47.12405" lon="6.12136">
        <ele>399.2</ele>
        <time>2022-08-10T07:40:04Z</time>
      </trkpt>
      <trkpt lat="47.12402" lon="6.12136">
        <ele>399.4</ele>
        <time>2022-08-10T07:40:05Z</time>
      </trkpt>
      <trkpt lat="47.12398" lon="6.12135">
        <ele>399</ele>
        <time>2022-08-10T07:40:06Z</time>
      </trkpt>
      <trkpt lat="47.12395" lon="6.12135">
        <ele>398.7</ele>
        <time>2022-08-10T07:40:07Z</time>
      </trkpt>
      <trkpt lat="47.12393" lon="6.12134">
        <ele>398.5</ele>
        <time>2022-08-10T07:40:08Z</time>
      </trkpt>
      <trkpt lat="47.1239" lon="6.12134">
        <ele>398.3</ele>
        <time>2022-08-10T07:40:09Z</time>
      </trkpt>
      <trkpt lat="47.12387" lon="6.12133">
        <ele>397.5</ele>
        <time>2022-08-10T07:40:10Z</time>
      </trkpt>
      <trkpt lat="47.12384" lon="6.12133">
        <ele>396.9</ele>
        <time>2022-08-10T07:40:11Z</time>
      </trkpt>
      <trkpt lat="47.12381" lon="6.12132">
        <ele>396.1</ele>
        <time>2022-08-10T07:40:12Z</time>
      </trkpt>
      <trkpt lat="47.12378" lon="6.12132">
        <ele>395.6</ele>
        <time>2022-08-10T07:40:13Z</time>
      </trkpt>
      <trkpt lat="47.12375" lon="6.12132">
        <ele>395.4</ele>
        <time>2022-08-10T07:40:14Z</time>
      </trkpt>
      <trkpt lat="47.12372" lon="6.12133">
        <ele>395.2</ele>
        <time>2022-08-10T07:40:15Z</time>
      </trkpt>
      <trkpt lat="47.12368" lon="6.12134">
        <ele>394.7</ele>
        <time>2022-08-10T07:40:16Z</time>
      </trkpt>
      <trkpt lat="47.12364" lon="6.12135">
        <ele>394.1</ele>
        <time>2022-08-10T07:40:17Z</time>
      </trkpt>
      <trkpt lat="47.12361" lon="6.12135">
        <ele>393.6</ele>
        <time>2022-08-10T07:40:18Z</time>
      </trkpt>
      <trkpt lat="47.12358" lon="6.12135">
        <ele>392.9</ele>
        <time>2022-08-10T07:40:19Z</time>
      </trkpt>
      <trkpt lat="47.12355" lon="6.12136">
        <ele>392.5</ele>
        <time>2022-08-10T07:40:20Z</time>
      </trkpt>
      <trkpt lat="47.12352" lon="6.12136">
        <ele>391.9</ele>
        <time>2022-08-10T07:40:21Z</time>
      </trkpt>
      <trkpt lat="47.12349" lon="6.12137">
        <ele>391.6</ele>
        <time>2022-08-10T07:40:22Z</time>
      </trkpt>
      <trkpt lat="47.12346" lon="6.12137">
        <ele>391.2</ele>
        <time>2022-08-10T07:40:23Z</time>
      </trkpt>
      <trkpt lat="47.12343" lon="6.12137">
        <ele>391.1</ele>
        <time>2022-08-10T07:40:24Z</time>
      </trkpt>
      <trkpt lat="47.12341" lon="6.12138">
        <ele>391.2</ele>
        <time>2022-08-10T07:40:25Z</time>
      </trkpt>
      <trkpt lat="47.12338" lon="6.12139">
        <ele>391.5</ele>
        <time>2022-08-10T07:40:26Z</time>
      </trkpt>
      <trkpt lat="47.12335" lon="6.12139">
        <ele>391.7</ele>
        <time>2022-08-10T07:40:27Z</time>
      </trkpt>
      <trkpt lat="47.12332" lon="6.1214">
        <ele>392.3</ele>
        <time>2022-08-10T07:40:28Z</time>
      </trkpt>
      <trkpt lat="47.12329" lon="6.12141">
        <ele>392.9</ele>
        <time>2022-08-10T07:40:29Z</time>
      </trkpt>
      <trkpt lat="47.12326" lon="6.12142">
        <ele>393.2</ele>
        <time>2022-08-10T07:40:30Z</time>
      </trkpt>
      <trkpt lat="47.12324" lon="6.12143">
        <ele>393.3</ele>
        <time>2022-08-10T07:40:31Z</time>
      </trkpt>
      <trkpt lat="47.12322" lon="6.12144">
        <ele>392.9</ele>
        <time>2022-08-10T07:40:32Z</time>
      </trkpt>
      <trkpt lat="47.12319" lon="6.12144">
        <ele>392.3</ele>
        <time>2022-08-10T07:40:33Z</time>
      </trkpt>
      <trkpt lat="47.12317" lon="6.12145">
        <ele>391.4</ele>
        <time>2022-08-10T07:40:34Z</time>
      </trkpt>
      <trkpt lat="47.12314" lon="6.12145">
        <ele>390.2</ele>
        <time>2022-08-10T07:40:35Z</time>
      </trkpt>
      <trkpt lat="47.12312" lon="6.12147">
        <ele>389.2</ele>
        <time>2022-08-10T07:40:36Z</time>
      </trkpt>
      <trkpt lat="47.12311" lon="6.12148">
        <ele>388.2</ele>
        <time>2022-08-10T07:40:37Z</time>
      </trkpt>
      <trkpt lat="47.12311" lon="6.1215">
        <ele>387.4</ele>
        <time>2022-08-10T07:40:38Z</time>
      </trkpt>
      <trkpt lat="47.12311" lon="6.12151">
        <ele>386.8</ele>
        <time>2022-08-10T07:40:39Z</time>
      </trkpt>
      <trkpt lat="47.12313" lon="6.12151">
        <ele>387.1</ele>
        <time>2022-08-10T07:40:40Z</time>
      </trkpt>
      <trkpt lat="47.12316" lon="6.12152">
        <ele>387.5</ele>
        <time>2022-08-10T07:40:41Z</time>
      </trkpt>
      <trkpt lat="47.12319" lon="6.12152">
        <ele>388.3</ele>
        <time>2022-08-10T07:40:42Z</time>
      </trkpt>
      <trkpt lat="47.12322" lon="6.12153">
        <ele>388.9</ele>
        <time>2022-08-10T07:40:43Z</time>
      </trkpt>
      <trkpt lat="47.12326" lon="6.12155">
        <ele>389.7</ele>
        <time>2022-08-10T07:40:44Z</time>
      </trkpt>
      <trkpt lat="47.1233" lon="6.12157">
        <ele>390.2</ele>
        <time>2022-08-10T07:40:45Z</time>
      </trkpt>
      <trkpt lat="47.12334" lon="6.12159">
        <ele>390.9</ele>
        <time>2022-08-10T07:40:46Z</time>
      </trkpt>
      <trkpt lat="47.12339" lon="6.12162">
        <ele>391.6</ele>
        <time>2022-08-10T07:40:47Z</time>
      </trkpt>
      <trkpt lat="47.12343" lon="6.12165">
        <ele>392.6</ele>
        <time>2022-08-10T07:40:48Z</time>
      </trkpt>
      <trkpt lat="47.12348" lon="6.12168">
        <ele>393.4</ele>
        <time>2022-08-10T07:40:49Z</time>
      </trkpt>
      <trkpt lat="47.12352" lon="6.12171">
        <ele>394</ele>
        <time>2022-08-10T07:40:50Z</time>
      </trkpt>
      <trkpt lat="47.12357" lon="6.12174">
        <ele>394.8</ele>
        <time>2022-08-10T07:40:51Z</time>
      </trkpt>
      <trkpt lat="47.12362" lon="6.12177">
        <ele>395.9</ele>
        <time>2022-08-10T07:40:52Z</time>
      </trkpt>
      <trkpt lat="47.12366" lon="6.1218">
        <ele>397.1</ele>
        <time>2022-08-10T07:40:53Z</time>
      </trkpt>
      <trkpt lat="47.12371" lon="6.12183">
        <ele>398.1</ele>
        <time>2022-08-10T07:40:54Z</time>
      </trkpt>
      <trkpt lat="47.12376" lon="6.12187">
        <ele>398.6</ele>
        <time>2022-08-10T07:40:55Z</time>
      </trkpt>
      <trkpt lat="47.12381" lon="6.1219">
        <ele>399.3</ele>
        <time>2022-08-10T07:40:56Z</time>
      </trkpt>
      <trkpt lat="47.12386" lon="6.12193">
        <ele>400.1</ele>
        <time>2022-08-10T07:40:57Z</time>
      </trkpt>
      <trkpt lat="47.12391" lon="6.12197">
        <ele>400.9</ele>
        <time>2022-08-10T07:40:58Z</time>
      </trkpt>
      <trkpt lat="47.12395" lon="6.122">
        <ele>401.8</ele>
        <time>2022-08-10T07:40:59Z</time>
      </trkpt>
      <trkpt lat="47.124" lon="6.12204">
        <ele>402.3</ele>
        <time>2022-08-10T07:41:00Z</time>
      </trkpt>
      <trkpt lat="47.12404" lon="6.12209">
        <ele>403.1</ele>
        <time>2022-08-10T07:41:01Z</time>
      </trkpt>
      <trkpt lat="47.12408" lon="6.12213">
        <ele>403.7</ele>
        <time>2022-08-10T07:41:02Z</time>
      </trkpt>
      <trkpt lat="47.12412" lon="6.12217">
        <ele>404.2</ele>
        <time>2022-08-10T07:41:03Z</time>
      </trkpt>
      <trkpt lat="47.12416" lon="6.12222">
        <ele>404.6</ele>
        <time>2022-08-10T07:41:04Z</time>
      </trkpt>
      <trkpt lat="47.1242" lon="6.12227">
        <ele>405.1</ele>
        <time>2022-08-10T07:41:05Z</time>
      </trkpt>
      <trkpt lat="47.12425" lon="6.12232">
        <ele>405.4</ele>
        <time>2022-08-10T07:41:06Z</time>
      </trkpt>
      <trkpt lat="47.12429" lon="6.12236">
        <ele>405.7</ele>
        <time>2022-08-10T07:41:07Z</time>
      </trkpt>
      <trkpt lat="47.12433" lon="6.12241">
        <ele>405.7</ele>
        <time>2022-08-10T07:41:08Z</time>
      </trkpt>
      <trkpt lat="47.12437" lon="6.12246">
        <ele>405.7</ele>
        <time>2022-08-10T07:41:09Z</time>
      </trkpt>
      <trkpt lat="47.12441" lon="6.1225">
        <ele>405.6</ele>
        <time>2022-08-10T07:41:10Z</time>
      </trkpt>
      <trkpt lat="47.12444" lon="6.12254">
        <ele>405.9</ele>
        <time>2022-08-10T07:41:11Z</time>
      </trkpt>
      <trkpt lat="47.12448" lon="6.12259">
        <ele>406.1</ele>
        <time>2022-08-10T07:41:12Z</time>
      </trkpt>
      <trkpt lat="47.12452" lon="6.12263">
        <ele>406.2</ele>
        <time>2022-08-10T07:41:13Z</time>
      </trkpt>
      <trkpt lat="47.12456" lon="6.12268">
        <ele>406.3</ele>
        <time>2022-08-10T07:41:14Z</time>
      </trkpt>
      <trkpt lat="47.1246" lon="6.12273">
        <ele>406.4</ele>
        <time>2022-08-10T07:41:15Z</time>
      </trkpt>
      <trkpt lat="47.12464" lon="6.12277">
        <ele>406.4</ele>
        <time>2022-08-10T07:41:16Z</time>
      </trkpt>
      <trkpt lat="47.12468" lon="6.12281">
        <ele>406.1</ele>
        <time>2022-08-10T07:41:17Z</time>
      </trkpt>
      <trkpt lat="47.12471" lon="6.12285">
        <ele>406.4</ele>
        <time>2022-08-10T07:41:18Z</time>
      </trkpt>
      <trkpt lat="47.12475" lon="6.12289">
        <ele>407</ele>
        <time>2022-08-10T07:41:19Z</time>
      </trkpt>
      <trkpt lat="47.12478" lon="6.12292">
        <ele>407.8</ele>
        <time>2022-08-10T07:41:20Z</time>
      </trkpt>
      <trkpt lat="47.12482" lon="6.12296">
        <ele>408.3</ele>
        <time>2022-08-10T07:41:21Z</time>
      </trkpt>
      <trkpt lat="47.12486" lon="6.123">
        <ele>408.4</ele>
        <time>2022-08-10T07:41:22Z</time>
      </trkpt>
      <trkpt lat="47.1249" lon="6.12303">
        <ele>409.1</ele>
        <time>2022-08-10T07:41:23Z</time>
      </trkpt>
      <trkpt lat="47.12494" lon="6.12307">
        <ele>409.6</ele>
        <time>2022-08-10T07:41:24Z</time>
      </trkpt>
      <trkpt lat="47.12498" lon="6.1231">
        <ele>410</ele>
        <time>2022-08-10T07:41:25Z</time>
      </trkpt>
      <trkpt lat="47.12501" lon="6.12314">
        <ele>410.5</ele>
        <time>2022-08-10T07:41:26Z</time>
      </trkpt>
      <trkpt lat="47.12506" lon="6.12318">
        <ele>410.9</ele>
        <time>2022-08-10T07:41:27Z</time>
      </trkpt>
      <trkpt lat="47.1251" lon="6.12321">
        <ele>411.2</ele>
        <time>2022-08-10T07:41:28Z</time>
      </trkpt>
      <trkpt lat="47.12514" lon="6.12324">
        <ele>411.9</ele>
        <time>2022-08-10T07:41:29Z</time>
      </trkpt>
      <trkpt lat="47.12518" lon="6.12327">
        <ele>412.7</ele>
        <time>2022-08-10T07:41:30Z</time>
      </trkpt>
      <trkpt lat="47.12523" lon="6.1233">
        <ele>413.3</ele>
        <time>2022-08-10T07:41:31Z</time>
      </trkpt>
      <trkpt lat="47.12527" lon="6.12333">
        <ele>414.1</ele>
        <time>2022-08-10T07:41:32Z</time>
      </trkpt>
      <trkpt lat="47.12531" lon="6.12337">
        <ele>414.8</ele>
        <time>2022-08-10T07:41:33Z</time>
      </trkpt>
      <trkpt lat="47.12535" lon="6.1234">
        <ele>415.5</ele>
        <time>2022-08-10T07:41:34Z</time>
      </trkpt>
      <trkpt lat="47.12539" lon="6.12343">
        <ele>416.5</ele>
        <time>2022-08-10T07:41:35Z</time>
      </trkpt>
      <trkpt lat="47.12543" lon="6.12346">
        <ele>417.7</ele>
        <time>2022-08-10T07:41:36Z</time>
      </trkpt>
      <trkpt lat="47.12547" lon="6.12349">
        <ele>419.2</ele>
        <time>2022-08-10T07:41:37Z</time>
      </trkpt>
      <trkpt lat="47.12551" lon="6.12352">
        <ele>420.6</ele>
        <time>2022-08-10T07:41:38Z</time>
      </trkpt>
      <trkpt lat="47.12555" lon="6.12355">
        <ele>422</ele>
        <time>2022-08-10T07:41:39Z</time>
      </trkpt>
      <trkpt lat="47.12559" lon="6.12358">
        <ele>423</ele>
        <time>2022-08-10T07:41:40Z</time>
      </trkpt>
      <trkpt lat="47.12562" lon="6.12361">
        <ele>424.2</ele>
        <time>2022-08-10T07:41:41Z</time>
      </trkpt>
      <trkpt lat="47.12566" lon="6.12364">
        <ele>424.6</ele>
        <time>2022-08-10T07:41:42Z</time>
      </trkpt>
      <trkpt lat="47.1257" lon="6.12367">
        <ele>425.4</ele>
        <time>2022-08-10T07:41:43Z</time>
      </trkpt>
      <trkpt lat="47.12574" lon="6.1237">
        <ele>426.3</ele>
        <time>2022-08-10T07:41:44Z</time>
      </trkpt>
      <trkpt lat="47.12578" lon="6.12373">
        <ele>427.2</ele>
        <time>2022-08-10T07:41:45Z</time>
      </trkpt>
      <trkpt lat="47.12582" lon="6.12376">
        <ele>428.2</ele>
        <time>2022-08-10T07:41:46Z</time>
      </trkpt>
      <trkpt lat="47.12587" lon="6.1238">
        <ele>428.5</ele>
        <time>2022-08-10T07:41:47Z</time>
      </trkpt>
      <trkpt lat="47.12591" lon="6.12382">
        <ele>428.2</ele>
        <time>2022-08-10T07:41:48Z</time>
      </trkpt>
      <trkpt lat="47.12596" lon="6.12385">
        <ele>427.8</ele>
        <time>2022-08-10T07:41:49Z</time>
      </trkpt>
      <trkpt lat="47.126" lon="6.12387">
        <ele>427.6</ele>
        <time>2022-08-10T07:41:50Z</time>
      </trkpt>
      <trkpt lat="47.12605" lon="6.12389">
        <ele>427.2</ele>
        <time>2022-08-10T07:41:51Z</time>
      </trkpt>
      <trkpt lat="47.1261" lon="6.12391">
        <ele>426.4</ele>
        <time>2022-08-10T07:41:52Z</time>
      </trkpt>
      <trkpt lat="47.12614" lon="6.12393">
        <ele>426.1</ele>
        <time>2022-08-10T07:41:53Z</time>
      </trkpt>
      <trkpt lat="47.12618" lon="6.12395">
        <ele>425.5</ele>
        <time>2022-08-10T07:41:54Z</time>
      </trkpt>
      <trkpt lat="47.12623" lon="6.12398">
        <ele>425.3</ele>
        <time>2022-08-10T07:41:55Z</time>
      </trkpt>
      <trkpt lat="47.12627" lon="6.124">
        <ele>424.9</ele>
        <time>2022-08-10T07:41:56Z</time>
      </trkpt>
      <trkpt lat="47.12631" lon="6.12402">
        <ele>424.5</ele>
        <time>2022-08-10T07:41:57Z</time>
      </trkpt>
      <trkpt lat="47.12635" lon="6.12403">
        <ele>424.1</ele>
        <time>2022-08-10T07:41:58Z</time>
      </trkpt>
      <trkpt lat="47.12639" lon="6.12405">
        <ele>425</ele>
        <time>2022-08-10T07:41:59Z</time>
      </trkpt>
      <trkpt lat="47.12643" lon="6.12407">
        <ele>424.8</ele>
        <time>2022-08-10T07:42:00Z</time>
      </trkpt>
      <trkpt lat="47.12647" lon="6.12408">
        <ele>425.2</ele>
        <time>2022-08-10T07:42:01Z</time>
      </trkpt>
      <trkpt lat="47.12651" lon="6.1241">
        <ele>425.4</ele>
        <time>2022-08-10T07:42:02Z</time>
      </trkpt>
      <trkpt lat="47.12655" lon="6.12411">
        <ele>425.4</ele>
        <time>2022-08-10T07:42:03Z</time>
      </trkpt>
      <trkpt lat="47.12659" lon="6.12413">
        <ele>424.1</ele>
        <time>2022-08-10T07:42:04Z</time>
      </trkpt>
      <trkpt lat="47.12663" lon="6.12414">
        <ele>423.3</ele>
        <time>2022-08-10T07:42:05Z</time>
      </trkpt>
      <trkpt lat="47.12668" lon="6.12414">
        <ele>422.5</ele>
        <time>2022-08-10T07:42:06Z</time>
      </trkpt>
      <trkpt lat="47.12672" lon="6.12415">
        <ele>421.4</ele>
        <time>2022-08-10T07:42:07Z</time>
      </trkpt>
      <trkpt lat="47.12676" lon="6.12416">
        <ele>420.4</ele>
        <time>2022-08-10T07:42:08Z</time>
      </trkpt>
      <trkpt lat="47.12681" lon="6.12416">
        <ele>419.1</ele>
        <time>2022-08-10T07:42:09Z</time>
      </trkpt>
      <trkpt lat="47.12685" lon="6.12416">
        <ele>418.3</ele>
        <time>2022-08-10T07:42:10Z</time>
      </trkpt>
      <trkpt lat="47.12689" lon="6.12416">
        <ele>416.9</ele>
        <time>2022-08-10T07:42:11Z</time>
      </trkpt>
      <trkpt lat="47.12694" lon="6.12416">
        <ele>415.3</ele>
        <time>2022-08-10T07:42:12Z</time>
      </trkpt>
      <trkpt lat="47.12698" lon="6.12416">
        <ele>414.4</ele>
        <time>2022-08-10T07:42:13Z</time>
      </trkpt>
      <trkpt lat="47.12702" lon="6.12417">
        <ele>413.4</ele>
        <time>2022-08-10T07:42:14Z</time>
      </trkpt>
      <trkpt lat="47.12706" lon="6.12417">
        <ele>412.7</ele>
        <time>2022-08-10T07:42:15Z</time>
      </trkpt>
      <trkpt lat="47.12709" lon="6.12417">
        <ele>412</ele>
        <time>2022-08-10T07:42:16Z</time>
      </trkpt>
      <trkpt lat="47.12712" lon="6.12417">
        <ele>411.5</ele>
        <time>2022-08-10T07:42:17Z</time>
      </trkpt>
      <trkpt lat="47.12715" lon="6.12417">
        <ele>410.8</ele>
        <time>2022-08-10T07:42:18Z</time>
      </trkpt>
      <trkpt lat="47.12718" lon="6.12418">
        <ele>410</ele>
        <time>2022-08-10T07:42:19Z</time>
      </trkpt>
      <trkpt lat="47.1272" lon="6.12419">
        <ele>409.2</ele>
        <time>2022-08-10T07:42:20Z</time>
      </trkpt>
      <trkpt lat="47.12722" lon="6.1242">
        <ele>408.4</ele>
        <time>2022-08-10T07:42:21Z</time>
      </trkpt>
      <trkpt lat="47.12723" lon="6.12421">
        <ele>407.3</ele>
        <time>2022-08-10T07:42:22Z</time>
      </trkpt>
      <trkpt lat="47.12725" lon="6.12423">
        <ele>406.4</ele>
        <time>2022-08-10T07:42:23Z</time>
      </trkpt>
      <trkpt lat="47.12727" lon="6.12425">
        <ele>405.6</ele>
        <time>2022-08-10T07:42:24Z</time>
      </trkpt>
      <trkpt lat="47.12728" lon="6.12427">
        <ele>405.2</ele>
        <time>2022-08-10T07:42:25Z</time>
      </trkpt>
      <trkpt lat="47.12729" lon="6.12429">
        <ele>405.1</ele>
        <time>2022-08-10T07:42:26Z</time>
      </trkpt>
      <trkpt lat="47.12732" lon="6.12429">
        <ele>404.8</ele>
        <time>2022-08-10T07:42:27Z</time>
      </trkpt>
      <trkpt lat="47.12735" lon="6.1243">
        <ele>404.4</ele>
        <time>2022-08-10T07:42:28Z</time>
      </trkpt>
      <trkpt lat="47.12738" lon="6.1243">
        <ele>404</ele>
        <time>2022-08-10T07:42:29Z</time>
      </trkpt>
      <trkpt lat="47.12741" lon="6.12428">
        <ele>403.9</ele>
        <time>2022-08-10T07:42:30Z</time>
      </trkpt>
      <trkpt lat="47.12744" lon="6.12426">
        <ele>403.8</ele>
        <time>2022-08-10T07:42:31Z</time>
      </trkpt>
      <trkpt lat="47.12748" lon="6.12424">
        <ele>403.4</ele>
        <time>2022-08-10T07:42:32Z</time>
      </trkpt>
      <trkpt lat="47.12752" lon="6.12422">
        <ele>402.8</ele>
        <time>2022-08-10T07:42:33Z</time>
      </trkpt>
      <trkpt lat="47.12756" lon="6.1242">
        <ele>402.1</ele>
        <time>2022-08-10T07:42:34Z</time>
      </trkpt>
      <trkpt lat="47.12759" lon="6.12418">
        <ele>401.7</ele>
        <time>2022-08-10T07:42:35Z</time>
      </trkpt>
      <trkpt lat="47.12763" lon="6.12417">
        <ele>401.8</ele>
        <time>2022-08-10T07:42:36Z</time>
      </trkpt>
      <trkpt lat="47.12767" lon="6.12418">
        <ele>402</ele>
        <time>2022-08-10T07:42:37Z</time>
      </trkpt>
      <trkpt lat="47.1277" lon="6.12419">
        <ele>401.9</ele>
        <time>2022-08-10T07:42:38Z</time>
      </trkpt>
      <trkpt lat="47.12774" lon="6.12421">
        <ele>402</ele>
        <time>2022-08-10T07:42:39Z</time>
      </trkpt>
      <trkpt lat="47.12777" lon="6.12423">
        <ele>402.2</ele>
        <time>2022-08-10T07:42:40Z</time>
      </trkpt>
      <trkpt lat="47.12781" lon="6.12424">
        <ele>402.6</ele>
        <time>2022-08-10T07:42:41Z</time>
      </trkpt>
      <trkpt lat="47.12785" lon="6.12426">
        <ele>403.1</ele>
        <time>2022-08-10T07:42:42Z</time>
      </trkpt>
      <trkpt lat="47.12789" lon="6.12428">
        <ele>403.6</ele>
        <time>2022-08-10T07:42:43Z</time>
      </trkpt>
      <trkpt lat="47.12793" lon="6.1243">
        <ele>404.3</ele>
        <time>2022-08-10T07:42:44Z</time>
      </trkpt>
      <trkpt lat="47.12797" lon="6.12432">
        <ele>405</ele>
        <time>2022-08-10T07:42:45Z</time>
      </trkpt>
      <trkpt lat="47.12801" lon="6.12435">
        <ele>405.6</ele>
        <time>2022-08-10T07:42:46Z</time>
      </trkpt>
      <trkpt lat="47.12805" lon="6.12437">
        <ele>406.4</ele>
        <time>2022-08-10T07:42:47Z</time>
      </trkpt>
      <trkpt lat="47.12809" lon="6.1244">
        <ele>407</ele>
        <time>2022-08-10T07:42:48Z</time>
      </trkpt>
      <trkpt lat="47.12813" lon="6.12442">
        <ele>408</ele>
        <time>2022-08-10T07:42:49Z</time>
      </trkpt>
      <trkpt lat="47.12816" lon="6.12445">
        <ele>409.3</ele>
        <time>2022-08-10T07:42:50Z</time>
      </trkpt>
      <trkpt lat="47.1282" lon="6.12447">
        <ele>410.1</ele>
        <time>2022-08-10T07:42:51Z</time>
      </trkpt>
      <trkpt lat="47.12824" lon="6.1245">
        <ele>411.2</ele>
        <time>2022-08-10T07:42:52Z</time>
      </trkpt>
      <trkpt lat="47.12827" lon="6.12452">
        <ele>412.6</ele>
        <time>2022-08-10T07:42:53Z</time>
      </trkpt>
      <trkpt lat="47.12831" lon="6.12455">
        <ele>413.8</ele>
        <time>2022-08-10T07:42:54Z</time>
      </trkpt>
      <trkpt lat="47.12834" lon="6.12458">
        <ele>415</ele>
        <time>2022-08-10T07:42:55Z</time>
      </trkpt>
      <trkpt lat="47.12838" lon="6.12461">
        <ele>416.3</ele>
        <time>2022-08-10T07:42:56Z</time>
      </trkpt>
      <trkpt lat="47.12841" lon="6.12465">
        <ele>417.2</ele>
        <time>2022-08-10T07:42:57Z</time>
      </trkpt>
      <trkpt lat="47.12844" lon="6.12468">
        <ele>418.3</ele>
        <time>2022-08-10T07:42:58Z</time>
      </trkpt>
      <trkpt lat="47.12848" lon="6.12471">
        <ele>418.9</ele>
        <time>2022-08-10T07:42:59Z</time>
      </trkpt>
      <trkpt lat="47.12851" lon="6.12475">
        <ele>419.7</ele>
        <time>2022-08-10T07:43:00Z</time>
      </trkpt>
      <trkpt lat="47.12855" lon="6.12478">
        <ele>420.2</ele>
        <time>2022-08-10T07:43:01Z</time>
      </trkpt>
      <trkpt lat="47.12859" lon="6.12481">
        <ele>420.3</ele>
        <time>2022-08-10T07:43:02Z</time>
      </trkpt>
      <trkpt lat="47.12862" lon="6.12485">
        <ele>420.5</ele>
        <time>2022-08-10T07:43:03Z</time>
      </trkpt>
      <trkpt lat="47.12866" lon="6.12489">
        <ele>420.3</ele>
        <time>2022-08-10T07:43:04Z</time>
      </trkpt>
      <trkpt lat="47.1287" lon="6.12492">
        <ele>420</ele>
        <time>2022-08-10T07:43:05Z</time>
      </trkpt>
      <trkpt lat="47.12873" lon="6.12495">
        <ele>419.5</ele>
        <time>2022-08-10T07:43:06Z</time>
      </trkpt>
      <trkpt lat="47.12876" lon="6.12499">
        <ele>419.4</ele>
        <time>2022-08-10T07:43:07Z</time>
      </trkpt>
      <trkpt lat="47.12879" lon="6.12502">
        <ele>418.7</ele>
        <time>2022-08-10T07:43:08Z</time>
      </trkpt>
      <trkpt lat="47.12882" lon="6.12506">
        <ele>417.8</ele>
        <time>2022-08-10T07:43:09Z</time>
      </trkpt>
      <trkpt lat="47.12885" lon="6.1251">
        <ele>417.4</ele>
        <time>2022-08-10T07:43:10Z</time>
      </trkpt>
      <trkpt lat="47.12888" lon="6.12514">
        <ele>416.9</ele>
        <time>2022-08-10T07:43:11Z</time>
      </trkpt>
      <trkpt lat="47.12891" lon="6.12518">
        <ele>416.5</ele>
        <time>2022-08-10T07:43:12Z</time>
      </trkpt>
      <trkpt lat="47.12894" lon="6.12523">
        <ele>416.2</ele>
        <time>2022-08-10T07:43:13Z</time>
      </trkpt>
      <trkpt lat="47.12897" lon="6.12527">
        <ele>415.4</ele>
        <time>2022-08-10T07:43:14Z</time>
      </trkpt>
      <trkpt lat="47.129" lon="6.1253">
        <ele>415.2</ele>
        <time>2022-08-10T07:43:15Z</time>
      </trkpt>
      <trkpt lat="47.12903" lon="6.12534">
        <ele>414.4</ele>
        <time>2022-08-10T07:43:16Z</time>
      </trkpt>
      <trkpt lat="47.12906" lon="6.12537">
        <ele>414.2</ele>
        <time>2022-08-10T07:43:17Z</time>
      </trkpt>
      <trkpt lat="47.12908" lon="6.12541">
        <ele>413.9</ele>
        <time>2022-08-10T07:43:18Z</time>
      </trkpt>
      <trkpt lat="47.12911" lon="6.12546">
        <ele>413.6</ele>
        <time>2022-08-10T07:43:19Z</time>
      </trkpt>
      <trkpt lat="47.12914" lon="6.12551">
        <ele>414</ele>
        <time>2022-08-10T07:43:20Z</time>
      </trkpt>
      <trkpt lat="47.12918" lon="6.12556">
        <ele>414.1</ele>
        <time>2022-08-10T07:43:21Z</time>
      </trkpt>
      <trkpt lat="47.12921" lon="6.12561">
        <ele>414.5</ele>
        <time>2022-08-10T07:43:22Z</time>
      </trkpt>
      <trkpt lat="47.12924" lon="6.12566">
        <ele>414.3</ele>
        <time>2022-08-10T07:43:23Z</time>
      </trkpt>
      <trkpt lat="47.12927" lon="6.12571">
        <ele>413.9</ele>
        <time>2022-08-10T07:43:24Z</time>
      </trkpt>
      <trkpt lat="47.12929" lon="6.12576">
        <ele>413.6</ele>
        <time>2022-08-10T07:43:25Z</time>
      </trkpt>
      <trkpt lat="47.12932" lon="6.12581">
        <ele>413.3</ele>
        <time>2022-08-10T07:43:26Z</time>
      </trkpt>
      <trkpt lat="47.12935" lon="6.12586">
        <ele>413.3</ele>
        <time>2022-08-10T07:43:27Z</time>
      </trkpt>
      <trkpt lat="47.12938" lon="6.1259">
        <ele>413.2</ele>
        <time>2022-08-10T07:43:28Z</time>
      </trkpt>
      <trkpt lat="47.1294" lon="6.12595">
        <ele>413.3</ele>
        <time>2022-08-10T07:43:29Z</time>
      </trkpt>
      <trkpt lat="47.12943" lon="6.126">
        <ele>413.4</ele>
        <time>2022-08-10T07:43:30Z</time>
      </trkpt>
      <trkpt lat="47.12945" lon="6.12604">
        <ele>413.7</ele>
        <time>2022-08-10T07:43:31Z</time>
      </trkpt>
      <trkpt lat="47.12948" lon="6.12608">
        <ele>413.9</ele>
        <time>2022-08-10T07:43:32Z</time>
      </trkpt>
      <trkpt lat="47.12949" lon="6.12613">
        <ele>414.4</ele>
        <time>2022-08-10T07:43:33Z</time>
      </trkpt>
      <trkpt lat="47.12951" lon="6.12617">
        <ele>414.7</ele>
        <time>2022-08-10T07:43:34Z</time>
      </trkpt>
      <trkpt lat="47.12953" lon="6.12621">
        <ele>414.9</ele>
        <time>2022-08-10T07:43:35Z</time>
      </trkpt>
      <trkpt lat="47.12955" lon="6.12625">
        <ele>415.6</ele>
        <time>2022-08-10T07:43:36Z</time>
      </trkpt>
      <trkpt lat="47.12958" lon="6.12628">
        <ele>416.2</ele>
        <time>2022-08-10T07:43:37Z</time>
      </trkpt>
      <trkpt lat="47.1296" lon="6.12633">
        <ele>416.4</ele>
        <time>2022-08-10T07:43:38Z</time>
      </trkpt>
      <trkpt lat="47.12963" lon="6.12637">
        <ele>416.7</ele>
        <time>2022-08-10T07:43:39Z</time>
      </trkpt>
      <trkpt lat="47.12966" lon="6.12642">
        <ele>416.1</ele>
        <time>2022-08-10T07:43:40Z</time>
      </trkpt>
      <trkpt lat="47.12969" lon="6.12646">
        <ele>416</ele>
        <time>2022-08-10T07:43:41Z</time>
      </trkpt>
      <trkpt lat="47.12972" lon="6.12651">
        <ele>416.2</ele>
        <time>2022-08-10T07:43:42Z</time>
      </trkpt>
      <trkpt lat="47.12975" lon="6.12656">
        <ele>416.3</ele>
        <time>2022-08-10T07:43:43Z</time>
      </trkpt>
      <trkpt lat="47.12978" lon="6.1266">
        <ele>415.8</ele>
        <time>2022-08-10T07:43:44Z</time>
      </trkpt>
      <trkpt lat="47.12982" lon="6.12665">
        <ele>415.8</ele>
        <time>2022-08-10T07:43:45Z</time>
      </trkpt>
      <trkpt lat="47.12985" lon="6.12669">
        <ele>415.7</ele>
        <time>2022-08-10T07:43:46Z</time>
      </trkpt>
      <trkpt lat="47.12989" lon="6.12674">
        <ele>415.6</ele>
        <time>2022-08-10T07:43:47Z</time>
      </trkpt>
      <trkpt lat="47.12991" lon="6.12678">
        <ele>415.6</ele>
        <time>2022-08-10T07:43:48Z</time>
      </trkpt>
      <trkpt lat="47.12994" lon="6.12682">
        <ele>416</ele>
        <time>2022-08-10T07:43:49Z</time>
      </trkpt>
      <trkpt lat="47.12997" lon="6.12686">
        <ele>416.2</ele>
        <time>2022-08-10T07:43:50Z</time>
      </trkpt>
      <trkpt lat="47.13" lon="6.1269">
        <ele>416.8</ele>
        <time>2022-08-10T07:43:51Z</time>
      </trkpt>
      <trkpt lat="47.13004" lon="6.12695">
        <ele>417.2</ele>
        <time>2022-08-10T07:43:52Z</time>
      </trkpt>
      <trkpt lat="47.13007" lon="6.12699">
        <ele>417.5</ele>
        <time>2022-08-10T07:43:53Z</time>
      </trkpt>
      <trkpt lat="47.1301" lon="6.12704">
        <ele>417.7</ele>
        <time>2022-08-10T07:43:54Z</time>
      </trkpt>
      <trkpt lat="47.13013" lon="6.12709">
        <ele>418.1</ele>
        <time>2022-08-10T07:43:55Z</time>
      </trkpt>
      <trkpt lat="47.13017" lon="6.12714">
        <ele>417.8</ele>
        <time>2022-08-10T07:43:56Z</time>
      </trkpt>
      <trkpt lat="47.13021" lon="6.12718">
        <ele>417.8</ele>
        <time>2022-08-10T07:43:57Z</time>
      </trkpt>
      <trkpt lat="47.13024" lon="6.12723">
        <ele>417.7</ele>
        <time>2022-08-10T07:43:58Z</time>
      </trkpt>
      <trkpt lat="47.13028" lon="6.12727">
        <ele>418.2</ele>
        <time>2022-08-10T07:43:59Z</time>
      </trkpt>
      <trkpt lat="47.13031" lon="6.12732">
        <ele>418.4</ele>
        <time>2022-08-10T07:44:00Z</time>
      </trkpt>
      <trkpt lat="47.13035" lon="6.12736">
        <ele>418.5</ele>
        <time>2022-08-10T07:44:01Z</time>
      </trkpt>
      <trkpt lat="47.13039" lon="6.12741">
        <ele>418.7</ele>
        <time>2022-08-10T07:44:02Z</time>
      </trkpt>
      <trkpt lat="47.13043" lon="6.12745">
        <ele>418.9</ele>
        <time>2022-08-10T07:44:03Z</time>
      </trkpt>
      <trkpt lat="47.13046" lon="6.1275">
        <ele>419.2</ele>
        <time>2022-08-10T07:44:04Z</time>
      </trkpt>
      <trkpt lat="47.1305" lon="6.12754">
        <ele>419.4</ele>
        <time>2022-08-10T07:44:05Z</time>
      </trkpt>
      <trkpt lat="47.13053" lon="6.12758">
        <ele>419.9</ele>
        <time>2022-08-10T07:44:06Z</time>
      </trkpt>
      <trkpt lat="47.13059" lon="6.12767">
        <ele>420.7</ele>
        <time>2022-08-10T07:44:08Z</time>
      </trkpt>
      <trkpt lat="47.13063" lon="6.12771">
        <ele>420.8</ele>
        <time>2022-08-10T07:44:09Z</time>
      </trkpt>
      <trkpt lat="47.13067" lon="6.12776">
        <ele>421</ele>
        <time>2022-08-10T07:44:10Z</time>
      </trkpt>
      <trkpt lat="47.1307" lon="6.1278">
        <ele>420.8</ele>
        <time>2022-08-10T07:44:11Z</time>
      </trkpt>
      <trkpt lat="47.13074" lon="6.12785">
        <ele>421.2</ele>
        <time>2022-08-10T07:44:12Z</time>
      </trkpt>
      <trkpt lat="47.13077" lon="6.12789">
        <ele>421.4</ele>
        <time>2022-08-10T07:44:13Z</time>
      </trkpt>
      <trkpt lat="47.13081" lon="6.12793">
        <ele>421.8</ele>
        <time>2022-08-10T07:44:14Z</time>
      </trkpt>
      <trkpt lat="47.13084" lon="6.12797">
        <ele>422.4</ele>
        <time>2022-08-10T07:44:15Z</time>
      </trkpt>
      <trkpt lat="47.13087" lon="6.128">
        <ele>422</ele>
        <time>2022-08-10T07:44:16Z</time>
      </trkpt>
      <trkpt lat="47.13091" lon="6.12804">
        <ele>421.6</ele>
        <time>2022-08-10T07:44:17Z</time>
      </trkpt>
      <trkpt lat="47.13095" lon="6.12808">
        <ele>420.3</ele>
        <time>2022-08-10T07:44:18Z</time>
      </trkpt>
      <trkpt lat="47.13098" lon="6.12812">
        <ele>419.4</ele>
        <time>2022-08-10T07:44:19Z</time>
      </trkpt>
      <trkpt lat="47.13102" lon="6.12816">
        <ele>419.5</ele>
        <time>2022-08-10T07:44:20Z</time>
      </trkpt>
      <trkpt lat="47.13105" lon="6.1282">
        <ele>419.8</ele>
        <time>2022-08-10T07:44:21Z</time>
      </trkpt>
      <trkpt lat="47.13109" lon="6.12824">
        <ele>420</ele>
        <time>2022-08-10T07:44:22Z</time>
      </trkpt>
      <trkpt lat="47.13112" lon="6.12827">
        <ele>420.3</ele>
        <time>2022-08-10T07:44:23Z</time>
      </trkpt>
      <trkpt lat="47.13115" lon="6.12831">
        <ele>420.5</ele>
        <time>2022-08-10T07:44:24Z</time>
      </trkpt>
      <trkpt lat="47.13119" lon="6.12834">
        <ele>420.7</ele>
        <time>2022-08-10T07:44:25Z</time>
      </trkpt>
      <trkpt lat="47.13123" lon="6.12837">
        <ele>420.9</ele>
        <time>2022-08-10T07:44:26Z</time>
      </trkpt>
      <trkpt lat="47.13127" lon="6.1284">
        <ele>421.4</ele>
        <time>2022-08-10T07:44:27Z</time>
      </trkpt>
      <trkpt lat="47.13131" lon="6.12843">
        <ele>421.5</ele>
        <time>2022-08-10T07:44:28Z</time>
      </trkpt>
      <trkpt lat="47.13134" lon="6.12846">
        <ele>421.7</ele>
        <time>2022-08-10T07:44:29Z</time>
      </trkpt>
      <trkpt lat="47.13137" lon="6.12849">
        <ele>421.8</ele>
        <time>2022-08-10T07:44:30Z</time>
      </trkpt>
      <trkpt lat="47.1314" lon="6.12852">
        <ele>421.9</ele>
        <time>2022-08-10T07:44:31Z</time>
      </trkpt>
      <trkpt lat="47.13143" lon="6.12855">
        <ele>422.1</ele>
        <time>2022-08-10T07:44:32Z</time>
      </trkpt>
      <trkpt lat="47.13146" lon="6.12858">
        <ele>422.4</ele>
        <time>2022-08-10T07:44:33Z</time>
      </trkpt>
      <trkpt lat="47.13149" lon="6.12861">
        <ele>422.5</ele>
        <time>2022-08-10T07:44:34Z</time>
      </trkpt>
      <trkpt lat="47.13153" lon="6.12863">
        <ele>422.6</ele>
        <time>2022-08-10T07:44:35Z</time>
      </trkpt>
      <trkpt lat="47.13157" lon="6.12865">
        <ele>422.9</ele>
        <time>2022-08-10T07:44:36Z</time>
      </trkpt>
      <trkpt lat="47.1316" lon="6.12867">
        <ele>423.2</ele>
        <time>2022-08-10T07:44:37Z</time>
      </trkpt>
      <trkpt lat="47.13164" lon="6.12869">
        <ele>423.5</ele>
        <time>2022-08-10T07:44:38Z</time>
      </trkpt>
      <trkpt lat="47.13168" lon="6.12871">
        <ele>423.8</ele>
        <time>2022-08-10T07:44:39Z</time>
      </trkpt>
      <trkpt lat="47.13172" lon="6.12872">
        <ele>424.1</ele>
        <time>2022-08-10T07:44:40Z</time>
      </trkpt>
      <trkpt lat="47.13176" lon="6.12873">
        <ele>424.1</ele>
        <time>2022-08-10T07:44:41Z</time>
      </trkpt>
      <trkpt lat="47.1318" lon="6.12874">
        <ele>424.4</ele>
        <time>2022-08-10T07:44:42Z</time>
      </trkpt>
      <trkpt lat="47.13184" lon="6.12875">
        <ele>424.8</ele>
        <time>2022-08-10T07:44:43Z</time>
      </trkpt>
      <trkpt lat="47.13187" lon="6.12876">
        <ele>425.6</ele>
        <time>2022-08-10T07:44:44Z</time>
      </trkpt>
      <trkpt lat="47.1319" lon="6.12877">
        <ele>426.4</ele>
        <time>2022-08-10T07:44:45Z</time>
      </trkpt>
      <trkpt lat="47.13194" lon="6.1288">
        <ele>426.7</ele>
        <time>2022-08-10T07:44:46Z</time>
      </trkpt>
      <trkpt lat="47.13199" lon="6.12882">
        <ele>427.7</ele>
        <time>2022-08-10T07:44:47Z</time>
      </trkpt>
      <trkpt lat="47.13204" lon="6.12884">
        <ele>427.6</ele>
        <time>2022-08-10T07:44:48Z</time>
      </trkpt>
      <trkpt lat="47.13209" lon="6.12886">
        <ele>426.8</ele>
        <time>2022-08-10T07:44:49Z</time>
      </trkpt>
      <trkpt lat="47.13214" lon="6.12887">
        <ele>426.5</ele>
        <time>2022-08-10T07:44:50Z</time>
      </trkpt>
      <trkpt lat="47.13219" lon="6.12889">
        <ele>426.2</ele>
        <time>2022-08-10T07:44:51Z</time>
      </trkpt>
      <trkpt lat="47.13224" lon="6.12891">
        <ele>425.9</ele>
        <time>2022-08-10T07:44:52Z</time>
      </trkpt>
      <trkpt lat="47.13228" lon="6.12893">
        <ele>426.1</ele>
        <time>2022-08-10T07:44:53Z</time>
      </trkpt>
      <trkpt lat="47.13232" lon="6.12894">
        <ele>426.2</ele>
        <time>2022-08-10T07:44:54Z</time>
      </trkpt>
      <trkpt lat="47.13237" lon="6.12895">
        <ele>427.1</ele>
        <time>2022-08-10T07:44:55Z</time>
      </trkpt>
      <trkpt lat="47.13241" lon="6.12898">
        <ele>427.7</ele>
        <time>2022-08-10T07:44:56Z</time>
      </trkpt>
      <trkpt lat="47.13246" lon="6.12899">
        <ele>428.3</ele>
        <time>2022-08-10T07:44:57Z</time>
      </trkpt>
      <trkpt lat="47.13251" lon="6.12901">
        <ele>428.9</ele>
        <time>2022-08-10T07:44:58Z</time>
      </trkpt>
      <trkpt lat="47.13255" lon="6.12904">
        <ele>429.4</ele>
        <time>2022-08-10T07:44:59Z</time>
      </trkpt>
      <trkpt lat="47.1326" lon="6.12906">
        <ele>429.8</ele>
        <time>2022-08-10T07:45:00Z</time>
      </trkpt>
      <trkpt lat="47.13265" lon="6.12908">
        <ele>430.6</ele>
        <time>2022-08-10T07:45:01Z</time>
      </trkpt>
      <trkpt lat="47.13269" lon="6.1291">
        <ele>431</ele>
        <time>2022-08-10T07:45:02Z</time>
      </trkpt>
      <trkpt lat="47.13274" lon="6.12911">
        <ele>430.6</ele>
        <time>2022-08-10T07:45:03Z</time>
      </trkpt>
      <trkpt lat="47.13279" lon="6.12913">
        <ele>430.2</ele>
        <time>2022-08-10T07:45:04Z</time>
      </trkpt>
      <trkpt lat="47.13283" lon="6.12916">
        <ele>430.1</ele>
        <time>2022-08-10T07:45:05Z</time>
      </trkpt>
      <trkpt lat="47.13288" lon="6.12919">
        <ele>430.3</ele>
        <time>2022-08-10T07:45:06Z</time>
      </trkpt>
      <trkpt lat="47.13292" lon="6.12922">
        <ele>430.4</ele>
        <time>2022-08-10T07:45:07Z</time>
      </trkpt>
      <trkpt lat="47.13297" lon="6.12925">
        <ele>430.9</ele>
        <time>2022-08-10T07:45:08Z</time>
      </trkpt>
      <trkpt lat="47.13301" lon="6.12928">
        <ele>430.9</ele>
        <time>2022-08-10T07:45:09Z</time>
      </trkpt>
      <trkpt lat="47.13305" lon="6.12931">
        <ele>431.6</ele>
        <time>2022-08-10T07:45:10Z</time>
      </trkpt>
      <trkpt lat="47.13309" lon="6.12935">
        <ele>431.7</ele>
        <time>2022-08-10T07:45:11Z</time>
      </trkpt>
      <trkpt lat="47.13313" lon="6.12938">
        <ele>431.8</ele>
        <time>2022-08-10T07:45:12Z</time>
      </trkpt>
      <trkpt lat="47.13317" lon="6.12942">
        <ele>431.5</ele>
        <time>2022-08-10T07:45:13Z</time>
      </trkpt>
      <trkpt lat="47.13321" lon="6.12945">
        <ele>431.3</ele>
        <time>2022-08-10T07:45:14Z</time>
      </trkpt>
      <trkpt lat="47.13325" lon="6.12949">
        <ele>431.4</ele>
        <time>2022-08-10T07:45:15Z</time>
      </trkpt>
      <trkpt lat="47.13328" lon="6.12952">
        <ele>431.3</ele>
        <time>2022-08-10T07:45:16Z</time>
      </trkpt>
      <trkpt lat="47.13331" lon="6.12956">
        <ele>431.8</ele>
        <time>2022-08-10T07:45:17Z</time>
      </trkpt>
      <trkpt lat="47.13335" lon="6.12959">
        <ele>431.8</ele>
        <time>2022-08-10T07:45:18Z</time>
      </trkpt>
      <trkpt lat="47.13339" lon="6.12963">
        <ele>431.7</ele>
        <time>2022-08-10T07:45:19Z</time>
      </trkpt>
      <trkpt lat="47.13343" lon="6.12966">
        <ele>431.9</ele>
        <time>2022-08-10T07:45:20Z</time>
      </trkpt>
      <trkpt lat="47.13346" lon="6.12969">
        <ele>431.7</ele>
        <time>2022-08-10T07:45:21Z</time>
      </trkpt>
      <trkpt lat="47.13349" lon="6.12973">
        <ele>431.5</ele>
        <time>2022-08-10T07:45:22Z</time>
      </trkpt>
      <trkpt lat="47.13352" lon="6.12977">
        <ele>431.2</ele>
        <time>2022-08-10T07:45:23Z</time>
      </trkpt>
      <trkpt lat="47.13355" lon="6.1298">
        <ele>431.1</ele>
        <time>2022-08-10T07:45:24Z</time>
      </trkpt>
      <trkpt lat="47.13357" lon="6.12982">
        <ele>431.2</ele>
        <time>2022-08-10T07:45:25Z</time>
      </trkpt>
      <trkpt lat="47.13359" lon="6.12984">
        <ele>431.5</ele>
        <time>2022-08-10T07:45:26Z</time>
      </trkpt>
      <trkpt lat="47.1336" lon="6.12986">
        <ele>431.9</ele>
        <time>2022-08-10T07:45:27Z</time>
      </trkpt>
      <trkpt lat="47.13362" lon="6.12989">
        <ele>432</ele>
        <time>2022-08-10T07:45:28Z</time>
      </trkpt>
      <trkpt lat="47.13364" lon="6.12993">
        <ele>432.6</ele>
        <time>2022-08-10T07:45:29Z</time>
      </trkpt>
      <trkpt lat="47.13367" lon="6.12996">
        <ele>433.1</ele>
        <time>2022-08-10T07:45:30Z</time>
      </trkpt>
      <trkpt lat="47.1337" lon="6.13">
        <ele>433.9</ele>
        <time>2022-08-10T07:45:31Z</time>
      </trkpt>
      <trkpt lat="47.13373" lon="6.13005">
        <ele>434</ele>
        <time>2022-08-10T07:45:32Z</time>
      </trkpt>
      <trkpt lat="47.13376" lon="6.13009">
        <ele>434.5</ele>
        <time>2022-08-10T07:45:33Z</time>
      </trkpt>
      <trkpt lat="47.13378" lon="6.13014">
        <ele>434.6</ele>
        <time>2022-08-10T07:45:34Z</time>
      </trkpt>
      <trkpt lat="47.13381" lon="6.13018">
        <ele>434.8</ele>
        <time>2022-08-10T07:45:35Z</time>
      </trkpt>
      <trkpt lat="47.13383" lon="6.13023">
        <ele>434.6</ele>
        <time>2022-08-10T07:45:36Z</time>
      </trkpt>
      <trkpt lat="47.13386" lon="6.13027">
        <ele>434.6</ele>
        <time>2022-08-10T07:45:37Z</time>
      </trkpt>
      <trkpt lat="47.13388" lon="6.13032">
        <ele>434.3</ele>
        <time>2022-08-10T07:45:38Z</time>
      </trkpt>
      <trkpt lat="47.13391" lon="6.13036">
        <ele>433.7</ele>
        <time>2022-08-10T07:45:39Z</time>
      </trkpt>
      <trkpt lat="47.13394" lon="6.1304">
        <ele>433.2</ele>
        <time>2022-08-10T07:45:40Z</time>
      </trkpt>
      <trkpt lat="47.13396" lon="6.13045">
        <ele>432.5</ele>
        <time>2022-08-10T07:45:41Z</time>
      </trkpt>
      <trkpt lat="47.13398" lon="6.1305">
        <ele>431.6</ele>
        <time>2022-08-10T07:45:42Z</time>
      </trkpt>
      <trkpt lat="47.13401" lon="6.13055">
        <ele>430.9</ele>
        <time>2022-08-10T07:45:43Z</time>
      </trkpt>
      <trkpt lat="47.13403" lon="6.1306">
        <ele>431</ele>
        <time>2022-08-10T07:45:44Z</time>
      </trkpt>
      <trkpt lat="47.13405" lon="6.13065">
        <ele>430.6</ele>
        <time>2022-08-10T07:45:45Z</time>
      </trkpt>
      <trkpt lat="47.13408" lon="6.1307">
        <ele>430.1</ele>
        <time>2022-08-10T07:45:46Z</time>
      </trkpt>
      <trkpt lat="47.1341" lon="6.13075">
        <ele>429.5</ele>
        <time>2022-08-10T07:45:47Z</time>
      </trkpt>
      <trkpt lat="47.13413" lon="6.1308">
        <ele>428.3</ele>
        <time>2022-08-10T07:45:48Z</time>
      </trkpt>
      <trkpt lat="47.13415" lon="6.13086">
        <ele>427.7</ele>
        <time>2022-08-10T07:45:49Z</time>
      </trkpt>
      <trkpt lat="47.13417" lon="6.13092">
        <ele>426.7</ele>
        <time>2022-08-10T07:45:50Z</time>
      </trkpt>
      <trkpt lat="47.1342" lon="6.13098">
        <ele>426</ele>
        <time>2022-08-10T07:45:51Z</time>
      </trkpt>
      <trkpt lat="47.13422" lon="6.13103">
        <ele>425.4</ele>
        <time>2022-08-10T07:45:52Z</time>
      </trkpt>
      <trkpt lat="47.13425" lon="6.13108">
        <ele>424.9</ele>
        <time>2022-08-10T07:45:53Z</time>
      </trkpt>
      <trkpt lat="47.13427" lon="6.13114">
        <ele>424.3</ele>
        <time>2022-08-10T07:45:54Z</time>
      </trkpt>
      <trkpt lat="47.1343" lon="6.13119">
        <ele>423.8</ele>
        <time>2022-08-10T07:45:55Z</time>
      </trkpt>
      <trkpt lat="47.13432" lon="6.13124">
        <ele>423.8</ele>
        <time>2022-08-10T07:45:56Z</time>
      </trkpt>
      <trkpt lat="47.13434" lon="6.13129">
        <ele>424.2</ele>
        <time>2022-08-10T07:45:57Z</time>
      </trkpt>
      <trkpt lat="47.13437" lon="6.13135">
        <ele>424.4</ele>
        <time>2022-08-10T07:45:58Z</time>
      </trkpt>
      <trkpt lat="47.13439" lon="6.1314">
        <ele>424.6</ele>
        <time>2022-08-10T07:45:59Z</time>
      </trkpt>
      <trkpt lat="47.1344" lon="6.13145">
        <ele>425.1</ele>
        <time>2022-08-10T07:46:00Z</time>
      </trkpt>
      <trkpt lat="47.13442" lon="6.1315">
        <ele>426</ele>
        <time>2022-08-10T07:46:01Z</time>
      </trkpt>
      <trkpt lat="47.13445" lon="6.13155">
        <ele>426.2</ele>
        <time>2022-08-10T07:46:02Z</time>
      </trkpt>
      <trkpt lat="47.13447" lon="6.1316">
        <ele>426.4</ele>
        <time>2022-08-10T07:46:03Z</time>
      </trkpt>
      <trkpt lat="47.1345" lon="6.13166">
        <ele>426.4</ele>
        <time>2022-08-10T07:46:04Z</time>
      </trkpt>
      <trkpt lat="47.13452" lon="6.1317">
        <ele>427.1</ele>
        <time>2022-08-10T07:46:05Z</time>
      </trkpt>
      <trkpt lat="47.13455" lon="6.13176">
        <ele>428</ele>
        <time>2022-08-10T07:46:06Z</time>
      </trkpt>
      <trkpt lat="47.13458" lon="6.13181">
        <ele>429.2</ele>
        <time>2022-08-10T07:46:07Z</time>
      </trkpt>
      <trkpt lat="47.13461" lon="6.13186">
        <ele>430.1</ele>
        <time>2022-08-10T07:46:08Z</time>
      </trkpt>
      <trkpt lat="47.13464" lon="6.13192">
        <ele>430.2</ele>
        <time>2022-08-10T07:46:09Z</time>
      </trkpt>
      <trkpt lat="47.13466" lon="6.13197">
        <ele>430.7</ele>
        <time>2022-08-10T07:46:10Z</time>
      </trkpt>
      <trkpt lat="47.13469" lon="6.13203">
        <ele>431.2</ele>
        <time>2022-08-10T07:46:11Z</time>
      </trkpt>
      <trkpt lat="47.13471" lon="6.13209">
        <ele>432</ele>
        <time>2022-08-10T07:46:12Z</time>
      </trkpt>
      <trkpt lat="47.13474" lon="6.13214">
        <ele>432.5</ele>
        <time>2022-08-10T07:46:13Z</time>
      </trkpt>
      <trkpt lat="47.13476" lon="6.13219">
        <ele>433.4</ele>
        <time>2022-08-10T07:46:14Z</time>
      </trkpt>
      <trkpt lat="47.13479" lon="6.13225">
        <ele>433.9</ele>
        <time>2022-08-10T07:46:15Z</time>
      </trkpt>
      <trkpt lat="47.13482" lon="6.1323">
        <ele>434.1</ele>
        <time>2022-08-10T07:46:16Z</time>
      </trkpt>
      <trkpt lat="47.13484" lon="6.13235">
        <ele>434.2</ele>
        <time>2022-08-10T07:46:17Z</time>
      </trkpt>
      <trkpt lat="47.13487" lon="6.13241">
        <ele>434.7</ele>
        <time>2022-08-10T07:46:18Z</time>
      </trkpt>
      <trkpt lat="47.1349" lon="6.13247">
        <ele>434.9</ele>
        <time>2022-08-10T07:46:19Z</time>
      </trkpt>
      <trkpt lat="47.13493" lon="6.13252">
        <ele>435.3</ele>
        <time>2022-08-10T07:46:20Z</time>
      </trkpt>
      <trkpt lat="47.13496" lon="6.13257">
        <ele>435.6</ele>
        <time>2022-08-10T07:46:21Z</time>
      </trkpt>
      <trkpt lat="47.13499" lon="6.13262">
        <ele>435.9</ele>
        <time>2022-08-10T07:46:22Z</time>
      </trkpt>
      <trkpt lat="47.13501" lon="6.13267">
        <ele>436.8</ele>
        <time>2022-08-10T07:46:23Z</time>
      </trkpt>
      <trkpt lat="47.13503" lon="6.13273">
        <ele>437.4</ele>
        <time>2022-08-10T07:46:24Z</time>
      </trkpt>
      <trkpt lat="47.13505" lon="6.13278">
        <ele>438.2</ele>
        <time>2022-08-10T07:46:25Z</time>
      </trkpt>
      <trkpt lat="47.13508" lon="6.13283">
        <ele>438.3</ele>
        <time>2022-08-10T07:46:26Z</time>
      </trkpt>
      <trkpt lat="47.13511" lon="6.13289">
        <ele>438</ele>
        <time>2022-08-10T07:46:27Z</time>
      </trkpt>
      <trkpt lat="47.13514" lon="6.13294">
        <ele>437.6</ele>
        <time>2022-08-10T07:46:28Z</time>
      </trkpt>
      <trkpt lat="47.13517" lon="6.133">
        <ele>437.3</ele>
        <time>2022-08-10T07:46:29Z</time>
      </trkpt>
      <trkpt lat="47.1352" lon="6.13305">
        <ele>437.1</ele>
        <time>2022-08-10T07:46:30Z</time>
      </trkpt>
      <trkpt lat="47.13523" lon="6.13311">
        <ele>436.9</ele>
        <time>2022-08-10T07:46:31Z</time>
      </trkpt>
      <trkpt lat="47.13526" lon="6.13316">
        <ele>436.4</ele>
        <time>2022-08-10T07:46:32Z</time>
      </trkpt>
      <trkpt lat="47.13529" lon="6.13321">
        <ele>436.1</ele>
        <time>2022-08-10T07:46:33Z</time>
      </trkpt>
      <trkpt lat="47.13532" lon="6.13327">
        <ele>436</ele>
        <time>2022-08-10T07:46:34Z</time>
      </trkpt>
      <trkpt lat="47.13534" lon="6.13333">
        <ele>435.6</ele>
        <time>2022-08-10T07:46:35Z</time>
      </trkpt>
      <trkpt lat="47.13537" lon="6.13338">
        <ele>435.6</ele>
        <time>2022-08-10T07:46:36Z</time>
      </trkpt>
      <trkpt lat="47.13539" lon="6.13344">
        <ele>435.1</ele>
        <time>2022-08-10T07:46:37Z</time>
      </trkpt>
      <trkpt lat="47.13542" lon="6.13349">
        <ele>435</ele>
        <time>2022-08-10T07:46:38Z</time>
      </trkpt>
      <trkpt lat="47.13545" lon="6.13355">
        <ele>435.1</ele>
        <time>2022-08-10T07:46:39Z</time>
      </trkpt>
      <trkpt lat="47.13548" lon="6.1336">
        <ele>435.2</ele>
        <time>2022-08-10T07:46:40Z</time>
      </trkpt>
      <trkpt lat="47.1355" lon="6.13366">
        <ele>435.6</ele>
        <time>2022-08-10T07:46:41Z</time>
      </trkpt>
      <trkpt lat="47.13553" lon="6.13372">
        <ele>435.4</ele>
        <time>2022-08-10T07:46:42Z</time>
      </trkpt>
      <trkpt lat="47.13555" lon="6.13377">
        <ele>434.8</ele>
        <time>2022-08-10T07:46:43Z</time>
      </trkpt>
      <trkpt lat="47.13558" lon="6.13383">
        <ele>434.2</ele>
        <time>2022-08-10T07:46:44Z</time>
      </trkpt>
      <trkpt lat="47.1356" lon="6.13389">
        <ele>433.7</ele>
        <time>2022-08-10T07:46:45Z</time>
      </trkpt>
      <trkpt lat="47.13562" lon="6.13395">
        <ele>434.3</ele>
        <time>2022-08-10T07:46:46Z</time>
      </trkpt>
      <trkpt lat="47.13565" lon="6.13401">
        <ele>434.4</ele>
        <time>2022-08-10T07:46:47Z</time>
      </trkpt>
      <trkpt lat="47.13567" lon="6.13407">
        <ele>434.4</ele>
        <time>2022-08-10T07:46:48Z</time>
      </trkpt>
      <trkpt lat="47.1357" lon="6.13413">
        <ele>433.9</ele>
        <time>2022-08-10T07:46:49Z</time>
      </trkpt>
      <trkpt lat="47.13572" lon="6.13418">
        <ele>431</ele>
        <time>2022-08-10T07:46:50Z</time>
      </trkpt>
      <trkpt lat="47.13574" lon="6.13424">
        <ele>430.3</ele>
        <time>2022-08-10T07:46:51Z</time>
      </trkpt>
      <trkpt lat="47.13576" lon="6.13431">
        <ele>429.9</ele>
        <time>2022-08-10T07:46:52Z</time>
      </trkpt>
      <trkpt lat="47.13578" lon="6.13437">
        <ele>429.3</ele>
        <time>2022-08-10T07:46:53Z</time>
      </trkpt>
      <trkpt lat="47.1358" lon="6.13443">
        <ele>428.5</ele>
        <time>2022-08-10T07:46:54Z</time>
      </trkpt>
      <trkpt lat="47.13581" lon="6.1345">
        <ele>427.7</ele>
        <time>2022-08-10T07:46:55Z</time>
      </trkpt>
      <trkpt lat="47.13583" lon="6.13456">
        <ele>427.1</ele>
        <time>2022-08-10T07:46:56Z</time>
      </trkpt>
      <trkpt lat="47.13584" lon="6.13462">
        <ele>426.6</ele>
        <time>2022-08-10T07:46:57Z</time>
      </trkpt>
      <trkpt lat="47.13586" lon="6.13469">
        <ele>426</ele>
        <time>2022-08-10T07:46:58Z</time>
      </trkpt>
      <trkpt lat="47.13586" lon="6.13475">
        <ele>425.5</ele>
        <time>2022-08-10T07:46:59Z</time>
      </trkpt>
      <trkpt lat="47.13587" lon="6.13482">
        <ele>424.9</ele>
        <time>2022-08-10T07:47:00Z</time>
      </trkpt>
      <trkpt lat="47.13588" lon="6.13488">
        <ele>424.4</ele>
        <time>2022-08-10T07:47:01Z</time>
      </trkpt>
      <trkpt lat="47.1359" lon="6.13495">
        <ele>424</ele>
        <time>2022-08-10T07:47:02Z</time>
      </trkpt>
      <trkpt lat="47.13591" lon="6.13501">
        <ele>423.4</ele>
        <time>2022-08-10T07:47:03Z</time>
      </trkpt>
      <trkpt lat="47.13591" lon="6.13508">
        <ele>423</ele>
        <time>2022-08-10T07:47:04Z</time>
      </trkpt>
      <trkpt lat="47.13592" lon="6.13514">
        <ele>422.7</ele>
        <time>2022-08-10T07:47:05Z</time>
      </trkpt>
      <trkpt lat="47.13593" lon="6.13521">
        <ele>422.2</ele>
        <time>2022-08-10T07:47:06Z</time>
      </trkpt>
      <trkpt lat="47.13594" lon="6.13527">
        <ele>422.2</ele>
        <time>2022-08-10T07:47:07Z</time>
      </trkpt>
      <trkpt lat="47.13595" lon="6.13533">
        <ele>422.3</ele>
        <time>2022-08-10T07:47:08Z</time>
      </trkpt>
      <trkpt lat="47.13596" lon="6.1354">
        <ele>422</ele>
        <time>2022-08-10T07:47:09Z</time>
      </trkpt>
      <trkpt lat="47.13596" lon="6.13546">
        <ele>421.9</ele>
        <time>2022-08-10T07:47:10Z</time>
      </trkpt>
      <trkpt lat="47.13597" lon="6.13553">
        <ele>421.7</ele>
        <time>2022-08-10T07:47:11Z</time>
      </trkpt>
      <trkpt lat="47.13598" lon="6.13559">
        <ele>421.5</ele>
        <time>2022-08-10T07:47:12Z</time>
      </trkpt>
      <trkpt lat="47.13599" lon="6.13566">
        <ele>421.4</ele>
        <time>2022-08-10T07:47:13Z</time>
      </trkpt>
      <trkpt lat="47.136" lon="6.13572">
        <ele>421.4</ele>
        <time>2022-08-10T07:47:14Z</time>
      </trkpt>
      <trkpt lat="47.13601" lon="6.13579">
        <ele>421.5</ele>
        <time>2022-08-10T07:47:15Z</time>
      </trkpt>
      <trkpt lat="47.13602" lon="6.13585">
        <ele>421.8</ele>
        <time>2022-08-10T07:47:16Z</time>
      </trkpt>
      <trkpt lat="47.13603" lon="6.13591">
        <ele>422</ele>
        <time>2022-08-10T07:47:17Z</time>
      </trkpt>
      <trkpt lat="47.13604" lon="6.13597">
        <ele>422.1</ele>
        <time>2022-08-10T07:47:18Z</time>
      </trkpt>
      <trkpt lat="47.13605" lon="6.13603">
        <ele>422.4</ele>
        <time>2022-08-10T07:47:19Z</time>
      </trkpt>
      <trkpt lat="47.13606" lon="6.13609">
        <ele>422.4</ele>
        <time>2022-08-10T07:47:20Z</time>
      </trkpt>
      <trkpt lat="47.13608" lon="6.13615">
        <ele>422.6</ele>
        <time>2022-08-10T07:47:21Z</time>
      </trkpt>
      <trkpt lat="47.13609" lon="6.13621">
        <ele>422.7</ele>
        <time>2022-08-10T07:47:22Z</time>
      </trkpt>
      <trkpt lat="47.1361" lon="6.13628">
        <ele>422.5</ele>
        <time>2022-08-10T07:47:23Z</time>
      </trkpt>
      <trkpt lat="47.1361" lon="6.13634">
        <ele>422.7</ele>
        <time>2022-08-10T07:47:24Z</time>
      </trkpt>
      <trkpt lat="47.1361" lon="6.1364">
        <ele>422.7</ele>
        <time>2022-08-10T07:47:25Z</time>
      </trkpt>
      <trkpt lat="47.13611" lon="6.13646">
        <ele>422.8</ele>
        <time>2022-08-10T07:47:26Z</time>
      </trkpt>
      <trkpt lat="47.13611" lon="6.13652">
        <ele>422.9</ele>
        <time>2022-08-10T07:47:27Z</time>
      </trkpt>
      <trkpt lat="47.13612" lon="6.13659">
        <ele>423.1</ele>
        <time>2022-08-10T07:47:28Z</time>
      </trkpt>
      <trkpt lat="47.13613" lon="6.13665">
        <ele>423.3</ele>
        <time>2022-08-10T07:47:29Z</time>
      </trkpt>
      <trkpt lat="47.13614" lon="6.1367">
        <ele>423.6</ele>
        <time>2022-08-10T07:47:30Z</time>
      </trkpt>
      <trkpt lat="47.13614" lon="6.13676">
        <ele>424.2</ele>
        <time>2022-08-10T07:47:31Z</time>
      </trkpt>
      <trkpt lat="47.13614" lon="6.13683">
        <ele>424.5</ele>
        <time>2022-08-10T07:47:32Z</time>
      </trkpt>
      <trkpt lat="47.13615" lon="6.13689">
        <ele>424.5</ele>
        <time>2022-08-10T07:47:33Z</time>
      </trkpt>
      <trkpt lat="47.13616" lon="6.13696">
        <ele>424.3</ele>
        <time>2022-08-10T07:47:34Z</time>
      </trkpt>
      <trkpt lat="47.13617" lon="6.13702">
        <ele>424.3</ele>
        <time>2022-08-10T07:47:35Z</time>
      </trkpt>
      <trkpt lat="47.13617" lon="6.13709">
        <ele>424.1</ele>
        <time>2022-08-10T07:47:36Z</time>
      </trkpt>
      <trkpt lat="47.13619" lon="6.13715">
        <ele>424</ele>
        <time>2022-08-10T07:47:37Z</time>
      </trkpt>
      <trkpt lat="47.13619" lon="6.13721">
        <ele>424.4</ele>
        <time>2022-08-10T07:47:38Z</time>
      </trkpt>
      <trkpt lat="47.1362" lon="6.13728">
        <ele>424.3</ele>
        <time>2022-08-10T07:47:39Z</time>
      </trkpt>
      <trkpt lat="47.13621" lon="6.13734">
        <ele>424.4</ele>
        <time>2022-08-10T07:47:40Z</time>
      </trkpt>
      <trkpt lat="47.13622" lon="6.1374">
        <ele>424.3</ele>
        <time>2022-08-10T07:47:41Z</time>
      </trkpt>
      <trkpt lat="47.13624" lon="6.13746">
        <ele>424.5</ele>
        <time>2022-08-10T07:47:42Z</time>
      </trkpt>
      <trkpt lat="47.13625" lon="6.13752">
        <ele>424.7</ele>
        <time>2022-08-10T07:47:43Z</time>
      </trkpt>
      <trkpt lat="47.13627" lon="6.13757">
        <ele>424.7</ele>
        <time>2022-08-10T07:47:44Z</time>
      </trkpt>
      <trkpt lat="47.13628" lon="6.13763">
        <ele>424.6</ele>
        <time>2022-08-10T07:47:45Z</time>
      </trkpt>
      <trkpt lat="47.13629" lon="6.13768">
        <ele>425.3</ele>
        <time>2022-08-10T07:47:46Z</time>
      </trkpt>
      <trkpt lat="47.13631" lon="6.13773">
        <ele>425.6</ele>
        <time>2022-08-10T07:47:47Z</time>
      </trkpt>
      <trkpt lat="47.13632" lon="6.13778">
        <ele>425.5</ele>
        <time>2022-08-10T07:47:48Z</time>
      </trkpt>
      <trkpt lat="47.13633" lon="6.13784">
        <ele>425.7</ele>
        <time>2022-08-10T07:47:49Z</time>
      </trkpt>
      <trkpt lat="47.13635" lon="6.13789">
        <ele>426.1</ele>
        <time>2022-08-10T07:47:50Z</time>
      </trkpt>
      <trkpt lat="47.13636" lon="6.13794">
        <ele>426.5</ele>
        <time>2022-08-10T07:47:51Z</time>
      </trkpt>
      <trkpt lat="47.13638" lon="6.138">
        <ele>427</ele>
        <time>2022-08-10T07:47:52Z</time>
      </trkpt>
      <trkpt lat="47.1364" lon="6.13806">
        <ele>426.9</ele>
        <time>2022-08-10T07:47:53Z</time>
      </trkpt>
      <trkpt lat="47.13642" lon="6.13811">
        <ele>426.9</ele>
        <time>2022-08-10T07:47:54Z</time>
      </trkpt>
      <trkpt lat="47.13644" lon="6.13817">
        <ele>427.1</ele>
        <time>2022-08-10T07:47:55Z</time>
      </trkpt>
      <trkpt lat="47.13646" lon="6.13822">
        <ele>426.9</ele>
        <time>2022-08-10T07:47:56Z</time>
      </trkpt>
      <trkpt lat="47.13648" lon="6.13828">
        <ele>427.4</ele>
        <time>2022-08-10T07:47:57Z</time>
      </trkpt>
      <trkpt lat="47.1365" lon="6.13833">
        <ele>427.8</ele>
        <time>2022-08-10T07:47:58Z</time>
      </trkpt>
      <trkpt lat="47.13652" lon="6.13838">
        <ele>428.5</ele>
        <time>2022-08-10T07:47:59Z</time>
      </trkpt>
      <trkpt lat="47.13654" lon="6.13844">
        <ele>429.3</ele>
        <time>2022-08-10T07:48:00Z</time>
      </trkpt>
      <trkpt lat="47.13656" lon="6.13849">
        <ele>429.8</ele>
        <time>2022-08-10T07:48:01Z</time>
      </trkpt>
      <trkpt lat="47.13657" lon="6.13854">
        <ele>430.5</ele>
        <time>2022-08-10T07:48:02Z</time>
      </trkpt>
      <trkpt lat="47.13658" lon="6.13859">
        <ele>431.2</ele>
        <time>2022-08-10T07:48:03Z</time>
      </trkpt>
      <trkpt lat="47.13659" lon="6.13864">
        <ele>432.2</ele>
        <time>2022-08-10T07:48:04Z</time>
      </trkpt>
      <trkpt lat="47.1366" lon="6.13868">
        <ele>433.3</ele>
        <time>2022-08-10T07:48:05Z</time>
      </trkpt>
      <trkpt lat="47.13662" lon="6.13873">
        <ele>433.7</ele>
        <time>2022-08-10T07:48:06Z</time>
      </trkpt>
      <trkpt lat="47.13663" lon="6.13877">
        <ele>435.3</ele>
        <time>2022-08-10T07:48:07Z</time>
      </trkpt>
      <trkpt lat="47.13665" lon="6.13882">
        <ele>436.4</ele>
        <time>2022-08-10T07:48:08Z</time>
      </trkpt>
      <trkpt lat="47.13666" lon="6.13887">
        <ele>437.5</ele>
        <time>2022-08-10T07:48:09Z</time>
      </trkpt>
      <trkpt lat="47.13667" lon="6.13893">
        <ele>438.4</ele>
        <time>2022-08-10T07:48:10Z</time>
      </trkpt>
      <trkpt lat="47.13669" lon="6.13898">
        <ele>438.7</ele>
        <time>2022-08-10T07:48:11Z</time>
      </trkpt>
      <trkpt lat="47.1367" lon="6.13904">
        <ele>439.6</ele>
        <time>2022-08-10T07:48:12Z</time>
      </trkpt>
      <trkpt lat="47.13672" lon="6.13909">
        <ele>440.4</ele>
        <time>2022-08-10T07:48:13Z</time>
      </trkpt>
      <trkpt lat="47.13673" lon="6.13914">
        <ele>441</ele>
        <time>2022-08-10T07:48:14Z</time>
      </trkpt>
      <trkpt lat="47.13675" lon="6.1392">
        <ele>441.2</ele>
        <time>2022-08-10T07:48:15Z</time>
      </trkpt>
      <trkpt lat="47.13677" lon="6.13925">
        <ele>440.9</ele>
        <time>2022-08-10T07:48:16Z</time>
      </trkpt>
      <trkpt lat="47.13679" lon="6.13931">
        <ele>440.7</ele>
        <time>2022-08-10T07:48:17Z</time>
      </trkpt>
      <trkpt lat="47.13681" lon="6.13936">
        <ele>441</ele>
        <time>2022-08-10T07:48:18Z</time>
      </trkpt>
      <trkpt lat="47.13683" lon="6.13942">
        <ele>440.7</ele>
        <time>2022-08-10T07:48:19Z</time>
      </trkpt>
      <trkpt lat="47.13685" lon="6.13948">
        <ele>440.2</ele>
        <time>2022-08-10T07:48:20Z</time>
      </trkpt>
      <trkpt lat="47.13686" lon="6.13953">
        <ele>439.6</ele>
        <time>2022-08-10T07:48:21Z</time>
      </trkpt>
      <trkpt lat="47.13688" lon="6.13959">
        <ele>439</ele>
        <time>2022-08-10T07:48:22Z</time>
      </trkpt>
      <trkpt lat="47.1369" lon="6.13965">
        <ele>438.4</ele>
        <time>2022-08-10T07:48:23Z</time>
      </trkpt>
      <trkpt lat="47.13691" lon="6.13971">
        <ele>437.6</ele>
        <time>2022-08-10T07:48:24Z</time>
      </trkpt>
      <trkpt lat="47.13693" lon="6.13977">
        <ele>437.8</ele>
        <time>2022-08-10T07:48:25Z</time>
      </trkpt>
      <trkpt lat="47.13694" lon="6.13983">
        <ele>437.2</ele>
        <time>2022-08-10T07:48:26Z</time>
      </trkpt>
      <trkpt lat="47.13696" lon="6.13989">
        <ele>437</ele>
        <time>2022-08-10T07:48:27Z</time>
      </trkpt>
      <trkpt lat="47.13697" lon="6.13995">
        <ele>436.8</ele>
        <time>2022-08-10T07:48:28Z</time>
      </trkpt>
      <trkpt lat="47.13699" lon="6.14001">
        <ele>436.6</ele>
        <time>2022-08-10T07:48:29Z</time>
      </trkpt>
      <trkpt lat="47.137" lon="6.14008">
        <ele>436.2</ele>
        <time>2022-08-10T07:48:30Z</time>
      </trkpt>
      <trkpt lat="47.13701" lon="6.14014">
        <ele>435.8</ele>
        <time>2022-08-10T07:48:31Z</time>
      </trkpt>
      <trkpt lat="47.13703" lon="6.1402">
        <ele>435.7</ele>
        <time>2022-08-10T07:48:32Z</time>
      </trkpt>
      <trkpt lat="47.13703" lon="6.14026">
        <ele>435.9</ele>
        <time>2022-08-10T07:48:33Z</time>
      </trkpt>
      <trkpt lat="47.13704" lon="6.14032">
        <ele>436.1</ele>
        <time>2022-08-10T07:48:34Z</time>
      </trkpt>
      <trkpt lat="47.13704" lon="6.14038">
        <ele>436.2</ele>
        <time>2022-08-10T07:48:35Z</time>
      </trkpt>
      <trkpt lat="47.13705" lon="6.14044">
        <ele>436.9</ele>
        <time>2022-08-10T07:48:36Z</time>
      </trkpt>
      <trkpt lat="47.13706" lon="6.1405">
        <ele>437.1</ele>
        <time>2022-08-10T07:48:37Z</time>
      </trkpt>
      <trkpt lat="47.13706" lon="6.14057">
        <ele>436.8</ele>
        <time>2022-08-10T07:48:38Z</time>
      </trkpt>
      <trkpt lat="47.13706" lon="6.14063">
        <ele>436.5</ele>
        <time>2022-08-10T07:48:39Z</time>
      </trkpt>
      <trkpt lat="47.13706" lon="6.1407">
        <ele>436.6</ele>
        <time>2022-08-10T07:48:40Z</time>
      </trkpt>
      <trkpt lat="47.13706" lon="6.14076">
        <ele>436.4</ele>
        <time>2022-08-10T07:48:41Z</time>
      </trkpt>
      <trkpt lat="47.13705" lon="6.14083">
        <ele>436.4</ele>
        <time>2022-08-10T07:48:42Z</time>
      </trkpt>
      <trkpt lat="47.13705" lon="6.14089">
        <ele>436.2</ele>
        <time>2022-08-10T07:48:43Z</time>
      </trkpt>
      <trkpt lat="47.13705" lon="6.14095">
        <ele>436.3</ele>
        <time>2022-08-10T07:48:44Z</time>
      </trkpt>
      <trkpt lat="47.13704" lon="6.14102">
        <ele>436.1</ele>
        <time>2022-08-10T07:48:45Z</time>
      </trkpt>
      <trkpt lat="47.13704" lon="6.14108">
        <ele>436.1</ele>
        <time>2022-08-10T07:48:46Z</time>
      </trkpt>
      <trkpt lat="47.13704" lon="6.14114">
        <ele>436.2</ele>
        <time>2022-08-10T07:48:47Z</time>
      </trkpt>
      <trkpt lat="47.13704" lon="6.1412">
        <ele>436.8</ele>
        <time>2022-08-10T07:48:48Z</time>
      </trkpt>
      <trkpt lat="47.13704" lon="6.14125">
        <ele>437</ele>
        <time>2022-08-10T07:48:49Z</time>
      </trkpt>
      <trkpt lat="47.13703" lon="6.14132">
        <ele>437.2</ele>
        <time>2022-08-10T07:48:50Z</time>
      </trkpt>
      <trkpt lat="47.13703" lon="6.14137">
        <ele>437.3</ele>
        <time>2022-08-10T07:48:51Z</time>
      </trkpt>
      <trkpt lat="47.13702" lon="6.14143">
        <ele>437.5</ele>
        <time>2022-08-10T07:48:52Z</time>
      </trkpt>
      <trkpt lat="47.13702" lon="6.14149">
        <ele>437.8</ele>
        <time>2022-08-10T07:48:53Z</time>
      </trkpt>
      <trkpt lat="47.13702" lon="6.14154">
        <ele>438.1</ele>
        <time>2022-08-10T07:48:54Z</time>
      </trkpt>
      <trkpt lat="47.13701" lon="6.1416">
        <ele>438.3</ele>
        <time>2022-08-10T07:48:55Z</time>
      </trkpt>
      <trkpt lat="47.13701" lon="6.14166">
        <ele>438.4</ele>
        <time>2022-08-10T07:48:56Z</time>
      </trkpt>
      <trkpt lat="47.137" lon="6.14173">
        <ele>438.5</ele>
        <time>2022-08-10T07:48:57Z</time>
      </trkpt>
      <trkpt lat="47.13699" lon="6.14179">
        <ele>438.1</ele>
        <time>2022-08-10T07:48:58Z</time>
      </trkpt>
      <trkpt lat="47.13698" lon="6.14184">
        <ele>438.5</ele>
        <time>2022-08-10T07:48:59Z</time>
      </trkpt>
      <trkpt lat="47.13697" lon="6.1419">
        <ele>438.3</ele>
        <time>2022-08-10T07:49:00Z</time>
      </trkpt>
      <trkpt lat="47.13696" lon="6.14196">
        <ele>438.5</ele>
        <time>2022-08-10T07:49:01Z</time>
      </trkpt>
      <trkpt lat="47.13695" lon="6.14201">
        <ele>438.7</ele>
        <time>2022-08-10T07:49:02Z</time>
      </trkpt>
      <trkpt lat="47.13694" lon="6.14207">
        <ele>438.9</ele>
        <time>2022-08-10T07:49:03Z</time>
      </trkpt>
      <trkpt lat="47.13693" lon="6.14212">
        <ele>439.3</ele>
        <time>2022-08-10T07:49:04Z</time>
      </trkpt>
      <trkpt lat="47.13692" lon="6.14217">
        <ele>439.1</ele>
        <time>2022-08-10T07:49:05Z</time>
      </trkpt>
      <trkpt lat="47.13691" lon="6.14223">
        <ele>439.2</ele>
        <time>2022-08-10T07:49:06Z</time>
      </trkpt>
      <trkpt lat="47.13689" lon="6.14228">
        <ele>439.9</ele>
        <time>2022-08-10T07:49:07Z</time>
      </trkpt>
      <trkpt lat="47.13688" lon="6.14233">
        <ele>439.9</ele>
        <time>2022-08-10T07:49:08Z</time>
      </trkpt>
      <trkpt lat="47.13687" lon="6.14238">
        <ele>440</ele>
        <time>2022-08-10T07:49:09Z</time>
      </trkpt>
      <trkpt lat="47.13686" lon="6.14243">
        <ele>440.7</ele>
        <time>2022-08-10T07:49:10Z</time>
      </trkpt>
      <trkpt lat="47.13684" lon="6.14247">
        <ele>441.1</ele>
        <time>2022-08-10T07:49:11Z</time>
      </trkpt>
      <trkpt lat="47.13683" lon="6.14251">
        <ele>442.1</ele>
        <time>2022-08-10T07:49:12Z</time>
      </trkpt>
      <trkpt lat="47.13682" lon="6.14254">
        <ele>442.7</ele>
        <time>2022-08-10T07:49:13Z</time>
      </trkpt>
      <trkpt lat="47.13682" lon="6.14257">
        <ele>442.4</ele>
        <time>2022-08-10T07:49:14Z</time>
      </trkpt>
      <trkpt lat="47.13681" lon="6.1426">
        <ele>442.5</ele>
        <time>2022-08-10T07:49:15Z</time>
      </trkpt>
      <trkpt lat="47.1368" lon="6.14264">
        <ele>442.1</ele>
        <time>2022-08-10T07:49:16Z</time>
      </trkpt>
      <trkpt lat="47.13678" lon="6.14268">
        <ele>442.2</ele>
        <time>2022-08-10T07:49:17Z</time>
      </trkpt>
      <trkpt lat="47.13677" lon="6.14273">
        <ele>441.6</ele>
        <time>2022-08-10T07:49:18Z</time>
      </trkpt>
      <trkpt lat="47.13675" lon="6.14278">
        <ele>441.4</ele>
        <time>2022-08-10T07:49:19Z</time>
      </trkpt>
      <trkpt lat="47.13674" lon="6.14283">
        <ele>441.9</ele>
        <time>2022-08-10T07:49:20Z</time>
      </trkpt>
      <trkpt lat="47.13672" lon="6.14288">
        <ele>441.9</ele>
        <time>2022-08-10T07:49:21Z</time>
      </trkpt>
      <trkpt lat="47.1367" lon="6.14293">
        <ele>441.7</ele>
        <time>2022-08-10T07:49:22Z</time>
      </trkpt>
      <trkpt lat="47.13668" lon="6.14299">
        <ele>441.5</ele>
        <time>2022-08-10T07:49:23Z</time>
      </trkpt>
      <trkpt lat="47.13667" lon="6.14304">
        <ele>441.8</ele>
        <time>2022-08-10T07:49:24Z</time>
      </trkpt>
      <trkpt lat="47.13665" lon="6.14309">
        <ele>442</ele>
        <time>2022-08-10T07:49:25Z</time>
      </trkpt>
      <trkpt lat="47.13663" lon="6.14315">
        <ele>441.9</ele>
        <time>2022-08-10T07:49:26Z</time>
      </trkpt>
      <trkpt lat="47.13662" lon="6.1432">
        <ele>441.7</ele>
        <time>2022-08-10T07:49:27Z</time>
      </trkpt>
      <trkpt lat="47.13661" lon="6.14325">
        <ele>441.7</ele>
        <time>2022-08-10T07:49:28Z</time>
      </trkpt>
      <trkpt lat="47.1366" lon="6.1433">
        <ele>441.8</ele>
        <time>2022-08-10T07:49:29Z</time>
      </trkpt>
      <trkpt lat="47.13658" lon="6.14335">
        <ele>441.7</ele>
        <time>2022-08-10T07:49:30Z</time>
      </trkpt>
      <trkpt lat="47.13656" lon="6.1434">
        <ele>441.9</ele>
        <time>2022-08-10T07:49:31Z</time>
      </trkpt>
      <trkpt lat="47.13654" lon="6.14346">
        <ele>442</ele>
        <time>2022-08-10T07:49:32Z</time>
      </trkpt>
      <trkpt lat="47.13652" lon="6.14352">
        <ele>442.4</ele>
        <time>2022-08-10T07:49:33Z</time>
      </trkpt>
      <trkpt lat="47.13651" lon="6.14357">
        <ele>442.2</ele>
        <time>2022-08-10T07:49:34Z</time>
      </trkpt>
      <trkpt lat="47.13649" lon="6.14363">
        <ele>442.3</ele>
        <time>2022-08-10T07:49:35Z</time>
      </trkpt>
      <trkpt lat="47.13647" lon="6.14369">
        <ele>442.7</ele>
        <time>2022-08-10T07:49:36Z</time>
      </trkpt>
      <trkpt lat="47.13645" lon="6.14375">
        <ele>442.5</ele>
        <time>2022-08-10T07:49:37Z</time>
      </trkpt>
      <trkpt lat="47.13643" lon="6.14381">
        <ele>442.6</ele>
        <time>2022-08-10T07:49:38Z</time>
      </trkpt>
      <trkpt lat="47.13641" lon="6.14387">
        <ele>442.6</ele>
        <time>2022-08-10T07:49:39Z</time>
      </trkpt>
      <trkpt lat="47.13639" lon="6.14393">
        <ele>442.8</ele>
        <time>2022-08-10T07:49:40Z</time>
      </trkpt>
      <trkpt lat="47.13637" lon="6.14398">
        <ele>443</ele>
        <time>2022-08-10T07:49:41Z</time>
      </trkpt>
      <trkpt lat="47.13636" lon="6.14403">
        <ele>443.2</ele>
        <time>2022-08-10T07:49:42Z</time>
      </trkpt>
      <trkpt lat="47.13635" lon="6.14409">
        <ele>443.6</ele>
        <time>2022-08-10T07:49:43Z</time>
      </trkpt>
      <trkpt lat="47.13633" lon="6.14415">
        <ele>443.4</ele>
        <time>2022-08-10T07:49:44Z</time>
      </trkpt>
      <trkpt lat="47.13632" lon="6.14421">
        <ele>443.4</ele>
        <time>2022-08-10T07:49:45Z</time>
      </trkpt>
      <trkpt lat="47.13631" lon="6.14427">
        <ele>443.3</ele>
        <time>2022-08-10T07:49:46Z</time>
      </trkpt>
      <trkpt lat="47.1363" lon="6.14433">
        <ele>443.7</ele>
        <time>2022-08-10T07:49:47Z</time>
      </trkpt>
      <trkpt lat="47.13628" lon="6.14439">
        <ele>443.7</ele>
        <time>2022-08-10T07:49:48Z</time>
      </trkpt>
      <trkpt lat="47.13627" lon="6.14445">
        <ele>443.8</ele>
        <time>2022-08-10T07:49:49Z</time>
      </trkpt>
      <trkpt lat="47.13626" lon="6.14451">
        <ele>443.9</ele>
        <time>2022-08-10T07:49:50Z</time>
      </trkpt>
      <trkpt lat="47.13625" lon="6.14457">
        <ele>444.2</ele>
        <time>2022-08-10T07:49:51Z</time>
      </trkpt>
      <trkpt lat="47.13624" lon="6.14463">
        <ele>444.4</ele>
        <time>2022-08-10T07:49:52Z</time>
      </trkpt>
      <trkpt lat="47.13623" lon="6.1447">
        <ele>444</ele>
        <time>2022-08-10T07:49:53Z</time>
      </trkpt>
      <trkpt lat="47.13622" lon="6.14476">
        <ele>444.2</ele>
        <time>2022-08-10T07:49:54Z</time>
      </trkpt>
      <trkpt lat="47.13622" lon="6.14482">
        <ele>444.6</ele>
        <time>2022-08-10T07:49:55Z</time>
      </trkpt>
      <trkpt lat="47.13622" lon="6.14488">
        <ele>444.9</ele>
        <time>2022-08-10T07:49:56Z</time>
      </trkpt>
      <trkpt lat="47.13621" lon="6.14495">
        <ele>445.1</ele>
        <time>2022-08-10T07:49:57Z</time>
      </trkpt>
      <trkpt lat="47.1362" lon="6.14501">
        <ele>445.6</ele>
        <time>2022-08-10T07:49:58Z</time>
      </trkpt>
      <trkpt lat="47.13619" lon="6.14507">
        <ele>446.3</ele>
        <time>2022-08-10T07:49:59Z</time>
      </trkpt>
      <trkpt lat="47.13619" lon="6.14513">
        <ele>446.4</ele>
        <time>2022-08-10T07:50:00Z</time>
      </trkpt>
      <trkpt lat="47.13618" lon="6.14519">
        <ele>446.7</ele>
        <time>2022-08-10T07:50:01Z</time>
      </trkpt>
      <trkpt lat="47.13618" lon="6.14526">
        <ele>447</ele>
        <time>2022-08-10T07:50:02Z</time>
      </trkpt>
      <trkpt lat="47.13618" lon="6.14532">
        <ele>447.6</ele>
        <time>2022-08-10T07:50:03Z</time>
      </trkpt>
      <trkpt lat="47.13618" lon="6.14539">
        <ele>447.9</ele>
        <time>2022-08-10T07:50:04Z</time>
      </trkpt>
      <trkpt lat="47.13618" lon="6.14546">
        <ele>447.8</ele>
        <time>2022-08-10T07:50:05Z</time>
      </trkpt>
      <trkpt lat="47.13618" lon="6.14553">
        <ele>448.1</ele>
        <time>2022-08-10T07:50:06Z</time>
      </trkpt>
      <trkpt lat="47.13617" lon="6.14559">
        <ele>448.4</ele>
        <time>2022-08-10T07:50:07Z</time>
      </trkpt>
      <trkpt lat="47.13617" lon="6.14566">
        <ele>448.4</ele>
        <time>2022-08-10T07:50:08Z</time>
      </trkpt>
      <trkpt lat="47.13617" lon="6.14573">
        <ele>448.4</ele>
        <time>2022-08-10T07:50:09Z</time>
      </trkpt>
      <trkpt lat="47.13616" lon="6.14579">
        <ele>448.6</ele>
        <time>2022-08-10T07:50:10Z</time>
      </trkpt>
      <trkpt lat="47.13616" lon="6.14586">
        <ele>449</ele>
        <time>2022-08-10T07:50:11Z</time>
      </trkpt>
      <trkpt lat="47.13616" lon="6.14592">
        <ele>449.3</ele>
        <time>2022-08-10T07:50:12Z</time>
      </trkpt>
      <trkpt lat="47.13615" lon="6.14599">
        <ele>449.7</ele>
        <time>2022-08-10T07:50:13Z</time>
      </trkpt>
      <trkpt lat="47.13616" lon="6.14606">
        <ele>449.4</ele>
        <time>2022-08-10T07:50:14Z</time>
      </trkpt>
      <trkpt lat="47.13615" lon="6.14612">
        <ele>449.4</ele>
        <time>2022-08-10T07:50:15Z</time>
      </trkpt>
      <trkpt lat="47.13615" lon="6.14619">
        <ele>449.3</ele>
        <time>2022-08-10T07:50:16Z</time>
      </trkpt>
      <trkpt lat="47.13615" lon="6.14625">
        <ele>449.2</ele>
        <time>2022-08-10T07:50:17Z</time>
      </trkpt>
      <trkpt lat="47.13615" lon="6.14632">
        <ele>449.3</ele>
        <time>2022-08-10T07:50:18Z</time>
      </trkpt>
      <trkpt lat="47.13614" lon="6.14638">
        <ele>449.2</ele>
        <time>2022-08-10T07:50:19Z</time>
      </trkpt>
      <trkpt lat="47.13614" lon="6.14645">
        <ele>449.2</ele>
        <time>2022-08-10T07:50:20Z</time>
      </trkpt>
      <trkpt lat="47.13613" lon="6.14652">
        <ele>449.1</ele>
        <time>2022-08-10T07:50:21Z</time>
      </trkpt>
      <trkpt lat="47.13613" lon="6.14658">
        <ele>449.5</ele>
        <time>2022-08-10T07:50:22Z</time>
      </trkpt>
      <trkpt lat="47.13612" lon="6.14664">
        <ele>449.8</ele>
        <time>2022-08-10T07:50:23Z</time>
      </trkpt>
      <trkpt lat="47.13611" lon="6.1467">
        <ele>449.6</ele>
        <time>2022-08-10T07:50:24Z</time>
      </trkpt>
      <trkpt lat="47.1361" lon="6.14677">
        <ele>449.6</ele>
        <time>2022-08-10T07:50:25Z</time>
      </trkpt>
      <trkpt lat="47.1361" lon="6.14683">
        <ele>449.5</ele>
        <time>2022-08-10T07:50:26Z</time>
      </trkpt>
      <trkpt lat="47.13609" lon="6.14689">
        <ele>449.5</ele>
        <time>2022-08-10T07:50:27Z</time>
      </trkpt>
      <trkpt lat="47.13608" lon="6.14696">
        <ele>449.8</ele>
        <time>2022-08-10T07:50:28Z</time>
      </trkpt>
      <trkpt lat="47.13607" lon="6.14702">
        <ele>449.8</ele>
        <time>2022-08-10T07:50:29Z</time>
      </trkpt>
      <trkpt lat="47.13606" lon="6.14708">
        <ele>449.8</ele>
        <time>2022-08-10T07:50:30Z</time>
      </trkpt>
      <trkpt lat="47.13606" lon="6.14715">
        <ele>449.2</ele>
        <time>2022-08-10T07:50:31Z</time>
      </trkpt>
      <trkpt lat="47.13605" lon="6.14722">
        <ele>449</ele>
        <time>2022-08-10T07:50:32Z</time>
      </trkpt>
      <trkpt lat="47.13605" lon="6.14728">
        <ele>449.3</ele>
        <time>2022-08-10T07:50:33Z</time>
      </trkpt>
      <trkpt lat="47.13604" lon="6.14735">
        <ele>449.4</ele>
        <time>2022-08-10T07:50:34Z</time>
      </trkpt>
      <trkpt lat="47.13604" lon="6.14742">
        <ele>449.1</ele>
        <time>2022-08-10T07:50:35Z</time>
      </trkpt>
      <trkpt lat="47.13603" lon="6.14748">
        <ele>449</ele>
        <time>2022-08-10T07:50:36Z</time>
      </trkpt>
      <trkpt lat="47.13603" lon="6.14755">
        <ele>448.9</ele>
        <time>2022-08-10T07:50:37Z</time>
      </trkpt>
      <trkpt lat="47.13602" lon="6.14761">
        <ele>449.2</ele>
        <time>2022-08-10T07:50:38Z</time>
      </trkpt>
      <trkpt lat="47.13601" lon="6.14767">
        <ele>449.4</ele>
        <time>2022-08-10T07:50:39Z</time>
      </trkpt>
      <trkpt lat="47.13601" lon="6.14773">
        <ele>449.7</ele>
        <time>2022-08-10T07:50:40Z</time>
      </trkpt>
      <trkpt lat="47.136" lon="6.14779">
        <ele>450.4</ele>
        <time>2022-08-10T07:50:41Z</time>
      </trkpt>
      <trkpt lat="47.13599" lon="6.14785">
        <ele>450.8</ele>
        <time>2022-08-10T07:50:42Z</time>
      </trkpt>
      <trkpt lat="47.13598" lon="6.1479">
        <ele>451.4</ele>
        <time>2022-08-10T07:50:43Z</time>
      </trkpt>
      <trkpt lat="47.13597" lon="6.14796">
        <ele>451.7</ele>
        <time>2022-08-10T07:50:44Z</time>
      </trkpt>
      <trkpt lat="47.13596" lon="6.14801">
        <ele>452</ele>
        <time>2022-08-10T07:50:45Z</time>
      </trkpt>
      <trkpt lat="47.13595" lon="6.14805">
        <ele>452</ele>
        <time>2022-08-10T07:50:46Z</time>
      </trkpt>
      <trkpt lat="47.13595" lon="6.1481">
        <ele>452.5</ele>
        <time>2022-08-10T07:50:47Z</time>
      </trkpt>
      <trkpt lat="47.13594" lon="6.14814">
        <ele>453</ele>
        <time>2022-08-10T07:50:48Z</time>
      </trkpt>
      <trkpt lat="47.13594" lon="6.14818">
        <ele>453.4</ele>
        <time>2022-08-10T07:50:49Z</time>
      </trkpt>
      <trkpt lat="47.13594" lon="6.14822">
        <ele>453.8</ele>
        <time>2022-08-10T07:50:50Z</time>
      </trkpt>
      <trkpt lat="47.13595" lon="6.14826">
        <ele>454</ele>
        <time>2022-08-10T07:50:51Z</time>
      </trkpt>
      <trkpt lat="47.13596" lon="6.14831">
        <ele>454.3</ele>
        <time>2022-08-10T07:50:52Z</time>
      </trkpt>
      <trkpt lat="47.13597" lon="6.14836">
        <ele>454.5</ele>
        <time>2022-08-10T07:50:53Z</time>
      </trkpt>
      <trkpt lat="47.13597" lon="6.14842">
        <ele>454.7</ele>
        <time>2022-08-10T07:50:54Z</time>
      </trkpt>
      <trkpt lat="47.13597" lon="6.14847">
        <ele>455</ele>
        <time>2022-08-10T07:50:55Z</time>
      </trkpt>
      <trkpt lat="47.13597" lon="6.14853">
        <ele>455.2</ele>
        <time>2022-08-10T07:50:56Z</time>
      </trkpt>
      <trkpt lat="47.13635" lon="6.15084">
        <ele>480.3</ele>
        <time>2022-08-10T07:51:32Z</time>
      </trkpt>
      <trkpt lat="47.13637" lon="6.1509">
        <ele>479.6</ele>
        <time>2022-08-10T07:51:33Z</time>
      </trkpt>
      <trkpt lat="47.13637" lon="6.15094">
        <ele>480.5</ele>
        <time>2022-08-10T07:51:34Z</time>
      </trkpt>
      <trkpt lat="47.13638" lon="6.15098">
        <ele>481.3</ele>
        <time>2022-08-10T07:51:35Z</time>
      </trkpt>
      <trkpt lat="47.13638" lon="6.151">
        <ele>481.8</ele>
        <time>2022-08-10T07:51:36Z</time>
      </trkpt>
      <trkpt lat="47.13639" lon="6.15101">
        <ele>481.4</ele>
        <time>2022-08-10T07:51:37Z</time>
      </trkpt>
      <trkpt lat="47.13639" lon="6.15101">
        <ele>481</ele>
        <time>2022-08-10T07:51:38Z</time>
      </trkpt>
      <trkpt lat="47.1364" lon="6.15101">
        <ele>479.8</ele>
        <time>2022-08-10T07:51:39Z</time>
      </trkpt>
      <trkpt lat="47.1364" lon="6.15101">
        <ele>479.8</ele>
        <time>2022-08-10T07:51:40Z</time>
      </trkpt>
      <trkpt lat="47.1364" lon="6.15101">
        <ele>479.8</ele>
        <time>2022-08-10T07:51:41Z</time>
      </trkpt>
      <trkpt lat="47.1364" lon="6.15101">
        <ele>479.8</ele>
        <time>2022-08-10T07:51:42Z</time>
      </trkpt>
      <trkpt lat="47.1364" lon="6.15101">
        <ele>479.8</ele>
        <time>2022-08-10T07:51:43Z</time>
      </trkpt>
      <trkpt lat="47.1364" lon="6.15101">
        <ele>479.8</ele>
        <time>2022-08-10T07:51:44Z</time>
      </trkpt>
      <trkpt lat="47.1364" lon="6.15101">
        <ele>479.8</ele>
        <time>2022-08-10T07:51:45Z</time>
      </trkpt>
      <trkpt lat="47.1364" lon="6.15101">
        <ele>479.8</ele>
        <time>2022-08-10T07:51:46Z</time>
      </trkpt>
      <trkpt lat="47.1364" lon="6.15101">
        <ele>479.8</ele>
        <time>2022-08-10T07:51:47Z</time>
      </trkpt>
      <trkpt lat="47.1364" lon="6.15101">
        <ele>479.8</ele>
        <time>2022-08-10T07:51:48Z</time>
      </trkpt>
      <trkpt lat="47.1364" lon="6.15101">
        <ele>479.8</ele>
        <time>2022-08-10T07:51:49Z</time>
      </trkpt>
      <trkpt lat="47.1364" lon="6.15101">
        <ele>479.8</ele>
        <time>2022-08-10T07:51:50Z</time>
      </trkpt>
      <trkpt lat="47.1364" lon="6.15101">
        <ele>479.8</ele>
        <time>2022-08-10T07:51:51Z</time>
      </trkpt>
      <trkpt lat="47.1364" lon="6.15101">
        <ele>479.8</ele>
        <time>2022-08-10T07:51:52Z</time>
      </trkpt>
      <trkpt lat="47.1364" lon="6.15101">
        <ele>479.8</ele>
        <time>2022-08-10T07:51:53Z</time>
      </trkpt>
      <trkpt lat="47.1364" lon="6.15101">
        <ele>479.8</ele>
        <time>2022-08-10T07:51:54Z</time>
      </trkpt>
      <trkpt lat="47.1364" lon="6.15101">
        <ele>479.8</ele>
        <time>2022-08-10T07:51:55Z</time>
      </trkpt>
      <trkpt lat="47.1364" lon="6.15101">
        <ele>479.8</ele>
        <time>2022-08-10T07:51:56Z</time>
      </trkpt>
      <trkpt lat="47.1364" lon="6.15101">
        <ele>479.8</ele>
        <time>2022-08-10T07:51:57Z</time>
      </trkpt>
      <trkpt lat="47.1364" lon="6.15101">
        <ele>479.8</ele>
        <time>2022-08-10T07:51:58Z</time>
      </trkpt>
      <trkpt lat="47.1364" lon="6.15101">
        <ele>479.8</ele>
        <time>2022-08-10T07:51:59Z</time>
      </trkpt>
      <trkpt lat="47.1364" lon="6.15101">
        <ele>479.8</ele>
        <time>2022-08-10T07:52:00Z</time>
      </trkpt>
      <trkpt lat="47.1364" lon="6.15101">
        <ele>479.8</ele>
        <time>2022-08-10T07:52:01Z</time>
      </trkpt>
      <trkpt lat="47.1364" lon="6.15101">
        <ele>479.8</ele>
        <time>2022-08-10T07:52:02Z</time>
      </trkpt>
      <trkpt lat="47.1364" lon="6.15101">
        <ele>479.8</ele>
        <time>2022-08-10T07:52:03Z</time>
      </trkpt>
      <trkpt lat="47.1364" lon="6.15101">
        <ele>479.8</ele>
        <time>2022-08-10T07:52:04Z</time>
      </trkpt>
      <trkpt lat="47.1364" lon="6.15101">
        <ele>479.8</ele>
        <time>2022-08-10T07:52:05Z</time>
      </trkpt>
      <trkpt lat="47.1364" lon="6.15101">
        <ele>479.8</ele>
        <time>2022-08-10T07:52:06Z</time>
      </trkpt>
      <trkpt lat="47.1364" lon="6.15101">
        <ele>479.8</ele>
        <time>2022-08-10T07:52:07Z</time>
      </trkpt>
      <trkpt lat="47.1364" lon="6.15101">
        <ele>479.8</ele>
        <time>2022-08-10T07:52:08Z</time>
      </trkpt>
      <trkpt lat="47.1364" lon="6.15101">
        <ele>479.8</ele>
        <time>2022-08-10T07:52:09Z</time>
      </trkpt>
      <trkpt lat="47.1364" lon="6.15101">
        <ele>479.8</ele>
        <time>2022-08-10T07:52:10Z</time>
      </trkpt>
      <trkpt lat="47.1364" lon="6.15101">
        <ele>479.8</ele>
        <time>2022-08-10T07:52:11Z</time>
      </trkpt>
      <trkpt lat="47.1364" lon="6.15101">
        <ele>479.8</ele>
        <time>2022-08-10T07:52:12Z</time>
      </trkpt>
      <trkpt lat="47.1364" lon="6.15101">
        <ele>479.8</ele>
        <time>2022-08-10T07:52:13Z</time>
      </trkpt>
      <trkpt lat="47.1364" lon="6.15101">
        <ele>479.8</ele>
        <time>2022-08-10T07:52:14Z</time>
      </trkpt>
      <trkpt lat="47.1364" lon="6.15101">
        <ele>479.8</ele>
        <time>2022-08-10T07:52:15Z</time>
      </trkpt>
      <trkpt lat="47.1364" lon="6.15101">
        <ele>479.8</ele>
        <time>2022-08-10T07:52:16Z</time>
      </trkpt>
      <trkpt lat="47.1364" lon="6.15101">
        <ele>479.8</ele>
        <time>2022-08-10T07:52:17Z</time>
      </trkpt>
      <trkpt lat="47.1364" lon="6.15101">
        <ele>479.8</ele>
        <time>2022-08-10T07:52:18Z</time>
      </trkpt>
      <trkpt lat="47.1364" lon="6.15101">
        <ele>479.8</ele>
        <time>2022-08-10T07:52:19Z</time>
      </trkpt>
      <trkpt lat="47.1364" lon="6.15101">
        <ele>479.8</ele>
        <time>2022-08-10T07:52:20Z</time>
      </trkpt>
      <trkpt lat="47.1364" lon="6.15101">
        <ele>479.8</ele>
        <time>2022-08-10T07:52:21Z</time>
      </trkpt>
      <trkpt lat="47.1364" lon="6.15101">
        <ele>479.8</ele>
        <time>2022-08-10T07:52:22Z</time>
      </trkpt>
      <trkpt lat="47.1364" lon="6.15101">
        <ele>479.8</ele>
        <time>2022-08-10T07:52:23Z</time>
      </trkpt>
      <trkpt lat="47.1364" lon="6.15101">
        <ele>479.8</ele>
        <time>2022-08-10T07:52:24Z</time>
      </trkpt>
      <trkpt lat="47.1364" lon="6.15101">
        <ele>479.8</ele>
        <time>2022-08-10T07:52:25Z</time>
      </trkpt>
      <trkpt lat="47.1364" lon="6.15101">
        <ele>479.8</ele>
        <time>2022-08-10T07:52:26Z</time>
      </trkpt>
      <trkpt lat="47.1364" lon="6.15101">
        <ele>479.8</ele>
        <time>2022-08-10T07:52:27Z</time>
      </trkpt>
      <trkpt lat="47.1364" lon="6.15101">
        <ele>479.8</ele>
        <time>2022-08-10T07:52:28Z</time>
      </trkpt>
      <trkpt lat="47.1364" lon="6.15101">
        <ele>479.8</ele>
        <time>2022-08-10T07:52:29Z</time>
      </trkpt>
      <trkpt lat="47.1364" lon="6.15101">
        <ele>479.8</ele>
        <time>2022-08-10T07:52:30Z</time>
      </trkpt>
      <trkpt lat="47.1364" lon="6.15101">
        <ele>479.8</ele>
        <time>2022-08-10T07:52:31Z</time>
      </trkpt>
      <trkpt lat="47.1364" lon="6.15101">
        <ele>479.8</ele>
        <time>2022-08-10T07:52:32Z</time>
      </trkpt>
      <trkpt lat="47.1364" lon="6.15101">
        <ele>479.8</ele>
        <time>2022-08-10T07:52:33Z</time>
      </trkpt>
      <trkpt lat="47.1364" lon="6.15101">
        <ele>479.8</ele>
        <time>2022-08-10T07:52:34Z</time>
      </trkpt>
      <trkpt lat="47.1364" lon="6.15101">
        <ele>479.8</ele>
        <time>2022-08-10T07:52:35Z</time>
      </trkpt>
      <trkpt lat="47.1364" lon="6.15101">
        <ele>479.8</ele>
        <time>2022-08-10T07:52:36Z</time>
      </trkpt>
      <trkpt lat="47.1364" lon="6.15101">
        <ele>479.8</ele>
        <time>2022-08-10T07:52:37Z</time>
      </trkpt>
      <trkpt lat="47.1364" lon="6.15101">
        <ele>479.8</ele>
        <time>2022-08-10T07:52:38Z</time>
      </trkpt>
      <trkpt lat="47.1364" lon="6.15101">
        <ele>479.8</ele>
        <time>2022-08-10T07:52:39Z</time>
      </trkpt>
      <trkpt lat="47.1364" lon="6.15101">
        <ele>479.8</ele>
        <time>2022-08-10T07:52:40Z</time>
      </trkpt>
      <trkpt lat="47.1364" lon="6.15101">
        <ele>479.8</ele>
        <time>2022-08-10T07:52:41Z</time>
      </trkpt>
      <trkpt lat="47.1364" lon="6.15101">
        <ele>479.8</ele>
        <time>2022-08-10T07:52:42Z</time>
      </trkpt>
      <trkpt lat="47.1364" lon="6.15101">
        <ele>479.8</ele>
        <time>2022-08-10T07:52:43Z</time>
      </trkpt>
      <trkpt lat="47.1364" lon="6.15101">
        <ele>479.8</ele>
        <time>2022-08-10T07:52:44Z</time>
      </trkpt>
      <trkpt lat="47.1364" lon="6.15101">
        <ele>479.8</ele>
        <time>2022-08-10T07:52:45Z</time>
      </trkpt>
      <trkpt lat="47.1364" lon="6.15101">
        <ele>479.8</ele>
        <time>2022-08-10T07:52:46Z</time>
      </trkpt>
      <trkpt lat="47.1364" lon="6.15101">
        <ele>479.8</ele>
        <time>2022-08-10T07:52:47Z</time>
      </trkpt>
      <trkpt lat="47.1364" lon="6.15101">
        <ele>479.8</ele>
        <time>2022-08-10T07:52:48Z</time>
      </trkpt>
      <trkpt lat="47.1364" lon="6.15101">
        <ele>479.8</ele>
        <time>2022-08-10T07:52:49Z</time>
      </trkpt>
      <trkpt lat="47.1364" lon="6.15101">
        <ele>479.8</ele>
        <time>2022-08-10T07:52:50Z</time>
      </trkpt>
      <trkpt lat="47.1364" lon="6.15101">
        <ele>479.8</ele>
        <time>2022-08-10T07:52:51Z</time>
      </trkpt>
      <trkpt lat="47.1364" lon="6.15101">
        <ele>479.8</ele>
        <time>2022-08-10T07:52:52Z</time>
      </trkpt>
      <trkpt lat="47.1364" lon="6.15101">
        <ele>479.8</ele>
        <time>2022-08-10T07:52:53Z</time>
      </trkpt>
      <trkpt lat="47.1364" lon="6.15101">
        <ele>479.8</ele>
        <time>2022-08-10T07:52:54Z</time>
      </trkpt>
      <trkpt lat="47.1364" lon="6.15101">
        <ele>479.8</ele>
        <time>2022-08-10T07:52:55Z</time>
      </trkpt>
      <trkpt lat="47.1364" lon="6.15101">
        <ele>479.8</ele>
        <time>2022-08-10T07:52:56Z</time>
      </trkpt>
      <trkpt lat="47.1364" lon="6.15101">
        <ele>479.8</ele>
        <time>2022-08-10T07:52:57Z</time>
      </trkpt>
      <trkpt lat="47.1364" lon="6.15101">
        <ele>479.8</ele>
        <time>2022-08-10T07:52:58Z</time>
      </trkpt>
      <trkpt lat="47.1364" lon="6.15101">
        <ele>479.8</ele>
        <time>2022-08-10T07:52:59Z</time>
      </trkpt>
      <trkpt lat="47.1364" lon="6.15101">
        <ele>479.8</ele>
        <time>2022-08-10T07:53:00Z</time>
      </trkpt>
      <trkpt lat="47.1364" lon="6.15101">
        <ele>479.8</ele>
        <time>2022-08-10T07:53:01Z</time>
      </trkpt>
      <trkpt lat="47.1364" lon="6.15101">
        <ele>479.8</ele>
        <time>2022-08-10T07:53:02Z</time>
      </trkpt>
      <trkpt lat="47.1364" lon="6.15101">
        <ele>479.8</ele>
        <time>2022-08-10T07:53:03Z</time>
      </trkpt>
      <trkpt lat="47.1364" lon="6.15101">
        <ele>479.8</ele>
        <time>2022-08-10T07:53:04Z</time>
      </trkpt>
      <trkpt lat="47.1364" lon="6.15101">
        <ele>479.8</ele>
        <time>2022-08-10T07:53:05Z</time>
      </trkpt>
      <trkpt lat="47.1364" lon="6.15101">
        <ele>479.8</ele>
        <time>2022-08-10T07:53:06Z</time>
      </trkpt>
      <trkpt lat="47.1364" lon="6.15101">
        <ele>479.8</ele>
        <time>2022-08-10T07:53:07Z</time>
      </trkpt>
      <trkpt lat="47.1364" lon="6.15101">
        <ele>479.8</ele>
        <time>2022-08-10T07:53:08Z</time>
      </trkpt>
      <trkpt lat="47.1364" lon="6.15101">
        <ele>479.8</ele>
        <time>2022-08-10T07:53:09Z</time>
      </trkpt>
      <trkpt lat="47.1364" lon="6.15101">
        <ele>479.8</ele>
        <time>2022-08-10T07:53:10Z</time>
      </trkpt>
      <trkpt lat="47.1364" lon="6.15101">
        <ele>479.8</ele>
        <time>2022-08-10T07:53:11Z</time>
      </trkpt>
      <trkpt lat="47.1364" lon="6.15101">
        <ele>479.8</ele>
        <time>2022-08-10T07:53:12Z</time>
      </trkpt>
      <trkpt lat="47.1364" lon="6.15101">
        <ele>479.8</ele>
        <time>2022-08-10T07:53:13Z</time>
      </trkpt>
      <trkpt lat="47.1364" lon="6.15101">
        <ele>479.8</ele>
        <time>2022-08-10T07:53:14Z</time>
      </trkpt>
      <trkpt lat="47.1364" lon="6.15101">
        <ele>479.8</ele>
        <time>2022-08-10T07:53:15Z</time>
      </trkpt>
      <trkpt lat="47.1364" lon="6.15101">
        <ele>479.8</ele>
        <time>2022-08-10T07:53:16Z</time>
      </trkpt>
      <trkpt lat="47.1364" lon="6.15101">
        <ele>479.8</ele>
        <time>2022-08-10T07:53:17Z</time>
      </trkpt>
      <trkpt lat="47.1364" lon="6.15101">
        <ele>479.8</ele>
        <time>2022-08-10T07:53:18Z</time>
      </trkpt>
      <trkpt lat="47.1364" lon="6.15101">
        <ele>479.8</ele>
        <time>2022-08-10T07:53:19Z</time>
      </trkpt>
      <trkpt lat="47.1364" lon="6.15101">
        <ele>479.8</ele>
        <time>2022-08-10T07:53:20Z</time>
      </trkpt>
      <trkpt lat="47.1364" lon="6.15101">
        <ele>479.8</ele>
        <time>2022-08-10T07:53:21Z</time>
      </trkpt>
      <trkpt lat="47.1364" lon="6.15101">
        <ele>479.8</ele>
        <time>2022-08-10T07:53:22Z</time>
      </trkpt>
      <trkpt lat="47.1364" lon="6.15101">
        <ele>479.8</ele>
        <time>2022-08-10T07:53:23Z</time>
      </trkpt>
      <trkpt lat="47.1364" lon="6.15101">
        <ele>479.8</ele>
        <time>2022-08-10T07:53:24Z</time>
      </trkpt>
      <trkpt lat="47.1364" lon="6.15101">
        <ele>479.8</ele>
        <time>2022-08-10T07:53:25Z</time>
      </trkpt>
      <trkpt lat="47.1364" lon="6.15101">
        <ele>479.8</ele>
        <time>2022-08-10T07:53:26Z</time>
      </trkpt>
      <trkpt lat="47.1364" lon="6.15101">
        <ele>479.8</ele>
        <time>2022-08-10T07:53:27Z</time>
      </trkpt>
      <trkpt lat="47.1364" lon="6.15101">
        <ele>479.8</ele>
        <time>2022-08-10T07:53:28Z</time>
      </trkpt>
      <trkpt lat="47.1364" lon="6.15101">
        <ele>479.8</ele>
        <time>2022-08-10T07:53:29Z</time>
      </trkpt>
      <trkpt lat="47.1364" lon="6.15101">
        <ele>479.8</ele>
        <time>2022-08-10T07:53:30Z</time>
      </trkpt>
      <trkpt lat="47.1364" lon="6.15101">
        <ele>479.8</ele>
        <time>2022-08-10T07:53:31Z</time>
      </trkpt>
      <trkpt lat="47.1364" lon="6.15101">
        <ele>479.8</ele>
        <time>2022-08-10T07:53:32Z</time>
      </trkpt>
      <trkpt lat="47.1364" lon="6.15101">
        <ele>479.8</ele>
        <time>2022-08-10T07:53:33Z</time>
      </trkpt>
      <trkpt lat="47.1364" lon="6.15101">
        <ele>479.8</ele>
        <time>2022-08-10T07:53:34Z</time>
      </trkpt>
      <trkpt lat="47.1364" lon="6.15101">
        <ele>479.8</ele>
        <time>2022-08-10T07:53:35Z</time>
      </trkpt>
      <trkpt lat="47.1364" lon="6.15101">
        <ele>479.8</ele>
        <time>2022-08-10T07:53:36Z</time>
      </trkpt>
      <trkpt lat="47.1364" lon="6.15101">
        <ele>479.8</ele>
        <time>2022-08-10T07:53:37Z</time>
      </trkpt>
      <trkpt lat="47.1364" lon="6.15101">
        <ele>479.8</ele>
        <time>2022-08-10T07:53:38Z</time>
      </trkpt>
      <trkpt lat="47.1364" lon="6.15101">
        <ele>479.8</ele>
        <time>2022-08-10T07:53:39Z</time>
      </trkpt>
      <trkpt lat="47.1364" lon="6.15101">
        <ele>479.8</ele>
        <time>2022-08-10T07:53:40Z</time>
      </trkpt>
      <trkpt lat="47.1364" lon="6.15101">
        <ele>479.8</ele>
        <time>2022-08-10T07:53:41Z</time>
      </trkpt>
      <trkpt lat="47.13648" lon="6.15105">
        <ele>470.7</ele>
        <time>2022-08-10T07:53:42Z</time>
      </trkpt>
      <trkpt lat="47.13649" lon="6.15105">
        <ele>470.7</ele>
        <time>2022-08-10T07:53:43Z</time>
      </trkpt>
      <trkpt lat="47.13649" lon="6.15105">
        <ele>470.6</ele>
        <time>2022-08-10T07:53:44Z</time>
      </trkpt>
      <trkpt lat="47.13649" lon="6.15105">
        <ele>470.4</ele>
        <time>2022-08-10T07:53:45Z</time>
      </trkpt>
      <trkpt lat="47.13649" lon="6.15105">
        <ele>470.4</ele>
        <time>2022-08-10T07:53:46Z</time>
      </trkpt>
      <trkpt lat="47.13649" lon="6.15105">
        <ele>470.4</ele>
        <time>2022-08-10T07:53:47Z</time>
      </trkpt>
      <trkpt lat="47.13649" lon="6.15105">
        <ele>470.4</ele>
        <time>2022-08-10T07:53:48Z</time>
      </trkpt>
      <trkpt lat="47.13649" lon="6.15105">
        <ele>470.4</ele>
        <time>2022-08-10T07:53:49Z</time>
      </trkpt>
      <trkpt lat="47.13649" lon="6.15105">
        <ele>470.4</ele>
        <time>2022-08-10T07:53:50Z</time>
      </trkpt>
      <trkpt lat="47.13649" lon="6.15105">
        <ele>470.4</ele>
        <time>2022-08-10T07:53:51Z</time>
      </trkpt>
      <trkpt lat="47.13649" lon="6.15105">
        <ele>470.4</ele>
        <time>2022-08-10T07:53:52Z</time>
      </trkpt>
      <trkpt lat="47.13649" lon="6.15105">
        <ele>470.4</ele>
        <time>2022-08-10T07:53:53Z</time>
      </trkpt>
      <trkpt lat="47.13649" lon="6.15105">
        <ele>470.4</ele>
        <time>2022-08-10T07:53:54Z</time>
      </trkpt>
      <trkpt lat="47.13655" lon="6.15114">
        <ele>471.6</ele>
        <time>2022-08-10T07:53:55Z</time>
      </trkpt>
      <trkpt lat="47.13657" lon="6.15117">
        <ele>472</ele>
        <time>2022-08-10T07:53:56Z</time>
      </trkpt>
      <trkpt lat="47.13658" lon="6.15121">
        <ele>472.5</ele>
        <time>2022-08-10T07:53:57Z</time>
      </trkpt>
      <trkpt lat="47.13659" lon="6.15126">
        <ele>472.9</ele>
        <time>2022-08-10T07:53:58Z</time>
      </trkpt>
      <trkpt lat="47.1366" lon="6.15129">
        <ele>473.3</ele>
        <time>2022-08-10T07:53:59Z</time>
      </trkpt>
      <trkpt lat="47.13662" lon="6.15133">
        <ele>473.9</ele>
        <time>2022-08-10T07:54:00Z</time>
      </trkpt>
      <trkpt lat="47.13664" lon="6.15138">
        <ele>474.4</ele>
        <time>2022-08-10T07:54:01Z</time>
      </trkpt>
      <trkpt lat="47.13667" lon="6.15143">
        <ele>475</ele>
        <time>2022-08-10T07:54:02Z</time>
      </trkpt>
      <trkpt lat="47.13669" lon="6.15148">
        <ele>475.4</ele>
        <time>2022-08-10T07:54:03Z</time>
      </trkpt>
      <trkpt lat="47.13672" lon="6.15153">
        <ele>475.9</ele>
        <time>2022-08-10T07:54:04Z</time>
      </trkpt>
      <trkpt lat="47.13675" lon="6.15157">
        <ele>476.5</ele>
        <time>2022-08-10T07:54:05Z</time>
      </trkpt>
      <trkpt lat="47.13677" lon="6.15162">
        <ele>477.1</ele>
        <time>2022-08-10T07:54:06Z</time>
      </trkpt>
      <trkpt lat="47.13679" lon="6.15168">
        <ele>477.5</ele>
        <time>2022-08-10T07:54:07Z</time>
      </trkpt>
      <trkpt lat="47.13682" lon="6.15172">
        <ele>478</ele>
        <time>2022-08-10T07:54:08Z</time>
      </trkpt>
      <trkpt lat="47.13684" lon="6.15178">
        <ele>478.5</ele>
        <time>2022-08-10T07:54:09Z</time>
      </trkpt>
      <trkpt lat="47.13687" lon="6.15183">
        <ele>478.7</ele>
        <time>2022-08-10T07:54:10Z</time>
      </trkpt>
      <trkpt lat="47.13689" lon="6.15189">
        <ele>479.2</ele>
        <time>2022-08-10T07:54:11Z</time>
      </trkpt>
      <trkpt lat="47.13691" lon="6.15194">
        <ele>479.6</ele>
        <time>2022-08-10T07:54:12Z</time>
      </trkpt>
      <trkpt lat="47.13693" lon="6.152">
        <ele>480.1</ele>
        <time>2022-08-10T07:54:13Z</time>
      </trkpt>
      <trkpt lat="47.13695" lon="6.15206">
        <ele>480.6</ele>
        <time>2022-08-10T07:54:14Z</time>
      </trkpt>
      <trkpt lat="47.13697" lon="6.15212">
        <ele>481</ele>
        <time>2022-08-10T07:54:15Z</time>
      </trkpt>
      <trkpt lat="47.13699" lon="6.15218">
        <ele>481.5</ele>
        <time>2022-08-10T07:54:16Z</time>
      </trkpt>
      <trkpt lat="47.13701" lon="6.15224">
        <ele>482.1</ele>
        <time>2022-08-10T07:54:17Z</time>
      </trkpt>
      <trkpt lat="47.13703" lon="6.1523">
        <ele>482.7</ele>
        <time>2022-08-10T07:54:18Z</time>
      </trkpt>
      <trkpt lat="47.13705" lon="6.15235">
        <ele>483.2</ele>
        <time>2022-08-10T07:54:19Z</time>
      </trkpt>
      <trkpt lat="47.13707" lon="6.1524">
        <ele>483.7</ele>
        <time>2022-08-10T07:54:20Z</time>
      </trkpt>
      <trkpt lat="47.13709" lon="6.15245">
        <ele>484.4</ele>
        <time>2022-08-10T07:54:21Z</time>
      </trkpt>
      <trkpt lat="47.13711" lon="6.15252">
        <ele>484.9</ele>
        <time>2022-08-10T07:54:22Z</time>
      </trkpt>
      <trkpt lat="47.13713" lon="6.15258">
        <ele>485.1</ele>
        <time>2022-08-10T07:54:23Z</time>
      </trkpt>
      <trkpt lat="47.13715" lon="6.15264">
        <ele>485.3</ele>
        <time>2022-08-10T07:54:24Z</time>
      </trkpt>
      <trkpt lat="47.13717" lon="6.1527">
        <ele>485.5</ele>
        <time>2022-08-10T07:54:25Z</time>
      </trkpt>
      <trkpt lat="47.13718" lon="6.15275">
        <ele>485.7</ele>
        <time>2022-08-10T07:54:26Z</time>
      </trkpt>
      <trkpt lat="47.13719" lon="6.15281">
        <ele>485.8</ele>
        <time>2022-08-10T07:54:27Z</time>
      </trkpt>
      <trkpt lat="47.13721" lon="6.15286">
        <ele>485.7</ele>
        <time>2022-08-10T07:54:28Z</time>
      </trkpt>
      <trkpt lat="47.13722" lon="6.15291">
        <ele>485.8</ele>
        <time>2022-08-10T07:54:29Z</time>
      </trkpt>
      <trkpt lat="47.13723" lon="6.15297">
        <ele>485.9</ele>
        <time>2022-08-10T07:54:30Z</time>
      </trkpt>
      <trkpt lat="47.13724" lon="6.15303">
        <ele>485.8</ele>
        <time>2022-08-10T07:54:31Z</time>
      </trkpt>
      <trkpt lat="47.13726" lon="6.15309">
        <ele>485.7</ele>
        <time>2022-08-10T07:54:32Z</time>
      </trkpt>
      <trkpt lat="47.13728" lon="6.15316">
        <ele>485.6</ele>
        <time>2022-08-10T07:54:33Z</time>
      </trkpt>
      <trkpt lat="47.13729" lon="6.15322">
        <ele>485.7</ele>
        <time>2022-08-10T07:54:34Z</time>
      </trkpt>
      <trkpt lat="47.13732" lon="6.15328">
        <ele>485.5</ele>
        <time>2022-08-10T07:54:35Z</time>
      </trkpt>
      <trkpt lat="47.13734" lon="6.15335">
        <ele>485.1</ele>
        <time>2022-08-10T07:54:36Z</time>
      </trkpt>
      <trkpt lat="47.13735" lon="6.15341">
        <ele>484.9</ele>
        <time>2022-08-10T07:54:37Z</time>
      </trkpt>
      <trkpt lat="47.13736" lon="6.15347">
        <ele>484.7</ele>
        <time>2022-08-10T07:54:38Z</time>
      </trkpt>
      <trkpt lat="47.13737" lon="6.15353">
        <ele>484.2</ele>
        <time>2022-08-10T07:54:39Z</time>
      </trkpt>
      <trkpt lat="47.13739" lon="6.15359">
        <ele>483.6</ele>
        <time>2022-08-10T07:54:40Z</time>
      </trkpt>
      <trkpt lat="47.13741" lon="6.15366">
        <ele>483.3</ele>
        <time>2022-08-10T07:54:41Z</time>
      </trkpt>
      <trkpt lat="47.13742" lon="6.15372">
        <ele>483</ele>
        <time>2022-08-10T07:54:42Z</time>
      </trkpt>
      <trkpt lat="47.13744" lon="6.15378">
        <ele>482.5</ele>
        <time>2022-08-10T07:54:43Z</time>
      </trkpt>
      <trkpt lat="47.13746" lon="6.15384">
        <ele>481.9</ele>
        <time>2022-08-10T07:54:44Z</time>
      </trkpt>
      <trkpt lat="47.13747" lon="6.1539">
        <ele>481.4</ele>
        <time>2022-08-10T07:54:45Z</time>
      </trkpt>
      <trkpt lat="47.13749" lon="6.15396">
        <ele>481</ele>
        <time>2022-08-10T07:54:46Z</time>
      </trkpt>
      <trkpt lat="47.1375" lon="6.15402">
        <ele>480.8</ele>
        <time>2022-08-10T07:54:47Z</time>
      </trkpt>
      <trkpt lat="47.13752" lon="6.15409">
        <ele>480.1</ele>
        <time>2022-08-10T07:54:48Z</time>
      </trkpt>
      <trkpt lat="47.13754" lon="6.15415">
        <ele>479.8</ele>
        <time>2022-08-10T07:54:49Z</time>
      </trkpt>
      <trkpt lat="47.13755" lon="6.15421">
        <ele>479.2</ele>
        <time>2022-08-10T07:54:50Z</time>
      </trkpt>
      <trkpt lat="47.13757" lon="6.15427">
        <ele>478.8</ele>
        <time>2022-08-10T07:54:51Z</time>
      </trkpt>
      <trkpt lat="47.13759" lon="6.15434">
        <ele>478.6</ele>
        <time>2022-08-10T07:54:52Z</time>
      </trkpt>
      <trkpt lat="47.1376" lon="6.1544">
        <ele>478.4</ele>
        <time>2022-08-10T07:54:53Z</time>
      </trkpt>
      <trkpt lat="47.13761" lon="6.15446">
        <ele>478.3</ele>
        <time>2022-08-10T07:54:54Z</time>
      </trkpt>
      <trkpt lat="47.13763" lon="6.15453">
        <ele>477.9</ele>
        <time>2022-08-10T07:54:55Z</time>
      </trkpt>
      <trkpt lat="47.13765" lon="6.1546">
        <ele>477.6</ele>
        <time>2022-08-10T07:54:56Z</time>
      </trkpt>
      <trkpt lat="47.13767" lon="6.15467">
        <ele>477.2</ele>
        <time>2022-08-10T07:54:57Z</time>
      </trkpt>
      <trkpt lat="47.13768" lon="6.15473">
        <ele>477.4</ele>
        <time>2022-08-10T07:54:58Z</time>
      </trkpt>
      <trkpt lat="47.13771" lon="6.1548">
        <ele>476.9</ele>
        <time>2022-08-10T07:54:59Z</time>
      </trkpt>
      <trkpt lat="47.13773" lon="6.15486">
        <ele>476.4</ele>
        <time>2022-08-10T07:55:00Z</time>
      </trkpt>
      <trkpt lat="47.13775" lon="6.15492">
        <ele>476.2</ele>
        <time>2022-08-10T07:55:01Z</time>
      </trkpt>
      <trkpt lat="47.13778" lon="6.15499">
        <ele>475.3</ele>
        <time>2022-08-10T07:55:02Z</time>
      </trkpt>
      <trkpt lat="47.13781" lon="6.15506">
        <ele>474.5</ele>
        <time>2022-08-10T07:55:03Z</time>
      </trkpt>
      <trkpt lat="47.13783" lon="6.15512">
        <ele>474.4</ele>
        <time>2022-08-10T07:55:04Z</time>
      </trkpt>
      <trkpt lat="47.13786" lon="6.15518">
        <ele>474.2</ele>
        <time>2022-08-10T07:55:05Z</time>
      </trkpt>
      <trkpt lat="47.13788" lon="6.15524">
        <ele>474.1</ele>
        <time>2022-08-10T07:55:06Z</time>
      </trkpt>
      <trkpt lat="47.13791" lon="6.1553">
        <ele>474.1</ele>
        <time>2022-08-10T07:55:07Z</time>
      </trkpt>
      <trkpt lat="47.13793" lon="6.15536">
        <ele>473.8</ele>
        <time>2022-08-10T07:55:08Z</time>
      </trkpt>
      <trkpt lat="47.13796" lon="6.15542">
        <ele>473.6</ele>
        <time>2022-08-10T07:55:09Z</time>
      </trkpt>
      <trkpt lat="47.13799" lon="6.15548">
        <ele>473.2</ele>
        <time>2022-08-10T07:55:10Z</time>
      </trkpt>
      <trkpt lat="47.13801" lon="6.15553">
        <ele>473.5</ele>
        <time>2022-08-10T07:55:11Z</time>
      </trkpt>
      <trkpt lat="47.13804" lon="6.15558">
        <ele>473.7</ele>
        <time>2022-08-10T07:55:12Z</time>
      </trkpt>
      <trkpt lat="47.13807" lon="6.15563">
        <ele>473.6</ele>
        <time>2022-08-10T07:55:13Z</time>
      </trkpt>
      <trkpt lat="47.1381" lon="6.15569">
        <ele>473.7</ele>
        <time>2022-08-10T07:55:14Z</time>
      </trkpt>
      <trkpt lat="47.13813" lon="6.15574">
        <ele>473.8</ele>
        <time>2022-08-10T07:55:15Z</time>
      </trkpt>
      <trkpt lat="47.13816" lon="6.1558">
        <ele>474.1</ele>
        <time>2022-08-10T07:55:16Z</time>
      </trkpt>
      <trkpt lat="47.13818" lon="6.15585">
        <ele>474.5</ele>
        <time>2022-08-10T07:55:17Z</time>
      </trkpt>
      <trkpt lat="47.1382" lon="6.1559">
        <ele>474.5</ele>
        <time>2022-08-10T07:55:18Z</time>
      </trkpt>
      <trkpt lat="47.13822" lon="6.15595">
        <ele>474.6</ele>
        <time>2022-08-10T07:55:19Z</time>
      </trkpt>
      <trkpt lat="47.13825" lon="6.15601">
        <ele>474.8</ele>
        <time>2022-08-10T07:55:20Z</time>
      </trkpt>
      <trkpt lat="47.13828" lon="6.15606">
        <ele>474.7</ele>
        <time>2022-08-10T07:55:21Z</time>
      </trkpt>
      <trkpt lat="47.1383" lon="6.15611">
        <ele>475</ele>
        <time>2022-08-10T07:55:22Z</time>
      </trkpt>
      <trkpt lat="47.13832" lon="6.15615">
        <ele>475</ele>
        <time>2022-08-10T07:55:23Z</time>
      </trkpt>
      <trkpt lat="47.13835" lon="6.15619">
        <ele>475</ele>
        <time>2022-08-10T07:55:24Z</time>
      </trkpt>
      <trkpt lat="47.13839" lon="6.15623">
        <ele>474.8</ele>
        <time>2022-08-10T07:55:25Z</time>
      </trkpt>
      <trkpt lat="47.13842" lon="6.15627">
        <ele>474.8</ele>
        <time>2022-08-10T07:55:26Z</time>
      </trkpt>
      <trkpt lat="47.13845" lon="6.15631">
        <ele>475</ele>
        <time>2022-08-10T07:55:27Z</time>
      </trkpt>
      <trkpt lat="47.13848" lon="6.15635">
        <ele>474.6</ele>
        <time>2022-08-10T07:55:28Z</time>
      </trkpt>
      <trkpt lat="47.13852" lon="6.15639">
        <ele>474.1</ele>
        <time>2022-08-10T07:55:29Z</time>
      </trkpt>
      <trkpt lat="47.13856" lon="6.15643">
        <ele>473.8</ele>
        <time>2022-08-10T07:55:30Z</time>
      </trkpt>
      <trkpt lat="47.1386" lon="6.15648">
        <ele>473.7</ele>
        <time>2022-08-10T07:55:31Z</time>
      </trkpt>
      <trkpt lat="47.13864" lon="6.15651">
        <ele>473.8</ele>
        <time>2022-08-10T07:55:32Z</time>
      </trkpt>
      <trkpt lat="47.13867" lon="6.15656">
        <ele>473.7</ele>
        <time>2022-08-10T07:55:33Z</time>
      </trkpt>
      <trkpt lat="47.13871" lon="6.15661">
        <ele>473.7</ele>
        <time>2022-08-10T07:55:34Z</time>
      </trkpt>
      <trkpt lat="47.13874" lon="6.15666">
        <ele>474.1</ele>
        <time>2022-08-10T07:55:35Z</time>
      </trkpt>
      <trkpt lat="47.13877" lon="6.15671">
        <ele>474.4</ele>
        <time>2022-08-10T07:55:36Z</time>
      </trkpt>
      <trkpt lat="47.1388" lon="6.15676">
        <ele>474.8</ele>
        <time>2022-08-10T07:55:37Z</time>
      </trkpt>
      <trkpt lat="47.13884" lon="6.15681">
        <ele>475.1</ele>
        <time>2022-08-10T07:55:38Z</time>
      </trkpt>
      <trkpt lat="47.13888" lon="6.15686">
        <ele>474.8</ele>
        <time>2022-08-10T07:55:39Z</time>
      </trkpt>
      <trkpt lat="47.13892" lon="6.15691">
        <ele>474.6</ele>
        <time>2022-08-10T07:55:40Z</time>
      </trkpt>
      <trkpt lat="47.13895" lon="6.15696">
        <ele>474.8</ele>
        <time>2022-08-10T07:55:41Z</time>
      </trkpt>
      <trkpt lat="47.13898" lon="6.157">
        <ele>474.6</ele>
        <time>2022-08-10T07:55:42Z</time>
      </trkpt>
      <trkpt lat="47.13902" lon="6.15704">
        <ele>474.3</ele>
        <time>2022-08-10T07:55:43Z</time>
      </trkpt>
      <trkpt lat="47.13906" lon="6.15708">
        <ele>474.1</ele>
        <time>2022-08-10T07:55:44Z</time>
      </trkpt>
      <trkpt lat="47.1391" lon="6.15712">
        <ele>474</ele>
        <time>2022-08-10T07:55:45Z</time>
      </trkpt>
      <trkpt lat="47.13914" lon="6.15716">
        <ele>473.7</ele>
        <time>2022-08-10T07:55:46Z</time>
      </trkpt>
      <trkpt lat="47.13918" lon="6.1572">
        <ele>473.5</ele>
        <time>2022-08-10T07:55:47Z</time>
      </trkpt>
      <trkpt lat="47.13922" lon="6.15724">
        <ele>473.3</ele>
        <time>2022-08-10T07:55:48Z</time>
      </trkpt>
      <trkpt lat="47.13926" lon="6.15728">
        <ele>472.9</ele>
        <time>2022-08-10T07:55:49Z</time>
      </trkpt>
      <trkpt lat="47.1393" lon="6.15733">
        <ele>472.6</ele>
        <time>2022-08-10T07:55:50Z</time>
      </trkpt>
      <trkpt lat="47.13933" lon="6.15738">
        <ele>472.4</ele>
        <time>2022-08-10T07:55:51Z</time>
      </trkpt>
      <trkpt lat="47.13937" lon="6.15742">
        <ele>472.3</ele>
        <time>2022-08-10T07:55:52Z</time>
      </trkpt>
      <trkpt lat="47.13941" lon="6.15747">
        <ele>472.1</ele>
        <time>2022-08-10T07:55:53Z</time>
      </trkpt>
      <trkpt lat="47.13944" lon="6.1575">
        <ele>471.9</ele>
        <time>2022-08-10T07:55:54Z</time>
      </trkpt>
      <trkpt lat="47.13947" lon="6.15755">
        <ele>471.7</ele>
        <time>2022-08-10T07:55:55Z</time>
      </trkpt>
      <trkpt lat="47.1395" lon="6.15758">
        <ele>471.5</ele>
        <time>2022-08-10T07:55:56Z</time>
      </trkpt>
      <trkpt lat="47.13954" lon="6.15763">
        <ele>471.4</ele>
        <time>2022-08-10T07:55:57Z</time>
      </trkpt>
      <trkpt lat="47.13957" lon="6.15768">
        <ele>471.4</ele>
        <time>2022-08-10T07:55:58Z</time>
      </trkpt>
      <trkpt lat="47.1396" lon="6.15773">
        <ele>471.1</ele>
        <time>2022-08-10T07:55:59Z</time>
      </trkpt>
      <trkpt lat="47.13964" lon="6.15778">
        <ele>470.8</ele>
        <time>2022-08-10T07:56:00Z</time>
      </trkpt>
      <trkpt lat="47.13967" lon="6.15783">
        <ele>470.4</ele>
        <time>2022-08-10T07:56:01Z</time>
      </trkpt>
      <trkpt lat="47.1397" lon="6.15788">
        <ele>469.7</ele>
        <time>2022-08-10T07:56:02Z</time>
      </trkpt>
      <trkpt lat="47.13973" lon="6.15793">
        <ele>469.2</ele>
        <time>2022-08-10T07:56:03Z</time>
      </trkpt>
      <trkpt lat="47.13976" lon="6.15798">
        <ele>469</ele>
        <time>2022-08-10T07:56:04Z</time>
      </trkpt>
      <trkpt lat="47.13978" lon="6.15805">
        <ele>468.8</ele>
        <time>2022-08-10T07:56:05Z</time>
      </trkpt>
      <trkpt lat="47.1398" lon="6.15811">
        <ele>468.5</ele>
        <time>2022-08-10T07:56:06Z</time>
      </trkpt>
      <trkpt lat="47.13983" lon="6.15817">
        <ele>468.4</ele>
        <time>2022-08-10T07:56:07Z</time>
      </trkpt>
      <trkpt lat="47.13985" lon="6.15822">
        <ele>468</ele>
        <time>2022-08-10T07:56:08Z</time>
      </trkpt>
      <trkpt lat="47.13987" lon="6.15828">
        <ele>467.7</ele>
        <time>2022-08-10T07:56:09Z</time>
      </trkpt>
      <trkpt lat="47.13989" lon="6.15834">
        <ele>467.4</ele>
        <time>2022-08-10T07:56:10Z</time>
      </trkpt>
      <trkpt lat="47.13991" lon="6.1584">
        <ele>467.4</ele>
        <time>2022-08-10T07:56:11Z</time>
      </trkpt>
      <trkpt lat="47.13993" lon="6.15845">
        <ele>467.4</ele>
        <time>2022-08-10T07:56:12Z</time>
      </trkpt>
      <trkpt lat="47.13995" lon="6.15851">
        <ele>467.5</ele>
        <time>2022-08-10T07:56:13Z</time>
      </trkpt>
      <trkpt lat="47.13997" lon="6.15857">
        <ele>468</ele>
        <time>2022-08-10T07:56:14Z</time>
      </trkpt>
      <trkpt lat="47.13998" lon="6.15864">
        <ele>468.6</ele>
        <time>2022-08-10T07:56:15Z</time>
      </trkpt>
      <trkpt lat="47.13999" lon="6.15871">
        <ele>469.1</ele>
        <time>2022-08-10T07:56:16Z</time>
      </trkpt>
      <trkpt lat="47.14001" lon="6.15877">
        <ele>469.7</ele>
        <time>2022-08-10T07:56:17Z</time>
      </trkpt>
      <trkpt lat="47.14002" lon="6.15884">
        <ele>470.3</ele>
        <time>2022-08-10T07:56:18Z</time>
      </trkpt>
      <trkpt lat="47.14004" lon="6.15891">
        <ele>470.9</ele>
        <time>2022-08-10T07:56:19Z</time>
      </trkpt>
      <trkpt lat="47.14005" lon="6.15897">
        <ele>471.4</ele>
        <time>2022-08-10T07:56:20Z</time>
      </trkpt>
      <trkpt lat="47.14006" lon="6.15903">
        <ele>472.2</ele>
        <time>2022-08-10T07:56:21Z</time>
      </trkpt>
      <trkpt lat="47.14007" lon="6.15908">
        <ele>472.7</ele>
        <time>2022-08-10T07:56:22Z</time>
      </trkpt>
      <trkpt lat="47.14009" lon="6.15914">
        <ele>473.3</ele>
        <time>2022-08-10T07:56:23Z</time>
      </trkpt>
      <trkpt lat="47.1401" lon="6.1592">
        <ele>473.8</ele>
        <time>2022-08-10T07:56:24Z</time>
      </trkpt>
      <trkpt lat="47.14012" lon="6.15926">
        <ele>474.4</ele>
        <time>2022-08-10T07:56:25Z</time>
      </trkpt>
      <trkpt lat="47.14013" lon="6.15932">
        <ele>475.2</ele>
        <time>2022-08-10T07:56:26Z</time>
      </trkpt>
      <trkpt lat="47.14015" lon="6.15938">
        <ele>475.8</ele>
        <time>2022-08-10T07:56:27Z</time>
      </trkpt>
      <trkpt lat="47.14017" lon="6.15944">
        <ele>476</ele>
        <time>2022-08-10T07:56:28Z</time>
      </trkpt>
      <trkpt lat="47.14018" lon="6.1595">
        <ele>476.6</ele>
        <time>2022-08-10T07:56:29Z</time>
      </trkpt>
      <trkpt lat="47.1402" lon="6.15956">
        <ele>477.1</ele>
        <time>2022-08-10T07:56:30Z</time>
      </trkpt>
      <trkpt lat="47.14021" lon="6.15961">
        <ele>477.6</ele>
        <time>2022-08-10T07:56:31Z</time>
      </trkpt>
      <trkpt lat="47.14022" lon="6.15967">
        <ele>478.5</ele>
        <time>2022-08-10T07:56:32Z</time>
      </trkpt>
      <trkpt lat="47.14024" lon="6.15972">
        <ele>478.8</ele>
        <time>2022-08-10T07:56:33Z</time>
      </trkpt>
      <trkpt lat="47.14025" lon="6.15978">
        <ele>479.3</ele>
        <time>2022-08-10T07:56:34Z</time>
      </trkpt>
      <trkpt lat="47.14027" lon="6.15984">
        <ele>479.7</ele>
        <time>2022-08-10T07:56:35Z</time>
      </trkpt>
      <trkpt lat="47.14029" lon="6.1599">
        <ele>480.5</ele>
        <time>2022-08-10T07:56:36Z</time>
      </trkpt>
      <trkpt lat="47.14031" lon="6.15995">
        <ele>481</ele>
        <time>2022-08-10T07:56:37Z</time>
      </trkpt>
      <trkpt lat="47.14032" lon="6.16">
        <ele>481.6</ele>
        <time>2022-08-10T07:56:38Z</time>
      </trkpt>
      <trkpt lat="47.14034" lon="6.16006">
        <ele>482.5</ele>
        <time>2022-08-10T07:56:39Z</time>
      </trkpt>
      <trkpt lat="47.14037" lon="6.16011">
        <ele>483.1</ele>
        <time>2022-08-10T07:56:40Z</time>
      </trkpt>
      <trkpt lat="47.14039" lon="6.16017">
        <ele>483.7</ele>
        <time>2022-08-10T07:56:41Z</time>
      </trkpt>
      <trkpt lat="47.1404" lon="6.16022">
        <ele>484.3</ele>
        <time>2022-08-10T07:56:42Z</time>
      </trkpt>
      <trkpt lat="47.14043" lon="6.16027">
        <ele>484.6</ele>
        <time>2022-08-10T07:56:43Z</time>
      </trkpt>
      <trkpt lat="47.14046" lon="6.16033">
        <ele>484.6</ele>
        <time>2022-08-10T07:56:44Z</time>
      </trkpt>
      <trkpt lat="47.14048" lon="6.16039">
        <ele>484.8</ele>
        <time>2022-08-10T07:56:45Z</time>
      </trkpt>
      <trkpt lat="47.14051" lon="6.16044">
        <ele>484.9</ele>
        <time>2022-08-10T07:56:46Z</time>
      </trkpt>
      <trkpt lat="47.14054" lon="6.16049">
        <ele>484.8</ele>
        <time>2022-08-10T07:56:47Z</time>
      </trkpt>
      <trkpt lat="47.14057" lon="6.16055">
        <ele>484.8</ele>
        <time>2022-08-10T07:56:48Z</time>
      </trkpt>
      <trkpt lat="47.1406" lon="6.1606">
        <ele>485</ele>
        <time>2022-08-10T07:56:49Z</time>
      </trkpt>
      <trkpt lat="47.14063" lon="6.16065">
        <ele>485</ele>
        <time>2022-08-10T07:56:50Z</time>
      </trkpt>
      <trkpt lat="47.14066" lon="6.1607">
        <ele>484.6</ele>
        <time>2022-08-10T07:56:51Z</time>
      </trkpt>
      <trkpt lat="47.14069" lon="6.16076">
        <ele>484.1</ele>
        <time>2022-08-10T07:56:52Z</time>
      </trkpt>
      <trkpt lat="47.14072" lon="6.1608">
        <ele>483.9</ele>
        <time>2022-08-10T07:56:53Z</time>
      </trkpt>
      <trkpt lat="47.14075" lon="6.16085">
        <ele>483.1</ele>
        <time>2022-08-10T07:56:54Z</time>
      </trkpt>
      <trkpt lat="47.14078" lon="6.1609">
        <ele>482.9</ele>
        <time>2022-08-10T07:56:55Z</time>
      </trkpt>
      <trkpt lat="47.14082" lon="6.16097">
        <ele>481.7</ele>
        <time>2022-08-10T07:56:56Z</time>
      </trkpt>
      <trkpt lat="47.14086" lon="6.16102">
        <ele>481.4</ele>
        <time>2022-08-10T07:56:57Z</time>
      </trkpt>
      <trkpt lat="47.14089" lon="6.16107">
        <ele>481.2</ele>
        <time>2022-08-10T07:56:58Z</time>
      </trkpt>
      <trkpt lat="47.14092" lon="6.16113">
        <ele>480.7</ele>
        <time>2022-08-10T07:56:59Z</time>
      </trkpt>
      <trkpt lat="47.14095" lon="6.16118">
        <ele>480.4</ele>
        <time>2022-08-10T07:57:00Z</time>
      </trkpt>
      <trkpt lat="47.14098" lon="6.16123">
        <ele>479.8</ele>
        <time>2022-08-10T07:57:01Z</time>
      </trkpt>
      <trkpt lat="47.14101" lon="6.16128">
        <ele>479.1</ele>
        <time>2022-08-10T07:57:02Z</time>
      </trkpt>
      <trkpt lat="47.14105" lon="6.16133">
        <ele>478.9</ele>
        <time>2022-08-10T07:57:03Z</time>
      </trkpt>
      <trkpt lat="47.14108" lon="6.16137">
        <ele>478.8</ele>
        <time>2022-08-10T07:57:04Z</time>
      </trkpt>
      <trkpt lat="47.14112" lon="6.16141">
        <ele>478.7</ele>
        <time>2022-08-10T07:57:05Z</time>
      </trkpt>
      <trkpt lat="47.14115" lon="6.16146">
        <ele>478.3</ele>
        <time>2022-08-10T07:57:06Z</time>
      </trkpt>
      <trkpt lat="47.14118" lon="6.16151">
        <ele>478.4</ele>
        <time>2022-08-10T07:57:07Z</time>
      </trkpt>
      <trkpt lat="47.14121" lon="6.16156">
        <ele>478.8</ele>
        <time>2022-08-10T07:57:08Z</time>
      </trkpt>
      <trkpt lat="47.14125" lon="6.16161">
        <ele>478.6</ele>
        <time>2022-08-10T07:57:09Z</time>
      </trkpt>
      <trkpt lat="47.14128" lon="6.16165">
        <ele>478.5</ele>
        <time>2022-08-10T07:57:10Z</time>
      </trkpt>
      <trkpt lat="47.14132" lon="6.1617">
        <ele>478.9</ele>
        <time>2022-08-10T07:57:11Z</time>
      </trkpt>
      <trkpt lat="47.14135" lon="6.16174">
        <ele>479.1</ele>
        <time>2022-08-10T07:57:12Z</time>
      </trkpt>
      <trkpt lat="47.1414" lon="6.16177">
        <ele>478.8</ele>
        <time>2022-08-10T07:57:13Z</time>
      </trkpt>
      <trkpt lat="47.14143" lon="6.1618">
        <ele>478.3</ele>
        <time>2022-08-10T07:57:14Z</time>
      </trkpt>
      <trkpt lat="47.14147" lon="6.16183">
        <ele>478.1</ele>
        <time>2022-08-10T07:57:15Z</time>
      </trkpt>
      <trkpt lat="47.14151" lon="6.16187">
        <ele>477.8</ele>
        <time>2022-08-10T07:57:16Z</time>
      </trkpt>
      <trkpt lat="47.14154" lon="6.16191">
        <ele>478.4</ele>
        <time>2022-08-10T07:57:17Z</time>
      </trkpt>
      <trkpt lat="47.14157" lon="6.16195">
        <ele>478.8</ele>
        <time>2022-08-10T07:57:18Z</time>
      </trkpt>
      <trkpt lat="47.14161" lon="6.162">
        <ele>479.1</ele>
        <time>2022-08-10T07:57:19Z</time>
      </trkpt>
      <trkpt lat="47.14165" lon="6.16204">
        <ele>479.1</ele>
        <time>2022-08-10T07:57:20Z</time>
      </trkpt>
      <trkpt lat="47.14169" lon="6.16208">
        <ele>479.2</ele>
        <time>2022-08-10T07:57:21Z</time>
      </trkpt>
      <trkpt lat="47.14174" lon="6.16212">
        <ele>479</ele>
        <time>2022-08-10T07:57:22Z</time>
      </trkpt>
      <trkpt lat="47.14177" lon="6.16216">
        <ele>478.7</ele>
        <time>2022-08-10T07:57:23Z</time>
      </trkpt>
      <trkpt lat="47.14182" lon="6.1622">
        <ele>478.4</ele>
        <time>2022-08-10T07:57:24Z</time>
      </trkpt>
      <trkpt lat="47.14186" lon="6.16223">
        <ele>478.1</ele>
        <time>2022-08-10T07:57:25Z</time>
      </trkpt>
      <trkpt lat="47.14189" lon="6.16228">
        <ele>477.3</ele>
        <time>2022-08-10T07:57:26Z</time>
      </trkpt>
      <trkpt lat="47.14192" lon="6.16232">
        <ele>476.7</ele>
        <time>2022-08-10T07:57:27Z</time>
      </trkpt>
      <trkpt lat="47.14196" lon="6.16237">
        <ele>476.1</ele>
        <time>2022-08-10T07:57:28Z</time>
      </trkpt>
      <trkpt lat="47.14199" lon="6.1624">
        <ele>475.6</ele>
        <time>2022-08-10T07:57:29Z</time>
      </trkpt>
      <trkpt lat="47.14202" lon="6.16244">
        <ele>474.9</ele>
        <time>2022-08-10T07:57:30Z</time>
      </trkpt>
      <trkpt lat="47.14205" lon="6.16252">
        <ele>473.7</ele>
        <time>2022-08-10T07:57:31Z</time>
      </trkpt>
      <trkpt lat="47.14208" lon="6.16258">
        <ele>473.5</ele>
        <time>2022-08-10T07:57:32Z</time>
      </trkpt>
      <trkpt lat="47.1421" lon="6.16264">
        <ele>473.2</ele>
        <time>2022-08-10T07:57:33Z</time>
      </trkpt>
      <trkpt lat="47.14213" lon="6.1627">
        <ele>472.9</ele>
        <time>2022-08-10T07:57:34Z</time>
      </trkpt>
      <trkpt lat="47.14216" lon="6.16275">
        <ele>472.8</ele>
        <time>2022-08-10T07:57:35Z</time>
      </trkpt>
      <trkpt lat="47.14218" lon="6.16281">
        <ele>472.8</ele>
        <time>2022-08-10T07:57:36Z</time>
      </trkpt>
      <trkpt lat="47.14221" lon="6.16286">
        <ele>472.5</ele>
        <time>2022-08-10T07:57:37Z</time>
      </trkpt>
      <trkpt lat="47.14223" lon="6.16292">
        <ele>472.6</ele>
        <time>2022-08-10T07:57:38Z</time>
      </trkpt>
      <trkpt lat="47.14225" lon="6.16299">
        <ele>472.5</ele>
        <time>2022-08-10T07:57:39Z</time>
      </trkpt>
      <trkpt lat="47.14228" lon="6.16305">
        <ele>472.4</ele>
        <time>2022-08-10T07:57:40Z</time>
      </trkpt>
      <trkpt lat="47.1423" lon="6.16311">
        <ele>472.7</ele>
        <time>2022-08-10T07:57:41Z</time>
      </trkpt>
      <trkpt lat="47.14233" lon="6.16316">
        <ele>473.1</ele>
        <time>2022-08-10T07:57:42Z</time>
      </trkpt>
      <trkpt lat="47.14236" lon="6.16322">
        <ele>473.2</ele>
        <time>2022-08-10T07:57:43Z</time>
      </trkpt>
      <trkpt lat="47.14238" lon="6.16328">
        <ele>473.5</ele>
        <time>2022-08-10T07:57:44Z</time>
      </trkpt>
      <trkpt lat="47.14241" lon="6.16334">
        <ele>473.9</ele>
        <time>2022-08-10T07:57:45Z</time>
      </trkpt>
      <trkpt lat="47.14243" lon="6.1634">
        <ele>474</ele>
        <time>2022-08-10T07:57:46Z</time>
      </trkpt>
      <trkpt lat="47.14245" lon="6.16346">
        <ele>474.2</ele>
        <time>2022-08-10T07:57:47Z</time>
      </trkpt>
      <trkpt lat="47.14247" lon="6.16352">
        <ele>474.3</ele>
        <time>2022-08-10T07:57:48Z</time>
      </trkpt>
      <trkpt lat="47.14248" lon="6.16358">
        <ele>474.6</ele>
        <time>2022-08-10T07:57:49Z</time>
      </trkpt>
      <trkpt lat="47.1425" lon="6.16363">
        <ele>474.9</ele>
        <time>2022-08-10T07:57:50Z</time>
      </trkpt>
      <trkpt lat="47.14251" lon="6.16369">
        <ele>475.1</ele>
        <time>2022-08-10T07:57:51Z</time>
      </trkpt>
      <trkpt lat="47.14253" lon="6.16376">
        <ele>475.2</ele>
        <time>2022-08-10T07:57:52Z</time>
      </trkpt>
      <trkpt lat="47.14255" lon="6.16383">
        <ele>475.8</ele>
        <time>2022-08-10T07:57:53Z</time>
      </trkpt>
      <trkpt lat="47.14257" lon="6.16389">
        <ele>476.5</ele>
        <time>2022-08-10T07:57:54Z</time>
      </trkpt>
      <trkpt lat="47.14258" lon="6.16395">
        <ele>477.3</ele>
        <time>2022-08-10T07:57:55Z</time>
      </trkpt>
      <trkpt lat="47.14259" lon="6.16401">
        <ele>477.7</ele>
        <time>2022-08-10T07:57:56Z</time>
      </trkpt>
      <trkpt lat="47.14261" lon="6.16407">
        <ele>478.3</ele>
        <time>2022-08-10T07:57:57Z</time>
      </trkpt>
      <trkpt lat="47.14262" lon="6.16414">
        <ele>478.5</ele>
        <time>2022-08-10T07:57:58Z</time>
      </trkpt>
      <trkpt lat="47.14264" lon="6.16421">
        <ele>478.6</ele>
        <time>2022-08-10T07:57:59Z</time>
      </trkpt>
      <trkpt lat="47.14266" lon="6.16428">
        <ele>478.8</ele>
        <time>2022-08-10T07:58:00Z</time>
      </trkpt>
      <trkpt lat="47.14267" lon="6.16435">
        <ele>479.1</ele>
        <time>2022-08-10T07:58:01Z</time>
      </trkpt>
      <trkpt lat="47.14269" lon="6.16441">
        <ele>479.3</ele>
        <time>2022-08-10T07:58:02Z</time>
      </trkpt>
      <trkpt lat="47.1427" lon="6.16448">
        <ele>479.3</ele>
        <time>2022-08-10T07:58:03Z</time>
      </trkpt>
      <trkpt lat="47.14271" lon="6.16454">
        <ele>479.4</ele>
        <time>2022-08-10T07:58:04Z</time>
      </trkpt>
      <trkpt lat="47.14272" lon="6.16461">
        <ele>479.4</ele>
        <time>2022-08-10T07:58:05Z</time>
      </trkpt>
      <trkpt lat="47.14274" lon="6.16467">
        <ele>479.5</ele>
        <time>2022-08-10T07:58:06Z</time>
      </trkpt>
      <trkpt lat="47.14275" lon="6.16473">
        <ele>479.7</ele>
        <time>2022-08-10T07:58:07Z</time>
      </trkpt>
      <trkpt lat="47.14277" lon="6.16479">
        <ele>479.9</ele>
        <time>2022-08-10T07:58:08Z</time>
      </trkpt>
      <trkpt lat="47.14279" lon="6.16484">
        <ele>480</ele>
        <time>2022-08-10T07:58:09Z</time>
      </trkpt>
      <trkpt lat="47.1428" lon="6.1649">
        <ele>479.9</ele>
        <time>2022-08-10T07:58:10Z</time>
      </trkpt>
      <trkpt lat="47.14282" lon="6.16496">
        <ele>479.8</ele>
        <time>2022-08-10T07:58:11Z</time>
      </trkpt>
      <trkpt lat="47.14283" lon="6.16501">
        <ele>480</ele>
        <time>2022-08-10T07:58:12Z</time>
      </trkpt>
      <trkpt lat="47.14285" lon="6.16507">
        <ele>480.2</ele>
        <time>2022-08-10T07:58:13Z</time>
      </trkpt>
      <trkpt lat="47.14286" lon="6.16514">
        <ele>480.3</ele>
        <time>2022-08-10T07:58:14Z</time>
      </trkpt>
      <trkpt lat="47.14287" lon="6.16521">
        <ele>479.2</ele>
        <time>2022-08-10T07:58:15Z</time>
      </trkpt>
      <trkpt lat="47.14288" lon="6.16528">
        <ele>479.4</ele>
        <time>2022-08-10T07:58:16Z</time>
      </trkpt>
      <trkpt lat="47.1429" lon="6.16535">
        <ele>478.9</ele>
        <time>2022-08-10T07:58:17Z</time>
      </trkpt>
      <trkpt lat="47.14291" lon="6.16542">
        <ele>478.7</ele>
        <time>2022-08-10T07:58:18Z</time>
      </trkpt>
      <trkpt lat="47.14293" lon="6.1655">
        <ele>478.3</ele>
        <time>2022-08-10T07:58:19Z</time>
      </trkpt>
      <trkpt lat="47.14294" lon="6.16556">
        <ele>478.3</ele>
        <time>2022-08-10T07:58:20Z</time>
      </trkpt>
      <trkpt lat="47.14296" lon="6.16563">
        <ele>478.3</ele>
        <time>2022-08-10T07:58:21Z</time>
      </trkpt>
      <trkpt lat="47.14298" lon="6.1657">
        <ele>478.5</ele>
        <time>2022-08-10T07:58:22Z</time>
      </trkpt>
      <trkpt lat="47.14299" lon="6.16576">
        <ele>478.4</ele>
        <time>2022-08-10T07:58:23Z</time>
      </trkpt>
      <trkpt lat="47.14301" lon="6.16583">
        <ele>478.4</ele>
        <time>2022-08-10T07:58:24Z</time>
      </trkpt>
      <trkpt lat="47.14303" lon="6.16589">
        <ele>478.7</ele>
        <time>2022-08-10T07:58:25Z</time>
      </trkpt>
      <trkpt lat="47.14305" lon="6.16595">
        <ele>478.9</ele>
        <time>2022-08-10T07:58:26Z</time>
      </trkpt>
      <trkpt lat="47.14307" lon="6.16601">
        <ele>479.6</ele>
        <time>2022-08-10T07:58:27Z</time>
      </trkpt>
      <trkpt lat="47.14309" lon="6.16607">
        <ele>480.1</ele>
        <time>2022-08-10T07:58:28Z</time>
      </trkpt>
      <trkpt lat="47.14311" lon="6.16612">
        <ele>480.7</ele>
        <time>2022-08-10T07:58:29Z</time>
      </trkpt>
      <trkpt lat="47.14313" lon="6.16617">
        <ele>481.2</ele>
        <time>2022-08-10T07:58:30Z</time>
      </trkpt>
      <trkpt lat="47.14315" lon="6.16622">
        <ele>481.7</ele>
        <time>2022-08-10T07:58:31Z</time>
      </trkpt>
      <trkpt lat="47.14318" lon="6.16627">
        <ele>481.9</ele>
        <time>2022-08-10T07:58:32Z</time>
      </trkpt>
      <trkpt lat="47.1432" lon="6.16632">
        <ele>482.7</ele>
        <time>2022-08-10T07:58:33Z</time>
      </trkpt>
      <trkpt lat="47.14322" lon="6.16637">
        <ele>483.4</ele>
        <time>2022-08-10T07:58:34Z</time>
      </trkpt>
      <trkpt lat="47.14324" lon="6.16642">
        <ele>484.3</ele>
        <time>2022-08-10T07:58:35Z</time>
      </trkpt>
      <trkpt lat="47.14326" lon="6.16647">
        <ele>485.3</ele>
        <time>2022-08-10T07:58:36Z</time>
      </trkpt>
      <trkpt lat="47.14328" lon="6.16651">
        <ele>486.3</ele>
        <time>2022-08-10T07:58:37Z</time>
      </trkpt>
      <trkpt lat="47.14331" lon="6.16656">
        <ele>487.1</ele>
        <time>2022-08-10T07:58:38Z</time>
      </trkpt>
      <trkpt lat="47.14334" lon="6.1666">
        <ele>487.9</ele>
        <time>2022-08-10T07:58:39Z</time>
      </trkpt>
      <trkpt lat="47.14337" lon="6.16665">
        <ele>488.8</ele>
        <time>2022-08-10T07:58:40Z</time>
      </trkpt>
      <trkpt lat="47.1434" lon="6.16669">
        <ele>489.8</ele>
        <time>2022-08-10T07:58:41Z</time>
      </trkpt>
      <trkpt lat="47.14343" lon="6.16673">
        <ele>490.7</ele>
        <time>2022-08-10T07:58:42Z</time>
      </trkpt>
      <trkpt lat="47.14345" lon="6.16677">
        <ele>491.7</ele>
        <time>2022-08-10T07:58:43Z</time>
      </trkpt>
      <trkpt lat="47.14348" lon="6.16681">
        <ele>492.6</ele>
        <time>2022-08-10T07:58:44Z</time>
      </trkpt>
      <trkpt lat="47.14352" lon="6.16686">
        <ele>493.1</ele>
        <time>2022-08-10T07:58:45Z</time>
      </trkpt>
      <trkpt lat="47.14355" lon="6.1669">
        <ele>494.2</ele>
        <time>2022-08-10T07:58:46Z</time>
      </trkpt>
      <trkpt lat="47.14357" lon="6.16695">
        <ele>495.3</ele>
        <time>2022-08-10T07:58:47Z</time>
      </trkpt>
      <trkpt lat="47.1436" lon="6.167">
        <ele>496.1</ele>
        <time>2022-08-10T07:58:48Z</time>
      </trkpt>
      <trkpt lat="47.14362" lon="6.16704">
        <ele>497</ele>
        <time>2022-08-10T07:58:49Z</time>
      </trkpt>
      <trkpt lat="47.14365" lon="6.16708">
        <ele>498.2</ele>
        <time>2022-08-10T07:58:50Z</time>
      </trkpt>
      <trkpt lat="47.14368" lon="6.16713">
        <ele>499.1</ele>
        <time>2022-08-10T07:58:51Z</time>
      </trkpt>
      <trkpt lat="47.14371" lon="6.16718">
        <ele>500.1</ele>
        <time>2022-08-10T07:58:52Z</time>
      </trkpt>
      <trkpt lat="47.14374" lon="6.16722">
        <ele>500.9</ele>
        <time>2022-08-10T07:58:53Z</time>
      </trkpt>
      <trkpt lat="47.14377" lon="6.16727">
        <ele>501.9</ele>
        <time>2022-08-10T07:58:54Z</time>
      </trkpt>
      <trkpt lat="47.1438" lon="6.16732">
        <ele>502.5</ele>
        <time>2022-08-10T07:58:55Z</time>
      </trkpt>
      <trkpt lat="47.14383" lon="6.16738">
        <ele>502.8</ele>
        <time>2022-08-10T07:58:56Z</time>
      </trkpt>
      <trkpt lat="47.14385" lon="6.16743">
        <ele>503.3</ele>
        <time>2022-08-10T07:58:57Z</time>
      </trkpt>
      <trkpt lat="47.14388" lon="6.16749">
        <ele>503.4</ele>
        <time>2022-08-10T07:58:58Z</time>
      </trkpt>
      <trkpt lat="47.14392" lon="6.16755">
        <ele>503.9</ele>
        <time>2022-08-10T07:58:59Z</time>
      </trkpt>
      <trkpt lat="47.14395" lon="6.1676">
        <ele>504.1</ele>
        <time>2022-08-10T07:59:00Z</time>
      </trkpt>
      <trkpt lat="47.14398" lon="6.16765">
        <ele>504.5</ele>
        <time>2022-08-10T07:59:01Z</time>
      </trkpt>
      <trkpt lat="47.14402" lon="6.1677">
        <ele>504.2</ele>
        <time>2022-08-10T07:59:02Z</time>
      </trkpt>
      <trkpt lat="47.14405" lon="6.16775">
        <ele>504.2</ele>
        <time>2022-08-10T07:59:03Z</time>
      </trkpt>
      <trkpt lat="47.14409" lon="6.1678">
        <ele>503.9</ele>
        <time>2022-08-10T07:59:04Z</time>
      </trkpt>
      <trkpt lat="47.14412" lon="6.16785">
        <ele>503.3</ele>
        <time>2022-08-10T07:59:05Z</time>
      </trkpt>
      <trkpt lat="47.14416" lon="6.16791">
        <ele>502.7</ele>
        <time>2022-08-10T07:59:06Z</time>
      </trkpt>
      <trkpt lat="47.1442" lon="6.16797">
        <ele>501.9</ele>
        <time>2022-08-10T07:59:07Z</time>
      </trkpt>
      <trkpt lat="47.14423" lon="6.16802">
        <ele>501.2</ele>
        <time>2022-08-10T07:59:08Z</time>
      </trkpt>
      <trkpt lat="47.14426" lon="6.16807">
        <ele>500.4</ele>
        <time>2022-08-10T07:59:09Z</time>
      </trkpt>
      <trkpt lat="47.14429" lon="6.16813">
        <ele>500.1</ele>
        <time>2022-08-10T07:59:10Z</time>
      </trkpt>
      <trkpt lat="47.14432" lon="6.16818">
        <ele>499.8</ele>
        <time>2022-08-10T07:59:11Z</time>
      </trkpt>
      <trkpt lat="47.14435" lon="6.16822">
        <ele>499.8</ele>
        <time>2022-08-10T07:59:12Z</time>
      </trkpt>
      <trkpt lat="47.14438" lon="6.16828">
        <ele>499.9</ele>
        <time>2022-08-10T07:59:13Z</time>
      </trkpt>
      <trkpt lat="47.14441" lon="6.16832">
        <ele>500.1</ele>
        <time>2022-08-10T07:59:14Z</time>
      </trkpt>
      <trkpt lat="47.14443" lon="6.16836">
        <ele>500.4</ele>
        <time>2022-08-10T07:59:15Z</time>
      </trkpt>
      <trkpt lat="47.14446" lon="6.16841">
        <ele>500.6</ele>
        <time>2022-08-10T07:59:16Z</time>
      </trkpt>
      <trkpt lat="47.14449" lon="6.16846">
        <ele>500.7</ele>
        <time>2022-08-10T07:59:17Z</time>
      </trkpt>
      <trkpt lat="47.14452" lon="6.16851">
        <ele>500.9</ele>
        <time>2022-08-10T07:59:18Z</time>
      </trkpt>
      <trkpt lat="47.14455" lon="6.16855">
        <ele>500.8</ele>
        <time>2022-08-10T07:59:19Z</time>
      </trkpt>
      <trkpt lat="47.14457" lon="6.16859">
        <ele>500.6</ele>
        <time>2022-08-10T07:59:20Z</time>
      </trkpt>
      <trkpt lat="47.1446" lon="6.16864">
        <ele>500.6</ele>
        <time>2022-08-10T07:59:21Z</time>
      </trkpt>
      <trkpt lat="47.14463" lon="6.16869">
        <ele>500.4</ele>
        <time>2022-08-10T07:59:22Z</time>
      </trkpt>
      <trkpt lat="47.14466" lon="6.16874">
        <ele>499.9</ele>
        <time>2022-08-10T07:59:23Z</time>
      </trkpt>
      <trkpt lat="47.14469" lon="6.1688">
        <ele>499.8</ele>
        <time>2022-08-10T07:59:24Z</time>
      </trkpt>
      <trkpt lat="47.14472" lon="6.16885">
        <ele>499.5</ele>
        <time>2022-08-10T07:59:25Z</time>
      </trkpt>
      <trkpt lat="47.14475" lon="6.1689">
        <ele>499.2</ele>
        <time>2022-08-10T07:59:26Z</time>
      </trkpt>
      <trkpt lat="47.14477" lon="6.16895">
        <ele>498.8</ele>
        <time>2022-08-10T07:59:27Z</time>
      </trkpt>
      <trkpt lat="47.1448" lon="6.169">
        <ele>498.8</ele>
        <time>2022-08-10T07:59:28Z</time>
      </trkpt>
      <trkpt lat="47.14483" lon="6.16905">
        <ele>498.9</ele>
        <time>2022-08-10T07:59:29Z</time>
      </trkpt>
      <trkpt lat="47.14486" lon="6.16911">
        <ele>499</ele>
        <time>2022-08-10T07:59:30Z</time>
      </trkpt>
      <trkpt lat="47.14489" lon="6.16917">
        <ele>499.1</ele>
        <time>2022-08-10T07:59:31Z</time>
      </trkpt>
      <trkpt lat="47.14492" lon="6.16923">
        <ele>499.3</ele>
        <time>2022-08-10T07:59:32Z</time>
      </trkpt>
      <trkpt lat="47.14495" lon="6.16929">
        <ele>499.2</ele>
        <time>2022-08-10T07:59:33Z</time>
      </trkpt>
      <trkpt lat="47.14498" lon="6.16934">
        <ele>499</ele>
        <time>2022-08-10T07:59:34Z</time>
      </trkpt>
      <trkpt lat="47.14501" lon="6.16938">
        <ele>498.9</ele>
        <time>2022-08-10T07:59:35Z</time>
      </trkpt>
      <trkpt lat="47.14504" lon="6.16943">
        <ele>498.8</ele>
        <time>2022-08-10T07:59:36Z</time>
      </trkpt>
      <trkpt lat="47.14507" lon="6.16948">
        <ele>498.6</ele>
        <time>2022-08-10T07:59:37Z</time>
      </trkpt>
      <trkpt lat="47.14509" lon="6.16953">
        <ele>498.4</ele>
        <time>2022-08-10T07:59:38Z</time>
      </trkpt>
      <trkpt lat="47.14513" lon="6.16958">
        <ele>498</ele>
        <time>2022-08-10T07:59:39Z</time>
      </trkpt>
      <trkpt lat="47.14516" lon="6.16963">
        <ele>497.5</ele>
        <time>2022-08-10T07:59:40Z</time>
      </trkpt>
      <trkpt lat="47.14519" lon="6.16969">
        <ele>497.1</ele>
        <time>2022-08-10T07:59:41Z</time>
      </trkpt>
      <trkpt lat="47.14522" lon="6.16974">
        <ele>496.9</ele>
        <time>2022-08-10T07:59:42Z</time>
      </trkpt>
      <trkpt lat="47.14524" lon="6.16978">
        <ele>496.4</ele>
        <time>2022-08-10T07:59:43Z</time>
      </trkpt>
      <trkpt lat="47.14528" lon="6.16985">
        <ele>495.6</ele>
        <time>2022-08-10T07:59:44Z</time>
      </trkpt>
      <trkpt lat="47.1453" lon="6.1699">
        <ele>495.5</ele>
        <time>2022-08-10T07:59:45Z</time>
      </trkpt>
      <trkpt lat="47.14534" lon="6.16995">
        <ele>495.4</ele>
        <time>2022-08-10T07:59:46Z</time>
      </trkpt>
      <trkpt lat="47.14537" lon="6.17">
        <ele>495.6</ele>
        <time>2022-08-10T07:59:47Z</time>
      </trkpt>
      <trkpt lat="47.1454" lon="6.17005">
        <ele>495.5</ele>
        <time>2022-08-10T07:59:48Z</time>
      </trkpt>
      <trkpt lat="47.14543" lon="6.1701">
        <ele>495.5</ele>
        <time>2022-08-10T07:59:49Z</time>
      </trkpt>
      <trkpt lat="47.14546" lon="6.17015">
        <ele>495.9</ele>
        <time>2022-08-10T07:59:50Z</time>
      </trkpt>
      <trkpt lat="47.14549" lon="6.1702">
        <ele>496.2</ele>
        <time>2022-08-10T07:59:51Z</time>
      </trkpt>
      <trkpt lat="47.14553" lon="6.17026">
        <ele>496.5</ele>
        <time>2022-08-10T07:59:52Z</time>
      </trkpt>
      <trkpt lat="47.14556" lon="6.17031">
        <ele>497</ele>
        <time>2022-08-10T07:59:53Z</time>
      </trkpt>
      <trkpt lat="47.14559" lon="6.17036">
        <ele>497.5</ele>
        <time>2022-08-10T07:59:54Z</time>
      </trkpt>
      <trkpt lat="47.14562" lon="6.17042">
        <ele>497.4</ele>
        <time>2022-08-10T07:59:55Z</time>
      </trkpt>
      <trkpt lat="47.14566" lon="6.17047">
        <ele>497.7</ele>
        <time>2022-08-10T07:59:56Z</time>
      </trkpt>
      <trkpt lat="47.14569" lon="6.17052">
        <ele>498.1</ele>
        <time>2022-08-10T07:59:57Z</time>
      </trkpt>
      <trkpt lat="47.14572" lon="6.17057">
        <ele>498.5</ele>
        <time>2022-08-10T07:59:58Z</time>
      </trkpt>
      <trkpt lat="47.14575" lon="6.17062">
        <ele>498.9</ele>
        <time>2022-08-10T07:59:59Z</time>
      </trkpt>
      <trkpt lat="47.14579" lon="6.17067">
        <ele>499.2</ele>
        <time>2022-08-10T08:00:00Z</time>
      </trkpt>
      <trkpt lat="47.14581" lon="6.17072">
        <ele>499.6</ele>
        <time>2022-08-10T08:00:01Z</time>
      </trkpt>
      <trkpt lat="47.14584" lon="6.17077">
        <ele>500.1</ele>
        <time>2022-08-10T08:00:02Z</time>
      </trkpt>
      <trkpt lat="47.14587" lon="6.17082">
        <ele>500.3</ele>
        <time>2022-08-10T08:00:03Z</time>
      </trkpt>
      <trkpt lat="47.1459" lon="6.17087">
        <ele>500.6</ele>
        <time>2022-08-10T08:00:04Z</time>
      </trkpt>
      <trkpt lat="47.14593" lon="6.17091">
        <ele>501</ele>
        <time>2022-08-10T08:00:05Z</time>
      </trkpt>
      <trkpt lat="47.14596" lon="6.17096">
        <ele>501.2</ele>
        <time>2022-08-10T08:00:06Z</time>
      </trkpt>
      <trkpt lat="47.14598" lon="6.171">
        <ele>501</ele>
        <time>2022-08-10T08:00:07Z</time>
      </trkpt>
      <trkpt lat="47.14601" lon="6.17105">
        <ele>500.9</ele>
        <time>2022-08-10T08:00:08Z</time>
      </trkpt>
      <trkpt lat="47.14604" lon="6.1711">
        <ele>500.5</ele>
        <time>2022-08-10T08:00:09Z</time>
      </trkpt>
      <trkpt lat="47.14608" lon="6.17115">
        <ele>500.3</ele>
        <time>2022-08-10T08:00:10Z</time>
      </trkpt>
      <trkpt lat="47.14611" lon="6.17119">
        <ele>500.4</ele>
        <time>2022-08-10T08:00:11Z</time>
      </trkpt>
      <trkpt lat="47.14614" lon="6.17123">
        <ele>500.7</ele>
        <time>2022-08-10T08:00:12Z</time>
      </trkpt>
      <trkpt lat="47.14617" lon="6.17127">
        <ele>500.5</ele>
        <time>2022-08-10T08:00:13Z</time>
      </trkpt>
      <trkpt lat="47.14621" lon="6.17132">
        <ele>500.4</ele>
        <time>2022-08-10T08:00:14Z</time>
      </trkpt>
      <trkpt lat="47.14624" lon="6.17136">
        <ele>500.3</ele>
        <time>2022-08-10T08:00:15Z</time>
      </trkpt>
      <trkpt lat="47.14628" lon="6.17141">
        <ele>500.3</ele>
        <time>2022-08-10T08:00:16Z</time>
      </trkpt>
      <trkpt lat="47.14631" lon="6.17146">
        <ele>500</ele>
        <time>2022-08-10T08:00:17Z</time>
      </trkpt>
      <trkpt lat="47.14634" lon="6.1715">
        <ele>499.7</ele>
        <time>2022-08-10T08:00:18Z</time>
      </trkpt>
      <trkpt lat="47.14638" lon="6.17154">
        <ele>499.2</ele>
        <time>2022-08-10T08:00:19Z</time>
      </trkpt>
      <trkpt lat="47.14641" lon="6.17158">
        <ele>499.1</ele>
        <time>2022-08-10T08:00:20Z</time>
      </trkpt>
      <trkpt lat="47.14645" lon="6.17162">
        <ele>499</ele>
        <time>2022-08-10T08:00:21Z</time>
      </trkpt>
      <trkpt lat="47.14649" lon="6.17165">
        <ele>498.8</ele>
        <time>2022-08-10T08:00:22Z</time>
      </trkpt>
      <trkpt lat="47.14653" lon="6.17169">
        <ele>498.8</ele>
        <time>2022-08-10T08:00:23Z</time>
      </trkpt>
      <trkpt lat="47.14657" lon="6.17172">
        <ele>499.1</ele>
        <time>2022-08-10T08:00:24Z</time>
      </trkpt>
      <trkpt lat="47.14662" lon="6.17176">
        <ele>499.1</ele>
        <time>2022-08-10T08:00:25Z</time>
      </trkpt>
      <trkpt lat="47.14666" lon="6.17179">
        <ele>499.7</ele>
        <time>2022-08-10T08:00:26Z</time>
      </trkpt>
      <trkpt lat="47.1467" lon="6.17183">
        <ele>499.8</ele>
        <time>2022-08-10T08:00:27Z</time>
      </trkpt>
      <trkpt lat="47.14674" lon="6.17186">
        <ele>500.2</ele>
        <time>2022-08-10T08:00:28Z</time>
      </trkpt>
      <trkpt lat="47.14678" lon="6.1719">
        <ele>500.5</ele>
        <time>2022-08-10T08:00:29Z</time>
      </trkpt>
      <trkpt lat="47.14682" lon="6.17193">
        <ele>500.9</ele>
        <time>2022-08-10T08:00:30Z</time>
      </trkpt>
      <trkpt lat="47.14686" lon="6.17196">
        <ele>501.2</ele>
        <time>2022-08-10T08:00:31Z</time>
      </trkpt>
      <trkpt lat="47.1469" lon="6.17199">
        <ele>501.5</ele>
        <time>2022-08-10T08:00:32Z</time>
      </trkpt>
      <trkpt lat="47.14694" lon="6.17202">
        <ele>501.7</ele>
        <time>2022-08-10T08:00:33Z</time>
      </trkpt>
      <trkpt lat="47.14698" lon="6.17204">
        <ele>502</ele>
        <time>2022-08-10T08:00:34Z</time>
      </trkpt>
      <trkpt lat="47.14702" lon="6.17207">
        <ele>502.4</ele>
        <time>2022-08-10T08:00:35Z</time>
      </trkpt>
      <trkpt lat="47.14707" lon="6.1721">
        <ele>503.1</ele>
        <time>2022-08-10T08:00:36Z</time>
      </trkpt>
      <trkpt lat="47.14711" lon="6.17212">
        <ele>503.6</ele>
        <time>2022-08-10T08:00:37Z</time>
      </trkpt>
      <trkpt lat="47.14716" lon="6.17214">
        <ele>504.3</ele>
        <time>2022-08-10T08:00:38Z</time>
      </trkpt>
      <trkpt lat="47.1472" lon="6.17216">
        <ele>504.6</ele>
        <time>2022-08-10T08:00:39Z</time>
      </trkpt>
      <trkpt lat="47.14725" lon="6.17219">
        <ele>505</ele>
        <time>2022-08-10T08:00:40Z</time>
      </trkpt>
      <trkpt lat="47.1473" lon="6.17222">
        <ele>505.7</ele>
        <time>2022-08-10T08:00:41Z</time>
      </trkpt>
      <trkpt lat="47.14735" lon="6.17224">
        <ele>506.4</ele>
        <time>2022-08-10T08:00:42Z</time>
      </trkpt>
      <trkpt lat="47.1474" lon="6.17226">
        <ele>506.7</ele>
        <time>2022-08-10T08:00:43Z</time>
      </trkpt>
      <trkpt lat="47.14745" lon="6.17227">
        <ele>507.3</ele>
        <time>2022-08-10T08:00:44Z</time>
      </trkpt>
      <trkpt lat="47.14749" lon="6.17228">
        <ele>507.3</ele>
        <time>2022-08-10T08:00:45Z</time>
      </trkpt>
      <trkpt lat="47.14754" lon="6.17229">
        <ele>507.6</ele>
        <time>2022-08-10T08:00:46Z</time>
      </trkpt>
      <trkpt lat="47.14758" lon="6.1723">
        <ele>507.8</ele>
        <time>2022-08-10T08:00:47Z</time>
      </trkpt>
      <trkpt lat="47.14763" lon="6.1723">
        <ele>507.9</ele>
        <time>2022-08-10T08:00:48Z</time>
      </trkpt>
      <trkpt lat="47.14767" lon="6.17231">
        <ele>508.8</ele>
        <time>2022-08-10T08:00:49Z</time>
      </trkpt>
      <trkpt lat="47.14771" lon="6.17232">
        <ele>509.4</ele>
        <time>2022-08-10T08:00:50Z</time>
      </trkpt>
      <trkpt lat="47.14775" lon="6.17233">
        <ele>510.7</ele>
        <time>2022-08-10T08:00:51Z</time>
      </trkpt>
      <trkpt lat="47.1478" lon="6.17234">
        <ele>511.4</ele>
        <time>2022-08-10T08:00:52Z</time>
      </trkpt>
      <trkpt lat="47.14785" lon="6.17236">
        <ele>511.4</ele>
        <time>2022-08-10T08:00:53Z</time>
      </trkpt>
      <trkpt lat="47.1479" lon="6.17236">
        <ele>512.2</ele>
        <time>2022-08-10T08:00:54Z</time>
      </trkpt>
      <trkpt lat="47.14796" lon="6.17236">
        <ele>512.6</ele>
        <time>2022-08-10T08:00:55Z</time>
      </trkpt>
      <trkpt lat="47.14801" lon="6.17236">
        <ele>513.1</ele>
        <time>2022-08-10T08:00:56Z</time>
      </trkpt>
      <trkpt lat="47.14806" lon="6.17236">
        <ele>513.6</ele>
        <time>2022-08-10T08:00:57Z</time>
      </trkpt>
      <trkpt lat="47.14811" lon="6.17237">
        <ele>514.5</ele>
        <time>2022-08-10T08:00:58Z</time>
      </trkpt>
      <trkpt lat="47.14816" lon="6.17236">
        <ele>515.3</ele>
        <time>2022-08-10T08:00:59Z</time>
      </trkpt>
      <trkpt lat="47.14821" lon="6.17235">
        <ele>516.1</ele>
        <time>2022-08-10T08:01:00Z</time>
      </trkpt>
      <trkpt lat="47.14826" lon="6.17234">
        <ele>516.4</ele>
        <time>2022-08-10T08:01:01Z</time>
      </trkpt>
      <trkpt lat="47.14831" lon="6.17233">
        <ele>516.9</ele>
        <time>2022-08-10T08:01:02Z</time>
      </trkpt>
      <trkpt lat="47.14837" lon="6.17232">
        <ele>517.3</ele>
        <time>2022-08-10T08:01:03Z</time>
      </trkpt>
      <trkpt lat="47.14842" lon="6.17231">
        <ele>517.4</ele>
        <time>2022-08-10T08:01:04Z</time>
      </trkpt>
      <trkpt lat="47.14847" lon="6.17231">
        <ele>517.3</ele>
        <time>2022-08-10T08:01:05Z</time>
      </trkpt>
      <trkpt lat="47.14852" lon="6.1723">
        <ele>517.6</ele>
        <time>2022-08-10T08:01:06Z</time>
      </trkpt>
      <trkpt lat="47.14857" lon="6.17229">
        <ele>518.1</ele>
        <time>2022-08-10T08:01:07Z</time>
      </trkpt>
      <trkpt lat="47.14861" lon="6.17227">
        <ele>518.8</ele>
        <time>2022-08-10T08:01:08Z</time>
      </trkpt>
      <trkpt lat="47.14866" lon="6.17225">
        <ele>519.5</ele>
        <time>2022-08-10T08:01:09Z</time>
      </trkpt>
      <trkpt lat="47.14869" lon="6.17224">
        <ele>520.5</ele>
        <time>2022-08-10T08:01:10Z</time>
      </trkpt>
      <trkpt lat="47.14874" lon="6.17223">
        <ele>521.4</ele>
        <time>2022-08-10T08:01:11Z</time>
      </trkpt>
      <trkpt lat="47.14878" lon="6.17223">
        <ele>522.3</ele>
        <time>2022-08-10T08:01:12Z</time>
      </trkpt>
      <trkpt lat="47.14882" lon="6.17222">
        <ele>523</ele>
        <time>2022-08-10T08:01:13Z</time>
      </trkpt>
      <trkpt lat="47.14885" lon="6.17221">
        <ele>523.8</ele>
        <time>2022-08-10T08:01:14Z</time>
      </trkpt>
      <trkpt lat="47.14889" lon="6.1722">
        <ele>524.2</ele>
        <time>2022-08-10T08:01:15Z</time>
      </trkpt>
      <trkpt lat="47.14893" lon="6.17219">
        <ele>524.7</ele>
        <time>2022-08-10T08:01:16Z</time>
      </trkpt>
      <trkpt lat="47.14897" lon="6.17218">
        <ele>525.8</ele>
        <time>2022-08-10T08:01:17Z</time>
      </trkpt>
      <trkpt lat="47.14901" lon="6.17217">
        <ele>526.4</ele>
        <time>2022-08-10T08:01:18Z</time>
      </trkpt>
      <trkpt lat="47.14906" lon="6.17218">
        <ele>527.6</ele>
        <time>2022-08-10T08:01:19Z</time>
      </trkpt>
      <trkpt lat="47.14911" lon="6.17219">
        <ele>528.7</ele>
        <time>2022-08-10T08:01:20Z</time>
      </trkpt>
      <trkpt lat="47.14917" lon="6.17218">
        <ele>529.8</ele>
        <time>2022-08-10T08:01:21Z</time>
      </trkpt>
      <trkpt lat="47.14922" lon="6.17217">
        <ele>531.1</ele>
        <time>2022-08-10T08:01:22Z</time>
      </trkpt>
      <trkpt lat="47.14927" lon="6.17215">
        <ele>532.1</ele>
        <time>2022-08-10T08:01:23Z</time>
      </trkpt>
      <trkpt lat="47.14932" lon="6.17214">
        <ele>533.2</ele>
        <time>2022-08-10T08:01:24Z</time>
      </trkpt>
      <trkpt lat="47.14938" lon="6.17213">
        <ele>534</ele>
        <time>2022-08-10T08:01:25Z</time>
      </trkpt>
      <trkpt lat="47.14943" lon="6.17213">
        <ele>534.7</ele>
        <time>2022-08-10T08:01:26Z</time>
      </trkpt>
      <trkpt lat="47.14949" lon="6.17212">
        <ele>535.2</ele>
        <time>2022-08-10T08:01:27Z</time>
      </trkpt>
      <trkpt lat="47.14954" lon="6.17212">
        <ele>535.4</ele>
        <time>2022-08-10T08:01:28Z</time>
      </trkpt>
      <trkpt lat="47.14959" lon="6.17212">
        <ele>535.8</ele>
        <time>2022-08-10T08:01:29Z</time>
      </trkpt>
      <trkpt lat="47.14965" lon="6.17211">
        <ele>536.2</ele>
        <time>2022-08-10T08:01:30Z</time>
      </trkpt>
      <trkpt lat="47.1497" lon="6.17209">
        <ele>536.8</ele>
        <time>2022-08-10T08:01:31Z</time>
      </trkpt>
      <trkpt lat="47.14976" lon="6.17208">
        <ele>537</ele>
        <time>2022-08-10T08:01:32Z</time>
      </trkpt>
      <trkpt lat="47.14981" lon="6.17207">
        <ele>537</ele>
        <time>2022-08-10T08:01:33Z</time>
      </trkpt>
      <trkpt lat="47.14986" lon="6.17205">
        <ele>536.5</ele>
        <time>2022-08-10T08:01:34Z</time>
      </trkpt>
      <trkpt lat="47.14992" lon="6.17204">
        <ele>535.9</ele>
        <time>2022-08-10T08:01:35Z</time>
      </trkpt>
      <trkpt lat="47.14997" lon="6.17203">
        <ele>535.1</ele>
        <time>2022-08-10T08:01:36Z</time>
      </trkpt>
      <trkpt lat="47.15003" lon="6.17202">
        <ele>534.4</ele>
        <time>2022-08-10T08:01:37Z</time>
      </trkpt>
      <trkpt lat="47.15008" lon="6.172">
        <ele>533.9</ele>
        <time>2022-08-10T08:01:38Z</time>
      </trkpt>
      <trkpt lat="47.15013" lon="6.17199">
        <ele>533.3</ele>
        <time>2022-08-10T08:01:39Z</time>
      </trkpt>
      <trkpt lat="47.15018" lon="6.17198">
        <ele>532.7</ele>
        <time>2022-08-10T08:01:40Z</time>
      </trkpt>
      <trkpt lat="47.15024" lon="6.17196">
        <ele>532.4</ele>
        <time>2022-08-10T08:01:41Z</time>
      </trkpt>
      <trkpt lat="47.15029" lon="6.17194">
        <ele>532.2</ele>
        <time>2022-08-10T08:01:42Z</time>
      </trkpt>
      <trkpt lat="47.15035" lon="6.17193">
        <ele>532.2</ele>
        <time>2022-08-10T08:01:43Z</time>
      </trkpt>
      <trkpt lat="47.1504" lon="6.17191">
        <ele>531.6</ele>
        <time>2022-08-10T08:01:44Z</time>
      </trkpt>
      <trkpt lat="47.15045" lon="6.1719">
        <ele>531.3</ele>
        <time>2022-08-10T08:01:45Z</time>
      </trkpt>
      <trkpt lat="47.15051" lon="6.17189">
        <ele>531.2</ele>
        <time>2022-08-10T08:01:46Z</time>
      </trkpt>
      <trkpt lat="47.15056" lon="6.17189">
        <ele>531.2</ele>
        <time>2022-08-10T08:01:47Z</time>
      </trkpt>
      <trkpt lat="47.15062" lon="6.17188">
        <ele>531.2</ele>
        <time>2022-08-10T08:01:48Z</time>
      </trkpt>
      <trkpt lat="47.15067" lon="6.17187">
        <ele>531.8</ele>
        <time>2022-08-10T08:01:49Z</time>
      </trkpt>
      <trkpt lat="47.15072" lon="6.17187">
        <ele>532.1</ele>
        <time>2022-08-10T08:01:50Z</time>
      </trkpt>
      <trkpt lat="47.15077" lon="6.17185">
        <ele>532.2</ele>
        <time>2022-08-10T08:01:51Z</time>
      </trkpt>
      <trkpt lat="47.15083" lon="6.17184">
        <ele>532.2</ele>
        <time>2022-08-10T08:01:52Z</time>
      </trkpt>
      <trkpt lat="47.15087" lon="6.17183">
        <ele>532.2</ele>
        <time>2022-08-10T08:01:53Z</time>
      </trkpt>
      <trkpt lat="47.15092" lon="6.17183">
        <ele>531.7</ele>
        <time>2022-08-10T08:01:54Z</time>
      </trkpt>
      <trkpt lat="47.15097" lon="6.17183">
        <ele>531.5</ele>
        <time>2022-08-10T08:01:55Z</time>
      </trkpt>
      <trkpt lat="47.15101" lon="6.17182">
        <ele>531.8</ele>
        <time>2022-08-10T08:01:56Z</time>
      </trkpt>
      <trkpt lat="47.15105" lon="6.17181">
        <ele>531</ele>
        <time>2022-08-10T08:01:57Z</time>
      </trkpt>
      <trkpt lat="47.15109" lon="6.17181">
        <ele>531.1</ele>
        <time>2022-08-10T08:01:58Z</time>
      </trkpt>
      <trkpt lat="47.15113" lon="6.17181">
        <ele>531.2</ele>
        <time>2022-08-10T08:01:59Z</time>
      </trkpt>
      <trkpt lat="47.15118" lon="6.17181">
        <ele>531.5</ele>
        <time>2022-08-10T08:02:00Z</time>
      </trkpt>
      <trkpt lat="47.15123" lon="6.17181">
        <ele>531.4</ele>
        <time>2022-08-10T08:02:01Z</time>
      </trkpt>
      <trkpt lat="47.15128" lon="6.17182">
        <ele>531.6</ele>
        <time>2022-08-10T08:02:02Z</time>
      </trkpt>
      <trkpt lat="47.15133" lon="6.17182">
        <ele>531.5</ele>
        <time>2022-08-10T08:02:03Z</time>
      </trkpt>
      <trkpt lat="47.15139" lon="6.17182">
        <ele>531.8</ele>
        <time>2022-08-10T08:02:04Z</time>
      </trkpt>
      <trkpt lat="47.15144" lon="6.17182">
        <ele>532.1</ele>
        <time>2022-08-10T08:02:05Z</time>
      </trkpt>
      <trkpt lat="47.15149" lon="6.17183">
        <ele>532.6</ele>
        <time>2022-08-10T08:02:06Z</time>
      </trkpt>
      <trkpt lat="47.15154" lon="6.17184">
        <ele>533.1</ele>
        <time>2022-08-10T08:02:07Z</time>
      </trkpt>
      <trkpt lat="47.1516" lon="6.17185">
        <ele>533</ele>
        <time>2022-08-10T08:02:08Z</time>
      </trkpt>
      <trkpt lat="47.15165" lon="6.17185">
        <ele>532.7</ele>
        <time>2022-08-10T08:02:09Z</time>
      </trkpt>
      <trkpt lat="47.15171" lon="6.17186">
        <ele>532.1</ele>
        <time>2022-08-10T08:02:10Z</time>
      </trkpt>
      <trkpt lat="47.15176" lon="6.17187">
        <ele>531.7</ele>
        <time>2022-08-10T08:02:11Z</time>
      </trkpt>
      <trkpt lat="47.15182" lon="6.17188">
        <ele>531.6</ele>
        <time>2022-08-10T08:02:12Z</time>
      </trkpt>
      <trkpt lat="47.15187" lon="6.1719">
        <ele>531.4</ele>
        <time>2022-08-10T08:02:13Z</time>
      </trkpt>
      <trkpt lat="47.15192" lon="6.1719">
        <ele>531.5</ele>
        <time>2022-08-10T08:02:14Z</time>
      </trkpt>
      <trkpt lat="47.15197" lon="6.17191">
        <ele>531.8</ele>
        <time>2022-08-10T08:02:15Z</time>
      </trkpt>
      <trkpt lat="47.15202" lon="6.17193">
        <ele>532.1</ele>
        <time>2022-08-10T08:02:16Z</time>
      </trkpt>
      <trkpt lat="47.15206" lon="6.17193">
        <ele>532.3</ele>
        <time>2022-08-10T08:02:17Z</time>
      </trkpt>
      <trkpt lat="47.15211" lon="6.17195">
        <ele>532.3</ele>
        <time>2022-08-10T08:02:18Z</time>
      </trkpt>
      <trkpt lat="47.15216" lon="6.17197">
        <ele>532.2</ele>
        <time>2022-08-10T08:02:19Z</time>
      </trkpt>
      <trkpt lat="47.15221" lon="6.17199">
        <ele>532.2</ele>
        <time>2022-08-10T08:02:20Z</time>
      </trkpt>
      <trkpt lat="47.15227" lon="6.17201">
        <ele>532.1</ele>
        <time>2022-08-10T08:02:21Z</time>
      </trkpt>
      <trkpt lat="47.15232" lon="6.17203">
        <ele>532.1</ele>
        <time>2022-08-10T08:02:22Z</time>
      </trkpt>
      <trkpt lat="47.15236" lon="6.17205">
        <ele>532</ele>
        <time>2022-08-10T08:02:23Z</time>
      </trkpt>
      <trkpt lat="47.15241" lon="6.17207">
        <ele>532.1</ele>
        <time>2022-08-10T08:02:24Z</time>
      </trkpt>
      <trkpt lat="47.15247" lon="6.17209">
        <ele>532.2</ele>
        <time>2022-08-10T08:02:25Z</time>
      </trkpt>
      <trkpt lat="47.15252" lon="6.17211">
        <ele>532</ele>
        <time>2022-08-10T08:02:26Z</time>
      </trkpt>
      <trkpt lat="47.15257" lon="6.17213">
        <ele>532.1</ele>
        <time>2022-08-10T08:02:27Z</time>
      </trkpt>
      <trkpt lat="47.15262" lon="6.17216">
        <ele>532.1</ele>
        <time>2022-08-10T08:02:28Z</time>
      </trkpt>
      <trkpt lat="47.15267" lon="6.17218">
        <ele>531.9</ele>
        <time>2022-08-10T08:02:29Z</time>
      </trkpt>
      <trkpt lat="47.15272" lon="6.1722">
        <ele>531.4</ele>
        <time>2022-08-10T08:02:30Z</time>
      </trkpt>
      <trkpt lat="47.15278" lon="6.17223">
        <ele>531.1</ele>
        <time>2022-08-10T08:02:31Z</time>
      </trkpt>
      <trkpt lat="47.15283" lon="6.17226">
        <ele>530.7</ele>
        <time>2022-08-10T08:02:32Z</time>
      </trkpt>
      <trkpt lat="47.15288" lon="6.17229">
        <ele>530.4</ele>
        <time>2022-08-10T08:02:33Z</time>
      </trkpt>
      <trkpt lat="47.15293" lon="6.17232">
        <ele>529.8</ele>
        <time>2022-08-10T08:02:34Z</time>
      </trkpt>
      <trkpt lat="47.15298" lon="6.17235">
        <ele>529.1</ele>
        <time>2022-08-10T08:02:35Z</time>
      </trkpt>
      <trkpt lat="47.15303" lon="6.17238">
        <ele>528.4</ele>
        <time>2022-08-10T08:02:36Z</time>
      </trkpt>
      <trkpt lat="47.15308" lon="6.17242">
        <ele>527.6</ele>
        <time>2022-08-10T08:02:37Z</time>
      </trkpt>
      <trkpt lat="47.15313" lon="6.17246">
        <ele>527</ele>
        <time>2022-08-10T08:02:38Z</time>
      </trkpt>
      <trkpt lat="47.15318" lon="6.1725">
        <ele>525.9</ele>
        <time>2022-08-10T08:02:39Z</time>
      </trkpt>
      <trkpt lat="47.15323" lon="6.17253">
        <ele>525.3</ele>
        <time>2022-08-10T08:02:40Z</time>
      </trkpt>
      <trkpt lat="47.15327" lon="6.17257">
        <ele>524.2</ele>
        <time>2022-08-10T08:02:41Z</time>
      </trkpt>
      <trkpt lat="47.15332" lon="6.17261">
        <ele>523.2</ele>
        <time>2022-08-10T08:02:42Z</time>
      </trkpt>
      <trkpt lat="47.15336" lon="6.17265">
        <ele>522.4</ele>
        <time>2022-08-10T08:02:43Z</time>
      </trkpt>
      <trkpt lat="47.15341" lon="6.17268">
        <ele>521.5</ele>
        <time>2022-08-10T08:02:44Z</time>
      </trkpt>
      <trkpt lat="47.15346" lon="6.17273">
        <ele>520.5</ele>
        <time>2022-08-10T08:02:45Z</time>
      </trkpt>
      <trkpt lat="47.1535" lon="6.17277">
        <ele>519.1</ele>
        <time>2022-08-10T08:02:46Z</time>
      </trkpt>
      <trkpt lat="47.15355" lon="6.1728">
        <ele>518</ele>
        <time>2022-08-10T08:02:47Z</time>
      </trkpt>
      <trkpt lat="47.1536" lon="6.17285">
        <ele>517.1</ele>
        <time>2022-08-10T08:02:48Z</time>
      </trkpt>
      <trkpt lat="47.15364" lon="6.17289">
        <ele>516</ele>
        <time>2022-08-10T08:02:49Z</time>
      </trkpt>
      <trkpt lat="47.15368" lon="6.17293">
        <ele>514.9</ele>
        <time>2022-08-10T08:02:50Z</time>
      </trkpt>
      <trkpt lat="47.15372" lon="6.17297">
        <ele>513.6</ele>
        <time>2022-08-10T08:02:51Z</time>
      </trkpt>
      <trkpt lat="47.15377" lon="6.17301">
        <ele>512.9</ele>
        <time>2022-08-10T08:02:52Z</time>
      </trkpt>
      <trkpt lat="47.15381" lon="6.17305">
        <ele>512</ele>
        <time>2022-08-10T08:02:53Z</time>
      </trkpt>
      <trkpt lat="47.15385" lon="6.17309">
        <ele>511.6</ele>
        <time>2022-08-10T08:02:54Z</time>
      </trkpt>
      <trkpt lat="47.15389" lon="6.17314">
        <ele>510.6</ele>
        <time>2022-08-10T08:02:55Z</time>
      </trkpt>
      <trkpt lat="47.15393" lon="6.17319">
        <ele>509.8</ele>
        <time>2022-08-10T08:02:56Z</time>
      </trkpt>
      <trkpt lat="47.15397" lon="6.17323">
        <ele>509.5</ele>
        <time>2022-08-10T08:02:57Z</time>
      </trkpt>
      <trkpt lat="47.15401" lon="6.17327">
        <ele>509.7</ele>
        <time>2022-08-10T08:02:58Z</time>
      </trkpt>
      <trkpt lat="47.15405" lon="6.17332">
        <ele>509</ele>
        <time>2022-08-10T08:02:59Z</time>
      </trkpt>
      <trkpt lat="47.15409" lon="6.17338">
        <ele>508.5</ele>
        <time>2022-08-10T08:03:00Z</time>
      </trkpt>
      <trkpt lat="47.15413" lon="6.17343">
        <ele>507.8</ele>
        <time>2022-08-10T08:03:01Z</time>
      </trkpt>
      <trkpt lat="47.15417" lon="6.17348">
        <ele>507.2</ele>
        <time>2022-08-10T08:03:02Z</time>
      </trkpt>
      <trkpt lat="47.15421" lon="6.17353">
        <ele>506.8</ele>
        <time>2022-08-10T08:03:03Z</time>
      </trkpt>
      <trkpt lat="47.15425" lon="6.17358">
        <ele>506.7</ele>
        <time>2022-08-10T08:03:04Z</time>
      </trkpt>
      <trkpt lat="47.15428" lon="6.17364">
        <ele>506.3</ele>
        <time>2022-08-10T08:03:05Z</time>
      </trkpt>
      <trkpt lat="47.15432" lon="6.17369">
        <ele>506</ele>
        <time>2022-08-10T08:03:06Z</time>
      </trkpt>
      <trkpt lat="47.15435" lon="6.17373">
        <ele>505.7</ele>
        <time>2022-08-10T08:03:07Z</time>
      </trkpt>
      <trkpt lat="47.15439" lon="6.17378">
        <ele>505.4</ele>
        <time>2022-08-10T08:03:08Z</time>
      </trkpt>
      <trkpt lat="47.15442" lon="6.17382">
        <ele>505</ele>
        <time>2022-08-10T08:03:09Z</time>
      </trkpt>
      <trkpt lat="47.15445" lon="6.17387">
        <ele>505.1</ele>
        <time>2022-08-10T08:03:10Z</time>
      </trkpt>
      <trkpt lat="47.15448" lon="6.17392">
        <ele>505.5</ele>
        <time>2022-08-10T08:03:11Z</time>
      </trkpt>
      <trkpt lat="47.15451" lon="6.17397">
        <ele>505.9</ele>
        <time>2022-08-10T08:03:12Z</time>
      </trkpt>
      <trkpt lat="47.15454" lon="6.17402">
        <ele>506.3</ele>
        <time>2022-08-10T08:03:13Z</time>
      </trkpt>
      <trkpt lat="47.15457" lon="6.17407">
        <ele>506.7</ele>
        <time>2022-08-10T08:03:14Z</time>
      </trkpt>
      <trkpt lat="47.15461" lon="6.17412">
        <ele>507.2</ele>
        <time>2022-08-10T08:03:15Z</time>
      </trkpt>
      <trkpt lat="47.15464" lon="6.17417">
        <ele>507.4</ele>
        <time>2022-08-10T08:03:16Z</time>
      </trkpt>
      <trkpt lat="47.15468" lon="6.17422">
        <ele>507.7</ele>
        <time>2022-08-10T08:03:17Z</time>
      </trkpt>
      <trkpt lat="47.15471" lon="6.17428">
        <ele>508.1</ele>
        <time>2022-08-10T08:03:18Z</time>
      </trkpt>
      <trkpt lat="47.15475" lon="6.17433">
        <ele>508</ele>
        <time>2022-08-10T08:03:19Z</time>
      </trkpt>
      <trkpt lat="47.15478" lon="6.17439">
        <ele>507.9</ele>
        <time>2022-08-10T08:03:20Z</time>
      </trkpt>
      <trkpt lat="47.15482" lon="6.17445">
        <ele>508</ele>
        <time>2022-08-10T08:03:21Z</time>
      </trkpt>
      <trkpt lat="47.15485" lon="6.1745">
        <ele>508</ele>
        <time>2022-08-10T08:03:22Z</time>
      </trkpt>
      <trkpt lat="47.15489" lon="6.17455">
        <ele>508.2</ele>
        <time>2022-08-10T08:03:23Z</time>
      </trkpt>
      <trkpt lat="47.15492" lon="6.17461">
        <ele>508.3</ele>
        <time>2022-08-10T08:03:24Z</time>
      </trkpt>
      <trkpt lat="47.15495" lon="6.17465">
        <ele>508.4</ele>
        <time>2022-08-10T08:03:25Z</time>
      </trkpt>
      <trkpt lat="47.15499" lon="6.17471">
        <ele>508.9</ele>
        <time>2022-08-10T08:03:26Z</time>
      </trkpt>
      <trkpt lat="47.15502" lon="6.17476">
        <ele>509.3</ele>
        <time>2022-08-10T08:03:27Z</time>
      </trkpt>
      <trkpt lat="47.15505" lon="6.17481">
        <ele>508.8</ele>
        <time>2022-08-10T08:03:28Z</time>
      </trkpt>
      <trkpt lat="47.15509" lon="6.17487">
        <ele>508.8</ele>
        <time>2022-08-10T08:03:29Z</time>
      </trkpt>
      <trkpt lat="47.15512" lon="6.17492">
        <ele>509</ele>
        <time>2022-08-10T08:03:30Z</time>
      </trkpt>
      <trkpt lat="47.15515" lon="6.17498">
        <ele>509.4</ele>
        <time>2022-08-10T08:03:31Z</time>
      </trkpt>
      <trkpt lat="47.15518" lon="6.17503">
        <ele>509.8</ele>
        <time>2022-08-10T08:03:32Z</time>
      </trkpt>
      <trkpt lat="47.15522" lon="6.17509">
        <ele>509.8</ele>
        <time>2022-08-10T08:03:33Z</time>
      </trkpt>
      <trkpt lat="47.15525" lon="6.17514">
        <ele>509.7</ele>
        <time>2022-08-10T08:03:34Z</time>
      </trkpt>
      <trkpt lat="47.15528" lon="6.17519">
        <ele>510.3</ele>
        <time>2022-08-10T08:03:35Z</time>
      </trkpt>
      <trkpt lat="47.15531" lon="6.17524">
        <ele>510.4</ele>
        <time>2022-08-10T08:03:36Z</time>
      </trkpt>
      <trkpt lat="47.15535" lon="6.17529">
        <ele>510.9</ele>
        <time>2022-08-10T08:03:37Z</time>
      </trkpt>
      <trkpt lat="47.15538" lon="6.17534">
        <ele>511.3</ele>
        <time>2022-08-10T08:03:38Z</time>
      </trkpt>
      <trkpt lat="47.15541" lon="6.17539">
        <ele>511.6</ele>
        <time>2022-08-10T08:03:39Z</time>
      </trkpt>
      <trkpt lat="47.15544" lon="6.17544">
        <ele>511.7</ele>
        <time>2022-08-10T08:03:40Z</time>
      </trkpt>
      <trkpt lat="47.15548" lon="6.17549">
        <ele>512.1</ele>
        <time>2022-08-10T08:03:41Z</time>
      </trkpt>
      <trkpt lat="47.15551" lon="6.17554">
        <ele>511.6</ele>
        <time>2022-08-10T08:03:42Z</time>
      </trkpt>
      <trkpt lat="47.15554" lon="6.17559">
        <ele>512.3</ele>
        <time>2022-08-10T08:03:43Z</time>
      </trkpt>
      <trkpt lat="47.15557" lon="6.17564">
        <ele>512.7</ele>
        <time>2022-08-10T08:03:44Z</time>
      </trkpt>
      <trkpt lat="47.1556" lon="6.17568">
        <ele>512.7</ele>
        <time>2022-08-10T08:03:45Z</time>
      </trkpt>
      <trkpt lat="47.15563" lon="6.17572">
        <ele>512.9</ele>
        <time>2022-08-10T08:03:46Z</time>
      </trkpt>
      <trkpt lat="47.15565" lon="6.17576">
        <ele>513.1</ele>
        <time>2022-08-10T08:03:47Z</time>
      </trkpt>
      <trkpt lat="47.15568" lon="6.17579">
        <ele>513.7</ele>
        <time>2022-08-10T08:03:48Z</time>
      </trkpt>
      <trkpt lat="47.1557" lon="6.17582">
        <ele>514.2</ele>
        <time>2022-08-10T08:03:49Z</time>
      </trkpt>
      <trkpt lat="47.15572" lon="6.17585">
        <ele>514.6</ele>
        <time>2022-08-10T08:03:50Z</time>
      </trkpt>
      <trkpt lat="47.15575" lon="6.17589">
        <ele>514.9</ele>
        <time>2022-08-10T08:03:51Z</time>
      </trkpt>
      <trkpt lat="47.15577" lon="6.17593">
        <ele>514.9</ele>
        <time>2022-08-10T08:03:52Z</time>
      </trkpt>
      <trkpt lat="47.15579" lon="6.17597">
        <ele>515.1</ele>
        <time>2022-08-10T08:03:53Z</time>
      </trkpt>
      <trkpt lat="47.15582" lon="6.17602">
        <ele>515.4</ele>
        <time>2022-08-10T08:03:54Z</time>
      </trkpt>
      <trkpt lat="47.15585" lon="6.17606">
        <ele>516.4</ele>
        <time>2022-08-10T08:03:55Z</time>
      </trkpt>
      <trkpt lat="47.15587" lon="6.17611">
        <ele>516.8</ele>
        <time>2022-08-10T08:03:56Z</time>
      </trkpt>
      <trkpt lat="47.1559" lon="6.17615">
        <ele>517.1</ele>
        <time>2022-08-10T08:03:57Z</time>
      </trkpt>
      <trkpt lat="47.15593" lon="6.17621">
        <ele>517.6</ele>
        <time>2022-08-10T08:03:58Z</time>
      </trkpt>
      <trkpt lat="47.15596" lon="6.17625">
        <ele>518.5</ele>
        <time>2022-08-10T08:03:59Z</time>
      </trkpt>
      <trkpt lat="47.15599" lon="6.1763">
        <ele>519.2</ele>
        <time>2022-08-10T08:04:00Z</time>
      </trkpt>
      <trkpt lat="47.15602" lon="6.17635">
        <ele>520.1</ele>
        <time>2022-08-10T08:04:01Z</time>
      </trkpt>
      <trkpt lat="47.15605" lon="6.1764">
        <ele>520.5</ele>
        <time>2022-08-10T08:04:02Z</time>
      </trkpt>
      <trkpt lat="47.15608" lon="6.17645">
        <ele>521.1</ele>
        <time>2022-08-10T08:04:03Z</time>
      </trkpt>
      <trkpt lat="47.15611" lon="6.1765">
        <ele>521.4</ele>
        <time>2022-08-10T08:04:04Z</time>
      </trkpt>
      <trkpt lat="47.15614" lon="6.17655">
        <ele>521.8</ele>
        <time>2022-08-10T08:04:05Z</time>
      </trkpt>
      <trkpt lat="47.15617" lon="6.17659">
        <ele>522.1</ele>
        <time>2022-08-10T08:04:06Z</time>
      </trkpt>
      <trkpt lat="47.15621" lon="6.17664">
        <ele>522.1</ele>
        <time>2022-08-10T08:04:07Z</time>
      </trkpt>
      <trkpt lat="47.15624" lon="6.17669">
        <ele>522.2</ele>
        <time>2022-08-10T08:04:08Z</time>
      </trkpt>
      <trkpt lat="47.15628" lon="6.17674">
        <ele>522.3</ele>
        <time>2022-08-10T08:04:09Z</time>
      </trkpt>
      <trkpt lat="47.15631" lon="6.17678">
        <ele>521.9</ele>
        <time>2022-08-10T08:04:10Z</time>
      </trkpt>
      <trkpt lat="47.15635" lon="6.17683">
        <ele>521.7</ele>
        <time>2022-08-10T08:04:11Z</time>
      </trkpt>
      <trkpt lat="47.15638" lon="6.17689">
        <ele>521.3</ele>
        <time>2022-08-10T08:04:12Z</time>
      </trkpt>
      <trkpt lat="47.15642" lon="6.17694">
        <ele>521.5</ele>
        <time>2022-08-10T08:04:13Z</time>
      </trkpt>
      <trkpt lat="47.15645" lon="6.17699">
        <ele>521.4</ele>
        <time>2022-08-10T08:04:14Z</time>
      </trkpt>
      <trkpt lat="47.15649" lon="6.17705">
        <ele>521.4</ele>
        <time>2022-08-10T08:04:15Z</time>
      </trkpt>
      <trkpt lat="47.15653" lon="6.17711">
        <ele>521.4</ele>
        <time>2022-08-10T08:04:16Z</time>
      </trkpt>
      <trkpt lat="47.15657" lon="6.17717">
        <ele>520.8</ele>
        <time>2022-08-10T08:04:17Z</time>
      </trkpt>
      <trkpt lat="47.1566" lon="6.17722">
        <ele>520.5</ele>
        <time>2022-08-10T08:04:18Z</time>
      </trkpt>
      <trkpt lat="47.15664" lon="6.17727">
        <ele>520.3</ele>
        <time>2022-08-10T08:04:19Z</time>
      </trkpt>
      <trkpt lat="47.15668" lon="6.17733">
        <ele>520.2</ele>
        <time>2022-08-10T08:04:20Z</time>
      </trkpt>
      <trkpt lat="47.15672" lon="6.17738">
        <ele>520</ele>
        <time>2022-08-10T08:04:21Z</time>
      </trkpt>
      <trkpt lat="47.15675" lon="6.17743">
        <ele>520</ele>
        <time>2022-08-10T08:04:22Z</time>
      </trkpt>
      <trkpt lat="47.15679" lon="6.17749">
        <ele>520</ele>
        <time>2022-08-10T08:04:23Z</time>
      </trkpt>
      <trkpt lat="47.15682" lon="6.17754">
        <ele>519.6</ele>
        <time>2022-08-10T08:04:24Z</time>
      </trkpt>
      <trkpt lat="47.15686" lon="6.17759">
        <ele>519.5</ele>
        <time>2022-08-10T08:04:25Z</time>
      </trkpt>
      <trkpt lat="47.1569" lon="6.17763">
        <ele>519</ele>
        <time>2022-08-10T08:04:26Z</time>
      </trkpt>
      <trkpt lat="47.15694" lon="6.17768">
        <ele>518.7</ele>
        <time>2022-08-10T08:04:27Z</time>
      </trkpt>
      <trkpt lat="47.15698" lon="6.17772">
        <ele>518.6</ele>
        <time>2022-08-10T08:04:28Z</time>
      </trkpt>
      <trkpt lat="47.15702" lon="6.17777">
        <ele>518.3</ele>
        <time>2022-08-10T08:04:29Z</time>
      </trkpt>
      <trkpt lat="47.15707" lon="6.17782">
        <ele>517.6</ele>
        <time>2022-08-10T08:04:30Z</time>
      </trkpt>
      <trkpt lat="47.15711" lon="6.17786">
        <ele>517.1</ele>
        <time>2022-08-10T08:04:31Z</time>
      </trkpt>
      <trkpt lat="47.15715" lon="6.17791">
        <ele>516.8</ele>
        <time>2022-08-10T08:04:32Z</time>
      </trkpt>
      <trkpt lat="47.15719" lon="6.17796">
        <ele>516.7</ele>
        <time>2022-08-10T08:04:33Z</time>
      </trkpt>
      <trkpt lat="47.15724" lon="6.178">
        <ele>516.6</ele>
        <time>2022-08-10T08:04:34Z</time>
      </trkpt>
      <trkpt lat="47.15728" lon="6.17804">
        <ele>516.5</ele>
        <time>2022-08-10T08:04:35Z</time>
      </trkpt>
      <trkpt lat="47.15732" lon="6.17807">
        <ele>516.5</ele>
        <time>2022-08-10T08:04:36Z</time>
      </trkpt>
      <trkpt lat="47.15735" lon="6.17811">
        <ele>516.9</ele>
        <time>2022-08-10T08:04:37Z</time>
      </trkpt>
      <trkpt lat="47.15739" lon="6.17814">
        <ele>517</ele>
        <time>2022-08-10T08:04:38Z</time>
      </trkpt>
      <trkpt lat="47.15743" lon="6.17818">
        <ele>517.3</ele>
        <time>2022-08-10T08:04:39Z</time>
      </trkpt>
      <trkpt lat="47.15748" lon="6.17822">
        <ele>517.1</ele>
        <time>2022-08-10T08:04:40Z</time>
      </trkpt>
      <trkpt lat="47.15752" lon="6.17826">
        <ele>516.7</ele>
        <time>2022-08-10T08:04:41Z</time>
      </trkpt>
      <trkpt lat="47.15757" lon="6.1783">
        <ele>516.2</ele>
        <time>2022-08-10T08:04:42Z</time>
      </trkpt>
      <trkpt lat="47.15762" lon="6.17834">
        <ele>516.2</ele>
        <time>2022-08-10T08:04:43Z</time>
      </trkpt>
      <trkpt lat="47.15766" lon="6.17838">
        <ele>516.4</ele>
        <time>2022-08-10T08:04:44Z</time>
      </trkpt>
      <trkpt lat="47.15771" lon="6.1784">
        <ele>516.4</ele>
        <time>2022-08-10T08:04:45Z</time>
      </trkpt>
      <trkpt lat="47.15775" lon="6.17843">
        <ele>516.3</ele>
        <time>2022-08-10T08:04:46Z</time>
      </trkpt>
      <trkpt lat="47.1578" lon="6.17846">
        <ele>515.8</ele>
        <time>2022-08-10T08:04:47Z</time>
      </trkpt>
      <trkpt lat="47.15785" lon="6.1785">
        <ele>515.4</ele>
        <time>2022-08-10T08:04:48Z</time>
      </trkpt>
      <trkpt lat="47.1579" lon="6.17854">
        <ele>515.5</ele>
        <time>2022-08-10T08:04:49Z</time>
      </trkpt>
      <trkpt lat="47.15795" lon="6.17858">
        <ele>515.5</ele>
        <time>2022-08-10T08:04:50Z</time>
      </trkpt>
      <trkpt lat="47.15799" lon="6.17861">
        <ele>515.5</ele>
        <time>2022-08-10T08:04:51Z</time>
      </trkpt>
      <trkpt lat="47.15804" lon="6.17864">
        <ele>515.7</ele>
        <time>2022-08-10T08:04:52Z</time>
      </trkpt>
      <trkpt lat="47.15808" lon="6.17868">
        <ele>516.2</ele>
        <time>2022-08-10T08:04:53Z</time>
      </trkpt>
      <trkpt lat="47.15813" lon="6.17871">
        <ele>516.2</ele>
        <time>2022-08-10T08:04:54Z</time>
      </trkpt>
      <trkpt lat="47.15817" lon="6.17875">
        <ele>516.6</ele>
        <time>2022-08-10T08:04:55Z</time>
      </trkpt>
      <trkpt lat="47.15822" lon="6.17878">
        <ele>516.8</ele>
        <time>2022-08-10T08:04:56Z</time>
      </trkpt>
      <trkpt lat="47.15826" lon="6.17882">
        <ele>516.6</ele>
        <time>2022-08-10T08:04:57Z</time>
      </trkpt>
      <trkpt lat="47.1583" lon="6.17886">
        <ele>516.2</ele>
        <time>2022-08-10T08:04:58Z</time>
      </trkpt>
      <trkpt lat="47.15835" lon="6.17889">
        <ele>516.1</ele>
        <time>2022-08-10T08:04:59Z</time>
      </trkpt>
      <trkpt lat="47.15839" lon="6.17892">
        <ele>515.9</ele>
        <time>2022-08-10T08:05:00Z</time>
      </trkpt>
      <trkpt lat="47.15843" lon="6.17895">
        <ele>515.8</ele>
        <time>2022-08-10T08:05:01Z</time>
      </trkpt>
      <trkpt lat="47.15847" lon="6.17898">
        <ele>515.8</ele>
        <time>2022-08-10T08:05:02Z</time>
      </trkpt>
      <trkpt lat="47.15852" lon="6.17902">
        <ele>515.7</ele>
        <time>2022-08-10T08:05:03Z</time>
      </trkpt>
      <trkpt lat="47.15856" lon="6.17905">
        <ele>516.1</ele>
        <time>2022-08-10T08:05:04Z</time>
      </trkpt>
      <trkpt lat="47.1586" lon="6.17908">
        <ele>516.5</ele>
        <time>2022-08-10T08:05:05Z</time>
      </trkpt>
      <trkpt lat="47.15863" lon="6.1791">
        <ele>516.8</ele>
        <time>2022-08-10T08:05:06Z</time>
      </trkpt>
      <trkpt lat="47.15866" lon="6.17913">
        <ele>516.7</ele>
        <time>2022-08-10T08:05:07Z</time>
      </trkpt>
      <trkpt lat="47.1587" lon="6.17915">
        <ele>516.8</ele>
        <time>2022-08-10T08:05:08Z</time>
      </trkpt>
      <trkpt lat="47.15873" lon="6.17918">
        <ele>517</ele>
        <time>2022-08-10T08:05:09Z</time>
      </trkpt>
      <trkpt lat="47.15877" lon="6.1792">
        <ele>517.2</ele>
        <time>2022-08-10T08:05:10Z</time>
      </trkpt>
      <trkpt lat="47.1588" lon="6.17923">
        <ele>517.1</ele>
        <time>2022-08-10T08:05:11Z</time>
      </trkpt>
      <trkpt lat="47.15883" lon="6.17926">
        <ele>517.2</ele>
        <time>2022-08-10T08:05:12Z</time>
      </trkpt>
      <trkpt lat="47.15887" lon="6.17929">
        <ele>516.7</ele>
        <time>2022-08-10T08:05:13Z</time>
      </trkpt>
      <trkpt lat="47.1589" lon="6.17932">
        <ele>516.7</ele>
        <time>2022-08-10T08:05:14Z</time>
      </trkpt>
      <trkpt lat="47.15895" lon="6.17935">
        <ele>516.7</ele>
        <time>2022-08-10T08:05:15Z</time>
      </trkpt>
      <trkpt lat="47.15899" lon="6.17938">
        <ele>516.7</ele>
        <time>2022-08-10T08:05:16Z</time>
      </trkpt>
      <trkpt lat="47.15903" lon="6.17942">
        <ele>516.6</ele>
        <time>2022-08-10T08:05:17Z</time>
      </trkpt>
      <trkpt lat="47.15908" lon="6.17946">
        <ele>516.5</ele>
        <time>2022-08-10T08:05:18Z</time>
      </trkpt>
      <trkpt lat="47.15912" lon="6.17949">
        <ele>516.8</ele>
        <time>2022-08-10T08:05:19Z</time>
      </trkpt>
      <trkpt lat="47.15916" lon="6.17953">
        <ele>516.5</ele>
        <time>2022-08-10T08:05:20Z</time>
      </trkpt>
      <trkpt lat="47.15921" lon="6.17956">
        <ele>516.6</ele>
        <time>2022-08-10T08:05:21Z</time>
      </trkpt>
      <trkpt lat="47.15925" lon="6.1796">
        <ele>516.5</ele>
        <time>2022-08-10T08:05:22Z</time>
      </trkpt>
      <trkpt lat="47.15929" lon="6.17963">
        <ele>516.8</ele>
        <time>2022-08-10T08:05:23Z</time>
      </trkpt>
      <trkpt lat="47.15934" lon="6.17966">
        <ele>516.8</ele>
        <time>2022-08-10T08:05:24Z</time>
      </trkpt>
      <trkpt lat="47.15938" lon="6.17969">
        <ele>516.7</ele>
        <time>2022-08-10T08:05:25Z</time>
      </trkpt>
      <trkpt lat="47.15943" lon="6.17972">
        <ele>516.9</ele>
        <time>2022-08-10T08:05:26Z</time>
      </trkpt>
      <trkpt lat="47.15947" lon="6.17975">
        <ele>517</ele>
        <time>2022-08-10T08:05:27Z</time>
      </trkpt>
      <trkpt lat="47.15952" lon="6.17978">
        <ele>517.1</ele>
        <time>2022-08-10T08:05:28Z</time>
      </trkpt>
      <trkpt lat="47.15956" lon="6.17982">
        <ele>517.1</ele>
        <time>2022-08-10T08:05:29Z</time>
      </trkpt>
      <trkpt lat="47.1596" lon="6.17986">
        <ele>517.1</ele>
        <time>2022-08-10T08:05:30Z</time>
      </trkpt>
      <trkpt lat="47.15965" lon="6.17989">
        <ele>517.3</ele>
        <time>2022-08-10T08:05:31Z</time>
      </trkpt>
      <trkpt lat="47.15969" lon="6.17992">
        <ele>517.8</ele>
        <time>2022-08-10T08:05:32Z</time>
      </trkpt>
      <trkpt lat="47.15974" lon="6.17995">
        <ele>518.2</ele>
        <time>2022-08-10T08:05:33Z</time>
      </trkpt>
      <trkpt lat="47.15978" lon="6.17998">
        <ele>518.4</ele>
        <time>2022-08-10T08:05:34Z</time>
      </trkpt>
      <trkpt lat="47.15983" lon="6.18002">
        <ele>518.6</ele>
        <time>2022-08-10T08:05:35Z</time>
      </trkpt>
      <trkpt lat="47.15987" lon="6.18005">
        <ele>518.7</ele>
        <time>2022-08-10T08:05:36Z</time>
      </trkpt>
      <trkpt lat="47.15992" lon="6.18008">
        <ele>518.5</ele>
        <time>2022-08-10T08:05:37Z</time>
      </trkpt>
      <trkpt lat="47.15996" lon="6.18011">
        <ele>518.3</ele>
        <time>2022-08-10T08:05:38Z</time>
      </trkpt>
      <trkpt lat="47.16001" lon="6.18015">
        <ele>517.5</ele>
        <time>2022-08-10T08:05:39Z</time>
      </trkpt>
      <trkpt lat="47.16005" lon="6.18018">
        <ele>517.2</ele>
        <time>2022-08-10T08:05:40Z</time>
      </trkpt>
      <trkpt lat="47.1601" lon="6.18021">
        <ele>517</ele>
        <time>2022-08-10T08:05:41Z</time>
      </trkpt>
      <trkpt lat="47.16014" lon="6.18024">
        <ele>517</ele>
        <time>2022-08-10T08:05:42Z</time>
      </trkpt>
      <trkpt lat="47.16019" lon="6.18028">
        <ele>516.9</ele>
        <time>2022-08-10T08:05:43Z</time>
      </trkpt>
      <trkpt lat="47.16024" lon="6.18032">
        <ele>516.8</ele>
        <time>2022-08-10T08:05:44Z</time>
      </trkpt>
      <trkpt lat="47.16028" lon="6.18035">
        <ele>516.7</ele>
        <time>2022-08-10T08:05:45Z</time>
      </trkpt>
      <trkpt lat="47.16033" lon="6.18038">
        <ele>516.1</ele>
        <time>2022-08-10T08:05:46Z</time>
      </trkpt>
      <trkpt lat="47.16038" lon="6.18041">
        <ele>516.1</ele>
        <time>2022-08-10T08:05:47Z</time>
      </trkpt>
      <trkpt lat="47.16042" lon="6.18045">
        <ele>516.1</ele>
        <time>2022-08-10T08:05:48Z</time>
      </trkpt>
      <trkpt lat="47.16047" lon="6.18048">
        <ele>516</ele>
        <time>2022-08-10T08:05:49Z</time>
      </trkpt>
      <trkpt lat="47.16052" lon="6.18051">
        <ele>515.7</ele>
        <time>2022-08-10T08:05:50Z</time>
      </trkpt>
      <trkpt lat="47.16057" lon="6.18054">
        <ele>515.2</ele>
        <time>2022-08-10T08:05:51Z</time>
      </trkpt>
      <trkpt lat="47.16061" lon="6.18057">
        <ele>514.8</ele>
        <time>2022-08-10T08:05:52Z</time>
      </trkpt>
      <trkpt lat="47.16066" lon="6.18061">
        <ele>514.8</ele>
        <time>2022-08-10T08:05:53Z</time>
      </trkpt>
      <trkpt lat="47.1607" lon="6.18064">
        <ele>514.8</ele>
        <time>2022-08-10T08:05:54Z</time>
      </trkpt>
      <trkpt lat="47.16075" lon="6.18067">
        <ele>514.7</ele>
        <time>2022-08-10T08:05:55Z</time>
      </trkpt>
      <trkpt lat="47.16079" lon="6.1807">
        <ele>514.6</ele>
        <time>2022-08-10T08:05:56Z</time>
      </trkpt>
      <trkpt lat="47.16083" lon="6.18073">
        <ele>514.5</ele>
        <time>2022-08-10T08:05:57Z</time>
      </trkpt>
      <trkpt lat="47.16087" lon="6.18076">
        <ele>514.2</ele>
        <time>2022-08-10T08:05:58Z</time>
      </trkpt>
      <trkpt lat="47.16091" lon="6.18079">
        <ele>514.1</ele>
        <time>2022-08-10T08:05:59Z</time>
      </trkpt>
      <trkpt lat="47.16096" lon="6.18082">
        <ele>514.1</ele>
        <time>2022-08-10T08:06:00Z</time>
      </trkpt>
      <trkpt lat="47.161" lon="6.18086">
        <ele>514.5</ele>
        <time>2022-08-10T08:06:01Z</time>
      </trkpt>
      <trkpt lat="47.16105" lon="6.18089">
        <ele>515</ele>
        <time>2022-08-10T08:06:02Z</time>
      </trkpt>
      <trkpt lat="47.16109" lon="6.18092">
        <ele>515.4</ele>
        <time>2022-08-10T08:06:03Z</time>
      </trkpt>
      <trkpt lat="47.16113" lon="6.18095">
        <ele>515.8</ele>
        <time>2022-08-10T08:06:04Z</time>
      </trkpt>
      <trkpt lat="47.16118" lon="6.18098">
        <ele>516.5</ele>
        <time>2022-08-10T08:06:05Z</time>
      </trkpt>
      <trkpt lat="47.16123" lon="6.18103">
        <ele>517.1</ele>
        <time>2022-08-10T08:06:06Z</time>
      </trkpt>
      <trkpt lat="47.16128" lon="6.18106">
        <ele>517.6</ele>
        <time>2022-08-10T08:06:07Z</time>
      </trkpt>
      <trkpt lat="47.16133" lon="6.1811">
        <ele>518</ele>
        <time>2022-08-10T08:06:08Z</time>
      </trkpt>
      <trkpt lat="47.16137" lon="6.18114">
        <ele>518.5</ele>
        <time>2022-08-10T08:06:09Z</time>
      </trkpt>
      <trkpt lat="47.16142" lon="6.18118">
        <ele>518.8</ele>
        <time>2022-08-10T08:06:10Z</time>
      </trkpt>
      <trkpt lat="47.16146" lon="6.18122">
        <ele>519.2</ele>
        <time>2022-08-10T08:06:11Z</time>
      </trkpt>
      <trkpt lat="47.1615" lon="6.18126">
        <ele>519.7</ele>
        <time>2022-08-10T08:06:12Z</time>
      </trkpt>
      <trkpt lat="47.16154" lon="6.18131">
        <ele>520.1</ele>
        <time>2022-08-10T08:06:13Z</time>
      </trkpt>
      <trkpt lat="47.16158" lon="6.18136">
        <ele>520.1</ele>
        <time>2022-08-10T08:06:14Z</time>
      </trkpt>
      <trkpt lat="47.16163" lon="6.18141">
        <ele>519.8</ele>
        <time>2022-08-10T08:06:15Z</time>
      </trkpt>
      <trkpt lat="47.16166" lon="6.18145">
        <ele>519.7</ele>
        <time>2022-08-10T08:06:16Z</time>
      </trkpt>
      <trkpt lat="47.1617" lon="6.1815">
        <ele>519.6</ele>
        <time>2022-08-10T08:06:17Z</time>
      </trkpt>
      <trkpt lat="47.16173" lon="6.18155">
        <ele>519.8</ele>
        <time>2022-08-10T08:06:18Z</time>
      </trkpt>
      <trkpt lat="47.16176" lon="6.1816">
        <ele>519.7</ele>
        <time>2022-08-10T08:06:19Z</time>
      </trkpt>
      <trkpt lat="47.16179" lon="6.18164">
        <ele>519.8</ele>
        <time>2022-08-10T08:06:20Z</time>
      </trkpt>
      <trkpt lat="47.16182" lon="6.1817">
        <ele>519.7</ele>
        <time>2022-08-10T08:06:21Z</time>
      </trkpt>
      <trkpt lat="47.16186" lon="6.18174">
        <ele>520</ele>
        <time>2022-08-10T08:06:22Z</time>
      </trkpt>
      <trkpt lat="47.16189" lon="6.18179">
        <ele>520.2</ele>
        <time>2022-08-10T08:06:23Z</time>
      </trkpt>
      <trkpt lat="47.16193" lon="6.18184">
        <ele>520.6</ele>
        <time>2022-08-10T08:06:24Z</time>
      </trkpt>
      <trkpt lat="47.16196" lon="6.1819">
        <ele>520.8</ele>
        <time>2022-08-10T08:06:25Z</time>
      </trkpt>
      <trkpt lat="47.162" lon="6.18196">
        <ele>520.9</ele>
        <time>2022-08-10T08:06:26Z</time>
      </trkpt>
      <trkpt lat="47.16204" lon="6.18202">
        <ele>520.8</ele>
        <time>2022-08-10T08:06:27Z</time>
      </trkpt>
      <trkpt lat="47.16208" lon="6.18209">
        <ele>520.6</ele>
        <time>2022-08-10T08:06:28Z</time>
      </trkpt>
      <trkpt lat="47.16212" lon="6.18216">
        <ele>520.4</ele>
        <time>2022-08-10T08:06:29Z</time>
      </trkpt>
      <trkpt lat="47.16215" lon="6.18224">
        <ele>520.1</ele>
        <time>2022-08-10T08:06:30Z</time>
      </trkpt>
      <trkpt lat="47.16219" lon="6.18232">
        <ele>519.7</ele>
        <time>2022-08-10T08:06:31Z</time>
      </trkpt>
      <trkpt lat="47.16223" lon="6.1824">
        <ele>519.7</ele>
        <time>2022-08-10T08:06:32Z</time>
      </trkpt>
      <trkpt lat="47.16226" lon="6.18247">
        <ele>519.3</ele>
        <time>2022-08-10T08:06:33Z</time>
      </trkpt>
      <trkpt lat="47.1623" lon="6.18254">
        <ele>519.2</ele>
        <time>2022-08-10T08:06:34Z</time>
      </trkpt>
      <trkpt lat="47.16233" lon="6.1826">
        <ele>518.7</ele>
        <time>2022-08-10T08:06:35Z</time>
      </trkpt>
      <trkpt lat="47.16237" lon="6.18267">
        <ele>518.3</ele>
        <time>2022-08-10T08:06:36Z</time>
      </trkpt>
      <trkpt lat="47.16241" lon="6.18273">
        <ele>518</ele>
        <time>2022-08-10T08:06:37Z</time>
      </trkpt>
      <trkpt lat="47.16245" lon="6.18281">
        <ele>517.8</ele>
        <time>2022-08-10T08:06:38Z</time>
      </trkpt>
      <trkpt lat="47.16248" lon="6.18288">
        <ele>517.4</ele>
        <time>2022-08-10T08:06:39Z</time>
      </trkpt>
      <trkpt lat="47.16252" lon="6.18296">
        <ele>516</ele>
        <time>2022-08-10T08:06:40Z</time>
      </trkpt>
      <trkpt lat="47.16256" lon="6.18303">
        <ele>513.9</ele>
        <time>2022-08-10T08:06:41Z</time>
      </trkpt>
      <trkpt lat="47.16259" lon="6.1831">
        <ele>513.1</ele>
        <time>2022-08-10T08:06:42Z</time>
      </trkpt>
      <trkpt lat="47.16262" lon="6.18319">
        <ele>512.5</ele>
        <time>2022-08-10T08:06:43Z</time>
      </trkpt>
      <trkpt lat="47.16265" lon="6.18326">
        <ele>512.3</ele>
        <time>2022-08-10T08:06:44Z</time>
      </trkpt>
      <trkpt lat="47.16267" lon="6.18334">
        <ele>512.2</ele>
        <time>2022-08-10T08:06:45Z</time>
      </trkpt>
      <trkpt lat="47.1627" lon="6.18341">
        <ele>511.6</ele>
        <time>2022-08-10T08:06:46Z</time>
      </trkpt>
      <trkpt lat="47.16272" lon="6.18348">
        <ele>510.7</ele>
        <time>2022-08-10T08:06:47Z</time>
      </trkpt>
      <trkpt lat="47.16275" lon="6.18355">
        <ele>509.9</ele>
        <time>2022-08-10T08:06:48Z</time>
      </trkpt>
      <trkpt lat="47.16279" lon="6.18362">
        <ele>509.5</ele>
        <time>2022-08-10T08:06:49Z</time>
      </trkpt>
      <trkpt lat="47.16282" lon="6.18369">
        <ele>508.8</ele>
        <time>2022-08-10T08:06:50Z</time>
      </trkpt>
      <trkpt lat="47.16284" lon="6.18374">
        <ele>508.4</ele>
        <time>2022-08-10T08:06:51Z</time>
      </trkpt>
      <trkpt lat="47.16286" lon="6.1838">
        <ele>508.8</ele>
        <time>2022-08-10T08:06:52Z</time>
      </trkpt>
      <trkpt lat="47.16289" lon="6.18385">
        <ele>508.8</ele>
        <time>2022-08-10T08:06:53Z</time>
      </trkpt>
      <trkpt lat="47.16291" lon="6.18391">
        <ele>508.7</ele>
        <time>2022-08-10T08:06:54Z</time>
      </trkpt>
      <trkpt lat="47.16293" lon="6.18397">
        <ele>508.9</ele>
        <time>2022-08-10T08:06:55Z</time>
      </trkpt>
      <trkpt lat="47.16296" lon="6.18403">
        <ele>509.3</ele>
        <time>2022-08-10T08:06:56Z</time>
      </trkpt>
      <trkpt lat="47.16298" lon="6.18408">
        <ele>509.8</ele>
        <time>2022-08-10T08:06:57Z</time>
      </trkpt>
      <trkpt lat="47.16301" lon="6.18414">
        <ele>510.3</ele>
        <time>2022-08-10T08:06:58Z</time>
      </trkpt>
      <trkpt lat="47.16303" lon="6.1842">
        <ele>510.7</ele>
        <time>2022-08-10T08:06:59Z</time>
      </trkpt>
      <trkpt lat="47.16305" lon="6.18426">
        <ele>511.4</ele>
        <time>2022-08-10T08:07:00Z</time>
      </trkpt>
      <trkpt lat="47.16307" lon="6.18433">
        <ele>512.3</ele>
        <time>2022-08-10T08:07:01Z</time>
      </trkpt>
      <trkpt lat="47.1631" lon="6.18438">
        <ele>512.4</ele>
        <time>2022-08-10T08:07:02Z</time>
      </trkpt>
      <trkpt lat="47.16312" lon="6.18444">
        <ele>512.9</ele>
        <time>2022-08-10T08:07:03Z</time>
      </trkpt>
      <trkpt lat="47.16314" lon="6.1845">
        <ele>513.3</ele>
        <time>2022-08-10T08:07:04Z</time>
      </trkpt>
      <trkpt lat="47.16316" lon="6.18455">
        <ele>514.6</ele>
        <time>2022-08-10T08:07:05Z</time>
      </trkpt>
      <trkpt lat="47.16318" lon="6.1846">
        <ele>515.3</ele>
        <time>2022-08-10T08:07:06Z</time>
      </trkpt>
      <trkpt lat="47.1632" lon="6.18466">
        <ele>516</ele>
        <time>2022-08-10T08:07:07Z</time>
      </trkpt>
      <trkpt lat="47.16322" lon="6.18471">
        <ele>516.8</ele>
        <time>2022-08-10T08:07:08Z</time>
      </trkpt>
      <trkpt lat="47.16324" lon="6.18476">
        <ele>517.6</ele>
        <time>2022-08-10T08:07:09Z</time>
      </trkpt>
      <trkpt lat="47.16326" lon="6.18481">
        <ele>517.9</ele>
        <time>2022-08-10T08:07:10Z</time>
      </trkpt>
      <trkpt lat="47.16328" lon="6.18486">
        <ele>518.1</ele>
        <time>2022-08-10T08:07:11Z</time>
      </trkpt>
      <trkpt lat="47.1633" lon="6.18491">
        <ele>518.1</ele>
        <time>2022-08-10T08:07:12Z</time>
      </trkpt>
      <trkpt lat="47.16332" lon="6.18496">
        <ele>518.6</ele>
        <time>2022-08-10T08:07:13Z</time>
      </trkpt>
      <trkpt lat="47.16334" lon="6.18501">
        <ele>519.2</ele>
        <time>2022-08-10T08:07:14Z</time>
      </trkpt>
      <trkpt lat="47.16336" lon="6.18505">
        <ele>519.6</ele>
        <time>2022-08-10T08:07:15Z</time>
      </trkpt>
      <trkpt lat="47.16339" lon="6.18509">
        <ele>519.8</ele>
        <time>2022-08-10T08:07:16Z</time>
      </trkpt>
      <trkpt lat="47.16341" lon="6.18512">
        <ele>520.4</ele>
        <time>2022-08-10T08:07:17Z</time>
      </trkpt>
      <trkpt lat="47.16343" lon="6.18516">
        <ele>521</ele>
        <time>2022-08-10T08:07:18Z</time>
      </trkpt>
      <trkpt lat="47.16345" lon="6.18519">
        <ele>521.2</ele>
        <time>2022-08-10T08:07:19Z</time>
      </trkpt>
      <trkpt lat="47.16347" lon="6.18523">
        <ele>521.5</ele>
        <time>2022-08-10T08:07:20Z</time>
      </trkpt>
      <trkpt lat="47.16348" lon="6.18527">
        <ele>521.8</ele>
        <time>2022-08-10T08:07:21Z</time>
      </trkpt>
      <trkpt lat="47.16348" lon="6.1853">
        <ele>522.2</ele>
        <time>2022-08-10T08:07:22Z</time>
      </trkpt>
      <trkpt lat="47.1635" lon="6.18533">
        <ele>523</ele>
        <time>2022-08-10T08:07:23Z</time>
      </trkpt>
      <trkpt lat="47.16351" lon="6.18535">
        <ele>524</ele>
        <time>2022-08-10T08:07:24Z</time>
      </trkpt>
      <trkpt lat="47.16354" lon="6.18538">
        <ele>524.3</ele>
        <time>2022-08-10T08:07:25Z</time>
      </trkpt>
      <trkpt lat="47.16356" lon="6.18541">
        <ele>524.9</ele>
        <time>2022-08-10T08:07:26Z</time>
      </trkpt>
      <trkpt lat="47.16358" lon="6.18546">
        <ele>525.3</ele>
        <time>2022-08-10T08:07:27Z</time>
      </trkpt>
      <trkpt lat="47.16359" lon="6.18551">
        <ele>525.4</ele>
        <time>2022-08-10T08:07:28Z</time>
      </trkpt>
      <trkpt lat="47.1636" lon="6.18555">
        <ele>525.7</ele>
        <time>2022-08-10T08:07:29Z</time>
      </trkpt>
      <trkpt lat="47.16361" lon="6.1856">
        <ele>526.4</ele>
        <time>2022-08-10T08:07:30Z</time>
      </trkpt>
      <trkpt lat="47.16362" lon="6.18563">
        <ele>527</ele>
        <time>2022-08-10T08:07:31Z</time>
      </trkpt>
      <trkpt lat="47.16364" lon="6.18565">
        <ele>527.4</ele>
        <time>2022-08-10T08:07:32Z</time>
      </trkpt>
      <trkpt lat="47.16365" lon="6.18567">
        <ele>527.3</ele>
        <time>2022-08-10T08:07:33Z</time>
      </trkpt>
      <trkpt lat="47.16367" lon="6.18568">
        <ele>527.2</ele>
        <time>2022-08-10T08:07:34Z</time>
      </trkpt>
      <trkpt lat="47.16368" lon="6.1857">
        <ele>527.3</ele>
        <time>2022-08-10T08:07:35Z</time>
      </trkpt>
      <trkpt lat="47.16369" lon="6.18571">
        <ele>527.1</ele>
        <time>2022-08-10T08:07:36Z</time>
      </trkpt>
      <trkpt lat="47.1637" lon="6.18572">
        <ele>527.3</ele>
        <time>2022-08-10T08:07:37Z</time>
      </trkpt>
      <trkpt lat="47.16372" lon="6.18573">
        <ele>527.2</ele>
        <time>2022-08-10T08:07:38Z</time>
      </trkpt>
      <trkpt lat="47.16374" lon="6.18575">
        <ele>527.4</ele>
        <time>2022-08-10T08:07:39Z</time>
      </trkpt>
      <trkpt lat="47.16376" lon="6.18578">
        <ele>527.8</ele>
        <time>2022-08-10T08:07:40Z</time>
      </trkpt>
      <trkpt lat="47.16378" lon="6.18581">
        <ele>528.3</ele>
        <time>2022-08-10T08:07:41Z</time>
      </trkpt>
      <trkpt lat="47.1638" lon="6.18586">
        <ele>528.5</ele>
        <time>2022-08-10T08:07:42Z</time>
      </trkpt>
      <trkpt lat="47.16383" lon="6.1859">
        <ele>528.6</ele>
        <time>2022-08-10T08:07:43Z</time>
      </trkpt>
      <trkpt lat="47.16386" lon="6.18594">
        <ele>529</ele>
        <time>2022-08-10T08:07:44Z</time>
      </trkpt>
      <trkpt lat="47.16389" lon="6.18598">
        <ele>529.7</ele>
        <time>2022-08-10T08:07:45Z</time>
      </trkpt>
      <trkpt lat="47.16392" lon="6.18603">
        <ele>529.9</ele>
        <time>2022-08-10T08:07:46Z</time>
      </trkpt>
      <trkpt lat="47.16396" lon="6.18608">
        <ele>530.3</ele>
        <time>2022-08-10T08:07:47Z</time>
      </trkpt>
      <trkpt lat="47.16398" lon="6.18613">
        <ele>530.4</ele>
        <time>2022-08-10T08:07:48Z</time>
      </trkpt>
      <trkpt lat="47.16401" lon="6.18618">
        <ele>530.1</ele>
        <time>2022-08-10T08:07:49Z</time>
      </trkpt>
      <trkpt lat="47.16405" lon="6.18623">
        <ele>529.4</ele>
        <time>2022-08-10T08:07:50Z</time>
      </trkpt>
      <trkpt lat="47.16407" lon="6.18629">
        <ele>528.7</ele>
        <time>2022-08-10T08:07:51Z</time>
      </trkpt>
      <trkpt lat="47.1641" lon="6.18634">
        <ele>528.4</ele>
        <time>2022-08-10T08:07:52Z</time>
      </trkpt>
      <trkpt lat="47.16414" lon="6.18639">
        <ele>528.4</ele>
        <time>2022-08-10T08:07:53Z</time>
      </trkpt>
      <trkpt lat="47.16417" lon="6.18644">
        <ele>527.8</ele>
        <time>2022-08-10T08:07:54Z</time>
      </trkpt>
      <trkpt lat="47.1642" lon="6.18649">
        <ele>527.2</ele>
        <time>2022-08-10T08:07:55Z</time>
      </trkpt>
      <trkpt lat="47.16423" lon="6.18654">
        <ele>526.9</ele>
        <time>2022-08-10T08:07:56Z</time>
      </trkpt>
      <trkpt lat="47.16426" lon="6.18659">
        <ele>526.9</ele>
        <time>2022-08-10T08:07:57Z</time>
      </trkpt>
      <trkpt lat="47.16429" lon="6.18663">
        <ele>527</ele>
        <time>2022-08-10T08:07:58Z</time>
      </trkpt>
      <trkpt lat="47.16432" lon="6.18668">
        <ele>527.4</ele>
        <time>2022-08-10T08:07:59Z</time>
      </trkpt>
      <trkpt lat="47.16435" lon="6.18673">
        <ele>527.5</ele>
        <time>2022-08-10T08:08:00Z</time>
      </trkpt>
      <trkpt lat="47.16438" lon="6.18677">
        <ele>527.6</ele>
        <time>2022-08-10T08:08:01Z</time>
      </trkpt>
      <trkpt lat="47.16441" lon="6.18681">
        <ele>527.8</ele>
        <time>2022-08-10T08:08:02Z</time>
      </trkpt>
      <trkpt lat="47.16444" lon="6.18684">
        <ele>527.8</ele>
        <time>2022-08-10T08:08:03Z</time>
      </trkpt>
      <trkpt lat="47.16447" lon="6.18688">
        <ele>527.9</ele>
        <time>2022-08-10T08:08:04Z</time>
      </trkpt>
      <trkpt lat="47.1645" lon="6.18691">
        <ele>528</ele>
        <time>2022-08-10T08:08:05Z</time>
      </trkpt>
      <trkpt lat="47.16452" lon="6.18695">
        <ele>528</ele>
        <time>2022-08-10T08:08:06Z</time>
      </trkpt>
      <trkpt lat="47.16455" lon="6.18699">
        <ele>527.8</ele>
        <time>2022-08-10T08:08:07Z</time>
      </trkpt>
      <trkpt lat="47.16458" lon="6.18704">
        <ele>527.9</ele>
        <time>2022-08-10T08:08:08Z</time>
      </trkpt>
      <trkpt lat="47.16461" lon="6.18708">
        <ele>528.1</ele>
        <time>2022-08-10T08:08:09Z</time>
      </trkpt>
      <trkpt lat="47.16464" lon="6.18712">
        <ele>528.6</ele>
        <time>2022-08-10T08:08:10Z</time>
      </trkpt>
      <trkpt lat="47.16467" lon="6.18716">
        <ele>529</ele>
        <time>2022-08-10T08:08:11Z</time>
      </trkpt>
      <trkpt lat="47.1647" lon="6.18719">
        <ele>529.1</ele>
        <time>2022-08-10T08:08:12Z</time>
      </trkpt>
      <trkpt lat="47.16473" lon="6.18722">
        <ele>529.9</ele>
        <time>2022-08-10T08:08:13Z</time>
      </trkpt>
      <trkpt lat="47.16476" lon="6.18724">
        <ele>530.6</ele>
        <time>2022-08-10T08:08:14Z</time>
      </trkpt>
      <trkpt lat="47.16479" lon="6.18727">
        <ele>531</ele>
        <time>2022-08-10T08:08:15Z</time>
      </trkpt>
      <trkpt lat="47.16483" lon="6.1873">
        <ele>531.8</ele>
        <time>2022-08-10T08:08:16Z</time>
      </trkpt>
      <trkpt lat="47.16486" lon="6.18734">
        <ele>532.2</ele>
        <time>2022-08-10T08:08:17Z</time>
      </trkpt>
      <trkpt lat="47.16489" lon="6.18737">
        <ele>532.7</ele>
        <time>2022-08-10T08:08:18Z</time>
      </trkpt>
      <trkpt lat="47.16493" lon="6.18741">
        <ele>533.3</ele>
        <time>2022-08-10T08:08:19Z</time>
      </trkpt>
      <trkpt lat="47.16496" lon="6.18744">
        <ele>534</ele>
        <time>2022-08-10T08:08:20Z</time>
      </trkpt>
      <trkpt lat="47.16499" lon="6.18748">
        <ele>534.2</ele>
        <time>2022-08-10T08:08:21Z</time>
      </trkpt>
      <trkpt lat="47.16502" lon="6.18752">
        <ele>534.5</ele>
        <time>2022-08-10T08:08:22Z</time>
      </trkpt>
      <trkpt lat="47.16505" lon="6.18756">
        <ele>534.7</ele>
        <time>2022-08-10T08:08:23Z</time>
      </trkpt>
      <trkpt lat="47.16509" lon="6.1876">
        <ele>534.7</ele>
        <time>2022-08-10T08:08:24Z</time>
      </trkpt>
      <trkpt lat="47.16512" lon="6.18763">
        <ele>535.1</ele>
        <time>2022-08-10T08:08:25Z</time>
      </trkpt>
      <trkpt lat="47.16515" lon="6.18767">
        <ele>535.2</ele>
        <time>2022-08-10T08:08:26Z</time>
      </trkpt>
      <trkpt lat="47.16518" lon="6.1877">
        <ele>535.3</ele>
        <time>2022-08-10T08:08:27Z</time>
      </trkpt>
      <trkpt lat="47.16522" lon="6.18774">
        <ele>535.4</ele>
        <time>2022-08-10T08:08:28Z</time>
      </trkpt>
      <trkpt lat="47.16525" lon="6.18778">
        <ele>535.4</ele>
        <time>2022-08-10T08:08:29Z</time>
      </trkpt>
      <trkpt lat="47.16529" lon="6.18782">
        <ele>535.4</ele>
        <time>2022-08-10T08:08:30Z</time>
      </trkpt>
      <trkpt lat="47.16532" lon="6.18786">
        <ele>535.7</ele>
        <time>2022-08-10T08:08:31Z</time>
      </trkpt>
      <trkpt lat="47.16536" lon="6.18791">
        <ele>536.2</ele>
        <time>2022-08-10T08:08:32Z</time>
      </trkpt>
      <trkpt lat="47.1654" lon="6.18795">
        <ele>536.8</ele>
        <time>2022-08-10T08:08:33Z</time>
      </trkpt>
      <trkpt lat="47.16543" lon="6.18799">
        <ele>537.2</ele>
        <time>2022-08-10T08:08:34Z</time>
      </trkpt>
      <trkpt lat="47.16546" lon="6.18804">
        <ele>537.4</ele>
        <time>2022-08-10T08:08:35Z</time>
      </trkpt>
      <trkpt lat="47.16549" lon="6.18808">
        <ele>537.7</ele>
        <time>2022-08-10T08:08:36Z</time>
      </trkpt>
      <trkpt lat="47.16552" lon="6.18812">
        <ele>538.2</ele>
        <time>2022-08-10T08:08:37Z</time>
      </trkpt>
      <trkpt lat="47.16555" lon="6.18816">
        <ele>538.7</ele>
        <time>2022-08-10T08:08:38Z</time>
      </trkpt>
      <trkpt lat="47.16558" lon="6.1882">
        <ele>539.1</ele>
        <time>2022-08-10T08:08:39Z</time>
      </trkpt>
      <trkpt lat="47.16561" lon="6.18824">
        <ele>539.5</ele>
        <time>2022-08-10T08:08:40Z</time>
      </trkpt>
      <trkpt lat="47.16565" lon="6.18829">
        <ele>539.2</ele>
        <time>2022-08-10T08:08:41Z</time>
      </trkpt>
      <trkpt lat="47.16568" lon="6.18834">
        <ele>539.5</ele>
        <time>2022-08-10T08:08:42Z</time>
      </trkpt>
      <trkpt lat="47.16572" lon="6.18838">
        <ele>539.7</ele>
        <time>2022-08-10T08:08:43Z</time>
      </trkpt>
      <trkpt lat="47.16575" lon="6.18843">
        <ele>540</ele>
        <time>2022-08-10T08:08:44Z</time>
      </trkpt>
      <trkpt lat="47.16579" lon="6.18847">
        <ele>539.9</ele>
        <time>2022-08-10T08:08:45Z</time>
      </trkpt>
      <trkpt lat="47.16582" lon="6.18852">
        <ele>540.2</ele>
        <time>2022-08-10T08:08:46Z</time>
      </trkpt>
      <trkpt lat="47.16586" lon="6.18857">
        <ele>540.1</ele>
        <time>2022-08-10T08:08:47Z</time>
      </trkpt>
      <trkpt lat="47.16589" lon="6.18862">
        <ele>540.1</ele>
        <time>2022-08-10T08:08:48Z</time>
      </trkpt>
      <trkpt lat="47.16592" lon="6.18866">
        <ele>540.1</ele>
        <time>2022-08-10T08:08:49Z</time>
      </trkpt>
      <trkpt lat="47.16595" lon="6.1887">
        <ele>540.6</ele>
        <time>2022-08-10T08:08:50Z</time>
      </trkpt>
      <trkpt lat="47.16598" lon="6.18874">
        <ele>540.2</ele>
        <time>2022-08-10T08:08:51Z</time>
      </trkpt>
      <trkpt lat="47.16602" lon="6.18877">
        <ele>540.3</ele>
        <time>2022-08-10T08:08:52Z</time>
      </trkpt>
      <trkpt lat="47.16605" lon="6.18881">
        <ele>540.3</ele>
        <time>2022-08-10T08:08:53Z</time>
      </trkpt>
      <trkpt lat="47.16608" lon="6.18886">
        <ele>540.3</ele>
        <time>2022-08-10T08:08:54Z</time>
      </trkpt>
      <trkpt lat="47.16612" lon="6.1889">
        <ele>540</ele>
        <time>2022-08-10T08:08:55Z</time>
      </trkpt>
      <trkpt lat="47.16615" lon="6.18894">
        <ele>539.6</ele>
        <time>2022-08-10T08:08:56Z</time>
      </trkpt>
      <trkpt lat="47.16618" lon="6.18899">
        <ele>539.8</ele>
        <time>2022-08-10T08:08:57Z</time>
      </trkpt>
      <trkpt lat="47.16622" lon="6.18903">
        <ele>539.7</ele>
        <time>2022-08-10T08:08:58Z</time>
      </trkpt>
      <trkpt lat="47.16625" lon="6.18907">
        <ele>539.2</ele>
        <time>2022-08-10T08:08:59Z</time>
      </trkpt>
      <trkpt lat="47.16628" lon="6.18911">
        <ele>539</ele>
        <time>2022-08-10T08:09:00Z</time>
      </trkpt>
      <trkpt lat="47.16631" lon="6.18915">
        <ele>538.7</ele>
        <time>2022-08-10T08:09:01Z</time>
      </trkpt>
      <trkpt lat="47.16635" lon="6.18919">
        <ele>538.8</ele>
        <time>2022-08-10T08:09:02Z</time>
      </trkpt>
      <trkpt lat="47.16638" lon="6.18923">
        <ele>538.6</ele>
        <time>2022-08-10T08:09:03Z</time>
      </trkpt>
      <trkpt lat="47.16641" lon="6.18927">
        <ele>538.8</ele>
        <time>2022-08-10T08:09:04Z</time>
      </trkpt>
      <trkpt lat="47.16645" lon="6.18932">
        <ele>538.8</ele>
        <time>2022-08-10T08:09:05Z</time>
      </trkpt>
      <trkpt lat="47.16648" lon="6.18937">
        <ele>538.4</ele>
        <time>2022-08-10T08:09:06Z</time>
      </trkpt>
      <trkpt lat="47.16652" lon="6.18941">
        <ele>538.3</ele>
        <time>2022-08-10T08:09:07Z</time>
      </trkpt>
      <trkpt lat="47.16655" lon="6.18945">
        <ele>538.7</ele>
        <time>2022-08-10T08:09:08Z</time>
      </trkpt>
      <trkpt lat="47.16658" lon="6.1895">
        <ele>538.7</ele>
        <time>2022-08-10T08:09:09Z</time>
      </trkpt>
      <trkpt lat="47.16662" lon="6.18955">
        <ele>538.6</ele>
        <time>2022-08-10T08:09:10Z</time>
      </trkpt>
      <trkpt lat="47.16665" lon="6.18959">
        <ele>538.1</ele>
        <time>2022-08-10T08:09:11Z</time>
      </trkpt>
      <trkpt lat="47.16668" lon="6.18964">
        <ele>538.1</ele>
        <time>2022-08-10T08:09:12Z</time>
      </trkpt>
      <trkpt lat="47.16671" lon="6.18968">
        <ele>537.6</ele>
        <time>2022-08-10T08:09:13Z</time>
      </trkpt>
      <trkpt lat="47.16674" lon="6.18972">
        <ele>538</ele>
        <time>2022-08-10T08:09:14Z</time>
      </trkpt>
      <trkpt lat="47.16677" lon="6.18976">
        <ele>538.5</ele>
        <time>2022-08-10T08:09:15Z</time>
      </trkpt>
      <trkpt lat="47.16681" lon="6.1898">
        <ele>538.7</ele>
        <time>2022-08-10T08:09:16Z</time>
      </trkpt>
      <trkpt lat="47.16684" lon="6.18984">
        <ele>538.9</ele>
        <time>2022-08-10T08:09:17Z</time>
      </trkpt>
      <trkpt lat="47.16687" lon="6.18987">
        <ele>539</ele>
        <time>2022-08-10T08:09:18Z</time>
      </trkpt>
      <trkpt lat="47.16689" lon="6.18991">
        <ele>538.9</ele>
        <time>2022-08-10T08:09:19Z</time>
      </trkpt>
      <trkpt lat="47.16692" lon="6.18994">
        <ele>539.2</ele>
        <time>2022-08-10T08:09:20Z</time>
      </trkpt>
      <trkpt lat="47.16695" lon="6.18997">
        <ele>539.6</ele>
        <time>2022-08-10T08:09:21Z</time>
      </trkpt>
      <trkpt lat="47.16698" lon="6.19">
        <ele>540.4</ele>
        <time>2022-08-10T08:09:22Z</time>
      </trkpt>
      <trkpt lat="47.167" lon="6.19003">
        <ele>540.4</ele>
        <time>2022-08-10T08:09:23Z</time>
      </trkpt>
      <trkpt lat="47.16703" lon="6.19006">
        <ele>540.3</ele>
        <time>2022-08-10T08:09:24Z</time>
      </trkpt>
      <trkpt lat="47.16706" lon="6.1901">
        <ele>540.3</ele>
        <time>2022-08-10T08:09:25Z</time>
      </trkpt>
      <trkpt lat="47.16709" lon="6.19014">
        <ele>540.5</ele>
        <time>2022-08-10T08:09:26Z</time>
      </trkpt>
      <trkpt lat="47.16712" lon="6.19018">
        <ele>540.7</ele>
        <time>2022-08-10T08:09:27Z</time>
      </trkpt>
      <trkpt lat="47.16715" lon="6.19022">
        <ele>541.2</ele>
        <time>2022-08-10T08:09:28Z</time>
      </trkpt>
      <trkpt lat="47.16718" lon="6.19025">
        <ele>541.5</ele>
        <time>2022-08-10T08:09:29Z</time>
      </trkpt>
      <trkpt lat="47.16721" lon="6.19028">
        <ele>541.8</ele>
        <time>2022-08-10T08:09:30Z</time>
      </trkpt>
      <trkpt lat="47.16724" lon="6.19032">
        <ele>541.9</ele>
        <time>2022-08-10T08:09:31Z</time>
      </trkpt>
      <trkpt lat="47.16726" lon="6.19036">
        <ele>542</ele>
        <time>2022-08-10T08:09:32Z</time>
      </trkpt>
      <trkpt lat="47.16729" lon="6.1904">
        <ele>542.3</ele>
        <time>2022-08-10T08:09:33Z</time>
      </trkpt>
      <trkpt lat="47.16732" lon="6.19044">
        <ele>542.9</ele>
        <time>2022-08-10T08:09:34Z</time>
      </trkpt>
      <trkpt lat="47.16735" lon="6.19048">
        <ele>543.4</ele>
        <time>2022-08-10T08:09:35Z</time>
      </trkpt>
      <trkpt lat="47.16738" lon="6.19052">
        <ele>544.1</ele>
        <time>2022-08-10T08:09:36Z</time>
      </trkpt>
      <trkpt lat="47.16741" lon="6.19056">
        <ele>544.5</ele>
        <time>2022-08-10T08:09:37Z</time>
      </trkpt>
      <trkpt lat="47.16744" lon="6.19059">
        <ele>544.8</ele>
        <time>2022-08-10T08:09:38Z</time>
      </trkpt>
      <trkpt lat="47.16748" lon="6.19063">
        <ele>545.2</ele>
        <time>2022-08-10T08:09:39Z</time>
      </trkpt>
      <trkpt lat="47.16751" lon="6.19066">
        <ele>545.6</ele>
        <time>2022-08-10T08:09:40Z</time>
      </trkpt>
      <trkpt lat="47.16754" lon="6.1907">
        <ele>545.8</ele>
        <time>2022-08-10T08:09:41Z</time>
      </trkpt>
      <trkpt lat="47.16757" lon="6.19073">
        <ele>546.2</ele>
        <time>2022-08-10T08:09:42Z</time>
      </trkpt>
      <trkpt lat="47.16761" lon="6.19077">
        <ele>546.4</ele>
        <time>2022-08-10T08:09:43Z</time>
      </trkpt>
      <trkpt lat="47.16764" lon="6.1908">
        <ele>547</ele>
        <time>2022-08-10T08:09:44Z</time>
      </trkpt>
      <trkpt lat="47.16767" lon="6.19083">
        <ele>547.2</ele>
        <time>2022-08-10T08:09:45Z</time>
      </trkpt>
      <trkpt lat="47.1677" lon="6.19086">
        <ele>547.7</ele>
        <time>2022-08-10T08:09:46Z</time>
      </trkpt>
      <trkpt lat="47.16773" lon="6.19089">
        <ele>548.3</ele>
        <time>2022-08-10T08:09:47Z</time>
      </trkpt>
      <trkpt lat="47.16776" lon="6.19093">
        <ele>548.3</ele>
        <time>2022-08-10T08:09:48Z</time>
      </trkpt>
      <trkpt lat="47.1678" lon="6.19098">
        <ele>548.2</ele>
        <time>2022-08-10T08:09:49Z</time>
      </trkpt>
      <trkpt lat="47.16784" lon="6.19103">
        <ele>548.2</ele>
        <time>2022-08-10T08:09:50Z</time>
      </trkpt>
      <trkpt lat="47.16788" lon="6.19107">
        <ele>548.3</ele>
        <time>2022-08-10T08:09:51Z</time>
      </trkpt>
      <trkpt lat="47.16791" lon="6.19112">
        <ele>548.4</ele>
        <time>2022-08-10T08:09:52Z</time>
      </trkpt>
      <trkpt lat="47.16795" lon="6.19117">
        <ele>548.3</ele>
        <time>2022-08-10T08:09:53Z</time>
      </trkpt>
      <trkpt lat="47.168" lon="6.19121">
        <ele>548.7</ele>
        <time>2022-08-10T08:09:54Z</time>
      </trkpt>
      <trkpt lat="47.16803" lon="6.19125">
        <ele>548.8</ele>
        <time>2022-08-10T08:09:55Z</time>
      </trkpt>
      <trkpt lat="47.16807" lon="6.19128">
        <ele>549</ele>
        <time>2022-08-10T08:09:56Z</time>
      </trkpt>
      <trkpt lat="47.16811" lon="6.19131">
        <ele>549.1</ele>
        <time>2022-08-10T08:09:57Z</time>
      </trkpt>
      <trkpt lat="47.16814" lon="6.19134">
        <ele>549.5</ele>
        <time>2022-08-10T08:09:58Z</time>
      </trkpt>
      <trkpt lat="47.16818" lon="6.19137">
        <ele>550.1</ele>
        <time>2022-08-10T08:09:59Z</time>
      </trkpt>
      <trkpt lat="47.16821" lon="6.1914">
        <ele>550.6</ele>
        <time>2022-08-10T08:10:00Z</time>
      </trkpt>
      <trkpt lat="47.16825" lon="6.19143">
        <ele>550.9</ele>
        <time>2022-08-10T08:10:01Z</time>
      </trkpt>
      <trkpt lat="47.16829" lon="6.19146">
        <ele>551.4</ele>
        <time>2022-08-10T08:10:02Z</time>
      </trkpt>
      <trkpt lat="47.16833" lon="6.19149">
        <ele>551.6</ele>
        <time>2022-08-10T08:10:03Z</time>
      </trkpt>
      <trkpt lat="47.16836" lon="6.19153">
        <ele>551.9</ele>
        <time>2022-08-10T08:10:04Z</time>
      </trkpt>
      <trkpt lat="47.1684" lon="6.19156">
        <ele>552</ele>
        <time>2022-08-10T08:10:05Z</time>
      </trkpt>
      <trkpt lat="47.16843" lon="6.19159">
        <ele>552.1</ele>
        <time>2022-08-10T08:10:06Z</time>
      </trkpt>
      <trkpt lat="47.16847" lon="6.19163">
        <ele>552.2</ele>
        <time>2022-08-10T08:10:07Z</time>
      </trkpt>
      <trkpt lat="47.1685" lon="6.19165">
        <ele>552.5</ele>
        <time>2022-08-10T08:10:08Z</time>
      </trkpt>
      <trkpt lat="47.16853" lon="6.19168">
        <ele>552.9</ele>
        <time>2022-08-10T08:10:09Z</time>
      </trkpt>
      <trkpt lat="47.16857" lon="6.1917">
        <ele>553</ele>
        <time>2022-08-10T08:10:10Z</time>
      </trkpt>
      <trkpt lat="47.1686" lon="6.19173">
        <ele>553.5</ele>
        <time>2022-08-10T08:10:11Z</time>
      </trkpt>
      <trkpt lat="47.16863" lon="6.19175">
        <ele>553.9</ele>
        <time>2022-08-10T08:10:12Z</time>
      </trkpt>
      <trkpt lat="47.16866" lon="6.19177">
        <ele>554.7</ele>
        <time>2022-08-10T08:10:13Z</time>
      </trkpt>
      <trkpt lat="47.16868" lon="6.1918">
        <ele>555.2</ele>
        <time>2022-08-10T08:10:14Z</time>
      </trkpt>
      <trkpt lat="47.16871" lon="6.19182">
        <ele>555.4</ele>
        <time>2022-08-10T08:10:15Z</time>
      </trkpt>
      <trkpt lat="47.16873" lon="6.19183">
        <ele>555.6</ele>
        <time>2022-08-10T08:10:16Z</time>
      </trkpt>
      <trkpt lat="47.16875" lon="6.19185">
        <ele>555.3</ele>
        <time>2022-08-10T08:10:17Z</time>
      </trkpt>
      <trkpt lat="47.16877" lon="6.19186">
        <ele>555.4</ele>
        <time>2022-08-10T08:10:18Z</time>
      </trkpt>
      <trkpt lat="47.16879" lon="6.19188">
        <ele>555.5</ele>
        <time>2022-08-10T08:10:19Z</time>
      </trkpt>
      <trkpt lat="47.16882" lon="6.1919">
        <ele>555.8</ele>
        <time>2022-08-10T08:10:20Z</time>
      </trkpt>
      <trkpt lat="47.16884" lon="6.19192">
        <ele>556.2</ele>
        <time>2022-08-10T08:10:21Z</time>
      </trkpt>
      <trkpt lat="47.16886" lon="6.19194">
        <ele>556.7</ele>
        <time>2022-08-10T08:10:22Z</time>
      </trkpt>
      <trkpt lat="47.16889" lon="6.19197">
        <ele>556.9</ele>
        <time>2022-08-10T08:10:23Z</time>
      </trkpt>
      <trkpt lat="47.16892" lon="6.192">
        <ele>557</ele>
        <time>2022-08-10T08:10:24Z</time>
      </trkpt>
      <trkpt lat="47.16895" lon="6.19203">
        <ele>557.1</ele>
        <time>2022-08-10T08:10:25Z</time>
      </trkpt>
      <trkpt lat="47.16899" lon="6.19206">
        <ele>557</ele>
        <time>2022-08-10T08:10:26Z</time>
      </trkpt>
      <trkpt lat="47.16902" lon="6.19209">
        <ele>557.2</ele>
        <time>2022-08-10T08:10:27Z</time>
      </trkpt>
      <trkpt lat="47.16905" lon="6.19213">
        <ele>557.3</ele>
        <time>2022-08-10T08:10:28Z</time>
      </trkpt>
      <trkpt lat="47.16908" lon="6.19216">
        <ele>557.6</ele>
        <time>2022-08-10T08:10:29Z</time>
      </trkpt>
      <trkpt lat="47.16912" lon="6.19219">
        <ele>558</ele>
        <time>2022-08-10T08:10:30Z</time>
      </trkpt>
      <trkpt lat="47.16915" lon="6.19222">
        <ele>557.9</ele>
        <time>2022-08-10T08:10:31Z</time>
      </trkpt>
      <trkpt lat="47.16919" lon="6.19226">
        <ele>557.7</ele>
        <time>2022-08-10T08:10:32Z</time>
      </trkpt>
      <trkpt lat="47.16922" lon="6.1923">
        <ele>557.3</ele>
        <time>2022-08-10T08:10:33Z</time>
      </trkpt>
      <trkpt lat="47.16926" lon="6.19233">
        <ele>557.2</ele>
        <time>2022-08-10T08:10:34Z</time>
      </trkpt>
      <trkpt lat="47.16929" lon="6.19236">
        <ele>557.3</ele>
        <time>2022-08-10T08:10:35Z</time>
      </trkpt>
      <trkpt lat="47.16933" lon="6.19239">
        <ele>557.3</ele>
        <time>2022-08-10T08:10:36Z</time>
      </trkpt>
      <trkpt lat="47.16937" lon="6.19242">
        <ele>557.5</ele>
        <time>2022-08-10T08:10:37Z</time>
      </trkpt>
      <trkpt lat="47.16941" lon="6.19245">
        <ele>557.9</ele>
        <time>2022-08-10T08:10:38Z</time>
      </trkpt>
      <trkpt lat="47.16944" lon="6.19248">
        <ele>557.9</ele>
        <time>2022-08-10T08:10:39Z</time>
      </trkpt>
      <trkpt lat="47.16948" lon="6.1925">
        <ele>557.6</ele>
        <time>2022-08-10T08:10:40Z</time>
      </trkpt>
      <trkpt lat="47.16951" lon="6.19253">
        <ele>557.9</ele>
        <time>2022-08-10T08:10:41Z</time>
      </trkpt>
      <trkpt lat="47.16955" lon="6.19256">
        <ele>558.1</ele>
        <time>2022-08-10T08:10:42Z</time>
      </trkpt>
      <trkpt lat="47.16958" lon="6.1926">
        <ele>558.3</ele>
        <time>2022-08-10T08:10:43Z</time>
      </trkpt>
      <trkpt lat="47.16961" lon="6.19263">
        <ele>558.7</ele>
        <time>2022-08-10T08:10:44Z</time>
      </trkpt>
      <trkpt lat="47.16965" lon="6.19266">
        <ele>558.8</ele>
        <time>2022-08-10T08:10:45Z</time>
      </trkpt>
      <trkpt lat="47.16969" lon="6.19269">
        <ele>558.9</ele>
        <time>2022-08-10T08:10:46Z</time>
      </trkpt>
      <trkpt lat="47.16972" lon="6.19273">
        <ele>558.8</ele>
        <time>2022-08-10T08:10:47Z</time>
      </trkpt>
      <trkpt lat="47.16976" lon="6.19276">
        <ele>558.6</ele>
        <time>2022-08-10T08:10:48Z</time>
      </trkpt>
      <trkpt lat="47.16979" lon="6.1928">
        <ele>558.5</ele>
        <time>2022-08-10T08:10:49Z</time>
      </trkpt>
      <trkpt lat="47.16983" lon="6.19284">
        <ele>558.2</ele>
        <time>2022-08-10T08:10:50Z</time>
      </trkpt>
      <trkpt lat="47.16986" lon="6.19289">
        <ele>558.3</ele>
        <time>2022-08-10T08:10:51Z</time>
      </trkpt>
      <trkpt lat="47.16989" lon="6.19293">
        <ele>558.2</ele>
        <time>2022-08-10T08:10:52Z</time>
      </trkpt>
      <trkpt lat="47.16992" lon="6.19297">
        <ele>558.2</ele>
        <time>2022-08-10T08:10:53Z</time>
      </trkpt>
      <trkpt lat="47.16995" lon="6.193">
        <ele>557.9</ele>
        <time>2022-08-10T08:10:54Z</time>
      </trkpt>
      <trkpt lat="47.16998" lon="6.19304">
        <ele>557.6</ele>
        <time>2022-08-10T08:10:55Z</time>
      </trkpt>
      <trkpt lat="47.17001" lon="6.19308">
        <ele>558.2</ele>
        <time>2022-08-10T08:10:56Z</time>
      </trkpt>
      <trkpt lat="47.17005" lon="6.19312">
        <ele>558.5</ele>
        <time>2022-08-10T08:10:57Z</time>
      </trkpt>
      <trkpt lat="47.17008" lon="6.19316">
        <ele>558.7</ele>
        <time>2022-08-10T08:10:58Z</time>
      </trkpt>
      <trkpt lat="47.17011" lon="6.19319">
        <ele>559.1</ele>
        <time>2022-08-10T08:10:59Z</time>
      </trkpt>
      <trkpt lat="47.17014" lon="6.19324">
        <ele>559.5</ele>
        <time>2022-08-10T08:11:00Z</time>
      </trkpt>
      <trkpt lat="47.17017" lon="6.19329">
        <ele>559.8</ele>
        <time>2022-08-10T08:11:01Z</time>
      </trkpt>
      <trkpt lat="47.1702" lon="6.19333">
        <ele>560</ele>
        <time>2022-08-10T08:11:02Z</time>
      </trkpt>
      <trkpt lat="47.17023" lon="6.19339">
        <ele>560.1</ele>
        <time>2022-08-10T08:11:03Z</time>
      </trkpt>
      <trkpt lat="47.17026" lon="6.19344">
        <ele>559.8</ele>
        <time>2022-08-10T08:11:04Z</time>
      </trkpt>
      <trkpt lat="47.17029" lon="6.19349">
        <ele>559.5</ele>
        <time>2022-08-10T08:11:05Z</time>
      </trkpt>
      <trkpt lat="47.17032" lon="6.19354">
        <ele>559.1</ele>
        <time>2022-08-10T08:11:06Z</time>
      </trkpt>
      <trkpt lat="47.17034" lon="6.19359">
        <ele>558.9</ele>
        <time>2022-08-10T08:11:07Z</time>
      </trkpt>
      <trkpt lat="47.17037" lon="6.19364">
        <ele>558.8</ele>
        <time>2022-08-10T08:11:08Z</time>
      </trkpt>
      <trkpt lat="47.1704" lon="6.19369">
        <ele>558.8</ele>
        <time>2022-08-10T08:11:09Z</time>
      </trkpt>
      <trkpt lat="47.17043" lon="6.19374">
        <ele>558.8</ele>
        <time>2022-08-10T08:11:10Z</time>
      </trkpt>
      <trkpt lat="47.17046" lon="6.19379">
        <ele>558.7</ele>
        <time>2022-08-10T08:11:11Z</time>
      </trkpt>
      <trkpt lat="47.17048" lon="6.19384">
        <ele>558.6</ele>
        <time>2022-08-10T08:11:12Z</time>
      </trkpt>
      <trkpt lat="47.17051" lon="6.19388">
        <ele>558.3</ele>
        <time>2022-08-10T08:11:13Z</time>
      </trkpt>
      <trkpt lat="47.17053" lon="6.19394">
        <ele>558.1</ele>
        <time>2022-08-10T08:11:14Z</time>
      </trkpt>
      <trkpt lat="47.17055" lon="6.19399">
        <ele>557.8</ele>
        <time>2022-08-10T08:11:15Z</time>
      </trkpt>
      <trkpt lat="47.17057" lon="6.19404">
        <ele>557.5</ele>
        <time>2022-08-10T08:11:16Z</time>
      </trkpt>
      <trkpt lat="47.1706" lon="6.19409">
        <ele>557.4</ele>
        <time>2022-08-10T08:11:17Z</time>
      </trkpt>
      <trkpt lat="47.17063" lon="6.19414">
        <ele>557.2</ele>
        <time>2022-08-10T08:11:18Z</time>
      </trkpt>
      <trkpt lat="47.17065" lon="6.19419">
        <ele>557.2</ele>
        <time>2022-08-10T08:11:19Z</time>
      </trkpt>
      <trkpt lat="47.17067" lon="6.19424">
        <ele>557</ele>
        <time>2022-08-10T08:11:20Z</time>
      </trkpt>
      <trkpt lat="47.17069" lon="6.1943">
        <ele>556.9</ele>
        <time>2022-08-10T08:11:21Z</time>
      </trkpt>
      <trkpt lat="47.17071" lon="6.19435">
        <ele>556.3</ele>
        <time>2022-08-10T08:11:22Z</time>
      </trkpt>
      <trkpt lat="47.17073" lon="6.1944">
        <ele>555.9</ele>
        <time>2022-08-10T08:11:23Z</time>
      </trkpt>
      <trkpt lat="47.17075" lon="6.19446">
        <ele>555.4</ele>
        <time>2022-08-10T08:11:24Z</time>
      </trkpt>
      <trkpt lat="47.17077" lon="6.19451">
        <ele>554.8</ele>
        <time>2022-08-10T08:11:25Z</time>
      </trkpt>
      <trkpt lat="47.17078" lon="6.19457">
        <ele>554.5</ele>
        <time>2022-08-10T08:11:26Z</time>
      </trkpt>
      <trkpt lat="47.1708" lon="6.19463">
        <ele>553.8</ele>
        <time>2022-08-10T08:11:27Z</time>
      </trkpt>
      <trkpt lat="47.17083" lon="6.19468">
        <ele>553</ele>
        <time>2022-08-10T08:11:28Z</time>
      </trkpt>
      <trkpt lat="47.17086" lon="6.19474">
        <ele>552.2</ele>
        <time>2022-08-10T08:11:29Z</time>
      </trkpt>
      <trkpt lat="47.17089" lon="6.19478">
        <ele>552</ele>
        <time>2022-08-10T08:11:30Z</time>
      </trkpt>
      <trkpt lat="47.17092" lon="6.19483">
        <ele>551.4</ele>
        <time>2022-08-10T08:11:31Z</time>
      </trkpt>
      <trkpt lat="47.17095" lon="6.19488">
        <ele>550.9</ele>
        <time>2022-08-10T08:11:32Z</time>
      </trkpt>
      <trkpt lat="47.17097" lon="6.19493">
        <ele>550.9</ele>
        <time>2022-08-10T08:11:33Z</time>
      </trkpt>
      <trkpt lat="47.17099" lon="6.19499">
        <ele>550.4</ele>
        <time>2022-08-10T08:11:34Z</time>
      </trkpt>
      <trkpt lat="47.17101" lon="6.19504">
        <ele>550.3</ele>
        <time>2022-08-10T08:11:35Z</time>
      </trkpt>
      <trkpt lat="47.17103" lon="6.1951">
        <ele>549.6</ele>
        <time>2022-08-10T08:11:36Z</time>
      </trkpt>
      <trkpt lat="47.17105" lon="6.19516">
        <ele>549.2</ele>
        <time>2022-08-10T08:11:37Z</time>
      </trkpt>
      <trkpt lat="47.17107" lon="6.19521">
        <ele>548.8</ele>
        <time>2022-08-10T08:11:38Z</time>
      </trkpt>
      <trkpt lat="47.17109" lon="6.19526">
        <ele>548.5</ele>
        <time>2022-08-10T08:11:39Z</time>
      </trkpt>
      <trkpt lat="47.17112" lon="6.19531">
        <ele>548.5</ele>
        <time>2022-08-10T08:11:40Z</time>
      </trkpt>
      <trkpt lat="47.17114" lon="6.19536">
        <ele>548.9</ele>
        <time>2022-08-10T08:11:41Z</time>
      </trkpt>
      <trkpt lat="47.17116" lon="6.19542">
        <ele>549.6</ele>
        <time>2022-08-10T08:11:42Z</time>
      </trkpt>
      <trkpt lat="47.17118" lon="6.19547">
        <ele>549.9</ele>
        <time>2022-08-10T08:11:43Z</time>
      </trkpt>
      <trkpt lat="47.1712" lon="6.19553">
        <ele>550</ele>
        <time>2022-08-10T08:11:44Z</time>
      </trkpt>
      <trkpt lat="47.17122" lon="6.19558">
        <ele>550.1</ele>
        <time>2022-08-10T08:11:45Z</time>
      </trkpt>
      <trkpt lat="47.17124" lon="6.19563">
        <ele>550</ele>
        <time>2022-08-10T08:11:46Z</time>
      </trkpt>
      <trkpt lat="47.17125" lon="6.19568">
        <ele>550</ele>
        <time>2022-08-10T08:11:47Z</time>
      </trkpt>
      <trkpt lat="47.17127" lon="6.19573">
        <ele>550.1</ele>
        <time>2022-08-10T08:11:48Z</time>
      </trkpt>
      <trkpt lat="47.17129" lon="6.19578">
        <ele>550.4</ele>
        <time>2022-08-10T08:11:49Z</time>
      </trkpt>
      <trkpt lat="47.17131" lon="6.19583">
        <ele>550.4</ele>
        <time>2022-08-10T08:11:50Z</time>
      </trkpt>
      <trkpt lat="47.17133" lon="6.19588">
        <ele>550.7</ele>
        <time>2022-08-10T08:11:51Z</time>
      </trkpt>
      <trkpt lat="47.17134" lon="6.19594">
        <ele>550.8</ele>
        <time>2022-08-10T08:11:52Z</time>
      </trkpt>
      <trkpt lat="47.17136" lon="6.196">
        <ele>550.9</ele>
        <time>2022-08-10T08:11:53Z</time>
      </trkpt>
      <trkpt lat="47.17138" lon="6.19606">
        <ele>551.2</ele>
        <time>2022-08-10T08:11:54Z</time>
      </trkpt>
      <trkpt lat="47.17139" lon="6.19612">
        <ele>551</ele>
        <time>2022-08-10T08:11:55Z</time>
      </trkpt>
      <trkpt lat="47.17141" lon="6.19617">
        <ele>550.6</ele>
        <time>2022-08-10T08:11:56Z</time>
      </trkpt>
      <trkpt lat="47.17144" lon="6.19622">
        <ele>550.4</ele>
        <time>2022-08-10T08:11:57Z</time>
      </trkpt>
      <trkpt lat="47.17147" lon="6.19626">
        <ele>550.6</ele>
        <time>2022-08-10T08:11:58Z</time>
      </trkpt>
      <trkpt lat="47.17149" lon="6.19631">
        <ele>550.5</ele>
        <time>2022-08-10T08:11:59Z</time>
      </trkpt>
      <trkpt lat="47.17151" lon="6.19636">
        <ele>550.8</ele>
        <time>2022-08-10T08:12:00Z</time>
      </trkpt>
      <trkpt lat="47.17154" lon="6.19641">
        <ele>551.2</ele>
        <time>2022-08-10T08:12:01Z</time>
      </trkpt>
      <trkpt lat="47.17156" lon="6.19646">
        <ele>551.4</ele>
        <time>2022-08-10T08:12:02Z</time>
      </trkpt>
      <trkpt lat="47.17158" lon="6.19652">
        <ele>551.2</ele>
        <time>2022-08-10T08:12:03Z</time>
      </trkpt>
      <trkpt lat="47.1716" lon="6.19657">
        <ele>551.2</ele>
        <time>2022-08-10T08:12:04Z</time>
      </trkpt>
      <trkpt lat="47.17163" lon="6.19663">
        <ele>551.1</ele>
        <time>2022-08-10T08:12:05Z</time>
      </trkpt>
      <trkpt lat="47.17165" lon="6.19668">
        <ele>551.4</ele>
        <time>2022-08-10T08:12:06Z</time>
      </trkpt>
      <trkpt lat="47.17168" lon="6.19673">
        <ele>552</ele>
        <time>2022-08-10T08:12:07Z</time>
      </trkpt>
      <trkpt lat="47.1717" lon="6.19678">
        <ele>552.3</ele>
        <time>2022-08-10T08:12:08Z</time>
      </trkpt>
      <trkpt lat="47.17172" lon="6.19683">
        <ele>552.8</ele>
        <time>2022-08-10T08:12:09Z</time>
      </trkpt>
      <trkpt lat="47.17174" lon="6.19689">
        <ele>553.1</ele>
        <time>2022-08-10T08:12:10Z</time>
      </trkpt>
      <trkpt lat="47.17176" lon="6.19694">
        <ele>553.5</ele>
        <time>2022-08-10T08:12:11Z</time>
      </trkpt>
      <trkpt lat="47.17179" lon="6.19699">
        <ele>553.7</ele>
        <time>2022-08-10T08:12:12Z</time>
      </trkpt>
      <trkpt lat="47.17182" lon="6.19703">
        <ele>554.2</ele>
        <time>2022-08-10T08:12:13Z</time>
      </trkpt>
      <trkpt lat="47.17185" lon="6.19708">
        <ele>554.6</ele>
        <time>2022-08-10T08:12:14Z</time>
      </trkpt>
      <trkpt lat="47.17187" lon="6.19713">
        <ele>554.8</ele>
        <time>2022-08-10T08:12:15Z</time>
      </trkpt>
      <trkpt lat="47.17189" lon="6.19718">
        <ele>554.8</ele>
        <time>2022-08-10T08:12:16Z</time>
      </trkpt>
      <trkpt lat="47.1719" lon="6.19724">
        <ele>555</ele>
        <time>2022-08-10T08:12:17Z</time>
      </trkpt>
      <trkpt lat="47.17192" lon="6.1973">
        <ele>555.1</ele>
        <time>2022-08-10T08:12:18Z</time>
      </trkpt>
      <trkpt lat="47.17194" lon="6.19735">
        <ele>555.3</ele>
        <time>2022-08-10T08:12:19Z</time>
      </trkpt>
      <trkpt lat="47.17195" lon="6.19741">
        <ele>555.8</ele>
        <time>2022-08-10T08:12:20Z</time>
      </trkpt>
      <trkpt lat="47.17197" lon="6.19746">
        <ele>556.3</ele>
        <time>2022-08-10T08:12:21Z</time>
      </trkpt>
      <trkpt lat="47.17199" lon="6.1975">
        <ele>556.7</ele>
        <time>2022-08-10T08:12:22Z</time>
      </trkpt>
      <trkpt lat="47.17201" lon="6.19755">
        <ele>556.4</ele>
        <time>2022-08-10T08:12:23Z</time>
      </trkpt>
      <trkpt lat="47.17203" lon="6.1976">
        <ele>556.4</ele>
        <time>2022-08-10T08:12:24Z</time>
      </trkpt>
      <trkpt lat="47.17205" lon="6.19766">
        <ele>556.3</ele>
        <time>2022-08-10T08:12:25Z</time>
      </trkpt>
      <trkpt lat="47.17207" lon="6.19771">
        <ele>556.8</ele>
        <time>2022-08-10T08:12:26Z</time>
      </trkpt>
      <trkpt lat="47.17209" lon="6.19776">
        <ele>557.4</ele>
        <time>2022-08-10T08:12:27Z</time>
      </trkpt>
      <trkpt lat="47.17211" lon="6.1978">
        <ele>558.5</ele>
        <time>2022-08-10T08:12:28Z</time>
      </trkpt>
      <trkpt lat="47.17213" lon="6.19785">
        <ele>559.5</ele>
        <time>2022-08-10T08:12:29Z</time>
      </trkpt>
      <trkpt lat="47.17215" lon="6.19788">
        <ele>560.5</ele>
        <time>2022-08-10T08:12:30Z</time>
      </trkpt>
      <trkpt lat="47.17217" lon="6.19792">
        <ele>561.2</ele>
        <time>2022-08-10T08:12:31Z</time>
      </trkpt>
      <trkpt lat="47.17218" lon="6.19797">
        <ele>562.2</ele>
        <time>2022-08-10T08:12:32Z</time>
      </trkpt>
      <trkpt lat="47.1722" lon="6.19802">
        <ele>562.8</ele>
        <time>2022-08-10T08:12:33Z</time>
      </trkpt>
      <trkpt lat="47.17222" lon="6.19806">
        <ele>564.3</ele>
        <time>2022-08-10T08:12:34Z</time>
      </trkpt>
      <trkpt lat="47.17223" lon="6.19812">
        <ele>565</ele>
        <time>2022-08-10T08:12:35Z</time>
      </trkpt>
      <trkpt lat="47.17225" lon="6.19818">
        <ele>565.3</ele>
        <time>2022-08-10T08:12:36Z</time>
      </trkpt>
      <trkpt lat="47.17227" lon="6.19824">
        <ele>565.5</ele>
        <time>2022-08-10T08:12:37Z</time>
      </trkpt>
      <trkpt lat="47.17228" lon="6.1983">
        <ele>565.7</ele>
        <time>2022-08-10T08:12:38Z</time>
      </trkpt>
      <trkpt lat="47.17231" lon="6.19836">
        <ele>565.4</ele>
        <time>2022-08-10T08:12:39Z</time>
      </trkpt>
      <trkpt lat="47.17233" lon="6.19842">
        <ele>565.4</ele>
        <time>2022-08-10T08:12:40Z</time>
      </trkpt>
      <trkpt lat="47.17235" lon="6.19848">
        <ele>564.9</ele>
        <time>2022-08-10T08:12:41Z</time>
      </trkpt>
      <trkpt lat="47.17237" lon="6.19854">
        <ele>564.7</ele>
        <time>2022-08-10T08:12:42Z</time>
      </trkpt>
      <trkpt lat="47.17238" lon="6.19859">
        <ele>564.5</ele>
        <time>2022-08-10T08:12:43Z</time>
      </trkpt>
      <trkpt lat="47.1724" lon="6.19865">
        <ele>564.3</ele>
        <time>2022-08-10T08:12:44Z</time>
      </trkpt>
      <trkpt lat="47.17241" lon="6.19871">
        <ele>563.9</ele>
        <time>2022-08-10T08:12:45Z</time>
      </trkpt>
      <trkpt lat="47.17242" lon="6.19876">
        <ele>563.7</ele>
        <time>2022-08-10T08:12:46Z</time>
      </trkpt>
      <trkpt lat="47.17243" lon="6.19882">
        <ele>563.6</ele>
        <time>2022-08-10T08:12:47Z</time>
      </trkpt>
      <trkpt lat="47.17244" lon="6.19888">
        <ele>563.3</ele>
        <time>2022-08-10T08:12:48Z</time>
      </trkpt>
      <trkpt lat="47.17245" lon="6.19893">
        <ele>563.2</ele>
        <time>2022-08-10T08:12:49Z</time>
      </trkpt>
      <trkpt lat="47.17246" lon="6.19899">
        <ele>563</ele>
        <time>2022-08-10T08:12:50Z</time>
      </trkpt>
      <trkpt lat="47.17247" lon="6.19904">
        <ele>562.9</ele>
        <time>2022-08-10T08:12:51Z</time>
      </trkpt>
      <trkpt lat="47.17248" lon="6.19908">
        <ele>562.6</ele>
        <time>2022-08-10T08:12:52Z</time>
      </trkpt>
      <trkpt lat="47.17249" lon="6.19913">
        <ele>562.2</ele>
        <time>2022-08-10T08:12:53Z</time>
      </trkpt>
      <trkpt lat="47.17249" lon="6.19918">
        <ele>561.8</ele>
        <time>2022-08-10T08:12:54Z</time>
      </trkpt>
      <trkpt lat="47.1725" lon="6.19923">
        <ele>561.7</ele>
        <time>2022-08-10T08:12:55Z</time>
      </trkpt>
      <trkpt lat="47.17251" lon="6.19928">
        <ele>561.5</ele>
        <time>2022-08-10T08:12:56Z</time>
      </trkpt>
      <trkpt lat="47.17251" lon="6.19933">
        <ele>561.1</ele>
        <time>2022-08-10T08:12:57Z</time>
      </trkpt>
      <trkpt lat="47.17252" lon="6.19938">
        <ele>561.1</ele>
        <time>2022-08-10T08:12:58Z</time>
      </trkpt>
      <trkpt lat="47.17253" lon="6.19942">
        <ele>561.3</ele>
        <time>2022-08-10T08:12:59Z</time>
      </trkpt>
      <trkpt lat="47.17253" lon="6.19946">
        <ele>561.3</ele>
        <time>2022-08-10T08:13:00Z</time>
      </trkpt>
      <trkpt lat="47.17254" lon="6.19951">
        <ele>561.5</ele>
        <time>2022-08-10T08:13:01Z</time>
      </trkpt>
      <trkpt lat="47.17254" lon="6.19957">
        <ele>561.7</ele>
        <time>2022-08-10T08:13:02Z</time>
      </trkpt>
      <trkpt lat="47.17254" lon="6.19962">
        <ele>561.8</ele>
        <time>2022-08-10T08:13:03Z</time>
      </trkpt>
      <trkpt lat="47.17255" lon="6.19968">
        <ele>562.1</ele>
        <time>2022-08-10T08:13:04Z</time>
      </trkpt>
      <trkpt lat="47.17255" lon="6.19973">
        <ele>562.2</ele>
        <time>2022-08-10T08:13:05Z</time>
      </trkpt>
      <trkpt lat="47.17256" lon="6.19978">
        <ele>562.4</ele>
        <time>2022-08-10T08:13:06Z</time>
      </trkpt>
      <trkpt lat="47.17256" lon="6.19983">
        <ele>562.8</ele>
        <time>2022-08-10T08:13:07Z</time>
      </trkpt>
      <trkpt lat="47.17256" lon="6.19988">
        <ele>562.9</ele>
        <time>2022-08-10T08:13:08Z</time>
      </trkpt>
      <trkpt lat="47.17256" lon="6.19994">
        <ele>563.5</ele>
        <time>2022-08-10T08:13:09Z</time>
      </trkpt>
      <trkpt lat="47.17256" lon="6.2">
        <ele>563.7</ele>
        <time>2022-08-10T08:13:10Z</time>
      </trkpt>
      <trkpt lat="47.17256" lon="6.20005">
        <ele>563.8</ele>
        <time>2022-08-10T08:13:11Z</time>
      </trkpt>
      <trkpt lat="47.17256" lon="6.20011">
        <ele>563.8</ele>
        <time>2022-08-10T08:13:12Z</time>
      </trkpt>
      <trkpt lat="47.17256" lon="6.20016">
        <ele>563.9</ele>
        <time>2022-08-10T08:13:13Z</time>
      </trkpt>
      <trkpt lat="47.17255" lon="6.20022">
        <ele>563.9</ele>
        <time>2022-08-10T08:13:14Z</time>
      </trkpt>
      <trkpt lat="47.17255" lon="6.20028">
        <ele>563.1</ele>
        <time>2022-08-10T08:13:15Z</time>
      </trkpt>
      <trkpt lat="47.17254" lon="6.20034">
        <ele>562.3</ele>
        <time>2022-08-10T08:13:16Z</time>
      </trkpt>
      <trkpt lat="47.17253" lon="6.20039">
        <ele>561.5</ele>
        <time>2022-08-10T08:13:17Z</time>
      </trkpt>
      <trkpt lat="47.17251" lon="6.20045">
        <ele>561.3</ele>
        <time>2022-08-10T08:13:18Z</time>
      </trkpt>
      <trkpt lat="47.1725" lon="6.2005">
        <ele>561.5</ele>
        <time>2022-08-10T08:13:19Z</time>
      </trkpt>
      <trkpt lat="47.17249" lon="6.20056">
        <ele>561.7</ele>
        <time>2022-08-10T08:13:20Z</time>
      </trkpt>
      <trkpt lat="47.17248" lon="6.20061">
        <ele>562.2</ele>
        <time>2022-08-10T08:13:21Z</time>
      </trkpt>
      <trkpt lat="47.17247" lon="6.20065">
        <ele>562.5</ele>
        <time>2022-08-10T08:13:22Z</time>
      </trkpt>
      <trkpt lat="47.17246" lon="6.20069">
        <ele>562.8</ele>
        <time>2022-08-10T08:13:23Z</time>
      </trkpt>
      <trkpt lat="47.17245" lon="6.20074">
        <ele>563.7</ele>
        <time>2022-08-10T08:13:24Z</time>
      </trkpt>
      <trkpt lat="47.17244" lon="6.20079">
        <ele>564.6</ele>
        <time>2022-08-10T08:13:25Z</time>
      </trkpt>
      <trkpt lat="47.17244" lon="6.20087">
        <ele>564.2</ele>
        <time>2022-08-10T08:13:26Z</time>
      </trkpt>
      <trkpt lat="47.17243" lon="6.20093">
        <ele>564.8</ele>
        <time>2022-08-10T08:13:27Z</time>
      </trkpt>
      <trkpt lat="47.17242" lon="6.20101">
        <ele>565</ele>
        <time>2022-08-10T08:13:28Z</time>
      </trkpt>
      <trkpt lat="47.17241" lon="6.20106">
        <ele>566.5</ele>
        <time>2022-08-10T08:13:29Z</time>
      </trkpt>
      <trkpt lat="47.17239" lon="6.20112">
        <ele>567.1</ele>
        <time>2022-08-10T08:13:30Z</time>
      </trkpt>
      <trkpt lat="47.17237" lon="6.20118">
        <ele>568.2</ele>
        <time>2022-08-10T08:13:31Z</time>
      </trkpt>
      <trkpt lat="47.17236" lon="6.20125">
        <ele>569.4</ele>
        <time>2022-08-10T08:13:32Z</time>
      </trkpt>
      <trkpt lat="47.17234" lon="6.20131">
        <ele>570.7</ele>
        <time>2022-08-10T08:13:33Z</time>
      </trkpt>
      <trkpt lat="47.17233" lon="6.20137">
        <ele>571.9</ele>
        <time>2022-08-10T08:13:34Z</time>
      </trkpt>
      <trkpt lat="47.17233" lon="6.20145">
        <ele>573.2</ele>
        <time>2022-08-10T08:13:35Z</time>
      </trkpt>
      <trkpt lat="47.17232" lon="6.20154">
        <ele>573.2</ele>
        <time>2022-08-10T08:13:36Z</time>
      </trkpt>
      <trkpt lat="47.17232" lon="6.20161">
        <ele>574</ele>
        <time>2022-08-10T08:13:37Z</time>
      </trkpt>
      <trkpt lat="47.1723" lon="6.20168">
        <ele>574.6</ele>
        <time>2022-08-10T08:13:38Z</time>
      </trkpt>
      <trkpt lat="47.17229" lon="6.20174">
        <ele>575</ele>
        <time>2022-08-10T08:13:39Z</time>
      </trkpt>
      <trkpt lat="47.17229" lon="6.20181">
        <ele>575.5</ele>
        <time>2022-08-10T08:13:40Z</time>
      </trkpt>
      <trkpt lat="47.17228" lon="6.20187">
        <ele>576.4</ele>
        <time>2022-08-10T08:13:41Z</time>
      </trkpt>
      <trkpt lat="47.17228" lon="6.20194">
        <ele>576.8</ele>
        <time>2022-08-10T08:13:42Z</time>
      </trkpt>
      <trkpt lat="47.17227" lon="6.202">
        <ele>577.5</ele>
        <time>2022-08-10T08:13:43Z</time>
      </trkpt>
      <trkpt lat="47.17226" lon="6.20205">
        <ele>578</ele>
        <time>2022-08-10T08:13:44Z</time>
      </trkpt>
      <trkpt lat="47.17225" lon="6.20211">
        <ele>578.5</ele>
        <time>2022-08-10T08:13:45Z</time>
      </trkpt>
      <trkpt lat="47.17225" lon="6.20215">
        <ele>579.1</ele>
        <time>2022-08-10T08:13:46Z</time>
      </trkpt>
      <trkpt lat="47.17225" lon="6.2022">
        <ele>579.4</ele>
        <time>2022-08-10T08:13:47Z</time>
      </trkpt>
      <trkpt lat="47.17224" lon="6.20226">
        <ele>580</ele>
        <time>2022-08-10T08:13:48Z</time>
      </trkpt>
      <trkpt lat="47.17224" lon="6.20232">
        <ele>580.3</ele>
        <time>2022-08-10T08:13:49Z</time>
      </trkpt>
      <trkpt lat="47.17223" lon="6.20238">
        <ele>581.1</ele>
        <time>2022-08-10T08:13:50Z</time>
      </trkpt>
      <trkpt lat="47.17222" lon="6.20243">
        <ele>581.3</ele>
        <time>2022-08-10T08:13:51Z</time>
      </trkpt>
      <trkpt lat="47.1722" lon="6.20249">
        <ele>582</ele>
        <time>2022-08-10T08:13:52Z</time>
      </trkpt>
      <trkpt lat="47.17219" lon="6.20254">
        <ele>582.8</ele>
        <time>2022-08-10T08:13:53Z</time>
      </trkpt>
      <trkpt lat="47.17218" lon="6.20259">
        <ele>583.7</ele>
        <time>2022-08-10T08:13:54Z</time>
      </trkpt>
      <trkpt lat="47.17218" lon="6.20265">
        <ele>584.2</ele>
        <time>2022-08-10T08:13:55Z</time>
      </trkpt>
      <trkpt lat="47.17218" lon="6.20273">
        <ele>584.2</ele>
        <time>2022-08-10T08:13:56Z</time>
      </trkpt>
      <trkpt lat="47.17217" lon="6.20279">
        <ele>584</ele>
        <time>2022-08-10T08:13:57Z</time>
      </trkpt>
      <trkpt lat="47.17216" lon="6.20286">
        <ele>584</ele>
        <time>2022-08-10T08:13:58Z</time>
      </trkpt>
      <trkpt lat="47.17215" lon="6.20294">
        <ele>583.9</ele>
        <time>2022-08-10T08:13:59Z</time>
      </trkpt>
      <trkpt lat="47.17214" lon="6.20301">
        <ele>583.9</ele>
        <time>2022-08-10T08:14:00Z</time>
      </trkpt>
      <trkpt lat="47.17212" lon="6.20308">
        <ele>583.9</ele>
        <time>2022-08-10T08:14:01Z</time>
      </trkpt>
      <trkpt lat="47.17211" lon="6.20315">
        <ele>583.9</ele>
        <time>2022-08-10T08:14:02Z</time>
      </trkpt>
      <trkpt lat="47.1721" lon="6.20322">
        <ele>583.7</ele>
        <time>2022-08-10T08:14:03Z</time>
      </trkpt>
      <trkpt lat="47.17209" lon="6.20329">
        <ele>583.7</ele>
        <time>2022-08-10T08:14:04Z</time>
      </trkpt>
      <trkpt lat="47.17209" lon="6.20337">
        <ele>583.8</ele>
        <time>2022-08-10T08:14:05Z</time>
      </trkpt>
      <trkpt lat="47.17208" lon="6.20345">
        <ele>583.8</ele>
        <time>2022-08-10T08:14:06Z</time>
      </trkpt>
      <trkpt lat="47.17208" lon="6.20352">
        <ele>583.7</ele>
        <time>2022-08-10T08:14:07Z</time>
      </trkpt>
      <trkpt lat="47.17208" lon="6.2036">
        <ele>583.7</ele>
        <time>2022-08-10T08:14:08Z</time>
      </trkpt>
      <trkpt lat="47.17209" lon="6.20368">
        <ele>583.4</ele>
        <time>2022-08-10T08:14:09Z</time>
      </trkpt>
      <trkpt lat="47.17209" lon="6.20376">
        <ele>583.1</ele>
        <time>2022-08-10T08:14:10Z</time>
      </trkpt>
      <trkpt lat="47.1721" lon="6.20384">
        <ele>582.9</ele>
        <time>2022-08-10T08:14:11Z</time>
      </trkpt>
      <trkpt lat="47.1721" lon="6.20392">
        <ele>582.9</ele>
        <time>2022-08-10T08:14:12Z</time>
      </trkpt>
      <trkpt lat="47.17211" lon="6.204">
        <ele>583</ele>
        <time>2022-08-10T08:14:13Z</time>
      </trkpt>
      <trkpt lat="47.17212" lon="6.20407">
        <ele>582.8</ele>
        <time>2022-08-10T08:14:14Z</time>
      </trkpt>
      <trkpt lat="47.17213" lon="6.20414">
        <ele>582.6</ele>
        <time>2022-08-10T08:14:15Z</time>
      </trkpt>
      <trkpt lat="47.17214" lon="6.20421">
        <ele>582.8</ele>
        <time>2022-08-10T08:14:16Z</time>
      </trkpt>
      <trkpt lat="47.17216" lon="6.20427">
        <ele>582.7</ele>
        <time>2022-08-10T08:14:17Z</time>
      </trkpt>
      <trkpt lat="47.17218" lon="6.20434">
        <ele>582.3</ele>
        <time>2022-08-10T08:14:18Z</time>
      </trkpt>
      <trkpt lat="47.17219" lon="6.2044">
        <ele>582.1</ele>
        <time>2022-08-10T08:14:19Z</time>
      </trkpt>
      <trkpt lat="47.17221" lon="6.20447">
        <ele>581.5</ele>
        <time>2022-08-10T08:14:20Z</time>
      </trkpt>
      <trkpt lat="47.17222" lon="6.20454">
        <ele>581</ele>
        <time>2022-08-10T08:14:21Z</time>
      </trkpt>
      <trkpt lat="47.17224" lon="6.20462">
        <ele>580.1</ele>
        <time>2022-08-10T08:14:22Z</time>
      </trkpt>
      <trkpt lat="47.17226" lon="6.2047">
        <ele>578.9</ele>
        <time>2022-08-10T08:14:23Z</time>
      </trkpt>
      <trkpt lat="47.17227" lon="6.20477">
        <ele>578</ele>
        <time>2022-08-10T08:14:24Z</time>
      </trkpt>
      <trkpt lat="47.17229" lon="6.20484">
        <ele>576.8</ele>
        <time>2022-08-10T08:14:25Z</time>
      </trkpt>
      <trkpt lat="47.17231" lon="6.20491">
        <ele>575.6</ele>
        <time>2022-08-10T08:14:26Z</time>
      </trkpt>
      <trkpt lat="47.17233" lon="6.20497">
        <ele>574.6</ele>
        <time>2022-08-10T08:14:27Z</time>
      </trkpt>
      <trkpt lat="47.17235" lon="6.20503">
        <ele>573.7</ele>
        <time>2022-08-10T08:14:28Z</time>
      </trkpt>
      <trkpt lat="47.17237" lon="6.20509">
        <ele>572.8</ele>
        <time>2022-08-10T08:14:29Z</time>
      </trkpt>
      <trkpt lat="47.17239" lon="6.20515">
        <ele>571.6</ele>
        <time>2022-08-10T08:14:30Z</time>
      </trkpt>
      <trkpt lat="47.17241" lon="6.2052">
        <ele>570.7</ele>
        <time>2022-08-10T08:14:31Z</time>
      </trkpt>
      <trkpt lat="47.17244" lon="6.20525">
        <ele>570.2</ele>
        <time>2022-08-10T08:14:32Z</time>
      </trkpt>
      <trkpt lat="47.17246" lon="6.2053">
        <ele>569.2</ele>
        <time>2022-08-10T08:14:33Z</time>
      </trkpt>
      <trkpt lat="47.17248" lon="6.20535">
        <ele>568.5</ele>
        <time>2022-08-10T08:14:34Z</time>
      </trkpt>
      <trkpt lat="47.1725" lon="6.20541">
        <ele>568</ele>
        <time>2022-08-10T08:14:35Z</time>
      </trkpt>
      <trkpt lat="47.17251" lon="6.20547">
        <ele>567.4</ele>
        <time>2022-08-10T08:14:36Z</time>
      </trkpt>
      <trkpt lat="47.17253" lon="6.20553">
        <ele>567.2</ele>
        <time>2022-08-10T08:14:37Z</time>
      </trkpt>
      <trkpt lat="47.17254" lon="6.20559">
        <ele>566.5</ele>
        <time>2022-08-10T08:14:38Z</time>
      </trkpt>
      <trkpt lat="47.17255" lon="6.20566">
        <ele>565.7</ele>
        <time>2022-08-10T08:14:39Z</time>
      </trkpt>
      <trkpt lat="47.17257" lon="6.20572">
        <ele>564.9</ele>
        <time>2022-08-10T08:14:40Z</time>
      </trkpt>
      <trkpt lat="47.17258" lon="6.20579">
        <ele>564.4</ele>
        <time>2022-08-10T08:14:41Z</time>
      </trkpt>
      <trkpt lat="47.1726" lon="6.20585">
        <ele>563.8</ele>
        <time>2022-08-10T08:14:42Z</time>
      </trkpt>
      <trkpt lat="47.17261" lon="6.20592">
        <ele>562.6</ele>
        <time>2022-08-10T08:14:43Z</time>
      </trkpt>
      <trkpt lat="47.17263" lon="6.20599">
        <ele>562.1</ele>
        <time>2022-08-10T08:14:44Z</time>
      </trkpt>
      <trkpt lat="47.17264" lon="6.20607">
        <ele>562.1</ele>
        <time>2022-08-10T08:14:45Z</time>
      </trkpt>
      <trkpt lat="47.17266" lon="6.20614">
        <ele>561.5</ele>
        <time>2022-08-10T08:14:46Z</time>
      </trkpt>
      <trkpt lat="47.17267" lon="6.2062">
        <ele>561.2</ele>
        <time>2022-08-10T08:14:47Z</time>
      </trkpt>
      <trkpt lat="47.17269" lon="6.20627">
        <ele>560.6</ele>
        <time>2022-08-10T08:14:48Z</time>
      </trkpt>
      <trkpt lat="47.17271" lon="6.20633">
        <ele>559.6</ele>
        <time>2022-08-10T08:14:49Z</time>
      </trkpt>
      <trkpt lat="47.17272" lon="6.20639">
        <ele>559.5</ele>
        <time>2022-08-10T08:14:50Z</time>
      </trkpt>
      <trkpt lat="47.17273" lon="6.20647">
        <ele>559.9</ele>
        <time>2022-08-10T08:14:51Z</time>
      </trkpt>
      <trkpt lat="47.17274" lon="6.20653">
        <ele>560</ele>
        <time>2022-08-10T08:14:52Z</time>
      </trkpt>
      <trkpt lat="47.17274" lon="6.2066">
        <ele>559.5</ele>
        <time>2022-08-10T08:14:53Z</time>
      </trkpt>
      <trkpt lat="47.17276" lon="6.20666">
        <ele>559.3</ele>
        <time>2022-08-10T08:14:54Z</time>
      </trkpt>
      <trkpt lat="47.17277" lon="6.20673">
        <ele>559.2</ele>
        <time>2022-08-10T08:14:55Z</time>
      </trkpt>
      <trkpt lat="47.17279" lon="6.2068">
        <ele>558.5</ele>
        <time>2022-08-10T08:14:56Z</time>
      </trkpt>
      <trkpt lat="47.1728" lon="6.20687">
        <ele>558</ele>
        <time>2022-08-10T08:14:57Z</time>
      </trkpt>
      <trkpt lat="47.17281" lon="6.20693">
        <ele>558.4</ele>
        <time>2022-08-10T08:14:58Z</time>
      </trkpt>
      <trkpt lat="47.17282" lon="6.20699">
        <ele>558.8</ele>
        <time>2022-08-10T08:14:59Z</time>
      </trkpt>
      <trkpt lat="47.17282" lon="6.20706">
        <ele>559</ele>
        <time>2022-08-10T08:15:00Z</time>
      </trkpt>
      <trkpt lat="47.17283" lon="6.20712">
        <ele>559.2</ele>
        <time>2022-08-10T08:15:01Z</time>
      </trkpt>
      <trkpt lat="47.17284" lon="6.20717">
        <ele>559.6</ele>
        <time>2022-08-10T08:15:02Z</time>
      </trkpt>
      <trkpt lat="47.17285" lon="6.20723">
        <ele>559.8</ele>
        <time>2022-08-10T08:15:03Z</time>
      </trkpt>
      <trkpt lat="47.17285" lon="6.20728">
        <ele>559.8</ele>
        <time>2022-08-10T08:15:04Z</time>
      </trkpt>
      <trkpt lat="47.17286" lon="6.20732">
        <ele>560.4</ele>
        <time>2022-08-10T08:15:05Z</time>
      </trkpt>
      <trkpt lat="47.17287" lon="6.20737">
        <ele>561.2</ele>
        <time>2022-08-10T08:15:06Z</time>
      </trkpt>
      <trkpt lat="47.17287" lon="6.20741">
        <ele>561.9</ele>
        <time>2022-08-10T08:15:07Z</time>
      </trkpt>
      <trkpt lat="47.17288" lon="6.20744">
        <ele>563.1</ele>
        <time>2022-08-10T08:15:08Z</time>
      </trkpt>
      <trkpt lat="47.17288" lon="6.20748">
        <ele>563.7</ele>
        <time>2022-08-10T08:15:09Z</time>
      </trkpt>
      <trkpt lat="47.17288" lon="6.20752">
        <ele>564.1</ele>
        <time>2022-08-10T08:15:10Z</time>
      </trkpt>
      <trkpt lat="47.17287" lon="6.20755">
        <ele>564.8</ele>
        <time>2022-08-10T08:15:11Z</time>
      </trkpt>
      <trkpt lat="47.17286" lon="6.20759">
        <ele>565.6</ele>
        <time>2022-08-10T08:15:12Z</time>
      </trkpt>
      <trkpt lat="47.17286" lon="6.20763">
        <ele>566.4</ele>
        <time>2022-08-10T08:15:13Z</time>
      </trkpt>
      <trkpt lat="47.17286" lon="6.20766">
        <ele>567.3</ele>
        <time>2022-08-10T08:15:14Z</time>
      </trkpt>
      <trkpt lat="47.17286" lon="6.2077">
        <ele>567.9</ele>
        <time>2022-08-10T08:15:15Z</time>
      </trkpt>
      <trkpt lat="47.17287" lon="6.20773">
        <ele>568.3</ele>
        <time>2022-08-10T08:15:16Z</time>
      </trkpt>
      <trkpt lat="47.17288" lon="6.20775">
        <ele>568.9</ele>
        <time>2022-08-10T08:15:17Z</time>
      </trkpt>
      <trkpt lat="47.17289" lon="6.20776">
        <ele>569.6</ele>
        <time>2022-08-10T08:15:18Z</time>
      </trkpt>
      <trkpt lat="47.17289" lon="6.20776">
        <ele>570</ele>
        <time>2022-08-10T08:15:19Z</time>
      </trkpt>
      <trkpt lat="47.17288" lon="6.20777">
        <ele>569.9</ele>
        <time>2022-08-10T08:15:20Z</time>
      </trkpt>
      <trkpt lat="47.17288" lon="6.20777">
        <ele>569.9</ele>
        <time>2022-08-10T08:15:21Z</time>
      </trkpt>
      <trkpt lat="47.17288" lon="6.20777">
        <ele>569.9</ele>
        <time>2022-08-10T08:15:22Z</time>
      </trkpt>
      <trkpt lat="47.17288" lon="6.20777">
        <ele>569.9</ele>
        <time>2022-08-10T08:15:23Z</time>
      </trkpt>
      <trkpt lat="47.17288" lon="6.20777">
        <ele>569.9</ele>
        <time>2022-08-10T08:15:24Z</time>
      </trkpt>
      <trkpt lat="47.17288" lon="6.20777">
        <ele>569.9</ele>
        <time>2022-08-10T08:15:25Z</time>
      </trkpt>
      <trkpt lat="47.17288" lon="6.20777">
        <ele>569.9</ele>
        <time>2022-08-10T08:15:26Z</time>
      </trkpt>
      <trkpt lat="47.17288" lon="6.20777">
        <ele>569.9</ele>
        <time>2022-08-10T08:15:27Z</time>
      </trkpt>
      <trkpt lat="47.17288" lon="6.20777">
        <ele>569.9</ele>
        <time>2022-08-10T08:15:28Z</time>
      </trkpt>
      <trkpt lat="47.17288" lon="6.20777">
        <ele>569.9</ele>
        <time>2022-08-10T08:15:29Z</time>
      </trkpt>
      <trkpt lat="47.17288" lon="6.20777">
        <ele>569.9</ele>
        <time>2022-08-10T08:15:30Z</time>
      </trkpt>
      <trkpt lat="47.17288" lon="6.20777">
        <ele>569.9</ele>
        <time>2022-08-10T08:15:31Z</time>
      </trkpt>
      <trkpt lat="47.17288" lon="6.20777">
        <ele>569.9</ele>
        <time>2022-08-10T08:15:32Z</time>
      </trkpt>
      <trkpt lat="47.17288" lon="6.20777">
        <ele>569.9</ele>
        <time>2022-08-10T08:15:33Z</time>
      </trkpt>
      <trkpt lat="47.17291" lon="6.20773">
        <ele>568.6</ele>
        <time>2022-08-10T08:15:34Z</time>
      </trkpt>
      <trkpt lat="47.17292" lon="6.20772">
        <ele>568.5</ele>
        <time>2022-08-10T08:15:35Z</time>
      </trkpt>
      <trkpt lat="47.17292" lon="6.2077">
        <ele>568.4</ele>
        <time>2022-08-10T08:15:36Z</time>
      </trkpt>
      <trkpt lat="47.17293" lon="6.20768">
        <ele>568.4</ele>
        <time>2022-08-10T08:15:37Z</time>
      </trkpt>
      <trkpt lat="47.17294" lon="6.20767">
        <ele>568.3</ele>
        <time>2022-08-10T08:15:38Z</time>
      </trkpt>
      <trkpt lat="47.17295" lon="6.20765">
        <ele>568.2</ele>
        <time>2022-08-10T08:15:39Z</time>
      </trkpt>
      <trkpt lat="47.17296" lon="6.20764">
        <ele>568</ele>
        <time>2022-08-10T08:15:40Z</time>
      </trkpt>
      <trkpt lat="47.17298" lon="6.20762">
        <ele>567.9</ele>
        <time>2022-08-10T08:15:41Z</time>
      </trkpt>
      <trkpt lat="47.173" lon="6.20761">
        <ele>567.9</ele>
        <time>2022-08-10T08:15:42Z</time>
      </trkpt>
      <trkpt lat="47.17304" lon="6.2076">
        <ele>567.8</ele>
        <time>2022-08-10T08:15:43Z</time>
      </trkpt>
      <trkpt lat="47.17307" lon="6.2076">
        <ele>567.8</ele>
        <time>2022-08-10T08:15:44Z</time>
      </trkpt>
      <trkpt lat="47.17311" lon="6.20759">
        <ele>567.8</ele>
        <time>2022-08-10T08:15:45Z</time>
      </trkpt>
      <trkpt lat="47.17315" lon="6.20759">
        <ele>567.7</ele>
        <time>2022-08-10T08:15:46Z</time>
      </trkpt>
      <trkpt lat="47.17319" lon="6.20757">
        <ele>567.8</ele>
        <time>2022-08-10T08:15:47Z</time>
      </trkpt>
      <trkpt lat="47.17322" lon="6.20755">
        <ele>567.8</ele>
        <time>2022-08-10T08:15:48Z</time>
      </trkpt>
      <trkpt lat="47.17326" lon="6.20752">
        <ele>567.3</ele>
        <time>2022-08-10T08:15:49Z</time>
      </trkpt>
      <trkpt lat="47.1733" lon="6.20748">
        <ele>567.2</ele>
        <time>2022-08-10T08:15:50Z</time>
      </trkpt>
      <trkpt lat="47.17335" lon="6.20745">
        <ele>567.2</ele>
        <time>2022-08-10T08:15:51Z</time>
      </trkpt>
      <trkpt lat="47.17339" lon="6.20742">
        <ele>567.7</ele>
        <time>2022-08-10T08:15:52Z</time>
      </trkpt>
      <trkpt lat="47.17344" lon="6.20739">
        <ele>568</ele>
        <time>2022-08-10T08:15:53Z</time>
      </trkpt>
      <trkpt lat="47.17348" lon="6.20737">
        <ele>568.9</ele>
        <time>2022-08-10T08:15:54Z</time>
      </trkpt>
      <trkpt lat="47.17352" lon="6.20734">
        <ele>569.9</ele>
        <time>2022-08-10T08:15:55Z</time>
      </trkpt>
      <trkpt lat="47.17355" lon="6.20733">
        <ele>570.6</ele>
        <time>2022-08-10T08:15:56Z</time>
      </trkpt>
      <trkpt lat="47.17359" lon="6.20731">
        <ele>571.3</ele>
        <time>2022-08-10T08:15:57Z</time>
      </trkpt>
      <trkpt lat="47.17362" lon="6.2073">
        <ele>571.7</ele>
        <time>2022-08-10T08:15:58Z</time>
      </trkpt>
      <trkpt lat="47.17365" lon="6.20729">
        <ele>572.3</ele>
        <time>2022-08-10T08:15:59Z</time>
      </trkpt>
      <trkpt lat="47.17368" lon="6.20727">
        <ele>572.7</ele>
        <time>2022-08-10T08:16:00Z</time>
      </trkpt>
      <trkpt lat="47.1737" lon="6.20725">
        <ele>573.7</ele>
        <time>2022-08-10T08:16:01Z</time>
      </trkpt>
      <trkpt lat="47.17372" lon="6.20724">
        <ele>575.2</ele>
        <time>2022-08-10T08:16:02Z</time>
      </trkpt>
      <trkpt lat="47.17375" lon="6.20722">
        <ele>576.5</ele>
        <time>2022-08-10T08:16:03Z</time>
      </trkpt>
      <trkpt lat="47.17377" lon="6.20721">
        <ele>576.6</ele>
        <time>2022-08-10T08:16:04Z</time>
      </trkpt>
      <trkpt lat="47.17378" lon="6.20719">
        <ele>576.6</ele>
        <time>2022-08-10T08:16:05Z</time>
      </trkpt>
      <trkpt lat="47.17379" lon="6.20716">
        <ele>576.7</ele>
        <time>2022-08-10T08:16:06Z</time>
      </trkpt>
      <trkpt lat="47.1738" lon="6.20713">
        <ele>576.2</ele>
        <time>2022-08-10T08:16:07Z</time>
      </trkpt>
      <trkpt lat="47.1738" lon="6.2071">
        <ele>575.7</ele>
        <time>2022-08-10T08:16:08Z</time>
      </trkpt>
      <trkpt lat="47.1738" lon="6.20707">
        <ele>574.9</ele>
        <time>2022-08-10T08:16:09Z</time>
      </trkpt>
      <trkpt lat="47.1738" lon="6.20704">
        <ele>574.3</ele>
        <time>2022-08-10T08:16:10Z</time>
      </trkpt>
      <trkpt lat="47.17379" lon="6.20701">
        <ele>573.5</ele>
        <time>2022-08-10T08:16:11Z</time>
      </trkpt>
      <trkpt lat="47.17379" lon="6.20697">
        <ele>572.4</ele>
        <time>2022-08-10T08:16:12Z</time>
      </trkpt>
      <trkpt lat="47.17379" lon="6.20694">
        <ele>571</ele>
        <time>2022-08-10T08:16:13Z</time>
      </trkpt>
      <trkpt lat="47.17379" lon="6.20689">
        <ele>569.3</ele>
        <time>2022-08-10T08:16:14Z</time>
      </trkpt>
      <trkpt lat="47.17379" lon="6.20684">
        <ele>568.2</ele>
        <time>2022-08-10T08:16:15Z</time>
      </trkpt>
      <trkpt lat="47.17378" lon="6.20679">
        <ele>566.8</ele>
        <time>2022-08-10T08:16:16Z</time>
      </trkpt>
      <trkpt lat="47.17377" lon="6.20674">
        <ele>565.4</ele>
        <time>2022-08-10T08:16:17Z</time>
      </trkpt>
      <trkpt lat="47.17376" lon="6.2067">
        <ele>564.2</ele>
        <time>2022-08-10T08:16:18Z</time>
      </trkpt>
      <trkpt lat="47.17375" lon="6.20665">
        <ele>563.4</ele>
        <time>2022-08-10T08:16:19Z</time>
      </trkpt>
      <trkpt lat="47.17374" lon="6.2066">
        <ele>563</ele>
        <time>2022-08-10T08:16:20Z</time>
      </trkpt>
      <trkpt lat="47.17373" lon="6.20654">
        <ele>562.8</ele>
        <time>2022-08-10T08:16:21Z</time>
      </trkpt>
      <trkpt lat="47.17372" lon="6.20648">
        <ele>562.6</ele>
        <time>2022-08-10T08:16:22Z</time>
      </trkpt>
      <trkpt lat="47.17371" lon="6.20641">
        <ele>562.2</ele>
        <time>2022-08-10T08:16:23Z</time>
      </trkpt>
      <trkpt lat="47.1737" lon="6.20634">
        <ele>561.8</ele>
        <time>2022-08-10T08:16:24Z</time>
      </trkpt>
      <trkpt lat="47.17369" lon="6.20627">
        <ele>561.5</ele>
        <time>2022-08-10T08:16:25Z</time>
      </trkpt>
      <trkpt lat="47.17368" lon="6.2062">
        <ele>560.8</ele>
        <time>2022-08-10T08:16:26Z</time>
      </trkpt>
      <trkpt lat="47.17367" lon="6.20613">
        <ele>559.9</ele>
        <time>2022-08-10T08:16:27Z</time>
      </trkpt>
      <trkpt lat="47.17366" lon="6.20605">
        <ele>559.3</ele>
        <time>2022-08-10T08:16:28Z</time>
      </trkpt>
      <trkpt lat="47.17365" lon="6.20598">
        <ele>558</ele>
        <time>2022-08-10T08:16:29Z</time>
      </trkpt>
      <trkpt lat="47.17363" lon="6.2059">
        <ele>557.3</ele>
        <time>2022-08-10T08:16:30Z</time>
      </trkpt>
      <trkpt lat="47.17362" lon="6.20582">
        <ele>557</ele>
        <time>2022-08-10T08:16:31Z</time>
      </trkpt>
      <trkpt lat="47.17361" lon="6.20575">
        <ele>556.7</ele>
        <time>2022-08-10T08:16:32Z</time>
      </trkpt>
      <trkpt lat="47.17359" lon="6.20567">
        <ele>556</ele>
        <time>2022-08-10T08:16:33Z</time>
      </trkpt>
      <trkpt lat="47.17357" lon="6.20559">
        <ele>555.5</ele>
        <time>2022-08-10T08:16:34Z</time>
      </trkpt>
      <trkpt lat="47.17355" lon="6.2055">
        <ele>554.8</ele>
        <time>2022-08-10T08:16:35Z</time>
      </trkpt>
      <trkpt lat="47.17354" lon="6.20542">
        <ele>554.6</ele>
        <time>2022-08-10T08:16:36Z</time>
      </trkpt>
      <trkpt lat="47.17352" lon="6.20533">
        <ele>554.1</ele>
        <time>2022-08-10T08:16:37Z</time>
      </trkpt>
      <trkpt lat="47.1735" lon="6.20524">
        <ele>553</ele>
        <time>2022-08-10T08:16:38Z</time>
      </trkpt>
      <trkpt lat="47.17346" lon="6.20506">
        <ele>551.6</ele>
        <time>2022-08-10T08:16:40Z</time>
      </trkpt>
      <trkpt lat="47.17344" lon="6.20498">
        <ele>551.4</ele>
        <time>2022-08-10T08:16:41Z</time>
      </trkpt>
      <trkpt lat="47.17342" lon="6.2049">
        <ele>550.8</ele>
        <time>2022-08-10T08:16:42Z</time>
      </trkpt>
      <trkpt lat="47.1734" lon="6.2048">
        <ele>550.3</ele>
        <time>2022-08-10T08:16:43Z</time>
      </trkpt>
      <trkpt lat="47.17338" lon="6.20471">
        <ele>549.6</ele>
        <time>2022-08-10T08:16:44Z</time>
      </trkpt>
      <trkpt lat="47.17336" lon="6.20461">
        <ele>549.1</ele>
        <time>2022-08-10T08:16:45Z</time>
      </trkpt>
      <trkpt lat="47.17334" lon="6.20452">
        <ele>548.8</ele>
        <time>2022-08-10T08:16:46Z</time>
      </trkpt>
      <trkpt lat="47.17332" lon="6.20442">
        <ele>548.7</ele>
        <time>2022-08-10T08:16:47Z</time>
      </trkpt>
      <trkpt lat="47.17331" lon="6.20432">
        <ele>548.6</ele>
        <time>2022-08-10T08:16:48Z</time>
      </trkpt>
      <trkpt lat="47.17332" lon="6.20423">
        <ele>548.6</ele>
        <time>2022-08-10T08:16:49Z</time>
      </trkpt>
      <trkpt lat="47.17334" lon="6.20413">
        <ele>549.1</ele>
        <time>2022-08-10T08:16:50Z</time>
      </trkpt>
      <trkpt lat="47.17336" lon="6.20406">
        <ele>549.7</ele>
        <time>2022-08-10T08:16:51Z</time>
      </trkpt>
      <trkpt lat="47.17341" lon="6.20399">
        <ele>550.3</ele>
        <time>2022-08-10T08:16:52Z</time>
      </trkpt>
      <trkpt lat="47.17346" lon="6.20394">
        <ele>551.1</ele>
        <time>2022-08-10T08:16:53Z</time>
      </trkpt>
      <trkpt lat="47.17353" lon="6.20389">
        <ele>551.8</ele>
        <time>2022-08-10T08:16:54Z</time>
      </trkpt>
      <trkpt lat="47.17359" lon="6.20385">
        <ele>551.9</ele>
        <time>2022-08-10T08:16:55Z</time>
      </trkpt>
      <trkpt lat="47.17365" lon="6.20382">
        <ele>551.8</ele>
        <time>2022-08-10T08:16:56Z</time>
      </trkpt>
      <trkpt lat="47.17371" lon="6.20378">
        <ele>552</ele>
        <time>2022-08-10T08:16:57Z</time>
      </trkpt>
      <trkpt lat="47.17376" lon="6.20375">
        <ele>552.5</ele>
        <time>2022-08-10T08:16:58Z</time>
      </trkpt>
      <trkpt lat="47.17381" lon="6.20371">
        <ele>552.6</ele>
        <time>2022-08-10T08:16:59Z</time>
      </trkpt>
      <trkpt lat="47.17385" lon="6.20368">
        <ele>552.8</ele>
        <time>2022-08-10T08:17:00Z</time>
      </trkpt>
      <trkpt lat="47.17389" lon="6.20365">
        <ele>552.9</ele>
        <time>2022-08-10T08:17:01Z</time>
      </trkpt>
      <trkpt lat="47.17393" lon="6.20363">
        <ele>552.8</ele>
        <time>2022-08-10T08:17:02Z</time>
      </trkpt>
      <trkpt lat="47.17397" lon="6.2036">
        <ele>552.6</ele>
        <time>2022-08-10T08:17:03Z</time>
      </trkpt>
      <trkpt lat="47.174" lon="6.20358">
        <ele>552.9</ele>
        <time>2022-08-10T08:17:04Z</time>
      </trkpt>
      <trkpt lat="47.17403" lon="6.20356">
        <ele>553.4</ele>
        <time>2022-08-10T08:17:05Z</time>
      </trkpt>
      <trkpt lat="47.17406" lon="6.20354">
        <ele>554.2</ele>
        <time>2022-08-10T08:17:06Z</time>
      </trkpt>
      <trkpt lat="47.17409" lon="6.20351">
        <ele>554.1</ele>
        <time>2022-08-10T08:17:07Z</time>
      </trkpt>
      <trkpt lat="47.17412" lon="6.20349">
        <ele>554.6</ele>
        <time>2022-08-10T08:17:08Z</time>
      </trkpt>
      <trkpt lat="47.17416" lon="6.20348">
        <ele>554.8</ele>
        <time>2022-08-10T08:17:09Z</time>
      </trkpt>
      <trkpt lat="47.17419" lon="6.20346">
        <ele>555.1</ele>
        <time>2022-08-10T08:17:10Z</time>
      </trkpt>
      <trkpt lat="47.17422" lon="6.20344">
        <ele>554.9</ele>
        <time>2022-08-10T08:17:11Z</time>
      </trkpt>
      <trkpt lat="47.17425" lon="6.20342">
        <ele>554.7</ele>
        <time>2022-08-10T08:17:12Z</time>
      </trkpt>
      <trkpt lat="47.17428" lon="6.2034">
        <ele>555.3</ele>
        <time>2022-08-10T08:17:13Z</time>
      </trkpt>
      <trkpt lat="47.1743" lon="6.20338">
        <ele>555.7</ele>
        <time>2022-08-10T08:17:14Z</time>
      </trkpt>
      <trkpt lat="47.17433" lon="6.20336">
        <ele>555.8</ele>
        <time>2022-08-10T08:17:15Z</time>
      </trkpt>
      <trkpt lat="47.17436" lon="6.20334">
        <ele>556.1</ele>
        <time>2022-08-10T08:17:16Z</time>
      </trkpt>
      <trkpt lat="47.17439" lon="6.20332">
        <ele>556.6</ele>
        <time>2022-08-10T08:17:17Z</time>
      </trkpt>
      <trkpt lat="47.17442" lon="6.20332">
        <ele>557</ele>
        <time>2022-08-10T08:17:18Z</time>
      </trkpt>
      <trkpt lat="47.17445" lon="6.20332">
        <ele>557.4</ele>
        <time>2022-08-10T08:17:19Z</time>
      </trkpt>
      <trkpt lat="47.17447" lon="6.20334">
        <ele>557.9</ele>
        <time>2022-08-10T08:17:20Z</time>
      </trkpt>
      <trkpt lat="47.17448" lon="6.20336">
        <ele>558.1</ele>
        <time>2022-08-10T08:17:21Z</time>
      </trkpt>
      <trkpt lat="47.17449" lon="6.20339">
        <ele>558.9</ele>
        <time>2022-08-10T08:17:22Z</time>
      </trkpt>
      <trkpt lat="47.1745" lon="6.20343">
        <ele>560</ele>
        <time>2022-08-10T08:17:23Z</time>
      </trkpt>
      <trkpt lat="47.1745" lon="6.20347">
        <ele>561</ele>
        <time>2022-08-10T08:17:24Z</time>
      </trkpt>
      <trkpt lat="47.1745" lon="6.2035">
        <ele>562</ele>
        <time>2022-08-10T08:17:25Z</time>
      </trkpt>
      <trkpt lat="47.1745" lon="6.20354">
        <ele>563.1</ele>
        <time>2022-08-10T08:17:26Z</time>
      </trkpt>
      <trkpt lat="47.1745" lon="6.20357">
        <ele>564.5</ele>
        <time>2022-08-10T08:17:27Z</time>
      </trkpt>
      <trkpt lat="47.17451" lon="6.20361">
        <ele>565.4</ele>
        <time>2022-08-10T08:17:28Z</time>
      </trkpt>
      <trkpt lat="47.17451" lon="6.20365">
        <ele>566.2</ele>
        <time>2022-08-10T08:17:29Z</time>
      </trkpt>
      <trkpt lat="47.17451" lon="6.20369">
        <ele>567.1</ele>
        <time>2022-08-10T08:17:30Z</time>
      </trkpt>
      <trkpt lat="47.17452" lon="6.20374">
        <ele>567.6</ele>
        <time>2022-08-10T08:17:31Z</time>
      </trkpt>
      <trkpt lat="47.17452" lon="6.20378">
        <ele>567.5</ele>
        <time>2022-08-10T08:17:32Z</time>
      </trkpt>
      <trkpt lat="47.17453" lon="6.20382">
        <ele>567.4</ele>
        <time>2022-08-10T08:17:33Z</time>
      </trkpt>
      <trkpt lat="47.17454" lon="6.20386">
        <ele>567.4</ele>
        <time>2022-08-10T08:17:34Z</time>
      </trkpt>
      <trkpt lat="47.17455" lon="6.20391">
        <ele>567.3</ele>
        <time>2022-08-10T08:17:35Z</time>
      </trkpt>
      <trkpt lat="47.17456" lon="6.20395">
        <ele>567.2</ele>
        <time>2022-08-10T08:17:36Z</time>
      </trkpt>
      <trkpt lat="47.17458" lon="6.20399">
        <ele>567.3</ele>
        <time>2022-08-10T08:17:37Z</time>
      </trkpt>
      <trkpt lat="47.17459" lon="6.20404">
        <ele>567.8</ele>
        <time>2022-08-10T08:17:38Z</time>
      </trkpt>
      <trkpt lat="47.1746" lon="6.20408">
        <ele>568.3</ele>
        <time>2022-08-10T08:17:39Z</time>
      </trkpt>
      <trkpt lat="47.17461" lon="6.20413">
        <ele>568.4</ele>
        <time>2022-08-10T08:17:40Z</time>
      </trkpt>
      <trkpt lat="47.17463" lon="6.20418">
        <ele>568.4</ele>
        <time>2022-08-10T08:17:41Z</time>
      </trkpt>
      <trkpt lat="47.17464" lon="6.20422">
        <ele>568.7</ele>
        <time>2022-08-10T08:17:42Z</time>
      </trkpt>
      <trkpt lat="47.17465" lon="6.20427">
        <ele>568.9</ele>
        <time>2022-08-10T08:17:43Z</time>
      </trkpt>
      <trkpt lat="47.17467" lon="6.20432">
        <ele>569.2</ele>
        <time>2022-08-10T08:17:44Z</time>
      </trkpt>
      <trkpt lat="47.17469" lon="6.20437">
        <ele>569.1</ele>
        <time>2022-08-10T08:17:45Z</time>
      </trkpt>
      <trkpt lat="47.17471" lon="6.20442">
        <ele>568</ele>
        <time>2022-08-10T08:17:46Z</time>
      </trkpt>
      <trkpt lat="47.17473" lon="6.20447">
        <ele>567.2</ele>
        <time>2022-08-10T08:17:47Z</time>
      </trkpt>
      <trkpt lat="47.17474" lon="6.20451">
        <ele>566.1</ele>
        <time>2022-08-10T08:17:48Z</time>
      </trkpt>
      <trkpt lat="47.17476" lon="6.20456">
        <ele>565.4</ele>
        <time>2022-08-10T08:17:49Z</time>
      </trkpt>
      <trkpt lat="47.17477" lon="6.2046">
        <ele>565</ele>
        <time>2022-08-10T08:17:50Z</time>
      </trkpt>
      <trkpt lat="47.17479" lon="6.20464">
        <ele>564.6</ele>
        <time>2022-08-10T08:17:51Z</time>
      </trkpt>
      <trkpt lat="47.1748" lon="6.20468">
        <ele>564.1</ele>
        <time>2022-08-10T08:17:52Z</time>
      </trkpt>
      <trkpt lat="47.17481" lon="6.20472">
        <ele>564.1</ele>
        <time>2022-08-10T08:17:53Z</time>
      </trkpt>
      <trkpt lat="47.17483" lon="6.20476">
        <ele>564.1</ele>
        <time>2022-08-10T08:17:54Z</time>
      </trkpt>
      <trkpt lat="47.17484" lon="6.2048">
        <ele>564.2</ele>
        <time>2022-08-10T08:17:55Z</time>
      </trkpt>
      <trkpt lat="47.17486" lon="6.20484">
        <ele>564.5</ele>
        <time>2022-08-10T08:17:56Z</time>
      </trkpt>
      <trkpt lat="47.17487" lon="6.20488">
        <ele>564.8</ele>
        <time>2022-08-10T08:17:57Z</time>
      </trkpt>
      <trkpt lat="47.17489" lon="6.2049">
        <ele>565.5</ele>
        <time>2022-08-10T08:17:58Z</time>
      </trkpt>
      <trkpt lat="47.17491" lon="6.20492">
        <ele>565.6</ele>
        <time>2022-08-10T08:17:59Z</time>
      </trkpt>
      <trkpt lat="47.17494" lon="6.20493">
        <ele>565</ele>
        <time>2022-08-10T08:18:00Z</time>
      </trkpt>
      <trkpt lat="47.17497" lon="6.20494">
        <ele>564.2</ele>
        <time>2022-08-10T08:18:01Z</time>
      </trkpt>
      <trkpt lat="47.175" lon="6.20494">
        <ele>564.2</ele>
        <time>2022-08-10T08:18:02Z</time>
      </trkpt>
      <trkpt lat="47.17502" lon="6.20494">
        <ele>564.8</ele>
        <time>2022-08-10T08:18:03Z</time>
      </trkpt>
      <trkpt lat="47.17504" lon="6.20494">
        <ele>565.1</ele>
        <time>2022-08-10T08:18:04Z</time>
      </trkpt>
      <trkpt lat="47.17506" lon="6.20493">
        <ele>565.3</ele>
        <time>2022-08-10T08:18:05Z</time>
      </trkpt>
      <trkpt lat="47.17508" lon="6.20493">
        <ele>565.5</ele>
        <time>2022-08-10T08:18:06Z</time>
      </trkpt>
      <trkpt lat="47.1751" lon="6.20492">
        <ele>565.9</ele>
        <time>2022-08-10T08:18:07Z</time>
      </trkpt>
      <trkpt lat="47.17512" lon="6.20492">
        <ele>566.4</ele>
        <time>2022-08-10T08:18:08Z</time>
      </trkpt>
      <trkpt lat="47.17513" lon="6.20492">
        <ele>567</ele>
        <time>2022-08-10T08:18:09Z</time>
      </trkpt>
      <trkpt lat="47.17515" lon="6.20493">
        <ele>567.7</ele>
        <time>2022-08-10T08:18:10Z</time>
      </trkpt>
      <trkpt lat="47.17516" lon="6.20493">
        <ele>568.2</ele>
        <time>2022-08-10T08:18:11Z</time>
      </trkpt>
      <trkpt lat="47.17517" lon="6.20493">
        <ele>569</ele>
        <time>2022-08-10T08:18:12Z</time>
      </trkpt>
      <trkpt lat="47.17518" lon="6.20493">
        <ele>569.6</ele>
        <time>2022-08-10T08:18:13Z</time>
      </trkpt>
      <trkpt lat="47.1752" lon="6.20492">
        <ele>570.2</ele>
        <time>2022-08-10T08:18:14Z</time>
      </trkpt>
      <trkpt lat="47.17522" lon="6.20492">
        <ele>570.8</ele>
        <time>2022-08-10T08:18:15Z</time>
      </trkpt>
      <trkpt lat="47.17523" lon="6.20492">
        <ele>571.7</ele>
        <time>2022-08-10T08:18:16Z</time>
      </trkpt>
      <trkpt lat="47.17525" lon="6.20492">
        <ele>572.1</ele>
        <time>2022-08-10T08:18:17Z</time>
      </trkpt>
      <trkpt lat="47.17526" lon="6.20493">
        <ele>572.8</ele>
        <time>2022-08-10T08:18:18Z</time>
      </trkpt>
      <trkpt lat="47.17528" lon="6.20493">
        <ele>573.4</ele>
        <time>2022-08-10T08:18:19Z</time>
      </trkpt>
      <trkpt lat="47.17529" lon="6.20494">
        <ele>574.1</ele>
        <time>2022-08-10T08:18:20Z</time>
      </trkpt>
      <trkpt lat="47.17531" lon="6.20495">
        <ele>574.9</ele>
        <time>2022-08-10T08:18:21Z</time>
      </trkpt>
      <trkpt lat="47.17533" lon="6.20495">
        <ele>575.7</ele>
        <time>2022-08-10T08:18:22Z</time>
      </trkpt>
      <trkpt lat="47.17535" lon="6.20495">
        <ele>576.4</ele>
        <time>2022-08-10T08:18:23Z</time>
      </trkpt>
      <trkpt lat="47.17537" lon="6.20496">
        <ele>577.1</ele>
        <time>2022-08-10T08:18:24Z</time>
      </trkpt>
      <trkpt lat="47.17539" lon="6.20496">
        <ele>577.8</ele>
        <time>2022-08-10T08:18:25Z</time>
      </trkpt>
      <trkpt lat="47.17541" lon="6.20496">
        <ele>578.5</ele>
        <time>2022-08-10T08:18:26Z</time>
      </trkpt>
      <trkpt lat="47.17543" lon="6.20496">
        <ele>579.2</ele>
        <time>2022-08-10T08:18:27Z</time>
      </trkpt>
      <trkpt lat="47.17545" lon="6.20496">
        <ele>579.5</ele>
        <time>2022-08-10T08:18:28Z</time>
      </trkpt>
      <trkpt lat="47.17547" lon="6.20496">
        <ele>579.8</ele>
        <time>2022-08-10T08:18:29Z</time>
      </trkpt>
      <trkpt lat="47.17549" lon="6.20495">
        <ele>580</ele>
        <time>2022-08-10T08:18:30Z</time>
      </trkpt>
      <trkpt lat="47.17551" lon="6.20494">
        <ele>580.4</ele>
        <time>2022-08-10T08:18:31Z</time>
      </trkpt>
      <trkpt lat="47.17554" lon="6.20493">
        <ele>580.6</ele>
        <time>2022-08-10T08:18:32Z</time>
      </trkpt>
      <trkpt lat="47.17555" lon="6.20492">
        <ele>580.7</ele>
        <time>2022-08-10T08:18:33Z</time>
      </trkpt>
      <trkpt lat="47.17558" lon="6.2049">
        <ele>580.7</ele>
        <time>2022-08-10T08:18:34Z</time>
      </trkpt>
      <trkpt lat="47.17559" lon="6.20488">
        <ele>581</ele>
        <time>2022-08-10T08:18:35Z</time>
      </trkpt>
      <trkpt lat="47.17561" lon="6.20486">
        <ele>581.2</ele>
        <time>2022-08-10T08:18:36Z</time>
      </trkpt>
      <trkpt lat="47.17562" lon="6.20483">
        <ele>581.5</ele>
        <time>2022-08-10T08:18:37Z</time>
      </trkpt>
      <trkpt lat="47.17564" lon="6.20481">
        <ele>581.7</ele>
        <time>2022-08-10T08:18:38Z</time>
      </trkpt>
      <trkpt lat="47.17566" lon="6.20478">
        <ele>582</ele>
        <time>2022-08-10T08:18:39Z</time>
      </trkpt>
      <trkpt lat="47.17567" lon="6.20474">
        <ele>582.2</ele>
        <time>2022-08-10T08:18:40Z</time>
      </trkpt>
      <trkpt lat="47.17568" lon="6.20471">
        <ele>582</ele>
        <time>2022-08-10T08:18:41Z</time>
      </trkpt>
      <trkpt lat="47.17569" lon="6.20467">
        <ele>582</ele>
        <time>2022-08-10T08:18:42Z</time>
      </trkpt>
      <trkpt lat="47.1757" lon="6.20463">
        <ele>581.8</ele>
        <time>2022-08-10T08:18:43Z</time>
      </trkpt>
      <trkpt lat="47.17572" lon="6.20458">
        <ele>581.4</ele>
        <time>2022-08-10T08:18:44Z</time>
      </trkpt>
      <trkpt lat="47.17573" lon="6.20453">
        <ele>581</ele>
        <time>2022-08-10T08:18:45Z</time>
      </trkpt>
      <trkpt lat="47.17575" lon="6.20447">
        <ele>580.5</ele>
        <time>2022-08-10T08:18:46Z</time>
      </trkpt>
      <trkpt lat="47.17576" lon="6.2044">
        <ele>580.5</ele>
        <time>2022-08-10T08:18:47Z</time>
      </trkpt>
      <trkpt lat="47.17578" lon="6.20434">
        <ele>579.9</ele>
        <time>2022-08-10T08:18:48Z</time>
      </trkpt>
      <trkpt lat="47.17579" lon="6.20429">
        <ele>579.3</ele>
        <time>2022-08-10T08:18:49Z</time>
      </trkpt>
      <trkpt lat="47.17582" lon="6.20424">
        <ele>579.1</ele>
        <time>2022-08-10T08:18:50Z</time>
      </trkpt>
      <trkpt lat="47.17583" lon="6.2042">
        <ele>578.4</ele>
        <time>2022-08-10T08:18:51Z</time>
      </trkpt>
      <trkpt lat="47.17584" lon="6.20415">
        <ele>578.3</ele>
        <time>2022-08-10T08:18:52Z</time>
      </trkpt>
      <trkpt lat="47.17586" lon="6.20411">
        <ele>578.3</ele>
        <time>2022-08-10T08:18:53Z</time>
      </trkpt>
      <trkpt lat="47.17588" lon="6.20408">
        <ele>577.6</ele>
        <time>2022-08-10T08:18:54Z</time>
      </trkpt>
      <trkpt lat="47.1759" lon="6.20406">
        <ele>577.3</ele>
        <time>2022-08-10T08:18:55Z</time>
      </trkpt>
      <trkpt lat="47.17592" lon="6.20404">
        <ele>577.2</ele>
        <time>2022-08-10T08:18:56Z</time>
      </trkpt>
      <trkpt lat="47.17594" lon="6.20403">
        <ele>577</ele>
        <time>2022-08-10T08:18:57Z</time>
      </trkpt>
      <trkpt lat="47.17595" lon="6.20401">
        <ele>576.6</ele>
        <time>2022-08-10T08:18:58Z</time>
      </trkpt>
      <trkpt lat="47.17597" lon="6.204">
        <ele>576.6</ele>
        <time>2022-08-10T08:18:59Z</time>
      </trkpt>
      <trkpt lat="47.17598" lon="6.20399">
        <ele>576.7</ele>
        <time>2022-08-10T08:19:00Z</time>
      </trkpt>
      <trkpt lat="47.176" lon="6.20398">
        <ele>576.6</ele>
        <time>2022-08-10T08:19:01Z</time>
      </trkpt>
      <trkpt lat="47.17602" lon="6.20396">
        <ele>576.7</ele>
        <time>2022-08-10T08:19:02Z</time>
      </trkpt>
      <trkpt lat="47.17605" lon="6.20395">
        <ele>576.8</ele>
        <time>2022-08-10T08:19:03Z</time>
      </trkpt>
      <trkpt lat="47.17607" lon="6.20392">
        <ele>576.6</ele>
        <time>2022-08-10T08:19:04Z</time>
      </trkpt>
      <trkpt lat="47.17609" lon="6.20389">
        <ele>576.2</ele>
        <time>2022-08-10T08:19:05Z</time>
      </trkpt>
      <trkpt lat="47.17611" lon="6.20388">
        <ele>575.8</ele>
        <time>2022-08-10T08:19:06Z</time>
      </trkpt>
      <trkpt lat="47.17614" lon="6.20386">
        <ele>575.5</ele>
        <time>2022-08-10T08:19:07Z</time>
      </trkpt>
      <trkpt lat="47.17616" lon="6.20383">
        <ele>575.1</ele>
        <time>2022-08-10T08:19:08Z</time>
      </trkpt>
      <trkpt lat="47.17619" lon="6.20381">
        <ele>575</ele>
        <time>2022-08-10T08:19:09Z</time>
      </trkpt>
      <trkpt lat="47.17621" lon="6.20379">
        <ele>575</ele>
        <time>2022-08-10T08:19:10Z</time>
      </trkpt>
      <trkpt lat="47.17624" lon="6.20377">
        <ele>574.7</ele>
        <time>2022-08-10T08:19:11Z</time>
      </trkpt>
      <trkpt lat="47.17626" lon="6.20375">
        <ele>574.7</ele>
        <time>2022-08-10T08:19:12Z</time>
      </trkpt>
      <trkpt lat="47.17628" lon="6.20373">
        <ele>574.6</ele>
        <time>2022-08-10T08:19:13Z</time>
      </trkpt>
      <trkpt lat="47.1763" lon="6.20371">
        <ele>574.1</ele>
        <time>2022-08-10T08:19:14Z</time>
      </trkpt>
      <trkpt lat="47.17632" lon="6.2037">
        <ele>573.8</ele>
        <time>2022-08-10T08:19:15Z</time>
      </trkpt>
      <trkpt lat="47.17634" lon="6.20369">
        <ele>573.5</ele>
        <time>2022-08-10T08:19:16Z</time>
      </trkpt>
      <trkpt lat="47.17636" lon="6.20367">
        <ele>573.3</ele>
        <time>2022-08-10T08:19:17Z</time>
      </trkpt>
      <trkpt lat="47.17637" lon="6.20367">
        <ele>573.1</ele>
        <time>2022-08-10T08:19:18Z</time>
      </trkpt>
      <trkpt lat="47.17639" lon="6.20366">
        <ele>572.8</ele>
        <time>2022-08-10T08:19:19Z</time>
      </trkpt>
      <trkpt lat="47.1764" lon="6.20364">
        <ele>573</ele>
        <time>2022-08-10T08:19:20Z</time>
      </trkpt>
      <trkpt lat="47.17642" lon="6.20363">
        <ele>572.8</ele>
        <time>2022-08-10T08:19:21Z</time>
      </trkpt>
      <trkpt lat="47.17644" lon="6.20361">
        <ele>572.9</ele>
        <time>2022-08-10T08:19:22Z</time>
      </trkpt>
      <trkpt lat="47.17646" lon="6.2036">
        <ele>573.1</ele>
        <time>2022-08-10T08:19:23Z</time>
      </trkpt>
      <trkpt lat="47.17648" lon="6.20359">
        <ele>573.2</ele>
        <time>2022-08-10T08:19:24Z</time>
      </trkpt>
      <trkpt lat="47.17649" lon="6.20359">
        <ele>573.3</ele>
        <time>2022-08-10T08:19:25Z</time>
      </trkpt>
      <trkpt lat="47.17651" lon="6.20358">
        <ele>573.4</ele>
        <time>2022-08-10T08:19:26Z</time>
      </trkpt>
      <trkpt lat="47.17652" lon="6.20357">
        <ele>573.7</ele>
        <time>2022-08-10T08:19:27Z</time>
      </trkpt>
      <trkpt lat="47.17653" lon="6.20355">
        <ele>574.3</ele>
        <time>2022-08-10T08:19:28Z</time>
      </trkpt>
      <trkpt lat="47.17655" lon="6.20354">
        <ele>574.7</ele>
        <time>2022-08-10T08:19:29Z</time>
      </trkpt>
      <trkpt lat="47.17657" lon="6.20352">
        <ele>574.8</ele>
        <time>2022-08-10T08:19:30Z</time>
      </trkpt>
      <trkpt lat="47.1766" lon="6.2035">
        <ele>575</ele>
        <time>2022-08-10T08:19:31Z</time>
      </trkpt>
      <trkpt lat="47.17662" lon="6.20349">
        <ele>575.2</ele>
        <time>2022-08-10T08:19:32Z</time>
      </trkpt>
      <trkpt lat="47.17664" lon="6.20347">
        <ele>575.3</ele>
        <time>2022-08-10T08:19:33Z</time>
      </trkpt>
      <trkpt lat="47.17666" lon="6.20343">
        <ele>575.2</ele>
        <time>2022-08-10T08:19:34Z</time>
      </trkpt>
      <trkpt lat="47.17669" lon="6.20339">
        <ele>575</ele>
        <time>2022-08-10T08:19:35Z</time>
      </trkpt>
      <trkpt lat="47.17671" lon="6.20335">
        <ele>574.9</ele>
        <time>2022-08-10T08:19:36Z</time>
      </trkpt>
      <trkpt lat="47.17675" lon="6.20329">
        <ele>574.4</ele>
        <time>2022-08-10T08:19:37Z</time>
      </trkpt>
      <trkpt lat="47.17678" lon="6.20325">
        <ele>574.4</ele>
        <time>2022-08-10T08:19:38Z</time>
      </trkpt>
      <trkpt lat="47.17681" lon="6.20319">
        <ele>574.5</ele>
        <time>2022-08-10T08:19:39Z</time>
      </trkpt>
      <trkpt lat="47.17683" lon="6.20314">
        <ele>574.5</ele>
        <time>2022-08-10T08:19:40Z</time>
      </trkpt>
      <trkpt lat="47.17686" lon="6.20309">
        <ele>574.5</ele>
        <time>2022-08-10T08:19:41Z</time>
      </trkpt>
      <trkpt lat="47.17687" lon="6.20305">
        <ele>574.8</ele>
        <time>2022-08-10T08:19:42Z</time>
      </trkpt>
      <trkpt lat="47.17689" lon="6.20301">
        <ele>575.3</ele>
        <time>2022-08-10T08:19:43Z</time>
      </trkpt>
      <trkpt lat="47.1769" lon="6.20298">
        <ele>575.5</ele>
        <time>2022-08-10T08:19:44Z</time>
      </trkpt>
      <trkpt lat="47.17692" lon="6.20295">
        <ele>575.9</ele>
        <time>2022-08-10T08:19:45Z</time>
      </trkpt>
      <trkpt lat="47.17694" lon="6.20292">
        <ele>576.4</ele>
        <time>2022-08-10T08:19:46Z</time>
      </trkpt>
      <trkpt lat="47.17695" lon="6.20288">
        <ele>576.9</ele>
        <time>2022-08-10T08:19:47Z</time>
      </trkpt>
      <trkpt lat="47.17697" lon="6.20285">
        <ele>577.2</ele>
        <time>2022-08-10T08:19:48Z</time>
      </trkpt>
      <trkpt lat="47.17698" lon="6.20281">
        <ele>577.4</ele>
        <time>2022-08-10T08:19:49Z</time>
      </trkpt>
      <trkpt lat="47.17699" lon="6.20278">
        <ele>577.8</ele>
        <time>2022-08-10T08:19:50Z</time>
      </trkpt>
      <trkpt lat="47.17701" lon="6.20275">
        <ele>578.6</ele>
        <time>2022-08-10T08:19:51Z</time>
      </trkpt>
      <trkpt lat="47.17702" lon="6.20272">
        <ele>579</ele>
        <time>2022-08-10T08:19:52Z</time>
      </trkpt>
      <trkpt lat="47.17704" lon="6.20268">
        <ele>579.3</ele>
        <time>2022-08-10T08:19:53Z</time>
      </trkpt>
      <trkpt lat="47.17705" lon="6.20265">
        <ele>579.3</ele>
        <time>2022-08-10T08:19:54Z</time>
      </trkpt>
      <trkpt lat="47.17706" lon="6.20263">
        <ele>579.2</ele>
        <time>2022-08-10T08:19:55Z</time>
      </trkpt>
      <trkpt lat="47.17708" lon="6.2026">
        <ele>579.4</ele>
        <time>2022-08-10T08:19:56Z</time>
      </trkpt>
      <trkpt lat="47.1771" lon="6.20258">
        <ele>579.4</ele>
        <time>2022-08-10T08:19:57Z</time>
      </trkpt>
      <trkpt lat="47.17712" lon="6.20255">
        <ele>580.2</ele>
        <time>2022-08-10T08:19:58Z</time>
      </trkpt>
      <trkpt lat="47.17714" lon="6.20252">
        <ele>580.7</ele>
        <time>2022-08-10T08:19:59Z</time>
      </trkpt>
      <trkpt lat="47.17716" lon="6.20249">
        <ele>581.2</ele>
        <time>2022-08-10T08:20:00Z</time>
      </trkpt>
      <trkpt lat="47.17718" lon="6.20246">
        <ele>581.7</ele>
        <time>2022-08-10T08:20:01Z</time>
      </trkpt>
      <trkpt lat="47.1772" lon="6.20243">
        <ele>582.1</ele>
        <time>2022-08-10T08:20:02Z</time>
      </trkpt>
      <trkpt lat="47.17722" lon="6.2024">
        <ele>582.7</ele>
        <time>2022-08-10T08:20:03Z</time>
      </trkpt>
      <trkpt lat="47.17725" lon="6.20236">
        <ele>583.6</ele>
        <time>2022-08-10T08:20:04Z</time>
      </trkpt>
      <trkpt lat="47.17727" lon="6.20233">
        <ele>584.3</ele>
        <time>2022-08-10T08:20:05Z</time>
      </trkpt>
      <trkpt lat="47.1773" lon="6.20229">
        <ele>585</ele>
        <time>2022-08-10T08:20:06Z</time>
      </trkpt>
      <trkpt lat="47.17732" lon="6.20225">
        <ele>585.1</ele>
        <time>2022-08-10T08:20:07Z</time>
      </trkpt>
      <trkpt lat="47.17735" lon="6.20221">
        <ele>585.2</ele>
        <time>2022-08-10T08:20:08Z</time>
      </trkpt>
      <trkpt lat="47.17737" lon="6.20216">
        <ele>585.3</ele>
        <time>2022-08-10T08:20:09Z</time>
      </trkpt>
      <trkpt lat="47.17739" lon="6.20211">
        <ele>585.1</ele>
        <time>2022-08-10T08:20:10Z</time>
      </trkpt>
      <trkpt lat="47.17741" lon="6.20206">
        <ele>585.3</ele>
        <time>2022-08-10T08:20:11Z</time>
      </trkpt>
      <trkpt lat="47.17744" lon="6.202">
        <ele>585.8</ele>
        <time>2022-08-10T08:20:12Z</time>
      </trkpt>
      <trkpt lat="47.17746" lon="6.20193">
        <ele>586</ele>
        <time>2022-08-10T08:20:13Z</time>
      </trkpt>
      <trkpt lat="47.17749" lon="6.20186">
        <ele>586.4</ele>
        <time>2022-08-10T08:20:14Z</time>
      </trkpt>
      <trkpt lat="47.17751" lon="6.20178">
        <ele>586.8</ele>
        <time>2022-08-10T08:20:15Z</time>
      </trkpt>
      <trkpt lat="47.17754" lon="6.20171">
        <ele>587</ele>
        <time>2022-08-10T08:20:16Z</time>
      </trkpt>
      <trkpt lat="47.17756" lon="6.20164">
        <ele>587.3</ele>
        <time>2022-08-10T08:20:17Z</time>
      </trkpt>
      <trkpt lat="47.17759" lon="6.20156">
        <ele>587.6</ele>
        <time>2022-08-10T08:20:18Z</time>
      </trkpt>
      <trkpt lat="47.17763" lon="6.2015">
        <ele>587.9</ele>
        <time>2022-08-10T08:20:19Z</time>
      </trkpt>
      <trkpt lat="47.17766" lon="6.20142">
        <ele>588.2</ele>
        <time>2022-08-10T08:20:20Z</time>
      </trkpt>
      <trkpt lat="47.1777" lon="6.20134">
        <ele>588</ele>
        <time>2022-08-10T08:20:21Z</time>
      </trkpt>
      <trkpt lat="47.17774" lon="6.20126">
        <ele>587.9</ele>
        <time>2022-08-10T08:20:22Z</time>
      </trkpt>
      <trkpt lat="47.17776" lon="6.20117">
        <ele>587.7</ele>
        <time>2022-08-10T08:20:23Z</time>
      </trkpt>
      <trkpt lat="47.1778" lon="6.20108">
        <ele>587.4</ele>
        <time>2022-08-10T08:20:24Z</time>
      </trkpt>
      <trkpt lat="47.17783" lon="6.20099">
        <ele>587.3</ele>
        <time>2022-08-10T08:20:25Z</time>
      </trkpt>
      <trkpt lat="47.17786" lon="6.20091">
        <ele>587.3</ele>
        <time>2022-08-10T08:20:26Z</time>
      </trkpt>
      <trkpt lat="47.1779" lon="6.20082">
        <ele>587.5</ele>
        <time>2022-08-10T08:20:27Z</time>
      </trkpt>
      <trkpt lat="47.17794" lon="6.20073">
        <ele>587.9</ele>
        <time>2022-08-10T08:20:28Z</time>
      </trkpt>
      <trkpt lat="47.17798" lon="6.20066">
        <ele>587.6</ele>
        <time>2022-08-10T08:20:29Z</time>
      </trkpt>
      <trkpt lat="47.17802" lon="6.20058">
        <ele>587.6</ele>
        <time>2022-08-10T08:20:30Z</time>
      </trkpt>
      <trkpt lat="47.17806" lon="6.2005">
        <ele>587.6</ele>
        <time>2022-08-10T08:20:31Z</time>
      </trkpt>
      <trkpt lat="47.17811" lon="6.20042">
        <ele>587.4</ele>
        <time>2022-08-10T08:20:32Z</time>
      </trkpt>
      <trkpt lat="47.17815" lon="6.20034">
        <ele>587.7</ele>
        <time>2022-08-10T08:20:33Z</time>
      </trkpt>
      <trkpt lat="47.1782" lon="6.20027">
        <ele>587.9</ele>
        <time>2022-08-10T08:20:34Z</time>
      </trkpt>
      <trkpt lat="47.17825" lon="6.20021">
        <ele>588</ele>
        <time>2022-08-10T08:20:35Z</time>
      </trkpt>
      <trkpt lat="47.17831" lon="6.20016">
        <ele>587.7</ele>
        <time>2022-08-10T08:20:36Z</time>
      </trkpt>
      <trkpt lat="47.17837" lon="6.20012">
        <ele>587.2</ele>
        <time>2022-08-10T08:20:37Z</time>
      </trkpt>
      <trkpt lat="47.17845" lon="6.20007">
        <ele>586.8</ele>
        <time>2022-08-10T08:20:38Z</time>
      </trkpt>
      <trkpt lat="47.17853" lon="6.20003">
        <ele>586.4</ele>
        <time>2022-08-10T08:20:39Z</time>
      </trkpt>
      <trkpt lat="47.17865" lon="6.19991">
        <ele>582.1</ele>
        <time>2022-08-10T08:20:40Z</time>
      </trkpt>
      <trkpt lat="47.17873" lon="6.19987">
        <ele>581.3</ele>
        <time>2022-08-10T08:20:41Z</time>
      </trkpt>
      <trkpt lat="47.1788" lon="6.19983">
        <ele>580.9</ele>
        <time>2022-08-10T08:20:42Z</time>
      </trkpt>
      <trkpt lat="47.17887" lon="6.19979">
        <ele>580.5</ele>
        <time>2022-08-10T08:20:43Z</time>
      </trkpt>
      <trkpt lat="47.17894" lon="6.19975">
        <ele>579.9</ele>
        <time>2022-08-10T08:20:44Z</time>
      </trkpt>
      <trkpt lat="47.17902" lon="6.19972">
        <ele>578.9</ele>
        <time>2022-08-10T08:20:45Z</time>
      </trkpt>
      <trkpt lat="47.17909" lon="6.1997">
        <ele>578.1</ele>
        <time>2022-08-10T08:20:46Z</time>
      </trkpt>
      <trkpt lat="47.17915" lon="6.19968">
        <ele>576.8</ele>
        <time>2022-08-10T08:20:47Z</time>
      </trkpt>
      <trkpt lat="47.17923" lon="6.19965">
        <ele>575.5</ele>
        <time>2022-08-10T08:20:48Z</time>
      </trkpt>
      <trkpt lat="47.17929" lon="6.19964">
        <ele>575</ele>
        <time>2022-08-10T08:20:49Z</time>
      </trkpt>
      <trkpt lat="47.17935" lon="6.19962">
        <ele>574.3</ele>
        <time>2022-08-10T08:20:50Z</time>
      </trkpt>
      <trkpt lat="47.1794" lon="6.1996">
        <ele>574.2</ele>
        <time>2022-08-10T08:20:51Z</time>
      </trkpt>
      <trkpt lat="47.17945" lon="6.19957">
        <ele>574.1</ele>
        <time>2022-08-10T08:20:52Z</time>
      </trkpt>
      <trkpt lat="47.1795" lon="6.19955">
        <ele>574.1</ele>
        <time>2022-08-10T08:20:53Z</time>
      </trkpt>
      <trkpt lat="47.17954" lon="6.19951">
        <ele>574.1</ele>
        <time>2022-08-10T08:20:54Z</time>
      </trkpt>
      <trkpt lat="47.17959" lon="6.19946">
        <ele>573.9</ele>
        <time>2022-08-10T08:20:55Z</time>
      </trkpt>
      <trkpt lat="47.17963" lon="6.19941">
        <ele>573.6</ele>
        <time>2022-08-10T08:20:56Z</time>
      </trkpt>
      <trkpt lat="47.17967" lon="6.19935">
        <ele>573.5</ele>
        <time>2022-08-10T08:20:57Z</time>
      </trkpt>
      <trkpt lat="47.17971" lon="6.1993">
        <ele>572.7</ele>
        <time>2022-08-10T08:20:58Z</time>
      </trkpt>
      <trkpt lat="47.17975" lon="6.19925">
        <ele>571.6</ele>
        <time>2022-08-10T08:20:59Z</time>
      </trkpt>
      <trkpt lat="47.17978" lon="6.1992">
        <ele>570.6</ele>
        <time>2022-08-10T08:21:00Z</time>
      </trkpt>
      <trkpt lat="47.17982" lon="6.19916">
        <ele>569.5</ele>
        <time>2022-08-10T08:21:01Z</time>
      </trkpt>
      <trkpt lat="47.17985" lon="6.19911">
        <ele>568.5</ele>
        <time>2022-08-10T08:21:02Z</time>
      </trkpt>
      <trkpt lat="47.17988" lon="6.19906">
        <ele>567.8</ele>
        <time>2022-08-10T08:21:03Z</time>
      </trkpt>
      <trkpt lat="47.17992" lon="6.19902">
        <ele>567.1</ele>
        <time>2022-08-10T08:21:04Z</time>
      </trkpt>
      <trkpt lat="47.17995" lon="6.19897">
        <ele>566.1</ele>
        <time>2022-08-10T08:21:05Z</time>
      </trkpt>
      <trkpt lat="47.17999" lon="6.19892">
        <ele>565</ele>
        <time>2022-08-10T08:21:06Z</time>
      </trkpt>
      <trkpt lat="47.18002" lon="6.19886">
        <ele>563.9</ele>
        <time>2022-08-10T08:21:07Z</time>
      </trkpt>
      <trkpt lat="47.18007" lon="6.19881">
        <ele>563.1</ele>
        <time>2022-08-10T08:21:08Z</time>
      </trkpt>
      <trkpt lat="47.18011" lon="6.19877">
        <ele>562.4</ele>
        <time>2022-08-10T08:21:09Z</time>
      </trkpt>
      <trkpt lat="47.18016" lon="6.19873">
        <ele>561.3</ele>
        <time>2022-08-10T08:21:10Z</time>
      </trkpt>
      <trkpt lat="47.18021" lon="6.1987">
        <ele>559.9</ele>
        <time>2022-08-10T08:21:11Z</time>
      </trkpt>
      <trkpt lat="47.18025" lon="6.19866">
        <ele>559.2</ele>
        <time>2022-08-10T08:21:12Z</time>
      </trkpt>
      <trkpt lat="47.18028" lon="6.19862">
        <ele>558.2</ele>
        <time>2022-08-10T08:21:13Z</time>
      </trkpt>
      <trkpt lat="47.18032" lon="6.19857">
        <ele>557.2</ele>
        <time>2022-08-10T08:21:14Z</time>
      </trkpt>
      <trkpt lat="47.18035" lon="6.19852">
        <ele>556.7</ele>
        <time>2022-08-10T08:21:15Z</time>
      </trkpt>
      <trkpt lat="47.18039" lon="6.19847">
        <ele>556.2</ele>
        <time>2022-08-10T08:21:16Z</time>
      </trkpt>
      <trkpt lat="47.18042" lon="6.19842">
        <ele>555.7</ele>
        <time>2022-08-10T08:21:17Z</time>
      </trkpt>
      <trkpt lat="47.18045" lon="6.19837">
        <ele>555.1</ele>
        <time>2022-08-10T08:21:18Z</time>
      </trkpt>
      <trkpt lat="47.18048" lon="6.19831">
        <ele>554.6</ele>
        <time>2022-08-10T08:21:19Z</time>
      </trkpt>
      <trkpt lat="47.1805" lon="6.19825">
        <ele>554.1</ele>
        <time>2022-08-10T08:21:20Z</time>
      </trkpt>
      <trkpt lat="47.18052" lon="6.19818">
        <ele>553.6</ele>
        <time>2022-08-10T08:21:21Z</time>
      </trkpt>
      <trkpt lat="47.18052" lon="6.19812">
        <ele>553.2</ele>
        <time>2022-08-10T08:21:22Z</time>
      </trkpt>
      <trkpt lat="47.18053" lon="6.19805">
        <ele>552.7</ele>
        <time>2022-08-10T08:21:23Z</time>
      </trkpt>
      <trkpt lat="47.18054" lon="6.19797">
        <ele>552.2</ele>
        <time>2022-08-10T08:21:24Z</time>
      </trkpt>
      <trkpt lat="47.18055" lon="6.19788">
        <ele>551.5</ele>
        <time>2022-08-10T08:21:25Z</time>
      </trkpt>
      <trkpt lat="47.18056" lon="6.19779">
        <ele>550.9</ele>
        <time>2022-08-10T08:21:26Z</time>
      </trkpt>
      <trkpt lat="47.18058" lon="6.19769">
        <ele>550.7</ele>
        <time>2022-08-10T08:21:27Z</time>
      </trkpt>
      <trkpt lat="47.18061" lon="6.19761">
        <ele>550.5</ele>
        <time>2022-08-10T08:21:28Z</time>
      </trkpt>
      <trkpt lat="47.18065" lon="6.19754">
        <ele>550.3</ele>
        <time>2022-08-10T08:21:29Z</time>
      </trkpt>
      <trkpt lat="47.18069" lon="6.19748">
        <ele>550.4</ele>
        <time>2022-08-10T08:21:30Z</time>
      </trkpt>
      <trkpt lat="47.18073" lon="6.19744">
        <ele>550.3</ele>
        <time>2022-08-10T08:21:31Z</time>
      </trkpt>
      <trkpt lat="47.1808" lon="6.19738">
        <ele>549.1</ele>
        <time>2022-08-10T08:21:32Z</time>
      </trkpt>
      <trkpt lat="47.18084" lon="6.19735">
        <ele>548.9</ele>
        <time>2022-08-10T08:21:33Z</time>
      </trkpt>
      <trkpt lat="47.18088" lon="6.19732">
        <ele>548.6</ele>
        <time>2022-08-10T08:21:34Z</time>
      </trkpt>
      <trkpt lat="47.18093" lon="6.19729">
        <ele>548.2</ele>
        <time>2022-08-10T08:21:35Z</time>
      </trkpt>
      <trkpt lat="47.18097" lon="6.19725">
        <ele>547.4</ele>
        <time>2022-08-10T08:21:36Z</time>
      </trkpt>
      <trkpt lat="47.18102" lon="6.19722">
        <ele>546.9</ele>
        <time>2022-08-10T08:21:37Z</time>
      </trkpt>
      <trkpt lat="47.18107" lon="6.19718">
        <ele>546.4</ele>
        <time>2022-08-10T08:21:38Z</time>
      </trkpt>
      <trkpt lat="47.18113" lon="6.19715">
        <ele>545.8</ele>
        <time>2022-08-10T08:21:39Z</time>
      </trkpt>
      <trkpt lat="47.18119" lon="6.19713">
        <ele>545.2</ele>
        <time>2022-08-10T08:21:40Z</time>
      </trkpt>
      <trkpt lat="47.18124" lon="6.19711">
        <ele>544.7</ele>
        <time>2022-08-10T08:21:41Z</time>
      </trkpt>
      <trkpt lat="47.18129" lon="6.19709">
        <ele>544.4</ele>
        <time>2022-08-10T08:21:42Z</time>
      </trkpt>
      <trkpt lat="47.18135" lon="6.19707">
        <ele>544.3</ele>
        <time>2022-08-10T08:21:43Z</time>
      </trkpt>
      <trkpt lat="47.1814" lon="6.19706">
        <ele>543.9</ele>
        <time>2022-08-10T08:21:44Z</time>
      </trkpt>
      <trkpt lat="47.18145" lon="6.19705">
        <ele>543.5</ele>
        <time>2022-08-10T08:21:45Z</time>
      </trkpt>
      <trkpt lat="47.18151" lon="6.19703">
        <ele>543.4</ele>
        <time>2022-08-10T08:21:46Z</time>
      </trkpt>
      <trkpt lat="47.18155" lon="6.19701">
        <ele>543.3</ele>
        <time>2022-08-10T08:21:47Z</time>
      </trkpt>
      <trkpt lat="47.1816" lon="6.19699">
        <ele>543.1</ele>
        <time>2022-08-10T08:21:48Z</time>
      </trkpt>
      <trkpt lat="47.18164" lon="6.19697">
        <ele>543.2</ele>
        <time>2022-08-10T08:21:49Z</time>
      </trkpt>
      <trkpt lat="47.18168" lon="6.19696">
        <ele>543.2</ele>
        <time>2022-08-10T08:21:50Z</time>
      </trkpt>
      <trkpt lat="47.18172" lon="6.19693">
        <ele>543.3</ele>
        <time>2022-08-10T08:21:51Z</time>
      </trkpt>
      <trkpt lat="47.18176" lon="6.19691">
        <ele>543.7</ele>
        <time>2022-08-10T08:21:52Z</time>
      </trkpt>
      <trkpt lat="47.1818" lon="6.19688">
        <ele>543.9</ele>
        <time>2022-08-10T08:21:53Z</time>
      </trkpt>
      <trkpt lat="47.18183" lon="6.19686">
        <ele>544.1</ele>
        <time>2022-08-10T08:21:54Z</time>
      </trkpt>
      <trkpt lat="47.18187" lon="6.19684">
        <ele>544</ele>
        <time>2022-08-10T08:21:55Z</time>
      </trkpt>
      <trkpt lat="47.1819" lon="6.19681">
        <ele>544.4</ele>
        <time>2022-08-10T08:21:56Z</time>
      </trkpt>
      <trkpt lat="47.18193" lon="6.19678">
        <ele>544.1</ele>
        <time>2022-08-10T08:21:57Z</time>
      </trkpt>
      <trkpt lat="47.18197" lon="6.19676">
        <ele>544</ele>
        <time>2022-08-10T08:21:58Z</time>
      </trkpt>
      <trkpt lat="47.18202" lon="6.19673">
        <ele>543.6</ele>
        <time>2022-08-10T08:21:59Z</time>
      </trkpt>
      <trkpt lat="47.18206" lon="6.19671">
        <ele>543.3</ele>
        <time>2022-08-10T08:22:00Z</time>
      </trkpt>
      <trkpt lat="47.1821" lon="6.1967">
        <ele>543.3</ele>
        <time>2022-08-10T08:22:01Z</time>
      </trkpt>
      <trkpt lat="47.18214" lon="6.1967">
        <ele>543.2</ele>
        <time>2022-08-10T08:22:02Z</time>
      </trkpt>
      <trkpt lat="47.18218" lon="6.1967">
        <ele>543.4</ele>
        <time>2022-08-10T08:22:03Z</time>
      </trkpt>
      <trkpt lat="47.18222" lon="6.19669">
        <ele>543.7</ele>
        <time>2022-08-10T08:22:04Z</time>
      </trkpt>
      <trkpt lat="47.18226" lon="6.19669">
        <ele>544</ele>
        <time>2022-08-10T08:22:05Z</time>
      </trkpt>
      <trkpt lat="47.18229" lon="6.1967">
        <ele>544.3</ele>
        <time>2022-08-10T08:22:06Z</time>
      </trkpt>
      <trkpt lat="47.18232" lon="6.1967">
        <ele>544.4</ele>
        <time>2022-08-10T08:22:07Z</time>
      </trkpt>
      <trkpt lat="47.18235" lon="6.1967">
        <ele>544.7</ele>
        <time>2022-08-10T08:22:08Z</time>
      </trkpt>
      <trkpt lat="47.18237" lon="6.19671">
        <ele>545.3</ele>
        <time>2022-08-10T08:22:09Z</time>
      </trkpt>
      <trkpt lat="47.1824" lon="6.1967">
        <ele>545.7</ele>
        <time>2022-08-10T08:22:10Z</time>
      </trkpt>
      <trkpt lat="47.18243" lon="6.19669">
        <ele>546.6</ele>
        <time>2022-08-10T08:22:11Z</time>
      </trkpt>
      <trkpt lat="47.18246" lon="6.19666">
        <ele>547.3</ele>
        <time>2022-08-10T08:22:12Z</time>
      </trkpt>
      <trkpt lat="47.18248" lon="6.19663">
        <ele>547.7</ele>
        <time>2022-08-10T08:22:13Z</time>
      </trkpt>
      <trkpt lat="47.18249" lon="6.19661">
        <ele>548.1</ele>
        <time>2022-08-10T08:22:14Z</time>
      </trkpt>
      <trkpt lat="47.18249" lon="6.19659">
        <ele>548.7</ele>
        <time>2022-08-10T08:22:15Z</time>
      </trkpt>
      <trkpt lat="47.1825" lon="6.19657">
        <ele>549.2</ele>
        <time>2022-08-10T08:22:16Z</time>
      </trkpt>
      <trkpt lat="47.1825" lon="6.19654">
        <ele>549.7</ele>
        <time>2022-08-10T08:22:17Z</time>
      </trkpt>
      <trkpt lat="47.18251" lon="6.1965">
        <ele>549.9</ele>
        <time>2022-08-10T08:22:18Z</time>
      </trkpt>
      <trkpt lat="47.18252" lon="6.19646">
        <ele>550.6</ele>
        <time>2022-08-10T08:22:19Z</time>
      </trkpt>
      <trkpt lat="47.18251" lon="6.19642">
        <ele>551</ele>
        <time>2022-08-10T08:22:20Z</time>
      </trkpt>
      <trkpt lat="47.18252" lon="6.19637">
        <ele>551.2</ele>
        <time>2022-08-10T08:22:21Z</time>
      </trkpt>
      <trkpt lat="47.18252" lon="6.19632">
        <ele>551.1</ele>
        <time>2022-08-10T08:22:22Z</time>
      </trkpt>
      <trkpt lat="47.18252" lon="6.19628">
        <ele>551.8</ele>
        <time>2022-08-10T08:22:23Z</time>
      </trkpt>
      <trkpt lat="47.18251" lon="6.19622">
        <ele>552.6</ele>
        <time>2022-08-10T08:22:24Z</time>
      </trkpt>
      <trkpt lat="47.18251" lon="6.19618">
        <ele>553</ele>
        <time>2022-08-10T08:22:25Z</time>
      </trkpt>
      <trkpt lat="47.18251" lon="6.19613">
        <ele>553.6</ele>
        <time>2022-08-10T08:22:26Z</time>
      </trkpt>
      <trkpt lat="47.18252" lon="6.19608">
        <ele>554.3</ele>
        <time>2022-08-10T08:22:27Z</time>
      </trkpt>
      <trkpt lat="47.18254" lon="6.19595">
        <ele>556.2</ele>
        <time>2022-08-10T08:22:29Z</time>
      </trkpt>
      <trkpt lat="47.18255" lon="6.1959">
        <ele>557.2</ele>
        <time>2022-08-10T08:22:30Z</time>
      </trkpt>
      <trkpt lat="47.18257" lon="6.19582">
        <ele>557.4</ele>
        <time>2022-08-10T08:22:31Z</time>
      </trkpt>
      <trkpt lat="47.18257" lon="6.19574">
        <ele>558.1</ele>
        <time>2022-08-10T08:22:32Z</time>
      </trkpt>
      <trkpt lat="47.18257" lon="6.19566">
        <ele>558.7</ele>
        <time>2022-08-10T08:22:33Z</time>
      </trkpt>
      <trkpt lat="47.18257" lon="6.19559">
        <ele>559.5</ele>
        <time>2022-08-10T08:22:34Z</time>
      </trkpt>
      <trkpt lat="47.18257" lon="6.19551">
        <ele>559.8</ele>
        <time>2022-08-10T08:22:35Z</time>
      </trkpt>
      <trkpt lat="47.18257" lon="6.19546">
        <ele>560.1</ele>
        <time>2022-08-10T08:22:36Z</time>
      </trkpt>
      <trkpt lat="47.18259" lon="6.19537">
        <ele>560.6</ele>
        <time>2022-08-10T08:22:37Z</time>
      </trkpt>
      <trkpt lat="47.18259" lon="6.19529">
        <ele>560.4</ele>
        <time>2022-08-10T08:22:38Z</time>
      </trkpt>
      <trkpt lat="47.18259" lon="6.19521">
        <ele>560.2</ele>
        <time>2022-08-10T08:22:39Z</time>
      </trkpt>
      <trkpt lat="47.18259" lon="6.19514">
        <ele>560.1</ele>
        <time>2022-08-10T08:22:40Z</time>
      </trkpt>
      <trkpt lat="47.18259" lon="6.19507">
        <ele>560.6</ele>
        <time>2022-08-10T08:22:41Z</time>
      </trkpt>
      <trkpt lat="47.18259" lon="6.195">
        <ele>561</ele>
        <time>2022-08-10T08:22:42Z</time>
      </trkpt>
      <trkpt lat="47.18259" lon="6.19494">
        <ele>561.3</ele>
        <time>2022-08-10T08:22:43Z</time>
      </trkpt>
      <trkpt lat="47.18259" lon="6.19488">
        <ele>561.4</ele>
        <time>2022-08-10T08:22:44Z</time>
      </trkpt>
      <trkpt lat="47.18261" lon="6.19482">
        <ele>561.3</ele>
        <time>2022-08-10T08:22:45Z</time>
      </trkpt>
      <trkpt lat="47.18262" lon="6.19475">
        <ele>561.4</ele>
        <time>2022-08-10T08:22:46Z</time>
      </trkpt>
      <trkpt lat="47.18263" lon="6.1947">
        <ele>561.7</ele>
        <time>2022-08-10T08:22:47Z</time>
      </trkpt>
      <trkpt lat="47.18264" lon="6.19465">
        <ele>561.9</ele>
        <time>2022-08-10T08:22:48Z</time>
      </trkpt>
      <trkpt lat="47.18265" lon="6.1946">
        <ele>561.8</ele>
        <time>2022-08-10T08:22:49Z</time>
      </trkpt>
      <trkpt lat="47.18267" lon="6.19454">
        <ele>561.5</ele>
        <time>2022-08-10T08:22:50Z</time>
      </trkpt>
      <trkpt lat="47.18269" lon="6.19448">
        <ele>561.4</ele>
        <time>2022-08-10T08:22:51Z</time>
      </trkpt>
      <trkpt lat="47.18271" lon="6.19442">
        <ele>561.1</ele>
        <time>2022-08-10T08:22:52Z</time>
      </trkpt>
      <trkpt lat="47.18273" lon="6.19435">
        <ele>560.9</ele>
        <time>2022-08-10T08:22:53Z</time>
      </trkpt>
      <trkpt lat="47.18275" lon="6.19428">
        <ele>560.6</ele>
        <time>2022-08-10T08:22:54Z</time>
      </trkpt>
      <trkpt lat="47.18276" lon="6.19422">
        <ele>559.9</ele>
        <time>2022-08-10T08:22:55Z</time>
      </trkpt>
      <trkpt lat="47.18278" lon="6.19416">
        <ele>559.9</ele>
        <time>2022-08-10T08:22:56Z</time>
      </trkpt>
      <trkpt lat="47.1828" lon="6.1941">
        <ele>560.1</ele>
        <time>2022-08-10T08:22:57Z</time>
      </trkpt>
      <trkpt lat="47.18282" lon="6.19404">
        <ele>559.9</ele>
        <time>2022-08-10T08:22:58Z</time>
      </trkpt>
      <trkpt lat="47.18285" lon="6.19397">
        <ele>559.9</ele>
        <time>2022-08-10T08:22:59Z</time>
      </trkpt>
      <trkpt lat="47.18288" lon="6.19392">
        <ele>559.7</ele>
        <time>2022-08-10T08:23:00Z</time>
      </trkpt>
      <trkpt lat="47.18292" lon="6.19386">
        <ele>559.7</ele>
        <time>2022-08-10T08:23:01Z</time>
      </trkpt>
      <trkpt lat="47.18296" lon="6.19383">
        <ele>559.6</ele>
        <time>2022-08-10T08:23:02Z</time>
      </trkpt>
      <trkpt lat="47.18301" lon="6.19381">
        <ele>559.6</ele>
        <time>2022-08-10T08:23:03Z</time>
      </trkpt>
      <trkpt lat="47.18305" lon="6.19381">
        <ele>559.5</ele>
        <time>2022-08-10T08:23:04Z</time>
      </trkpt>
      <trkpt lat="47.18307" lon="6.19382">
        <ele>559.9</ele>
        <time>2022-08-10T08:23:05Z</time>
      </trkpt>
      <trkpt lat="47.1831" lon="6.19383">
        <ele>560.5</ele>
        <time>2022-08-10T08:23:06Z</time>
      </trkpt>
      <trkpt lat="47.18312" lon="6.19383">
        <ele>561</ele>
        <time>2022-08-10T08:23:07Z</time>
      </trkpt>
      <trkpt lat="47.18314" lon="6.19383">
        <ele>561.6</ele>
        <time>2022-08-10T08:23:08Z</time>
      </trkpt>
      <trkpt lat="47.18316" lon="6.19383">
        <ele>562.9</ele>
        <time>2022-08-10T08:23:09Z</time>
      </trkpt>
      <trkpt lat="47.18318" lon="6.19384">
        <ele>563.4</ele>
        <time>2022-08-10T08:23:10Z</time>
      </trkpt>
      <trkpt lat="47.18319" lon="6.19385">
        <ele>565</ele>
        <time>2022-08-10T08:23:11Z</time>
      </trkpt>
      <trkpt lat="47.18321" lon="6.19385">
        <ele>565.6</ele>
        <time>2022-08-10T08:23:12Z</time>
      </trkpt>
      <trkpt lat="47.18323" lon="6.19386">
        <ele>566.6</ele>
        <time>2022-08-10T08:23:13Z</time>
      </trkpt>
      <trkpt lat="47.18324" lon="6.19387">
        <ele>567.8</ele>
        <time>2022-08-10T08:23:14Z</time>
      </trkpt>
      <trkpt lat="47.18326" lon="6.19388">
        <ele>568.6</ele>
        <time>2022-08-10T08:23:15Z</time>
      </trkpt>
      <trkpt lat="47.18328" lon="6.19389">
        <ele>569.6</ele>
        <time>2022-08-10T08:23:16Z</time>
      </trkpt>
      <trkpt lat="47.18329" lon="6.19389">
        <ele>570.5</ele>
        <time>2022-08-10T08:23:17Z</time>
      </trkpt>
      <trkpt lat="47.18331" lon="6.19389">
        <ele>571.6</ele>
        <time>2022-08-10T08:23:18Z</time>
      </trkpt>
      <trkpt lat="47.18333" lon="6.19389">
        <ele>572.4</ele>
        <time>2022-08-10T08:23:19Z</time>
      </trkpt>
      <trkpt lat="47.18336" lon="6.19389">
        <ele>573.4</ele>
        <time>2022-08-10T08:23:20Z</time>
      </trkpt>
      <trkpt lat="47.18338" lon="6.1939">
        <ele>574.2</ele>
        <time>2022-08-10T08:23:21Z</time>
      </trkpt>
      <trkpt lat="47.18341" lon="6.1939">
        <ele>575.2</ele>
        <time>2022-08-10T08:23:22Z</time>
      </trkpt>
      <trkpt lat="47.18344" lon="6.19391">
        <ele>576.2</ele>
        <time>2022-08-10T08:23:23Z</time>
      </trkpt>
      <trkpt lat="47.18347" lon="6.19392">
        <ele>577.2</ele>
        <time>2022-08-10T08:23:24Z</time>
      </trkpt>
      <trkpt lat="47.18349" lon="6.19393">
        <ele>578.1</ele>
        <time>2022-08-10T08:23:25Z</time>
      </trkpt>
      <trkpt lat="47.18352" lon="6.19394">
        <ele>579</ele>
        <time>2022-08-10T08:23:26Z</time>
      </trkpt>
      <trkpt lat="47.18355" lon="6.19395">
        <ele>580.1</ele>
        <time>2022-08-10T08:23:27Z</time>
      </trkpt>
      <trkpt lat="47.18358" lon="6.19396">
        <ele>581</ele>
        <time>2022-08-10T08:23:28Z</time>
      </trkpt>
      <trkpt lat="47.18361" lon="6.19396">
        <ele>581.9</ele>
        <time>2022-08-10T08:23:29Z</time>
      </trkpt>
      <trkpt lat="47.18365" lon="6.19396">
        <ele>583.1</ele>
        <time>2022-08-10T08:23:30Z</time>
      </trkpt>
      <trkpt lat="47.18369" lon="6.19397">
        <ele>582.4</ele>
        <time>2022-08-10T08:23:31Z</time>
      </trkpt>
      <trkpt lat="47.18372" lon="6.19401">
        <ele>582.7</ele>
        <time>2022-08-10T08:23:32Z</time>
      </trkpt>
      <trkpt lat="47.18374" lon="6.19404">
        <ele>584.1</ele>
        <time>2022-08-10T08:23:33Z</time>
      </trkpt>
      <trkpt lat="47.18376" lon="6.19407">
        <ele>585.3</ele>
        <time>2022-08-10T08:23:34Z</time>
      </trkpt>
      <trkpt lat="47.18378" lon="6.1941">
        <ele>586.4</ele>
        <time>2022-08-10T08:23:35Z</time>
      </trkpt>
      <trkpt lat="47.18381" lon="6.19413">
        <ele>585</ele>
        <time>2022-08-10T08:23:36Z</time>
      </trkpt>
      <trkpt lat="47.18383" lon="6.19415">
        <ele>585.2</ele>
        <time>2022-08-10T08:23:37Z</time>
      </trkpt>
      <trkpt lat="47.18386" lon="6.19417">
        <ele>585.7</ele>
        <time>2022-08-10T08:23:38Z</time>
      </trkpt>
      <trkpt lat="47.18388" lon="6.1942">
        <ele>586.5</ele>
        <time>2022-08-10T08:23:39Z</time>
      </trkpt>
      <trkpt lat="47.1839" lon="6.19422">
        <ele>587.2</ele>
        <time>2022-08-10T08:23:40Z</time>
      </trkpt>
      <trkpt lat="47.18392" lon="6.19425">
        <ele>587.7</ele>
        <time>2022-08-10T08:23:41Z</time>
      </trkpt>
      <trkpt lat="47.18395" lon="6.19427">
        <ele>588.6</ele>
        <time>2022-08-10T08:23:42Z</time>
      </trkpt>
      <trkpt lat="47.18397" lon="6.19429">
        <ele>589.6</ele>
        <time>2022-08-10T08:23:43Z</time>
      </trkpt>
      <trkpt lat="47.184" lon="6.19432">
        <ele>588.7</ele>
        <time>2022-08-10T08:23:44Z</time>
      </trkpt>
      <trkpt lat="47.18402" lon="6.19434">
        <ele>589.9</ele>
        <time>2022-08-10T08:23:45Z</time>
      </trkpt>
      <trkpt lat="47.18403" lon="6.19435">
        <ele>591.3</ele>
        <time>2022-08-10T08:23:46Z</time>
      </trkpt>
      <trkpt lat="47.18405" lon="6.19438">
        <ele>591.8</ele>
        <time>2022-08-10T08:23:47Z</time>
      </trkpt>
      <trkpt lat="47.18408" lon="6.1944">
        <ele>592.5</ele>
        <time>2022-08-10T08:23:48Z</time>
      </trkpt>
      <trkpt lat="47.1841" lon="6.19442">
        <ele>593.2</ele>
        <time>2022-08-10T08:23:49Z</time>
      </trkpt>
      <trkpt lat="47.18413" lon="6.19444">
        <ele>594.1</ele>
        <time>2022-08-10T08:23:50Z</time>
      </trkpt>
      <trkpt lat="47.18416" lon="6.19446">
        <ele>594.9</ele>
        <time>2022-08-10T08:23:51Z</time>
      </trkpt>
      <trkpt lat="47.18418" lon="6.19448">
        <ele>595.9</ele>
        <time>2022-08-10T08:23:52Z</time>
      </trkpt>
      <trkpt lat="47.18421" lon="6.1945">
        <ele>596.6</ele>
        <time>2022-08-10T08:23:53Z</time>
      </trkpt>
      <trkpt lat="47.18424" lon="6.19452">
        <ele>597.2</ele>
        <time>2022-08-10T08:23:54Z</time>
      </trkpt>
      <trkpt lat="47.18427" lon="6.19453">
        <ele>597.8</ele>
        <time>2022-08-10T08:23:55Z</time>
      </trkpt>
      <trkpt lat="47.1843" lon="6.19455">
        <ele>598.7</ele>
        <time>2022-08-10T08:23:56Z</time>
      </trkpt>
      <trkpt lat="47.18432" lon="6.19456">
        <ele>599.2</ele>
        <time>2022-08-10T08:23:57Z</time>
      </trkpt>
      <trkpt lat="47.18433" lon="6.19458">
        <ele>599.7</ele>
        <time>2022-08-10T08:23:58Z</time>
      </trkpt>
      <trkpt lat="47.18435" lon="6.1946">
        <ele>600.1</ele>
        <time>2022-08-10T08:23:59Z</time>
      </trkpt>
      <trkpt lat="47.18436" lon="6.19462">
        <ele>600.5</ele>
        <time>2022-08-10T08:24:00Z</time>
      </trkpt>
      <trkpt lat="47.18438" lon="6.19463">
        <ele>601.3</ele>
        <time>2022-08-10T08:24:01Z</time>
      </trkpt>
      <trkpt lat="47.1844" lon="6.19465">
        <ele>602</ele>
        <time>2022-08-10T08:24:02Z</time>
      </trkpt>
      <trkpt lat="47.18442" lon="6.19467">
        <ele>602.9</ele>
        <time>2022-08-10T08:24:03Z</time>
      </trkpt>
      <trkpt lat="47.18444" lon="6.19468">
        <ele>603.5</ele>
        <time>2022-08-10T08:24:04Z</time>
      </trkpt>
      <trkpt lat="47.18445" lon="6.1947">
        <ele>604</ele>
        <time>2022-08-10T08:24:05Z</time>
      </trkpt>
      <trkpt lat="47.18447" lon="6.19473">
        <ele>604.7</ele>
        <time>2022-08-10T08:24:06Z</time>
      </trkpt>
      <trkpt lat="47.18448" lon="6.19475">
        <ele>605.5</ele>
        <time>2022-08-10T08:24:07Z</time>
      </trkpt>
      <trkpt lat="47.1845" lon="6.19478">
        <ele>606</ele>
        <time>2022-08-10T08:24:08Z</time>
      </trkpt>
      <trkpt lat="47.18452" lon="6.19481">
        <ele>606.7</ele>
        <time>2022-08-10T08:24:09Z</time>
      </trkpt>
      <trkpt lat="47.18455" lon="6.19483">
        <ele>606.9</ele>
        <time>2022-08-10T08:24:10Z</time>
      </trkpt>
      <trkpt lat="47.18457" lon="6.19486">
        <ele>607.5</ele>
        <time>2022-08-10T08:24:11Z</time>
      </trkpt>
      <trkpt lat="47.1846" lon="6.19488">
        <ele>608</ele>
        <time>2022-08-10T08:24:12Z</time>
      </trkpt>
      <trkpt lat="47.18463" lon="6.1949">
        <ele>608</ele>
        <time>2022-08-10T08:24:13Z</time>
      </trkpt>
      <trkpt lat="47.18465" lon="6.19492">
        <ele>608</ele>
        <time>2022-08-10T08:24:14Z</time>
      </trkpt>
      <trkpt lat="47.18469" lon="6.19494">
        <ele>608.3</ele>
        <time>2022-08-10T08:24:15Z</time>
      </trkpt>
      <trkpt lat="47.18472" lon="6.19494">
        <ele>608.4</ele>
        <time>2022-08-10T08:24:16Z</time>
      </trkpt>
      <trkpt lat="47.18475" lon="6.19495">
        <ele>608.6</ele>
        <time>2022-08-10T08:24:17Z</time>
      </trkpt>
      <trkpt lat="47.18479" lon="6.19495">
        <ele>608.4</ele>
        <time>2022-08-10T08:24:18Z</time>
      </trkpt>
      <trkpt lat="47.18482" lon="6.19495">
        <ele>608.1</ele>
        <time>2022-08-10T08:24:19Z</time>
      </trkpt>
      <trkpt lat="47.18485" lon="6.19495">
        <ele>608.2</ele>
        <time>2022-08-10T08:24:20Z</time>
      </trkpt>
      <trkpt lat="47.18488" lon="6.19494">
        <ele>608.4</ele>
        <time>2022-08-10T08:24:21Z</time>
      </trkpt>
      <trkpt lat="47.18491" lon="6.19493">
        <ele>608.6</ele>
        <time>2022-08-10T08:24:22Z</time>
      </trkpt>
      <trkpt lat="47.18494" lon="6.19492">
        <ele>607.9</ele>
        <time>2022-08-10T08:24:23Z</time>
      </trkpt>
      <trkpt lat="47.18497" lon="6.1949">
        <ele>607.6</ele>
        <time>2022-08-10T08:24:24Z</time>
      </trkpt>
      <trkpt lat="47.185" lon="6.1949">
        <ele>607.4</ele>
        <time>2022-08-10T08:24:25Z</time>
      </trkpt>
      <trkpt lat="47.18503" lon="6.19489">
        <ele>607.3</ele>
        <time>2022-08-10T08:24:26Z</time>
      </trkpt>
      <trkpt lat="47.18505" lon="6.19487">
        <ele>607.3</ele>
        <time>2022-08-10T08:24:27Z</time>
      </trkpt>
      <trkpt lat="47.18507" lon="6.19486">
        <ele>607.4</ele>
        <time>2022-08-10T08:24:28Z</time>
      </trkpt>
      <trkpt lat="47.1851" lon="6.19484">
        <ele>607.3</ele>
        <time>2022-08-10T08:24:29Z</time>
      </trkpt>
      <trkpt lat="47.18513" lon="6.19482">
        <ele>607.2</ele>
        <time>2022-08-10T08:24:30Z</time>
      </trkpt>
      <trkpt lat="47.18515" lon="6.19479">
        <ele>606.8</ele>
        <time>2022-08-10T08:24:31Z</time>
      </trkpt>
      <trkpt lat="47.18518" lon="6.19478">
        <ele>606.1</ele>
        <time>2022-08-10T08:24:32Z</time>
      </trkpt>
      <trkpt lat="47.18521" lon="6.19476">
        <ele>606.1</ele>
        <time>2022-08-10T08:24:33Z</time>
      </trkpt>
      <trkpt lat="47.18523" lon="6.19475">
        <ele>605.7</ele>
        <time>2022-08-10T08:24:34Z</time>
      </trkpt>
      <trkpt lat="47.18526" lon="6.19473">
        <ele>605.2</ele>
        <time>2022-08-10T08:24:35Z</time>
      </trkpt>
      <trkpt lat="47.18528" lon="6.19472">
        <ele>604.6</ele>
        <time>2022-08-10T08:24:36Z</time>
      </trkpt>
      <trkpt lat="47.18531" lon="6.1947">
        <ele>604.1</ele>
        <time>2022-08-10T08:24:37Z</time>
      </trkpt>
      <trkpt lat="47.18534" lon="6.19468">
        <ele>603.1</ele>
        <time>2022-08-10T08:24:38Z</time>
      </trkpt>
      <trkpt lat="47.18536" lon="6.19466">
        <ele>602.6</ele>
        <time>2022-08-10T08:24:39Z</time>
      </trkpt>
      <trkpt lat="47.18539" lon="6.19464">
        <ele>601.5</ele>
        <time>2022-08-10T08:24:40Z</time>
      </trkpt>
      <trkpt lat="47.18542" lon="6.19462">
        <ele>600.8</ele>
        <time>2022-08-10T08:24:41Z</time>
      </trkpt>
      <trkpt lat="47.18544" lon="6.19459">
        <ele>600.6</ele>
        <time>2022-08-10T08:24:42Z</time>
      </trkpt>
      <trkpt lat="47.18547" lon="6.19457">
        <ele>600.2</ele>
        <time>2022-08-10T08:24:43Z</time>
      </trkpt>
      <trkpt lat="47.18549" lon="6.19454">
        <ele>599.7</ele>
        <time>2022-08-10T08:24:44Z</time>
      </trkpt>
      <trkpt lat="47.18551" lon="6.19452">
        <ele>599.3</ele>
        <time>2022-08-10T08:24:45Z</time>
      </trkpt>
      <trkpt lat="47.18553" lon="6.19449">
        <ele>598.4</ele>
        <time>2022-08-10T08:24:46Z</time>
      </trkpt>
      <trkpt lat="47.18556" lon="6.19446">
        <ele>597.6</ele>
        <time>2022-08-10T08:24:47Z</time>
      </trkpt>
      <trkpt lat="47.18558" lon="6.19444">
        <ele>596.8</ele>
        <time>2022-08-10T08:24:48Z</time>
      </trkpt>
      <trkpt lat="47.1856" lon="6.19441">
        <ele>595.9</ele>
        <time>2022-08-10T08:24:49Z</time>
      </trkpt>
      <trkpt lat="47.18562" lon="6.19438">
        <ele>594.9</ele>
        <time>2022-08-10T08:24:50Z</time>
      </trkpt>
      <trkpt lat="47.18564" lon="6.19435">
        <ele>594.2</ele>
        <time>2022-08-10T08:24:51Z</time>
      </trkpt>
      <trkpt lat="47.18566" lon="6.19432">
        <ele>593.7</ele>
        <time>2022-08-10T08:24:52Z</time>
      </trkpt>
      <trkpt lat="47.18568" lon="6.1943">
        <ele>592.9</ele>
        <time>2022-08-10T08:24:53Z</time>
      </trkpt>
      <trkpt lat="47.1857" lon="6.19427">
        <ele>592.1</ele>
        <time>2022-08-10T08:24:54Z</time>
      </trkpt>
      <trkpt lat="47.18571" lon="6.19424">
        <ele>591.3</ele>
        <time>2022-08-10T08:24:55Z</time>
      </trkpt>
      <trkpt lat="47.18573" lon="6.19421">
        <ele>590.8</ele>
        <time>2022-08-10T08:24:56Z</time>
      </trkpt>
      <trkpt lat="47.18576" lon="6.19418">
        <ele>590</ele>
        <time>2022-08-10T08:24:57Z</time>
      </trkpt>
      <trkpt lat="47.18578" lon="6.19416">
        <ele>589.4</ele>
        <time>2022-08-10T08:24:58Z</time>
      </trkpt>
      <trkpt lat="47.1858" lon="6.19413">
        <ele>588.7</ele>
        <time>2022-08-10T08:24:59Z</time>
      </trkpt>
      <trkpt lat="47.18582" lon="6.1941">
        <ele>588.1</ele>
        <time>2022-08-10T08:25:00Z</time>
      </trkpt>
      <trkpt lat="47.18584" lon="6.19408">
        <ele>587.4</ele>
        <time>2022-08-10T08:25:01Z</time>
      </trkpt>
      <trkpt lat="47.18586" lon="6.19405">
        <ele>587.1</ele>
        <time>2022-08-10T08:25:02Z</time>
      </trkpt>
      <trkpt lat="47.18589" lon="6.19402">
        <ele>586.7</ele>
        <time>2022-08-10T08:25:03Z</time>
      </trkpt>
      <trkpt lat="47.18591" lon="6.194">
        <ele>586.4</ele>
        <time>2022-08-10T08:25:04Z</time>
      </trkpt>
      <trkpt lat="47.18593" lon="6.19397">
        <ele>585.9</ele>
        <time>2022-08-10T08:25:05Z</time>
      </trkpt>
      <trkpt lat="47.18594" lon="6.19393">
        <ele>585.4</ele>
        <time>2022-08-10T08:25:06Z</time>
      </trkpt>
      <trkpt lat="47.18596" lon="6.1939">
        <ele>585</ele>
        <time>2022-08-10T08:25:07Z</time>
      </trkpt>
      <trkpt lat="47.18598" lon="6.19387">
        <ele>584.7</ele>
        <time>2022-08-10T08:25:08Z</time>
      </trkpt>
      <trkpt lat="47.18599" lon="6.19383">
        <ele>584.5</ele>
        <time>2022-08-10T08:25:09Z</time>
      </trkpt>
      <trkpt lat="47.186" lon="6.1938">
        <ele>584.5</ele>
        <time>2022-08-10T08:25:10Z</time>
      </trkpt>
      <trkpt lat="47.18601" lon="6.19376">
        <ele>584.6</ele>
        <time>2022-08-10T08:25:11Z</time>
      </trkpt>
      <trkpt lat="47.18602" lon="6.19373">
        <ele>584.3</ele>
        <time>2022-08-10T08:25:12Z</time>
      </trkpt>
      <trkpt lat="47.18604" lon="6.19369">
        <ele>584.4</ele>
        <time>2022-08-10T08:25:13Z</time>
      </trkpt>
      <trkpt lat="47.18605" lon="6.19366">
        <ele>584.4</ele>
        <time>2022-08-10T08:25:14Z</time>
      </trkpt>
      <trkpt lat="47.18606" lon="6.19362">
        <ele>584.4</ele>
        <time>2022-08-10T08:25:15Z</time>
      </trkpt>
      <trkpt lat="47.18607" lon="6.19358">
        <ele>584.6</ele>
        <time>2022-08-10T08:25:16Z</time>
      </trkpt>
      <trkpt lat="47.18609" lon="6.19355">
        <ele>585.1</ele>
        <time>2022-08-10T08:25:17Z</time>
      </trkpt>
      <trkpt lat="47.18611" lon="6.19351">
        <ele>585.4</ele>
        <time>2022-08-10T08:25:18Z</time>
      </trkpt>
      <trkpt lat="47.18613" lon="6.19347">
        <ele>585.7</ele>
        <time>2022-08-10T08:25:19Z</time>
      </trkpt>
      <trkpt lat="47.18614" lon="6.19344">
        <ele>586.4</ele>
        <time>2022-08-10T08:25:20Z</time>
      </trkpt>
      <trkpt lat="47.18615" lon="6.1934">
        <ele>586.8</ele>
        <time>2022-08-10T08:25:21Z</time>
      </trkpt>
      <trkpt lat="47.18617" lon="6.19337">
        <ele>587.4</ele>
        <time>2022-08-10T08:25:22Z</time>
      </trkpt>
      <trkpt lat="47.18618" lon="6.19333">
        <ele>588.2</ele>
        <time>2022-08-10T08:25:23Z</time>
      </trkpt>
      <trkpt lat="47.18618" lon="6.1933">
        <ele>588.8</ele>
        <time>2022-08-10T08:25:24Z</time>
      </trkpt>
      <trkpt lat="47.18619" lon="6.19327">
        <ele>589.5</ele>
        <time>2022-08-10T08:25:25Z</time>
      </trkpt>
      <trkpt lat="47.18621" lon="6.19324">
        <ele>590.1</ele>
        <time>2022-08-10T08:25:26Z</time>
      </trkpt>
      <trkpt lat="47.18622" lon="6.19321">
        <ele>591.1</ele>
        <time>2022-08-10T08:25:27Z</time>
      </trkpt>
      <trkpt lat="47.18624" lon="6.19316">
        <ele>591.9</ele>
        <time>2022-08-10T08:25:28Z</time>
      </trkpt>
      <trkpt lat="47.18625" lon="6.19314">
        <ele>592.6</ele>
        <time>2022-08-10T08:25:29Z</time>
      </trkpt>
      <trkpt lat="47.18627" lon="6.19311">
        <ele>593.2</ele>
        <time>2022-08-10T08:25:30Z</time>
      </trkpt>
      <trkpt lat="47.18628" lon="6.19308">
        <ele>593.7</ele>
        <time>2022-08-10T08:25:31Z</time>
      </trkpt>
      <trkpt lat="47.1863" lon="6.19304">
        <ele>593.6</ele>
        <time>2022-08-10T08:25:32Z</time>
      </trkpt>
      <trkpt lat="47.18631" lon="6.193">
        <ele>594.1</ele>
        <time>2022-08-10T08:25:33Z</time>
      </trkpt>
      <trkpt lat="47.18633" lon="6.19297">
        <ele>594.5</ele>
        <time>2022-08-10T08:25:34Z</time>
      </trkpt>
      <trkpt lat="47.18635" lon="6.19294">
        <ele>595.3</ele>
        <time>2022-08-10T08:25:35Z</time>
      </trkpt>
      <trkpt lat="47.18636" lon="6.19291">
        <ele>596.4</ele>
        <time>2022-08-10T08:25:36Z</time>
      </trkpt>
      <trkpt lat="47.18638" lon="6.19289">
        <ele>597.5</ele>
        <time>2022-08-10T08:25:37Z</time>
      </trkpt>
      <trkpt lat="47.18639" lon="6.19285">
        <ele>598.5</ele>
        <time>2022-08-10T08:25:38Z</time>
      </trkpt>
      <trkpt lat="47.1864" lon="6.19282">
        <ele>599.2</ele>
        <time>2022-08-10T08:25:39Z</time>
      </trkpt>
      <trkpt lat="47.18642" lon="6.1928">
        <ele>600.3</ele>
        <time>2022-08-10T08:25:40Z</time>
      </trkpt>
      <trkpt lat="47.18644" lon="6.19277">
        <ele>601.2</ele>
        <time>2022-08-10T08:25:41Z</time>
      </trkpt>
      <trkpt lat="47.18645" lon="6.19274">
        <ele>602.4</ele>
        <time>2022-08-10T08:25:42Z</time>
      </trkpt>
      <trkpt lat="47.18646" lon="6.19271">
        <ele>603.4</ele>
        <time>2022-08-10T08:25:43Z</time>
      </trkpt>
      <trkpt lat="47.18648" lon="6.19267">
        <ele>603.8</ele>
        <time>2022-08-10T08:25:44Z</time>
      </trkpt>
      <trkpt lat="47.18649" lon="6.19264">
        <ele>604.4</ele>
        <time>2022-08-10T08:25:45Z</time>
      </trkpt>
      <trkpt lat="47.1865" lon="6.19261">
        <ele>604.8</ele>
        <time>2022-08-10T08:25:46Z</time>
      </trkpt>
      <trkpt lat="47.18651" lon="6.19258">
        <ele>605.3</ele>
        <time>2022-08-10T08:25:47Z</time>
      </trkpt>
      <trkpt lat="47.18652" lon="6.19254">
        <ele>605.7</ele>
        <time>2022-08-10T08:25:48Z</time>
      </trkpt>
      <trkpt lat="47.18654" lon="6.19251">
        <ele>606</ele>
        <time>2022-08-10T08:25:49Z</time>
      </trkpt>
      <trkpt lat="47.18656" lon="6.19248">
        <ele>606.6</ele>
        <time>2022-08-10T08:25:50Z</time>
      </trkpt>
      <trkpt lat="47.18657" lon="6.19245">
        <ele>607</ele>
        <time>2022-08-10T08:25:51Z</time>
      </trkpt>
      <trkpt lat="47.18659" lon="6.19242">
        <ele>607.4</ele>
        <time>2022-08-10T08:25:52Z</time>
      </trkpt>
      <trkpt lat="47.1866" lon="6.19239">
        <ele>607.5</ele>
        <time>2022-08-10T08:25:53Z</time>
      </trkpt>
      <trkpt lat="47.18662" lon="6.19236">
        <ele>607.9</ele>
        <time>2022-08-10T08:25:54Z</time>
      </trkpt>
      <trkpt lat="47.18665" lon="6.19231">
        <ele>607.6</ele>
        <time>2022-08-10T08:25:55Z</time>
      </trkpt>
      <trkpt lat="47.18667" lon="6.19228">
        <ele>607.5</ele>
        <time>2022-08-10T08:25:56Z</time>
      </trkpt>
      <trkpt lat="47.18669" lon="6.19225">
        <ele>607.4</ele>
        <time>2022-08-10T08:25:57Z</time>
      </trkpt>
      <trkpt lat="47.18671" lon="6.19222">
        <ele>607.4</ele>
        <time>2022-08-10T08:25:58Z</time>
      </trkpt>
      <trkpt lat="47.18673" lon="6.19218">
        <ele>607.4</ele>
        <time>2022-08-10T08:25:59Z</time>
      </trkpt>
      <trkpt lat="47.18675" lon="6.19214">
        <ele>607.3</ele>
        <time>2022-08-10T08:26:00Z</time>
      </trkpt>
      <trkpt lat="47.18677" lon="6.1921">
        <ele>607.1</ele>
        <time>2022-08-10T08:26:01Z</time>
      </trkpt>
      <trkpt lat="47.18679" lon="6.19205">
        <ele>606.7</ele>
        <time>2022-08-10T08:26:02Z</time>
      </trkpt>
      <trkpt lat="47.18681" lon="6.19201">
        <ele>606.1</ele>
        <time>2022-08-10T08:26:03Z</time>
      </trkpt>
      <trkpt lat="47.18683" lon="6.19198">
        <ele>605.4</ele>
        <time>2022-08-10T08:26:04Z</time>
      </trkpt>
      <trkpt lat="47.18685" lon="6.19194">
        <ele>605.1</ele>
        <time>2022-08-10T08:26:05Z</time>
      </trkpt>
      <trkpt lat="47.18687" lon="6.19191">
        <ele>604.2</ele>
        <time>2022-08-10T08:26:06Z</time>
      </trkpt>
      <trkpt lat="47.18689" lon="6.19188">
        <ele>603.7</ele>
        <time>2022-08-10T08:26:07Z</time>
      </trkpt>
      <trkpt lat="47.18691" lon="6.19185">
        <ele>603.1</ele>
        <time>2022-08-10T08:26:08Z</time>
      </trkpt>
      <trkpt lat="47.18693" lon="6.19182">
        <ele>602.9</ele>
        <time>2022-08-10T08:26:09Z</time>
      </trkpt>
      <trkpt lat="47.18694" lon="6.19179">
        <ele>603</ele>
        <time>2022-08-10T08:26:10Z</time>
      </trkpt>
      <trkpt lat="47.18696" lon="6.19176">
        <ele>602.6</ele>
        <time>2022-08-10T08:26:11Z</time>
      </trkpt>
      <trkpt lat="47.18698" lon="6.19172">
        <ele>602.6</ele>
        <time>2022-08-10T08:26:12Z</time>
      </trkpt>
      <trkpt lat="47.187" lon="6.19169">
        <ele>602.5</ele>
        <time>2022-08-10T08:26:13Z</time>
      </trkpt>
      <trkpt lat="47.18702" lon="6.19166">
        <ele>602</ele>
        <time>2022-08-10T08:26:14Z</time>
      </trkpt>
      <trkpt lat="47.18704" lon="6.19163">
        <ele>601.8</ele>
        <time>2022-08-10T08:26:15Z</time>
      </trkpt>
      <trkpt lat="47.18706" lon="6.1916">
        <ele>602.1</ele>
        <time>2022-08-10T08:26:16Z</time>
      </trkpt>
      <trkpt lat="47.18707" lon="6.19157">
        <ele>602.5</ele>
        <time>2022-08-10T08:26:17Z</time>
      </trkpt>
      <trkpt lat="47.18709" lon="6.19154">
        <ele>602.7</ele>
        <time>2022-08-10T08:26:18Z</time>
      </trkpt>
      <trkpt lat="47.18712" lon="6.19151">
        <ele>602.6</ele>
        <time>2022-08-10T08:26:19Z</time>
      </trkpt>
      <trkpt lat="47.18714" lon="6.19148">
        <ele>603.2</ele>
        <time>2022-08-10T08:26:20Z</time>
      </trkpt>
      <trkpt lat="47.18716" lon="6.19144">
        <ele>603.3</ele>
        <time>2022-08-10T08:26:21Z</time>
      </trkpt>
      <trkpt lat="47.18719" lon="6.1914">
        <ele>603.5</ele>
        <time>2022-08-10T08:26:22Z</time>
      </trkpt>
      <trkpt lat="47.18722" lon="6.19134">
        <ele>603.6</ele>
        <time>2022-08-10T08:26:23Z</time>
      </trkpt>
      <trkpt lat="47.18725" lon="6.19129">
        <ele>603.5</ele>
        <time>2022-08-10T08:26:24Z</time>
      </trkpt>
      <trkpt lat="47.18727" lon="6.19125">
        <ele>603.7</ele>
        <time>2022-08-10T08:26:25Z</time>
      </trkpt>
      <trkpt lat="47.1873" lon="6.1912">
        <ele>604</ele>
        <time>2022-08-10T08:26:26Z</time>
      </trkpt>
      <trkpt lat="47.18733" lon="6.19115">
        <ele>603.9</ele>
        <time>2022-08-10T08:26:27Z</time>
      </trkpt>
      <trkpt lat="47.18736" lon="6.19111">
        <ele>603.5</ele>
        <time>2022-08-10T08:26:28Z</time>
      </trkpt>
      <trkpt lat="47.18739" lon="6.19107">
        <ele>603.2</ele>
        <time>2022-08-10T08:26:29Z</time>
      </trkpt>
      <trkpt lat="47.18742" lon="6.19102">
        <ele>602.7</ele>
        <time>2022-08-10T08:26:30Z</time>
      </trkpt>
      <trkpt lat="47.18745" lon="6.19097">
        <ele>602.3</ele>
        <time>2022-08-10T08:26:31Z</time>
      </trkpt>
      <trkpt lat="47.18747" lon="6.19092">
        <ele>602</ele>
        <time>2022-08-10T08:26:32Z</time>
      </trkpt>
      <trkpt lat="47.1875" lon="6.19087">
        <ele>601.8</ele>
        <time>2022-08-10T08:26:33Z</time>
      </trkpt>
      <trkpt lat="47.18752" lon="6.19083">
        <ele>601.8</ele>
        <time>2022-08-10T08:26:34Z</time>
      </trkpt>
      <trkpt lat="47.18754" lon="6.1908">
        <ele>601.8</ele>
        <time>2022-08-10T08:26:35Z</time>
      </trkpt>
      <trkpt lat="47.18757" lon="6.19076">
        <ele>601.2</ele>
        <time>2022-08-10T08:26:36Z</time>
      </trkpt>
      <trkpt lat="47.18759" lon="6.19072">
        <ele>600.1</ele>
        <time>2022-08-10T08:26:37Z</time>
      </trkpt>
      <trkpt lat="47.18762" lon="6.19067">
        <ele>600.1</ele>
        <time>2022-08-10T08:26:38Z</time>
      </trkpt>
      <trkpt lat="47.18765" lon="6.19062">
        <ele>600</ele>
        <time>2022-08-10T08:26:39Z</time>
      </trkpt>
      <trkpt lat="47.18769" lon="6.19057">
        <ele>600.4</ele>
        <time>2022-08-10T08:26:40Z</time>
      </trkpt>
      <trkpt lat="47.18772" lon="6.19052">
        <ele>600.3</ele>
        <time>2022-08-10T08:26:41Z</time>
      </trkpt>
      <trkpt lat="47.18775" lon="6.19047">
        <ele>600.4</ele>
        <time>2022-08-10T08:26:42Z</time>
      </trkpt>
      <trkpt lat="47.18778" lon="6.19042">
        <ele>600.7</ele>
        <time>2022-08-10T08:26:43Z</time>
      </trkpt>
      <trkpt lat="47.1878" lon="6.19037">
        <ele>600.7</ele>
        <time>2022-08-10T08:26:44Z</time>
      </trkpt>
      <trkpt lat="47.18783" lon="6.19032">
        <ele>600.9</ele>
        <time>2022-08-10T08:26:45Z</time>
      </trkpt>
      <trkpt lat="47.18786" lon="6.19027">
        <ele>600.8</ele>
        <time>2022-08-10T08:26:46Z</time>
      </trkpt>
      <trkpt lat="47.18789" lon="6.19023">
        <ele>600.6</ele>
        <time>2022-08-10T08:26:47Z</time>
      </trkpt>
      <trkpt lat="47.18792" lon="6.19019">
        <ele>599.8</ele>
        <time>2022-08-10T08:26:48Z</time>
      </trkpt>
      <trkpt lat="47.18794" lon="6.19014">
        <ele>599.5</ele>
        <time>2022-08-10T08:26:49Z</time>
      </trkpt>
      <trkpt lat="47.18797" lon="6.19009">
        <ele>598.8</ele>
        <time>2022-08-10T08:26:50Z</time>
      </trkpt>
      <trkpt lat="47.188" lon="6.19005">
        <ele>598.6</ele>
        <time>2022-08-10T08:26:51Z</time>
      </trkpt>
      <trkpt lat="47.18802" lon="6.19001">
        <ele>598.5</ele>
        <time>2022-08-10T08:26:52Z</time>
      </trkpt>
      <trkpt lat="47.18805" lon="6.18997">
        <ele>598.3</ele>
        <time>2022-08-10T08:26:53Z</time>
      </trkpt>
      <trkpt lat="47.18808" lon="6.18993">
        <ele>597.9</ele>
        <time>2022-08-10T08:26:54Z</time>
      </trkpt>
      <trkpt lat="47.1881" lon="6.18989">
        <ele>596.9</ele>
        <time>2022-08-10T08:26:55Z</time>
      </trkpt>
      <trkpt lat="47.18812" lon="6.18985">
        <ele>596.2</ele>
        <time>2022-08-10T08:26:56Z</time>
      </trkpt>
      <trkpt lat="47.18815" lon="6.18982">
        <ele>595.3</ele>
        <time>2022-08-10T08:26:57Z</time>
      </trkpt>
      <trkpt lat="47.18817" lon="6.18978">
        <ele>594.8</ele>
        <time>2022-08-10T08:26:58Z</time>
      </trkpt>
      <trkpt lat="47.1882" lon="6.18975">
        <ele>594.4</ele>
        <time>2022-08-10T08:26:59Z</time>
      </trkpt>
      <trkpt lat="47.18822" lon="6.18971">
        <ele>593.9</ele>
        <time>2022-08-10T08:27:00Z</time>
      </trkpt>
      <trkpt lat="47.18825" lon="6.18968">
        <ele>593.4</ele>
        <time>2022-08-10T08:27:01Z</time>
      </trkpt>
      <trkpt lat="47.18828" lon="6.18964">
        <ele>593.4</ele>
        <time>2022-08-10T08:27:02Z</time>
      </trkpt>
      <trkpt lat="47.18831" lon="6.1896">
        <ele>593.2</ele>
        <time>2022-08-10T08:27:03Z</time>
      </trkpt>
      <trkpt lat="47.18834" lon="6.18956">
        <ele>593.1</ele>
        <time>2022-08-10T08:27:04Z</time>
      </trkpt>
      <trkpt lat="47.18836" lon="6.18952">
        <ele>593.1</ele>
        <time>2022-08-10T08:27:05Z</time>
      </trkpt>
      <trkpt lat="47.18838" lon="6.18948">
        <ele>593.1</ele>
        <time>2022-08-10T08:27:06Z</time>
      </trkpt>
      <trkpt lat="47.18841" lon="6.18944">
        <ele>593.4</ele>
        <time>2022-08-10T08:27:07Z</time>
      </trkpt>
      <trkpt lat="47.18843" lon="6.1894">
        <ele>593.4</ele>
        <time>2022-08-10T08:27:08Z</time>
      </trkpt>
      <trkpt lat="47.18846" lon="6.18937">
        <ele>593</ele>
        <time>2022-08-10T08:27:09Z</time>
      </trkpt>
      <trkpt lat="47.18848" lon="6.18934">
        <ele>593.1</ele>
        <time>2022-08-10T08:27:10Z</time>
      </trkpt>
      <trkpt lat="47.18851" lon="6.1893">
        <ele>593.2</ele>
        <time>2022-08-10T08:27:11Z</time>
      </trkpt>
      <trkpt lat="47.18853" lon="6.18926">
        <ele>593.4</ele>
        <time>2022-08-10T08:27:12Z</time>
      </trkpt>
      <trkpt lat="47.18855" lon="6.18922">
        <ele>593.7</ele>
        <time>2022-08-10T08:27:13Z</time>
      </trkpt>
      <trkpt lat="47.18857" lon="6.18919">
        <ele>593.9</ele>
        <time>2022-08-10T08:27:14Z</time>
      </trkpt>
      <trkpt lat="47.18858" lon="6.18915">
        <ele>594</ele>
        <time>2022-08-10T08:27:15Z</time>
      </trkpt>
      <trkpt lat="47.1886" lon="6.18912">
        <ele>593.9</ele>
        <time>2022-08-10T08:27:16Z</time>
      </trkpt>
      <trkpt lat="47.18862" lon="6.18908">
        <ele>593.7</ele>
        <time>2022-08-10T08:27:17Z</time>
      </trkpt>
      <trkpt lat="47.18865" lon="6.18904">
        <ele>593.7</ele>
        <time>2022-08-10T08:27:18Z</time>
      </trkpt>
      <trkpt lat="47.18868" lon="6.189">
        <ele>592.9</ele>
        <time>2022-08-10T08:27:19Z</time>
      </trkpt>
      <trkpt lat="47.1887" lon="6.18896">
        <ele>593</ele>
        <time>2022-08-10T08:27:20Z</time>
      </trkpt>
      <trkpt lat="47.18872" lon="6.18892">
        <ele>593</ele>
        <time>2022-08-10T08:27:21Z</time>
      </trkpt>
      <trkpt lat="47.18875" lon="6.18889">
        <ele>593.3</ele>
        <time>2022-08-10T08:27:22Z</time>
      </trkpt>
      <trkpt lat="47.18877" lon="6.18886">
        <ele>593.4</ele>
        <time>2022-08-10T08:27:23Z</time>
      </trkpt>
      <trkpt lat="47.18879" lon="6.18883">
        <ele>593.8</ele>
        <time>2022-08-10T08:27:24Z</time>
      </trkpt>
      <trkpt lat="47.18881" lon="6.1888">
        <ele>594.3</ele>
        <time>2022-08-10T08:27:25Z</time>
      </trkpt>
      <trkpt lat="47.18883" lon="6.18877">
        <ele>595</ele>
        <time>2022-08-10T08:27:26Z</time>
      </trkpt>
      <trkpt lat="47.18885" lon="6.18874">
        <ele>595.7</ele>
        <time>2022-08-10T08:27:27Z</time>
      </trkpt>
      <trkpt lat="47.18887" lon="6.18872">
        <ele>596.4</ele>
        <time>2022-08-10T08:27:28Z</time>
      </trkpt>
      <trkpt lat="47.18888" lon="6.18869">
        <ele>596.9</ele>
        <time>2022-08-10T08:27:29Z</time>
      </trkpt>
      <trkpt lat="47.1889" lon="6.18866">
        <ele>597.1</ele>
        <time>2022-08-10T08:27:30Z</time>
      </trkpt>
      <trkpt lat="47.18891" lon="6.18863">
        <ele>597.3</ele>
        <time>2022-08-10T08:27:31Z</time>
      </trkpt>
      <trkpt lat="47.18893" lon="6.1886">
        <ele>597.6</ele>
        <time>2022-08-10T08:27:32Z</time>
      </trkpt>
      <trkpt lat="47.18894" lon="6.18857">
        <ele>598</ele>
        <time>2022-08-10T08:27:33Z</time>
      </trkpt>
      <trkpt lat="47.18896" lon="6.18854">
        <ele>598.5</ele>
        <time>2022-08-10T08:27:34Z</time>
      </trkpt>
      <trkpt lat="47.18898" lon="6.18851">
        <ele>598.9</ele>
        <time>2022-08-10T08:27:35Z</time>
      </trkpt>
      <trkpt lat="47.18901" lon="6.18847">
        <ele>599.2</ele>
        <time>2022-08-10T08:27:36Z</time>
      </trkpt>
      <trkpt lat="47.18904" lon="6.18844">
        <ele>598.7</ele>
        <time>2022-08-10T08:27:37Z</time>
      </trkpt>
      <trkpt lat="47.18907" lon="6.18841">
        <ele>598.6</ele>
        <time>2022-08-10T08:27:38Z</time>
      </trkpt>
      <trkpt lat="47.1891" lon="6.18837">
        <ele>597.5</ele>
        <time>2022-08-10T08:27:39Z</time>
      </trkpt>
      <trkpt lat="47.18913" lon="6.18835">
        <ele>596.8</ele>
        <time>2022-08-10T08:27:40Z</time>
      </trkpt>
      <trkpt lat="47.18916" lon="6.18833">
        <ele>596.1</ele>
        <time>2022-08-10T08:27:41Z</time>
      </trkpt>
      <trkpt lat="47.18919" lon="6.1883">
        <ele>595.9</ele>
        <time>2022-08-10T08:27:42Z</time>
      </trkpt>
      <trkpt lat="47.18922" lon="6.18827">
        <ele>595.7</ele>
        <time>2022-08-10T08:27:43Z</time>
      </trkpt>
      <trkpt lat="47.18925" lon="6.18823">
        <ele>595.1</ele>
        <time>2022-08-10T08:27:44Z</time>
      </trkpt>
      <trkpt lat="47.18927" lon="6.1882">
        <ele>595.1</ele>
        <time>2022-08-10T08:27:45Z</time>
      </trkpt>
      <trkpt lat="47.1893" lon="6.18816">
        <ele>594.9</ele>
        <time>2022-08-10T08:27:46Z</time>
      </trkpt>
      <trkpt lat="47.18932" lon="6.18813">
        <ele>594.5</ele>
        <time>2022-08-10T08:27:47Z</time>
      </trkpt>
      <trkpt lat="47.18935" lon="6.18809">
        <ele>594.5</ele>
        <time>2022-08-10T08:27:48Z</time>
      </trkpt>
      <trkpt lat="47.18938" lon="6.18806">
        <ele>593.9</ele>
        <time>2022-08-10T08:27:49Z</time>
      </trkpt>
      <trkpt lat="47.18941" lon="6.18802">
        <ele>593.2</ele>
        <time>2022-08-10T08:27:50Z</time>
      </trkpt>
      <trkpt lat="47.18943" lon="6.18799">
        <ele>593</ele>
        <time>2022-08-10T08:27:51Z</time>
      </trkpt>
      <trkpt lat="47.18946" lon="6.18796">
        <ele>592.3</ele>
        <time>2022-08-10T08:27:52Z</time>
      </trkpt>
      <trkpt lat="47.18949" lon="6.18793">
        <ele>592.4</ele>
        <time>2022-08-10T08:27:53Z</time>
      </trkpt>
      <trkpt lat="47.18951" lon="6.18789">
        <ele>592.4</ele>
        <time>2022-08-10T08:27:54Z</time>
      </trkpt>
      <trkpt lat="47.18953" lon="6.18786">
        <ele>592.1</ele>
        <time>2022-08-10T08:27:55Z</time>
      </trkpt>
      <trkpt lat="47.18955" lon="6.18782">
        <ele>592</ele>
        <time>2022-08-10T08:27:56Z</time>
      </trkpt>
      <trkpt lat="47.18958" lon="6.18779">
        <ele>591.9</ele>
        <time>2022-08-10T08:27:57Z</time>
      </trkpt>
      <trkpt lat="47.1896" lon="6.18777">
        <ele>591.6</ele>
        <time>2022-08-10T08:27:58Z</time>
      </trkpt>
      <trkpt lat="47.18963" lon="6.18774">
        <ele>591.2</ele>
        <time>2022-08-10T08:27:59Z</time>
      </trkpt>
      <trkpt lat="47.18965" lon="6.18771">
        <ele>591.5</ele>
        <time>2022-08-10T08:28:00Z</time>
      </trkpt>
      <trkpt lat="47.18968" lon="6.18769">
        <ele>591.8</ele>
        <time>2022-08-10T08:28:01Z</time>
      </trkpt>
      <trkpt lat="47.1897" lon="6.18767">
        <ele>592.5</ele>
        <time>2022-08-10T08:28:02Z</time>
      </trkpt>
      <trkpt lat="47.18972" lon="6.18765">
        <ele>593.3</ele>
        <time>2022-08-10T08:28:03Z</time>
      </trkpt>
      <trkpt lat="47.18974" lon="6.18762">
        <ele>593.9</ele>
        <time>2022-08-10T08:28:04Z</time>
      </trkpt>
      <trkpt lat="47.18976" lon="6.18759">
        <ele>594.6</ele>
        <time>2022-08-10T08:28:05Z</time>
      </trkpt>
      <trkpt lat="47.18979" lon="6.18757">
        <ele>595.2</ele>
        <time>2022-08-10T08:28:06Z</time>
      </trkpt>
      <trkpt lat="47.1898" lon="6.18754">
        <ele>595.9</ele>
        <time>2022-08-10T08:28:07Z</time>
      </trkpt>
      <trkpt lat="47.18982" lon="6.18751">
        <ele>596.5</ele>
        <time>2022-08-10T08:28:08Z</time>
      </trkpt>
      <trkpt lat="47.18984" lon="6.18749">
        <ele>597</ele>
        <time>2022-08-10T08:28:09Z</time>
      </trkpt>
      <trkpt lat="47.18986" lon="6.18747">
        <ele>597.4</ele>
        <time>2022-08-10T08:28:10Z</time>
      </trkpt>
      <trkpt lat="47.18989" lon="6.18744">
        <ele>597.9</ele>
        <time>2022-08-10T08:28:11Z</time>
      </trkpt>
      <trkpt lat="47.18991" lon="6.18742">
        <ele>598.6</ele>
        <time>2022-08-10T08:28:12Z</time>
      </trkpt>
      <trkpt lat="47.18993" lon="6.1874">
        <ele>599.3</ele>
        <time>2022-08-10T08:28:13Z</time>
      </trkpt>
      <trkpt lat="47.18996" lon="6.18738">
        <ele>600.1</ele>
        <time>2022-08-10T08:28:14Z</time>
      </trkpt>
      <trkpt lat="47.18998" lon="6.18735">
        <ele>601.8</ele>
        <time>2022-08-10T08:28:15Z</time>
      </trkpt>
      <trkpt lat="47.19" lon="6.18733">
        <ele>602.4</ele>
        <time>2022-08-10T08:28:16Z</time>
      </trkpt>
      <trkpt lat="47.19002" lon="6.1873">
        <ele>602.9</ele>
        <time>2022-08-10T08:28:17Z</time>
      </trkpt>
      <trkpt lat="47.19004" lon="6.18728">
        <ele>603.9</ele>
        <time>2022-08-10T08:28:18Z</time>
      </trkpt>
      <trkpt lat="47.19006" lon="6.18726">
        <ele>604.8</ele>
        <time>2022-08-10T08:28:19Z</time>
      </trkpt>
      <trkpt lat="47.19008" lon="6.18724">
        <ele>605.5</ele>
        <time>2022-08-10T08:28:20Z</time>
      </trkpt>
      <trkpt lat="47.1901" lon="6.18722">
        <ele>606.4</ele>
        <time>2022-08-10T08:28:21Z</time>
      </trkpt>
      <trkpt lat="47.19012" lon="6.18719">
        <ele>607.1</ele>
        <time>2022-08-10T08:28:22Z</time>
      </trkpt>
      <trkpt lat="47.19014" lon="6.18716">
        <ele>607.5</ele>
        <time>2022-08-10T08:28:23Z</time>
      </trkpt>
      <trkpt lat="47.19017" lon="6.18713">
        <ele>607.9</ele>
        <time>2022-08-10T08:28:24Z</time>
      </trkpt>
      <trkpt lat="47.19019" lon="6.18711">
        <ele>608.1</ele>
        <time>2022-08-10T08:28:25Z</time>
      </trkpt>
      <trkpt lat="47.19021" lon="6.18708">
        <ele>608.3</ele>
        <time>2022-08-10T08:28:26Z</time>
      </trkpt>
      <trkpt lat="47.19024" lon="6.18705">
        <ele>607.8</ele>
        <time>2022-08-10T08:28:27Z</time>
      </trkpt>
      <trkpt lat="47.19026" lon="6.18703">
        <ele>608.1</ele>
        <time>2022-08-10T08:28:28Z</time>
      </trkpt>
      <trkpt lat="47.19028" lon="6.187">
        <ele>608.3</ele>
        <time>2022-08-10T08:28:29Z</time>
      </trkpt>
      <trkpt lat="47.19031" lon="6.18697">
        <ele>608</ele>
        <time>2022-08-10T08:28:30Z</time>
      </trkpt>
      <trkpt lat="47.19033" lon="6.18695">
        <ele>608.4</ele>
        <time>2022-08-10T08:28:31Z</time>
      </trkpt>
      <trkpt lat="47.19036" lon="6.18692">
        <ele>608.7</ele>
        <time>2022-08-10T08:28:32Z</time>
      </trkpt>
      <trkpt lat="47.19039" lon="6.1869">
        <ele>609.2</ele>
        <time>2022-08-10T08:28:33Z</time>
      </trkpt>
      <trkpt lat="47.19042" lon="6.18687">
        <ele>609.6</ele>
        <time>2022-08-10T08:28:34Z</time>
      </trkpt>
      <trkpt lat="47.19045" lon="6.18685">
        <ele>610</ele>
        <time>2022-08-10T08:28:35Z</time>
      </trkpt>
      <trkpt lat="47.19048" lon="6.18682">
        <ele>609.4</ele>
        <time>2022-08-10T08:28:36Z</time>
      </trkpt>
      <trkpt lat="47.19052" lon="6.18679">
        <ele>609.8</ele>
        <time>2022-08-10T08:28:37Z</time>
      </trkpt>
      <trkpt lat="47.19055" lon="6.18676">
        <ele>609.4</ele>
        <time>2022-08-10T08:28:38Z</time>
      </trkpt>
      <trkpt lat="47.19058" lon="6.18673">
        <ele>609.9</ele>
        <time>2022-08-10T08:28:39Z</time>
      </trkpt>
      <trkpt lat="47.19061" lon="6.18668">
        <ele>610.2</ele>
        <time>2022-08-10T08:28:40Z</time>
      </trkpt>
      <trkpt lat="47.19064" lon="6.18665">
        <ele>610.6</ele>
        <time>2022-08-10T08:28:41Z</time>
      </trkpt>
      <trkpt lat="47.19067" lon="6.18661">
        <ele>610.6</ele>
        <time>2022-08-10T08:28:42Z</time>
      </trkpt>
      <trkpt lat="47.1907" lon="6.18658">
        <ele>611</ele>
        <time>2022-08-10T08:28:43Z</time>
      </trkpt>
      <trkpt lat="47.19074" lon="6.18655">
        <ele>611.2</ele>
        <time>2022-08-10T08:28:44Z</time>
      </trkpt>
      <trkpt lat="47.19078" lon="6.18652">
        <ele>611.8</ele>
        <time>2022-08-10T08:28:45Z</time>
      </trkpt>
      <trkpt lat="47.19082" lon="6.18649">
        <ele>612.1</ele>
        <time>2022-08-10T08:28:46Z</time>
      </trkpt>
      <trkpt lat="47.19085" lon="6.18645">
        <ele>611.9</ele>
        <time>2022-08-10T08:28:47Z</time>
      </trkpt>
      <trkpt lat="47.19089" lon="6.18641">
        <ele>612.1</ele>
        <time>2022-08-10T08:28:48Z</time>
      </trkpt>
      <trkpt lat="47.19093" lon="6.18639">
        <ele>612.5</ele>
        <time>2022-08-10T08:28:49Z</time>
      </trkpt>
      <trkpt lat="47.19096" lon="6.18635">
        <ele>613.1</ele>
        <time>2022-08-10T08:28:50Z</time>
      </trkpt>
      <trkpt lat="47.191" lon="6.18632">
        <ele>613.4</ele>
        <time>2022-08-10T08:28:51Z</time>
      </trkpt>
      <trkpt lat="47.19103" lon="6.18628">
        <ele>613.6</ele>
        <time>2022-08-10T08:28:52Z</time>
      </trkpt>
      <trkpt lat="47.19106" lon="6.18625">
        <ele>613.5</ele>
        <time>2022-08-10T08:28:53Z</time>
      </trkpt>
      <trkpt lat="47.19109" lon="6.18622">
        <ele>613.7</ele>
        <time>2022-08-10T08:28:54Z</time>
      </trkpt>
      <trkpt lat="47.19112" lon="6.18618">
        <ele>613.8</ele>
        <time>2022-08-10T08:28:55Z</time>
      </trkpt>
      <trkpt lat="47.19116" lon="6.18615">
        <ele>614.1</ele>
        <time>2022-08-10T08:28:56Z</time>
      </trkpt>
      <trkpt lat="47.19119" lon="6.18612">
        <ele>614.2</ele>
        <time>2022-08-10T08:28:57Z</time>
      </trkpt>
      <trkpt lat="47.19122" lon="6.18609">
        <ele>614.5</ele>
        <time>2022-08-10T08:28:58Z</time>
      </trkpt>
      <trkpt lat="47.19126" lon="6.18606">
        <ele>614.6</ele>
        <time>2022-08-10T08:28:59Z</time>
      </trkpt>
      <trkpt lat="47.1913" lon="6.18603">
        <ele>614.7</ele>
        <time>2022-08-10T08:29:00Z</time>
      </trkpt>
      <trkpt lat="47.19133" lon="6.186">
        <ele>615.5</ele>
        <time>2022-08-10T08:29:01Z</time>
      </trkpt>
      <trkpt lat="47.19137" lon="6.18597">
        <ele>615.6</ele>
        <time>2022-08-10T08:29:02Z</time>
      </trkpt>
      <trkpt lat="47.1914" lon="6.18594">
        <ele>615.5</ele>
        <time>2022-08-10T08:29:03Z</time>
      </trkpt>
      <trkpt lat="47.19144" lon="6.18591">
        <ele>614.9</ele>
        <time>2022-08-10T08:29:04Z</time>
      </trkpt>
      <trkpt lat="47.19147" lon="6.18588">
        <ele>614.8</ele>
        <time>2022-08-10T08:29:05Z</time>
      </trkpt>
      <trkpt lat="47.19149" lon="6.18587">
        <ele>615.3</ele>
        <time>2022-08-10T08:29:06Z</time>
      </trkpt>
      <trkpt lat="47.19152" lon="6.18585">
        <ele>615.3</ele>
        <time>2022-08-10T08:29:07Z</time>
      </trkpt>
      <trkpt lat="47.19153" lon="6.18583">
        <ele>615</ele>
        <time>2022-08-10T08:29:08Z</time>
      </trkpt>
      <trkpt lat="47.19155" lon="6.18582">
        <ele>615.2</ele>
        <time>2022-08-10T08:29:09Z</time>
      </trkpt>
      <trkpt lat="47.19158" lon="6.1858">
        <ele>615.4</ele>
        <time>2022-08-10T08:29:10Z</time>
      </trkpt>
      <trkpt lat="47.19161" lon="6.18578">
        <ele>615.5</ele>
        <time>2022-08-10T08:29:11Z</time>
      </trkpt>
      <trkpt lat="47.19163" lon="6.18577">
        <ele>615.8</ele>
        <time>2022-08-10T08:29:12Z</time>
      </trkpt>
      <trkpt lat="47.19167" lon="6.18574">
        <ele>616.1</ele>
        <time>2022-08-10T08:29:13Z</time>
      </trkpt>
      <trkpt lat="47.19169" lon="6.18573">
        <ele>616.4</ele>
        <time>2022-08-10T08:29:14Z</time>
      </trkpt>
      <trkpt lat="47.19171" lon="6.18571">
        <ele>616.9</ele>
        <time>2022-08-10T08:29:15Z</time>
      </trkpt>
      <trkpt lat="47.19173" lon="6.18569">
        <ele>617.2</ele>
        <time>2022-08-10T08:29:16Z</time>
      </trkpt>
      <trkpt lat="47.19175" lon="6.18567">
        <ele>617.6</ele>
        <time>2022-08-10T08:29:17Z</time>
      </trkpt>
      <trkpt lat="47.19176" lon="6.18565">
        <ele>618.2</ele>
        <time>2022-08-10T08:29:18Z</time>
      </trkpt>
      <trkpt lat="47.19178" lon="6.18564">
        <ele>618.5</ele>
        <time>2022-08-10T08:29:19Z</time>
      </trkpt>
      <trkpt lat="47.1918" lon="6.18562">
        <ele>618.6</ele>
        <time>2022-08-10T08:29:20Z</time>
      </trkpt>
      <trkpt lat="47.19182" lon="6.1856">
        <ele>618.5</ele>
        <time>2022-08-10T08:29:21Z</time>
      </trkpt>
      <trkpt lat="47.19183" lon="6.18558">
        <ele>618.8</ele>
        <time>2022-08-10T08:29:22Z</time>
      </trkpt>
      <trkpt lat="47.19185" lon="6.18556">
        <ele>618.8</ele>
        <time>2022-08-10T08:29:23Z</time>
      </trkpt>
      <trkpt lat="47.19187" lon="6.18556">
        <ele>619.2</ele>
        <time>2022-08-10T08:29:24Z</time>
      </trkpt>
      <trkpt lat="47.19189" lon="6.18555">
        <ele>619.6</ele>
        <time>2022-08-10T08:29:25Z</time>
      </trkpt>
      <trkpt lat="47.1919" lon="6.18555">
        <ele>620.1</ele>
        <time>2022-08-10T08:29:26Z</time>
      </trkpt>
      <trkpt lat="47.19192" lon="6.18554">
        <ele>620.7</ele>
        <time>2022-08-10T08:29:27Z</time>
      </trkpt>
      <trkpt lat="47.19193" lon="6.18553">
        <ele>621.5</ele>
        <time>2022-08-10T08:29:28Z</time>
      </trkpt>
      <trkpt lat="47.19194" lon="6.18552">
        <ele>621.9</ele>
        <time>2022-08-10T08:29:29Z</time>
      </trkpt>
      <trkpt lat="47.19195" lon="6.18552">
        <ele>622.7</ele>
        <time>2022-08-10T08:29:30Z</time>
      </trkpt>
      <trkpt lat="47.19196" lon="6.18551">
        <ele>623.5</ele>
        <time>2022-08-10T08:29:31Z</time>
      </trkpt>
      <trkpt lat="47.19197" lon="6.1855">
        <ele>624.1</ele>
        <time>2022-08-10T08:29:32Z</time>
      </trkpt>
      <trkpt lat="47.19199" lon="6.18548">
        <ele>624.5</ele>
        <time>2022-08-10T08:29:33Z</time>
      </trkpt>
      <trkpt lat="47.192" lon="6.18547">
        <ele>625.1</ele>
        <time>2022-08-10T08:29:34Z</time>
      </trkpt>
      <trkpt lat="47.19201" lon="6.18547">
        <ele>625.7</ele>
        <time>2022-08-10T08:29:35Z</time>
      </trkpt>
      <trkpt lat="47.19203" lon="6.18545">
        <ele>626.1</ele>
        <time>2022-08-10T08:29:36Z</time>
      </trkpt>
      <trkpt lat="47.19206" lon="6.18542">
        <ele>625.7</ele>
        <time>2022-08-10T08:29:37Z</time>
      </trkpt>
      <trkpt lat="47.19207" lon="6.18541">
        <ele>626.2</ele>
        <time>2022-08-10T08:29:38Z</time>
      </trkpt>
      <trkpt lat="47.1921" lon="6.1854">
        <ele>626.5</ele>
        <time>2022-08-10T08:29:39Z</time>
      </trkpt>
      <trkpt lat="47.19212" lon="6.18538">
        <ele>626.9</ele>
        <time>2022-08-10T08:29:40Z</time>
      </trkpt>
      <trkpt lat="47.19214" lon="6.18537">
        <ele>627.4</ele>
        <time>2022-08-10T08:29:41Z</time>
      </trkpt>
      <trkpt lat="47.19216" lon="6.18536">
        <ele>628.1</ele>
        <time>2022-08-10T08:29:42Z</time>
      </trkpt>
      <trkpt lat="47.19217" lon="6.18534">
        <ele>628.6</ele>
        <time>2022-08-10T08:29:43Z</time>
      </trkpt>
      <trkpt lat="47.19219" lon="6.18533">
        <ele>629</ele>
        <time>2022-08-10T08:29:44Z</time>
      </trkpt>
      <trkpt lat="47.19221" lon="6.18531">
        <ele>629</ele>
        <time>2022-08-10T08:29:45Z</time>
      </trkpt>
      <trkpt lat="47.19222" lon="6.1853">
        <ele>629.3</ele>
        <time>2022-08-10T08:29:46Z</time>
      </trkpt>
      <trkpt lat="47.19224" lon="6.18528">
        <ele>629.5</ele>
        <time>2022-08-10T08:29:47Z</time>
      </trkpt>
      <trkpt lat="47.19226" lon="6.18527">
        <ele>629.7</ele>
        <time>2022-08-10T08:29:48Z</time>
      </trkpt>
      <trkpt lat="47.19227" lon="6.18526">
        <ele>629.9</ele>
        <time>2022-08-10T08:29:49Z</time>
      </trkpt>
      <trkpt lat="47.19229" lon="6.18524">
        <ele>630</ele>
        <time>2022-08-10T08:29:50Z</time>
      </trkpt>
      <trkpt lat="47.19231" lon="6.18523">
        <ele>630</ele>
        <time>2022-08-10T08:29:51Z</time>
      </trkpt>
      <trkpt lat="47.19233" lon="6.18522">
        <ele>630.1</ele>
        <time>2022-08-10T08:29:52Z</time>
      </trkpt>
      <trkpt lat="47.19234" lon="6.18521">
        <ele>630.3</ele>
        <time>2022-08-10T08:29:53Z</time>
      </trkpt>
      <trkpt lat="47.19236" lon="6.18519">
        <ele>630.5</ele>
        <time>2022-08-10T08:29:54Z</time>
      </trkpt>
      <trkpt lat="47.19237" lon="6.18518">
        <ele>630.8</ele>
        <time>2022-08-10T08:29:55Z</time>
      </trkpt>
      <trkpt lat="47.19238" lon="6.18518">
        <ele>631</ele>
        <time>2022-08-10T08:29:56Z</time>
      </trkpt>
      <trkpt lat="47.1924" lon="6.18516">
        <ele>631.2</ele>
        <time>2022-08-10T08:29:57Z</time>
      </trkpt>
      <trkpt lat="47.19241" lon="6.18515">
        <ele>631.4</ele>
        <time>2022-08-10T08:29:58Z</time>
      </trkpt>
      <trkpt lat="47.19242" lon="6.18514">
        <ele>631.5</ele>
        <time>2022-08-10T08:29:59Z</time>
      </trkpt>
      <trkpt lat="47.19243" lon="6.18513">
        <ele>631.6</ele>
        <time>2022-08-10T08:30:00Z</time>
      </trkpt>
      <trkpt lat="47.19244" lon="6.18512">
        <ele>631.6</ele>
        <time>2022-08-10T08:30:01Z</time>
      </trkpt>
      <trkpt lat="47.19245" lon="6.18511">
        <ele>631.5</ele>
        <time>2022-08-10T08:30:02Z</time>
      </trkpt>
      <trkpt lat="47.19246" lon="6.1851">
        <ele>631.7</ele>
        <time>2022-08-10T08:30:03Z</time>
      </trkpt>
      <trkpt lat="47.19248" lon="6.18509">
        <ele>631.8</ele>
        <time>2022-08-10T08:30:04Z</time>
      </trkpt>
      <trkpt lat="47.19249" lon="6.18508">
        <ele>632.1</ele>
        <time>2022-08-10T08:30:05Z</time>
      </trkpt>
      <trkpt lat="47.1925" lon="6.18507">
        <ele>632.1</ele>
        <time>2022-08-10T08:30:06Z</time>
      </trkpt>
      <trkpt lat="47.19251" lon="6.18506">
        <ele>632.2</ele>
        <time>2022-08-10T08:30:07Z</time>
      </trkpt>
      <trkpt lat="47.19253" lon="6.18504">
        <ele>632.1</ele>
        <time>2022-08-10T08:30:08Z</time>
      </trkpt>
      <trkpt lat="47.19254" lon="6.18502">
        <ele>632</ele>
        <time>2022-08-10T08:30:09Z</time>
      </trkpt>
      <trkpt lat="47.19255" lon="6.18501">
        <ele>631.9</ele>
        <time>2022-08-10T08:30:10Z</time>
      </trkpt>
      <trkpt lat="47.19256" lon="6.185">
        <ele>632.3</ele>
        <time>2022-08-10T08:30:11Z</time>
      </trkpt>
      <trkpt lat="47.19256" lon="6.18499">
        <ele>632.6</ele>
        <time>2022-08-10T08:30:12Z</time>
      </trkpt>
      <trkpt lat="47.19256" lon="6.18499">
        <ele>632.6</ele>
        <time>2022-08-10T08:30:13Z</time>
      </trkpt>
      <trkpt lat="47.19256" lon="6.18499">
        <ele>632.6</ele>
        <time>2022-08-10T08:30:14Z</time>
      </trkpt>
      <trkpt lat="47.19256" lon="6.18499">
        <ele>632.6</ele>
        <time>2022-08-10T08:30:15Z</time>
      </trkpt>
      <trkpt lat="47.19256" lon="6.18499">
        <ele>632.6</ele>
        <time>2022-08-10T08:30:16Z</time>
      </trkpt>
      <trkpt lat="47.19261" lon="6.18494">
        <ele>633.7</ele>
        <time>2022-08-10T08:30:17Z</time>
      </trkpt>
      <trkpt lat="47.19263" lon="6.18492">
        <ele>633.5</ele>
        <time>2022-08-10T08:30:18Z</time>
      </trkpt>
      <trkpt lat="47.19263" lon="6.18491">
        <ele>633.9</ele>
        <time>2022-08-10T08:30:19Z</time>
      </trkpt>
      <trkpt lat="47.19264" lon="6.1849">
        <ele>634.2</ele>
        <time>2022-08-10T08:30:20Z</time>
      </trkpt>
      <trkpt lat="47.19266" lon="6.18488">
        <ele>634.2</ele>
        <time>2022-08-10T08:30:21Z</time>
      </trkpt>
      <trkpt lat="47.19267" lon="6.18485">
        <ele>634.1</ele>
        <time>2022-08-10T08:30:22Z</time>
      </trkpt>
      <trkpt lat="47.19269" lon="6.18483">
        <ele>633.8</ele>
        <time>2022-08-10T08:30:23Z</time>
      </trkpt>
      <trkpt lat="47.19271" lon="6.1848">
        <ele>633</ele>
        <time>2022-08-10T08:30:24Z</time>
      </trkpt>
      <trkpt lat="47.19273" lon="6.18478">
        <ele>632.9</ele>
        <time>2022-08-10T08:30:25Z</time>
      </trkpt>
      <trkpt lat="47.19275" lon="6.18475">
        <ele>632.8</ele>
        <time>2022-08-10T08:30:26Z</time>
      </trkpt>
      <trkpt lat="47.19277" lon="6.18472">
        <ele>632.5</ele>
        <time>2022-08-10T08:30:27Z</time>
      </trkpt>
      <trkpt lat="47.19279" lon="6.1847">
        <ele>632.2</ele>
        <time>2022-08-10T08:30:28Z</time>
      </trkpt>
      <trkpt lat="47.19281" lon="6.18467">
        <ele>631.4</ele>
        <time>2022-08-10T08:30:29Z</time>
      </trkpt>
      <trkpt lat="47.19283" lon="6.18465">
        <ele>630.8</ele>
        <time>2022-08-10T08:30:30Z</time>
      </trkpt>
      <trkpt lat="47.19285" lon="6.18462">
        <ele>630.1</ele>
        <time>2022-08-10T08:30:31Z</time>
      </trkpt>
      <trkpt lat="47.19286" lon="6.18459">
        <ele>629.5</ele>
        <time>2022-08-10T08:30:32Z</time>
      </trkpt>
      <trkpt lat="47.19288" lon="6.18457">
        <ele>628.3</ele>
        <time>2022-08-10T08:30:33Z</time>
      </trkpt>
      <trkpt lat="47.1929" lon="6.18454">
        <ele>627.5</ele>
        <time>2022-08-10T08:30:34Z</time>
      </trkpt>
      <trkpt lat="47.19291" lon="6.1845">
        <ele>626.7</ele>
        <time>2022-08-10T08:30:35Z</time>
      </trkpt>
      <trkpt lat="47.19293" lon="6.18447">
        <ele>626.4</ele>
        <time>2022-08-10T08:30:36Z</time>
      </trkpt>
      <trkpt lat="47.19295" lon="6.18444">
        <ele>625.8</ele>
        <time>2022-08-10T08:30:37Z</time>
      </trkpt>
      <trkpt lat="47.19297" lon="6.1844">
        <ele>625.1</ele>
        <time>2022-08-10T08:30:38Z</time>
      </trkpt>
      <trkpt lat="47.19299" lon="6.18437">
        <ele>624.2</ele>
        <time>2022-08-10T08:30:39Z</time>
      </trkpt>
      <trkpt lat="47.193" lon="6.18434">
        <ele>623.7</ele>
        <time>2022-08-10T08:30:40Z</time>
      </trkpt>
      <trkpt lat="47.19302" lon="6.18431">
        <ele>623.1</ele>
        <time>2022-08-10T08:30:41Z</time>
      </trkpt>
      <trkpt lat="47.19304" lon="6.18427">
        <ele>622.3</ele>
        <time>2022-08-10T08:30:42Z</time>
      </trkpt>
      <trkpt lat="47.19307" lon="6.18422">
        <ele>621.8</ele>
        <time>2022-08-10T08:30:43Z</time>
      </trkpt>
      <trkpt lat="47.19309" lon="6.18417">
        <ele>621.2</ele>
        <time>2022-08-10T08:30:44Z</time>
      </trkpt>
      <trkpt lat="47.19311" lon="6.18412">
        <ele>620.7</ele>
        <time>2022-08-10T08:30:45Z</time>
      </trkpt>
      <trkpt lat="47.19313" lon="6.18407">
        <ele>619.9</ele>
        <time>2022-08-10T08:30:46Z</time>
      </trkpt>
      <trkpt lat="47.19316" lon="6.18401">
        <ele>619.1</ele>
        <time>2022-08-10T08:30:47Z</time>
      </trkpt>
      <trkpt lat="47.19319" lon="6.18396">
        <ele>618.4</ele>
        <time>2022-08-10T08:30:48Z</time>
      </trkpt>
      <trkpt lat="47.19322" lon="6.18389">
        <ele>617.6</ele>
        <time>2022-08-10T08:30:49Z</time>
      </trkpt>
      <trkpt lat="47.19325" lon="6.18381">
        <ele>616.3</ele>
        <time>2022-08-10T08:30:50Z</time>
      </trkpt>
      <trkpt lat="47.19328" lon="6.18375">
        <ele>615.6</ele>
        <time>2022-08-10T08:30:51Z</time>
      </trkpt>
      <trkpt lat="47.1933" lon="6.18368">
        <ele>615.3</ele>
        <time>2022-08-10T08:30:52Z</time>
      </trkpt>
      <trkpt lat="47.19332" lon="6.18361">
        <ele>614.5</ele>
        <time>2022-08-10T08:30:53Z</time>
      </trkpt>
      <trkpt lat="47.19335" lon="6.18355">
        <ele>613.9</ele>
        <time>2022-08-10T08:30:54Z</time>
      </trkpt>
      <trkpt lat="47.19339" lon="6.18349">
        <ele>613.5</ele>
        <time>2022-08-10T08:30:55Z</time>
      </trkpt>
      <trkpt lat="47.19342" lon="6.18342">
        <ele>613</ele>
        <time>2022-08-10T08:30:56Z</time>
      </trkpt>
      <trkpt lat="47.19346" lon="6.18335">
        <ele>612.7</ele>
        <time>2022-08-10T08:30:57Z</time>
      </trkpt>
      <trkpt lat="47.1935" lon="6.18327">
        <ele>612.2</ele>
        <time>2022-08-10T08:30:58Z</time>
      </trkpt>
      <trkpt lat="47.19354" lon="6.1832">
        <ele>611.8</ele>
        <time>2022-08-10T08:30:59Z</time>
      </trkpt>
      <trkpt lat="47.19358" lon="6.18313">
        <ele>611.2</ele>
        <time>2022-08-10T08:31:00Z</time>
      </trkpt>
      <trkpt lat="47.1936" lon="6.18306">
        <ele>610.6</ele>
        <time>2022-08-10T08:31:01Z</time>
      </trkpt>
      <trkpt lat="47.19362" lon="6.183">
        <ele>609.9</ele>
        <time>2022-08-10T08:31:02Z</time>
      </trkpt>
      <trkpt lat="47.19365" lon="6.18294">
        <ele>609.3</ele>
        <time>2022-08-10T08:31:03Z</time>
      </trkpt>
      <trkpt lat="47.19367" lon="6.18287">
        <ele>608.8</ele>
        <time>2022-08-10T08:31:04Z</time>
      </trkpt>
      <trkpt lat="47.1937" lon="6.1828">
        <ele>608.2</ele>
        <time>2022-08-10T08:31:05Z</time>
      </trkpt>
      <trkpt lat="47.19373" lon="6.18272">
        <ele>607.3</ele>
        <time>2022-08-10T08:31:06Z</time>
      </trkpt>
      <trkpt lat="47.19376" lon="6.18265">
        <ele>606</ele>
        <time>2022-08-10T08:31:07Z</time>
      </trkpt>
      <trkpt lat="47.1938" lon="6.18256">
        <ele>605.2</ele>
        <time>2022-08-10T08:31:08Z</time>
      </trkpt>
      <trkpt lat="47.19384" lon="6.18247">
        <ele>604.2</ele>
        <time>2022-08-10T08:31:09Z</time>
      </trkpt>
      <trkpt lat="47.1939" lon="6.18234">
        <ele>602.6</ele>
        <time>2022-08-10T08:31:10Z</time>
      </trkpt>
      <trkpt lat="47.19394" lon="6.18224">
        <ele>601.8</ele>
        <time>2022-08-10T08:31:11Z</time>
      </trkpt>
      <trkpt lat="47.19397" lon="6.18214">
        <ele>600.5</ele>
        <time>2022-08-10T08:31:12Z</time>
      </trkpt>
      <trkpt lat="47.194" lon="6.18204">
        <ele>599</ele>
        <time>2022-08-10T08:31:13Z</time>
      </trkpt>
      <trkpt lat="47.19404" lon="6.18192">
        <ele>598.3</ele>
        <time>2022-08-10T08:31:14Z</time>
      </trkpt>
      <trkpt lat="47.19408" lon="6.1818">
        <ele>597.3</ele>
        <time>2022-08-10T08:31:15Z</time>
      </trkpt>
      <trkpt lat="47.19412" lon="6.18169">
        <ele>597.5</ele>
        <time>2022-08-10T08:31:16Z</time>
      </trkpt>
      <trkpt lat="47.19416" lon="6.18158">
        <ele>597.5</ele>
        <time>2022-08-10T08:31:17Z</time>
      </trkpt>
      <trkpt lat="47.19421" lon="6.18146">
        <ele>596.9</ele>
        <time>2022-08-10T08:31:18Z</time>
      </trkpt>
      <trkpt lat="47.19425" lon="6.18135">
        <ele>596.6</ele>
        <time>2022-08-10T08:31:19Z</time>
      </trkpt>
      <trkpt lat="47.19429" lon="6.18124">
        <ele>596.6</ele>
        <time>2022-08-10T08:31:20Z</time>
      </trkpt>
      <trkpt lat="47.19433" lon="6.18113">
        <ele>596.2</ele>
        <time>2022-08-10T08:31:21Z</time>
      </trkpt>
      <trkpt lat="47.19437" lon="6.18102">
        <ele>595.9</ele>
        <time>2022-08-10T08:31:22Z</time>
      </trkpt>
      <trkpt lat="47.19441" lon="6.18092">
        <ele>595.5</ele>
        <time>2022-08-10T08:31:23Z</time>
      </trkpt>
      <trkpt lat="47.19445" lon="6.18082">
        <ele>595.8</ele>
        <time>2022-08-10T08:31:24Z</time>
      </trkpt>
      <trkpt lat="47.19448" lon="6.18073">
        <ele>595.9</ele>
        <time>2022-08-10T08:31:25Z</time>
      </trkpt>
      <trkpt lat="47.19451" lon="6.18065">
        <ele>595.6</ele>
        <time>2022-08-10T08:31:26Z</time>
      </trkpt>
      <trkpt lat="47.19454" lon="6.18056">
        <ele>595.3</ele>
        <time>2022-08-10T08:31:27Z</time>
      </trkpt>
      <trkpt lat="47.19457" lon="6.18047">
        <ele>595.2</ele>
        <time>2022-08-10T08:31:28Z</time>
      </trkpt>
      <trkpt lat="47.1946" lon="6.18037">
        <ele>595.1</ele>
        <time>2022-08-10T08:31:29Z</time>
      </trkpt>
      <trkpt lat="47.19463" lon="6.18028">
        <ele>594.6</ele>
        <time>2022-08-10T08:31:30Z</time>
      </trkpt>
      <trkpt lat="47.19467" lon="6.1802">
        <ele>594</ele>
        <time>2022-08-10T08:31:31Z</time>
      </trkpt>
      <trkpt lat="47.19469" lon="6.18012">
        <ele>593.5</ele>
        <time>2022-08-10T08:31:32Z</time>
      </trkpt>
      <trkpt lat="47.19471" lon="6.18005">
        <ele>592.7</ele>
        <time>2022-08-10T08:31:33Z</time>
      </trkpt>
      <trkpt lat="47.19474" lon="6.17997">
        <ele>592.2</ele>
        <time>2022-08-10T08:31:34Z</time>
      </trkpt>
      <trkpt lat="47.19477" lon="6.17987">
        <ele>592.1</ele>
        <time>2022-08-10T08:31:35Z</time>
      </trkpt>
      <trkpt lat="47.19479" lon="6.17978">
        <ele>591.9</ele>
        <time>2022-08-10T08:31:36Z</time>
      </trkpt>
      <trkpt lat="47.1948" lon="6.17971">
        <ele>591.5</ele>
        <time>2022-08-10T08:31:37Z</time>
      </trkpt>
      <trkpt lat="47.19481" lon="6.17965">
        <ele>591.1</ele>
        <time>2022-08-10T08:31:38Z</time>
      </trkpt>
      <trkpt lat="47.19482" lon="6.17959">
        <ele>590.8</ele>
        <time>2022-08-10T08:31:39Z</time>
      </trkpt>
      <trkpt lat="47.19483" lon="6.17954">
        <ele>590.5</ele>
        <time>2022-08-10T08:31:40Z</time>
      </trkpt>
      <trkpt lat="47.19484" lon="6.17949">
        <ele>590.5</ele>
        <time>2022-08-10T08:31:41Z</time>
      </trkpt>
      <trkpt lat="47.19485" lon="6.17945">
        <ele>590.2</ele>
        <time>2022-08-10T08:31:42Z</time>
      </trkpt>
      <trkpt lat="47.19485" lon="6.17942">
        <ele>590</ele>
        <time>2022-08-10T08:31:43Z</time>
      </trkpt>
      <trkpt lat="47.19486" lon="6.17938">
        <ele>589.4</ele>
        <time>2022-08-10T08:31:44Z</time>
      </trkpt>
      <trkpt lat="47.19486" lon="6.17933">
        <ele>589</ele>
        <time>2022-08-10T08:31:45Z</time>
      </trkpt>
      <trkpt lat="47.19487" lon="6.17929">
        <ele>588.4</ele>
        <time>2022-08-10T08:31:46Z</time>
      </trkpt>
      <trkpt lat="47.19487" lon="6.17924">
        <ele>587.7</ele>
        <time>2022-08-10T08:31:47Z</time>
      </trkpt>
      <trkpt lat="47.19488" lon="6.17919">
        <ele>587.2</ele>
        <time>2022-08-10T08:31:48Z</time>
      </trkpt>
      <trkpt lat="47.19489" lon="6.17913">
        <ele>587.2</ele>
        <time>2022-08-10T08:31:49Z</time>
      </trkpt>
      <trkpt lat="47.1949" lon="6.17908">
        <ele>586.9</ele>
        <time>2022-08-10T08:31:50Z</time>
      </trkpt>
      <trkpt lat="47.1949" lon="6.17904">
        <ele>586.8</ele>
        <time>2022-08-10T08:31:51Z</time>
      </trkpt>
      <trkpt lat="47.1949" lon="6.17898">
        <ele>586.5</ele>
        <time>2022-08-10T08:31:52Z</time>
      </trkpt>
      <trkpt lat="47.19491" lon="6.17892">
        <ele>586.1</ele>
        <time>2022-08-10T08:31:53Z</time>
      </trkpt>
      <trkpt lat="47.19492" lon="6.17885">
        <ele>585.6</ele>
        <time>2022-08-10T08:31:54Z</time>
      </trkpt>
      <trkpt lat="47.19493" lon="6.17877">
        <ele>585.1</ele>
        <time>2022-08-10T08:31:55Z</time>
      </trkpt>
      <trkpt lat="47.19494" lon="6.1787">
        <ele>584.6</ele>
        <time>2022-08-10T08:31:56Z</time>
      </trkpt>
      <trkpt lat="47.19495" lon="6.17863">
        <ele>584.3</ele>
        <time>2022-08-10T08:31:57Z</time>
      </trkpt>
      <trkpt lat="47.19495" lon="6.17856">
        <ele>583.9</ele>
        <time>2022-08-10T08:31:58Z</time>
      </trkpt>
      <trkpt lat="47.19496" lon="6.17847">
        <ele>583.5</ele>
        <time>2022-08-10T08:31:59Z</time>
      </trkpt>
      <trkpt lat="47.19497" lon="6.17839">
        <ele>582.7</ele>
        <time>2022-08-10T08:32:00Z</time>
      </trkpt>
      <trkpt lat="47.19497" lon="6.17833">
        <ele>582.2</ele>
        <time>2022-08-10T08:32:01Z</time>
      </trkpt>
      <trkpt lat="47.19498" lon="6.17826">
        <ele>582</ele>
        <time>2022-08-10T08:32:02Z</time>
      </trkpt>
      <trkpt lat="47.19499" lon="6.1782">
        <ele>581.7</ele>
        <time>2022-08-10T08:32:03Z</time>
      </trkpt>
      <trkpt lat="47.195" lon="6.17814">
        <ele>581.6</ele>
        <time>2022-08-10T08:32:04Z</time>
      </trkpt>
      <trkpt lat="47.195" lon="6.17809">
        <ele>581.5</ele>
        <time>2022-08-10T08:32:05Z</time>
      </trkpt>
      <trkpt lat="47.19501" lon="6.17803">
        <ele>581.3</ele>
        <time>2022-08-10T08:32:06Z</time>
      </trkpt>
      <trkpt lat="47.19501" lon="6.17798">
        <ele>581.1</ele>
        <time>2022-08-10T08:32:07Z</time>
      </trkpt>
      <trkpt lat="47.19503" lon="6.17791">
        <ele>580.7</ele>
        <time>2022-08-10T08:32:08Z</time>
      </trkpt>
      <trkpt lat="47.19503" lon="6.17784">
        <ele>580.1</ele>
        <time>2022-08-10T08:32:09Z</time>
      </trkpt>
      <trkpt lat="47.19504" lon="6.17776">
        <ele>579.6</ele>
        <time>2022-08-10T08:32:10Z</time>
      </trkpt>
      <trkpt lat="47.19506" lon="6.17766">
        <ele>579.3</ele>
        <time>2022-08-10T08:32:11Z</time>
      </trkpt>
      <trkpt lat="47.19507" lon="6.17759">
        <ele>578.5</ele>
        <time>2022-08-10T08:32:12Z</time>
      </trkpt>
      <trkpt lat="47.19507" lon="6.17752">
        <ele>577.9</ele>
        <time>2022-08-10T08:32:13Z</time>
      </trkpt>
      <trkpt lat="47.19509" lon="6.17745">
        <ele>577.5</ele>
        <time>2022-08-10T08:32:14Z</time>
      </trkpt>
      <trkpt lat="47.1951" lon="6.17739">
        <ele>576.8</ele>
        <time>2022-08-10T08:32:15Z</time>
      </trkpt>
      <trkpt lat="47.19511" lon="6.17733">
        <ele>576.3</ele>
        <time>2022-08-10T08:32:16Z</time>
      </trkpt>
      <trkpt lat="47.19512" lon="6.17727">
        <ele>575.6</ele>
        <time>2022-08-10T08:32:17Z</time>
      </trkpt>
      <trkpt lat="47.19513" lon="6.17721">
        <ele>575.1</ele>
        <time>2022-08-10T08:32:18Z</time>
      </trkpt>
      <trkpt lat="47.19513" lon="6.17714">
        <ele>574.4</ele>
        <time>2022-08-10T08:32:19Z</time>
      </trkpt>
      <trkpt lat="47.19514" lon="6.17708">
        <ele>573.5</ele>
        <time>2022-08-10T08:32:20Z</time>
      </trkpt>
      <trkpt lat="47.19513" lon="6.17703">
        <ele>573.2</ele>
        <time>2022-08-10T08:32:21Z</time>
      </trkpt>
      <trkpt lat="47.19513" lon="6.17698">
        <ele>573.2</ele>
        <time>2022-08-10T08:32:22Z</time>
      </trkpt>
      <trkpt lat="47.19512" lon="6.17693">
        <ele>573.4</ele>
        <time>2022-08-10T08:32:23Z</time>
      </trkpt>
      <trkpt lat="47.19511" lon="6.17688">
        <ele>573.5</ele>
        <time>2022-08-10T08:32:24Z</time>
      </trkpt>
      <trkpt lat="47.19511" lon="6.17683">
        <ele>574.1</ele>
        <time>2022-08-10T08:32:25Z</time>
      </trkpt>
      <trkpt lat="47.19511" lon="6.17677">
        <ele>574.4</ele>
        <time>2022-08-10T08:32:26Z</time>
      </trkpt>
      <trkpt lat="47.19511" lon="6.17671">
        <ele>574.6</ele>
        <time>2022-08-10T08:32:27Z</time>
      </trkpt>
      <trkpt lat="47.19511" lon="6.17665">
        <ele>574.9</ele>
        <time>2022-08-10T08:32:28Z</time>
      </trkpt>
      <trkpt lat="47.19511" lon="6.17658">
        <ele>575</ele>
        <time>2022-08-10T08:32:29Z</time>
      </trkpt>
      <trkpt lat="47.19511" lon="6.1765">
        <ele>574.9</ele>
        <time>2022-08-10T08:32:30Z</time>
      </trkpt>
      <trkpt lat="47.19512" lon="6.17641">
        <ele>574.7</ele>
        <time>2022-08-10T08:32:31Z</time>
      </trkpt>
      <trkpt lat="47.19513" lon="6.17631">
        <ele>574.6</ele>
        <time>2022-08-10T08:32:32Z</time>
      </trkpt>
      <trkpt lat="47.19514" lon="6.17622">
        <ele>574.5</ele>
        <time>2022-08-10T08:32:33Z</time>
      </trkpt>
      <trkpt lat="47.19514" lon="6.17611">
        <ele>574.7</ele>
        <time>2022-08-10T08:32:34Z</time>
      </trkpt>
      <trkpt lat="47.19515" lon="6.176">
        <ele>575.1</ele>
        <time>2022-08-10T08:32:35Z</time>
      </trkpt>
      <trkpt lat="47.19514" lon="6.17589">
        <ele>574.6</ele>
        <time>2022-08-10T08:32:36Z</time>
      </trkpt>
      <trkpt lat="47.19514" lon="6.17577">
        <ele>574</ele>
        <time>2022-08-10T08:32:37Z</time>
      </trkpt>
      <trkpt lat="47.19514" lon="6.17565">
        <ele>573.3</ele>
        <time>2022-08-10T08:32:38Z</time>
      </trkpt>
      <trkpt lat="47.19515" lon="6.17552">
        <ele>573.5</ele>
        <time>2022-08-10T08:32:39Z</time>
      </trkpt>
      <trkpt lat="47.19515" lon="6.1754">
        <ele>573.2</ele>
        <time>2022-08-10T08:32:40Z</time>
      </trkpt>
      <trkpt lat="47.19518" lon="6.17528">
        <ele>572.9</ele>
        <time>2022-08-10T08:32:41Z</time>
      </trkpt>
      <trkpt lat="47.1952" lon="6.17517">
        <ele>572.4</ele>
        <time>2022-08-10T08:32:42Z</time>
      </trkpt>
      <trkpt lat="47.19523" lon="6.17507">
        <ele>572.4</ele>
        <time>2022-08-10T08:32:43Z</time>
      </trkpt>
      <trkpt lat="47.19526" lon="6.17498">
        <ele>572</ele>
        <time>2022-08-10T08:32:44Z</time>
      </trkpt>
      <trkpt lat="47.19529" lon="6.1749">
        <ele>571.9</ele>
        <time>2022-08-10T08:32:45Z</time>
      </trkpt>
      <trkpt lat="47.19533" lon="6.17481">
        <ele>571.7</ele>
        <time>2022-08-10T08:32:46Z</time>
      </trkpt>
      <trkpt lat="47.19537" lon="6.17474">
        <ele>571.6</ele>
        <time>2022-08-10T08:32:47Z</time>
      </trkpt>
      <trkpt lat="47.19539" lon="6.17469">
        <ele>571.9</ele>
        <time>2022-08-10T08:32:48Z</time>
      </trkpt>
      <trkpt lat="47.19541" lon="6.17464">
        <ele>572.4</ele>
        <time>2022-08-10T08:32:49Z</time>
      </trkpt>
      <trkpt lat="47.19543" lon="6.17459">
        <ele>571.9</ele>
        <time>2022-08-10T08:32:50Z</time>
      </trkpt>
      <trkpt lat="47.19544" lon="6.17455">
        <ele>572.1</ele>
        <time>2022-08-10T08:32:51Z</time>
      </trkpt>
      <trkpt lat="47.19545" lon="6.17451">
        <ele>572.2</ele>
        <time>2022-08-10T08:32:52Z</time>
      </trkpt>
      <trkpt lat="47.19546" lon="6.17447">
        <ele>572.2</ele>
        <time>2022-08-10T08:32:53Z</time>
      </trkpt>
      <trkpt lat="47.19548" lon="6.17444">
        <ele>572.1</ele>
        <time>2022-08-10T08:32:54Z</time>
      </trkpt>
      <trkpt lat="47.1955" lon="6.1744">
        <ele>572.1</ele>
        <time>2022-08-10T08:32:55Z</time>
      </trkpt>
      <trkpt lat="47.19551" lon="6.17437">
        <ele>572.3</ele>
        <time>2022-08-10T08:32:56Z</time>
      </trkpt>
      <trkpt lat="47.19552" lon="6.17434">
        <ele>572.6</ele>
        <time>2022-08-10T08:32:57Z</time>
      </trkpt>
      <trkpt lat="47.19554" lon="6.1743">
        <ele>572.7</ele>
        <time>2022-08-10T08:32:58Z</time>
      </trkpt>
      <trkpt lat="47.19556" lon="6.17426">
        <ele>572.9</ele>
        <time>2022-08-10T08:32:59Z</time>
      </trkpt>
      <trkpt lat="47.19557" lon="6.17421">
        <ele>572.6</ele>
        <time>2022-08-10T08:33:00Z</time>
      </trkpt>
      <trkpt lat="47.19557" lon="6.17418">
        <ele>572.9</ele>
        <time>2022-08-10T08:33:01Z</time>
      </trkpt>
      <trkpt lat="47.19558" lon="6.17415">
        <ele>573.5</ele>
        <time>2022-08-10T08:33:02Z</time>
      </trkpt>
      <trkpt lat="47.19559" lon="6.17413">
        <ele>574</ele>
        <time>2022-08-10T08:33:03Z</time>
      </trkpt>
      <trkpt lat="47.19559" lon="6.17411">
        <ele>574.5</ele>
        <time>2022-08-10T08:33:04Z</time>
      </trkpt>
      <trkpt lat="47.19559" lon="6.17408">
        <ele>574.5</ele>
        <time>2022-08-10T08:33:05Z</time>
      </trkpt>
      <trkpt lat="47.19559" lon="6.17406">
        <ele>574.6</ele>
        <time>2022-08-10T08:33:06Z</time>
      </trkpt>
      <trkpt lat="47.19559" lon="6.17405">
        <ele>574.7</ele>
        <time>2022-08-10T08:33:07Z</time>
      </trkpt>
      <trkpt lat="47.19559" lon="6.17405">
        <ele>574.7</ele>
        <time>2022-08-10T08:33:08Z</time>
      </trkpt>
      <trkpt lat="47.19559" lon="6.17405">
        <ele>574.7</ele>
        <time>2022-08-10T08:33:09Z</time>
      </trkpt>
      <trkpt lat="47.19559" lon="6.17405">
        <ele>574.7</ele>
        <time>2022-08-10T08:33:10Z</time>
      </trkpt>
      <trkpt lat="47.19559" lon="6.17405">
        <ele>574.7</ele>
        <time>2022-08-10T08:33:11Z</time>
      </trkpt>
      <trkpt lat="47.19559" lon="6.17405">
        <ele>574.7</ele>
        <time>2022-08-10T08:33:12Z</time>
      </trkpt>
      <trkpt lat="47.19559" lon="6.17405">
        <ele>574.7</ele>
        <time>2022-08-10T08:33:13Z</time>
      </trkpt>
      <trkpt lat="47.19559" lon="6.17405">
        <ele>574.7</ele>
        <time>2022-08-10T08:33:14Z</time>
      </trkpt>
      <trkpt lat="47.19559" lon="6.17405">
        <ele>574.7</ele>
        <time>2022-08-10T08:33:15Z</time>
      </trkpt>
      <trkpt lat="47.19559" lon="6.17405">
        <ele>574.7</ele>
        <time>2022-08-10T08:33:16Z</time>
      </trkpt>
      <trkpt lat="47.19559" lon="6.17405">
        <ele>574.7</ele>
        <time>2022-08-10T08:33:17Z</time>
      </trkpt>
      <trkpt lat="47.19559" lon="6.17405">
        <ele>574.7</ele>
        <time>2022-08-10T08:33:18Z</time>
      </trkpt>
      <trkpt lat="47.19559" lon="6.17405">
        <ele>574.7</ele>
        <time>2022-08-10T08:33:19Z</time>
      </trkpt>
      <trkpt lat="47.19559" lon="6.17405">
        <ele>574.7</ele>
        <time>2022-08-10T08:33:20Z</time>
      </trkpt>
      <trkpt lat="47.19559" lon="6.17405">
        <ele>574.7</ele>
        <time>2022-08-10T08:33:21Z</time>
      </trkpt>
      <trkpt lat="47.19559" lon="6.17405">
        <ele>574.7</ele>
        <time>2022-08-10T08:33:22Z</time>
      </trkpt>
      <trkpt lat="47.19559" lon="6.17405">
        <ele>574.7</ele>
        <time>2022-08-10T08:33:23Z</time>
      </trkpt>
      <trkpt lat="47.19559" lon="6.17405">
        <ele>574.7</ele>
        <time>2022-08-10T08:33:24Z</time>
      </trkpt>
      <trkpt lat="47.19559" lon="6.17405">
        <ele>574.7</ele>
        <time>2022-08-10T08:33:25Z</time>
      </trkpt>
      <trkpt lat="47.19559" lon="6.17405">
        <ele>574.7</ele>
        <time>2022-08-10T08:33:26Z</time>
      </trkpt>
      <trkpt lat="47.19559" lon="6.17405">
        <ele>574.7</ele>
        <time>2022-08-10T08:33:27Z</time>
      </trkpt>
      <trkpt lat="47.19559" lon="6.17405">
        <ele>574.7</ele>
        <time>2022-08-10T08:33:28Z</time>
      </trkpt>
      <trkpt lat="47.19559" lon="6.17405">
        <ele>574.7</ele>
        <time>2022-08-10T08:33:29Z</time>
      </trkpt>
      <trkpt lat="47.19559" lon="6.17405">
        <ele>574.7</ele>
        <time>2022-08-10T08:33:30Z</time>
      </trkpt>
      <trkpt lat="47.19559" lon="6.17405">
        <ele>574.7</ele>
        <time>2022-08-10T08:33:31Z</time>
      </trkpt>
      <trkpt lat="47.19559" lon="6.17405">
        <ele>574.7</ele>
        <time>2022-08-10T08:33:32Z</time>
      </trkpt>
      <trkpt lat="47.19559" lon="6.17405">
        <ele>574.7</ele>
        <time>2022-08-10T08:33:33Z</time>
      </trkpt>
      <trkpt lat="47.19559" lon="6.17405">
        <ele>574.7</ele>
        <time>2022-08-10T08:33:34Z</time>
      </trkpt>
      <trkpt lat="47.19559" lon="6.17405">
        <ele>574.7</ele>
        <time>2022-08-10T08:33:35Z</time>
      </trkpt>
      <trkpt lat="47.19559" lon="6.17405">
        <ele>574.7</ele>
        <time>2022-08-10T08:33:36Z</time>
      </trkpt>
      <trkpt lat="47.19559" lon="6.17405">
        <ele>574.7</ele>
        <time>2022-08-10T08:33:37Z</time>
      </trkpt>
      <trkpt lat="47.19552" lon="6.17394">
        <ele>574.9</ele>
        <time>2022-08-10T08:33:38Z</time>
      </trkpt>
      <trkpt lat="47.19551" lon="6.17393">
        <ele>574.9</ele>
        <time>2022-08-10T08:33:39Z</time>
      </trkpt>
      <trkpt lat="47.19548" lon="6.17393">
        <ele>575</ele>
        <time>2022-08-10T08:33:40Z</time>
      </trkpt>
      <trkpt lat="47.19546" lon="6.17392">
        <ele>575</ele>
        <time>2022-08-10T08:33:41Z</time>
      </trkpt>
      <trkpt lat="47.19544" lon="6.1739">
        <ele>575</ele>
        <time>2022-08-10T08:33:42Z</time>
      </trkpt>
      <trkpt lat="47.19543" lon="6.17389">
        <ele>575.1</ele>
        <time>2022-08-10T08:33:43Z</time>
      </trkpt>
      <trkpt lat="47.19541" lon="6.17387">
        <ele>575.1</ele>
        <time>2022-08-10T08:33:44Z</time>
      </trkpt>
      <trkpt lat="47.19539" lon="6.17385">
        <ele>575.1</ele>
        <time>2022-08-10T08:33:45Z</time>
      </trkpt>
      <trkpt lat="47.19538" lon="6.17383">
        <ele>575</ele>
        <time>2022-08-10T08:33:46Z</time>
      </trkpt>
      <trkpt lat="47.19537" lon="6.17382">
        <ele>575.1</ele>
        <time>2022-08-10T08:33:47Z</time>
      </trkpt>
      <trkpt lat="47.19535" lon="6.17379">
        <ele>575</ele>
        <time>2022-08-10T08:33:48Z</time>
      </trkpt>
      <trkpt lat="47.19534" lon="6.17377">
        <ele>575</ele>
        <time>2022-08-10T08:33:49Z</time>
      </trkpt>
      <trkpt lat="47.19533" lon="6.17374">
        <ele>575</ele>
        <time>2022-08-10T08:33:50Z</time>
      </trkpt>
      <trkpt lat="47.19531" lon="6.17372">
        <ele>575</ele>
        <time>2022-08-10T08:33:51Z</time>
      </trkpt>
      <trkpt lat="47.19529" lon="6.17371">
        <ele>575</ele>
        <time>2022-08-10T08:33:52Z</time>
      </trkpt>
      <trkpt lat="47.19528" lon="6.17368">
        <ele>575.1</ele>
        <time>2022-08-10T08:33:53Z</time>
      </trkpt>
      <trkpt lat="47.19527" lon="6.17366">
        <ele>575.4</ele>
        <time>2022-08-10T08:33:54Z</time>
      </trkpt>
      <trkpt lat="47.19526" lon="6.17363">
        <ele>575.5</ele>
        <time>2022-08-10T08:33:55Z</time>
      </trkpt>
      <trkpt lat="47.19524" lon="6.17361">
        <ele>575.6</ele>
        <time>2022-08-10T08:33:56Z</time>
      </trkpt>
      <trkpt lat="47.19523" lon="6.17358">
        <ele>575.8</ele>
        <time>2022-08-10T08:33:57Z</time>
      </trkpt>
      <trkpt lat="47.19522" lon="6.17355">
        <ele>575.9</ele>
        <time>2022-08-10T08:33:58Z</time>
      </trkpt>
      <trkpt lat="47.19522" lon="6.17352">
        <ele>576.5</ele>
        <time>2022-08-10T08:33:59Z</time>
      </trkpt>
      <trkpt lat="47.19521" lon="6.17348">
        <ele>576.9</ele>
        <time>2022-08-10T08:34:00Z</time>
      </trkpt>
      <trkpt lat="47.19521" lon="6.17346">
        <ele>577.3</ele>
        <time>2022-08-10T08:34:01Z</time>
      </trkpt>
      <trkpt lat="47.1952" lon="6.17343">
        <ele>577.7</ele>
        <time>2022-08-10T08:34:02Z</time>
      </trkpt>
      <trkpt lat="47.19519" lon="6.1734">
        <ele>577.8</ele>
        <time>2022-08-10T08:34:03Z</time>
      </trkpt>
      <trkpt lat="47.19518" lon="6.17338">
        <ele>578.1</ele>
        <time>2022-08-10T08:34:04Z</time>
      </trkpt>
      <trkpt lat="47.19517" lon="6.17335">
        <ele>578.5</ele>
        <time>2022-08-10T08:34:05Z</time>
      </trkpt>
      <trkpt lat="47.19516" lon="6.17332">
        <ele>579</ele>
        <time>2022-08-10T08:34:06Z</time>
      </trkpt>
      <trkpt lat="47.19514" lon="6.17328">
        <ele>579.3</ele>
        <time>2022-08-10T08:34:07Z</time>
      </trkpt>
      <trkpt lat="47.19514" lon="6.17325">
        <ele>579.6</ele>
        <time>2022-08-10T08:34:08Z</time>
      </trkpt>
      <trkpt lat="47.19514" lon="6.17322">
        <ele>580</ele>
        <time>2022-08-10T08:34:09Z</time>
      </trkpt>
      <trkpt lat="47.19513" lon="6.17319">
        <ele>580.3</ele>
        <time>2022-08-10T08:34:10Z</time>
      </trkpt>
      <trkpt lat="47.19513" lon="6.17316">
        <ele>580.5</ele>
        <time>2022-08-10T08:34:11Z</time>
      </trkpt>
      <trkpt lat="47.19511" lon="6.17314">
        <ele>580.7</ele>
        <time>2022-08-10T08:34:12Z</time>
      </trkpt>
      <trkpt lat="47.1951" lon="6.1731">
        <ele>581.1</ele>
        <time>2022-08-10T08:34:13Z</time>
      </trkpt>
      <trkpt lat="47.1951" lon="6.17307">
        <ele>581.3</ele>
        <time>2022-08-10T08:34:14Z</time>
      </trkpt>
      <trkpt lat="47.1951" lon="6.17304">
        <ele>581.7</ele>
        <time>2022-08-10T08:34:15Z</time>
      </trkpt>
      <trkpt lat="47.1951" lon="6.173">
        <ele>581.7</ele>
        <time>2022-08-10T08:34:16Z</time>
      </trkpt>
      <trkpt lat="47.1951" lon="6.17297">
        <ele>581.8</ele>
        <time>2022-08-10T08:34:17Z</time>
      </trkpt>
      <trkpt lat="47.1951" lon="6.17294">
        <ele>581.9</ele>
        <time>2022-08-10T08:34:18Z</time>
      </trkpt>
      <trkpt lat="47.19509" lon="6.1729">
        <ele>582</ele>
        <time>2022-08-10T08:34:19Z</time>
      </trkpt>
      <trkpt lat="47.19508" lon="6.17287">
        <ele>581.9</ele>
        <time>2022-08-10T08:34:20Z</time>
      </trkpt>
      <trkpt lat="47.19507" lon="6.17284">
        <ele>582.1</ele>
        <time>2022-08-10T08:34:21Z</time>
      </trkpt>
      <trkpt lat="47.19507" lon="6.1728">
        <ele>582.2</ele>
        <time>2022-08-10T08:34:22Z</time>
      </trkpt>
      <trkpt lat="47.19506" lon="6.17277">
        <ele>582.4</ele>
        <time>2022-08-10T08:34:23Z</time>
      </trkpt>
      <trkpt lat="47.19506" lon="6.17274">
        <ele>582.4</ele>
        <time>2022-08-10T08:34:24Z</time>
      </trkpt>
      <trkpt lat="47.19507" lon="6.17271">
        <ele>582.1</ele>
        <time>2022-08-10T08:34:25Z</time>
      </trkpt>
      <trkpt lat="47.19506" lon="6.17266">
        <ele>582.2</ele>
        <time>2022-08-10T08:34:26Z</time>
      </trkpt>
      <trkpt lat="47.19506" lon="6.17263">
        <ele>582.2</ele>
        <time>2022-08-10T08:34:27Z</time>
      </trkpt>
      <trkpt lat="47.19506" lon="6.1726">
        <ele>582.3</ele>
        <time>2022-08-10T08:34:28Z</time>
      </trkpt>
      <trkpt lat="47.19506" lon="6.17257">
        <ele>582.4</ele>
        <time>2022-08-10T08:34:29Z</time>
      </trkpt>
      <trkpt lat="47.19506" lon="6.17254">
        <ele>582.6</ele>
        <time>2022-08-10T08:34:30Z</time>
      </trkpt>
      <trkpt lat="47.19506" lon="6.17252">
        <ele>582.6</ele>
        <time>2022-08-10T08:34:31Z</time>
      </trkpt>
      <trkpt lat="47.19506" lon="6.1725">
        <ele>582.6</ele>
        <time>2022-08-10T08:34:32Z</time>
      </trkpt>
      <trkpt lat="47.19506" lon="6.17247">
        <ele>582.5</ele>
        <time>2022-08-10T08:34:33Z</time>
      </trkpt>
      <trkpt lat="47.19506" lon="6.17244">
        <ele>582.3</ele>
        <time>2022-08-10T08:34:34Z</time>
      </trkpt>
      <trkpt lat="47.19506" lon="6.17241">
        <ele>582.2</ele>
        <time>2022-08-10T08:34:35Z</time>
      </trkpt>
      <trkpt lat="47.19506" lon="6.17238">
        <ele>582.2</ele>
        <time>2022-08-10T08:34:36Z</time>
      </trkpt>
      <trkpt lat="47.19506" lon="6.17235">
        <ele>582.3</ele>
        <time>2022-08-10T08:34:37Z</time>
      </trkpt>
      <trkpt lat="47.19506" lon="6.17232">
        <ele>582.5</ele>
        <time>2022-08-10T08:34:38Z</time>
      </trkpt>
      <trkpt lat="47.19505" lon="6.17228">
        <ele>582.6</ele>
        <time>2022-08-10T08:34:39Z</time>
      </trkpt>
      <trkpt lat="47.19505" lon="6.17225">
        <ele>582.6</ele>
        <time>2022-08-10T08:34:40Z</time>
      </trkpt>
      <trkpt lat="47.19505" lon="6.17222">
        <ele>582.6</ele>
        <time>2022-08-10T08:34:41Z</time>
      </trkpt>
      <trkpt lat="47.19504" lon="6.17219">
        <ele>582.6</ele>
        <time>2022-08-10T08:34:42Z</time>
      </trkpt>
      <trkpt lat="47.19503" lon="6.17216">
        <ele>583</ele>
        <time>2022-08-10T08:34:43Z</time>
      </trkpt>
      <trkpt lat="47.19501" lon="6.17213">
        <ele>583.5</ele>
        <time>2022-08-10T08:34:44Z</time>
      </trkpt>
      <trkpt lat="47.195" lon="6.1721">
        <ele>583.9</ele>
        <time>2022-08-10T08:34:45Z</time>
      </trkpt>
      <trkpt lat="47.195" lon="6.17208">
        <ele>584.3</ele>
        <time>2022-08-10T08:34:46Z</time>
      </trkpt>
      <trkpt lat="47.19499" lon="6.17206">
        <ele>584.8</ele>
        <time>2022-08-10T08:34:47Z</time>
      </trkpt>
      <trkpt lat="47.19499" lon="6.17203">
        <ele>585.2</ele>
        <time>2022-08-10T08:34:48Z</time>
      </trkpt>
      <trkpt lat="47.19498" lon="6.172">
        <ele>585.5</ele>
        <time>2022-08-10T08:34:49Z</time>
      </trkpt>
      <trkpt lat="47.19498" lon="6.17197">
        <ele>585.9</ele>
        <time>2022-08-10T08:34:50Z</time>
      </trkpt>
      <trkpt lat="47.19497" lon="6.17195">
        <ele>586.4</ele>
        <time>2022-08-10T08:34:51Z</time>
      </trkpt>
      <trkpt lat="47.19497" lon="6.17192">
        <ele>586.9</ele>
        <time>2022-08-10T08:34:52Z</time>
      </trkpt>
      <trkpt lat="47.19497" lon="6.1719">
        <ele>587.4</ele>
        <time>2022-08-10T08:34:53Z</time>
      </trkpt>
      <trkpt lat="47.19496" lon="6.17187">
        <ele>587.8</ele>
        <time>2022-08-10T08:34:54Z</time>
      </trkpt>
      <trkpt lat="47.19496" lon="6.17184">
        <ele>588.3</ele>
        <time>2022-08-10T08:34:55Z</time>
      </trkpt>
      <trkpt lat="47.19495" lon="6.17181">
        <ele>588.9</ele>
        <time>2022-08-10T08:34:56Z</time>
      </trkpt>
      <trkpt lat="47.19494" lon="6.17178">
        <ele>589.6</ele>
        <time>2022-08-10T08:34:57Z</time>
      </trkpt>
      <trkpt lat="47.19493" lon="6.17175">
        <ele>590.4</ele>
        <time>2022-08-10T08:34:58Z</time>
      </trkpt>
      <trkpt lat="47.19492" lon="6.17172">
        <ele>591.1</ele>
        <time>2022-08-10T08:34:59Z</time>
      </trkpt>
      <trkpt lat="47.19491" lon="6.17169">
        <ele>591.6</ele>
        <time>2022-08-10T08:35:00Z</time>
      </trkpt>
      <trkpt lat="47.1949" lon="6.17166">
        <ele>592</ele>
        <time>2022-08-10T08:35:01Z</time>
      </trkpt>
      <trkpt lat="47.19489" lon="6.17163">
        <ele>592.4</ele>
        <time>2022-08-10T08:35:02Z</time>
      </trkpt>
      <trkpt lat="47.19488" lon="6.1716">
        <ele>592.5</ele>
        <time>2022-08-10T08:35:03Z</time>
      </trkpt>
      <trkpt lat="47.19487" lon="6.17156">
        <ele>592.6</ele>
        <time>2022-08-10T08:35:04Z</time>
      </trkpt>
      <trkpt lat="47.19487" lon="6.17152">
        <ele>592.6</ele>
        <time>2022-08-10T08:35:05Z</time>
      </trkpt>
      <trkpt lat="47.19487" lon="6.17149">
        <ele>592.6</ele>
        <time>2022-08-10T08:35:06Z</time>
      </trkpt>
      <trkpt lat="47.19486" lon="6.17145">
        <ele>592.8</ele>
        <time>2022-08-10T08:35:07Z</time>
      </trkpt>
      <trkpt lat="47.19486" lon="6.17141">
        <ele>593.1</ele>
        <time>2022-08-10T08:35:08Z</time>
      </trkpt>
      <trkpt lat="47.19485" lon="6.17137">
        <ele>593.4</ele>
        <time>2022-08-10T08:35:09Z</time>
      </trkpt>
      <trkpt lat="47.19485" lon="6.17133">
        <ele>594</ele>
        <time>2022-08-10T08:35:10Z</time>
      </trkpt>
      <trkpt lat="47.19484" lon="6.1713">
        <ele>594.4</ele>
        <time>2022-08-10T08:35:11Z</time>
      </trkpt>
      <trkpt lat="47.19483" lon="6.17125">
        <ele>594.7</ele>
        <time>2022-08-10T08:35:12Z</time>
      </trkpt>
      <trkpt lat="47.19483" lon="6.17122">
        <ele>595.4</ele>
        <time>2022-08-10T08:35:13Z</time>
      </trkpt>
      <trkpt lat="47.19482" lon="6.17118">
        <ele>595.6</ele>
        <time>2022-08-10T08:35:14Z</time>
      </trkpt>
      <trkpt lat="47.19481" lon="6.17114">
        <ele>596.1</ele>
        <time>2022-08-10T08:35:15Z</time>
      </trkpt>
      <trkpt lat="47.1948" lon="6.1711">
        <ele>596.4</ele>
        <time>2022-08-10T08:35:16Z</time>
      </trkpt>
      <trkpt lat="47.1948" lon="6.17105">
        <ele>596.8</ele>
        <time>2022-08-10T08:35:17Z</time>
      </trkpt>
      <trkpt lat="47.19479" lon="6.17101">
        <ele>597.2</ele>
        <time>2022-08-10T08:35:18Z</time>
      </trkpt>
      <trkpt lat="47.19478" lon="6.17097">
        <ele>597.6</ele>
        <time>2022-08-10T08:35:19Z</time>
      </trkpt>
      <trkpt lat="47.19476" lon="6.17092">
        <ele>598.1</ele>
        <time>2022-08-10T08:35:20Z</time>
      </trkpt>
      <trkpt lat="47.19475" lon="6.17088">
        <ele>598.5</ele>
        <time>2022-08-10T08:35:21Z</time>
      </trkpt>
      <trkpt lat="47.19473" lon="6.17083">
        <ele>598.1</ele>
        <time>2022-08-10T08:35:22Z</time>
      </trkpt>
      <trkpt lat="47.19472" lon="6.17079">
        <ele>597.6</ele>
        <time>2022-08-10T08:35:23Z</time>
      </trkpt>
      <trkpt lat="47.19471" lon="6.17076">
        <ele>597.5</ele>
        <time>2022-08-10T08:35:24Z</time>
      </trkpt>
      <trkpt lat="47.1947" lon="6.17073">
        <ele>597.6</ele>
        <time>2022-08-10T08:35:25Z</time>
      </trkpt>
      <trkpt lat="47.19469" lon="6.1707">
        <ele>597.9</ele>
        <time>2022-08-10T08:35:26Z</time>
      </trkpt>
      <trkpt lat="47.19468" lon="6.17067">
        <ele>597.9</ele>
        <time>2022-08-10T08:35:27Z</time>
      </trkpt>
      <trkpt lat="47.19467" lon="6.17064">
        <ele>598.1</ele>
        <time>2022-08-10T08:35:28Z</time>
      </trkpt>
      <trkpt lat="47.19466" lon="6.17061">
        <ele>598.4</ele>
        <time>2022-08-10T08:35:29Z</time>
      </trkpt>
      <trkpt lat="47.19464" lon="6.17058">
        <ele>598.9</ele>
        <time>2022-08-10T08:35:30Z</time>
      </trkpt>
      <trkpt lat="47.19463" lon="6.17055">
        <ele>599.5</ele>
        <time>2022-08-10T08:35:31Z</time>
      </trkpt>
      <trkpt lat="47.19462" lon="6.17052">
        <ele>600</ele>
        <time>2022-08-10T08:35:32Z</time>
      </trkpt>
      <trkpt lat="47.1946" lon="6.17048">
        <ele>600.3</ele>
        <time>2022-08-10T08:35:33Z</time>
      </trkpt>
      <trkpt lat="47.19458" lon="6.17044">
        <ele>600.7</ele>
        <time>2022-08-10T08:35:34Z</time>
      </trkpt>
      <trkpt lat="47.19454" lon="6.17042">
        <ele>599.3</ele>
        <time>2022-08-10T08:35:35Z</time>
      </trkpt>
      <trkpt lat="47.19453" lon="6.17039">
        <ele>599.3</ele>
        <time>2022-08-10T08:35:36Z</time>
      </trkpt>
      <trkpt lat="47.19451" lon="6.17036">
        <ele>599.7</ele>
        <time>2022-08-10T08:35:37Z</time>
      </trkpt>
      <trkpt lat="47.19449" lon="6.17033">
        <ele>599.8</ele>
        <time>2022-08-10T08:35:38Z</time>
      </trkpt>
      <trkpt lat="47.19447" lon="6.1703">
        <ele>599.6</ele>
        <time>2022-08-10T08:35:39Z</time>
      </trkpt>
      <trkpt lat="47.19445" lon="6.17026">
        <ele>599.4</ele>
        <time>2022-08-10T08:35:40Z</time>
      </trkpt>
      <trkpt lat="47.19444" lon="6.17023">
        <ele>599.3</ele>
        <time>2022-08-10T08:35:41Z</time>
      </trkpt>
      <trkpt lat="47.19442" lon="6.17019">
        <ele>599.1</ele>
        <time>2022-08-10T08:35:42Z</time>
      </trkpt>
      <trkpt lat="47.19439" lon="6.17016">
        <ele>598.9</ele>
        <time>2022-08-10T08:35:43Z</time>
      </trkpt>
      <trkpt lat="47.19437" lon="6.17013">
        <ele>598.3</ele>
        <time>2022-08-10T08:35:44Z</time>
      </trkpt>
      <trkpt lat="47.19434" lon="6.17009">
        <ele>597.5</ele>
        <time>2022-08-10T08:35:45Z</time>
      </trkpt>
      <trkpt lat="47.19432" lon="6.17005">
        <ele>596.9</ele>
        <time>2022-08-10T08:35:46Z</time>
      </trkpt>
      <trkpt lat="47.19429" lon="6.17002">
        <ele>596.1</ele>
        <time>2022-08-10T08:35:47Z</time>
      </trkpt>
      <trkpt lat="47.19427" lon="6.16998">
        <ele>595.7</ele>
        <time>2022-08-10T08:35:48Z</time>
      </trkpt>
      <trkpt lat="47.19424" lon="6.16995">
        <ele>595.1</ele>
        <time>2022-08-10T08:35:49Z</time>
      </trkpt>
      <trkpt lat="47.19422" lon="6.16992">
        <ele>594.4</ele>
        <time>2022-08-10T08:35:50Z</time>
      </trkpt>
      <trkpt lat="47.19419" lon="6.16989">
        <ele>594.2</ele>
        <time>2022-08-10T08:35:51Z</time>
      </trkpt>
      <trkpt lat="47.19417" lon="6.16986">
        <ele>594.1</ele>
        <time>2022-08-10T08:35:52Z</time>
      </trkpt>
      <trkpt lat="47.19414" lon="6.16983">
        <ele>594.1</ele>
        <time>2022-08-10T08:35:53Z</time>
      </trkpt>
      <trkpt lat="47.19411" lon="6.1698">
        <ele>593.6</ele>
        <time>2022-08-10T08:35:54Z</time>
      </trkpt>
      <trkpt lat="47.19409" lon="6.16977">
        <ele>593.1</ele>
        <time>2022-08-10T08:35:55Z</time>
      </trkpt>
      <trkpt lat="47.19406" lon="6.16974">
        <ele>592.6</ele>
        <time>2022-08-10T08:35:56Z</time>
      </trkpt>
      <trkpt lat="47.19403" lon="6.16971">
        <ele>592.3</ele>
        <time>2022-08-10T08:35:57Z</time>
      </trkpt>
      <trkpt lat="47.19401" lon="6.16969">
        <ele>592.3</ele>
        <time>2022-08-10T08:35:58Z</time>
      </trkpt>
      <trkpt lat="47.19399" lon="6.16967">
        <ele>592.2</ele>
        <time>2022-08-10T08:35:59Z</time>
      </trkpt>
      <trkpt lat="47.19397" lon="6.16965">
        <ele>592.7</ele>
        <time>2022-08-10T08:36:00Z</time>
      </trkpt>
      <trkpt lat="47.19395" lon="6.16963">
        <ele>593</ele>
        <time>2022-08-10T08:36:01Z</time>
      </trkpt>
      <trkpt lat="47.19393" lon="6.16961">
        <ele>593</ele>
        <time>2022-08-10T08:36:02Z</time>
      </trkpt>
      <trkpt lat="47.19391" lon="6.16959">
        <ele>593.3</ele>
        <time>2022-08-10T08:36:03Z</time>
      </trkpt>
      <trkpt lat="47.19389" lon="6.16958">
        <ele>593.6</ele>
        <time>2022-08-10T08:36:04Z</time>
      </trkpt>
      <trkpt lat="47.19387" lon="6.16956">
        <ele>594</ele>
        <time>2022-08-10T08:36:05Z</time>
      </trkpt>
      <trkpt lat="47.19386" lon="6.16955">
        <ele>594.4</ele>
        <time>2022-08-10T08:36:06Z</time>
      </trkpt>
      <trkpt lat="47.19384" lon="6.16954">
        <ele>594.8</ele>
        <time>2022-08-10T08:36:07Z</time>
      </trkpt>
      <trkpt lat="47.19383" lon="6.16954">
        <ele>595.2</ele>
        <time>2022-08-10T08:36:08Z</time>
      </trkpt>
      <trkpt lat="47.19382" lon="6.16954">
        <ele>595.9</ele>
        <time>2022-08-10T08:36:09Z</time>
      </trkpt>
      <trkpt lat="47.1938" lon="6.16953">
        <ele>596.3</ele>
        <time>2022-08-10T08:36:10Z</time>
      </trkpt>
      <trkpt lat="47.19379" lon="6.16952">
        <ele>596.8</ele>
        <time>2022-08-10T08:36:11Z</time>
      </trkpt>
      <trkpt lat="47.19378" lon="6.16952">
        <ele>597.6</ele>
        <time>2022-08-10T08:36:12Z</time>
      </trkpt>
      <trkpt lat="47.19378" lon="6.16952">
        <ele>598.1</ele>
        <time>2022-08-10T08:36:13Z</time>
      </trkpt>
      <trkpt lat="47.19377" lon="6.16951">
        <ele>598.5</ele>
        <time>2022-08-10T08:36:14Z</time>
      </trkpt>
      <trkpt lat="47.19377" lon="6.16951">
        <ele>598.5</ele>
        <time>2022-08-10T08:36:15Z</time>
      </trkpt>
      <trkpt lat="47.19377" lon="6.16951">
        <ele>598.5</ele>
        <time>2022-08-10T08:36:16Z</time>
      </trkpt>
      <trkpt lat="47.19377" lon="6.16951">
        <ele>598.5</ele>
        <time>2022-08-10T08:36:17Z</time>
      </trkpt>
      <trkpt lat="47.19377" lon="6.16951">
        <ele>598.5</ele>
        <time>2022-08-10T08:36:18Z</time>
      </trkpt>
      <trkpt lat="47.19377" lon="6.16951">
        <ele>598.5</ele>
        <time>2022-08-10T08:36:19Z</time>
      </trkpt>
      <trkpt lat="47.19377" lon="6.16951">
        <ele>598.5</ele>
        <time>2022-08-10T08:36:20Z</time>
      </trkpt>
      <trkpt lat="47.19377" lon="6.16951">
        <ele>598.5</ele>
        <time>2022-08-10T08:36:21Z</time>
      </trkpt>
      <trkpt lat="47.19377" lon="6.16951">
        <ele>598.5</ele>
        <time>2022-08-10T08:36:22Z</time>
      </trkpt>
      <trkpt lat="47.19377" lon="6.16951">
        <ele>598.5</ele>
        <time>2022-08-10T08:36:23Z</time>
      </trkpt>
      <trkpt lat="47.19368" lon="6.16957">
        <ele>601.9</ele>
        <time>2022-08-10T08:36:24Z</time>
      </trkpt>
      <trkpt lat="47.19367" lon="6.16958">
        <ele>602.2</ele>
        <time>2022-08-10T08:36:25Z</time>
      </trkpt>
      <trkpt lat="47.19366" lon="6.16959">
        <ele>602.5</ele>
        <time>2022-08-10T08:36:26Z</time>
      </trkpt>
      <trkpt lat="47.19366" lon="6.1696">
        <ele>602.9</ele>
        <time>2022-08-10T08:36:27Z</time>
      </trkpt>
      <trkpt lat="47.19366" lon="6.1696">
        <ele>602.9</ele>
        <time>2022-08-10T08:36:28Z</time>
      </trkpt>
      <trkpt lat="47.19366" lon="6.1696">
        <ele>602.9</ele>
        <time>2022-08-10T08:36:29Z</time>
      </trkpt>
      <trkpt lat="47.19366" lon="6.1696">
        <ele>602.9</ele>
        <time>2022-08-10T08:36:30Z</time>
      </trkpt>
      <trkpt lat="47.19366" lon="6.1696">
        <ele>602.9</ele>
        <time>2022-08-10T08:36:31Z</time>
      </trkpt>
      <trkpt lat="47.19366" lon="6.1696">
        <ele>602.9</ele>
        <time>2022-08-10T08:36:32Z</time>
      </trkpt>
      <trkpt lat="47.19366" lon="6.1696">
        <ele>602.9</ele>
        <time>2022-08-10T08:36:33Z</time>
      </trkpt>
      <trkpt lat="47.19358" lon="6.1697">
        <ele>605.6</ele>
        <time>2022-08-10T08:36:34Z</time>
      </trkpt>
      <trkpt lat="47.19356" lon="6.16973">
        <ele>605.9</ele>
        <time>2022-08-10T08:36:35Z</time>
      </trkpt>
      <trkpt lat="47.19354" lon="6.16974">
        <ele>606.1</ele>
        <time>2022-08-10T08:36:36Z</time>
      </trkpt>
      <trkpt lat="47.19352" lon="6.16975">
        <ele>606</ele>
        <time>2022-08-10T08:36:37Z</time>
      </trkpt>
      <trkpt lat="47.19351" lon="6.16975">
        <ele>606.3</ele>
        <time>2022-08-10T08:36:38Z</time>
      </trkpt>
      <trkpt lat="47.19349" lon="6.16976">
        <ele>606.5</ele>
        <time>2022-08-10T08:36:39Z</time>
      </trkpt>
      <trkpt lat="47.19349" lon="6.16976">
        <ele>606.5</ele>
        <time>2022-08-10T08:36:40Z</time>
      </trkpt>
      <trkpt lat="47.19345" lon="6.16978">
        <ele>607.4</ele>
        <time>2022-08-10T08:36:41Z</time>
      </trkpt>
      <trkpt lat="47.19343" lon="6.1698">
        <ele>607.8</ele>
        <time>2022-08-10T08:36:42Z</time>
      </trkpt>
      <trkpt lat="47.1934" lon="6.16982">
        <ele>608.3</ele>
        <time>2022-08-10T08:36:43Z</time>
      </trkpt>
      <trkpt lat="47.19337" lon="6.16984">
        <ele>608.8</ele>
        <time>2022-08-10T08:36:44Z</time>
      </trkpt>
      <trkpt lat="47.19335" lon="6.16985">
        <ele>609.3</ele>
        <time>2022-08-10T08:36:45Z</time>
      </trkpt>
      <trkpt lat="47.19333" lon="6.16986">
        <ele>610</ele>
        <time>2022-08-10T08:36:46Z</time>
      </trkpt>
      <trkpt lat="47.19331" lon="6.16987">
        <ele>610.4</ele>
        <time>2022-08-10T08:36:47Z</time>
      </trkpt>
      <trkpt lat="47.19329" lon="6.16988">
        <ele>610.9</ele>
        <time>2022-08-10T08:36:48Z</time>
      </trkpt>
      <trkpt lat="47.19327" lon="6.16989">
        <ele>611.2</ele>
        <time>2022-08-10T08:36:49Z</time>
      </trkpt>
      <trkpt lat="47.19325" lon="6.1699">
        <ele>611.8</ele>
        <time>2022-08-10T08:36:50Z</time>
      </trkpt>
      <trkpt lat="47.19323" lon="6.16991">
        <ele>612.1</ele>
        <time>2022-08-10T08:36:51Z</time>
      </trkpt>
      <trkpt lat="47.19322" lon="6.16993">
        <ele>612.4</ele>
        <time>2022-08-10T08:36:52Z</time>
      </trkpt>
      <trkpt lat="47.1932" lon="6.16993">
        <ele>612.7</ele>
        <time>2022-08-10T08:36:53Z</time>
      </trkpt>
      <trkpt lat="47.19319" lon="6.16994">
        <ele>612.9</ele>
        <time>2022-08-10T08:36:54Z</time>
      </trkpt>
      <trkpt lat="47.19318" lon="6.16994">
        <ele>613.4</ele>
        <time>2022-08-10T08:36:55Z</time>
      </trkpt>
      <trkpt lat="47.19318" lon="6.16994">
        <ele>613.4</ele>
        <time>2022-08-10T08:36:56Z</time>
      </trkpt>
      <trkpt lat="47.19318" lon="6.16994">
        <ele>613.4</ele>
        <time>2022-08-10T08:36:57Z</time>
      </trkpt>
      <trkpt lat="47.19313" lon="6.16996">
        <ele>615.2</ele>
        <time>2022-08-10T08:36:58Z</time>
      </trkpt>
      <trkpt lat="47.19311" lon="6.16998">
        <ele>615.6</ele>
        <time>2022-08-10T08:36:59Z</time>
      </trkpt>
      <trkpt lat="47.19309" lon="6.16999">
        <ele>615.5</ele>
        <time>2022-08-10T08:37:00Z</time>
      </trkpt>
      <trkpt lat="47.19307" lon="6.17">
        <ele>616</ele>
        <time>2022-08-10T08:37:01Z</time>
      </trkpt>
      <trkpt lat="47.19305" lon="6.17">
        <ele>616.5</ele>
        <time>2022-08-10T08:37:02Z</time>
      </trkpt>
      <trkpt lat="47.19304" lon="6.17001">
        <ele>616.9</ele>
        <time>2022-08-10T08:37:03Z</time>
      </trkpt>
      <trkpt lat="47.19303" lon="6.17001">
        <ele>617.3</ele>
        <time>2022-08-10T08:37:04Z</time>
      </trkpt>
      <trkpt lat="47.19303" lon="6.17001">
        <ele>617.3</ele>
        <time>2022-08-10T08:37:05Z</time>
      </trkpt>
      <trkpt lat="47.19303" lon="6.17001">
        <ele>617.3</ele>
        <time>2022-08-10T08:37:06Z</time>
      </trkpt>
      <trkpt lat="47.19303" lon="6.17001">
        <ele>617.3</ele>
        <time>2022-08-10T08:37:07Z</time>
      </trkpt>
      <trkpt lat="47.19303" lon="6.17001">
        <ele>617.3</ele>
        <time>2022-08-10T08:37:08Z</time>
      </trkpt>
      <trkpt lat="47.19303" lon="6.17001">
        <ele>617.3</ele>
        <time>2022-08-10T08:37:09Z</time>
      </trkpt>
      <trkpt lat="47.19303" lon="6.17001">
        <ele>617.3</ele>
        <time>2022-08-10T08:37:10Z</time>
      </trkpt>
      <trkpt lat="47.19303" lon="6.17001">
        <ele>617.3</ele>
        <time>2022-08-10T08:37:11Z</time>
      </trkpt>
      <trkpt lat="47.19294" lon="6.17005">
        <ele>618.3</ele>
        <time>2022-08-10T08:37:12Z</time>
      </trkpt>
      <trkpt lat="47.19292" lon="6.17006">
        <ele>618.4</ele>
        <time>2022-08-10T08:37:13Z</time>
      </trkpt>
      <trkpt lat="47.19291" lon="6.17007">
        <ele>618.6</ele>
        <time>2022-08-10T08:37:14Z</time>
      </trkpt>
      <trkpt lat="47.1929" lon="6.17009">
        <ele>618.7</ele>
        <time>2022-08-10T08:37:15Z</time>
      </trkpt>
      <trkpt lat="47.19286" lon="6.17012">
        <ele>619</ele>
        <time>2022-08-10T08:37:16Z</time>
      </trkpt>
      <trkpt lat="47.19282" lon="6.17014">
        <ele>619.2</ele>
        <time>2022-08-10T08:37:17Z</time>
      </trkpt>
      <trkpt lat="47.19279" lon="6.17017">
        <ele>619.2</ele>
        <time>2022-08-10T08:37:18Z</time>
      </trkpt>
      <trkpt lat="47.19275" lon="6.17019">
        <ele>619.3</ele>
        <time>2022-08-10T08:37:19Z</time>
      </trkpt>
      <trkpt lat="47.19272" lon="6.17021">
        <ele>619.1</ele>
        <time>2022-08-10T08:37:20Z</time>
      </trkpt>
      <trkpt lat="47.19269" lon="6.17023">
        <ele>619.2</ele>
        <time>2022-08-10T08:37:21Z</time>
      </trkpt>
      <trkpt lat="47.19267" lon="6.17024">
        <ele>619.1</ele>
        <time>2022-08-10T08:37:22Z</time>
      </trkpt>
      <trkpt lat="47.19264" lon="6.17026">
        <ele>619.1</ele>
        <time>2022-08-10T08:37:23Z</time>
      </trkpt>
      <trkpt lat="47.19262" lon="6.17027">
        <ele>619.2</ele>
        <time>2022-08-10T08:37:24Z</time>
      </trkpt>
      <trkpt lat="47.1926" lon="6.17028">
        <ele>619.2</ele>
        <time>2022-08-10T08:37:25Z</time>
      </trkpt>
      <trkpt lat="47.19257" lon="6.17029">
        <ele>619.3</ele>
        <time>2022-08-10T08:37:26Z</time>
      </trkpt>
      <trkpt lat="47.19254" lon="6.17031">
        <ele>619.3</ele>
        <time>2022-08-10T08:37:27Z</time>
      </trkpt>
      <trkpt lat="47.19252" lon="6.17032">
        <ele>619.4</ele>
        <time>2022-08-10T08:37:28Z</time>
      </trkpt>
      <trkpt lat="47.19249" lon="6.17033">
        <ele>619.4</ele>
        <time>2022-08-10T08:37:29Z</time>
      </trkpt>
      <trkpt lat="47.19247" lon="6.17034">
        <ele>619.7</ele>
        <time>2022-08-10T08:37:30Z</time>
      </trkpt>
      <trkpt lat="47.19245" lon="6.17035">
        <ele>619.8</ele>
        <time>2022-08-10T08:37:31Z</time>
      </trkpt>
      <trkpt lat="47.19244" lon="6.17035">
        <ele>619.9</ele>
        <time>2022-08-10T08:37:32Z</time>
      </trkpt>
      <trkpt lat="47.19242" lon="6.17036">
        <ele>620.1</ele>
        <time>2022-08-10T08:37:33Z</time>
      </trkpt>
      <trkpt lat="47.1924" lon="6.17037">
        <ele>620.2</ele>
        <time>2022-08-10T08:37:34Z</time>
      </trkpt>
      <trkpt lat="47.19239" lon="6.17037">
        <ele>620.4</ele>
        <time>2022-08-10T08:37:35Z</time>
      </trkpt>
      <trkpt lat="47.19238" lon="6.17038">
        <ele>620.6</ele>
        <time>2022-08-10T08:37:36Z</time>
      </trkpt>
      <trkpt lat="47.19238" lon="6.17038">
        <ele>620.6</ele>
        <time>2022-08-10T08:37:37Z</time>
      </trkpt>
      <trkpt lat="47.19234" lon="6.1704">
        <ele>621.5</ele>
        <time>2022-08-10T08:37:38Z</time>
      </trkpt>
      <trkpt lat="47.19232" lon="6.17041">
        <ele>621.9</ele>
        <time>2022-08-10T08:37:39Z</time>
      </trkpt>
      <trkpt lat="47.19229" lon="6.17043">
        <ele>622.4</ele>
        <time>2022-08-10T08:37:40Z</time>
      </trkpt>
      <trkpt lat="47.19226" lon="6.17044">
        <ele>622.8</ele>
        <time>2022-08-10T08:37:41Z</time>
      </trkpt>
      <trkpt lat="47.19224" lon="6.17045">
        <ele>623.3</ele>
        <time>2022-08-10T08:37:42Z</time>
      </trkpt>
      <trkpt lat="47.19222" lon="6.17047">
        <ele>623.4</ele>
        <time>2022-08-10T08:37:43Z</time>
      </trkpt>
      <trkpt lat="47.1922" lon="6.17048">
        <ele>623.5</ele>
        <time>2022-08-10T08:37:44Z</time>
      </trkpt>
      <trkpt lat="47.19218" lon="6.17049">
        <ele>623.6</ele>
        <time>2022-08-10T08:37:45Z</time>
      </trkpt>
      <trkpt lat="47.19216" lon="6.1705">
        <ele>623.6</ele>
        <time>2022-08-10T08:37:46Z</time>
      </trkpt>
      <trkpt lat="47.19215" lon="6.1705">
        <ele>623.8</ele>
        <time>2022-08-10T08:37:47Z</time>
      </trkpt>
      <trkpt lat="47.19214" lon="6.17051">
        <ele>624.1</ele>
        <time>2022-08-10T08:37:48Z</time>
      </trkpt>
      <trkpt lat="47.19214" lon="6.17051">
        <ele>624.1</ele>
        <time>2022-08-10T08:37:49Z</time>
      </trkpt>
      <trkpt lat="47.19214" lon="6.17051">
        <ele>624.1</ele>
        <time>2022-08-10T08:37:50Z</time>
      </trkpt>
      <trkpt lat="47.19208" lon="6.17054">
        <ele>625.4</ele>
        <time>2022-08-10T08:37:51Z</time>
      </trkpt>
      <trkpt lat="47.19205" lon="6.17057">
        <ele>625.9</ele>
        <time>2022-08-10T08:37:52Z</time>
      </trkpt>
      <trkpt lat="47.19202" lon="6.17058">
        <ele>626.4</ele>
        <time>2022-08-10T08:37:53Z</time>
      </trkpt>
      <trkpt lat="47.192" lon="6.1706">
        <ele>626.8</ele>
        <time>2022-08-10T08:37:54Z</time>
      </trkpt>
      <trkpt lat="47.19198" lon="6.17061">
        <ele>627.4</ele>
        <time>2022-08-10T08:37:55Z</time>
      </trkpt>
      <trkpt lat="47.19195" lon="6.17062">
        <ele>628</ele>
        <time>2022-08-10T08:37:56Z</time>
      </trkpt>
      <trkpt lat="47.19192" lon="6.17063">
        <ele>628.8</ele>
        <time>2022-08-10T08:37:57Z</time>
      </trkpt>
      <trkpt lat="47.1919" lon="6.17064">
        <ele>629.5</ele>
        <time>2022-08-10T08:37:58Z</time>
      </trkpt>
      <trkpt lat="47.19187" lon="6.17064">
        <ele>630.1</ele>
        <time>2022-08-10T08:37:59Z</time>
      </trkpt>
      <trkpt lat="47.19185" lon="6.17065">
        <ele>630.8</ele>
        <time>2022-08-10T08:38:00Z</time>
      </trkpt>
      <trkpt lat="47.19182" lon="6.17066">
        <ele>631.5</ele>
        <time>2022-08-10T08:38:01Z</time>
      </trkpt>
      <trkpt lat="47.1918" lon="6.17067">
        <ele>631.9</ele>
        <time>2022-08-10T08:38:02Z</time>
      </trkpt>
      <trkpt lat="47.19178" lon="6.17068">
        <ele>632.5</ele>
        <time>2022-08-10T08:38:03Z</time>
      </trkpt>
      <trkpt lat="47.19175" lon="6.17069">
        <ele>632.9</ele>
        <time>2022-08-10T08:38:04Z</time>
      </trkpt>
      <trkpt lat="47.19173" lon="6.1707">
        <ele>633.4</ele>
        <time>2022-08-10T08:38:05Z</time>
      </trkpt>
      <trkpt lat="47.19171" lon="6.17071">
        <ele>634.1</ele>
        <time>2022-08-10T08:38:06Z</time>
      </trkpt>
      <trkpt lat="47.19168" lon="6.17072">
        <ele>634.5</ele>
        <time>2022-08-10T08:38:07Z</time>
      </trkpt>
      <trkpt lat="47.19166" lon="6.17074">
        <ele>635.1</ele>
        <time>2022-08-10T08:38:08Z</time>
      </trkpt>
      <trkpt lat="47.19165" lon="6.17075">
        <ele>635.7</ele>
        <time>2022-08-10T08:38:09Z</time>
      </trkpt>
      <trkpt lat="47.19165" lon="6.17076">
        <ele>636.3</ele>
        <time>2022-08-10T08:38:10Z</time>
      </trkpt>
      <trkpt lat="47.19165" lon="6.17076">
        <ele>636.3</ele>
        <time>2022-08-10T08:38:11Z</time>
      </trkpt>
      <trkpt lat="47.19165" lon="6.17076">
        <ele>636.3</ele>
        <time>2022-08-10T08:38:12Z</time>
      </trkpt>
      <trkpt lat="47.19165" lon="6.17076">
        <ele>636.3</ele>
        <time>2022-08-10T08:38:13Z</time>
      </trkpt>
      <trkpt lat="47.19165" lon="6.17076">
        <ele>636.3</ele>
        <time>2022-08-10T08:38:14Z</time>
      </trkpt>
      <trkpt lat="47.19165" lon="6.17076">
        <ele>636.3</ele>
        <time>2022-08-10T08:38:15Z</time>
      </trkpt>
      <trkpt lat="47.19165" lon="6.17076">
        <ele>636.3</ele>
        <time>2022-08-10T08:38:16Z</time>
      </trkpt>
      <trkpt lat="47.19165" lon="6.17076">
        <ele>636.3</ele>
        <time>2022-08-10T08:38:17Z</time>
      </trkpt>
      <trkpt lat="47.19165" lon="6.17076">
        <ele>636.3</ele>
        <time>2022-08-10T08:38:18Z</time>
      </trkpt>
      <trkpt lat="47.19156" lon="6.1708">
        <ele>638.8</ele>
        <time>2022-08-10T08:38:19Z</time>
      </trkpt>
      <trkpt lat="47.19155" lon="6.17081">
        <ele>639.2</ele>
        <time>2022-08-10T08:38:20Z</time>
      </trkpt>
      <trkpt lat="47.19154" lon="6.17082">
        <ele>639.5</ele>
        <time>2022-08-10T08:38:21Z</time>
      </trkpt>
      <trkpt lat="47.19153" lon="6.17082">
        <ele>639.9</ele>
        <time>2022-08-10T08:38:22Z</time>
      </trkpt>
      <trkpt lat="47.19153" lon="6.17082">
        <ele>639.9</ele>
        <time>2022-08-10T08:38:23Z</time>
      </trkpt>
      <trkpt lat="47.19153" lon="6.17082">
        <ele>639.9</ele>
        <time>2022-08-10T08:38:24Z</time>
      </trkpt>
      <trkpt lat="47.19153" lon="6.17082">
        <ele>639.9</ele>
        <time>2022-08-10T08:38:25Z</time>
      </trkpt>
      <trkpt lat="47.19153" lon="6.17082">
        <ele>639.9</ele>
        <time>2022-08-10T08:38:26Z</time>
      </trkpt>
      <trkpt lat="47.19153" lon="6.17082">
        <ele>639.9</ele>
        <time>2022-08-10T08:38:27Z</time>
      </trkpt>
      <trkpt lat="47.19153" lon="6.17082">
        <ele>639.9</ele>
        <time>2022-08-10T08:38:28Z</time>
      </trkpt>
      <trkpt lat="47.19143" lon="6.17084">
        <ele>642.1</ele>
        <time>2022-08-10T08:38:29Z</time>
      </trkpt>
      <trkpt lat="47.19142" lon="6.17085">
        <ele>642.4</ele>
        <time>2022-08-10T08:38:30Z</time>
      </trkpt>
      <trkpt lat="47.1914" lon="6.17085">
        <ele>642.8</ele>
        <time>2022-08-10T08:38:31Z</time>
      </trkpt>
      <trkpt lat="47.19139" lon="6.17086">
        <ele>643.2</ele>
        <time>2022-08-10T08:38:32Z</time>
      </trkpt>
      <trkpt lat="47.19139" lon="6.17086">
        <ele>643.2</ele>
        <time>2022-08-10T08:38:33Z</time>
      </trkpt>
      <trkpt lat="47.19139" lon="6.17086">
        <ele>643.2</ele>
        <time>2022-08-10T08:38:34Z</time>
      </trkpt>
      <trkpt lat="47.19139" lon="6.17086">
        <ele>643.2</ele>
        <time>2022-08-10T08:38:35Z</time>
      </trkpt>
      <trkpt lat="47.19139" lon="6.17086">
        <ele>643.2</ele>
        <time>2022-08-10T08:38:36Z</time>
      </trkpt>
      <trkpt lat="47.19139" lon="6.17086">
        <ele>643.2</ele>
        <time>2022-08-10T08:38:37Z</time>
      </trkpt>
      <trkpt lat="47.19139" lon="6.17086">
        <ele>643.2</ele>
        <time>2022-08-10T08:38:38Z</time>
      </trkpt>
      <trkpt lat="47.1913" lon="6.17092">
        <ele>646</ele>
        <time>2022-08-10T08:38:39Z</time>
      </trkpt>
      <trkpt lat="47.19128" lon="6.17093">
        <ele>646.4</ele>
        <time>2022-08-10T08:38:40Z</time>
      </trkpt>
      <trkpt lat="47.19127" lon="6.17093">
        <ele>646.7</ele>
        <time>2022-08-10T08:38:41Z</time>
      </trkpt>
      <trkpt lat="47.19125" lon="6.17095">
        <ele>647.1</ele>
        <time>2022-08-10T08:38:42Z</time>
      </trkpt>
      <trkpt lat="47.19125" lon="6.17095">
        <ele>647.1</ele>
        <time>2022-08-10T08:38:43Z</time>
      </trkpt>
      <trkpt lat="47.19125" lon="6.17095">
        <ele>647.1</ele>
        <time>2022-08-10T08:38:44Z</time>
      </trkpt>
      <trkpt lat="47.19125" lon="6.17095">
        <ele>647.1</ele>
        <time>2022-08-10T08:38:45Z</time>
      </trkpt>
      <trkpt lat="47.19125" lon="6.17095">
        <ele>647.1</ele>
        <time>2022-08-10T08:38:46Z</time>
      </trkpt>
      <trkpt lat="47.19116" lon="6.17099">
        <ele>649.6</ele>
        <time>2022-08-10T08:38:47Z</time>
      </trkpt>
      <trkpt lat="47.19115" lon="6.171">
        <ele>650</ele>
        <time>2022-08-10T08:38:48Z</time>
      </trkpt>
      <trkpt lat="47.19113" lon="6.171">
        <ele>650.5</ele>
        <time>2022-08-10T08:38:49Z</time>
      </trkpt>
      <trkpt lat="47.1911" lon="6.17103">
        <ele>650.7</ele>
        <time>2022-08-10T08:38:50Z</time>
      </trkpt>
      <trkpt lat="47.19106" lon="6.17104">
        <ele>650.9</ele>
        <time>2022-08-10T08:38:51Z</time>
      </trkpt>
      <trkpt lat="47.19103" lon="6.17105">
        <ele>651.1</ele>
        <time>2022-08-10T08:38:52Z</time>
      </trkpt>
      <trkpt lat="47.19101" lon="6.17106">
        <ele>651.3</ele>
        <time>2022-08-10T08:38:53Z</time>
      </trkpt>
      <trkpt lat="47.19099" lon="6.17106">
        <ele>651.7</ele>
        <time>2022-08-10T08:38:54Z</time>
      </trkpt>
      <trkpt lat="47.19097" lon="6.17106">
        <ele>652</ele>
        <time>2022-08-10T08:38:55Z</time>
      </trkpt>
      <trkpt lat="47.19095" lon="6.17106">
        <ele>652.2</ele>
        <time>2022-08-10T08:38:56Z</time>
      </trkpt>
      <trkpt lat="47.19094" lon="6.17105">
        <ele>652.6</ele>
        <time>2022-08-10T08:38:57Z</time>
      </trkpt>
      <trkpt lat="47.19093" lon="6.17105">
        <ele>652.9</ele>
        <time>2022-08-10T08:38:58Z</time>
      </trkpt>
      <trkpt lat="47.19092" lon="6.17105">
        <ele>653</ele>
        <time>2022-08-10T08:38:59Z</time>
      </trkpt>
      <trkpt lat="47.19092" lon="6.17105">
        <ele>653</ele>
        <time>2022-08-10T08:39:00Z</time>
      </trkpt>
      <trkpt lat="47.19092" lon="6.17105">
        <ele>653</ele>
        <time>2022-08-10T08:39:01Z</time>
      </trkpt>
      <trkpt lat="47.19092" lon="6.17105">
        <ele>653</ele>
        <time>2022-08-10T08:39:02Z</time>
      </trkpt>
      <trkpt lat="47.19092" lon="6.17105">
        <ele>653</ele>
        <time>2022-08-10T08:39:03Z</time>
      </trkpt>
      <trkpt lat="47.19092" lon="6.17105">
        <ele>653</ele>
        <time>2022-08-10T08:39:04Z</time>
      </trkpt>
      <trkpt lat="47.19092" lon="6.17105">
        <ele>653</ele>
        <time>2022-08-10T08:39:05Z</time>
      </trkpt>
      <trkpt lat="47.19092" lon="6.17105">
        <ele>653</ele>
        <time>2022-08-10T08:39:06Z</time>
      </trkpt>
      <trkpt lat="47.19092" lon="6.17105">
        <ele>653</ele>
        <time>2022-08-10T08:39:07Z</time>
      </trkpt>
      <trkpt lat="47.19092" lon="6.17105">
        <ele>653</ele>
        <time>2022-08-10T08:39:08Z</time>
      </trkpt>
      <trkpt lat="47.19082" lon="6.17102">
        <ele>655.6</ele>
        <time>2022-08-10T08:39:09Z</time>
      </trkpt>
      <trkpt lat="47.19081" lon="6.17101">
        <ele>655.8</ele>
        <time>2022-08-10T08:39:10Z</time>
      </trkpt>
      <trkpt lat="47.1908" lon="6.17101">
        <ele>656.2</ele>
        <time>2022-08-10T08:39:11Z</time>
      </trkpt>
      <trkpt lat="47.19079" lon="6.17101">
        <ele>656.5</ele>
        <time>2022-08-10T08:39:12Z</time>
      </trkpt>
      <trkpt lat="47.19079" lon="6.17101">
        <ele>656.5</ele>
        <time>2022-08-10T08:39:13Z</time>
      </trkpt>
      <trkpt lat="47.19079" lon="6.17101">
        <ele>656.5</ele>
        <time>2022-08-10T08:39:14Z</time>
      </trkpt>
      <trkpt lat="47.19079" lon="6.17101">
        <ele>656.5</ele>
        <time>2022-08-10T08:39:15Z</time>
      </trkpt>
      <trkpt lat="47.19079" lon="6.17101">
        <ele>656.5</ele>
        <time>2022-08-10T08:39:16Z</time>
      </trkpt>
      <trkpt lat="47.19079" lon="6.17101">
        <ele>656.5</ele>
        <time>2022-08-10T08:39:17Z</time>
      </trkpt>
      <trkpt lat="47.19079" lon="6.17101">
        <ele>656.5</ele>
        <time>2022-08-10T08:39:18Z</time>
      </trkpt>
      <trkpt lat="47.19079" lon="6.17101">
        <ele>656.5</ele>
        <time>2022-08-10T08:39:19Z</time>
      </trkpt>
      <trkpt lat="47.1907" lon="6.17103">
        <ele>658.4</ele>
        <time>2022-08-10T08:39:20Z</time>
      </trkpt>
      <trkpt lat="47.19069" lon="6.17104">
        <ele>658.7</ele>
        <time>2022-08-10T08:39:21Z</time>
      </trkpt>
      <trkpt lat="47.19067" lon="6.17104">
        <ele>658.7</ele>
        <time>2022-08-10T08:39:22Z</time>
      </trkpt>
      <trkpt lat="47.19066" lon="6.17105">
        <ele>658.9</ele>
        <time>2022-08-10T08:39:23Z</time>
      </trkpt>
      <trkpt lat="47.19066" lon="6.17105">
        <ele>658.9</ele>
        <time>2022-08-10T08:39:24Z</time>
      </trkpt>
      <trkpt lat="47.19066" lon="6.17105">
        <ele>658.9</ele>
        <time>2022-08-10T08:39:25Z</time>
      </trkpt>
      <trkpt lat="47.19066" lon="6.17105">
        <ele>658.9</ele>
        <time>2022-08-10T08:39:26Z</time>
      </trkpt>
      <trkpt lat="47.19066" lon="6.17105">
        <ele>658.9</ele>
        <time>2022-08-10T08:39:27Z</time>
      </trkpt>
      <trkpt lat="47.19066" lon="6.17105">
        <ele>658.9</ele>
        <time>2022-08-10T08:39:28Z</time>
      </trkpt>
      <trkpt lat="47.19066" lon="6.17105">
        <ele>658.9</ele>
        <time>2022-08-10T08:39:29Z</time>
      </trkpt>
      <trkpt lat="47.19066" lon="6.17105">
        <ele>658.9</ele>
        <time>2022-08-10T08:39:30Z</time>
      </trkpt>
      <trkpt lat="47.19066" lon="6.17105">
        <ele>658.9</ele>
        <time>2022-08-10T08:39:31Z</time>
      </trkpt>
      <trkpt lat="47.19066" lon="6.17105">
        <ele>658.9</ele>
        <time>2022-08-10T08:39:32Z</time>
      </trkpt>
      <trkpt lat="47.19057" lon="6.17104">
        <ele>661.4</ele>
        <time>2022-08-10T08:39:33Z</time>
      </trkpt>
      <trkpt lat="47.19055" lon="6.17103">
        <ele>661.5</ele>
        <time>2022-08-10T08:39:34Z</time>
      </trkpt>
      <trkpt lat="47.19054" lon="6.17103">
        <ele>661.6</ele>
        <time>2022-08-10T08:39:35Z</time>
      </trkpt>
      <trkpt lat="47.19053" lon="6.17102">
        <ele>661.6</ele>
        <time>2022-08-10T08:39:36Z</time>
      </trkpt>
      <trkpt lat="47.19053" lon="6.17102">
        <ele>661.6</ele>
        <time>2022-08-10T08:39:37Z</time>
      </trkpt>
      <trkpt lat="47.19053" lon="6.17102">
        <ele>661.6</ele>
        <time>2022-08-10T08:39:38Z</time>
      </trkpt>
      <trkpt lat="47.19053" lon="6.17102">
        <ele>661.6</ele>
        <time>2022-08-10T08:39:39Z</time>
      </trkpt>
      <trkpt lat="47.19053" lon="6.17102">
        <ele>661.6</ele>
        <time>2022-08-10T08:39:40Z</time>
      </trkpt>
      <trkpt lat="47.19053" lon="6.17102">
        <ele>661.6</ele>
        <time>2022-08-10T08:39:41Z</time>
      </trkpt>
      <trkpt lat="47.19044" lon="6.17098">
        <ele>662.4</ele>
        <time>2022-08-10T08:39:42Z</time>
      </trkpt>
      <trkpt lat="47.19043" lon="6.17097">
        <ele>662.4</ele>
        <time>2022-08-10T08:39:43Z</time>
      </trkpt>
      <trkpt lat="47.19041" lon="6.17097">
        <ele>662.5</ele>
        <time>2022-08-10T08:39:44Z</time>
      </trkpt>
      <trkpt lat="47.1904" lon="6.17096">
        <ele>662.6</ele>
        <time>2022-08-10T08:39:45Z</time>
      </trkpt>
      <trkpt lat="47.1904" lon="6.17096">
        <ele>662.6</ele>
        <time>2022-08-10T08:39:46Z</time>
      </trkpt>
      <trkpt lat="47.1904" lon="6.17096">
        <ele>662.6</ele>
        <time>2022-08-10T08:39:47Z</time>
      </trkpt>
      <trkpt lat="47.1904" lon="6.17096">
        <ele>662.6</ele>
        <time>2022-08-10T08:39:48Z</time>
      </trkpt>
      <trkpt lat="47.1904" lon="6.17096">
        <ele>662.6</ele>
        <time>2022-08-10T08:39:49Z</time>
      </trkpt>
      <trkpt lat="47.1904" lon="6.17096">
        <ele>662.6</ele>
        <time>2022-08-10T08:39:50Z</time>
      </trkpt>
      <trkpt lat="47.1904" lon="6.17096">
        <ele>662.6</ele>
        <time>2022-08-10T08:39:51Z</time>
      </trkpt>
      <trkpt lat="47.1904" lon="6.17096">
        <ele>662.6</ele>
        <time>2022-08-10T08:39:52Z</time>
      </trkpt>
      <trkpt lat="47.1904" lon="6.17096">
        <ele>662.6</ele>
        <time>2022-08-10T08:39:53Z</time>
      </trkpt>
      <trkpt lat="47.1904" lon="6.17096">
        <ele>662.6</ele>
        <time>2022-08-10T08:39:54Z</time>
      </trkpt>
      <trkpt lat="47.1904" lon="6.17096">
        <ele>662.6</ele>
        <time>2022-08-10T08:39:55Z</time>
      </trkpt>
      <trkpt lat="47.1904" lon="6.17096">
        <ele>662.6</ele>
        <time>2022-08-10T08:39:56Z</time>
      </trkpt>
      <trkpt lat="47.1904" lon="6.17096">
        <ele>662.6</ele>
        <time>2022-08-10T08:39:57Z</time>
      </trkpt>
      <trkpt lat="47.1904" lon="6.17096">
        <ele>662.6</ele>
        <time>2022-08-10T08:39:58Z</time>
      </trkpt>
      <trkpt lat="47.1904" lon="6.17096">
        <ele>662.6</ele>
        <time>2022-08-10T08:39:59Z</time>
      </trkpt>
      <trkpt lat="47.19031" lon="6.17091">
        <ele>662.9</ele>
        <time>2022-08-10T08:40:00Z</time>
      </trkpt>
      <trkpt lat="47.19031" lon="6.17091">
        <ele>662.9</ele>
        <time>2022-08-10T08:40:01Z</time>
      </trkpt>
      <trkpt lat="47.19031" lon="6.1709">
        <ele>662.8</ele>
        <time>2022-08-10T08:40:02Z</time>
      </trkpt>
      <trkpt lat="47.1903" lon="6.17089">
        <ele>662.8</ele>
        <time>2022-08-10T08:40:03Z</time>
      </trkpt>
      <trkpt lat="47.1903" lon="6.17089">
        <ele>662.8</ele>
        <time>2022-08-10T08:40:04Z</time>
      </trkpt>
      <trkpt lat="47.1903" lon="6.17089">
        <ele>662.8</ele>
        <time>2022-08-10T08:40:05Z</time>
      </trkpt>
      <trkpt lat="47.1903" lon="6.17089">
        <ele>662.8</ele>
        <time>2022-08-10T08:40:06Z</time>
      </trkpt>
      <trkpt lat="47.1903" lon="6.17089">
        <ele>662.8</ele>
        <time>2022-08-10T08:40:07Z</time>
      </trkpt>
      <trkpt lat="47.1903" lon="6.17089">
        <ele>662.8</ele>
        <time>2022-08-10T08:40:08Z</time>
      </trkpt>
      <trkpt lat="47.1903" lon="6.17089">
        <ele>662.8</ele>
        <time>2022-08-10T08:40:09Z</time>
      </trkpt>
      <trkpt lat="47.1903" lon="6.17089">
        <ele>662.8</ele>
        <time>2022-08-10T08:40:10Z</time>
      </trkpt>
      <trkpt lat="47.1903" lon="6.17089">
        <ele>662.8</ele>
        <time>2022-08-10T08:40:11Z</time>
      </trkpt>
      <trkpt lat="47.1903" lon="6.17089">
        <ele>662.8</ele>
        <time>2022-08-10T08:40:12Z</time>
      </trkpt>
      <trkpt lat="47.1903" lon="6.17089">
        <ele>662.8</ele>
        <time>2022-08-10T08:40:13Z</time>
      </trkpt>
      <trkpt lat="47.1903" lon="6.17089">
        <ele>662.8</ele>
        <time>2022-08-10T08:40:14Z</time>
      </trkpt>
      <trkpt lat="47.19023" lon="6.17081">
        <ele>662.3</ele>
        <time>2022-08-10T08:40:15Z</time>
      </trkpt>
      <trkpt lat="47.19022" lon="6.1708">
        <ele>662.2</ele>
        <time>2022-08-10T08:40:16Z</time>
      </trkpt>
      <trkpt lat="47.19022" lon="6.17079">
        <ele>662.2</ele>
        <time>2022-08-10T08:40:17Z</time>
      </trkpt>
      <trkpt lat="47.19022" lon="6.17078">
        <ele>662.2</ele>
        <time>2022-08-10T08:40:18Z</time>
      </trkpt>
      <trkpt lat="47.19022" lon="6.17078">
        <ele>662.2</ele>
        <time>2022-08-10T08:40:19Z</time>
      </trkpt>
      <trkpt lat="47.19022" lon="6.17078">
        <ele>662.2</ele>
        <time>2022-08-10T08:40:20Z</time>
      </trkpt>
      <trkpt lat="47.19022" lon="6.17078">
        <ele>662.2</ele>
        <time>2022-08-10T08:40:21Z</time>
      </trkpt>
      <trkpt lat="47.19022" lon="6.17078">
        <ele>662.2</ele>
        <time>2022-08-10T08:40:22Z</time>
      </trkpt>
      <trkpt lat="47.19022" lon="6.17078">
        <ele>662.2</ele>
        <time>2022-08-10T08:40:23Z</time>
      </trkpt>
      <trkpt lat="47.19022" lon="6.17078">
        <ele>662.2</ele>
        <time>2022-08-10T08:40:24Z</time>
      </trkpt>
      <trkpt lat="47.19022" lon="6.17078">
        <ele>662.2</ele>
        <time>2022-08-10T08:40:25Z</time>
      </trkpt>
      <trkpt lat="47.19022" lon="6.17078">
        <ele>662.2</ele>
        <time>2022-08-10T08:40:26Z</time>
      </trkpt>
      <trkpt lat="47.19015" lon="6.17068">
        <ele>662.5</ele>
        <time>2022-08-10T08:40:27Z</time>
      </trkpt>
      <trkpt lat="47.19014" lon="6.17066">
        <ele>662.5</ele>
        <time>2022-08-10T08:40:28Z</time>
      </trkpt>
      <trkpt lat="47.19013" lon="6.17065">
        <ele>662.6</ele>
        <time>2022-08-10T08:40:29Z</time>
      </trkpt>
      <trkpt lat="47.19012" lon="6.17064">
        <ele>662.7</ele>
        <time>2022-08-10T08:40:30Z</time>
      </trkpt>
      <trkpt lat="47.19012" lon="6.17064">
        <ele>662.7</ele>
        <time>2022-08-10T08:40:31Z</time>
      </trkpt>
      <trkpt lat="47.19012" lon="6.17064">
        <ele>662.7</ele>
        <time>2022-08-10T08:40:32Z</time>
      </trkpt>
      <trkpt lat="47.19012" lon="6.17064">
        <ele>662.7</ele>
        <time>2022-08-10T08:40:33Z</time>
      </trkpt>
      <trkpt lat="47.19012" lon="6.17064">
        <ele>662.7</ele>
        <time>2022-08-10T08:40:34Z</time>
      </trkpt>
      <trkpt lat="47.19012" lon="6.17064">
        <ele>662.7</ele>
        <time>2022-08-10T08:40:35Z</time>
      </trkpt>
      <trkpt lat="47.19004" lon="6.17056">
        <ele>663.3</ele>
        <time>2022-08-10T08:40:36Z</time>
      </trkpt>
      <trkpt lat="47.19003" lon="6.17054">
        <ele>663.5</ele>
        <time>2022-08-10T08:40:37Z</time>
      </trkpt>
      <trkpt lat="47.19001" lon="6.17053">
        <ele>663.6</ele>
        <time>2022-08-10T08:40:38Z</time>
      </trkpt>
      <trkpt lat="47.18999" lon="6.17051">
        <ele>663.7</ele>
        <time>2022-08-10T08:40:39Z</time>
      </trkpt>
      <trkpt lat="47.18999" lon="6.17051">
        <ele>663.7</ele>
        <time>2022-08-10T08:40:40Z</time>
      </trkpt>
      <trkpt lat="47.18999" lon="6.17051">
        <ele>663.7</ele>
        <time>2022-08-10T08:40:41Z</time>
      </trkpt>
      <trkpt lat="47.18999" lon="6.17051">
        <ele>663.7</ele>
        <time>2022-08-10T08:40:42Z</time>
      </trkpt>
      <trkpt lat="47.18999" lon="6.17051">
        <ele>663.7</ele>
        <time>2022-08-10T08:40:43Z</time>
      </trkpt>
      <trkpt lat="47.18987" lon="6.17042">
        <ele>664.3</ele>
        <time>2022-08-10T08:40:44Z</time>
      </trkpt>
      <trkpt lat="47.18985" lon="6.17041">
        <ele>664.4</ele>
        <time>2022-08-10T08:40:45Z</time>
      </trkpt>
      <trkpt lat="47.18984" lon="6.17039">
        <ele>664.6</ele>
        <time>2022-08-10T08:40:46Z</time>
      </trkpt>
      <trkpt lat="47.18983" lon="6.17038">
        <ele>664.7</ele>
        <time>2022-08-10T08:40:47Z</time>
      </trkpt>
      <trkpt lat="47.18983" lon="6.17038">
        <ele>664.7</ele>
        <time>2022-08-10T08:40:48Z</time>
      </trkpt>
      <trkpt lat="47.18983" lon="6.17038">
        <ele>664.7</ele>
        <time>2022-08-10T08:40:49Z</time>
      </trkpt>
      <trkpt lat="47.18974" lon="6.17035">
        <ele>664.8</ele>
        <time>2022-08-10T08:40:50Z</time>
      </trkpt>
      <trkpt lat="47.18972" lon="6.17034">
        <ele>665</ele>
        <time>2022-08-10T08:40:51Z</time>
      </trkpt>
      <trkpt lat="47.18972" lon="6.17033">
        <ele>665.1</ele>
        <time>2022-08-10T08:40:52Z</time>
      </trkpt>
      <trkpt lat="47.1897" lon="6.17031">
        <ele>665.3</ele>
        <time>2022-08-10T08:40:53Z</time>
      </trkpt>
      <trkpt lat="47.1897" lon="6.17031">
        <ele>665.3</ele>
        <time>2022-08-10T08:40:54Z</time>
      </trkpt>
      <trkpt lat="47.1897" lon="6.17031">
        <ele>665.3</ele>
        <time>2022-08-10T08:40:55Z</time>
      </trkpt>
      <trkpt lat="47.1897" lon="6.17031">
        <ele>665.3</ele>
        <time>2022-08-10T08:40:56Z</time>
      </trkpt>
      <trkpt lat="47.1897" lon="6.17031">
        <ele>665.3</ele>
        <time>2022-08-10T08:40:57Z</time>
      </trkpt>
      <trkpt lat="47.1897" lon="6.17031">
        <ele>665.3</ele>
        <time>2022-08-10T08:40:58Z</time>
      </trkpt>
      <trkpt lat="47.1897" lon="6.17031">
        <ele>665.3</ele>
        <time>2022-08-10T08:40:59Z</time>
      </trkpt>
      <trkpt lat="47.18962" lon="6.17025">
        <ele>666.4</ele>
        <time>2022-08-10T08:41:00Z</time>
      </trkpt>
      <trkpt lat="47.18961" lon="6.17024">
        <ele>666.7</ele>
        <time>2022-08-10T08:41:01Z</time>
      </trkpt>
      <trkpt lat="47.1896" lon="6.17023">
        <ele>666.9</ele>
        <time>2022-08-10T08:41:02Z</time>
      </trkpt>
      <trkpt lat="47.18959" lon="6.17021">
        <ele>667.1</ele>
        <time>2022-08-10T08:41:03Z</time>
      </trkpt>
      <trkpt lat="47.18959" lon="6.17021">
        <ele>667.1</ele>
        <time>2022-08-10T08:41:04Z</time>
      </trkpt>
      <trkpt lat="47.18959" lon="6.17021">
        <ele>667.1</ele>
        <time>2022-08-10T08:41:05Z</time>
      </trkpt>
      <trkpt lat="47.18959" lon="6.17021">
        <ele>667.1</ele>
        <time>2022-08-10T08:41:06Z</time>
      </trkpt>
      <trkpt lat="47.18959" lon="6.17021">
        <ele>667.1</ele>
        <time>2022-08-10T08:41:07Z</time>
      </trkpt>
      <trkpt lat="47.18959" lon="6.17021">
        <ele>667.1</ele>
        <time>2022-08-10T08:41:08Z</time>
      </trkpt>
      <trkpt lat="47.18952" lon="6.17013">
        <ele>668.6</ele>
        <time>2022-08-10T08:41:09Z</time>
      </trkpt>
      <trkpt lat="47.1895" lon="6.17011">
        <ele>668.9</ele>
        <time>2022-08-10T08:41:10Z</time>
      </trkpt>
      <trkpt lat="47.18949" lon="6.1701">
        <ele>669.2</ele>
        <time>2022-08-10T08:41:11Z</time>
      </trkpt>
      <trkpt lat="47.18948" lon="6.17009">
        <ele>669.5</ele>
        <time>2022-08-10T08:41:12Z</time>
      </trkpt>
      <trkpt lat="47.18948" lon="6.17009">
        <ele>669.5</ele>
        <time>2022-08-10T08:41:13Z</time>
      </trkpt>
      <trkpt lat="47.18948" lon="6.17009">
        <ele>669.5</ele>
        <time>2022-08-10T08:41:14Z</time>
      </trkpt>
      <trkpt lat="47.18948" lon="6.17009">
        <ele>669.5</ele>
        <time>2022-08-10T08:41:15Z</time>
      </trkpt>
      <trkpt lat="47.18948" lon="6.17009">
        <ele>669.5</ele>
        <time>2022-08-10T08:41:16Z</time>
      </trkpt>
      <trkpt lat="47.18948" lon="6.17009">
        <ele>669.5</ele>
        <time>2022-08-10T08:41:17Z</time>
      </trkpt>
      <trkpt lat="47.18937" lon="6.17005">
        <ele>670.9</ele>
        <time>2022-08-10T08:41:18Z</time>
      </trkpt>
      <trkpt lat="47.18936" lon="6.17004">
        <ele>671.2</ele>
        <time>2022-08-10T08:41:19Z</time>
      </trkpt>
      <trkpt lat="47.18934" lon="6.17004">
        <ele>671.4</ele>
        <time>2022-08-10T08:41:20Z</time>
      </trkpt>
      <trkpt lat="47.18933" lon="6.17003">
        <ele>671.7</ele>
        <time>2022-08-10T08:41:21Z</time>
      </trkpt>
      <trkpt lat="47.18933" lon="6.17003">
        <ele>671.7</ele>
        <time>2022-08-10T08:41:22Z</time>
      </trkpt>
      <trkpt lat="47.18933" lon="6.17003">
        <ele>671.7</ele>
        <time>2022-08-10T08:41:23Z</time>
      </trkpt>
      <trkpt lat="47.18933" lon="6.17003">
        <ele>671.7</ele>
        <time>2022-08-10T08:41:24Z</time>
      </trkpt>
      <trkpt lat="47.18933" lon="6.17003">
        <ele>671.7</ele>
        <time>2022-08-10T08:41:25Z</time>
      </trkpt>
      <trkpt lat="47.18933" lon="6.17003">
        <ele>671.7</ele>
        <time>2022-08-10T08:41:26Z</time>
      </trkpt>
      <trkpt lat="47.18933" lon="6.17003">
        <ele>671.7</ele>
        <time>2022-08-10T08:41:27Z</time>
      </trkpt>
      <trkpt lat="47.18933" lon="6.17003">
        <ele>671.7</ele>
        <time>2022-08-10T08:41:28Z</time>
      </trkpt>
      <trkpt lat="47.18923" lon="6.16997">
        <ele>673.6</ele>
        <time>2022-08-10T08:41:29Z</time>
      </trkpt>
      <trkpt lat="47.1892" lon="6.16995">
        <ele>673.9</ele>
        <time>2022-08-10T08:41:30Z</time>
      </trkpt>
      <trkpt lat="47.18918" lon="6.16994">
        <ele>674</ele>
        <time>2022-08-10T08:41:31Z</time>
      </trkpt>
      <trkpt lat="47.18917" lon="6.16993">
        <ele>674.3</ele>
        <time>2022-08-10T08:41:32Z</time>
      </trkpt>
      <trkpt lat="47.18917" lon="6.16993">
        <ele>674.3</ele>
        <time>2022-08-10T08:41:33Z</time>
      </trkpt>
      <trkpt lat="47.18917" lon="6.16993">
        <ele>674.3</ele>
        <time>2022-08-10T08:41:34Z</time>
      </trkpt>
      <trkpt lat="47.18917" lon="6.16993">
        <ele>674.3</ele>
        <time>2022-08-10T08:41:35Z</time>
      </trkpt>
      <trkpt lat="47.18917" lon="6.16993">
        <ele>674.3</ele>
        <time>2022-08-10T08:41:36Z</time>
      </trkpt>
      <trkpt lat="47.18917" lon="6.16993">
        <ele>674.3</ele>
        <time>2022-08-10T08:41:37Z</time>
      </trkpt>
      <trkpt lat="47.18907" lon="6.16985">
        <ele>675.6</ele>
        <time>2022-08-10T08:41:38Z</time>
      </trkpt>
      <trkpt lat="47.18906" lon="6.16984">
        <ele>675.7</ele>
        <time>2022-08-10T08:41:39Z</time>
      </trkpt>
      <trkpt lat="47.18899" lon="6.16981">
        <ele>675.3</ele>
        <time>2022-08-10T08:41:40Z</time>
      </trkpt>
      <trkpt lat="47.18898" lon="6.1698">
        <ele>675.5</ele>
        <time>2022-08-10T08:41:41Z</time>
      </trkpt>
      <trkpt lat="47.18898" lon="6.1698">
        <ele>675.5</ele>
        <time>2022-08-10T08:41:42Z</time>
      </trkpt>
      <trkpt lat="47.18898" lon="6.1698">
        <ele>675.5</ele>
        <time>2022-08-10T08:41:43Z</time>
      </trkpt>
      <trkpt lat="47.18898" lon="6.1698">
        <ele>675.5</ele>
        <time>2022-08-10T08:41:44Z</time>
      </trkpt>
      <trkpt lat="47.18898" lon="6.1698">
        <ele>675.5</ele>
        <time>2022-08-10T08:41:45Z</time>
      </trkpt>
      <trkpt lat="47.18898" lon="6.1698">
        <ele>675.5</ele>
        <time>2022-08-10T08:41:46Z</time>
      </trkpt>
      <trkpt lat="47.18898" lon="6.1698">
        <ele>675.5</ele>
        <time>2022-08-10T08:41:47Z</time>
      </trkpt>
      <trkpt lat="47.18898" lon="6.1698">
        <ele>675.5</ele>
        <time>2022-08-10T08:41:48Z</time>
      </trkpt>
      <trkpt lat="47.18898" lon="6.1698">
        <ele>675.5</ele>
        <time>2022-08-10T08:41:49Z</time>
      </trkpt>
      <trkpt lat="47.18898" lon="6.1698">
        <ele>675.5</ele>
        <time>2022-08-10T08:41:50Z</time>
      </trkpt>
      <trkpt lat="47.18898" lon="6.1698">
        <ele>675.5</ele>
        <time>2022-08-10T08:41:51Z</time>
      </trkpt>
      <trkpt lat="47.18898" lon="6.1698">
        <ele>675.5</ele>
        <time>2022-08-10T08:41:52Z</time>
      </trkpt>
      <trkpt lat="47.18898" lon="6.1698">
        <ele>675.5</ele>
        <time>2022-08-10T08:41:53Z</time>
      </trkpt>
      <trkpt lat="47.18898" lon="6.1698">
        <ele>675.5</ele>
        <time>2022-08-10T08:41:54Z</time>
      </trkpt>
      <trkpt lat="47.18898" lon="6.1698">
        <ele>675.5</ele>
        <time>2022-08-10T08:41:55Z</time>
      </trkpt>
      <trkpt lat="47.18898" lon="6.1698">
        <ele>675.5</ele>
        <time>2022-08-10T08:41:56Z</time>
      </trkpt>
      <trkpt lat="47.18898" lon="6.1698">
        <ele>675.5</ele>
        <time>2022-08-10T08:41:57Z</time>
      </trkpt>
      <trkpt lat="47.18898" lon="6.1698">
        <ele>675.5</ele>
        <time>2022-08-10T08:41:58Z</time>
      </trkpt>
      <trkpt lat="47.18898" lon="6.1698">
        <ele>675.5</ele>
        <time>2022-08-10T08:41:59Z</time>
      </trkpt>
      <trkpt lat="47.18898" lon="6.1698">
        <ele>675.5</ele>
        <time>2022-08-10T08:42:00Z</time>
      </trkpt>
      <trkpt lat="47.18898" lon="6.1698">
        <ele>675.5</ele>
        <time>2022-08-10T08:42:01Z</time>
      </trkpt>
      <trkpt lat="47.18898" lon="6.1698">
        <ele>675.5</ele>
        <time>2022-08-10T08:42:02Z</time>
      </trkpt>
      <trkpt lat="47.18898" lon="6.1698">
        <ele>675.5</ele>
        <time>2022-08-10T08:42:03Z</time>
      </trkpt>
      <trkpt lat="47.18898" lon="6.1698">
        <ele>675.5</ele>
        <time>2022-08-10T08:42:04Z</time>
      </trkpt>
      <trkpt lat="47.18898" lon="6.1698">
        <ele>675.5</ele>
        <time>2022-08-10T08:42:05Z</time>
      </trkpt>
      <trkpt lat="47.18898" lon="6.1698">
        <ele>675.5</ele>
        <time>2022-08-10T08:42:06Z</time>
      </trkpt>
      <trkpt lat="47.18898" lon="6.1698">
        <ele>675.5</ele>
        <time>2022-08-10T08:42:07Z</time>
      </trkpt>
      <trkpt lat="47.18898" lon="6.1698">
        <ele>675.5</ele>
        <time>2022-08-10T08:42:08Z</time>
      </trkpt>
      <trkpt lat="47.18898" lon="6.1698">
        <ele>675.5</ele>
        <time>2022-08-10T08:42:09Z</time>
      </trkpt>
      <trkpt lat="47.18898" lon="6.1698">
        <ele>675.5</ele>
        <time>2022-08-10T08:42:10Z</time>
      </trkpt>
      <trkpt lat="47.18898" lon="6.1698">
        <ele>675.5</ele>
        <time>2022-08-10T08:42:11Z</time>
      </trkpt>
      <trkpt lat="47.18889" lon="6.16973">
        <ele>676.1</ele>
        <time>2022-08-10T08:42:12Z</time>
      </trkpt>
      <trkpt lat="47.18888" lon="6.16973">
        <ele>676.1</ele>
        <time>2022-08-10T08:42:13Z</time>
      </trkpt>
      <trkpt lat="47.18887" lon="6.16972">
        <ele>676.2</ele>
        <time>2022-08-10T08:42:14Z</time>
      </trkpt>
      <trkpt lat="47.18886" lon="6.16972">
        <ele>676.2</ele>
        <time>2022-08-10T08:42:15Z</time>
      </trkpt>
      <trkpt lat="47.18886" lon="6.16972">
        <ele>676.2</ele>
        <time>2022-08-10T08:42:16Z</time>
      </trkpt>
      <trkpt lat="47.18886" lon="6.16972">
        <ele>676.2</ele>
        <time>2022-08-10T08:42:17Z</time>
      </trkpt>
      <trkpt lat="47.18886" lon="6.16972">
        <ele>676.2</ele>
        <time>2022-08-10T08:42:18Z</time>
      </trkpt>
      <trkpt lat="47.18886" lon="6.16972">
        <ele>676.2</ele>
        <time>2022-08-10T08:42:19Z</time>
      </trkpt>
      <trkpt lat="47.18886" lon="6.16972">
        <ele>676.2</ele>
        <time>2022-08-10T08:42:20Z</time>
      </trkpt>
      <trkpt lat="47.18886" lon="6.16972">
        <ele>676.2</ele>
        <time>2022-08-10T08:42:21Z</time>
      </trkpt>
      <trkpt lat="47.18886" lon="6.16972">
        <ele>676.2</ele>
        <time>2022-08-10T08:42:22Z</time>
      </trkpt>
      <trkpt lat="47.18886" lon="6.16972">
        <ele>676.2</ele>
        <time>2022-08-10T08:42:23Z</time>
      </trkpt>
      <trkpt lat="47.18886" lon="6.16972">
        <ele>676.2</ele>
        <time>2022-08-10T08:42:24Z</time>
      </trkpt>
      <trkpt lat="47.18886" lon="6.16972">
        <ele>676.2</ele>
        <time>2022-08-10T08:42:25Z</time>
      </trkpt>
      <trkpt lat="47.18886" lon="6.16972">
        <ele>676.2</ele>
        <time>2022-08-10T08:42:26Z</time>
      </trkpt>
      <trkpt lat="47.18886" lon="6.16972">
        <ele>676.2</ele>
        <time>2022-08-10T08:42:27Z</time>
      </trkpt>
      <trkpt lat="47.18886" lon="6.16972">
        <ele>676.2</ele>
        <time>2022-08-10T08:42:28Z</time>
      </trkpt>
      <trkpt lat="47.18886" lon="6.16972">
        <ele>676.2</ele>
        <time>2022-08-10T08:42:29Z</time>
      </trkpt>
      <trkpt lat="47.18886" lon="6.16972">
        <ele>676.2</ele>
        <time>2022-08-10T08:42:30Z</time>
      </trkpt>
      <trkpt lat="47.18886" lon="6.16972">
        <ele>676.2</ele>
        <time>2022-08-10T08:42:31Z</time>
      </trkpt>
      <trkpt lat="47.18886" lon="6.16972">
        <ele>676.2</ele>
        <time>2022-08-10T08:42:32Z</time>
      </trkpt>
      <trkpt lat="47.18886" lon="6.16972">
        <ele>676.2</ele>
        <time>2022-08-10T08:42:33Z</time>
      </trkpt>
      <trkpt lat="47.18886" lon="6.16972">
        <ele>676.2</ele>
        <time>2022-08-10T08:42:34Z</time>
      </trkpt>
      <trkpt lat="47.18886" lon="6.16972">
        <ele>676.2</ele>
        <time>2022-08-10T08:42:35Z</time>
      </trkpt>
      <trkpt lat="47.18886" lon="6.16972">
        <ele>676.2</ele>
        <time>2022-08-10T08:42:36Z</time>
      </trkpt>
      <trkpt lat="47.18886" lon="6.16972">
        <ele>676.2</ele>
        <time>2022-08-10T08:42:37Z</time>
      </trkpt>
      <trkpt lat="47.18886" lon="6.16972">
        <ele>676.2</ele>
        <time>2022-08-10T08:42:38Z</time>
      </trkpt>
      <trkpt lat="47.18886" lon="6.16972">
        <ele>676.2</ele>
        <time>2022-08-10T08:42:39Z</time>
      </trkpt>
      <trkpt lat="47.18886" lon="6.16972">
        <ele>676.2</ele>
        <time>2022-08-10T08:42:40Z</time>
      </trkpt>
      <trkpt lat="47.18886" lon="6.16972">
        <ele>676.2</ele>
        <time>2022-08-10T08:42:41Z</time>
      </trkpt>
      <trkpt lat="47.18886" lon="6.16972">
        <ele>676.2</ele>
        <time>2022-08-10T08:42:42Z</time>
      </trkpt>
      <trkpt lat="47.18886" lon="6.16972">
        <ele>676.2</ele>
        <time>2022-08-10T08:42:43Z</time>
      </trkpt>
      <trkpt lat="47.18886" lon="6.16972">
        <ele>676.2</ele>
        <time>2022-08-10T08:42:44Z</time>
      </trkpt>
      <trkpt lat="47.18886" lon="6.16972">
        <ele>676.2</ele>
        <time>2022-08-10T08:42:45Z</time>
      </trkpt>
      <trkpt lat="47.18886" lon="6.16972">
        <ele>676.2</ele>
        <time>2022-08-10T08:42:46Z</time>
      </trkpt>
      <trkpt lat="47.18886" lon="6.16972">
        <ele>676.2</ele>
        <time>2022-08-10T08:42:47Z</time>
      </trkpt>
      <trkpt lat="47.18886" lon="6.16972">
        <ele>676.2</ele>
        <time>2022-08-10T08:42:48Z</time>
      </trkpt>
      <trkpt lat="47.18886" lon="6.16972">
        <ele>676.2</ele>
        <time>2022-08-10T08:42:49Z</time>
      </trkpt>
      <trkpt lat="47.18886" lon="6.16972">
        <ele>676.2</ele>
        <time>2022-08-10T08:42:50Z</time>
      </trkpt>
      <trkpt lat="47.18886" lon="6.16972">
        <ele>676.2</ele>
        <time>2022-08-10T08:42:51Z</time>
      </trkpt>
      <trkpt lat="47.18886" lon="6.16972">
        <ele>676.2</ele>
        <time>2022-08-10T08:42:52Z</time>
      </trkpt>
      <trkpt lat="47.18886" lon="6.16972">
        <ele>676.2</ele>
        <time>2022-08-10T08:42:53Z</time>
      </trkpt>
      <trkpt lat="47.18886" lon="6.16972">
        <ele>676.2</ele>
        <time>2022-08-10T08:42:54Z</time>
      </trkpt>
      <trkpt lat="47.18886" lon="6.16972">
        <ele>676.2</ele>
        <time>2022-08-10T08:42:55Z</time>
      </trkpt>
      <trkpt lat="47.18886" lon="6.16972">
        <ele>676.2</ele>
        <time>2022-08-10T08:42:56Z</time>
      </trkpt>
      <trkpt lat="47.18886" lon="6.16972">
        <ele>676.2</ele>
        <time>2022-08-10T08:42:57Z</time>
      </trkpt>
      <trkpt lat="47.18886" lon="6.16972">
        <ele>676.2</ele>
        <time>2022-08-10T08:42:58Z</time>
      </trkpt>
      <trkpt lat="47.18886" lon="6.16972">
        <ele>676.2</ele>
        <time>2022-08-10T08:42:59Z</time>
      </trkpt>
      <trkpt lat="47.18886" lon="6.16972">
        <ele>676.2</ele>
        <time>2022-08-10T08:43:00Z</time>
      </trkpt>
      <trkpt lat="47.18886" lon="6.16972">
        <ele>676.2</ele>
        <time>2022-08-10T08:43:01Z</time>
      </trkpt>
      <trkpt lat="47.18886" lon="6.16972">
        <ele>676.2</ele>
        <time>2022-08-10T08:43:02Z</time>
      </trkpt>
      <trkpt lat="47.18886" lon="6.16972">
        <ele>676.2</ele>
        <time>2022-08-10T08:43:03Z</time>
      </trkpt>
      <trkpt lat="47.18886" lon="6.16972">
        <ele>676.2</ele>
        <time>2022-08-10T08:43:04Z</time>
      </trkpt>
      <trkpt lat="47.18886" lon="6.16972">
        <ele>676.2</ele>
        <time>2022-08-10T08:43:05Z</time>
      </trkpt>
      <trkpt lat="47.18886" lon="6.16972">
        <ele>676.2</ele>
        <time>2022-08-10T08:43:06Z</time>
      </trkpt>
      <trkpt lat="47.18886" lon="6.16972">
        <ele>676.2</ele>
        <time>2022-08-10T08:43:07Z</time>
      </trkpt>
      <trkpt lat="47.18886" lon="6.16972">
        <ele>676.2</ele>
        <time>2022-08-10T08:43:08Z</time>
      </trkpt>
      <trkpt lat="47.18886" lon="6.16972">
        <ele>676.2</ele>
        <time>2022-08-10T08:43:09Z</time>
      </trkpt>
      <trkpt lat="47.18886" lon="6.16972">
        <ele>676.2</ele>
        <time>2022-08-10T08:43:10Z</time>
      </trkpt>
      <trkpt lat="47.18886" lon="6.16972">
        <ele>676.2</ele>
        <time>2022-08-10T08:43:11Z</time>
      </trkpt>
      <trkpt lat="47.18886" lon="6.16972">
        <ele>676.2</ele>
        <time>2022-08-10T08:43:12Z</time>
      </trkpt>
      <trkpt lat="47.18886" lon="6.16972">
        <ele>676.2</ele>
        <time>2022-08-10T08:43:13Z</time>
      </trkpt>
      <trkpt lat="47.18886" lon="6.16972">
        <ele>676.2</ele>
        <time>2022-08-10T08:43:14Z</time>
      </trkpt>
      <trkpt lat="47.18886" lon="6.16972">
        <ele>676.2</ele>
        <time>2022-08-10T08:43:15Z</time>
      </trkpt>
      <trkpt lat="47.18886" lon="6.16972">
        <ele>676.2</ele>
        <time>2022-08-10T08:43:16Z</time>
      </trkpt>
      <trkpt lat="47.18886" lon="6.16972">
        <ele>676.2</ele>
        <time>2022-08-10T08:43:17Z</time>
      </trkpt>
      <trkpt lat="47.18886" lon="6.16972">
        <ele>676.2</ele>
        <time>2022-08-10T08:43:18Z</time>
      </trkpt>
      <trkpt lat="47.18886" lon="6.16972">
        <ele>676.2</ele>
        <time>2022-08-10T08:43:19Z</time>
      </trkpt>
      <trkpt lat="47.18886" lon="6.16972">
        <ele>676.2</ele>
        <time>2022-08-10T08:43:20Z</time>
      </trkpt>
      <trkpt lat="47.18886" lon="6.16972">
        <ele>676.2</ele>
        <time>2022-08-10T08:43:21Z</time>
      </trkpt>
      <trkpt lat="47.18886" lon="6.16972">
        <ele>676.2</ele>
        <time>2022-08-10T08:43:22Z</time>
      </trkpt>
      <trkpt lat="47.18886" lon="6.16972">
        <ele>676.2</ele>
        <time>2022-08-10T08:43:23Z</time>
      </trkpt>
      <trkpt lat="47.18886" lon="6.16972">
        <ele>676.2</ele>
        <time>2022-08-10T08:43:24Z</time>
      </trkpt>
      <trkpt lat="47.18886" lon="6.16972">
        <ele>676.2</ele>
        <time>2022-08-10T08:43:25Z</time>
      </trkpt>
      <trkpt lat="47.18886" lon="6.16972">
        <ele>676.2</ele>
        <time>2022-08-10T08:43:26Z</time>
      </trkpt>
      <trkpt lat="47.18886" lon="6.16972">
        <ele>676.2</ele>
        <time>2022-08-10T08:43:27Z</time>
      </trkpt>
      <trkpt lat="47.18886" lon="6.16972">
        <ele>676.2</ele>
        <time>2022-08-10T08:43:28Z</time>
      </trkpt>
      <trkpt lat="47.18886" lon="6.16972">
        <ele>676.2</ele>
        <time>2022-08-10T08:43:29Z</time>
      </trkpt>
      <trkpt lat="47.18886" lon="6.16972">
        <ele>676.2</ele>
        <time>2022-08-10T08:43:30Z</time>
      </trkpt>
      <trkpt lat="47.18886" lon="6.16972">
        <ele>676.2</ele>
        <time>2022-08-10T08:43:31Z</time>
      </trkpt>
      <trkpt lat="47.18886" lon="6.16972">
        <ele>676.2</ele>
        <time>2022-08-10T08:43:32Z</time>
      </trkpt>
      <trkpt lat="47.18886" lon="6.16972">
        <ele>676.2</ele>
        <time>2022-08-10T08:43:33Z</time>
      </trkpt>
      <trkpt lat="47.18886" lon="6.16972">
        <ele>676.2</ele>
        <time>2022-08-10T08:43:34Z</time>
      </trkpt>
      <trkpt lat="47.18886" lon="6.16972">
        <ele>676.2</ele>
        <time>2022-08-10T08:43:35Z</time>
      </trkpt>
      <trkpt lat="47.18886" lon="6.16972">
        <ele>676.2</ele>
        <time>2022-08-10T08:43:36Z</time>
      </trkpt>
      <trkpt lat="47.18886" lon="6.16972">
        <ele>676.2</ele>
        <time>2022-08-10T08:43:37Z</time>
      </trkpt>
      <trkpt lat="47.18886" lon="6.16972">
        <ele>676.2</ele>
        <time>2022-08-10T08:43:38Z</time>
      </trkpt>
      <trkpt lat="47.18886" lon="6.16972">
        <ele>676.2</ele>
        <time>2022-08-10T08:43:39Z</time>
      </trkpt>
      <trkpt lat="47.18886" lon="6.16972">
        <ele>676.2</ele>
        <time>2022-08-10T08:43:40Z</time>
      </trkpt>
      <trkpt lat="47.18886" lon="6.16972">
        <ele>676.2</ele>
        <time>2022-08-10T08:43:41Z</time>
      </trkpt>
      <trkpt lat="47.18886" lon="6.16972">
        <ele>676.2</ele>
        <time>2022-08-10T08:43:42Z</time>
      </trkpt>
      <trkpt lat="47.18886" lon="6.16972">
        <ele>676.2</ele>
        <time>2022-08-10T08:43:43Z</time>
      </trkpt>
      <trkpt lat="47.18886" lon="6.16972">
        <ele>676.2</ele>
        <time>2022-08-10T08:43:44Z</time>
      </trkpt>
      <trkpt lat="47.18886" lon="6.16972">
        <ele>676.2</ele>
        <time>2022-08-10T08:43:45Z</time>
      </trkpt>
      <trkpt lat="47.18886" lon="6.16972">
        <ele>676.2</ele>
        <time>2022-08-10T08:43:46Z</time>
      </trkpt>
      <trkpt lat="47.18886" lon="6.16972">
        <ele>676.2</ele>
        <time>2022-08-10T08:43:47Z</time>
      </trkpt>
      <trkpt lat="47.18886" lon="6.16972">
        <ele>676.2</ele>
        <time>2022-08-10T08:43:48Z</time>
      </trkpt>
      <trkpt lat="47.18886" lon="6.16972">
        <ele>676.2</ele>
        <time>2022-08-10T08:43:49Z</time>
      </trkpt>
      <trkpt lat="47.18886" lon="6.16972">
        <ele>676.2</ele>
        <time>2022-08-10T08:43:50Z</time>
      </trkpt>
      <trkpt lat="47.18886" lon="6.16972">
        <ele>676.2</ele>
        <time>2022-08-10T08:43:51Z</time>
      </trkpt>
      <trkpt lat="47.18877" lon="6.16968">
        <ele>674.6</ele>
        <time>2022-08-10T08:43:52Z</time>
      </trkpt>
      <trkpt lat="47.18877" lon="6.16968">
        <ele>674.5</ele>
        <time>2022-08-10T08:43:53Z</time>
      </trkpt>
      <trkpt lat="47.18877" lon="6.16968">
        <ele>674.6</ele>
        <time>2022-08-10T08:43:54Z</time>
      </trkpt>
      <trkpt lat="47.18877" lon="6.16968">
        <ele>674.6</ele>
        <time>2022-08-10T08:43:55Z</time>
      </trkpt>
      <trkpt lat="47.18877" lon="6.16968">
        <ele>674.6</ele>
        <time>2022-08-10T08:43:56Z</time>
      </trkpt>
      <trkpt lat="47.18877" lon="6.16968">
        <ele>674.6</ele>
        <time>2022-08-10T08:43:57Z</time>
      </trkpt>
      <trkpt lat="47.18877" lon="6.16968">
        <ele>674.6</ele>
        <time>2022-08-10T08:43:58Z</time>
      </trkpt>
      <trkpt lat="47.18877" lon="6.16968">
        <ele>674.6</ele>
        <time>2022-08-10T08:43:59Z</time>
      </trkpt>
      <trkpt lat="47.18877" lon="6.16968">
        <ele>674.6</ele>
        <time>2022-08-10T08:44:00Z</time>
      </trkpt>
      <trkpt lat="47.18877" lon="6.16968">
        <ele>674.6</ele>
        <time>2022-08-10T08:44:01Z</time>
      </trkpt>
      <trkpt lat="47.18877" lon="6.16968">
        <ele>674.6</ele>
        <time>2022-08-10T08:44:02Z</time>
      </trkpt>
      <trkpt lat="47.18877" lon="6.16968">
        <ele>674.6</ele>
        <time>2022-08-10T08:44:03Z</time>
      </trkpt>
      <trkpt lat="47.18877" lon="6.16968">
        <ele>674.6</ele>
        <time>2022-08-10T08:44:04Z</time>
      </trkpt>
      <trkpt lat="47.18877" lon="6.16968">
        <ele>674.6</ele>
        <time>2022-08-10T08:44:05Z</time>
      </trkpt>
      <trkpt lat="47.18877" lon="6.16968">
        <ele>674.6</ele>
        <time>2022-08-10T08:44:06Z</time>
      </trkpt>
      <trkpt lat="47.18877" lon="6.16968">
        <ele>674.6</ele>
        <time>2022-08-10T08:44:07Z</time>
      </trkpt>
      <trkpt lat="47.18877" lon="6.16968">
        <ele>674.6</ele>
        <time>2022-08-10T08:44:08Z</time>
      </trkpt>
      <trkpt lat="47.18877" lon="6.16968">
        <ele>674.6</ele>
        <time>2022-08-10T08:44:09Z</time>
      </trkpt>
      <trkpt lat="47.18877" lon="6.16968">
        <ele>674.6</ele>
        <time>2022-08-10T08:44:10Z</time>
      </trkpt>
      <trkpt lat="47.18869" lon="6.16961">
        <ele>674.1</ele>
        <time>2022-08-10T08:44:11Z</time>
      </trkpt>
      <trkpt lat="47.18867" lon="6.1696">
        <ele>674.1</ele>
        <time>2022-08-10T08:44:12Z</time>
      </trkpt>
      <trkpt lat="47.18865" lon="6.16957">
        <ele>674.1</ele>
        <time>2022-08-10T08:44:13Z</time>
      </trkpt>
      <trkpt lat="47.18863" lon="6.16955">
        <ele>674.1</ele>
        <time>2022-08-10T08:44:14Z</time>
      </trkpt>
      <trkpt lat="47.18861" lon="6.16954">
        <ele>674.2</ele>
        <time>2022-08-10T08:44:15Z</time>
      </trkpt>
      <trkpt lat="47.18858" lon="6.16953">
        <ele>674.3</ele>
        <time>2022-08-10T08:44:16Z</time>
      </trkpt>
      <trkpt lat="47.18856" lon="6.16951">
        <ele>674.2</ele>
        <time>2022-08-10T08:44:17Z</time>
      </trkpt>
      <trkpt lat="47.18855" lon="6.1695">
        <ele>674.2</ele>
        <time>2022-08-10T08:44:18Z</time>
      </trkpt>
      <trkpt lat="47.18853" lon="6.16949">
        <ele>674.2</ele>
        <time>2022-08-10T08:44:19Z</time>
      </trkpt>
      <trkpt lat="47.18851" lon="6.16948">
        <ele>674.1</ele>
        <time>2022-08-10T08:44:20Z</time>
      </trkpt>
      <trkpt lat="47.1885" lon="6.16947">
        <ele>674.2</ele>
        <time>2022-08-10T08:44:21Z</time>
      </trkpt>
      <trkpt lat="47.18848" lon="6.16947">
        <ele>674.2</ele>
        <time>2022-08-10T08:44:22Z</time>
      </trkpt>
      <trkpt lat="47.18846" lon="6.16947">
        <ele>674.2</ele>
        <time>2022-08-10T08:44:23Z</time>
      </trkpt>
      <trkpt lat="47.18844" lon="6.16947">
        <ele>674.3</ele>
        <time>2022-08-10T08:44:24Z</time>
      </trkpt>
      <trkpt lat="47.18841" lon="6.16946">
        <ele>674.4</ele>
        <time>2022-08-10T08:44:25Z</time>
      </trkpt>
      <trkpt lat="47.18839" lon="6.16946">
        <ele>674.7</ele>
        <time>2022-08-10T08:44:26Z</time>
      </trkpt>
      <trkpt lat="47.18835" lon="6.16944">
        <ele>675</ele>
        <time>2022-08-10T08:44:27Z</time>
      </trkpt>
      <trkpt lat="47.18832" lon="6.16942">
        <ele>675.3</ele>
        <time>2022-08-10T08:44:28Z</time>
      </trkpt>
      <trkpt lat="47.18829" lon="6.16941">
        <ele>675.6</ele>
        <time>2022-08-10T08:44:29Z</time>
      </trkpt>
      <trkpt lat="47.18827" lon="6.16939">
        <ele>675.8</ele>
        <time>2022-08-10T08:44:30Z</time>
      </trkpt>
      <trkpt lat="47.18824" lon="6.16937">
        <ele>676</ele>
        <time>2022-08-10T08:44:31Z</time>
      </trkpt>
      <trkpt lat="47.18822" lon="6.16933">
        <ele>676.4</ele>
        <time>2022-08-10T08:44:32Z</time>
      </trkpt>
      <trkpt lat="47.18819" lon="6.16929">
        <ele>676.6</ele>
        <time>2022-08-10T08:44:33Z</time>
      </trkpt>
      <trkpt lat="47.18817" lon="6.16926">
        <ele>676.6</ele>
        <time>2022-08-10T08:44:34Z</time>
      </trkpt>
      <trkpt lat="47.18816" lon="6.16922">
        <ele>676.4</ele>
        <time>2022-08-10T08:44:35Z</time>
      </trkpt>
      <trkpt lat="47.18815" lon="6.16919">
        <ele>676.7</ele>
        <time>2022-08-10T08:44:36Z</time>
      </trkpt>
      <trkpt lat="47.18814" lon="6.16917">
        <ele>677.6</ele>
        <time>2022-08-10T08:44:37Z</time>
      </trkpt>
      <trkpt lat="47.18813" lon="6.16915">
        <ele>678.7</ele>
        <time>2022-08-10T08:44:38Z</time>
      </trkpt>
      <trkpt lat="47.18813" lon="6.16913">
        <ele>678.9</ele>
        <time>2022-08-10T08:44:39Z</time>
      </trkpt>
      <trkpt lat="47.18812" lon="6.16912">
        <ele>678.9</ele>
        <time>2022-08-10T08:44:40Z</time>
      </trkpt>
      <trkpt lat="47.18811" lon="6.1691">
        <ele>679.1</ele>
        <time>2022-08-10T08:44:41Z</time>
      </trkpt>
      <trkpt lat="47.18811" lon="6.16909">
        <ele>679.2</ele>
        <time>2022-08-10T08:44:42Z</time>
      </trkpt>
      <trkpt lat="47.18811" lon="6.16908">
        <ele>679.4</ele>
        <time>2022-08-10T08:44:43Z</time>
      </trkpt>
      <trkpt lat="47.18811" lon="6.16907">
        <ele>679.7</ele>
        <time>2022-08-10T08:44:44Z</time>
      </trkpt>
      <trkpt lat="47.18811" lon="6.16905">
        <ele>680</ele>
        <time>2022-08-10T08:44:45Z</time>
      </trkpt>
      <trkpt lat="47.1881" lon="6.16904">
        <ele>680.3</ele>
        <time>2022-08-10T08:44:46Z</time>
      </trkpt>
      <trkpt lat="47.1881" lon="6.16903">
        <ele>680.8</ele>
        <time>2022-08-10T08:44:47Z</time>
      </trkpt>
      <trkpt lat="47.18809" lon="6.16901">
        <ele>681.1</ele>
        <time>2022-08-10T08:44:48Z</time>
      </trkpt>
      <trkpt lat="47.18808" lon="6.16899">
        <ele>681.2</ele>
        <time>2022-08-10T08:44:49Z</time>
      </trkpt>
      <trkpt lat="47.18806" lon="6.16897">
        <ele>681.2</ele>
        <time>2022-08-10T08:44:50Z</time>
      </trkpt>
      <trkpt lat="47.18805" lon="6.16895">
        <ele>681.1</ele>
        <time>2022-08-10T08:44:51Z</time>
      </trkpt>
      <trkpt lat="47.18805" lon="6.16893">
        <ele>681</ele>
        <time>2022-08-10T08:44:52Z</time>
      </trkpt>
      <trkpt lat="47.18804" lon="6.16891">
        <ele>680.9</ele>
        <time>2022-08-10T08:44:53Z</time>
      </trkpt>
      <trkpt lat="47.18803" lon="6.16889">
        <ele>680.9</ele>
        <time>2022-08-10T08:44:54Z</time>
      </trkpt>
      <trkpt lat="47.18801" lon="6.16886">
        <ele>681.2</ele>
        <time>2022-08-10T08:44:55Z</time>
      </trkpt>
      <trkpt lat="47.188" lon="6.16884">
        <ele>681.2</ele>
        <time>2022-08-10T08:44:56Z</time>
      </trkpt>
      <trkpt lat="47.18799" lon="6.16881">
        <ele>681.1</ele>
        <time>2022-08-10T08:44:57Z</time>
      </trkpt>
      <trkpt lat="47.18797" lon="6.16878">
        <ele>681.3</ele>
        <time>2022-08-10T08:44:58Z</time>
      </trkpt>
      <trkpt lat="47.18795" lon="6.16875">
        <ele>681.2</ele>
        <time>2022-08-10T08:44:59Z</time>
      </trkpt>
      <trkpt lat="47.18794" lon="6.16872">
        <ele>681.1</ele>
        <time>2022-08-10T08:45:00Z</time>
      </trkpt>
      <trkpt lat="47.18792" lon="6.16868">
        <ele>680.8</ele>
        <time>2022-08-10T08:45:01Z</time>
      </trkpt>
      <trkpt lat="47.18792" lon="6.16864">
        <ele>681</ele>
        <time>2022-08-10T08:45:02Z</time>
      </trkpt>
      <trkpt lat="47.1879" lon="6.1686">
        <ele>681.1</ele>
        <time>2022-08-10T08:45:03Z</time>
      </trkpt>
      <trkpt lat="47.18789" lon="6.16856">
        <ele>681.3</ele>
        <time>2022-08-10T08:45:04Z</time>
      </trkpt>
      <trkpt lat="47.18788" lon="6.1685">
        <ele>680.4</ele>
        <time>2022-08-10T08:45:05Z</time>
      </trkpt>
      <trkpt lat="47.18787" lon="6.16845">
        <ele>680.3</ele>
        <time>2022-08-10T08:45:06Z</time>
      </trkpt>
      <trkpt lat="47.18785" lon="6.1684">
        <ele>680.1</ele>
        <time>2022-08-10T08:45:07Z</time>
      </trkpt>
      <trkpt lat="47.18784" lon="6.16835">
        <ele>680.1</ele>
        <time>2022-08-10T08:45:08Z</time>
      </trkpt>
      <trkpt lat="47.18783" lon="6.1683">
        <ele>679.7</ele>
        <time>2022-08-10T08:45:09Z</time>
      </trkpt>
      <trkpt lat="47.18782" lon="6.16826">
        <ele>679.2</ele>
        <time>2022-08-10T08:45:10Z</time>
      </trkpt>
      <trkpt lat="47.18781" lon="6.16822">
        <ele>678.4</ele>
        <time>2022-08-10T08:45:11Z</time>
      </trkpt>
      <trkpt lat="47.18779" lon="6.16818">
        <ele>677.8</ele>
        <time>2022-08-10T08:45:12Z</time>
      </trkpt>
      <trkpt lat="47.18778" lon="6.16813">
        <ele>677</ele>
        <time>2022-08-10T08:45:13Z</time>
      </trkpt>
      <trkpt lat="47.18777" lon="6.1681">
        <ele>676.5</ele>
        <time>2022-08-10T08:45:14Z</time>
      </trkpt>
      <trkpt lat="47.18776" lon="6.16806">
        <ele>676.3</ele>
        <time>2022-08-10T08:45:15Z</time>
      </trkpt>
      <trkpt lat="47.18774" lon="6.16803">
        <ele>675.8</ele>
        <time>2022-08-10T08:45:16Z</time>
      </trkpt>
      <trkpt lat="47.18773" lon="6.16799">
        <ele>675.8</ele>
        <time>2022-08-10T08:45:17Z</time>
      </trkpt>
      <trkpt lat="47.18771" lon="6.16796">
        <ele>675.8</ele>
        <time>2022-08-10T08:45:18Z</time>
      </trkpt>
      <trkpt lat="47.1877" lon="6.16792">
        <ele>675.5</ele>
        <time>2022-08-10T08:45:19Z</time>
      </trkpt>
      <trkpt lat="47.18769" lon="6.16788">
        <ele>675.6</ele>
        <time>2022-08-10T08:45:20Z</time>
      </trkpt>
      <trkpt lat="47.18767" lon="6.16785">
        <ele>675.6</ele>
        <time>2022-08-10T08:45:21Z</time>
      </trkpt>
      <trkpt lat="47.18766" lon="6.16779">
        <ele>675.1</ele>
        <time>2022-08-10T08:45:22Z</time>
      </trkpt>
      <trkpt lat="47.18764" lon="6.16776">
        <ele>675.1</ele>
        <time>2022-08-10T08:45:23Z</time>
      </trkpt>
      <trkpt lat="47.18763" lon="6.16769">
        <ele>674.7</ele>
        <time>2022-08-10T08:45:24Z</time>
      </trkpt>
      <trkpt lat="47.18762" lon="6.16765">
        <ele>674.6</ele>
        <time>2022-08-10T08:45:25Z</time>
      </trkpt>
      <trkpt lat="47.18761" lon="6.16761">
        <ele>674.5</ele>
        <time>2022-08-10T08:45:26Z</time>
      </trkpt>
      <trkpt lat="47.1876" lon="6.16756">
        <ele>674.6</ele>
        <time>2022-08-10T08:45:27Z</time>
      </trkpt>
      <trkpt lat="47.18759" lon="6.16752">
        <ele>674.6</ele>
        <time>2022-08-10T08:45:28Z</time>
      </trkpt>
      <trkpt lat="47.18758" lon="6.16747">
        <ele>675.2</ele>
        <time>2022-08-10T08:45:29Z</time>
      </trkpt>
      <trkpt lat="47.18757" lon="6.16743">
        <ele>675.4</ele>
        <time>2022-08-10T08:45:30Z</time>
      </trkpt>
      <trkpt lat="47.18756" lon="6.16738">
        <ele>675.4</ele>
        <time>2022-08-10T08:45:31Z</time>
      </trkpt>
      <trkpt lat="47.18755" lon="6.16726">
        <ele>674.7</ele>
        <time>2022-08-10T08:45:32Z</time>
      </trkpt>
      <trkpt lat="47.18754" lon="6.1672">
        <ele>674.4</ele>
        <time>2022-08-10T08:45:33Z</time>
      </trkpt>
      <trkpt lat="47.18752" lon="6.16713">
        <ele>674.1</ele>
        <time>2022-08-10T08:45:34Z</time>
      </trkpt>
      <trkpt lat="47.18752" lon="6.16708">
        <ele>674</ele>
        <time>2022-08-10T08:45:35Z</time>
      </trkpt>
      <trkpt lat="47.1875" lon="6.16703">
        <ele>674.4</ele>
        <time>2022-08-10T08:45:36Z</time>
      </trkpt>
      <trkpt lat="47.18749" lon="6.16697">
        <ele>675</ele>
        <time>2022-08-10T08:45:37Z</time>
      </trkpt>
      <trkpt lat="47.18748" lon="6.16688">
        <ele>675.7</ele>
        <time>2022-08-10T08:45:38Z</time>
      </trkpt>
      <trkpt lat="47.18746" lon="6.16684">
        <ele>676.2</ele>
        <time>2022-08-10T08:45:39Z</time>
      </trkpt>
      <trkpt lat="47.18744" lon="6.16678">
        <ele>676.7</ele>
        <time>2022-08-10T08:45:40Z</time>
      </trkpt>
      <trkpt lat="47.18742" lon="6.16673">
        <ele>676.9</ele>
        <time>2022-08-10T08:45:41Z</time>
      </trkpt>
      <trkpt lat="47.1874" lon="6.16668">
        <ele>677.1</ele>
        <time>2022-08-10T08:45:42Z</time>
      </trkpt>
      <trkpt lat="47.18738" lon="6.16662">
        <ele>677.5</ele>
        <time>2022-08-10T08:45:43Z</time>
      </trkpt>
      <trkpt lat="47.18735" lon="6.16657">
        <ele>677.9</ele>
        <time>2022-08-10T08:45:44Z</time>
      </trkpt>
      <trkpt lat="47.18732" lon="6.16653">
        <ele>678</ele>
        <time>2022-08-10T08:45:45Z</time>
      </trkpt>
      <trkpt lat="47.1873" lon="6.16648">
        <ele>678.3</ele>
        <time>2022-08-10T08:45:46Z</time>
      </trkpt>
      <trkpt lat="47.18727" lon="6.16644">
        <ele>679.2</ele>
        <time>2022-08-10T08:45:47Z</time>
      </trkpt>
      <trkpt lat="47.18725" lon="6.16639">
        <ele>679.6</ele>
        <time>2022-08-10T08:45:48Z</time>
      </trkpt>
      <trkpt lat="47.18724" lon="6.16637">
        <ele>680</ele>
        <time>2022-08-10T08:45:49Z</time>
      </trkpt>
      <trkpt lat="47.18722" lon="6.16633">
        <ele>680.5</ele>
        <time>2022-08-10T08:45:50Z</time>
      </trkpt>
      <trkpt lat="47.18721" lon="6.16631">
        <ele>680.8</ele>
        <time>2022-08-10T08:45:51Z</time>
      </trkpt>
      <trkpt lat="47.1872" lon="6.16629">
        <ele>681.2</ele>
        <time>2022-08-10T08:45:52Z</time>
      </trkpt>
      <trkpt lat="47.18718" lon="6.16626">
        <ele>681.2</ele>
        <time>2022-08-10T08:45:53Z</time>
      </trkpt>
      <trkpt lat="47.18716" lon="6.16622">
        <ele>681.3</ele>
        <time>2022-08-10T08:45:54Z</time>
      </trkpt>
      <trkpt lat="47.18714" lon="6.16619">
        <ele>681.6</ele>
        <time>2022-08-10T08:45:55Z</time>
      </trkpt>
      <trkpt lat="47.18713" lon="6.16616">
        <ele>681.6</ele>
        <time>2022-08-10T08:45:56Z</time>
      </trkpt>
      <trkpt lat="47.18712" lon="6.16613">
        <ele>681.6</ele>
        <time>2022-08-10T08:45:57Z</time>
      </trkpt>
      <trkpt lat="47.1871" lon="6.1661">
        <ele>681.6</ele>
        <time>2022-08-10T08:45:58Z</time>
      </trkpt>
      <trkpt lat="47.18708" lon="6.16608">
        <ele>681.5</ele>
        <time>2022-08-10T08:45:59Z</time>
      </trkpt>
      <trkpt lat="47.18707" lon="6.16604">
        <ele>681.6</ele>
        <time>2022-08-10T08:46:00Z</time>
      </trkpt>
      <trkpt lat="47.18705" lon="6.16601">
        <ele>682</ele>
        <time>2022-08-10T08:46:01Z</time>
      </trkpt>
      <trkpt lat="47.18703" lon="6.16597">
        <ele>682.5</ele>
        <time>2022-08-10T08:46:02Z</time>
      </trkpt>
      <trkpt lat="47.18701" lon="6.16594">
        <ele>682.7</ele>
        <time>2022-08-10T08:46:03Z</time>
      </trkpt>
      <trkpt lat="47.187" lon="6.16592">
        <ele>683.2</ele>
        <time>2022-08-10T08:46:04Z</time>
      </trkpt>
      <trkpt lat="47.18698" lon="6.16591">
        <ele>683.7</ele>
        <time>2022-08-10T08:46:05Z</time>
      </trkpt>
      <trkpt lat="47.18696" lon="6.16588">
        <ele>684.2</ele>
        <time>2022-08-10T08:46:06Z</time>
      </trkpt>
      <trkpt lat="47.18694" lon="6.16585">
        <ele>684.8</ele>
        <time>2022-08-10T08:46:07Z</time>
      </trkpt>
      <trkpt lat="47.18691" lon="6.16582">
        <ele>685.6</ele>
        <time>2022-08-10T08:46:08Z</time>
      </trkpt>
      <trkpt lat="47.18689" lon="6.1658">
        <ele>686.3</ele>
        <time>2022-08-10T08:46:09Z</time>
      </trkpt>
      <trkpt lat="47.18687" lon="6.16576">
        <ele>687</ele>
        <time>2022-08-10T08:46:10Z</time>
      </trkpt>
      <trkpt lat="47.18685" lon="6.16574">
        <ele>687.8</ele>
        <time>2022-08-10T08:46:11Z</time>
      </trkpt>
      <trkpt lat="47.18682" lon="6.16573">
        <ele>688.3</ele>
        <time>2022-08-10T08:46:12Z</time>
      </trkpt>
      <trkpt lat="47.18679" lon="6.16571">
        <ele>689</ele>
        <time>2022-08-10T08:46:13Z</time>
      </trkpt>
      <trkpt lat="47.18676" lon="6.16569">
        <ele>689.6</ele>
        <time>2022-08-10T08:46:14Z</time>
      </trkpt>
      <trkpt lat="47.18674" lon="6.16566">
        <ele>690.4</ele>
        <time>2022-08-10T08:46:15Z</time>
      </trkpt>
      <trkpt lat="47.1867" lon="6.16564">
        <ele>690.9</ele>
        <time>2022-08-10T08:46:16Z</time>
      </trkpt>
      <trkpt lat="47.18667" lon="6.16562">
        <ele>691.1</ele>
        <time>2022-08-10T08:46:17Z</time>
      </trkpt>
      <trkpt lat="47.18657" lon="6.16554">
        <ele>687.2</ele>
        <time>2022-08-10T08:46:18Z</time>
      </trkpt>
      <trkpt lat="47.18654" lon="6.1655">
        <ele>687.2</ele>
        <time>2022-08-10T08:46:19Z</time>
      </trkpt>
      <trkpt lat="47.18651" lon="6.16546">
        <ele>687.6</ele>
        <time>2022-08-10T08:46:20Z</time>
      </trkpt>
      <trkpt lat="47.18648" lon="6.16543">
        <ele>688.1</ele>
        <time>2022-08-10T08:46:21Z</time>
      </trkpt>
      <trkpt lat="47.18646" lon="6.16541">
        <ele>688.4</ele>
        <time>2022-08-10T08:46:22Z</time>
      </trkpt>
      <trkpt lat="47.18643" lon="6.16537">
        <ele>688.2</ele>
        <time>2022-08-10T08:46:23Z</time>
      </trkpt>
      <trkpt lat="47.18641" lon="6.16535">
        <ele>688.4</ele>
        <time>2022-08-10T08:46:24Z</time>
      </trkpt>
      <trkpt lat="47.18639" lon="6.16533">
        <ele>688.3</ele>
        <time>2022-08-10T08:46:25Z</time>
      </trkpt>
      <trkpt lat="47.18637" lon="6.1653">
        <ele>688.6</ele>
        <time>2022-08-10T08:46:26Z</time>
      </trkpt>
      <trkpt lat="47.18635" lon="6.16526">
        <ele>688.5</ele>
        <time>2022-08-10T08:46:27Z</time>
      </trkpt>
      <trkpt lat="47.18633" lon="6.16523">
        <ele>688.5</ele>
        <time>2022-08-10T08:46:28Z</time>
      </trkpt>
      <trkpt lat="47.18632" lon="6.16519">
        <ele>688.8</ele>
        <time>2022-08-10T08:46:29Z</time>
      </trkpt>
      <trkpt lat="47.18631" lon="6.16515">
        <ele>688.7</ele>
        <time>2022-08-10T08:46:30Z</time>
      </trkpt>
      <trkpt lat="47.18629" lon="6.1651">
        <ele>688.9</ele>
        <time>2022-08-10T08:46:31Z</time>
      </trkpt>
      <trkpt lat="47.18629" lon="6.16506">
        <ele>689.1</ele>
        <time>2022-08-10T08:46:32Z</time>
      </trkpt>
      <trkpt lat="47.18627" lon="6.16502">
        <ele>689.7</ele>
        <time>2022-08-10T08:46:33Z</time>
      </trkpt>
      <trkpt lat="47.18625" lon="6.16499">
        <ele>689.9</ele>
        <time>2022-08-10T08:46:34Z</time>
      </trkpt>
      <trkpt lat="47.18622" lon="6.16496">
        <ele>690</ele>
        <time>2022-08-10T08:46:35Z</time>
      </trkpt>
      <trkpt lat="47.1862" lon="6.16494">
        <ele>690.7</ele>
        <time>2022-08-10T08:46:36Z</time>
      </trkpt>
      <trkpt lat="47.18614" lon="6.16488">
        <ele>686.2</ele>
        <time>2022-08-10T08:46:37Z</time>
      </trkpt>
      <trkpt lat="47.18613" lon="6.16484">
        <ele>686.3</ele>
        <time>2022-08-10T08:46:38Z</time>
      </trkpt>
      <trkpt lat="47.18607" lon="6.16476">
        <ele>685</ele>
        <time>2022-08-10T08:46:39Z</time>
      </trkpt>
      <trkpt lat="47.18606" lon="6.16471">
        <ele>685.2</ele>
        <time>2022-08-10T08:46:40Z</time>
      </trkpt>
      <trkpt lat="47.18605" lon="6.16465">
        <ele>685.2</ele>
        <time>2022-08-10T08:46:41Z</time>
      </trkpt>
      <trkpt lat="47.18603" lon="6.1646">
        <ele>685</ele>
        <time>2022-08-10T08:46:42Z</time>
      </trkpt>
      <trkpt lat="47.18602" lon="6.16456">
        <ele>685.1</ele>
        <time>2022-08-10T08:46:43Z</time>
      </trkpt>
      <trkpt lat="47.18601" lon="6.16451">
        <ele>685.1</ele>
        <time>2022-08-10T08:46:44Z</time>
      </trkpt>
      <trkpt lat="47.186" lon="6.16446">
        <ele>685.5</ele>
        <time>2022-08-10T08:46:45Z</time>
      </trkpt>
      <trkpt lat="47.18598" lon="6.16443">
        <ele>685.6</ele>
        <time>2022-08-10T08:46:46Z</time>
      </trkpt>
      <trkpt lat="47.18597" lon="6.16439">
        <ele>685.4</ele>
        <time>2022-08-10T08:46:47Z</time>
      </trkpt>
      <trkpt lat="47.18595" lon="6.16436">
        <ele>685.6</ele>
        <time>2022-08-10T08:46:48Z</time>
      </trkpt>
      <trkpt lat="47.18594" lon="6.16431">
        <ele>686.1</ele>
        <time>2022-08-10T08:46:49Z</time>
      </trkpt>
      <trkpt lat="47.18592" lon="6.16427">
        <ele>686.4</ele>
        <time>2022-08-10T08:46:50Z</time>
      </trkpt>
      <trkpt lat="47.1859" lon="6.16423">
        <ele>686.6</ele>
        <time>2022-08-10T08:46:51Z</time>
      </trkpt>
      <trkpt lat="47.18588" lon="6.16416">
        <ele>686.5</ele>
        <time>2022-08-10T08:46:52Z</time>
      </trkpt>
      <trkpt lat="47.18586" lon="6.1641">
        <ele>686.2</ele>
        <time>2022-08-10T08:46:53Z</time>
      </trkpt>
      <trkpt lat="47.18583" lon="6.16404">
        <ele>685.7</ele>
        <time>2022-08-10T08:46:54Z</time>
      </trkpt>
      <trkpt lat="47.18579" lon="6.16398">
        <ele>684.9</ele>
        <time>2022-08-10T08:46:55Z</time>
      </trkpt>
      <trkpt lat="47.18575" lon="6.16394">
        <ele>684.6</ele>
        <time>2022-08-10T08:46:56Z</time>
      </trkpt>
      <trkpt lat="47.18571" lon="6.16388">
        <ele>684.4</ele>
        <time>2022-08-10T08:46:57Z</time>
      </trkpt>
      <trkpt lat="47.18568" lon="6.16381">
        <ele>684.3</ele>
        <time>2022-08-10T08:46:58Z</time>
      </trkpt>
      <trkpt lat="47.18565" lon="6.16373">
        <ele>684.5</ele>
        <time>2022-08-10T08:46:59Z</time>
      </trkpt>
      <trkpt lat="47.18562" lon="6.16367">
        <ele>684.4</ele>
        <time>2022-08-10T08:47:00Z</time>
      </trkpt>
      <trkpt lat="47.18559" lon="6.16353">
        <ele>681.8</ele>
        <time>2022-08-10T08:47:01Z</time>
      </trkpt>
      <trkpt lat="47.18556" lon="6.16347">
        <ele>682.1</ele>
        <time>2022-08-10T08:47:02Z</time>
      </trkpt>
      <trkpt lat="47.18553" lon="6.16341">
        <ele>682.4</ele>
        <time>2022-08-10T08:47:03Z</time>
      </trkpt>
      <trkpt lat="47.1855" lon="6.16333">
        <ele>682.9</ele>
        <time>2022-08-10T08:47:04Z</time>
      </trkpt>
      <trkpt lat="47.18546" lon="6.16327">
        <ele>683.2</ele>
        <time>2022-08-10T08:47:05Z</time>
      </trkpt>
      <trkpt lat="47.18544" lon="6.1632">
        <ele>683.2</ele>
        <time>2022-08-10T08:47:06Z</time>
      </trkpt>
      <trkpt lat="47.18542" lon="6.16314">
        <ele>683.1</ele>
        <time>2022-08-10T08:47:07Z</time>
      </trkpt>
      <trkpt lat="47.1854" lon="6.16309">
        <ele>683.1</ele>
        <time>2022-08-10T08:47:08Z</time>
      </trkpt>
      <trkpt lat="47.18539" lon="6.16305">
        <ele>682.1</ele>
        <time>2022-08-10T08:47:09Z</time>
      </trkpt>
      <trkpt lat="47.18538" lon="6.16301">
        <ele>682.1</ele>
        <time>2022-08-10T08:47:10Z</time>
      </trkpt>
      <trkpt lat="47.18536" lon="6.16296">
        <ele>682.9</ele>
        <time>2022-08-10T08:47:11Z</time>
      </trkpt>
      <trkpt lat="47.18534" lon="6.16292">
        <ele>683.1</ele>
        <time>2022-08-10T08:47:12Z</time>
      </trkpt>
      <trkpt lat="47.18526" lon="6.16278">
        <ele>676.8</ele>
        <time>2022-08-10T08:47:13Z</time>
      </trkpt>
      <trkpt lat="47.18525" lon="6.16273">
        <ele>676.1</ele>
        <time>2022-08-10T08:47:14Z</time>
      </trkpt>
      <trkpt lat="47.18524" lon="6.16267">
        <ele>675.3</ele>
        <time>2022-08-10T08:47:15Z</time>
      </trkpt>
      <trkpt lat="47.18524" lon="6.16263">
        <ele>674.6</ele>
        <time>2022-08-10T08:47:16Z</time>
      </trkpt>
      <trkpt lat="47.18523" lon="6.16258">
        <ele>673.3</ele>
        <time>2022-08-10T08:47:17Z</time>
      </trkpt>
      <trkpt lat="47.18523" lon="6.16254">
        <ele>672</ele>
        <time>2022-08-10T08:47:18Z</time>
      </trkpt>
      <trkpt lat="47.18523" lon="6.16249">
        <ele>670.7</ele>
        <time>2022-08-10T08:47:19Z</time>
      </trkpt>
      <trkpt lat="47.18522" lon="6.16246">
        <ele>669.5</ele>
        <time>2022-08-10T08:47:20Z</time>
      </trkpt>
      <trkpt lat="47.18521" lon="6.16243">
        <ele>668.7</ele>
        <time>2022-08-10T08:47:21Z</time>
      </trkpt>
      <trkpt lat="47.1852" lon="6.16239">
        <ele>668.1</ele>
        <time>2022-08-10T08:47:22Z</time>
      </trkpt>
      <trkpt lat="47.18519" lon="6.16237">
        <ele>667.7</ele>
        <time>2022-08-10T08:47:23Z</time>
      </trkpt>
      <trkpt lat="47.18518" lon="6.16234">
        <ele>667.5</ele>
        <time>2022-08-10T08:47:24Z</time>
      </trkpt>
      <trkpt lat="47.18518" lon="6.16231">
        <ele>667.3</ele>
        <time>2022-08-10T08:47:25Z</time>
      </trkpt>
      <trkpt lat="47.18517" lon="6.16228">
        <ele>666.9</ele>
        <time>2022-08-10T08:47:26Z</time>
      </trkpt>
      <trkpt lat="47.18516" lon="6.16224">
        <ele>666.6</ele>
        <time>2022-08-10T08:47:27Z</time>
      </trkpt>
      <trkpt lat="47.18515" lon="6.16221">
        <ele>666.6</ele>
        <time>2022-08-10T08:47:28Z</time>
      </trkpt>
      <trkpt lat="47.18514" lon="6.16218">
        <ele>666.6</ele>
        <time>2022-08-10T08:47:29Z</time>
      </trkpt>
      <trkpt lat="47.18514" lon="6.16214">
        <ele>666.7</ele>
        <time>2022-08-10T08:47:30Z</time>
      </trkpt>
      <trkpt lat="47.18514" lon="6.16212">
        <ele>666.9</ele>
        <time>2022-08-10T08:47:31Z</time>
      </trkpt>
      <trkpt lat="47.18514" lon="6.16209">
        <ele>667.1</ele>
        <time>2022-08-10T08:47:32Z</time>
      </trkpt>
      <trkpt lat="47.18513" lon="6.16206">
        <ele>667.2</ele>
        <time>2022-08-10T08:47:33Z</time>
      </trkpt>
      <trkpt lat="47.18513" lon="6.16203">
        <ele>667.6</ele>
        <time>2022-08-10T08:47:34Z</time>
      </trkpt>
      <trkpt lat="47.18513" lon="6.162">
        <ele>667.8</ele>
        <time>2022-08-10T08:47:35Z</time>
      </trkpt>
      <trkpt lat="47.18512" lon="6.16197">
        <ele>668.1</ele>
        <time>2022-08-10T08:47:36Z</time>
      </trkpt>
      <trkpt lat="47.18511" lon="6.16194">
        <ele>668.3</ele>
        <time>2022-08-10T08:47:37Z</time>
      </trkpt>
      <trkpt lat="47.18511" lon="6.16192">
        <ele>668.5</ele>
        <time>2022-08-10T08:47:38Z</time>
      </trkpt>
      <trkpt lat="47.18511" lon="6.16189">
        <ele>668.9</ele>
        <time>2022-08-10T08:47:39Z</time>
      </trkpt>
      <trkpt lat="47.1851" lon="6.16187">
        <ele>669.1</ele>
        <time>2022-08-10T08:47:40Z</time>
      </trkpt>
      <trkpt lat="47.18509" lon="6.16184">
        <ele>669.5</ele>
        <time>2022-08-10T08:47:41Z</time>
      </trkpt>
      <trkpt lat="47.18509" lon="6.16181">
        <ele>669.7</ele>
        <time>2022-08-10T08:47:42Z</time>
      </trkpt>
      <trkpt lat="47.18509" lon="6.16177">
        <ele>669.8</ele>
        <time>2022-08-10T08:47:43Z</time>
      </trkpt>
      <trkpt lat="47.18509" lon="6.16174">
        <ele>669.9</ele>
        <time>2022-08-10T08:47:44Z</time>
      </trkpt>
      <trkpt lat="47.18509" lon="6.16171">
        <ele>670</ele>
        <time>2022-08-10T08:47:45Z</time>
      </trkpt>
      <trkpt lat="47.18509" lon="6.16168">
        <ele>670.2</ele>
        <time>2022-08-10T08:47:46Z</time>
      </trkpt>
      <trkpt lat="47.18509" lon="6.16165">
        <ele>670.4</ele>
        <time>2022-08-10T08:47:47Z</time>
      </trkpt>
      <trkpt lat="47.18509" lon="6.16162">
        <ele>670.6</ele>
        <time>2022-08-10T08:47:48Z</time>
      </trkpt>
      <trkpt lat="47.1851" lon="6.16159">
        <ele>670.6</ele>
        <time>2022-08-10T08:47:49Z</time>
      </trkpt>
      <trkpt lat="47.1851" lon="6.16158">
        <ele>670.9</ele>
        <time>2022-08-10T08:47:50Z</time>
      </trkpt>
      <trkpt lat="47.1851" lon="6.16156">
        <ele>671.1</ele>
        <time>2022-08-10T08:47:51Z</time>
      </trkpt>
      <trkpt lat="47.1851" lon="6.16156">
        <ele>671.1</ele>
        <time>2022-08-10T08:47:52Z</time>
      </trkpt>
      <trkpt lat="47.1851" lon="6.16156">
        <ele>671.1</ele>
        <time>2022-08-10T08:47:53Z</time>
      </trkpt>
      <trkpt lat="47.1851" lon="6.16156">
        <ele>671.1</ele>
        <time>2022-08-10T08:47:54Z</time>
      </trkpt>
      <trkpt lat="47.1851" lon="6.16156">
        <ele>671.1</ele>
        <time>2022-08-10T08:47:55Z</time>
      </trkpt>
      <trkpt lat="47.1851" lon="6.16156">
        <ele>671.1</ele>
        <time>2022-08-10T08:47:56Z</time>
      </trkpt>
      <trkpt lat="47.1851" lon="6.16156">
        <ele>671.1</ele>
        <time>2022-08-10T08:47:57Z</time>
      </trkpt>
      <trkpt lat="47.1851" lon="6.16156">
        <ele>671.1</ele>
        <time>2022-08-10T08:47:58Z</time>
      </trkpt>
      <trkpt lat="47.1851" lon="6.16156">
        <ele>671.1</ele>
        <time>2022-08-10T08:47:59Z</time>
      </trkpt>
      <trkpt lat="47.1851" lon="6.16156">
        <ele>671.1</ele>
        <time>2022-08-10T08:48:00Z</time>
      </trkpt>
      <trkpt lat="47.1851" lon="6.16156">
        <ele>671.1</ele>
        <time>2022-08-10T08:48:01Z</time>
      </trkpt>
      <trkpt lat="47.1851" lon="6.16156">
        <ele>671.1</ele>
        <time>2022-08-10T08:48:02Z</time>
      </trkpt>
      <trkpt lat="47.1851" lon="6.16156">
        <ele>671.1</ele>
        <time>2022-08-10T08:48:03Z</time>
      </trkpt>
      <trkpt lat="47.1851" lon="6.16156">
        <ele>671.1</ele>
        <time>2022-08-10T08:48:04Z</time>
      </trkpt>
      <trkpt lat="47.1851" lon="6.16156">
        <ele>671.1</ele>
        <time>2022-08-10T08:48:05Z</time>
      </trkpt>
      <trkpt lat="47.1851" lon="6.16156">
        <ele>671.1</ele>
        <time>2022-08-10T08:48:06Z</time>
      </trkpt>
      <trkpt lat="47.1851" lon="6.16156">
        <ele>671.1</ele>
        <time>2022-08-10T08:48:07Z</time>
      </trkpt>
      <trkpt lat="47.1851" lon="6.16156">
        <ele>671.1</ele>
        <time>2022-08-10T08:48:08Z</time>
      </trkpt>
      <trkpt lat="47.1851" lon="6.16156">
        <ele>671.1</ele>
        <time>2022-08-10T08:48:09Z</time>
      </trkpt>
      <trkpt lat="47.1851" lon="6.16156">
        <ele>671.1</ele>
        <time>2022-08-10T08:48:10Z</time>
      </trkpt>
      <trkpt lat="47.1851" lon="6.16156">
        <ele>671.1</ele>
        <time>2022-08-10T08:48:11Z</time>
      </trkpt>
      <trkpt lat="47.1851" lon="6.16156">
        <ele>671.1</ele>
        <time>2022-08-10T08:48:12Z</time>
      </trkpt>
      <trkpt lat="47.1851" lon="6.16156">
        <ele>671.1</ele>
        <time>2022-08-10T08:48:13Z</time>
      </trkpt>
      <trkpt lat="47.1851" lon="6.16156">
        <ele>671.1</ele>
        <time>2022-08-10T08:48:14Z</time>
      </trkpt>
      <trkpt lat="47.1851" lon="6.16156">
        <ele>671.1</ele>
        <time>2022-08-10T08:48:15Z</time>
      </trkpt>
      <trkpt lat="47.1851" lon="6.16156">
        <ele>671.1</ele>
        <time>2022-08-10T08:48:16Z</time>
      </trkpt>
      <trkpt lat="47.1851" lon="6.16156">
        <ele>671.1</ele>
        <time>2022-08-10T08:48:17Z</time>
      </trkpt>
      <trkpt lat="47.1851" lon="6.16156">
        <ele>671.1</ele>
        <time>2022-08-10T08:48:18Z</time>
      </trkpt>
      <trkpt lat="47.1851" lon="6.16156">
        <ele>671.1</ele>
        <time>2022-08-10T08:48:19Z</time>
      </trkpt>
      <trkpt lat="47.1851" lon="6.16156">
        <ele>671.1</ele>
        <time>2022-08-10T08:48:20Z</time>
      </trkpt>
      <trkpt lat="47.1851" lon="6.16156">
        <ele>671.1</ele>
        <time>2022-08-10T08:48:21Z</time>
      </trkpt>
      <trkpt lat="47.1851" lon="6.16156">
        <ele>671.1</ele>
        <time>2022-08-10T08:48:22Z</time>
      </trkpt>
      <trkpt lat="47.1851" lon="6.16156">
        <ele>671.1</ele>
        <time>2022-08-10T08:48:23Z</time>
      </trkpt>
      <trkpt lat="47.1851" lon="6.16156">
        <ele>671.1</ele>
        <time>2022-08-10T08:48:24Z</time>
      </trkpt>
      <trkpt lat="47.1851" lon="6.16156">
        <ele>671.1</ele>
        <time>2022-08-10T08:48:25Z</time>
      </trkpt>
      <trkpt lat="47.1851" lon="6.16156">
        <ele>671.1</ele>
        <time>2022-08-10T08:48:26Z</time>
      </trkpt>
      <trkpt lat="47.1851" lon="6.16156">
        <ele>671.1</ele>
        <time>2022-08-10T08:48:27Z</time>
      </trkpt>
      <trkpt lat="47.1851" lon="6.16156">
        <ele>671.1</ele>
        <time>2022-08-10T08:48:28Z</time>
      </trkpt>
      <trkpt lat="47.1851" lon="6.16156">
        <ele>671.1</ele>
        <time>2022-08-10T08:48:29Z</time>
      </trkpt>
      <trkpt lat="47.1851" lon="6.16156">
        <ele>671.1</ele>
        <time>2022-08-10T08:48:30Z</time>
      </trkpt>
      <trkpt lat="47.1851" lon="6.16156">
        <ele>671.1</ele>
        <time>2022-08-10T08:48:31Z</time>
      </trkpt>
      <trkpt lat="47.1851" lon="6.16156">
        <ele>671.1</ele>
        <time>2022-08-10T08:48:32Z</time>
      </trkpt>
      <trkpt lat="47.1851" lon="6.16156">
        <ele>671.1</ele>
        <time>2022-08-10T08:48:33Z</time>
      </trkpt>
      <trkpt lat="47.1851" lon="6.16156">
        <ele>671.1</ele>
        <time>2022-08-10T08:48:34Z</time>
      </trkpt>
      <trkpt lat="47.1851" lon="6.16156">
        <ele>671.1</ele>
        <time>2022-08-10T08:48:35Z</time>
      </trkpt>
      <trkpt lat="47.1851" lon="6.16141">
        <ele>669.9</ele>
        <time>2022-08-10T08:48:36Z</time>
      </trkpt>
      <trkpt lat="47.18511" lon="6.16133">
        <ele>669.7</ele>
        <time>2022-08-10T08:48:37Z</time>
      </trkpt>
      <trkpt lat="47.18512" lon="6.16129">
        <ele>669.5</ele>
        <time>2022-08-10T08:48:38Z</time>
      </trkpt>
      <trkpt lat="47.18512" lon="6.16126">
        <ele>669.1</ele>
        <time>2022-08-10T08:48:39Z</time>
      </trkpt>
      <trkpt lat="47.18513" lon="6.16125">
        <ele>668.7</ele>
        <time>2022-08-10T08:48:40Z</time>
      </trkpt>
      <trkpt lat="47.18513" lon="6.16125">
        <ele>668.4</ele>
        <time>2022-08-10T08:48:41Z</time>
      </trkpt>
      <trkpt lat="47.18514" lon="6.16124">
        <ele>668.2</ele>
        <time>2022-08-10T08:48:42Z</time>
      </trkpt>
      <trkpt lat="47.18514" lon="6.16125">
        <ele>668</ele>
        <time>2022-08-10T08:48:43Z</time>
      </trkpt>
      <trkpt lat="47.18514" lon="6.16125">
        <ele>668</ele>
        <time>2022-08-10T08:48:44Z</time>
      </trkpt>
      <trkpt lat="47.18514" lon="6.16125">
        <ele>668</ele>
        <time>2022-08-10T08:48:45Z</time>
      </trkpt>
      <trkpt lat="47.18514" lon="6.16125">
        <ele>668</ele>
        <time>2022-08-10T08:48:46Z</time>
      </trkpt>
      <trkpt lat="47.18514" lon="6.16125">
        <ele>668</ele>
        <time>2022-08-10T08:48:47Z</time>
      </trkpt>
      <trkpt lat="47.18514" lon="6.16125">
        <ele>668</ele>
        <time>2022-08-10T08:48:48Z</time>
      </trkpt>
      <trkpt lat="47.18514" lon="6.16125">
        <ele>668</ele>
        <time>2022-08-10T08:48:49Z</time>
      </trkpt>
      <trkpt lat="47.18514" lon="6.16125">
        <ele>668</ele>
        <time>2022-08-10T08:48:50Z</time>
      </trkpt>
      <trkpt lat="47.18514" lon="6.16125">
        <ele>668</ele>
        <time>2022-08-10T08:48:51Z</time>
      </trkpt>
      <trkpt lat="47.18514" lon="6.16125">
        <ele>668</ele>
        <time>2022-08-10T08:48:52Z</time>
      </trkpt>
      <trkpt lat="47.18514" lon="6.16125">
        <ele>668</ele>
        <time>2022-08-10T08:48:53Z</time>
      </trkpt>
      <trkpt lat="47.18514" lon="6.16125">
        <ele>668</ele>
        <time>2022-08-10T08:48:54Z</time>
      </trkpt>
      <trkpt lat="47.18514" lon="6.16125">
        <ele>668</ele>
        <time>2022-08-10T08:48:55Z</time>
      </trkpt>
      <trkpt lat="47.18514" lon="6.16125">
        <ele>668</ele>
        <time>2022-08-10T08:48:56Z</time>
      </trkpt>
      <trkpt lat="47.18514" lon="6.16125">
        <ele>668</ele>
        <time>2022-08-10T08:48:57Z</time>
      </trkpt>
      <trkpt lat="47.18514" lon="6.16125">
        <ele>668</ele>
        <time>2022-08-10T08:48:58Z</time>
      </trkpt>
      <trkpt lat="47.18514" lon="6.16125">
        <ele>668</ele>
        <time>2022-08-10T08:48:59Z</time>
      </trkpt>
      <trkpt lat="47.18514" lon="6.16125">
        <ele>668</ele>
        <time>2022-08-10T08:49:00Z</time>
      </trkpt>
      <trkpt lat="47.18514" lon="6.16125">
        <ele>668</ele>
        <time>2022-08-10T08:49:01Z</time>
      </trkpt>
      <trkpt lat="47.18514" lon="6.16125">
        <ele>668</ele>
        <time>2022-08-10T08:49:02Z</time>
      </trkpt>
      <trkpt lat="47.18514" lon="6.16125">
        <ele>668</ele>
        <time>2022-08-10T08:49:03Z</time>
      </trkpt>
      <trkpt lat="47.18514" lon="6.16125">
        <ele>668</ele>
        <time>2022-08-10T08:49:04Z</time>
      </trkpt>
      <trkpt lat="47.18514" lon="6.16125">
        <ele>668</ele>
        <time>2022-08-10T08:49:05Z</time>
      </trkpt>
      <trkpt lat="47.18514" lon="6.16125">
        <ele>668</ele>
        <time>2022-08-10T08:49:06Z</time>
      </trkpt>
      <trkpt lat="47.18515" lon="6.16118">
        <ele>667.2</ele>
        <time>2022-08-10T08:49:07Z</time>
      </trkpt>
      <trkpt lat="47.18515" lon="6.16117">
        <ele>667.1</ele>
        <time>2022-08-10T08:49:08Z</time>
      </trkpt>
      <trkpt lat="47.18515" lon="6.16115">
        <ele>667.1</ele>
        <time>2022-08-10T08:49:09Z</time>
      </trkpt>
      <trkpt lat="47.18515" lon="6.16113">
        <ele>667.1</ele>
        <time>2022-08-10T08:49:10Z</time>
      </trkpt>
      <trkpt lat="47.18515" lon="6.1611">
        <ele>667.5</ele>
        <time>2022-08-10T08:49:11Z</time>
      </trkpt>
      <trkpt lat="47.18515" lon="6.16108">
        <ele>667.9</ele>
        <time>2022-08-10T08:49:12Z</time>
      </trkpt>
      <trkpt lat="47.18515" lon="6.16106">
        <ele>668.1</ele>
        <time>2022-08-10T08:49:13Z</time>
      </trkpt>
      <trkpt lat="47.18515" lon="6.16103">
        <ele>668.6</ele>
        <time>2022-08-10T08:49:14Z</time>
      </trkpt>
      <trkpt lat="47.18515" lon="6.161">
        <ele>669.2</ele>
        <time>2022-08-10T08:49:15Z</time>
      </trkpt>
      <trkpt lat="47.18515" lon="6.16098">
        <ele>669.8</ele>
        <time>2022-08-10T08:49:16Z</time>
      </trkpt>
      <trkpt lat="47.18515" lon="6.16095">
        <ele>670.3</ele>
        <time>2022-08-10T08:49:17Z</time>
      </trkpt>
      <trkpt lat="47.18516" lon="6.16093">
        <ele>670.8</ele>
        <time>2022-08-10T08:49:18Z</time>
      </trkpt>
      <trkpt lat="47.18516" lon="6.1609">
        <ele>671.4</ele>
        <time>2022-08-10T08:49:19Z</time>
      </trkpt>
      <trkpt lat="47.18517" lon="6.16087">
        <ele>672.1</ele>
        <time>2022-08-10T08:49:20Z</time>
      </trkpt>
      <trkpt lat="47.18518" lon="6.16085">
        <ele>672.7</ele>
        <time>2022-08-10T08:49:21Z</time>
      </trkpt>
      <trkpt lat="47.18518" lon="6.16082">
        <ele>673.3</ele>
        <time>2022-08-10T08:49:22Z</time>
      </trkpt>
      <trkpt lat="47.18518" lon="6.16079">
        <ele>674.2</ele>
        <time>2022-08-10T08:49:23Z</time>
      </trkpt>
      <trkpt lat="47.18519" lon="6.16074">
        <ele>674.8</ele>
        <time>2022-08-10T08:49:24Z</time>
      </trkpt>
      <trkpt lat="47.18519" lon="6.1607">
        <ele>675.5</ele>
        <time>2022-08-10T08:49:25Z</time>
      </trkpt>
      <trkpt lat="47.18519" lon="6.16065">
        <ele>676.4</ele>
        <time>2022-08-10T08:49:26Z</time>
      </trkpt>
      <trkpt lat="47.18518" lon="6.16061">
        <ele>676.7</ele>
        <time>2022-08-10T08:49:27Z</time>
      </trkpt>
      <trkpt lat="47.18516" lon="6.16057">
        <ele>677</ele>
        <time>2022-08-10T08:49:28Z</time>
      </trkpt>
      <trkpt lat="47.18515" lon="6.16053">
        <ele>677.3</ele>
        <time>2022-08-10T08:49:29Z</time>
      </trkpt>
      <trkpt lat="47.18515" lon="6.16049">
        <ele>677.4</ele>
        <time>2022-08-10T08:49:30Z</time>
      </trkpt>
      <trkpt lat="47.18514" lon="6.16045">
        <ele>677.1</ele>
        <time>2022-08-10T08:49:31Z</time>
      </trkpt>
      <trkpt lat="47.18513" lon="6.1604">
        <ele>677</ele>
        <time>2022-08-10T08:49:32Z</time>
      </trkpt>
      <trkpt lat="47.18513" lon="6.16037">
        <ele>676.7</ele>
        <time>2022-08-10T08:49:33Z</time>
      </trkpt>
      <trkpt lat="47.18512" lon="6.16033">
        <ele>676.4</ele>
        <time>2022-08-10T08:49:34Z</time>
      </trkpt>
      <trkpt lat="47.18511" lon="6.16029">
        <ele>676</ele>
        <time>2022-08-10T08:49:35Z</time>
      </trkpt>
      <trkpt lat="47.1851" lon="6.16025">
        <ele>675.4</ele>
        <time>2022-08-10T08:49:36Z</time>
      </trkpt>
      <trkpt lat="47.18508" lon="6.1602">
        <ele>674.5</ele>
        <time>2022-08-10T08:49:37Z</time>
      </trkpt>
      <trkpt lat="47.18507" lon="6.16016">
        <ele>674.1</ele>
        <time>2022-08-10T08:49:38Z</time>
      </trkpt>
      <trkpt lat="47.18506" lon="6.16012">
        <ele>673.5</ele>
        <time>2022-08-10T08:49:39Z</time>
      </trkpt>
      <trkpt lat="47.18506" lon="6.16008">
        <ele>673.1</ele>
        <time>2022-08-10T08:49:40Z</time>
      </trkpt>
      <trkpt lat="47.18505" lon="6.16004">
        <ele>672.4</ele>
        <time>2022-08-10T08:49:41Z</time>
      </trkpt>
      <trkpt lat="47.18505" lon="6.16">
        <ele>671.7</ele>
        <time>2022-08-10T08:49:42Z</time>
      </trkpt>
      <trkpt lat="47.18503" lon="6.15996">
        <ele>670.9</ele>
        <time>2022-08-10T08:49:43Z</time>
      </trkpt>
      <trkpt lat="47.18502" lon="6.15991">
        <ele>669.9</ele>
        <time>2022-08-10T08:49:44Z</time>
      </trkpt>
      <trkpt lat="47.185" lon="6.15986">
        <ele>669.4</ele>
        <time>2022-08-10T08:49:45Z</time>
      </trkpt>
      <trkpt lat="47.18498" lon="6.15982">
        <ele>668.8</ele>
        <time>2022-08-10T08:49:46Z</time>
      </trkpt>
      <trkpt lat="47.18497" lon="6.15976">
        <ele>667.6</ele>
        <time>2022-08-10T08:49:47Z</time>
      </trkpt>
      <trkpt lat="47.18495" lon="6.15971">
        <ele>666.2</ele>
        <time>2022-08-10T08:49:48Z</time>
      </trkpt>
      <trkpt lat="47.18493" lon="6.15966">
        <ele>665.2</ele>
        <time>2022-08-10T08:49:49Z</time>
      </trkpt>
      <trkpt lat="47.18491" lon="6.1596">
        <ele>664.6</ele>
        <time>2022-08-10T08:49:50Z</time>
      </trkpt>
      <trkpt lat="47.1849" lon="6.15954">
        <ele>663.3</ele>
        <time>2022-08-10T08:49:51Z</time>
      </trkpt>
      <trkpt lat="47.18488" lon="6.15948">
        <ele>662.3</ele>
        <time>2022-08-10T08:49:52Z</time>
      </trkpt>
      <trkpt lat="47.18486" lon="6.15942">
        <ele>661.3</ele>
        <time>2022-08-10T08:49:53Z</time>
      </trkpt>
      <trkpt lat="47.18484" lon="6.15937">
        <ele>660.4</ele>
        <time>2022-08-10T08:49:54Z</time>
      </trkpt>
      <trkpt lat="47.18483" lon="6.15932">
        <ele>659.4</ele>
        <time>2022-08-10T08:49:55Z</time>
      </trkpt>
      <trkpt lat="47.18481" lon="6.15927">
        <ele>658.2</ele>
        <time>2022-08-10T08:49:56Z</time>
      </trkpt>
      <trkpt lat="47.1848" lon="6.15922">
        <ele>657.3</ele>
        <time>2022-08-10T08:49:57Z</time>
      </trkpt>
      <trkpt lat="47.18477" lon="6.15914">
        <ele>655.9</ele>
        <time>2022-08-10T08:49:59Z</time>
      </trkpt>
      <trkpt lat="47.18476" lon="6.1591">
        <ele>655.5</ele>
        <time>2022-08-10T08:50:00Z</time>
      </trkpt>
      <trkpt lat="47.18476" lon="6.15906">
        <ele>655.7</ele>
        <time>2022-08-10T08:50:01Z</time>
      </trkpt>
      <trkpt lat="47.18475" lon="6.15903">
        <ele>655.9</ele>
        <time>2022-08-10T08:50:02Z</time>
      </trkpt>
      <trkpt lat="47.18473" lon="6.15899">
        <ele>655.7</ele>
        <time>2022-08-10T08:50:03Z</time>
      </trkpt>
      <trkpt lat="47.18472" lon="6.15895">
        <ele>655.6</ele>
        <time>2022-08-10T08:50:04Z</time>
      </trkpt>
      <trkpt lat="47.1847" lon="6.15891">
        <ele>655.6</ele>
        <time>2022-08-10T08:50:05Z</time>
      </trkpt>
      <trkpt lat="47.18469" lon="6.15887">
        <ele>655.4</ele>
        <time>2022-08-10T08:50:06Z</time>
      </trkpt>
      <trkpt lat="47.18467" lon="6.15882">
        <ele>655.6</ele>
        <time>2022-08-10T08:50:07Z</time>
      </trkpt>
      <trkpt lat="47.18466" lon="6.15877">
        <ele>655.7</ele>
        <time>2022-08-10T08:50:08Z</time>
      </trkpt>
      <trkpt lat="47.18464" lon="6.15872">
        <ele>655.6</ele>
        <time>2022-08-10T08:50:09Z</time>
      </trkpt>
      <trkpt lat="47.18462" lon="6.15868">
        <ele>655.1</ele>
        <time>2022-08-10T08:50:10Z</time>
      </trkpt>
      <trkpt lat="47.1846" lon="6.15864">
        <ele>654.5</ele>
        <time>2022-08-10T08:50:11Z</time>
      </trkpt>
      <trkpt lat="47.18458" lon="6.15861">
        <ele>654</ele>
        <time>2022-08-10T08:50:12Z</time>
      </trkpt>
      <trkpt lat="47.18458" lon="6.15858">
        <ele>654</ele>
        <time>2022-08-10T08:50:13Z</time>
      </trkpt>
      <trkpt lat="47.18457" lon="6.15855">
        <ele>654</ele>
        <time>2022-08-10T08:50:14Z</time>
      </trkpt>
      <trkpt lat="47.18458" lon="6.15851">
        <ele>653.9</ele>
        <time>2022-08-10T08:50:15Z</time>
      </trkpt>
      <trkpt lat="47.18457" lon="6.15847">
        <ele>654</ele>
        <time>2022-08-10T08:50:16Z</time>
      </trkpt>
      <trkpt lat="47.18456" lon="6.15842">
        <ele>653.6</ele>
        <time>2022-08-10T08:50:17Z</time>
      </trkpt>
      <trkpt lat="47.18455" lon="6.15837">
        <ele>652.9</ele>
        <time>2022-08-10T08:50:18Z</time>
      </trkpt>
      <trkpt lat="47.18453" lon="6.15832">
        <ele>652.3</ele>
        <time>2022-08-10T08:50:19Z</time>
      </trkpt>
      <trkpt lat="47.18452" lon="6.15827">
        <ele>651.7</ele>
        <time>2022-08-10T08:50:20Z</time>
      </trkpt>
      <trkpt lat="47.1845" lon="6.15822">
        <ele>651.1</ele>
        <time>2022-08-10T08:50:21Z</time>
      </trkpt>
      <trkpt lat="47.18449" lon="6.15818">
        <ele>650.6</ele>
        <time>2022-08-10T08:50:22Z</time>
      </trkpt>
      <trkpt lat="47.18447" lon="6.15814">
        <ele>650.4</ele>
        <time>2022-08-10T08:50:23Z</time>
      </trkpt>
      <trkpt lat="47.18446" lon="6.15811">
        <ele>649.8</ele>
        <time>2022-08-10T08:50:24Z</time>
      </trkpt>
      <trkpt lat="47.18444" lon="6.15809">
        <ele>649.3</ele>
        <time>2022-08-10T08:50:25Z</time>
      </trkpt>
      <trkpt lat="47.18443" lon="6.15807">
        <ele>648.6</ele>
        <time>2022-08-10T08:50:26Z</time>
      </trkpt>
      <trkpt lat="47.18442" lon="6.15805">
        <ele>648.3</ele>
        <time>2022-08-10T08:50:27Z</time>
      </trkpt>
      <trkpt lat="47.1844" lon="6.15802">
        <ele>647.8</ele>
        <time>2022-08-10T08:50:28Z</time>
      </trkpt>
      <trkpt lat="47.18439" lon="6.15799">
        <ele>647.1</ele>
        <time>2022-08-10T08:50:29Z</time>
      </trkpt>
      <trkpt lat="47.18438" lon="6.15797">
        <ele>646.8</ele>
        <time>2022-08-10T08:50:30Z</time>
      </trkpt>
      <trkpt lat="47.18438" lon="6.15796">
        <ele>646.6</ele>
        <time>2022-08-10T08:50:31Z</time>
      </trkpt>
      <trkpt lat="47.18437" lon="6.15795">
        <ele>646.5</ele>
        <time>2022-08-10T08:50:32Z</time>
      </trkpt>
      <trkpt lat="47.18436" lon="6.15792">
        <ele>646.3</ele>
        <time>2022-08-10T08:50:33Z</time>
      </trkpt>
      <trkpt lat="47.18434" lon="6.15789">
        <ele>645.8</ele>
        <time>2022-08-10T08:50:34Z</time>
      </trkpt>
      <trkpt lat="47.18433" lon="6.15785">
        <ele>645.7</ele>
        <time>2022-08-10T08:50:35Z</time>
      </trkpt>
      <trkpt lat="47.18432" lon="6.15781">
        <ele>645.5</ele>
        <time>2022-08-10T08:50:36Z</time>
      </trkpt>
      <trkpt lat="47.18431" lon="6.15777">
        <ele>645.3</ele>
        <time>2022-08-10T08:50:37Z</time>
      </trkpt>
      <trkpt lat="47.1843" lon="6.15773">
        <ele>645</ele>
        <time>2022-08-10T08:50:38Z</time>
      </trkpt>
      <trkpt lat="47.18429" lon="6.1577">
        <ele>644.8</ele>
        <time>2022-08-10T08:50:39Z</time>
      </trkpt>
      <trkpt lat="47.18428" lon="6.15767">
        <ele>644.6</ele>
        <time>2022-08-10T08:50:40Z</time>
      </trkpt>
      <trkpt lat="47.18428" lon="6.15764">
        <ele>644.4</ele>
        <time>2022-08-10T08:50:41Z</time>
      </trkpt>
      <trkpt lat="47.18427" lon="6.15761">
        <ele>644.1</ele>
        <time>2022-08-10T08:50:42Z</time>
      </trkpt>
      <trkpt lat="47.18426" lon="6.15758">
        <ele>643.9</ele>
        <time>2022-08-10T08:50:43Z</time>
      </trkpt>
      <trkpt lat="47.18425" lon="6.15755">
        <ele>643.7</ele>
        <time>2022-08-10T08:50:44Z</time>
      </trkpt>
      <trkpt lat="47.18424" lon="6.15753">
        <ele>643.6</ele>
        <time>2022-08-10T08:50:45Z</time>
      </trkpt>
      <trkpt lat="47.18423" lon="6.1575">
        <ele>643.4</ele>
        <time>2022-08-10T08:50:46Z</time>
      </trkpt>
      <trkpt lat="47.18421" lon="6.15748">
        <ele>643.4</ele>
        <time>2022-08-10T08:50:47Z</time>
      </trkpt>
      <trkpt lat="47.1842" lon="6.15745">
        <ele>643.3</ele>
        <time>2022-08-10T08:50:48Z</time>
      </trkpt>
      <trkpt lat="47.18419" lon="6.15743">
        <ele>643.5</ele>
        <time>2022-08-10T08:50:49Z</time>
      </trkpt>
      <trkpt lat="47.18418" lon="6.1574">
        <ele>643.6</ele>
        <time>2022-08-10T08:50:50Z</time>
      </trkpt>
      <trkpt lat="47.18416" lon="6.15736">
        <ele>643.6</ele>
        <time>2022-08-10T08:50:51Z</time>
      </trkpt>
      <trkpt lat="47.18415" lon="6.15733">
        <ele>643.6</ele>
        <time>2022-08-10T08:50:52Z</time>
      </trkpt>
      <trkpt lat="47.18414" lon="6.1573">
        <ele>643.5</ele>
        <time>2022-08-10T08:50:53Z</time>
      </trkpt>
      <trkpt lat="47.18412" lon="6.15727">
        <ele>643.4</ele>
        <time>2022-08-10T08:50:54Z</time>
      </trkpt>
      <trkpt lat="47.18411" lon="6.15724">
        <ele>643.3</ele>
        <time>2022-08-10T08:50:55Z</time>
      </trkpt>
      <trkpt lat="47.18409" lon="6.15721">
        <ele>643.2</ele>
        <time>2022-08-10T08:50:56Z</time>
      </trkpt>
      <trkpt lat="47.18407" lon="6.15718">
        <ele>643.1</ele>
        <time>2022-08-10T08:50:57Z</time>
      </trkpt>
      <trkpt lat="47.18405" lon="6.15716">
        <ele>642.9</ele>
        <time>2022-08-10T08:50:58Z</time>
      </trkpt>
      <trkpt lat="47.18403" lon="6.15713">
        <ele>642.8</ele>
        <time>2022-08-10T08:50:59Z</time>
      </trkpt>
      <trkpt lat="47.18401" lon="6.15711">
        <ele>642.4</ele>
        <time>2022-08-10T08:51:00Z</time>
      </trkpt>
      <trkpt lat="47.184" lon="6.15708">
        <ele>642.1</ele>
        <time>2022-08-10T08:51:01Z</time>
      </trkpt>
      <trkpt lat="47.18398" lon="6.15705">
        <ele>641.8</ele>
        <time>2022-08-10T08:51:02Z</time>
      </trkpt>
      <trkpt lat="47.18397" lon="6.15702">
        <ele>641.6</ele>
        <time>2022-08-10T08:51:03Z</time>
      </trkpt>
      <trkpt lat="47.18395" lon="6.15699">
        <ele>641.2</ele>
        <time>2022-08-10T08:51:04Z</time>
      </trkpt>
      <trkpt lat="47.18393" lon="6.15696">
        <ele>640.7</ele>
        <time>2022-08-10T08:51:05Z</time>
      </trkpt>
      <trkpt lat="47.18392" lon="6.15694">
        <ele>640.6</ele>
        <time>2022-08-10T08:51:06Z</time>
      </trkpt>
      <trkpt lat="47.18391" lon="6.15692">
        <ele>640.3</ele>
        <time>2022-08-10T08:51:07Z</time>
      </trkpt>
      <trkpt lat="47.1839" lon="6.15691">
        <ele>640</ele>
        <time>2022-08-10T08:51:08Z</time>
      </trkpt>
      <trkpt lat="47.18389" lon="6.1569">
        <ele>639.3</ele>
        <time>2022-08-10T08:51:09Z</time>
      </trkpt>
      <trkpt lat="47.18388" lon="6.15689">
        <ele>639</ele>
        <time>2022-08-10T08:51:10Z</time>
      </trkpt>
      <trkpt lat="47.18387" lon="6.15688">
        <ele>638.7</ele>
        <time>2022-08-10T08:51:11Z</time>
      </trkpt>
      <trkpt lat="47.18386" lon="6.15686">
        <ele>638.1</ele>
        <time>2022-08-10T08:51:12Z</time>
      </trkpt>
      <trkpt lat="47.18385" lon="6.15685">
        <ele>637.5</ele>
        <time>2022-08-10T08:51:13Z</time>
      </trkpt>
      <trkpt lat="47.18385" lon="6.15684">
        <ele>637.3</ele>
        <time>2022-08-10T08:51:14Z</time>
      </trkpt>
      <trkpt lat="47.18384" lon="6.15683">
        <ele>637.2</ele>
        <time>2022-08-10T08:51:15Z</time>
      </trkpt>
      <trkpt lat="47.18384" lon="6.15683">
        <ele>637.2</ele>
        <time>2022-08-10T08:51:16Z</time>
      </trkpt>
      <trkpt lat="47.18384" lon="6.15683">
        <ele>637.2</ele>
        <time>2022-08-10T08:51:17Z</time>
      </trkpt>
      <trkpt lat="47.18382" lon="6.15678">
        <ele>636.3</ele>
        <time>2022-08-10T08:51:18Z</time>
      </trkpt>
      <trkpt lat="47.18381" lon="6.15675">
        <ele>635.8</ele>
        <time>2022-08-10T08:51:19Z</time>
      </trkpt>
      <trkpt lat="47.1838" lon="6.15673">
        <ele>635</ele>
        <time>2022-08-10T08:51:20Z</time>
      </trkpt>
      <trkpt lat="47.18379" lon="6.1567">
        <ele>634.5</ele>
        <time>2022-08-10T08:51:21Z</time>
      </trkpt>
      <trkpt lat="47.18378" lon="6.15667">
        <ele>633.9</ele>
        <time>2022-08-10T08:51:22Z</time>
      </trkpt>
      <trkpt lat="47.18376" lon="6.15665">
        <ele>633.7</ele>
        <time>2022-08-10T08:51:23Z</time>
      </trkpt>
      <trkpt lat="47.18375" lon="6.15663">
        <ele>633.5</ele>
        <time>2022-08-10T08:51:24Z</time>
      </trkpt>
      <trkpt lat="47.18374" lon="6.15661">
        <ele>633.4</ele>
        <time>2022-08-10T08:51:25Z</time>
      </trkpt>
      <trkpt lat="47.18373" lon="6.15659">
        <ele>633.3</ele>
        <time>2022-08-10T08:51:26Z</time>
      </trkpt>
      <trkpt lat="47.18372" lon="6.15656">
        <ele>633.2</ele>
        <time>2022-08-10T08:51:27Z</time>
      </trkpt>
      <trkpt lat="47.18371" lon="6.15654">
        <ele>633.3</ele>
        <time>2022-08-10T08:51:28Z</time>
      </trkpt>
      <trkpt lat="47.1837" lon="6.15651">
        <ele>633.2</ele>
        <time>2022-08-10T08:51:29Z</time>
      </trkpt>
      <trkpt lat="47.1837" lon="6.15648">
        <ele>633.1</ele>
        <time>2022-08-10T08:51:30Z</time>
      </trkpt>
      <trkpt lat="47.18369" lon="6.15647">
        <ele>633.1</ele>
        <time>2022-08-10T08:51:31Z</time>
      </trkpt>
      <trkpt lat="47.18369" lon="6.15645">
        <ele>633.1</ele>
        <time>2022-08-10T08:51:32Z</time>
      </trkpt>
      <trkpt lat="47.18369" lon="6.15645">
        <ele>633.1</ele>
        <time>2022-08-10T08:51:33Z</time>
      </trkpt>
      <trkpt lat="47.18369" lon="6.15645">
        <ele>633.1</ele>
        <time>2022-08-10T08:51:34Z</time>
      </trkpt>
      <trkpt lat="47.18369" lon="6.15645">
        <ele>633.1</ele>
        <time>2022-08-10T08:51:35Z</time>
      </trkpt>
      <trkpt lat="47.18369" lon="6.15645">
        <ele>633.1</ele>
        <time>2022-08-10T08:51:36Z</time>
      </trkpt>
      <trkpt lat="47.18369" lon="6.15645">
        <ele>633.1</ele>
        <time>2022-08-10T08:51:37Z</time>
      </trkpt>
      <trkpt lat="47.18369" lon="6.15645">
        <ele>633.1</ele>
        <time>2022-08-10T08:51:38Z</time>
      </trkpt>
      <trkpt lat="47.18369" lon="6.15645">
        <ele>633.1</ele>
        <time>2022-08-10T08:51:39Z</time>
      </trkpt>
      <trkpt lat="47.18369" lon="6.15645">
        <ele>633.1</ele>
        <time>2022-08-10T08:51:40Z</time>
      </trkpt>
      <trkpt lat="47.18369" lon="6.15645">
        <ele>633.1</ele>
        <time>2022-08-10T08:51:41Z</time>
      </trkpt>
      <trkpt lat="47.18369" lon="6.15645">
        <ele>633.1</ele>
        <time>2022-08-10T08:51:42Z</time>
      </trkpt>
      <trkpt lat="47.18369" lon="6.15645">
        <ele>633.1</ele>
        <time>2022-08-10T08:51:43Z</time>
      </trkpt>
      <trkpt lat="47.18369" lon="6.15645">
        <ele>633.1</ele>
        <time>2022-08-10T08:51:44Z</time>
      </trkpt>
      <trkpt lat="47.18369" lon="6.15645">
        <ele>633.1</ele>
        <time>2022-08-10T08:51:45Z</time>
      </trkpt>
      <trkpt lat="47.18369" lon="6.15645">
        <ele>633.1</ele>
        <time>2022-08-10T08:51:46Z</time>
      </trkpt>
      <trkpt lat="47.18369" lon="6.15645">
        <ele>633.1</ele>
        <time>2022-08-10T08:51:47Z</time>
      </trkpt>
      <trkpt lat="47.18369" lon="6.15645">
        <ele>633.1</ele>
        <time>2022-08-10T08:51:48Z</time>
      </trkpt>
      <trkpt lat="47.18369" lon="6.15645">
        <ele>633.1</ele>
        <time>2022-08-10T08:51:49Z</time>
      </trkpt>
      <trkpt lat="47.18369" lon="6.15645">
        <ele>633.1</ele>
        <time>2022-08-10T08:51:50Z</time>
      </trkpt>
      <trkpt lat="47.18369" lon="6.15645">
        <ele>633.1</ele>
        <time>2022-08-10T08:51:51Z</time>
      </trkpt>
      <trkpt lat="47.18369" lon="6.15645">
        <ele>633.1</ele>
        <time>2022-08-10T08:51:52Z</time>
      </trkpt>
      <trkpt lat="47.18369" lon="6.15645">
        <ele>633.1</ele>
        <time>2022-08-10T08:51:53Z</time>
      </trkpt>
      <trkpt lat="47.18369" lon="6.15645">
        <ele>633.1</ele>
        <time>2022-08-10T08:51:54Z</time>
      </trkpt>
      <trkpt lat="47.1836" lon="6.15642">
        <ele>635.4</ele>
        <time>2022-08-10T08:51:55Z</time>
      </trkpt>
      <trkpt lat="47.1836" lon="6.15643">
        <ele>635.6</ele>
        <time>2022-08-10T08:51:56Z</time>
      </trkpt>
      <trkpt lat="47.18359" lon="6.15643">
        <ele>635.7</ele>
        <time>2022-08-10T08:51:57Z</time>
      </trkpt>
      <trkpt lat="47.18358" lon="6.15644">
        <ele>635.8</ele>
        <time>2022-08-10T08:51:58Z</time>
      </trkpt>
      <trkpt lat="47.18358" lon="6.15644">
        <ele>635.8</ele>
        <time>2022-08-10T08:51:59Z</time>
      </trkpt>
      <trkpt lat="47.18358" lon="6.15644">
        <ele>635.8</ele>
        <time>2022-08-10T08:52:00Z</time>
      </trkpt>
      <trkpt lat="47.18358" lon="6.15644">
        <ele>635.8</ele>
        <time>2022-08-10T08:52:01Z</time>
      </trkpt>
      <trkpt lat="47.18358" lon="6.15644">
        <ele>635.8</ele>
        <time>2022-08-10T08:52:02Z</time>
      </trkpt>
      <trkpt lat="47.18358" lon="6.15644">
        <ele>635.8</ele>
        <time>2022-08-10T08:52:03Z</time>
      </trkpt>
      <trkpt lat="47.18358" lon="6.15644">
        <ele>635.8</ele>
        <time>2022-08-10T08:52:04Z</time>
      </trkpt>
      <trkpt lat="47.18358" lon="6.15644">
        <ele>635.8</ele>
        <time>2022-08-10T08:52:06Z</time>
      </trkpt>
      <trkpt lat="47.18358" lon="6.15644">
        <ele>635.8</ele>
        <time>2022-08-10T08:52:07Z</time>
      </trkpt>
      <trkpt lat="47.18358" lon="6.15644">
        <ele>635.8</ele>
        <time>2022-08-10T08:52:08Z</time>
      </trkpt>
      <trkpt lat="47.18348" lon="6.15644">
        <ele>636.9</ele>
        <time>2022-08-10T08:52:09Z</time>
      </trkpt>
      <trkpt lat="47.18347" lon="6.15643">
        <ele>636.9</ele>
        <time>2022-08-10T08:52:10Z</time>
      </trkpt>
      <trkpt lat="47.18346" lon="6.15643">
        <ele>636.8</ele>
        <time>2022-08-10T08:52:11Z</time>
      </trkpt>
      <trkpt lat="47.18344" lon="6.15644">
        <ele>636.9</ele>
        <time>2022-08-10T08:52:12Z</time>
      </trkpt>
      <trkpt lat="47.18343" lon="6.15644">
        <ele>637</ele>
        <time>2022-08-10T08:52:13Z</time>
      </trkpt>
      <trkpt lat="47.18342" lon="6.15643">
        <ele>637.1</ele>
        <time>2022-08-10T08:52:14Z</time>
      </trkpt>
      <trkpt lat="47.18341" lon="6.15643">
        <ele>637.2</ele>
        <time>2022-08-10T08:52:15Z</time>
      </trkpt>
      <trkpt lat="47.18341" lon="6.15643">
        <ele>637.2</ele>
        <time>2022-08-10T08:52:16Z</time>
      </trkpt>
      <trkpt lat="47.18341" lon="6.15643">
        <ele>637.2</ele>
        <time>2022-08-10T08:52:17Z</time>
      </trkpt>
      <trkpt lat="47.18341" lon="6.15643">
        <ele>637.2</ele>
        <time>2022-08-10T08:52:18Z</time>
      </trkpt>
      <trkpt lat="47.18341" lon="6.15643">
        <ele>637.2</ele>
        <time>2022-08-10T08:52:19Z</time>
      </trkpt>
      <trkpt lat="47.18341" lon="6.15643">
        <ele>637.2</ele>
        <time>2022-08-10T08:52:20Z</time>
      </trkpt>
      <trkpt lat="47.18341" lon="6.15643">
        <ele>637.2</ele>
        <time>2022-08-10T08:52:21Z</time>
      </trkpt>
      <trkpt lat="47.18341" lon="6.15643">
        <ele>637.2</ele>
        <time>2022-08-10T08:52:22Z</time>
      </trkpt>
      <trkpt lat="47.18341" lon="6.15643">
        <ele>637.2</ele>
        <time>2022-08-10T08:52:23Z</time>
      </trkpt>
      <trkpt lat="47.18341" lon="6.15643">
        <ele>637.2</ele>
        <time>2022-08-10T08:52:24Z</time>
      </trkpt>
      <trkpt lat="47.18341" lon="6.15643">
        <ele>637.2</ele>
        <time>2022-08-10T08:52:25Z</time>
      </trkpt>
      <trkpt lat="47.18341" lon="6.15643">
        <ele>637.2</ele>
        <time>2022-08-10T08:52:26Z</time>
      </trkpt>
      <trkpt lat="47.18341" lon="6.15643">
        <ele>637.2</ele>
        <time>2022-08-10T08:52:27Z</time>
      </trkpt>
      <trkpt lat="47.18334" lon="6.15635">
        <ele>639.4</ele>
        <time>2022-08-10T08:52:28Z</time>
      </trkpt>
      <trkpt lat="47.18333" lon="6.15636">
        <ele>639.5</ele>
        <time>2022-08-10T08:52:29Z</time>
      </trkpt>
      <trkpt lat="47.18331" lon="6.15636">
        <ele>639.6</ele>
        <time>2022-08-10T08:52:30Z</time>
      </trkpt>
      <trkpt lat="47.18331" lon="6.15636">
        <ele>639.8</ele>
        <time>2022-08-10T08:52:31Z</time>
      </trkpt>
      <trkpt lat="47.18331" lon="6.15636">
        <ele>639.8</ele>
        <time>2022-08-10T08:52:32Z</time>
      </trkpt>
      <trkpt lat="47.18331" lon="6.15636">
        <ele>639.8</ele>
        <time>2022-08-10T08:52:33Z</time>
      </trkpt>
      <trkpt lat="47.18331" lon="6.15636">
        <ele>639.8</ele>
        <time>2022-08-10T08:52:34Z</time>
      </trkpt>
      <trkpt lat="47.18331" lon="6.15636">
        <ele>639.8</ele>
        <time>2022-08-10T08:52:35Z</time>
      </trkpt>
      <trkpt lat="47.18331" lon="6.15636">
        <ele>639.8</ele>
        <time>2022-08-10T08:52:36Z</time>
      </trkpt>
      <trkpt lat="47.18331" lon="6.15636">
        <ele>639.8</ele>
        <time>2022-08-10T08:52:37Z</time>
      </trkpt>
      <trkpt lat="47.18331" lon="6.15636">
        <ele>639.8</ele>
        <time>2022-08-10T08:52:38Z</time>
      </trkpt>
      <trkpt lat="47.18321" lon="6.15634">
        <ele>639.5</ele>
        <time>2022-08-10T08:52:39Z</time>
      </trkpt>
      <trkpt lat="47.18321" lon="6.15633">
        <ele>639.5</ele>
        <time>2022-08-10T08:52:40Z</time>
      </trkpt>
      <trkpt lat="47.1832" lon="6.15632">
        <ele>639.5</ele>
        <time>2022-08-10T08:52:41Z</time>
      </trkpt>
      <trkpt lat="47.1832" lon="6.15632">
        <ele>639.5</ele>
        <time>2022-08-10T08:52:42Z</time>
      </trkpt>
      <trkpt lat="47.1832" lon="6.15632">
        <ele>639.5</ele>
        <time>2022-08-10T08:52:43Z</time>
      </trkpt>
      <trkpt lat="47.1832" lon="6.15632">
        <ele>639.5</ele>
        <time>2022-08-10T08:52:44Z</time>
      </trkpt>
      <trkpt lat="47.1832" lon="6.15632">
        <ele>639.5</ele>
        <time>2022-08-10T08:52:45Z</time>
      </trkpt>
      <trkpt lat="47.1832" lon="6.15632">
        <ele>639.5</ele>
        <time>2022-08-10T08:52:46Z</time>
      </trkpt>
      <trkpt lat="47.1832" lon="6.15632">
        <ele>639.5</ele>
        <time>2022-08-10T08:52:47Z</time>
      </trkpt>
      <trkpt lat="47.1832" lon="6.15632">
        <ele>639.5</ele>
        <time>2022-08-10T08:52:48Z</time>
      </trkpt>
      <trkpt lat="47.1832" lon="6.15632">
        <ele>639.5</ele>
        <time>2022-08-10T08:52:49Z</time>
      </trkpt>
      <trkpt lat="47.1832" lon="6.15632">
        <ele>639.5</ele>
        <time>2022-08-10T08:52:50Z</time>
      </trkpt>
      <trkpt lat="47.1832" lon="6.15632">
        <ele>639.5</ele>
        <time>2022-08-10T08:52:51Z</time>
      </trkpt>
      <trkpt lat="47.1832" lon="6.15632">
        <ele>639.5</ele>
        <time>2022-08-10T08:52:52Z</time>
      </trkpt>
      <trkpt lat="47.1832" lon="6.15632">
        <ele>639.5</ele>
        <time>2022-08-10T08:52:53Z</time>
      </trkpt>
      <trkpt lat="47.1832" lon="6.15632">
        <ele>639.5</ele>
        <time>2022-08-10T08:52:54Z</time>
      </trkpt>
      <trkpt lat="47.1832" lon="6.15632">
        <ele>639.5</ele>
        <time>2022-08-10T08:52:55Z</time>
      </trkpt>
      <trkpt lat="47.1832" lon="6.15632">
        <ele>639.5</ele>
        <time>2022-08-10T08:52:56Z</time>
      </trkpt>
      <trkpt lat="47.1832" lon="6.15632">
        <ele>639.5</ele>
        <time>2022-08-10T08:52:57Z</time>
      </trkpt>
      <trkpt lat="47.1832" lon="6.15632">
        <ele>639.5</ele>
        <time>2022-08-10T08:52:58Z</time>
      </trkpt>
      <trkpt lat="47.1832" lon="6.15632">
        <ele>639.5</ele>
        <time>2022-08-10T08:52:59Z</time>
      </trkpt>
      <trkpt lat="47.1832" lon="6.15632">
        <ele>639.5</ele>
        <time>2022-08-10T08:53:00Z</time>
      </trkpt>
      <trkpt lat="47.1832" lon="6.15632">
        <ele>639.5</ele>
        <time>2022-08-10T08:53:01Z</time>
      </trkpt>
      <trkpt lat="47.1832" lon="6.15632">
        <ele>639.5</ele>
        <time>2022-08-10T08:53:02Z</time>
      </trkpt>
      <trkpt lat="47.1832" lon="6.15632">
        <ele>639.5</ele>
        <time>2022-08-10T08:53:03Z</time>
      </trkpt>
      <trkpt lat="47.1832" lon="6.15632">
        <ele>639.5</ele>
        <time>2022-08-10T08:53:04Z</time>
      </trkpt>
      <trkpt lat="47.18315" lon="6.15621">
        <ele>640.1</ele>
        <time>2022-08-10T08:53:05Z</time>
      </trkpt>
      <trkpt lat="47.18315" lon="6.1562">
        <ele>640</ele>
        <time>2022-08-10T08:53:06Z</time>
      </trkpt>
      <trkpt lat="47.18315" lon="6.1562">
        <ele>639.9</ele>
        <time>2022-08-10T08:53:07Z</time>
      </trkpt>
      <trkpt lat="47.18315" lon="6.15618">
        <ele>639.8</ele>
        <time>2022-08-10T08:53:08Z</time>
      </trkpt>
      <trkpt lat="47.18315" lon="6.15618">
        <ele>639.8</ele>
        <time>2022-08-10T08:53:09Z</time>
      </trkpt>
      <trkpt lat="47.18315" lon="6.15618">
        <ele>639.8</ele>
        <time>2022-08-10T08:53:10Z</time>
      </trkpt>
      <trkpt lat="47.18315" lon="6.15618">
        <ele>639.8</ele>
        <time>2022-08-10T08:53:11Z</time>
      </trkpt>
      <trkpt lat="47.18315" lon="6.15618">
        <ele>639.8</ele>
        <time>2022-08-10T08:53:12Z</time>
      </trkpt>
      <trkpt lat="47.18315" lon="6.15618">
        <ele>639.8</ele>
        <time>2022-08-10T08:53:13Z</time>
      </trkpt>
      <trkpt lat="47.18315" lon="6.15618">
        <ele>639.8</ele>
        <time>2022-08-10T08:53:14Z</time>
      </trkpt>
      <trkpt lat="47.18315" lon="6.15618">
        <ele>639.8</ele>
        <time>2022-08-10T08:53:15Z</time>
      </trkpt>
      <trkpt lat="47.18315" lon="6.15618">
        <ele>639.8</ele>
        <time>2022-08-10T08:53:16Z</time>
      </trkpt>
      <trkpt lat="47.18315" lon="6.15618">
        <ele>639.8</ele>
        <time>2022-08-10T08:53:17Z</time>
      </trkpt>
      <trkpt lat="47.18317" lon="6.15605">
        <ele>639.1</ele>
        <time>2022-08-10T08:53:18Z</time>
      </trkpt>
      <trkpt lat="47.18317" lon="6.15604">
        <ele>639.1</ele>
        <time>2022-08-10T08:53:19Z</time>
      </trkpt>
      <trkpt lat="47.18317" lon="6.15604">
        <ele>639</ele>
        <time>2022-08-10T08:53:20Z</time>
      </trkpt>
      <trkpt lat="47.18318" lon="6.15602">
        <ele>639</ele>
        <time>2022-08-10T08:53:21Z</time>
      </trkpt>
      <trkpt lat="47.18318" lon="6.15602">
        <ele>639</ele>
        <time>2022-08-10T08:53:22Z</time>
      </trkpt>
      <trkpt lat="47.18318" lon="6.15602">
        <ele>639</ele>
        <time>2022-08-10T08:53:23Z</time>
      </trkpt>
      <trkpt lat="47.18318" lon="6.15602">
        <ele>639</ele>
        <time>2022-08-10T08:53:24Z</time>
      </trkpt>
      <trkpt lat="47.18318" lon="6.15602">
        <ele>639</ele>
        <time>2022-08-10T08:53:25Z</time>
      </trkpt>
      <trkpt lat="47.18322" lon="6.15594">
        <ele>638.6</ele>
        <time>2022-08-10T08:53:26Z</time>
      </trkpt>
      <trkpt lat="47.18323" lon="6.15591">
        <ele>638.5</ele>
        <time>2022-08-10T08:53:27Z</time>
      </trkpt>
      <trkpt lat="47.18324" lon="6.15588">
        <ele>638.5</ele>
        <time>2022-08-10T08:53:28Z</time>
      </trkpt>
      <trkpt lat="47.18325" lon="6.15586">
        <ele>638.5</ele>
        <time>2022-08-10T08:53:29Z</time>
      </trkpt>
      <trkpt lat="47.18326" lon="6.15585">
        <ele>638.5</ele>
        <time>2022-08-10T08:53:30Z</time>
      </trkpt>
      <trkpt lat="47.18326" lon="6.15582">
        <ele>638.4</ele>
        <time>2022-08-10T08:53:31Z</time>
      </trkpt>
      <trkpt lat="47.18326" lon="6.15582">
        <ele>638.4</ele>
        <time>2022-08-10T08:53:32Z</time>
      </trkpt>
      <trkpt lat="47.18326" lon="6.15582">
        <ele>638.4</ele>
        <time>2022-08-10T08:53:33Z</time>
      </trkpt>
      <trkpt lat="47.18326" lon="6.15582">
        <ele>638.4</ele>
        <time>2022-08-10T08:53:34Z</time>
      </trkpt>
      <trkpt lat="47.18326" lon="6.15582">
        <ele>638.4</ele>
        <time>2022-08-10T08:53:35Z</time>
      </trkpt>
      <trkpt lat="47.18326" lon="6.15582">
        <ele>638.4</ele>
        <time>2022-08-10T08:53:36Z</time>
      </trkpt>
      <trkpt lat="47.18326" lon="6.15582">
        <ele>638.4</ele>
        <time>2022-08-10T08:53:37Z</time>
      </trkpt>
      <trkpt lat="47.18326" lon="6.15582">
        <ele>638.4</ele>
        <time>2022-08-10T08:53:38Z</time>
      </trkpt>
      <trkpt lat="47.18326" lon="6.15582">
        <ele>638.4</ele>
        <time>2022-08-10T08:53:39Z</time>
      </trkpt>
      <trkpt lat="47.18326" lon="6.15582">
        <ele>638.4</ele>
        <time>2022-08-10T08:53:40Z</time>
      </trkpt>
      <trkpt lat="47.18331" lon="6.15571">
        <ele>639.3</ele>
        <time>2022-08-10T08:53:41Z</time>
      </trkpt>
      <trkpt lat="47.18331" lon="6.15569">
        <ele>639.4</ele>
        <time>2022-08-10T08:53:42Z</time>
      </trkpt>
      <trkpt lat="47.18331" lon="6.15568">
        <ele>639.5</ele>
        <time>2022-08-10T08:53:43Z</time>
      </trkpt>
      <trkpt lat="47.18331" lon="6.15566">
        <ele>639.7</ele>
        <time>2022-08-10T08:53:44Z</time>
      </trkpt>
      <trkpt lat="47.18331" lon="6.15566">
        <ele>639.7</ele>
        <time>2022-08-10T08:53:45Z</time>
      </trkpt>
      <trkpt lat="47.18331" lon="6.15566">
        <ele>639.7</ele>
        <time>2022-08-10T08:53:46Z</time>
      </trkpt>
      <trkpt lat="47.18331" lon="6.15566">
        <ele>639.7</ele>
        <time>2022-08-10T08:53:47Z</time>
      </trkpt>
      <trkpt lat="47.18331" lon="6.15566">
        <ele>639.7</ele>
        <time>2022-08-10T08:53:48Z</time>
      </trkpt>
      <trkpt lat="47.18331" lon="6.15566">
        <ele>639.7</ele>
        <time>2022-08-10T08:53:49Z</time>
      </trkpt>
      <trkpt lat="47.18331" lon="6.15566">
        <ele>639.7</ele>
        <time>2022-08-10T08:53:50Z</time>
      </trkpt>
      <trkpt lat="47.18331" lon="6.15566">
        <ele>639.7</ele>
        <time>2022-08-10T08:53:51Z</time>
      </trkpt>
      <trkpt lat="47.18331" lon="6.15566">
        <ele>639.7</ele>
        <time>2022-08-10T08:53:52Z</time>
      </trkpt>
      <trkpt lat="47.18329" lon="6.15552">
        <ele>640.9</ele>
        <time>2022-08-10T08:53:53Z</time>
      </trkpt>
      <trkpt lat="47.18329" lon="6.15549">
        <ele>641.2</ele>
        <time>2022-08-10T08:53:54Z</time>
      </trkpt>
      <trkpt lat="47.18329" lon="6.15545">
        <ele>641.4</ele>
        <time>2022-08-10T08:53:55Z</time>
      </trkpt>
      <trkpt lat="47.18329" lon="6.15542">
        <ele>641.6</ele>
        <time>2022-08-10T08:53:56Z</time>
      </trkpt>
      <trkpt lat="47.18328" lon="6.15538">
        <ele>641.8</ele>
        <time>2022-08-10T08:53:57Z</time>
      </trkpt>
      <trkpt lat="47.18328" lon="6.15535">
        <ele>642.1</ele>
        <time>2022-08-10T08:53:58Z</time>
      </trkpt>
      <trkpt lat="47.18328" lon="6.15532">
        <ele>642.3</ele>
        <time>2022-08-10T08:53:59Z</time>
      </trkpt>
      <trkpt lat="47.18327" lon="6.1553">
        <ele>642.8</ele>
        <time>2022-08-10T08:54:00Z</time>
      </trkpt>
      <trkpt lat="47.18326" lon="6.15527">
        <ele>643.2</ele>
        <time>2022-08-10T08:54:01Z</time>
      </trkpt>
      <trkpt lat="47.18326" lon="6.15525">
        <ele>643.6</ele>
        <time>2022-08-10T08:54:02Z</time>
      </trkpt>
      <trkpt lat="47.18324" lon="6.15522">
        <ele>643.9</ele>
        <time>2022-08-10T08:54:03Z</time>
      </trkpt>
      <trkpt lat="47.18323" lon="6.1552">
        <ele>644.1</ele>
        <time>2022-08-10T08:54:04Z</time>
      </trkpt>
      <trkpt lat="47.18322" lon="6.15518">
        <ele>644.4</ele>
        <time>2022-08-10T08:54:05Z</time>
      </trkpt>
      <trkpt lat="47.18321" lon="6.15516">
        <ele>644.5</ele>
        <time>2022-08-10T08:54:06Z</time>
      </trkpt>
      <trkpt lat="47.1832" lon="6.15514">
        <ele>644.7</ele>
        <time>2022-08-10T08:54:07Z</time>
      </trkpt>
      <trkpt lat="47.18319" lon="6.15511">
        <ele>644.9</ele>
        <time>2022-08-10T08:54:08Z</time>
      </trkpt>
      <trkpt lat="47.18318" lon="6.15509">
        <ele>645.1</ele>
        <time>2022-08-10T08:54:09Z</time>
      </trkpt>
      <trkpt lat="47.18318" lon="6.15508">
        <ele>645.3</ele>
        <time>2022-08-10T08:54:10Z</time>
      </trkpt>
      <trkpt lat="47.18318" lon="6.15506">
        <ele>645.5</ele>
        <time>2022-08-10T08:54:11Z</time>
      </trkpt>
      <trkpt lat="47.18317" lon="6.15503">
        <ele>645.8</ele>
        <time>2022-08-10T08:54:12Z</time>
      </trkpt>
      <trkpt lat="47.18315" lon="6.15501">
        <ele>646.2</ele>
        <time>2022-08-10T08:54:13Z</time>
      </trkpt>
      <trkpt lat="47.18313" lon="6.15499">
        <ele>646.6</ele>
        <time>2022-08-10T08:54:14Z</time>
      </trkpt>
      <trkpt lat="47.18312" lon="6.15497">
        <ele>647</ele>
        <time>2022-08-10T08:54:15Z</time>
      </trkpt>
      <trkpt lat="47.18311" lon="6.15495">
        <ele>647.3</ele>
        <time>2022-08-10T08:54:16Z</time>
      </trkpt>
      <trkpt lat="47.18309" lon="6.15493">
        <ele>647.8</ele>
        <time>2022-08-10T08:54:17Z</time>
      </trkpt>
      <trkpt lat="47.18308" lon="6.1549">
        <ele>648</ele>
        <time>2022-08-10T08:54:18Z</time>
      </trkpt>
      <trkpt lat="47.18306" lon="6.15487">
        <ele>648.5</ele>
        <time>2022-08-10T08:54:19Z</time>
      </trkpt>
      <trkpt lat="47.18305" lon="6.15485">
        <ele>649</ele>
        <time>2022-08-10T08:54:20Z</time>
      </trkpt>
      <trkpt lat="47.18305" lon="6.15483">
        <ele>649.3</ele>
        <time>2022-08-10T08:54:21Z</time>
      </trkpt>
      <trkpt lat="47.18303" lon="6.1548">
        <ele>649.7</ele>
        <time>2022-08-10T08:54:22Z</time>
      </trkpt>
      <trkpt lat="47.18301" lon="6.15478">
        <ele>650.3</ele>
        <time>2022-08-10T08:54:23Z</time>
      </trkpt>
      <trkpt lat="47.183" lon="6.15475">
        <ele>650.6</ele>
        <time>2022-08-10T08:54:24Z</time>
      </trkpt>
      <trkpt lat="47.18299" lon="6.15472">
        <ele>651.2</ele>
        <time>2022-08-10T08:54:25Z</time>
      </trkpt>
      <trkpt lat="47.18298" lon="6.15469">
        <ele>651.8</ele>
        <time>2022-08-10T08:54:26Z</time>
      </trkpt>
      <trkpt lat="47.18296" lon="6.15466">
        <ele>652.2</ele>
        <time>2022-08-10T08:54:27Z</time>
      </trkpt>
      <trkpt lat="47.18295" lon="6.15462">
        <ele>652.4</ele>
        <time>2022-08-10T08:54:28Z</time>
      </trkpt>
      <trkpt lat="47.18293" lon="6.15458">
        <ele>652.4</ele>
        <time>2022-08-10T08:54:29Z</time>
      </trkpt>
      <trkpt lat="47.18292" lon="6.15455">
        <ele>652.5</ele>
        <time>2022-08-10T08:54:30Z</time>
      </trkpt>
      <trkpt lat="47.1829" lon="6.15452">
        <ele>652.6</ele>
        <time>2022-08-10T08:54:31Z</time>
      </trkpt>
      <trkpt lat="47.18288" lon="6.1545">
        <ele>652.5</ele>
        <time>2022-08-10T08:54:32Z</time>
      </trkpt>
      <trkpt lat="47.18287" lon="6.15448">
        <ele>652.3</ele>
        <time>2022-08-10T08:54:33Z</time>
      </trkpt>
      <trkpt lat="47.18285" lon="6.15446">
        <ele>652</ele>
        <time>2022-08-10T08:54:34Z</time>
      </trkpt>
      <trkpt lat="47.18284" lon="6.15446">
        <ele>651.9</ele>
        <time>2022-08-10T08:54:35Z</time>
      </trkpt>
      <trkpt lat="47.18282" lon="6.15446">
        <ele>651.9</ele>
        <time>2022-08-10T08:54:36Z</time>
      </trkpt>
      <trkpt lat="47.18282" lon="6.15447">
        <ele>651.8</ele>
        <time>2022-08-10T08:54:37Z</time>
      </trkpt>
      <trkpt lat="47.18281" lon="6.15448">
        <ele>652</ele>
        <time>2022-08-10T08:54:38Z</time>
      </trkpt>
      <trkpt lat="47.1828" lon="6.15449">
        <ele>652.2</ele>
        <time>2022-08-10T08:54:39Z</time>
      </trkpt>
      <trkpt lat="47.18277" lon="6.15448">
        <ele>652.3</ele>
        <time>2022-08-10T08:54:40Z</time>
      </trkpt>
      <trkpt lat="47.18275" lon="6.15448">
        <ele>652.3</ele>
        <time>2022-08-10T08:54:41Z</time>
      </trkpt>
      <trkpt lat="47.18272" lon="6.15448">
        <ele>652.2</ele>
        <time>2022-08-10T08:54:42Z</time>
      </trkpt>
      <trkpt lat="47.18269" lon="6.15447">
        <ele>652</ele>
        <time>2022-08-10T08:54:43Z</time>
      </trkpt>
      <trkpt lat="47.18267" lon="6.15445">
        <ele>651.6</ele>
        <time>2022-08-10T08:54:44Z</time>
      </trkpt>
      <trkpt lat="47.18264" lon="6.15443">
        <ele>651.2</ele>
        <time>2022-08-10T08:54:45Z</time>
      </trkpt>
      <trkpt lat="47.18261" lon="6.15441">
        <ele>650.7</ele>
        <time>2022-08-10T08:54:46Z</time>
      </trkpt>
      <trkpt lat="47.18259" lon="6.15439">
        <ele>650.1</ele>
        <time>2022-08-10T08:54:47Z</time>
      </trkpt>
      <trkpt lat="47.18256" lon="6.15437">
        <ele>649.5</ele>
        <time>2022-08-10T08:54:48Z</time>
      </trkpt>
      <trkpt lat="47.18254" lon="6.15434">
        <ele>649</ele>
        <time>2022-08-10T08:54:49Z</time>
      </trkpt>
      <trkpt lat="47.18252" lon="6.15431">
        <ele>648.6</ele>
        <time>2022-08-10T08:54:50Z</time>
      </trkpt>
      <trkpt lat="47.1825" lon="6.15428">
        <ele>648.4</ele>
        <time>2022-08-10T08:54:51Z</time>
      </trkpt>
      <trkpt lat="47.18249" lon="6.15425">
        <ele>648.2</ele>
        <time>2022-08-10T08:54:52Z</time>
      </trkpt>
      <trkpt lat="47.18248" lon="6.15422">
        <ele>647.9</ele>
        <time>2022-08-10T08:54:53Z</time>
      </trkpt>
      <trkpt lat="47.18248" lon="6.15419">
        <ele>648</ele>
        <time>2022-08-10T08:54:54Z</time>
      </trkpt>
      <trkpt lat="47.18249" lon="6.15416">
        <ele>647.7</ele>
        <time>2022-08-10T08:54:55Z</time>
      </trkpt>
      <trkpt lat="47.18249" lon="6.15414">
        <ele>647.5</ele>
        <time>2022-08-10T08:54:56Z</time>
      </trkpt>
      <trkpt lat="47.1825" lon="6.15412">
        <ele>647.5</ele>
        <time>2022-08-10T08:54:57Z</time>
      </trkpt>
      <trkpt lat="47.18251" lon="6.1541">
        <ele>647.8</ele>
        <time>2022-08-10T08:54:58Z</time>
      </trkpt>
      <trkpt lat="47.18253" lon="6.15408">
        <ele>647.9</ele>
        <time>2022-08-10T08:54:59Z</time>
      </trkpt>
      <trkpt lat="47.18254" lon="6.15407">
        <ele>647.7</ele>
        <time>2022-08-10T08:55:00Z</time>
      </trkpt>
      <trkpt lat="47.18256" lon="6.15407">
        <ele>647.3</ele>
        <time>2022-08-10T08:55:01Z</time>
      </trkpt>
      <trkpt lat="47.18257" lon="6.15406">
        <ele>647</ele>
        <time>2022-08-10T08:55:02Z</time>
      </trkpt>
      <trkpt lat="47.18259" lon="6.15406">
        <ele>646.8</ele>
        <time>2022-08-10T08:55:03Z</time>
      </trkpt>
      <trkpt lat="47.1826" lon="6.15405">
        <ele>646.5</ele>
        <time>2022-08-10T08:55:04Z</time>
      </trkpt>
      <trkpt lat="47.18262" lon="6.15404">
        <ele>646.6</ele>
        <time>2022-08-10T08:55:05Z</time>
      </trkpt>
      <trkpt lat="47.18263" lon="6.15403">
        <ele>646.7</ele>
        <time>2022-08-10T08:55:06Z</time>
      </trkpt>
      <trkpt lat="47.18264" lon="6.15402">
        <ele>646.8</ele>
        <time>2022-08-10T08:55:07Z</time>
      </trkpt>
      <trkpt lat="47.18265" lon="6.15401">
        <ele>646.7</ele>
        <time>2022-08-10T08:55:08Z</time>
      </trkpt>
      <trkpt lat="47.18265" lon="6.15398">
        <ele>646.7</ele>
        <time>2022-08-10T08:55:09Z</time>
      </trkpt>
      <trkpt lat="47.18265" lon="6.15395">
        <ele>647.1</ele>
        <time>2022-08-10T08:55:10Z</time>
      </trkpt>
      <trkpt lat="47.18264" lon="6.15391">
        <ele>647.2</ele>
        <time>2022-08-10T08:55:11Z</time>
      </trkpt>
      <trkpt lat="47.18264" lon="6.15388">
        <ele>647</ele>
        <time>2022-08-10T08:55:12Z</time>
      </trkpt>
      <trkpt lat="47.18264" lon="6.15385">
        <ele>646.9</ele>
        <time>2022-08-10T08:55:13Z</time>
      </trkpt>
      <trkpt lat="47.18265" lon="6.15383">
        <ele>646.6</ele>
        <time>2022-08-10T08:55:14Z</time>
      </trkpt>
      <trkpt lat="47.18267" lon="6.15382">
        <ele>646.6</ele>
        <time>2022-08-10T08:55:15Z</time>
      </trkpt>
      <trkpt lat="47.18269" lon="6.15381">
        <ele>646.6</ele>
        <time>2022-08-10T08:55:16Z</time>
      </trkpt>
      <trkpt lat="47.1827" lon="6.15382">
        <ele>647</ele>
        <time>2022-08-10T08:55:17Z</time>
      </trkpt>
      <trkpt lat="47.18271" lon="6.15382">
        <ele>647.3</ele>
        <time>2022-08-10T08:55:18Z</time>
      </trkpt>
      <trkpt lat="47.18272" lon="6.15383">
        <ele>647.8</ele>
        <time>2022-08-10T08:55:19Z</time>
      </trkpt>
      <trkpt lat="47.18273" lon="6.15385">
        <ele>648.1</ele>
        <time>2022-08-10T08:55:20Z</time>
      </trkpt>
      <trkpt lat="47.18275" lon="6.15386">
        <ele>648.6</ele>
        <time>2022-08-10T08:55:21Z</time>
      </trkpt>
      <trkpt lat="47.18277" lon="6.15387">
        <ele>648.9</ele>
        <time>2022-08-10T08:55:22Z</time>
      </trkpt>
      <trkpt lat="47.18278" lon="6.15387">
        <ele>648.9</ele>
        <time>2022-08-10T08:55:23Z</time>
      </trkpt>
      <trkpt lat="47.1828" lon="6.15387">
        <ele>649.1</ele>
        <time>2022-08-10T08:55:24Z</time>
      </trkpt>
      <trkpt lat="47.18281" lon="6.15385">
        <ele>649.2</ele>
        <time>2022-08-10T08:55:25Z</time>
      </trkpt>
      <trkpt lat="47.18282" lon="6.15383">
        <ele>649.4</ele>
        <time>2022-08-10T08:55:26Z</time>
      </trkpt>
      <trkpt lat="47.18284" lon="6.1538">
        <ele>649.6</ele>
        <time>2022-08-10T08:55:27Z</time>
      </trkpt>
      <trkpt lat="47.18285" lon="6.15377">
        <ele>649.4</ele>
        <time>2022-08-10T08:55:28Z</time>
      </trkpt>
      <trkpt lat="47.18287" lon="6.15374">
        <ele>648.9</ele>
        <time>2022-08-10T08:55:29Z</time>
      </trkpt>
      <trkpt lat="47.18288" lon="6.15371">
        <ele>648.3</ele>
        <time>2022-08-10T08:55:30Z</time>
      </trkpt>
      <trkpt lat="47.18289" lon="6.15368">
        <ele>647.7</ele>
        <time>2022-08-10T08:55:31Z</time>
      </trkpt>
      <trkpt lat="47.1829" lon="6.15366">
        <ele>647.1</ele>
        <time>2022-08-10T08:55:32Z</time>
      </trkpt>
      <trkpt lat="47.18292" lon="6.15364">
        <ele>646.7</ele>
        <time>2022-08-10T08:55:33Z</time>
      </trkpt>
      <trkpt lat="47.18293" lon="6.15363">
        <ele>646.2</ele>
        <time>2022-08-10T08:55:34Z</time>
      </trkpt>
      <trkpt lat="47.18296" lon="6.15362">
        <ele>645.6</ele>
        <time>2022-08-10T08:55:35Z</time>
      </trkpt>
      <trkpt lat="47.18298" lon="6.15361">
        <ele>645.2</ele>
        <time>2022-08-10T08:55:36Z</time>
      </trkpt>
      <trkpt lat="47.183" lon="6.15361">
        <ele>644.8</ele>
        <time>2022-08-10T08:55:37Z</time>
      </trkpt>
      <trkpt lat="47.18302" lon="6.15361">
        <ele>644.7</ele>
        <time>2022-08-10T08:55:38Z</time>
      </trkpt>
      <trkpt lat="47.18304" lon="6.15361">
        <ele>644.6</ele>
        <time>2022-08-10T08:55:39Z</time>
      </trkpt>
      <trkpt lat="47.18306" lon="6.15361">
        <ele>644.2</ele>
        <time>2022-08-10T08:55:40Z</time>
      </trkpt>
      <trkpt lat="47.18308" lon="6.1536">
        <ele>644.1</ele>
        <time>2022-08-10T08:55:41Z</time>
      </trkpt>
      <trkpt lat="47.1831" lon="6.15359">
        <ele>643.5</ele>
        <time>2022-08-10T08:55:42Z</time>
      </trkpt>
      <trkpt lat="47.18312" lon="6.15358">
        <ele>643.3</ele>
        <time>2022-08-10T08:55:43Z</time>
      </trkpt>
      <trkpt lat="47.18314" lon="6.15357">
        <ele>643.1</ele>
        <time>2022-08-10T08:55:44Z</time>
      </trkpt>
      <trkpt lat="47.18317" lon="6.15355">
        <ele>642.8</ele>
        <time>2022-08-10T08:55:45Z</time>
      </trkpt>
      <trkpt lat="47.18319" lon="6.15353">
        <ele>642.5</ele>
        <time>2022-08-10T08:55:46Z</time>
      </trkpt>
      <trkpt lat="47.18322" lon="6.15352">
        <ele>642.4</ele>
        <time>2022-08-10T08:55:47Z</time>
      </trkpt>
      <trkpt lat="47.18324" lon="6.1535">
        <ele>642.1</ele>
        <time>2022-08-10T08:55:48Z</time>
      </trkpt>
      <trkpt lat="47.18326" lon="6.15347">
        <ele>641.9</ele>
        <time>2022-08-10T08:55:49Z</time>
      </trkpt>
      <trkpt lat="47.18329" lon="6.15345">
        <ele>641.6</ele>
        <time>2022-08-10T08:55:50Z</time>
      </trkpt>
      <trkpt lat="47.18332" lon="6.15343">
        <ele>641.4</ele>
        <time>2022-08-10T08:55:51Z</time>
      </trkpt>
      <trkpt lat="47.18334" lon="6.15341">
        <ele>640.8</ele>
        <time>2022-08-10T08:55:52Z</time>
      </trkpt>
      <trkpt lat="47.18337" lon="6.15338">
        <ele>640.4</ele>
        <time>2022-08-10T08:55:53Z</time>
      </trkpt>
      <trkpt lat="47.18339" lon="6.15335">
        <ele>640.1</ele>
        <time>2022-08-10T08:55:54Z</time>
      </trkpt>
      <trkpt lat="47.18342" lon="6.15332">
        <ele>640.1</ele>
        <time>2022-08-10T08:55:55Z</time>
      </trkpt>
      <trkpt lat="47.18344" lon="6.1533">
        <ele>639.7</ele>
        <time>2022-08-10T08:55:56Z</time>
      </trkpt>
      <trkpt lat="47.18347" lon="6.15328">
        <ele>639.4</ele>
        <time>2022-08-10T08:55:57Z</time>
      </trkpt>
      <trkpt lat="47.18349" lon="6.15325">
        <ele>639.3</ele>
        <time>2022-08-10T08:55:58Z</time>
      </trkpt>
      <trkpt lat="47.18351" lon="6.15323">
        <ele>639</ele>
        <time>2022-08-10T08:55:59Z</time>
      </trkpt>
      <trkpt lat="47.18354" lon="6.15321">
        <ele>638.7</ele>
        <time>2022-08-10T08:56:00Z</time>
      </trkpt>
      <trkpt lat="47.18356" lon="6.15318">
        <ele>638</ele>
        <time>2022-08-10T08:56:01Z</time>
      </trkpt>
      <trkpt lat="47.18359" lon="6.15314">
        <ele>637.4</ele>
        <time>2022-08-10T08:56:02Z</time>
      </trkpt>
      <trkpt lat="47.18362" lon="6.15311">
        <ele>636.8</ele>
        <time>2022-08-10T08:56:03Z</time>
      </trkpt>
      <trkpt lat="47.18364" lon="6.15307">
        <ele>636</ele>
        <time>2022-08-10T08:56:04Z</time>
      </trkpt>
      <trkpt lat="47.18368" lon="6.15303">
        <ele>635.4</ele>
        <time>2022-08-10T08:56:05Z</time>
      </trkpt>
      <trkpt lat="47.18372" lon="6.15301">
        <ele>634.4</ele>
        <time>2022-08-10T08:56:06Z</time>
      </trkpt>
      <trkpt lat="47.18376" lon="6.153">
        <ele>634.1</ele>
        <time>2022-08-10T08:56:07Z</time>
      </trkpt>
      <trkpt lat="47.1838" lon="6.153">
        <ele>633.7</ele>
        <time>2022-08-10T08:56:08Z</time>
      </trkpt>
      <trkpt lat="47.18384" lon="6.15302">
        <ele>633.8</ele>
        <time>2022-08-10T08:56:09Z</time>
      </trkpt>
      <trkpt lat="47.18388" lon="6.15303">
        <ele>633.8</ele>
        <time>2022-08-10T08:56:10Z</time>
      </trkpt>
      <trkpt lat="47.18392" lon="6.15303">
        <ele>634.1</ele>
        <time>2022-08-10T08:56:11Z</time>
      </trkpt>
      <trkpt lat="47.18396" lon="6.15303">
        <ele>634.4</ele>
        <time>2022-08-10T08:56:12Z</time>
      </trkpt>
      <trkpt lat="47.18399" lon="6.153">
        <ele>634.4</ele>
        <time>2022-08-10T08:56:13Z</time>
      </trkpt>
      <trkpt lat="47.18401" lon="6.15295">
        <ele>634.5</ele>
        <time>2022-08-10T08:56:14Z</time>
      </trkpt>
      <trkpt lat="47.18403" lon="6.15289">
        <ele>634.1</ele>
        <time>2022-08-10T08:56:15Z</time>
      </trkpt>
      <trkpt lat="47.18404" lon="6.15283">
        <ele>633.8</ele>
        <time>2022-08-10T08:56:16Z</time>
      </trkpt>
      <trkpt lat="47.18406" lon="6.15278">
        <ele>633.3</ele>
        <time>2022-08-10T08:56:17Z</time>
      </trkpt>
      <trkpt lat="47.18408" lon="6.15273">
        <ele>633</ele>
        <time>2022-08-10T08:56:18Z</time>
      </trkpt>
      <trkpt lat="47.1841" lon="6.15268">
        <ele>632.8</ele>
        <time>2022-08-10T08:56:19Z</time>
      </trkpt>
      <trkpt lat="47.18412" lon="6.15262">
        <ele>632.4</ele>
        <time>2022-08-10T08:56:20Z</time>
      </trkpt>
      <trkpt lat="47.18413" lon="6.15256">
        <ele>632.2</ele>
        <time>2022-08-10T08:56:21Z</time>
      </trkpt>
      <trkpt lat="47.18415" lon="6.15252">
        <ele>631.8</ele>
        <time>2022-08-10T08:56:22Z</time>
      </trkpt>
      <trkpt lat="47.18417" lon="6.15248">
        <ele>631.3</ele>
        <time>2022-08-10T08:56:23Z</time>
      </trkpt>
      <trkpt lat="47.18418" lon="6.15245">
        <ele>631.3</ele>
        <time>2022-08-10T08:56:24Z</time>
      </trkpt>
      <trkpt lat="47.1842" lon="6.15242">
        <ele>631</ele>
        <time>2022-08-10T08:56:25Z</time>
      </trkpt>
      <trkpt lat="47.1842" lon="6.15239">
        <ele>630.7</ele>
        <time>2022-08-10T08:56:26Z</time>
      </trkpt>
      <trkpt lat="47.18421" lon="6.15235">
        <ele>630.2</ele>
        <time>2022-08-10T08:56:27Z</time>
      </trkpt>
      <trkpt lat="47.18421" lon="6.15232">
        <ele>629.7</ele>
        <time>2022-08-10T08:56:28Z</time>
      </trkpt>
      <trkpt lat="47.1842" lon="6.1523">
        <ele>629.4</ele>
        <time>2022-08-10T08:56:29Z</time>
      </trkpt>
      <trkpt lat="47.1842" lon="6.15228">
        <ele>629.3</ele>
        <time>2022-08-10T08:56:30Z</time>
      </trkpt>
      <trkpt lat="47.1842" lon="6.15226">
        <ele>629.2</ele>
        <time>2022-08-10T08:56:31Z</time>
      </trkpt>
      <trkpt lat="47.1842" lon="6.15224">
        <ele>629.2</ele>
        <time>2022-08-10T08:56:32Z</time>
      </trkpt>
      <trkpt lat="47.1842" lon="6.15222">
        <ele>629.2</ele>
        <time>2022-08-10T08:56:33Z</time>
      </trkpt>
      <trkpt lat="47.1842" lon="6.1522">
        <ele>629.2</ele>
        <time>2022-08-10T08:56:34Z</time>
      </trkpt>
      <trkpt lat="47.18421" lon="6.15217">
        <ele>629.3</ele>
        <time>2022-08-10T08:56:35Z</time>
      </trkpt>
      <trkpt lat="47.1842" lon="6.15215">
        <ele>629.3</ele>
        <time>2022-08-10T08:56:36Z</time>
      </trkpt>
      <trkpt lat="47.1842" lon="6.15212">
        <ele>629.4</ele>
        <time>2022-08-10T08:56:37Z</time>
      </trkpt>
      <trkpt lat="47.1842" lon="6.15209">
        <ele>629.5</ele>
        <time>2022-08-10T08:56:38Z</time>
      </trkpt>
      <trkpt lat="47.1842" lon="6.15206">
        <ele>629.8</ele>
        <time>2022-08-10T08:56:39Z</time>
      </trkpt>
      <trkpt lat="47.18421" lon="6.15202">
        <ele>630</ele>
        <time>2022-08-10T08:56:40Z</time>
      </trkpt>
      <trkpt lat="47.18421" lon="6.15199">
        <ele>630.1</ele>
        <time>2022-08-10T08:56:41Z</time>
      </trkpt>
      <trkpt lat="47.18421" lon="6.15196">
        <ele>630.1</ele>
        <time>2022-08-10T08:56:42Z</time>
      </trkpt>
      <trkpt lat="47.1842" lon="6.15193">
        <ele>630.1</ele>
        <time>2022-08-10T08:56:43Z</time>
      </trkpt>
      <trkpt lat="47.1842" lon="6.1519">
        <ele>630.6</ele>
        <time>2022-08-10T08:56:44Z</time>
      </trkpt>
      <trkpt lat="47.1842" lon="6.15187">
        <ele>630.9</ele>
        <time>2022-08-10T08:56:45Z</time>
      </trkpt>
      <trkpt lat="47.1842" lon="6.15184">
        <ele>631.1</ele>
        <time>2022-08-10T08:56:46Z</time>
      </trkpt>
      <trkpt lat="47.18419" lon="6.15182">
        <ele>631.3</ele>
        <time>2022-08-10T08:56:47Z</time>
      </trkpt>
      <trkpt lat="47.18419" lon="6.15181">
        <ele>631.5</ele>
        <time>2022-08-10T08:56:48Z</time>
      </trkpt>
      <trkpt lat="47.18418" lon="6.15178">
        <ele>631.8</ele>
        <time>2022-08-10T08:56:49Z</time>
      </trkpt>
      <trkpt lat="47.18418" lon="6.15178">
        <ele>631.8</ele>
        <time>2022-08-10T08:56:50Z</time>
      </trkpt>
      <trkpt lat="47.18418" lon="6.15172">
        <ele>632.3</ele>
        <time>2022-08-10T08:56:51Z</time>
      </trkpt>
      <trkpt lat="47.18417" lon="6.15169">
        <ele>632.4</ele>
        <time>2022-08-10T08:56:52Z</time>
      </trkpt>
      <trkpt lat="47.18417" lon="6.15166">
        <ele>632.6</ele>
        <time>2022-08-10T08:56:53Z</time>
      </trkpt>
      <trkpt lat="47.18416" lon="6.15162">
        <ele>632.8</ele>
        <time>2022-08-10T08:56:54Z</time>
      </trkpt>
      <trkpt lat="47.18415" lon="6.15158">
        <ele>632.9</ele>
        <time>2022-08-10T08:56:55Z</time>
      </trkpt>
      <trkpt lat="47.18415" lon="6.15153">
        <ele>632.9</ele>
        <time>2022-08-10T08:56:56Z</time>
      </trkpt>
      <trkpt lat="47.18415" lon="6.15148">
        <ele>633.1</ele>
        <time>2022-08-10T08:56:57Z</time>
      </trkpt>
      <trkpt lat="47.18414" lon="6.15145">
        <ele>633</ele>
        <time>2022-08-10T08:56:58Z</time>
      </trkpt>
      <trkpt lat="47.18413" lon="6.15141">
        <ele>632.9</ele>
        <time>2022-08-10T08:56:59Z</time>
      </trkpt>
      <trkpt lat="47.18412" lon="6.15138">
        <ele>632.9</ele>
        <time>2022-08-10T08:57:00Z</time>
      </trkpt>
      <trkpt lat="47.18411" lon="6.15134">
        <ele>632.7</ele>
        <time>2022-08-10T08:57:01Z</time>
      </trkpt>
      <trkpt lat="47.1841" lon="6.1513">
        <ele>632.7</ele>
        <time>2022-08-10T08:57:02Z</time>
      </trkpt>
      <trkpt lat="47.18409" lon="6.15127">
        <ele>632.5</ele>
        <time>2022-08-10T08:57:03Z</time>
      </trkpt>
      <trkpt lat="47.18408" lon="6.15123">
        <ele>632.5</ele>
        <time>2022-08-10T08:57:04Z</time>
      </trkpt>
      <trkpt lat="47.18407" lon="6.1512">
        <ele>632.4</ele>
        <time>2022-08-10T08:57:05Z</time>
      </trkpt>
      <trkpt lat="47.18406" lon="6.15116">
        <ele>632.5</ele>
        <time>2022-08-10T08:57:06Z</time>
      </trkpt>
      <trkpt lat="47.18405" lon="6.15112">
        <ele>632.7</ele>
        <time>2022-08-10T08:57:07Z</time>
      </trkpt>
      <trkpt lat="47.18405" lon="6.15109">
        <ele>632.8</ele>
        <time>2022-08-10T08:57:08Z</time>
      </trkpt>
      <trkpt lat="47.18404" lon="6.15105">
        <ele>633</ele>
        <time>2022-08-10T08:57:09Z</time>
      </trkpt>
      <trkpt lat="47.18404" lon="6.15101">
        <ele>633.3</ele>
        <time>2022-08-10T08:57:10Z</time>
      </trkpt>
      <trkpt lat="47.18403" lon="6.15097">
        <ele>633.4</ele>
        <time>2022-08-10T08:57:11Z</time>
      </trkpt>
      <trkpt lat="47.18402" lon="6.15094">
        <ele>633.4</ele>
        <time>2022-08-10T08:57:12Z</time>
      </trkpt>
      <trkpt lat="47.18401" lon="6.15091">
        <ele>633.6</ele>
        <time>2022-08-10T08:57:13Z</time>
      </trkpt>
      <trkpt lat="47.18399" lon="6.15088">
        <ele>633.8</ele>
        <time>2022-08-10T08:57:14Z</time>
      </trkpt>
      <trkpt lat="47.18399" lon="6.15084">
        <ele>634.1</ele>
        <time>2022-08-10T08:57:15Z</time>
      </trkpt>
      <trkpt lat="47.18398" lon="6.15081">
        <ele>634.4</ele>
        <time>2022-08-10T08:57:16Z</time>
      </trkpt>
      <trkpt lat="47.18396" lon="6.15078">
        <ele>634.6</ele>
        <time>2022-08-10T08:57:17Z</time>
      </trkpt>
      <trkpt lat="47.18394" lon="6.15074">
        <ele>634.8</ele>
        <time>2022-08-10T08:57:18Z</time>
      </trkpt>
      <trkpt lat="47.18392" lon="6.15071">
        <ele>635</ele>
        <time>2022-08-10T08:57:19Z</time>
      </trkpt>
      <trkpt lat="47.1839" lon="6.15067">
        <ele>635.1</ele>
        <time>2022-08-10T08:57:20Z</time>
      </trkpt>
      <trkpt lat="47.18387" lon="6.15062">
        <ele>635</ele>
        <time>2022-08-10T08:57:21Z</time>
      </trkpt>
      <trkpt lat="47.18385" lon="6.15057">
        <ele>635.2</ele>
        <time>2022-08-10T08:57:22Z</time>
      </trkpt>
      <trkpt lat="47.18383" lon="6.15053">
        <ele>635.1</ele>
        <time>2022-08-10T08:57:23Z</time>
      </trkpt>
      <trkpt lat="47.18382" lon="6.15049">
        <ele>635.1</ele>
        <time>2022-08-10T08:57:24Z</time>
      </trkpt>
      <trkpt lat="47.18381" lon="6.15036">
        <ele>634.6</ele>
        <time>2022-08-10T08:57:25Z</time>
      </trkpt>
      <trkpt lat="47.18378" lon="6.1503">
        <ele>632.6</ele>
        <time>2022-08-10T08:57:26Z</time>
      </trkpt>
      <trkpt lat="47.18376" lon="6.15026">
        <ele>631.9</ele>
        <time>2022-08-10T08:57:27Z</time>
      </trkpt>
      <trkpt lat="47.18374" lon="6.15022">
        <ele>631.2</ele>
        <time>2022-08-10T08:57:28Z</time>
      </trkpt>
      <trkpt lat="47.18373" lon="6.15019">
        <ele>630.8</ele>
        <time>2022-08-10T08:57:29Z</time>
      </trkpt>
      <trkpt lat="47.18371" lon="6.15015">
        <ele>630.4</ele>
        <time>2022-08-10T08:57:30Z</time>
      </trkpt>
      <trkpt lat="47.18369" lon="6.15009">
        <ele>629.9</ele>
        <time>2022-08-10T08:57:31Z</time>
      </trkpt>
      <trkpt lat="47.18368" lon="6.15004">
        <ele>629.5</ele>
        <time>2022-08-10T08:57:32Z</time>
      </trkpt>
      <trkpt lat="47.18366" lon="6.14998">
        <ele>629.1</ele>
        <time>2022-08-10T08:57:33Z</time>
      </trkpt>
      <trkpt lat="47.18365" lon="6.14992">
        <ele>628.9</ele>
        <time>2022-08-10T08:57:34Z</time>
      </trkpt>
      <trkpt lat="47.18363" lon="6.14988">
        <ele>627.9</ele>
        <time>2022-08-10T08:57:35Z</time>
      </trkpt>
      <trkpt lat="47.18361" lon="6.14984">
        <ele>627.5</ele>
        <time>2022-08-10T08:57:36Z</time>
      </trkpt>
      <trkpt lat="47.1836" lon="6.14979">
        <ele>626.8</ele>
        <time>2022-08-10T08:57:37Z</time>
      </trkpt>
      <trkpt lat="47.18358" lon="6.14974">
        <ele>626.4</ele>
        <time>2022-08-10T08:57:38Z</time>
      </trkpt>
      <trkpt lat="47.18357" lon="6.14968">
        <ele>626.2</ele>
        <time>2022-08-10T08:57:39Z</time>
      </trkpt>
      <trkpt lat="47.18354" lon="6.14963">
        <ele>625.8</ele>
        <time>2022-08-10T08:57:40Z</time>
      </trkpt>
      <trkpt lat="47.18352" lon="6.14958">
        <ele>625.1</ele>
        <time>2022-08-10T08:57:41Z</time>
      </trkpt>
      <trkpt lat="47.1835" lon="6.14953">
        <ele>624</ele>
        <time>2022-08-10T08:57:42Z</time>
      </trkpt>
      <trkpt lat="47.18349" lon="6.14949">
        <ele>623</ele>
        <time>2022-08-10T08:57:43Z</time>
      </trkpt>
      <trkpt lat="47.18347" lon="6.14944">
        <ele>622</ele>
        <time>2022-08-10T08:57:44Z</time>
      </trkpt>
      <trkpt lat="47.18345" lon="6.14939">
        <ele>621.5</ele>
        <time>2022-08-10T08:57:45Z</time>
      </trkpt>
      <trkpt lat="47.18343" lon="6.14935">
        <ele>621.1</ele>
        <time>2022-08-10T08:57:46Z</time>
      </trkpt>
      <trkpt lat="47.18342" lon="6.14933">
        <ele>620.6</ele>
        <time>2022-08-10T08:57:47Z</time>
      </trkpt>
      <trkpt lat="47.1834" lon="6.14931">
        <ele>620.4</ele>
        <time>2022-08-10T08:57:48Z</time>
      </trkpt>
      <trkpt lat="47.18337" lon="6.14928">
        <ele>620.1</ele>
        <time>2022-08-10T08:57:49Z</time>
      </trkpt>
      <trkpt lat="47.18336" lon="6.14924">
        <ele>619.7</ele>
        <time>2022-08-10T08:57:50Z</time>
      </trkpt>
      <trkpt lat="47.18334" lon="6.14922">
        <ele>619.5</ele>
        <time>2022-08-10T08:57:51Z</time>
      </trkpt>
      <trkpt lat="47.18333" lon="6.14919">
        <ele>619.4</ele>
        <time>2022-08-10T08:57:52Z</time>
      </trkpt>
      <trkpt lat="47.1833" lon="6.14916">
        <ele>619.7</ele>
        <time>2022-08-10T08:57:53Z</time>
      </trkpt>
      <trkpt lat="47.18327" lon="6.14913">
        <ele>619.7</ele>
        <time>2022-08-10T08:57:54Z</time>
      </trkpt>
      <trkpt lat="47.18325" lon="6.1491">
        <ele>619.3</ele>
        <time>2022-08-10T08:57:55Z</time>
      </trkpt>
      <trkpt lat="47.18322" lon="6.14908">
        <ele>618.9</ele>
        <time>2022-08-10T08:57:56Z</time>
      </trkpt>
      <trkpt lat="47.1832" lon="6.14905">
        <ele>618.9</ele>
        <time>2022-08-10T08:57:57Z</time>
      </trkpt>
      <trkpt lat="47.18318" lon="6.14902">
        <ele>619.1</ele>
        <time>2022-08-10T08:57:58Z</time>
      </trkpt>
      <trkpt lat="47.18315" lon="6.149">
        <ele>619.5</ele>
        <time>2022-08-10T08:57:59Z</time>
      </trkpt>
      <trkpt lat="47.18312" lon="6.14897">
        <ele>619.8</ele>
        <time>2022-08-10T08:58:00Z</time>
      </trkpt>
      <trkpt lat="47.18309" lon="6.14895">
        <ele>620.1</ele>
        <time>2022-08-10T08:58:01Z</time>
      </trkpt>
      <trkpt lat="47.18307" lon="6.14892">
        <ele>620.2</ele>
        <time>2022-08-10T08:58:02Z</time>
      </trkpt>
      <trkpt lat="47.18305" lon="6.1489">
        <ele>620.4</ele>
        <time>2022-08-10T08:58:03Z</time>
      </trkpt>
      <trkpt lat="47.18302" lon="6.14888">
        <ele>620.7</ele>
        <time>2022-08-10T08:58:04Z</time>
      </trkpt>
      <trkpt lat="47.18299" lon="6.14887">
        <ele>621.1</ele>
        <time>2022-08-10T08:58:05Z</time>
      </trkpt>
      <trkpt lat="47.18296" lon="6.14885">
        <ele>621.8</ele>
        <time>2022-08-10T08:58:06Z</time>
      </trkpt>
      <trkpt lat="47.18294" lon="6.14884">
        <ele>622.7</ele>
        <time>2022-08-10T08:58:07Z</time>
      </trkpt>
      <trkpt lat="47.18292" lon="6.14882">
        <ele>623.3</ele>
        <time>2022-08-10T08:58:08Z</time>
      </trkpt>
      <trkpt lat="47.18289" lon="6.14881">
        <ele>624</ele>
        <time>2022-08-10T08:58:09Z</time>
      </trkpt>
      <trkpt lat="47.18287" lon="6.1488">
        <ele>624.5</ele>
        <time>2022-08-10T08:58:10Z</time>
      </trkpt>
      <trkpt lat="47.18284" lon="6.14879">
        <ele>624.8</ele>
        <time>2022-08-10T08:58:11Z</time>
      </trkpt>
      <trkpt lat="47.1828" lon="6.14878">
        <ele>625.1</ele>
        <time>2022-08-10T08:58:12Z</time>
      </trkpt>
      <trkpt lat="47.18277" lon="6.14877">
        <ele>625.2</ele>
        <time>2022-08-10T08:58:13Z</time>
      </trkpt>
      <trkpt lat="47.18274" lon="6.14876">
        <ele>625.3</ele>
        <time>2022-08-10T08:58:14Z</time>
      </trkpt>
      <trkpt lat="47.18272" lon="6.14875">
        <ele>625.5</ele>
        <time>2022-08-10T08:58:15Z</time>
      </trkpt>
      <trkpt lat="47.18269" lon="6.14874">
        <ele>625.7</ele>
        <time>2022-08-10T08:58:16Z</time>
      </trkpt>
      <trkpt lat="47.18267" lon="6.14872">
        <ele>626.2</ele>
        <time>2022-08-10T08:58:17Z</time>
      </trkpt>
      <trkpt lat="47.18265" lon="6.1487">
        <ele>626.7</ele>
        <time>2022-08-10T08:58:18Z</time>
      </trkpt>
      <trkpt lat="47.18263" lon="6.14867">
        <ele>627.1</ele>
        <time>2022-08-10T08:58:19Z</time>
      </trkpt>
      <trkpt lat="47.18261" lon="6.14866">
        <ele>627.3</ele>
        <time>2022-08-10T08:58:20Z</time>
      </trkpt>
      <trkpt lat="47.18259" lon="6.14863">
        <ele>627.3</ele>
        <time>2022-08-10T08:58:21Z</time>
      </trkpt>
      <trkpt lat="47.18258" lon="6.1486">
        <ele>627.4</ele>
        <time>2022-08-10T08:58:22Z</time>
      </trkpt>
      <trkpt lat="47.18256" lon="6.14857">
        <ele>627.5</ele>
        <time>2022-08-10T08:58:23Z</time>
      </trkpt>
      <trkpt lat="47.18254" lon="6.14855">
        <ele>627.6</ele>
        <time>2022-08-10T08:58:24Z</time>
      </trkpt>
      <trkpt lat="47.18252" lon="6.14852">
        <ele>627.7</ele>
        <time>2022-08-10T08:58:25Z</time>
      </trkpt>
      <trkpt lat="47.1825" lon="6.14849">
        <ele>627.7</ele>
        <time>2022-08-10T08:58:26Z</time>
      </trkpt>
      <trkpt lat="47.18248" lon="6.14846">
        <ele>627.6</ele>
        <time>2022-08-10T08:58:27Z</time>
      </trkpt>
      <trkpt lat="47.18245" lon="6.14844">
        <ele>627.4</ele>
        <time>2022-08-10T08:58:28Z</time>
      </trkpt>
      <trkpt lat="47.18243" lon="6.14841">
        <ele>627.1</ele>
        <time>2022-08-10T08:58:29Z</time>
      </trkpt>
      <trkpt lat="47.18241" lon="6.14839">
        <ele>626.8</ele>
        <time>2022-08-10T08:58:30Z</time>
      </trkpt>
      <trkpt lat="47.18239" lon="6.14837">
        <ele>626.8</ele>
        <time>2022-08-10T08:58:31Z</time>
      </trkpt>
      <trkpt lat="47.18237" lon="6.14836">
        <ele>627</ele>
        <time>2022-08-10T08:58:32Z</time>
      </trkpt>
      <trkpt lat="47.18236" lon="6.14834">
        <ele>627.1</ele>
        <time>2022-08-10T08:58:33Z</time>
      </trkpt>
      <trkpt lat="47.18235" lon="6.14832">
        <ele>627.3</ele>
        <time>2022-08-10T08:58:34Z</time>
      </trkpt>
      <trkpt lat="47.18233" lon="6.14831">
        <ele>627.3</ele>
        <time>2022-08-10T08:58:35Z</time>
      </trkpt>
      <trkpt lat="47.18232" lon="6.1483">
        <ele>627.4</ele>
        <time>2022-08-10T08:58:36Z</time>
      </trkpt>
      <trkpt lat="47.18229" lon="6.14829">
        <ele>627.4</ele>
        <time>2022-08-10T08:58:37Z</time>
      </trkpt>
      <trkpt lat="47.18226" lon="6.14827">
        <ele>627.5</ele>
        <time>2022-08-10T08:58:38Z</time>
      </trkpt>
      <trkpt lat="47.18225" lon="6.14824">
        <ele>627.5</ele>
        <time>2022-08-10T08:58:39Z</time>
      </trkpt>
      <trkpt lat="47.18223" lon="6.14822">
        <ele>627.4</ele>
        <time>2022-08-10T08:58:40Z</time>
      </trkpt>
      <trkpt lat="47.18222" lon="6.1482">
        <ele>627.3</ele>
        <time>2022-08-10T08:58:41Z</time>
      </trkpt>
      <trkpt lat="47.1822" lon="6.14817">
        <ele>627.3</ele>
        <time>2022-08-10T08:58:42Z</time>
      </trkpt>
      <trkpt lat="47.18218" lon="6.14814">
        <ele>627.1</ele>
        <time>2022-08-10T08:58:43Z</time>
      </trkpt>
      <trkpt lat="47.18216" lon="6.14812">
        <ele>626.9</ele>
        <time>2022-08-10T08:58:44Z</time>
      </trkpt>
      <trkpt lat="47.18213" lon="6.14811">
        <ele>626.5</ele>
        <time>2022-08-10T08:58:45Z</time>
      </trkpt>
      <trkpt lat="47.18211" lon="6.14809">
        <ele>626.3</ele>
        <time>2022-08-10T08:58:46Z</time>
      </trkpt>
      <trkpt lat="47.18209" lon="6.14807">
        <ele>626</ele>
        <time>2022-08-10T08:58:47Z</time>
      </trkpt>
      <trkpt lat="47.18206" lon="6.14806">
        <ele>625.8</ele>
        <time>2022-08-10T08:58:48Z</time>
      </trkpt>
      <trkpt lat="47.18204" lon="6.14805">
        <ele>625.7</ele>
        <time>2022-08-10T08:58:49Z</time>
      </trkpt>
      <trkpt lat="47.18201" lon="6.14804">
        <ele>625.6</ele>
        <time>2022-08-10T08:58:50Z</time>
      </trkpt>
      <trkpt lat="47.182" lon="6.14802">
        <ele>625.5</ele>
        <time>2022-08-10T08:58:51Z</time>
      </trkpt>
      <trkpt lat="47.18198" lon="6.148">
        <ele>625.6</ele>
        <time>2022-08-10T08:58:52Z</time>
      </trkpt>
      <trkpt lat="47.18196" lon="6.14799">
        <ele>625.8</ele>
        <time>2022-08-10T08:58:53Z</time>
      </trkpt>
      <trkpt lat="47.18193" lon="6.14798">
        <ele>626.3</ele>
        <time>2022-08-10T08:58:54Z</time>
      </trkpt>
      <trkpt lat="47.1819" lon="6.14797">
        <ele>626.7</ele>
        <time>2022-08-10T08:58:55Z</time>
      </trkpt>
      <trkpt lat="47.18187" lon="6.14796">
        <ele>626.9</ele>
        <time>2022-08-10T08:58:56Z</time>
      </trkpt>
      <trkpt lat="47.18182" lon="6.14796">
        <ele>626.5</ele>
        <time>2022-08-10T08:58:57Z</time>
      </trkpt>
      <trkpt lat="47.1818" lon="6.14795">
        <ele>626.6</ele>
        <time>2022-08-10T08:58:58Z</time>
      </trkpt>
      <trkpt lat="47.18178" lon="6.14794">
        <ele>626.6</ele>
        <time>2022-08-10T08:58:59Z</time>
      </trkpt>
      <trkpt lat="47.18171" lon="6.14794">
        <ele>625.6</ele>
        <time>2022-08-10T08:59:00Z</time>
      </trkpt>
      <trkpt lat="47.18169" lon="6.14793">
        <ele>625.6</ele>
        <time>2022-08-10T08:59:01Z</time>
      </trkpt>
      <trkpt lat="47.18167" lon="6.14792">
        <ele>625.6</ele>
        <time>2022-08-10T08:59:02Z</time>
      </trkpt>
      <trkpt lat="47.18165" lon="6.14791">
        <ele>625.7</ele>
        <time>2022-08-10T08:59:03Z</time>
      </trkpt>
      <trkpt lat="47.18163" lon="6.14789">
        <ele>625.9</ele>
        <time>2022-08-10T08:59:04Z</time>
      </trkpt>
      <trkpt lat="47.1816" lon="6.14787">
        <ele>626.3</ele>
        <time>2022-08-10T08:59:05Z</time>
      </trkpt>
      <trkpt lat="47.18157" lon="6.14785">
        <ele>626.4</ele>
        <time>2022-08-10T08:59:06Z</time>
      </trkpt>
      <trkpt lat="47.18154" lon="6.14783">
        <ele>626.4</ele>
        <time>2022-08-10T08:59:07Z</time>
      </trkpt>
      <trkpt lat="47.18151" lon="6.14781">
        <ele>626.8</ele>
        <time>2022-08-10T08:59:08Z</time>
      </trkpt>
      <trkpt lat="47.18148" lon="6.14779">
        <ele>626.8</ele>
        <time>2022-08-10T08:59:09Z</time>
      </trkpt>
      <trkpt lat="47.18146" lon="6.14777">
        <ele>626.9</ele>
        <time>2022-08-10T08:59:10Z</time>
      </trkpt>
      <trkpt lat="47.18144" lon="6.14776">
        <ele>627.1</ele>
        <time>2022-08-10T08:59:11Z</time>
      </trkpt>
      <trkpt lat="47.18142" lon="6.14774">
        <ele>626.8</ele>
        <time>2022-08-10T08:59:12Z</time>
      </trkpt>
      <trkpt lat="47.18141" lon="6.14772">
        <ele>626.7</ele>
        <time>2022-08-10T08:59:13Z</time>
      </trkpt>
      <trkpt lat="47.18139" lon="6.14769">
        <ele>626.6</ele>
        <time>2022-08-10T08:59:14Z</time>
      </trkpt>
      <trkpt lat="47.18138" lon="6.14767">
        <ele>626.3</ele>
        <time>2022-08-10T08:59:15Z</time>
      </trkpt>
      <trkpt lat="47.18136" lon="6.14766">
        <ele>626</ele>
        <time>2022-08-10T08:59:16Z</time>
      </trkpt>
      <trkpt lat="47.18134" lon="6.14763">
        <ele>625.9</ele>
        <time>2022-08-10T08:59:17Z</time>
      </trkpt>
      <trkpt lat="47.18132" lon="6.14762">
        <ele>625.8</ele>
        <time>2022-08-10T08:59:18Z</time>
      </trkpt>
      <trkpt lat="47.18131" lon="6.1476">
        <ele>625.7</ele>
        <time>2022-08-10T08:59:19Z</time>
      </trkpt>
      <trkpt lat="47.18129" lon="6.14758">
        <ele>625.6</ele>
        <time>2022-08-10T08:59:20Z</time>
      </trkpt>
      <trkpt lat="47.18127" lon="6.14755">
        <ele>625.4</ele>
        <time>2022-08-10T08:59:21Z</time>
      </trkpt>
      <trkpt lat="47.18126" lon="6.14753">
        <ele>625.1</ele>
        <time>2022-08-10T08:59:22Z</time>
      </trkpt>
      <trkpt lat="47.18124" lon="6.1475">
        <ele>624.7</ele>
        <time>2022-08-10T08:59:23Z</time>
      </trkpt>
      <trkpt lat="47.18123" lon="6.14747">
        <ele>624.2</ele>
        <time>2022-08-10T08:59:24Z</time>
      </trkpt>
      <trkpt lat="47.18121" lon="6.14745">
        <ele>623.7</ele>
        <time>2022-08-10T08:59:25Z</time>
      </trkpt>
      <trkpt lat="47.18119" lon="6.14743">
        <ele>623.3</ele>
        <time>2022-08-10T08:59:26Z</time>
      </trkpt>
      <trkpt lat="47.18116" lon="6.14741">
        <ele>623</ele>
        <time>2022-08-10T08:59:27Z</time>
      </trkpt>
      <trkpt lat="47.18114" lon="6.14739">
        <ele>622.8</ele>
        <time>2022-08-10T08:59:28Z</time>
      </trkpt>
      <trkpt lat="47.18112" lon="6.14738">
        <ele>622.4</ele>
        <time>2022-08-10T08:59:29Z</time>
      </trkpt>
      <trkpt lat="47.18111" lon="6.14737">
        <ele>622.1</ele>
        <time>2022-08-10T08:59:30Z</time>
      </trkpt>
      <trkpt lat="47.18109" lon="6.14737">
        <ele>621.9</ele>
        <time>2022-08-10T08:59:31Z</time>
      </trkpt>
      <trkpt lat="47.18106" lon="6.14736">
        <ele>621.4</ele>
        <time>2022-08-10T08:59:32Z</time>
      </trkpt>
      <trkpt lat="47.18102" lon="6.14734">
        <ele>620.3</ele>
        <time>2022-08-10T08:59:33Z</time>
      </trkpt>
      <trkpt lat="47.18095" lon="6.14732">
        <ele>618.5</ele>
        <time>2022-08-10T08:59:35Z</time>
      </trkpt>
      <trkpt lat="47.1809" lon="6.14731">
        <ele>617.6</ele>
        <time>2022-08-10T08:59:36Z</time>
      </trkpt>
      <trkpt lat="47.18086" lon="6.1473">
        <ele>616.9</ele>
        <time>2022-08-10T08:59:37Z</time>
      </trkpt>
      <trkpt lat="47.18081" lon="6.1473">
        <ele>616</ele>
        <time>2022-08-10T08:59:38Z</time>
      </trkpt>
      <trkpt lat="47.18077" lon="6.1473">
        <ele>615.6</ele>
        <time>2022-08-10T08:59:39Z</time>
      </trkpt>
      <trkpt lat="47.18073" lon="6.1473">
        <ele>615.4</ele>
        <time>2022-08-10T08:59:40Z</time>
      </trkpt>
      <trkpt lat="47.18071" lon="6.14729">
        <ele>615</ele>
        <time>2022-08-10T08:59:41Z</time>
      </trkpt>
      <trkpt lat="47.18068" lon="6.14728">
        <ele>614.3</ele>
        <time>2022-08-10T08:59:42Z</time>
      </trkpt>
      <trkpt lat="47.18066" lon="6.14728">
        <ele>613.8</ele>
        <time>2022-08-10T08:59:43Z</time>
      </trkpt>
      <trkpt lat="47.18063" lon="6.14727">
        <ele>613</ele>
        <time>2022-08-10T08:59:44Z</time>
      </trkpt>
      <trkpt lat="47.18061" lon="6.14727">
        <ele>612.4</ele>
        <time>2022-08-10T08:59:45Z</time>
      </trkpt>
      <trkpt lat="47.18058" lon="6.14726">
        <ele>611.7</ele>
        <time>2022-08-10T08:59:46Z</time>
      </trkpt>
      <trkpt lat="47.18055" lon="6.14726">
        <ele>611.5</ele>
        <time>2022-08-10T08:59:47Z</time>
      </trkpt>
      <trkpt lat="47.18053" lon="6.14726">
        <ele>611.2</ele>
        <time>2022-08-10T08:59:48Z</time>
      </trkpt>
      <trkpt lat="47.1805" lon="6.14725">
        <ele>610.9</ele>
        <time>2022-08-10T08:59:49Z</time>
      </trkpt>
      <trkpt lat="47.18048" lon="6.14724">
        <ele>610.3</ele>
        <time>2022-08-10T08:59:50Z</time>
      </trkpt>
      <trkpt lat="47.18044" lon="6.14724">
        <ele>610</ele>
        <time>2022-08-10T08:59:51Z</time>
      </trkpt>
      <trkpt lat="47.18041" lon="6.14723">
        <ele>609.6</ele>
        <time>2022-08-10T08:59:52Z</time>
      </trkpt>
      <trkpt lat="47.18038" lon="6.14723">
        <ele>609.4</ele>
        <time>2022-08-10T08:59:53Z</time>
      </trkpt>
      <trkpt lat="47.18036" lon="6.14722">
        <ele>609.3</ele>
        <time>2022-08-10T08:59:54Z</time>
      </trkpt>
      <trkpt lat="47.18034" lon="6.14721">
        <ele>609</ele>
        <time>2022-08-10T08:59:55Z</time>
      </trkpt>
      <trkpt lat="47.18032" lon="6.1472">
        <ele>609.1</ele>
        <time>2022-08-10T08:59:56Z</time>
      </trkpt>
      <trkpt lat="47.1803" lon="6.1472">
        <ele>608.8</ele>
        <time>2022-08-10T08:59:57Z</time>
      </trkpt>
      <trkpt lat="47.18028" lon="6.1472">
        <ele>608.7</ele>
        <time>2022-08-10T08:59:58Z</time>
      </trkpt>
      <trkpt lat="47.18025" lon="6.1472">
        <ele>608.6</ele>
        <time>2022-08-10T08:59:59Z</time>
      </trkpt>
      <trkpt lat="47.18023" lon="6.14719">
        <ele>608.5</ele>
        <time>2022-08-10T09:00:00Z</time>
      </trkpt>
      <trkpt lat="47.18021" lon="6.14718">
        <ele>608.4</ele>
        <time>2022-08-10T09:00:01Z</time>
      </trkpt>
      <trkpt lat="47.18019" lon="6.14717">
        <ele>608.3</ele>
        <time>2022-08-10T09:00:02Z</time>
      </trkpt>
      <trkpt lat="47.18017" lon="6.14716">
        <ele>608.1</ele>
        <time>2022-08-10T09:00:03Z</time>
      </trkpt>
      <trkpt lat="47.18015" lon="6.14715">
        <ele>607.9</ele>
        <time>2022-08-10T09:00:04Z</time>
      </trkpt>
      <trkpt lat="47.18014" lon="6.14714">
        <ele>608.1</ele>
        <time>2022-08-10T09:00:05Z</time>
      </trkpt>
      <trkpt lat="47.18013" lon="6.14713">
        <ele>608.1</ele>
        <time>2022-08-10T09:00:06Z</time>
      </trkpt>
      <trkpt lat="47.18012" lon="6.14712">
        <ele>608.2</ele>
        <time>2022-08-10T09:00:07Z</time>
      </trkpt>
      <trkpt lat="47.1801" lon="6.14712">
        <ele>608.3</ele>
        <time>2022-08-10T09:00:08Z</time>
      </trkpt>
      <trkpt lat="47.1801" lon="6.14712">
        <ele>608.3</ele>
        <time>2022-08-10T09:00:09Z</time>
      </trkpt>
      <trkpt lat="47.1801" lon="6.14712">
        <ele>608.3</ele>
        <time>2022-08-10T09:00:10Z</time>
      </trkpt>
      <trkpt lat="47.18005" lon="6.14708">
        <ele>608.8</ele>
        <time>2022-08-10T09:00:11Z</time>
      </trkpt>
      <trkpt lat="47.18003" lon="6.14707">
        <ele>609</ele>
        <time>2022-08-10T09:00:12Z</time>
      </trkpt>
      <trkpt lat="47.18001" lon="6.14705">
        <ele>608.9</ele>
        <time>2022-08-10T09:00:13Z</time>
      </trkpt>
      <trkpt lat="47.17998" lon="6.14704">
        <ele>608.7</ele>
        <time>2022-08-10T09:00:14Z</time>
      </trkpt>
      <trkpt lat="47.17996" lon="6.14702">
        <ele>608.4</ele>
        <time>2022-08-10T09:00:15Z</time>
      </trkpt>
      <trkpt lat="47.17994" lon="6.14701">
        <ele>608.1</ele>
        <time>2022-08-10T09:00:16Z</time>
      </trkpt>
      <trkpt lat="47.17992" lon="6.147">
        <ele>607.7</ele>
        <time>2022-08-10T09:00:17Z</time>
      </trkpt>
      <trkpt lat="47.17991" lon="6.14699">
        <ele>607.6</ele>
        <time>2022-08-10T09:00:18Z</time>
      </trkpt>
      <trkpt lat="47.17988" lon="6.14697">
        <ele>607.1</ele>
        <time>2022-08-10T09:00:19Z</time>
      </trkpt>
      <trkpt lat="47.17986" lon="6.14695">
        <ele>606.8</ele>
        <time>2022-08-10T09:00:20Z</time>
      </trkpt>
      <trkpt lat="47.17984" lon="6.14693">
        <ele>606.2</ele>
        <time>2022-08-10T09:00:21Z</time>
      </trkpt>
      <trkpt lat="47.17982" lon="6.14691">
        <ele>605.7</ele>
        <time>2022-08-10T09:00:22Z</time>
      </trkpt>
      <trkpt lat="47.17979" lon="6.14688">
        <ele>605.2</ele>
        <time>2022-08-10T09:00:23Z</time>
      </trkpt>
      <trkpt lat="47.17977" lon="6.14686">
        <ele>604.4</ele>
        <time>2022-08-10T09:00:24Z</time>
      </trkpt>
      <trkpt lat="47.17974" lon="6.14683">
        <ele>603.8</ele>
        <time>2022-08-10T09:00:25Z</time>
      </trkpt>
      <trkpt lat="47.17972" lon="6.14681">
        <ele>603</ele>
        <time>2022-08-10T09:00:26Z</time>
      </trkpt>
      <trkpt lat="47.17969" lon="6.14679">
        <ele>602.3</ele>
        <time>2022-08-10T09:00:27Z</time>
      </trkpt>
      <trkpt lat="47.17967" lon="6.14676">
        <ele>601.6</ele>
        <time>2022-08-10T09:00:28Z</time>
      </trkpt>
      <trkpt lat="47.17965" lon="6.14675">
        <ele>600.8</ele>
        <time>2022-08-10T09:00:29Z</time>
      </trkpt>
      <trkpt lat="47.17963" lon="6.14673">
        <ele>600.1</ele>
        <time>2022-08-10T09:00:30Z</time>
      </trkpt>
      <trkpt lat="47.1796" lon="6.14672">
        <ele>599.3</ele>
        <time>2022-08-10T09:00:31Z</time>
      </trkpt>
      <trkpt lat="47.17958" lon="6.1467">
        <ele>598.7</ele>
        <time>2022-08-10T09:00:32Z</time>
      </trkpt>
      <trkpt lat="47.17956" lon="6.14669">
        <ele>598.2</ele>
        <time>2022-08-10T09:00:33Z</time>
      </trkpt>
      <trkpt lat="47.17954" lon="6.14667">
        <ele>597.4</ele>
        <time>2022-08-10T09:00:34Z</time>
      </trkpt>
      <trkpt lat="47.17951" lon="6.14665">
        <ele>596.4</ele>
        <time>2022-08-10T09:00:35Z</time>
      </trkpt>
      <trkpt lat="47.17949" lon="6.14662">
        <ele>595.7</ele>
        <time>2022-08-10T09:00:36Z</time>
      </trkpt>
      <trkpt lat="47.17946" lon="6.1466">
        <ele>595</ele>
        <time>2022-08-10T09:00:37Z</time>
      </trkpt>
      <trkpt lat="47.17944" lon="6.14657">
        <ele>594.8</ele>
        <time>2022-08-10T09:00:38Z</time>
      </trkpt>
      <trkpt lat="47.17942" lon="6.14655">
        <ele>594.5</ele>
        <time>2022-08-10T09:00:39Z</time>
      </trkpt>
      <trkpt lat="47.17939" lon="6.14654">
        <ele>594</ele>
        <time>2022-08-10T09:00:40Z</time>
      </trkpt>
      <trkpt lat="47.17938" lon="6.14652">
        <ele>594</ele>
        <time>2022-08-10T09:00:41Z</time>
      </trkpt>
      <trkpt lat="47.17936" lon="6.14649">
        <ele>593.7</ele>
        <time>2022-08-10T09:00:42Z</time>
      </trkpt>
      <trkpt lat="47.17934" lon="6.14647">
        <ele>593.5</ele>
        <time>2022-08-10T09:00:43Z</time>
      </trkpt>
      <trkpt lat="47.17933" lon="6.14645">
        <ele>593.3</ele>
        <time>2022-08-10T09:00:44Z</time>
      </trkpt>
      <trkpt lat="47.17931" lon="6.14643">
        <ele>593</ele>
        <time>2022-08-10T09:00:45Z</time>
      </trkpt>
      <trkpt lat="47.1793" lon="6.14641">
        <ele>592.8</ele>
        <time>2022-08-10T09:00:46Z</time>
      </trkpt>
      <trkpt lat="47.17928" lon="6.1464">
        <ele>592.7</ele>
        <time>2022-08-10T09:00:47Z</time>
      </trkpt>
      <trkpt lat="47.17927" lon="6.14639">
        <ele>592.2</ele>
        <time>2022-08-10T09:00:48Z</time>
      </trkpt>
      <trkpt lat="47.17926" lon="6.14637">
        <ele>591.8</ele>
        <time>2022-08-10T09:00:49Z</time>
      </trkpt>
      <trkpt lat="47.17925" lon="6.14636">
        <ele>591.3</ele>
        <time>2022-08-10T09:00:50Z</time>
      </trkpt>
      <trkpt lat="47.17925" lon="6.14635">
        <ele>591.2</ele>
        <time>2022-08-10T09:00:51Z</time>
      </trkpt>
      <trkpt lat="47.17924" lon="6.14634">
        <ele>591.1</ele>
        <time>2022-08-10T09:00:52Z</time>
      </trkpt>
      <trkpt lat="47.17924" lon="6.14634">
        <ele>591.1</ele>
        <time>2022-08-10T09:00:53Z</time>
      </trkpt>
      <trkpt lat="47.17924" lon="6.14634">
        <ele>591.1</ele>
        <time>2022-08-10T09:00:54Z</time>
      </trkpt>
      <trkpt lat="47.17924" lon="6.14634">
        <ele>591.1</ele>
        <time>2022-08-10T09:00:55Z</time>
      </trkpt>
      <trkpt lat="47.17924" lon="6.14634">
        <ele>591.1</ele>
        <time>2022-08-10T09:00:56Z</time>
      </trkpt>
      <trkpt lat="47.17919" lon="6.14628">
        <ele>590</ele>
        <time>2022-08-10T09:00:57Z</time>
      </trkpt>
      <trkpt lat="47.17917" lon="6.14627">
        <ele>589.4</ele>
        <time>2022-08-10T09:00:58Z</time>
      </trkpt>
      <trkpt lat="47.17916" lon="6.14625">
        <ele>588.8</ele>
        <time>2022-08-10T09:00:59Z</time>
      </trkpt>
      <trkpt lat="47.17914" lon="6.14623">
        <ele>588.3</ele>
        <time>2022-08-10T09:01:00Z</time>
      </trkpt>
      <trkpt lat="47.17913" lon="6.14621">
        <ele>587.6</ele>
        <time>2022-08-10T09:01:01Z</time>
      </trkpt>
      <trkpt lat="47.17911" lon="6.14619">
        <ele>587</ele>
        <time>2022-08-10T09:01:02Z</time>
      </trkpt>
      <trkpt lat="47.1791" lon="6.14617">
        <ele>586.6</ele>
        <time>2022-08-10T09:01:03Z</time>
      </trkpt>
      <trkpt lat="47.17909" lon="6.14615">
        <ele>586.3</ele>
        <time>2022-08-10T09:01:04Z</time>
      </trkpt>
      <trkpt lat="47.17908" lon="6.14614">
        <ele>585.9</ele>
        <time>2022-08-10T09:01:05Z</time>
      </trkpt>
      <trkpt lat="47.17907" lon="6.14613">
        <ele>585.7</ele>
        <time>2022-08-10T09:01:06Z</time>
      </trkpt>
      <trkpt lat="47.17906" lon="6.14611">
        <ele>585</ele>
        <time>2022-08-10T09:01:07Z</time>
      </trkpt>
      <trkpt lat="47.17904" lon="6.1461">
        <ele>584.6</ele>
        <time>2022-08-10T09:01:08Z</time>
      </trkpt>
      <trkpt lat="47.17903" lon="6.14609">
        <ele>584.2</ele>
        <time>2022-08-10T09:01:09Z</time>
      </trkpt>
      <trkpt lat="47.17901" lon="6.14607">
        <ele>583.6</ele>
        <time>2022-08-10T09:01:10Z</time>
      </trkpt>
      <trkpt lat="47.17899" lon="6.14606">
        <ele>582.4</ele>
        <time>2022-08-10T09:01:11Z</time>
      </trkpt>
      <trkpt lat="47.17898" lon="6.14604">
        <ele>581.8</ele>
        <time>2022-08-10T09:01:12Z</time>
      </trkpt>
      <trkpt lat="47.17897" lon="6.14603">
        <ele>581.1</ele>
        <time>2022-08-10T09:01:13Z</time>
      </trkpt>
      <trkpt lat="47.17896" lon="6.14602">
        <ele>580.7</ele>
        <time>2022-08-10T09:01:14Z</time>
      </trkpt>
      <trkpt lat="47.17893" lon="6.14601">
        <ele>580.1</ele>
        <time>2022-08-10T09:01:15Z</time>
      </trkpt>
      <trkpt lat="47.1789" lon="6.14599">
        <ele>579.6</ele>
        <time>2022-08-10T09:01:16Z</time>
      </trkpt>
      <trkpt lat="47.17887" lon="6.14598">
        <ele>578.8</ele>
        <time>2022-08-10T09:01:17Z</time>
      </trkpt>
      <trkpt lat="47.17884" lon="6.14596">
        <ele>578.1</ele>
        <time>2022-08-10T09:01:18Z</time>
      </trkpt>
      <trkpt lat="47.17881" lon="6.14595">
        <ele>577.6</ele>
        <time>2022-08-10T09:01:19Z</time>
      </trkpt>
      <trkpt lat="47.17879" lon="6.14593">
        <ele>576.6</ele>
        <time>2022-08-10T09:01:20Z</time>
      </trkpt>
      <trkpt lat="47.17877" lon="6.14592">
        <ele>576.1</ele>
        <time>2022-08-10T09:01:21Z</time>
      </trkpt>
      <trkpt lat="47.17875" lon="6.14591">
        <ele>575.8</ele>
        <time>2022-08-10T09:01:22Z</time>
      </trkpt>
      <trkpt lat="47.17873" lon="6.1459">
        <ele>575.4</ele>
        <time>2022-08-10T09:01:23Z</time>
      </trkpt>
      <trkpt lat="47.1787" lon="6.14589">
        <ele>574.6</ele>
        <time>2022-08-10T09:01:24Z</time>
      </trkpt>
      <trkpt lat="47.17868" lon="6.14587">
        <ele>574</ele>
        <time>2022-08-10T09:01:25Z</time>
      </trkpt>
      <trkpt lat="47.17865" lon="6.14586">
        <ele>572.6</ele>
        <time>2022-08-10T09:01:26Z</time>
      </trkpt>
      <trkpt lat="47.17864" lon="6.14585">
        <ele>572</ele>
        <time>2022-08-10T09:01:27Z</time>
      </trkpt>
      <trkpt lat="47.17861" lon="6.14582">
        <ele>571.7</ele>
        <time>2022-08-10T09:01:28Z</time>
      </trkpt>
      <trkpt lat="47.17859" lon="6.14579">
        <ele>570.5</ele>
        <time>2022-08-10T09:01:29Z</time>
      </trkpt>
      <trkpt lat="47.17856" lon="6.14576">
        <ele>569.7</ele>
        <time>2022-08-10T09:01:30Z</time>
      </trkpt>
      <trkpt lat="47.17853" lon="6.14574">
        <ele>568.5</ele>
        <time>2022-08-10T09:01:31Z</time>
      </trkpt>
      <trkpt lat="47.1785" lon="6.14572">
        <ele>567.3</ele>
        <time>2022-08-10T09:01:32Z</time>
      </trkpt>
      <trkpt lat="47.17848" lon="6.14569">
        <ele>567.3</ele>
        <time>2022-08-10T09:01:33Z</time>
      </trkpt>
      <trkpt lat="47.17845" lon="6.14566">
        <ele>567.2</ele>
        <time>2022-08-10T09:01:34Z</time>
      </trkpt>
      <trkpt lat="47.17843" lon="6.14564">
        <ele>567.1</ele>
        <time>2022-08-10T09:01:35Z</time>
      </trkpt>
      <trkpt lat="47.1784" lon="6.14563">
        <ele>567.2</ele>
        <time>2022-08-10T09:01:36Z</time>
      </trkpt>
      <trkpt lat="47.17838" lon="6.1456">
        <ele>567</ele>
        <time>2022-08-10T09:01:37Z</time>
      </trkpt>
      <trkpt lat="47.17836" lon="6.14558">
        <ele>566.8</ele>
        <time>2022-08-10T09:01:38Z</time>
      </trkpt>
      <trkpt lat="47.17834" lon="6.14556">
        <ele>566.7</ele>
        <time>2022-08-10T09:01:39Z</time>
      </trkpt>
      <trkpt lat="47.17831" lon="6.14554">
        <ele>566.8</ele>
        <time>2022-08-10T09:01:40Z</time>
      </trkpt>
      <trkpt lat="47.17828" lon="6.14552">
        <ele>566.4</ele>
        <time>2022-08-10T09:01:41Z</time>
      </trkpt>
      <trkpt lat="47.17825" lon="6.1455">
        <ele>566.1</ele>
        <time>2022-08-10T09:01:42Z</time>
      </trkpt>
      <trkpt lat="47.17822" lon="6.14547">
        <ele>566</ele>
        <time>2022-08-10T09:01:43Z</time>
      </trkpt>
      <trkpt lat="47.17819" lon="6.14544">
        <ele>565.7</ele>
        <time>2022-08-10T09:01:44Z</time>
      </trkpt>
      <trkpt lat="47.17816" lon="6.14541">
        <ele>565.2</ele>
        <time>2022-08-10T09:01:45Z</time>
      </trkpt>
      <trkpt lat="47.17814" lon="6.14539">
        <ele>564.9</ele>
        <time>2022-08-10T09:01:46Z</time>
      </trkpt>
      <trkpt lat="47.17813" lon="6.14536">
        <ele>564.8</ele>
        <time>2022-08-10T09:01:47Z</time>
      </trkpt>
      <trkpt lat="47.1781" lon="6.14534">
        <ele>564.8</ele>
        <time>2022-08-10T09:01:48Z</time>
      </trkpt>
      <trkpt lat="47.17808" lon="6.14531">
        <ele>564.2</ele>
        <time>2022-08-10T09:01:49Z</time>
      </trkpt>
      <trkpt lat="47.17805" lon="6.14529">
        <ele>564</ele>
        <time>2022-08-10T09:01:50Z</time>
      </trkpt>
      <trkpt lat="47.17803" lon="6.14526">
        <ele>563.3</ele>
        <time>2022-08-10T09:01:51Z</time>
      </trkpt>
      <trkpt lat="47.178" lon="6.14524">
        <ele>562.9</ele>
        <time>2022-08-10T09:01:52Z</time>
      </trkpt>
      <trkpt lat="47.17798" lon="6.14522">
        <ele>562.5</ele>
        <time>2022-08-10T09:01:53Z</time>
      </trkpt>
      <trkpt lat="47.17796" lon="6.14521">
        <ele>561.7</ele>
        <time>2022-08-10T09:01:54Z</time>
      </trkpt>
      <trkpt lat="47.17794" lon="6.1452">
        <ele>561.3</ele>
        <time>2022-08-10T09:01:55Z</time>
      </trkpt>
      <trkpt lat="47.17792" lon="6.14518">
        <ele>560.9</ele>
        <time>2022-08-10T09:01:56Z</time>
      </trkpt>
      <trkpt lat="47.1779" lon="6.14516">
        <ele>560.5</ele>
        <time>2022-08-10T09:01:57Z</time>
      </trkpt>
      <trkpt lat="47.17789" lon="6.14514">
        <ele>560.1</ele>
        <time>2022-08-10T09:01:58Z</time>
      </trkpt>
      <trkpt lat="47.17788" lon="6.14511">
        <ele>559.6</ele>
        <time>2022-08-10T09:01:59Z</time>
      </trkpt>
      <trkpt lat="47.17786" lon="6.14508">
        <ele>559.3</ele>
        <time>2022-08-10T09:02:00Z</time>
      </trkpt>
      <trkpt lat="47.17784" lon="6.14506">
        <ele>559.1</ele>
        <time>2022-08-10T09:02:01Z</time>
      </trkpt>
      <trkpt lat="47.17783" lon="6.14503">
        <ele>558.6</ele>
        <time>2022-08-10T09:02:02Z</time>
      </trkpt>
      <trkpt lat="47.17781" lon="6.145">
        <ele>558.2</ele>
        <time>2022-08-10T09:02:03Z</time>
      </trkpt>
      <trkpt lat="47.1778" lon="6.14497">
        <ele>558.2</ele>
        <time>2022-08-10T09:02:04Z</time>
      </trkpt>
      <trkpt lat="47.17778" lon="6.14495">
        <ele>558.2</ele>
        <time>2022-08-10T09:02:05Z</time>
      </trkpt>
      <trkpt lat="47.17776" lon="6.14493">
        <ele>558.3</ele>
        <time>2022-08-10T09:02:06Z</time>
      </trkpt>
      <trkpt lat="47.17774" lon="6.1449">
        <ele>558.3</ele>
        <time>2022-08-10T09:02:07Z</time>
      </trkpt>
      <trkpt lat="47.17771" lon="6.14488">
        <ele>558.2</ele>
        <time>2022-08-10T09:02:08Z</time>
      </trkpt>
      <trkpt lat="47.17769" lon="6.14486">
        <ele>558.2</ele>
        <time>2022-08-10T09:02:09Z</time>
      </trkpt>
      <trkpt lat="47.17767" lon="6.14484">
        <ele>558.6</ele>
        <time>2022-08-10T09:02:10Z</time>
      </trkpt>
      <trkpt lat="47.17765" lon="6.14482">
        <ele>558.7</ele>
        <time>2022-08-10T09:02:11Z</time>
      </trkpt>
      <trkpt lat="47.17763" lon="6.14479">
        <ele>558.7</ele>
        <time>2022-08-10T09:02:12Z</time>
      </trkpt>
      <trkpt lat="47.17761" lon="6.14477">
        <ele>558.8</ele>
        <time>2022-08-10T09:02:13Z</time>
      </trkpt>
      <trkpt lat="47.17759" lon="6.14474">
        <ele>558.8</ele>
        <time>2022-08-10T09:02:14Z</time>
      </trkpt>
      <trkpt lat="47.17756" lon="6.14472">
        <ele>559.2</ele>
        <time>2022-08-10T09:02:15Z</time>
      </trkpt>
      <trkpt lat="47.17754" lon="6.14469">
        <ele>559.8</ele>
        <time>2022-08-10T09:02:16Z</time>
      </trkpt>
      <trkpt lat="47.17752" lon="6.14466">
        <ele>560.1</ele>
        <time>2022-08-10T09:02:17Z</time>
      </trkpt>
      <trkpt lat="47.17749" lon="6.14463">
        <ele>560</ele>
        <time>2022-08-10T09:02:18Z</time>
      </trkpt>
      <trkpt lat="47.17747" lon="6.1446">
        <ele>559.6</ele>
        <time>2022-08-10T09:02:19Z</time>
      </trkpt>
      <trkpt lat="47.17745" lon="6.14456">
        <ele>559.3</ele>
        <time>2022-08-10T09:02:20Z</time>
      </trkpt>
      <trkpt lat="47.17743" lon="6.14452">
        <ele>559.2</ele>
        <time>2022-08-10T09:02:21Z</time>
      </trkpt>
      <trkpt lat="47.17741" lon="6.14449">
        <ele>559.2</ele>
        <time>2022-08-10T09:02:22Z</time>
      </trkpt>
      <trkpt lat="47.17739" lon="6.14445">
        <ele>559.2</ele>
        <time>2022-08-10T09:02:23Z</time>
      </trkpt>
      <trkpt lat="47.17736" lon="6.14443">
        <ele>559.5</ele>
        <time>2022-08-10T09:02:24Z</time>
      </trkpt>
      <trkpt lat="47.17734" lon="6.1444">
        <ele>559.9</ele>
        <time>2022-08-10T09:02:25Z</time>
      </trkpt>
      <trkpt lat="47.17732" lon="6.14437">
        <ele>559.9</ele>
        <time>2022-08-10T09:02:26Z</time>
      </trkpt>
      <trkpt lat="47.1773" lon="6.14433">
        <ele>560.3</ele>
        <time>2022-08-10T09:02:27Z</time>
      </trkpt>
      <trkpt lat="47.17728" lon="6.1443">
        <ele>560.5</ele>
        <time>2022-08-10T09:02:28Z</time>
      </trkpt>
      <trkpt lat="47.17726" lon="6.14426">
        <ele>560.6</ele>
        <time>2022-08-10T09:02:29Z</time>
      </trkpt>
      <trkpt lat="47.17725" lon="6.14423">
        <ele>560.4</ele>
        <time>2022-08-10T09:02:30Z</time>
      </trkpt>
      <trkpt lat="47.17723" lon="6.14419">
        <ele>560.2</ele>
        <time>2022-08-10T09:02:31Z</time>
      </trkpt>
      <trkpt lat="47.17722" lon="6.14415">
        <ele>560.5</ele>
        <time>2022-08-10T09:02:32Z</time>
      </trkpt>
      <trkpt lat="47.1772" lon="6.14411">
        <ele>560.4</ele>
        <time>2022-08-10T09:02:33Z</time>
      </trkpt>
      <trkpt lat="47.17719" lon="6.14409">
        <ele>560.1</ele>
        <time>2022-08-10T09:02:34Z</time>
      </trkpt>
      <trkpt lat="47.17718" lon="6.14407">
        <ele>560</ele>
        <time>2022-08-10T09:02:35Z</time>
      </trkpt>
      <trkpt lat="47.17716" lon="6.14405">
        <ele>559.7</ele>
        <time>2022-08-10T09:02:36Z</time>
      </trkpt>
      <trkpt lat="47.17715" lon="6.14402">
        <ele>559.4</ele>
        <time>2022-08-10T09:02:37Z</time>
      </trkpt>
      <trkpt lat="47.17714" lon="6.144">
        <ele>559.1</ele>
        <time>2022-08-10T09:02:38Z</time>
      </trkpt>
      <trkpt lat="47.17712" lon="6.14397">
        <ele>558.8</ele>
        <time>2022-08-10T09:02:39Z</time>
      </trkpt>
      <trkpt lat="47.17711" lon="6.14395">
        <ele>558.8</ele>
        <time>2022-08-10T09:02:40Z</time>
      </trkpt>
      <trkpt lat="47.1771" lon="6.14392">
        <ele>559</ele>
        <time>2022-08-10T09:02:41Z</time>
      </trkpt>
      <trkpt lat="47.17709" lon="6.1439">
        <ele>559</ele>
        <time>2022-08-10T09:02:42Z</time>
      </trkpt>
      <trkpt lat="47.17708" lon="6.14388">
        <ele>559</ele>
        <time>2022-08-10T09:02:43Z</time>
      </trkpt>
      <trkpt lat="47.17707" lon="6.14386">
        <ele>559.1</ele>
        <time>2022-08-10T09:02:44Z</time>
      </trkpt>
      <trkpt lat="47.17706" lon="6.14385">
        <ele>559.2</ele>
        <time>2022-08-10T09:02:45Z</time>
      </trkpt>
      <trkpt lat="47.17706" lon="6.14384">
        <ele>559.4</ele>
        <time>2022-08-10T09:02:46Z</time>
      </trkpt>
      <trkpt lat="47.17706" lon="6.14384">
        <ele>559.4</ele>
        <time>2022-08-10T09:02:47Z</time>
      </trkpt>
      <trkpt lat="47.17706" lon="6.14384">
        <ele>559.4</ele>
        <time>2022-08-10T09:02:48Z</time>
      </trkpt>
      <trkpt lat="47.17704" lon="6.14378">
        <ele>560</ele>
        <time>2022-08-10T09:02:49Z</time>
      </trkpt>
      <trkpt lat="47.17702" lon="6.14375">
        <ele>560.4</ele>
        <time>2022-08-10T09:02:50Z</time>
      </trkpt>
      <trkpt lat="47.177" lon="6.14373">
        <ele>560.5</ele>
        <time>2022-08-10T09:02:51Z</time>
      </trkpt>
      <trkpt lat="47.17698" lon="6.1437">
        <ele>560.6</ele>
        <time>2022-08-10T09:02:52Z</time>
      </trkpt>
      <trkpt lat="47.17696" lon="6.14368">
        <ele>560.9</ele>
        <time>2022-08-10T09:02:53Z</time>
      </trkpt>
      <trkpt lat="47.17695" lon="6.14366">
        <ele>561.3</ele>
        <time>2022-08-10T09:02:54Z</time>
      </trkpt>
      <trkpt lat="47.17693" lon="6.14364">
        <ele>561.8</ele>
        <time>2022-08-10T09:02:55Z</time>
      </trkpt>
      <trkpt lat="47.17692" lon="6.14362">
        <ele>562.1</ele>
        <time>2022-08-10T09:02:56Z</time>
      </trkpt>
      <trkpt lat="47.17691" lon="6.14361">
        <ele>562.5</ele>
        <time>2022-08-10T09:02:57Z</time>
      </trkpt>
      <trkpt lat="47.17689" lon="6.1436">
        <ele>563</ele>
        <time>2022-08-10T09:02:58Z</time>
      </trkpt>
      <trkpt lat="47.17688" lon="6.14359">
        <ele>563.3</ele>
        <time>2022-08-10T09:02:59Z</time>
      </trkpt>
      <trkpt lat="47.17686" lon="6.14358">
        <ele>563.9</ele>
        <time>2022-08-10T09:03:00Z</time>
      </trkpt>
      <trkpt lat="47.17685" lon="6.14356">
        <ele>564.4</ele>
        <time>2022-08-10T09:03:01Z</time>
      </trkpt>
      <trkpt lat="47.17683" lon="6.14355">
        <ele>565.1</ele>
        <time>2022-08-10T09:03:02Z</time>
      </trkpt>
      <trkpt lat="47.17682" lon="6.14355">
        <ele>565.5</ele>
        <time>2022-08-10T09:03:03Z</time>
      </trkpt>
      <trkpt lat="47.1768" lon="6.14353">
        <ele>566</ele>
        <time>2022-08-10T09:03:04Z</time>
      </trkpt>
      <trkpt lat="47.1768" lon="6.14352">
        <ele>566.4</ele>
        <time>2022-08-10T09:03:05Z</time>
      </trkpt>
      <trkpt lat="47.17679" lon="6.1435">
        <ele>567</ele>
        <time>2022-08-10T09:03:06Z</time>
      </trkpt>
      <trkpt lat="47.17678" lon="6.14349">
        <ele>567.4</ele>
        <time>2022-08-10T09:03:07Z</time>
      </trkpt>
      <trkpt lat="47.17677" lon="6.14348">
        <ele>567.7</ele>
        <time>2022-08-10T09:03:08Z</time>
      </trkpt>
      <trkpt lat="47.17677" lon="6.14348">
        <ele>567.7</ele>
        <time>2022-08-10T09:03:09Z</time>
      </trkpt>
      <trkpt lat="47.17674" lon="6.14344">
        <ele>568.4</ele>
        <time>2022-08-10T09:03:10Z</time>
      </trkpt>
      <trkpt lat="47.17671" lon="6.14341">
        <ele>569</ele>
        <time>2022-08-10T09:03:11Z</time>
      </trkpt>
      <trkpt lat="47.17668" lon="6.14338">
        <ele>569.5</ele>
        <time>2022-08-10T09:03:12Z</time>
      </trkpt>
      <trkpt lat="47.17666" lon="6.14335">
        <ele>569.9</ele>
        <time>2022-08-10T09:03:13Z</time>
      </trkpt>
      <trkpt lat="47.17664" lon="6.14332">
        <ele>570.2</ele>
        <time>2022-08-10T09:03:14Z</time>
      </trkpt>
      <trkpt lat="47.17663" lon="6.14329">
        <ele>570.6</ele>
        <time>2022-08-10T09:03:15Z</time>
      </trkpt>
      <trkpt lat="47.17661" lon="6.14327">
        <ele>570.9</ele>
        <time>2022-08-10T09:03:16Z</time>
      </trkpt>
      <trkpt lat="47.1766" lon="6.14325">
        <ele>571.2</ele>
        <time>2022-08-10T09:03:17Z</time>
      </trkpt>
      <trkpt lat="47.17659" lon="6.14324">
        <ele>571.5</ele>
        <time>2022-08-10T09:03:18Z</time>
      </trkpt>
      <trkpt lat="47.17659" lon="6.14324">
        <ele>571.5</ele>
        <time>2022-08-10T09:03:19Z</time>
      </trkpt>
      <trkpt lat="47.17659" lon="6.14324">
        <ele>571.5</ele>
        <time>2022-08-10T09:03:20Z</time>
      </trkpt>
      <trkpt lat="47.17659" lon="6.14324">
        <ele>571.5</ele>
        <time>2022-08-10T09:03:21Z</time>
      </trkpt>
      <trkpt lat="47.17659" lon="6.14324">
        <ele>571.5</ele>
        <time>2022-08-10T09:03:22Z</time>
      </trkpt>
      <trkpt lat="47.17659" lon="6.14324">
        <ele>571.5</ele>
        <time>2022-08-10T09:03:23Z</time>
      </trkpt>
      <trkpt lat="47.17659" lon="6.14324">
        <ele>571.5</ele>
        <time>2022-08-10T09:03:24Z</time>
      </trkpt>
      <trkpt lat="47.17651" lon="6.14313">
        <ele>573.4</ele>
        <time>2022-08-10T09:03:25Z</time>
      </trkpt>
      <trkpt lat="47.17649" lon="6.14311">
        <ele>573.6</ele>
        <time>2022-08-10T09:03:26Z</time>
      </trkpt>
      <trkpt lat="47.17648" lon="6.14309">
        <ele>573.8</ele>
        <time>2022-08-10T09:03:27Z</time>
      </trkpt>
      <trkpt lat="47.17646" lon="6.14307">
        <ele>573.5</ele>
        <time>2022-08-10T09:03:28Z</time>
      </trkpt>
      <trkpt lat="47.17644" lon="6.14304">
        <ele>573.6</ele>
        <time>2022-08-10T09:03:29Z</time>
      </trkpt>
      <trkpt lat="47.17642" lon="6.14302">
        <ele>573.5</ele>
        <time>2022-08-10T09:03:30Z</time>
      </trkpt>
      <trkpt lat="47.1764" lon="6.143">
        <ele>573.7</ele>
        <time>2022-08-10T09:03:31Z</time>
      </trkpt>
      <trkpt lat="47.17639" lon="6.14299">
        <ele>574</ele>
        <time>2022-08-10T09:03:32Z</time>
      </trkpt>
      <trkpt lat="47.17638" lon="6.14298">
        <ele>574.3</ele>
        <time>2022-08-10T09:03:33Z</time>
      </trkpt>
      <trkpt lat="47.17638" lon="6.14298">
        <ele>574.3</ele>
        <time>2022-08-10T09:03:34Z</time>
      </trkpt>
      <trkpt lat="47.17638" lon="6.14298">
        <ele>574.3</ele>
        <time>2022-08-10T09:03:35Z</time>
      </trkpt>
      <trkpt lat="47.17638" lon="6.14298">
        <ele>574.3</ele>
        <time>2022-08-10T09:03:36Z</time>
      </trkpt>
      <trkpt lat="47.17638" lon="6.14298">
        <ele>574.3</ele>
        <time>2022-08-10T09:03:37Z</time>
      </trkpt>
      <trkpt lat="47.17638" lon="6.14298">
        <ele>574.3</ele>
        <time>2022-08-10T09:03:38Z</time>
      </trkpt>
      <trkpt lat="47.17638" lon="6.14298">
        <ele>574.3</ele>
        <time>2022-08-10T09:03:39Z</time>
      </trkpt>
      <trkpt lat="47.17631" lon="6.14288">
        <ele>576.4</ele>
        <time>2022-08-10T09:03:40Z</time>
      </trkpt>
      <trkpt lat="47.17629" lon="6.14285">
        <ele>576.2</ele>
        <time>2022-08-10T09:03:41Z</time>
      </trkpt>
      <trkpt lat="47.17628" lon="6.14283">
        <ele>576.3</ele>
        <time>2022-08-10T09:03:42Z</time>
      </trkpt>
      <trkpt lat="47.17625" lon="6.1428">
        <ele>576.2</ele>
        <time>2022-08-10T09:03:43Z</time>
      </trkpt>
      <trkpt lat="47.17622" lon="6.14277">
        <ele>576.6</ele>
        <time>2022-08-10T09:03:44Z</time>
      </trkpt>
      <trkpt lat="47.1762" lon="6.14275">
        <ele>576.6</ele>
        <time>2022-08-10T09:03:45Z</time>
      </trkpt>
      <trkpt lat="47.17618" lon="6.14272">
        <ele>576.7</ele>
        <time>2022-08-10T09:03:46Z</time>
      </trkpt>
      <trkpt lat="47.17616" lon="6.14269">
        <ele>576.9</ele>
        <time>2022-08-10T09:03:47Z</time>
      </trkpt>
      <trkpt lat="47.17614" lon="6.14267">
        <ele>577.1</ele>
        <time>2022-08-10T09:03:48Z</time>
      </trkpt>
      <trkpt lat="47.17612" lon="6.14264">
        <ele>577.4</ele>
        <time>2022-08-10T09:03:49Z</time>
      </trkpt>
      <trkpt lat="47.1761" lon="6.14262">
        <ele>577.7</ele>
        <time>2022-08-10T09:03:50Z</time>
      </trkpt>
      <trkpt lat="47.17608" lon="6.1426">
        <ele>578.2</ele>
        <time>2022-08-10T09:03:51Z</time>
      </trkpt>
      <trkpt lat="47.17606" lon="6.14258">
        <ele>578.4</ele>
        <time>2022-08-10T09:03:52Z</time>
      </trkpt>
      <trkpt lat="47.17604" lon="6.14256">
        <ele>578.5</ele>
        <time>2022-08-10T09:03:53Z</time>
      </trkpt>
      <trkpt lat="47.17603" lon="6.14254">
        <ele>578.8</ele>
        <time>2022-08-10T09:03:54Z</time>
      </trkpt>
      <trkpt lat="47.17602" lon="6.14252">
        <ele>578.8</ele>
        <time>2022-08-10T09:03:55Z</time>
      </trkpt>
      <trkpt lat="47.176" lon="6.1425">
        <ele>578.8</ele>
        <time>2022-08-10T09:03:56Z</time>
      </trkpt>
      <trkpt lat="47.17599" lon="6.14247">
        <ele>578.8</ele>
        <time>2022-08-10T09:03:57Z</time>
      </trkpt>
      <trkpt lat="47.17598" lon="6.14245">
        <ele>578.8</ele>
        <time>2022-08-10T09:03:58Z</time>
      </trkpt>
      <trkpt lat="47.17596" lon="6.14243">
        <ele>578.7</ele>
        <time>2022-08-10T09:03:59Z</time>
      </trkpt>
      <trkpt lat="47.17596" lon="6.14241">
        <ele>578.4</ele>
        <time>2022-08-10T09:04:00Z</time>
      </trkpt>
      <trkpt lat="47.17596" lon="6.1424">
        <ele>578.6</ele>
        <time>2022-08-10T09:04:01Z</time>
      </trkpt>
      <trkpt lat="47.17595" lon="6.14239">
        <ele>578.9</ele>
        <time>2022-08-10T09:04:02Z</time>
      </trkpt>
      <trkpt lat="47.17595" lon="6.14239">
        <ele>578.9</ele>
        <time>2022-08-10T09:04:03Z</time>
      </trkpt>
      <trkpt lat="47.17595" lon="6.14239">
        <ele>578.9</ele>
        <time>2022-08-10T09:04:04Z</time>
      </trkpt>
      <trkpt lat="47.17595" lon="6.14239">
        <ele>578.9</ele>
        <time>2022-08-10T09:04:05Z</time>
      </trkpt>
      <trkpt lat="47.17595" lon="6.14239">
        <ele>578.9</ele>
        <time>2022-08-10T09:04:06Z</time>
      </trkpt>
      <trkpt lat="47.17595" lon="6.14239">
        <ele>578.9</ele>
        <time>2022-08-10T09:04:07Z</time>
      </trkpt>
      <trkpt lat="47.17595" lon="6.14239">
        <ele>578.9</ele>
        <time>2022-08-10T09:04:08Z</time>
      </trkpt>
      <trkpt lat="47.17588" lon="6.14231">
        <ele>580.9</ele>
        <time>2022-08-10T09:04:09Z</time>
      </trkpt>
      <trkpt lat="47.17587" lon="6.1423">
        <ele>581.2</ele>
        <time>2022-08-10T09:04:10Z</time>
      </trkpt>
      <trkpt lat="47.17586" lon="6.14228">
        <ele>581.5</ele>
        <time>2022-08-10T09:04:11Z</time>
      </trkpt>
      <trkpt lat="47.17585" lon="6.14227">
        <ele>581.8</ele>
        <time>2022-08-10T09:04:12Z</time>
      </trkpt>
      <trkpt lat="47.17585" lon="6.14227">
        <ele>581.8</ele>
        <time>2022-08-10T09:04:13Z</time>
      </trkpt>
      <trkpt lat="47.17585" lon="6.14227">
        <ele>581.8</ele>
        <time>2022-08-10T09:04:14Z</time>
      </trkpt>
      <trkpt lat="47.17579" lon="6.14223">
        <ele>582.3</ele>
        <time>2022-08-10T09:04:15Z</time>
      </trkpt>
      <trkpt lat="47.17577" lon="6.14222">
        <ele>582.2</ele>
        <time>2022-08-10T09:04:16Z</time>
      </trkpt>
      <trkpt lat="47.17574" lon="6.1422">
        <ele>582.3</ele>
        <time>2022-08-10T09:04:17Z</time>
      </trkpt>
      <trkpt lat="47.17572" lon="6.14218">
        <ele>582.3</ele>
        <time>2022-08-10T09:04:18Z</time>
      </trkpt>
      <trkpt lat="47.17572" lon="6.14216">
        <ele>582.6</ele>
        <time>2022-08-10T09:04:19Z</time>
      </trkpt>
      <trkpt lat="47.1757" lon="6.14215">
        <ele>583</ele>
        <time>2022-08-10T09:04:20Z</time>
      </trkpt>
      <trkpt lat="47.17569" lon="6.14214">
        <ele>583.4</ele>
        <time>2022-08-10T09:04:21Z</time>
      </trkpt>
      <trkpt lat="47.17568" lon="6.14212">
        <ele>583.6</ele>
        <time>2022-08-10T09:04:22Z</time>
      </trkpt>
      <trkpt lat="47.17568" lon="6.14212">
        <ele>583.6</ele>
        <time>2022-08-10T09:04:23Z</time>
      </trkpt>
      <trkpt lat="47.17568" lon="6.14212">
        <ele>583.6</ele>
        <time>2022-08-10T09:04:24Z</time>
      </trkpt>
      <trkpt lat="47.17568" lon="6.14212">
        <ele>583.6</ele>
        <time>2022-08-10T09:04:25Z</time>
      </trkpt>
      <trkpt lat="47.17568" lon="6.14212">
        <ele>583.6</ele>
        <time>2022-08-10T09:04:26Z</time>
      </trkpt>
      <trkpt lat="47.17568" lon="6.14212">
        <ele>583.6</ele>
        <time>2022-08-10T09:04:27Z</time>
      </trkpt>
      <trkpt lat="47.17568" lon="6.14212">
        <ele>583.6</ele>
        <time>2022-08-10T09:04:28Z</time>
      </trkpt>
      <trkpt lat="47.17568" lon="6.14212">
        <ele>583.6</ele>
        <time>2022-08-10T09:04:29Z</time>
      </trkpt>
      <trkpt lat="47.17562" lon="6.14202">
        <ele>585.9</ele>
        <time>2022-08-10T09:04:30Z</time>
      </trkpt>
      <trkpt lat="47.17561" lon="6.14201">
        <ele>586.2</ele>
        <time>2022-08-10T09:04:31Z</time>
      </trkpt>
      <trkpt lat="47.17561" lon="6.142">
        <ele>586.5</ele>
        <time>2022-08-10T09:04:32Z</time>
      </trkpt>
      <trkpt lat="47.1756" lon="6.14199">
        <ele>586.8</ele>
        <time>2022-08-10T09:04:33Z</time>
      </trkpt>
      <trkpt lat="47.1756" lon="6.14199">
        <ele>586.8</ele>
        <time>2022-08-10T09:04:34Z</time>
      </trkpt>
      <trkpt lat="47.1756" lon="6.14199">
        <ele>586.8</ele>
        <time>2022-08-10T09:04:35Z</time>
      </trkpt>
      <trkpt lat="47.1756" lon="6.14199">
        <ele>586.8</ele>
        <time>2022-08-10T09:04:36Z</time>
      </trkpt>
      <trkpt lat="47.1756" lon="6.14199">
        <ele>586.8</ele>
        <time>2022-08-10T09:04:37Z</time>
      </trkpt>
      <trkpt lat="47.1756" lon="6.14199">
        <ele>586.8</ele>
        <time>2022-08-10T09:04:38Z</time>
      </trkpt>
      <trkpt lat="47.17555" lon="6.14187">
        <ele>589</ele>
        <time>2022-08-10T09:04:39Z</time>
      </trkpt>
      <trkpt lat="47.17554" lon="6.14185">
        <ele>589.3</ele>
        <time>2022-08-10T09:04:40Z</time>
      </trkpt>
      <trkpt lat="47.17553" lon="6.14183">
        <ele>589.5</ele>
        <time>2022-08-10T09:04:41Z</time>
      </trkpt>
      <trkpt lat="47.17552" lon="6.14181">
        <ele>589.8</ele>
        <time>2022-08-10T09:04:42Z</time>
      </trkpt>
      <trkpt lat="47.17552" lon="6.14181">
        <ele>589.8</ele>
        <time>2022-08-10T09:04:43Z</time>
      </trkpt>
      <trkpt lat="47.17552" lon="6.14181">
        <ele>589.8</ele>
        <time>2022-08-10T09:04:44Z</time>
      </trkpt>
      <trkpt lat="47.17552" lon="6.14181">
        <ele>589.8</ele>
        <time>2022-08-10T09:04:45Z</time>
      </trkpt>
      <trkpt lat="47.17552" lon="6.14181">
        <ele>589.8</ele>
        <time>2022-08-10T09:04:46Z</time>
      </trkpt>
      <trkpt lat="47.17552" lon="6.14181">
        <ele>589.8</ele>
        <time>2022-08-10T09:04:47Z</time>
      </trkpt>
      <trkpt lat="47.17549" lon="6.14167">
        <ele>591.3</ele>
        <time>2022-08-10T09:04:48Z</time>
      </trkpt>
      <trkpt lat="47.17549" lon="6.14164">
        <ele>591.4</ele>
        <time>2022-08-10T09:04:49Z</time>
      </trkpt>
      <trkpt lat="47.17548" lon="6.14163">
        <ele>591.7</ele>
        <time>2022-08-10T09:04:50Z</time>
      </trkpt>
      <trkpt lat="47.17547" lon="6.14161">
        <ele>591.9</ele>
        <time>2022-08-10T09:04:51Z</time>
      </trkpt>
      <trkpt lat="47.17547" lon="6.14161">
        <ele>591.9</ele>
        <time>2022-08-10T09:04:52Z</time>
      </trkpt>
      <trkpt lat="47.17547" lon="6.14161">
        <ele>591.9</ele>
        <time>2022-08-10T09:04:53Z</time>
      </trkpt>
      <trkpt lat="47.17547" lon="6.14161">
        <ele>591.9</ele>
        <time>2022-08-10T09:04:54Z</time>
      </trkpt>
      <trkpt lat="47.17547" lon="6.14161">
        <ele>591.9</ele>
        <time>2022-08-10T09:04:55Z</time>
      </trkpt>
      <trkpt lat="47.17547" lon="6.14161">
        <ele>591.9</ele>
        <time>2022-08-10T09:04:56Z</time>
      </trkpt>
      <trkpt lat="47.17547" lon="6.14161">
        <ele>591.9</ele>
        <time>2022-08-10T09:04:57Z</time>
      </trkpt>
      <trkpt lat="47.17547" lon="6.14161">
        <ele>591.9</ele>
        <time>2022-08-10T09:04:58Z</time>
      </trkpt>
      <trkpt lat="47.17547" lon="6.14161">
        <ele>591.9</ele>
        <time>2022-08-10T09:04:59Z</time>
      </trkpt>
      <trkpt lat="47.17547" lon="6.14161">
        <ele>591.9</ele>
        <time>2022-08-10T09:05:00Z</time>
      </trkpt>
      <trkpt lat="47.17543" lon="6.14149">
        <ele>591.8</ele>
        <time>2022-08-10T09:05:01Z</time>
      </trkpt>
      <trkpt lat="47.17543" lon="6.14148">
        <ele>591.6</ele>
        <time>2022-08-10T09:05:02Z</time>
      </trkpt>
      <trkpt lat="47.17542" lon="6.14148">
        <ele>591.6</ele>
        <time>2022-08-10T09:05:03Z</time>
      </trkpt>
      <trkpt lat="47.17543" lon="6.14147">
        <ele>591.6</ele>
        <time>2022-08-10T09:05:04Z</time>
      </trkpt>
      <trkpt lat="47.17543" lon="6.14147">
        <ele>591.6</ele>
        <time>2022-08-10T09:05:05Z</time>
      </trkpt>
      <trkpt lat="47.17543" lon="6.14147">
        <ele>591.6</ele>
        <time>2022-08-10T09:05:06Z</time>
      </trkpt>
      <trkpt lat="47.17543" lon="6.14147">
        <ele>591.6</ele>
        <time>2022-08-10T09:05:07Z</time>
      </trkpt>
      <trkpt lat="47.17543" lon="6.14147">
        <ele>591.6</ele>
        <time>2022-08-10T09:05:08Z</time>
      </trkpt>
      <trkpt lat="47.17543" lon="6.14147">
        <ele>591.6</ele>
        <time>2022-08-10T09:05:09Z</time>
      </trkpt>
      <trkpt lat="47.17543" lon="6.14147">
        <ele>591.6</ele>
        <time>2022-08-10T09:05:10Z</time>
      </trkpt>
      <trkpt lat="47.17543" lon="6.14147">
        <ele>591.6</ele>
        <time>2022-08-10T09:05:11Z</time>
      </trkpt>
      <trkpt lat="47.17543" lon="6.14147">
        <ele>591.6</ele>
        <time>2022-08-10T09:05:12Z</time>
      </trkpt>
      <trkpt lat="47.17543" lon="6.14147">
        <ele>591.6</ele>
        <time>2022-08-10T09:05:13Z</time>
      </trkpt>
      <trkpt lat="47.17543" lon="6.14147">
        <ele>591.6</ele>
        <time>2022-08-10T09:05:14Z</time>
      </trkpt>
      <trkpt lat="47.17543" lon="6.14147">
        <ele>591.6</ele>
        <time>2022-08-10T09:05:15Z</time>
      </trkpt>
      <trkpt lat="47.17543" lon="6.14147">
        <ele>591.6</ele>
        <time>2022-08-10T09:05:16Z</time>
      </trkpt>
      <trkpt lat="47.17543" lon="6.14147">
        <ele>591.6</ele>
        <time>2022-08-10T09:05:17Z</time>
      </trkpt>
      <trkpt lat="47.17543" lon="6.14147">
        <ele>591.6</ele>
        <time>2022-08-10T09:05:18Z</time>
      </trkpt>
      <trkpt lat="47.17543" lon="6.14147">
        <ele>591.6</ele>
        <time>2022-08-10T09:05:19Z</time>
      </trkpt>
      <trkpt lat="47.17543" lon="6.14147">
        <ele>591.6</ele>
        <time>2022-08-10T09:05:20Z</time>
      </trkpt>
      <trkpt lat="47.17543" lon="6.14147">
        <ele>591.6</ele>
        <time>2022-08-10T09:05:21Z</time>
      </trkpt>
      <trkpt lat="47.17543" lon="6.14147">
        <ele>591.6</ele>
        <time>2022-08-10T09:05:22Z</time>
      </trkpt>
      <trkpt lat="47.17543" lon="6.14147">
        <ele>591.6</ele>
        <time>2022-08-10T09:05:23Z</time>
      </trkpt>
      <trkpt lat="47.17543" lon="6.14147">
        <ele>591.6</ele>
        <time>2022-08-10T09:05:24Z</time>
      </trkpt>
      <trkpt lat="47.17543" lon="6.14147">
        <ele>591.6</ele>
        <time>2022-08-10T09:05:25Z</time>
      </trkpt>
      <trkpt lat="47.17543" lon="6.14147">
        <ele>591.6</ele>
        <time>2022-08-10T09:05:26Z</time>
      </trkpt>
      <trkpt lat="47.17543" lon="6.14147">
        <ele>591.6</ele>
        <time>2022-08-10T09:05:27Z</time>
      </trkpt>
      <trkpt lat="47.17543" lon="6.14147">
        <ele>591.6</ele>
        <time>2022-08-10T09:05:28Z</time>
      </trkpt>
      <trkpt lat="47.17543" lon="6.14147">
        <ele>591.6</ele>
        <time>2022-08-10T09:05:29Z</time>
      </trkpt>
      <trkpt lat="47.17543" lon="6.14147">
        <ele>591.6</ele>
        <time>2022-08-10T09:05:30Z</time>
      </trkpt>
      <trkpt lat="47.17543" lon="6.14147">
        <ele>591.6</ele>
        <time>2022-08-10T09:05:31Z</time>
      </trkpt>
      <trkpt lat="47.17543" lon="6.14147">
        <ele>591.6</ele>
        <time>2022-08-10T09:05:32Z</time>
      </trkpt>
      <trkpt lat="47.17543" lon="6.14147">
        <ele>591.6</ele>
        <time>2022-08-10T09:05:33Z</time>
      </trkpt>
      <trkpt lat="47.17543" lon="6.14147">
        <ele>591.6</ele>
        <time>2022-08-10T09:05:34Z</time>
      </trkpt>
      <trkpt lat="47.17543" lon="6.14147">
        <ele>591.6</ele>
        <time>2022-08-10T09:05:35Z</time>
      </trkpt>
      <trkpt lat="47.17543" lon="6.14147">
        <ele>591.6</ele>
        <time>2022-08-10T09:05:36Z</time>
      </trkpt>
      <trkpt lat="47.17543" lon="6.14147">
        <ele>591.6</ele>
        <time>2022-08-10T09:05:37Z</time>
      </trkpt>
      <trkpt lat="47.17543" lon="6.14147">
        <ele>591.6</ele>
        <time>2022-08-10T09:05:38Z</time>
      </trkpt>
      <trkpt lat="47.17543" lon="6.14147">
        <ele>591.6</ele>
        <time>2022-08-10T09:05:39Z</time>
      </trkpt>
      <trkpt lat="47.17543" lon="6.14147">
        <ele>591.6</ele>
        <time>2022-08-10T09:05:40Z</time>
      </trkpt>
      <trkpt lat="47.17543" lon="6.14147">
        <ele>591.6</ele>
        <time>2022-08-10T09:05:41Z</time>
      </trkpt>
      <trkpt lat="47.17543" lon="6.14147">
        <ele>591.6</ele>
        <time>2022-08-10T09:05:42Z</time>
      </trkpt>
      <trkpt lat="47.17543" lon="6.14147">
        <ele>591.6</ele>
        <time>2022-08-10T09:05:43Z</time>
      </trkpt>
      <trkpt lat="47.17543" lon="6.14147">
        <ele>591.6</ele>
        <time>2022-08-10T09:05:44Z</time>
      </trkpt>
      <trkpt lat="47.17543" lon="6.14147">
        <ele>591.6</ele>
        <time>2022-08-10T09:05:45Z</time>
      </trkpt>
      <trkpt lat="47.17543" lon="6.14147">
        <ele>591.6</ele>
        <time>2022-08-10T09:05:46Z</time>
      </trkpt>
      <trkpt lat="47.17543" lon="6.14147">
        <ele>591.6</ele>
        <time>2022-08-10T09:05:47Z</time>
      </trkpt>
      <trkpt lat="47.17543" lon="6.14147">
        <ele>591.6</ele>
        <time>2022-08-10T09:05:48Z</time>
      </trkpt>
      <trkpt lat="47.17543" lon="6.14147">
        <ele>591.6</ele>
        <time>2022-08-10T09:05:49Z</time>
      </trkpt>
      <trkpt lat="47.17543" lon="6.14147">
        <ele>591.6</ele>
        <time>2022-08-10T09:05:50Z</time>
      </trkpt>
      <trkpt lat="47.17543" lon="6.14147">
        <ele>591.6</ele>
        <time>2022-08-10T09:05:51Z</time>
      </trkpt>
      <trkpt lat="47.17543" lon="6.14147">
        <ele>591.6</ele>
        <time>2022-08-10T09:05:52Z</time>
      </trkpt>
      <trkpt lat="47.17543" lon="6.14147">
        <ele>591.6</ele>
        <time>2022-08-10T09:05:53Z</time>
      </trkpt>
      <trkpt lat="47.17543" lon="6.14147">
        <ele>591.6</ele>
        <time>2022-08-10T09:05:54Z</time>
      </trkpt>
      <trkpt lat="47.17543" lon="6.14147">
        <ele>591.6</ele>
        <time>2022-08-10T09:05:55Z</time>
      </trkpt>
      <trkpt lat="47.17543" lon="6.14147">
        <ele>591.6</ele>
        <time>2022-08-10T09:05:56Z</time>
      </trkpt>
      <trkpt lat="47.17543" lon="6.14147">
        <ele>591.6</ele>
        <time>2022-08-10T09:05:57Z</time>
      </trkpt>
      <trkpt lat="47.17543" lon="6.14147">
        <ele>591.6</ele>
        <time>2022-08-10T09:05:58Z</time>
      </trkpt>
      <trkpt lat="47.17543" lon="6.14147">
        <ele>591.6</ele>
        <time>2022-08-10T09:05:59Z</time>
      </trkpt>
      <trkpt lat="47.17543" lon="6.14147">
        <ele>591.6</ele>
        <time>2022-08-10T09:06:00Z</time>
      </trkpt>
      <trkpt lat="47.17543" lon="6.14147">
        <ele>591.6</ele>
        <time>2022-08-10T09:06:01Z</time>
      </trkpt>
      <trkpt lat="47.17543" lon="6.14147">
        <ele>591.6</ele>
        <time>2022-08-10T09:06:02Z</time>
      </trkpt>
      <trkpt lat="47.17543" lon="6.14147">
        <ele>591.6</ele>
        <time>2022-08-10T09:06:03Z</time>
      </trkpt>
      <trkpt lat="47.17543" lon="6.14147">
        <ele>591.6</ele>
        <time>2022-08-10T09:06:04Z</time>
      </trkpt>
      <trkpt lat="47.17543" lon="6.14147">
        <ele>591.6</ele>
        <time>2022-08-10T09:06:05Z</time>
      </trkpt>
      <trkpt lat="47.17543" lon="6.14147">
        <ele>591.6</ele>
        <time>2022-08-10T09:06:06Z</time>
      </trkpt>
      <trkpt lat="47.17543" lon="6.14147">
        <ele>591.6</ele>
        <time>2022-08-10T09:06:07Z</time>
      </trkpt>
      <trkpt lat="47.17543" lon="6.14147">
        <ele>591.6</ele>
        <time>2022-08-10T09:06:08Z</time>
      </trkpt>
      <trkpt lat="47.17545" lon="6.14134">
        <ele>590.2</ele>
        <time>2022-08-10T09:06:09Z</time>
      </trkpt>
      <trkpt lat="47.17545" lon="6.14134">
        <ele>590.2</ele>
        <time>2022-08-10T09:06:10Z</time>
      </trkpt>
      <trkpt lat="47.17545" lon="6.14134">
        <ele>590.2</ele>
        <time>2022-08-10T09:06:11Z</time>
      </trkpt>
      <trkpt lat="47.17545" lon="6.14134">
        <ele>590.1</ele>
        <time>2022-08-10T09:06:12Z</time>
      </trkpt>
      <trkpt lat="47.17545" lon="6.14134">
        <ele>590.1</ele>
        <time>2022-08-10T09:06:13Z</time>
      </trkpt>
      <trkpt lat="47.17545" lon="6.14134">
        <ele>590.1</ele>
        <time>2022-08-10T09:06:14Z</time>
      </trkpt>
      <trkpt lat="47.17545" lon="6.14134">
        <ele>590.1</ele>
        <time>2022-08-10T09:06:15Z</time>
      </trkpt>
      <trkpt lat="47.17545" lon="6.14134">
        <ele>590.1</ele>
        <time>2022-08-10T09:06:16Z</time>
      </trkpt>
      <trkpt lat="47.17545" lon="6.14134">
        <ele>590.1</ele>
        <time>2022-08-10T09:06:17Z</time>
      </trkpt>
      <trkpt lat="47.17545" lon="6.14134">
        <ele>590.1</ele>
        <time>2022-08-10T09:06:18Z</time>
      </trkpt>
      <trkpt lat="47.17545" lon="6.14134">
        <ele>590.1</ele>
        <time>2022-08-10T09:06:19Z</time>
      </trkpt>
      <trkpt lat="47.17545" lon="6.14134">
        <ele>590.1</ele>
        <time>2022-08-10T09:06:20Z</time>
      </trkpt>
      <trkpt lat="47.17545" lon="6.14134">
        <ele>590.1</ele>
        <time>2022-08-10T09:06:21Z</time>
      </trkpt>
      <trkpt lat="47.17545" lon="6.14134">
        <ele>590.1</ele>
        <time>2022-08-10T09:06:22Z</time>
      </trkpt>
      <trkpt lat="47.17545" lon="6.14134">
        <ele>590.1</ele>
        <time>2022-08-10T09:06:23Z</time>
      </trkpt>
      <trkpt lat="47.17545" lon="6.14134">
        <ele>590.1</ele>
        <time>2022-08-10T09:06:24Z</time>
      </trkpt>
      <trkpt lat="47.17545" lon="6.14134">
        <ele>590.1</ele>
        <time>2022-08-10T09:06:25Z</time>
      </trkpt>
      <trkpt lat="47.17545" lon="6.14134">
        <ele>590.1</ele>
        <time>2022-08-10T09:06:26Z</time>
      </trkpt>
      <trkpt lat="47.17545" lon="6.14134">
        <ele>590.1</ele>
        <time>2022-08-10T09:06:27Z</time>
      </trkpt>
      <trkpt lat="47.17545" lon="6.14134">
        <ele>590.1</ele>
        <time>2022-08-10T09:06:28Z</time>
      </trkpt>
      <trkpt lat="47.17545" lon="6.14134">
        <ele>590.1</ele>
        <time>2022-08-10T09:06:29Z</time>
      </trkpt>
      <trkpt lat="47.17545" lon="6.14134">
        <ele>590.1</ele>
        <time>2022-08-10T09:06:30Z</time>
      </trkpt>
      <trkpt lat="47.17545" lon="6.14134">
        <ele>590.1</ele>
        <time>2022-08-10T09:06:31Z</time>
      </trkpt>
      <trkpt lat="47.17545" lon="6.14134">
        <ele>590.1</ele>
        <time>2022-08-10T09:06:32Z</time>
      </trkpt>
      <trkpt lat="47.17545" lon="6.14134">
        <ele>590.1</ele>
        <time>2022-08-10T09:06:33Z</time>
      </trkpt>
      <trkpt lat="47.17545" lon="6.14134">
        <ele>590.1</ele>
        <time>2022-08-10T09:06:34Z</time>
      </trkpt>
      <trkpt lat="47.17545" lon="6.14134">
        <ele>590.1</ele>
        <time>2022-08-10T09:06:35Z</time>
      </trkpt>
      <trkpt lat="47.17545" lon="6.14134">
        <ele>590.1</ele>
        <time>2022-08-10T09:06:36Z</time>
      </trkpt>
      <trkpt lat="47.17545" lon="6.14134">
        <ele>590.1</ele>
        <time>2022-08-10T09:06:37Z</time>
      </trkpt>
      <trkpt lat="47.17545" lon="6.14134">
        <ele>590.1</ele>
        <time>2022-08-10T09:06:38Z</time>
      </trkpt>
      <trkpt lat="47.17545" lon="6.14134">
        <ele>590.1</ele>
        <time>2022-08-10T09:06:39Z</time>
      </trkpt>
      <trkpt lat="47.17545" lon="6.14134">
        <ele>590.1</ele>
        <time>2022-08-10T09:06:40Z</time>
      </trkpt>
      <trkpt lat="47.17545" lon="6.14134">
        <ele>590.1</ele>
        <time>2022-08-10T09:06:41Z</time>
      </trkpt>
      <trkpt lat="47.17545" lon="6.14134">
        <ele>590.1</ele>
        <time>2022-08-10T09:06:42Z</time>
      </trkpt>
      <trkpt lat="47.17545" lon="6.14134">
        <ele>590.1</ele>
        <time>2022-08-10T09:06:43Z</time>
      </trkpt>
      <trkpt lat="47.17545" lon="6.14134">
        <ele>590.1</ele>
        <time>2022-08-10T09:06:44Z</time>
      </trkpt>
      <trkpt lat="47.17545" lon="6.14134">
        <ele>590.1</ele>
        <time>2022-08-10T09:06:45Z</time>
      </trkpt>
      <trkpt lat="47.17545" lon="6.14134">
        <ele>590.1</ele>
        <time>2022-08-10T09:06:46Z</time>
      </trkpt>
      <trkpt lat="47.17545" lon="6.14134">
        <ele>590.1</ele>
        <time>2022-08-10T09:06:47Z</time>
      </trkpt>
      <trkpt lat="47.17545" lon="6.14134">
        <ele>590.1</ele>
        <time>2022-08-10T09:06:48Z</time>
      </trkpt>
      <trkpt lat="47.17545" lon="6.14134">
        <ele>590.1</ele>
        <time>2022-08-10T09:06:49Z</time>
      </trkpt>
      <trkpt lat="47.17545" lon="6.14134">
        <ele>590.1</ele>
        <time>2022-08-10T09:06:50Z</time>
      </trkpt>
      <trkpt lat="47.17545" lon="6.14134">
        <ele>590.1</ele>
        <time>2022-08-10T09:06:51Z</time>
      </trkpt>
      <trkpt lat="47.17545" lon="6.14134">
        <ele>590.1</ele>
        <time>2022-08-10T09:06:52Z</time>
      </trkpt>
      <trkpt lat="47.17545" lon="6.14134">
        <ele>590.1</ele>
        <time>2022-08-10T09:06:53Z</time>
      </trkpt>
      <trkpt lat="47.17545" lon="6.14134">
        <ele>590.1</ele>
        <time>2022-08-10T09:06:54Z</time>
      </trkpt>
      <trkpt lat="47.17545" lon="6.14134">
        <ele>590.1</ele>
        <time>2022-08-10T09:06:55Z</time>
      </trkpt>
      <trkpt lat="47.17545" lon="6.14134">
        <ele>590.1</ele>
        <time>2022-08-10T09:06:56Z</time>
      </trkpt>
      <trkpt lat="47.17545" lon="6.14134">
        <ele>590.1</ele>
        <time>2022-08-10T09:06:57Z</time>
      </trkpt>
      <trkpt lat="47.17545" lon="6.14134">
        <ele>590.1</ele>
        <time>2022-08-10T09:06:58Z</time>
      </trkpt>
      <trkpt lat="47.17545" lon="6.14134">
        <ele>590.1</ele>
        <time>2022-08-10T09:06:59Z</time>
      </trkpt>
      <trkpt lat="47.17545" lon="6.14134">
        <ele>590.1</ele>
        <time>2022-08-10T09:07:00Z</time>
      </trkpt>
      <trkpt lat="47.17545" lon="6.14134">
        <ele>590.1</ele>
        <time>2022-08-10T09:07:01Z</time>
      </trkpt>
      <trkpt lat="47.17545" lon="6.14134">
        <ele>590.1</ele>
        <time>2022-08-10T09:07:02Z</time>
      </trkpt>
      <trkpt lat="47.17545" lon="6.14134">
        <ele>590.1</ele>
        <time>2022-08-10T09:07:03Z</time>
      </trkpt>
      <trkpt lat="47.17545" lon="6.14134">
        <ele>590.1</ele>
        <time>2022-08-10T09:07:04Z</time>
      </trkpt>
      <trkpt lat="47.17545" lon="6.14134">
        <ele>590.1</ele>
        <time>2022-08-10T09:07:05Z</time>
      </trkpt>
      <trkpt lat="47.17545" lon="6.14134">
        <ele>590.1</ele>
        <time>2022-08-10T09:07:06Z</time>
      </trkpt>
      <trkpt lat="47.17545" lon="6.14134">
        <ele>590.1</ele>
        <time>2022-08-10T09:07:07Z</time>
      </trkpt>
      <trkpt lat="47.17545" lon="6.14134">
        <ele>590.1</ele>
        <time>2022-08-10T09:07:08Z</time>
      </trkpt>
      <trkpt lat="47.17545" lon="6.14134">
        <ele>590.1</ele>
        <time>2022-08-10T09:07:09Z</time>
      </trkpt>
      <trkpt lat="47.17545" lon="6.14134">
        <ele>590.1</ele>
        <time>2022-08-10T09:07:10Z</time>
      </trkpt>
      <trkpt lat="47.17545" lon="6.14134">
        <ele>590.1</ele>
        <time>2022-08-10T09:07:11Z</time>
      </trkpt>
      <trkpt lat="47.17545" lon="6.14134">
        <ele>590.1</ele>
        <time>2022-08-10T09:07:12Z</time>
      </trkpt>
      <trkpt lat="47.17545" lon="6.14134">
        <ele>590.1</ele>
        <time>2022-08-10T09:07:13Z</time>
      </trkpt>
      <trkpt lat="47.17545" lon="6.14134">
        <ele>590.1</ele>
        <time>2022-08-10T09:07:14Z</time>
      </trkpt>
      <trkpt lat="47.17545" lon="6.14134">
        <ele>590.1</ele>
        <time>2022-08-10T09:07:15Z</time>
      </trkpt>
      <trkpt lat="47.17545" lon="6.14134">
        <ele>590.1</ele>
        <time>2022-08-10T09:07:16Z</time>
      </trkpt>
      <trkpt lat="47.17545" lon="6.14134">
        <ele>590.1</ele>
        <time>2022-08-10T09:07:17Z</time>
      </trkpt>
      <trkpt lat="47.17545" lon="6.14134">
        <ele>590.1</ele>
        <time>2022-08-10T09:07:18Z</time>
      </trkpt>
      <trkpt lat="47.17545" lon="6.14134">
        <ele>590.1</ele>
        <time>2022-08-10T09:07:19Z</time>
      </trkpt>
      <trkpt lat="47.17545" lon="6.14134">
        <ele>590.1</ele>
        <time>2022-08-10T09:07:20Z</time>
      </trkpt>
      <trkpt lat="47.17545" lon="6.14134">
        <ele>590.1</ele>
        <time>2022-08-10T09:07:21Z</time>
      </trkpt>
      <trkpt lat="47.17545" lon="6.14134">
        <ele>590.1</ele>
        <time>2022-08-10T09:07:22Z</time>
      </trkpt>
      <trkpt lat="47.17545" lon="6.14134">
        <ele>590.1</ele>
        <time>2022-08-10T09:07:23Z</time>
      </trkpt>
      <trkpt lat="47.17545" lon="6.14134">
        <ele>590.1</ele>
        <time>2022-08-10T09:07:24Z</time>
      </trkpt>
      <trkpt lat="47.17545" lon="6.14134">
        <ele>590.1</ele>
        <time>2022-08-10T09:07:25Z</time>
      </trkpt>
      <trkpt lat="47.17545" lon="6.14134">
        <ele>590.1</ele>
        <time>2022-08-10T09:07:26Z</time>
      </trkpt>
      <trkpt lat="47.17545" lon="6.14134">
        <ele>590.1</ele>
        <time>2022-08-10T09:07:27Z</time>
      </trkpt>
      <trkpt lat="47.17545" lon="6.14134">
        <ele>590.1</ele>
        <time>2022-08-10T09:07:28Z</time>
      </trkpt>
      <trkpt lat="47.17545" lon="6.14134">
        <ele>590.1</ele>
        <time>2022-08-10T09:07:29Z</time>
      </trkpt>
      <trkpt lat="47.17545" lon="6.14134">
        <ele>590.1</ele>
        <time>2022-08-10T09:07:30Z</time>
      </trkpt>
      <trkpt lat="47.17545" lon="6.14134">
        <ele>590.1</ele>
        <time>2022-08-10T09:07:31Z</time>
      </trkpt>
      <trkpt lat="47.17545" lon="6.14134">
        <ele>590.1</ele>
        <time>2022-08-10T09:07:32Z</time>
      </trkpt>
      <trkpt lat="47.17545" lon="6.14134">
        <ele>590.1</ele>
        <time>2022-08-10T09:07:33Z</time>
      </trkpt>
      <trkpt lat="47.17545" lon="6.14134">
        <ele>590.1</ele>
        <time>2022-08-10T09:07:34Z</time>
      </trkpt>
      <trkpt lat="47.17545" lon="6.14134">
        <ele>590.1</ele>
        <time>2022-08-10T09:07:35Z</time>
      </trkpt>
      <trkpt lat="47.17545" lon="6.14134">
        <ele>590.1</ele>
        <time>2022-08-10T09:07:36Z</time>
      </trkpt>
      <trkpt lat="47.17545" lon="6.14134">
        <ele>590.1</ele>
        <time>2022-08-10T09:07:37Z</time>
      </trkpt>
      <trkpt lat="47.17545" lon="6.14134">
        <ele>590.1</ele>
        <time>2022-08-10T09:07:39Z</time>
      </trkpt>
      <trkpt lat="47.17545" lon="6.14134">
        <ele>590.1</ele>
        <time>2022-08-10T09:07:40Z</time>
      </trkpt>
      <trkpt lat="47.17545" lon="6.14134">
        <ele>590.1</ele>
        <time>2022-08-10T09:07:41Z</time>
      </trkpt>
      <trkpt lat="47.17545" lon="6.14134">
        <ele>590.1</ele>
        <time>2022-08-10T09:07:42Z</time>
      </trkpt>
      <trkpt lat="47.17545" lon="6.14134">
        <ele>590.1</ele>
        <time>2022-08-10T09:07:43Z</time>
      </trkpt>
      <trkpt lat="47.17545" lon="6.14134">
        <ele>590.1</ele>
        <time>2022-08-10T09:07:44Z</time>
      </trkpt>
      <trkpt lat="47.17545" lon="6.14134">
        <ele>590.1</ele>
        <time>2022-08-10T09:07:45Z</time>
      </trkpt>
      <trkpt lat="47.17545" lon="6.14134">
        <ele>590.1</ele>
        <time>2022-08-10T09:07:46Z</time>
      </trkpt>
      <trkpt lat="47.17545" lon="6.14134">
        <ele>590.1</ele>
        <time>2022-08-10T09:07:47Z</time>
      </trkpt>
      <trkpt lat="47.17545" lon="6.14134">
        <ele>590.1</ele>
        <time>2022-08-10T09:07:48Z</time>
      </trkpt>
      <trkpt lat="47.17545" lon="6.14134">
        <ele>590.1</ele>
        <time>2022-08-10T09:07:49Z</time>
      </trkpt>
      <trkpt lat="47.17545" lon="6.14134">
        <ele>590.1</ele>
        <time>2022-08-10T09:07:50Z</time>
      </trkpt>
      <trkpt lat="47.17545" lon="6.14134">
        <ele>590.1</ele>
        <time>2022-08-10T09:07:51Z</time>
      </trkpt>
      <trkpt lat="47.17545" lon="6.14134">
        <ele>590.1</ele>
        <time>2022-08-10T09:07:52Z</time>
      </trkpt>
      <trkpt lat="47.17545" lon="6.14134">
        <ele>590.1</ele>
        <time>2022-08-10T09:07:53Z</time>
      </trkpt>
      <trkpt lat="47.17545" lon="6.14134">
        <ele>590.1</ele>
        <time>2022-08-10T09:07:54Z</time>
      </trkpt>
      <trkpt lat="47.17545" lon="6.14134">
        <ele>590.1</ele>
        <time>2022-08-10T09:07:55Z</time>
      </trkpt>
      <trkpt lat="47.17545" lon="6.14134">
        <ele>590.1</ele>
        <time>2022-08-10T09:07:56Z</time>
      </trkpt>
      <trkpt lat="47.17545" lon="6.14134">
        <ele>590.1</ele>
        <time>2022-08-10T09:07:57Z</time>
      </trkpt>
      <trkpt lat="47.17545" lon="6.14134">
        <ele>590.1</ele>
        <time>2022-08-10T09:07:58Z</time>
      </trkpt>
      <trkpt lat="47.17545" lon="6.14134">
        <ele>590.1</ele>
        <time>2022-08-10T09:07:59Z</time>
      </trkpt>
      <trkpt lat="47.17545" lon="6.14134">
        <ele>590.1</ele>
        <time>2022-08-10T09:08:00Z</time>
      </trkpt>
      <trkpt lat="47.17545" lon="6.14134">
        <ele>590.1</ele>
        <time>2022-08-10T09:08:01Z</time>
      </trkpt>
      <trkpt lat="47.17545" lon="6.14134">
        <ele>590.1</ele>
        <time>2022-08-10T09:08:02Z</time>
      </trkpt>
      <trkpt lat="47.17545" lon="6.14134">
        <ele>590.1</ele>
        <time>2022-08-10T09:08:03Z</time>
      </trkpt>
      <trkpt lat="47.17545" lon="6.14134">
        <ele>590.1</ele>
        <time>2022-08-10T09:08:04Z</time>
      </trkpt>
      <trkpt lat="47.17545" lon="6.14134">
        <ele>590.1</ele>
        <time>2022-08-10T09:08:05Z</time>
      </trkpt>
      <trkpt lat="47.17545" lon="6.14134">
        <ele>590.1</ele>
        <time>2022-08-10T09:08:06Z</time>
      </trkpt>
      <trkpt lat="47.17545" lon="6.14134">
        <ele>590.1</ele>
        <time>2022-08-10T09:08:07Z</time>
      </trkpt>
      <trkpt lat="47.17545" lon="6.14134">
        <ele>590.1</ele>
        <time>2022-08-10T09:08:08Z</time>
      </trkpt>
      <trkpt lat="47.17545" lon="6.14134">
        <ele>590.1</ele>
        <time>2022-08-10T09:08:09Z</time>
      </trkpt>
      <trkpt lat="47.17545" lon="6.14134">
        <ele>590.1</ele>
        <time>2022-08-10T09:08:10Z</time>
      </trkpt>
      <trkpt lat="47.17545" lon="6.14134">
        <ele>590.1</ele>
        <time>2022-08-10T09:08:11Z</time>
      </trkpt>
      <trkpt lat="47.17545" lon="6.14134">
        <ele>590.1</ele>
        <time>2022-08-10T09:08:12Z</time>
      </trkpt>
      <trkpt lat="47.17545" lon="6.14134">
        <ele>590.1</ele>
        <time>2022-08-10T09:08:13Z</time>
      </trkpt>
      <trkpt lat="47.17545" lon="6.14134">
        <ele>590.1</ele>
        <time>2022-08-10T09:08:14Z</time>
      </trkpt>
      <trkpt lat="47.17545" lon="6.14134">
        <ele>590.1</ele>
        <time>2022-08-10T09:08:15Z</time>
      </trkpt>
      <trkpt lat="47.17545" lon="6.14134">
        <ele>590.1</ele>
        <time>2022-08-10T09:08:16Z</time>
      </trkpt>
      <trkpt lat="47.17545" lon="6.14134">
        <ele>590.1</ele>
        <time>2022-08-10T09:08:17Z</time>
      </trkpt>
      <trkpt lat="47.17545" lon="6.14134">
        <ele>590.1</ele>
        <time>2022-08-10T09:08:18Z</time>
      </trkpt>
      <trkpt lat="47.17545" lon="6.14134">
        <ele>590.1</ele>
        <time>2022-08-10T09:08:19Z</time>
      </trkpt>
      <trkpt lat="47.17545" lon="6.14134">
        <ele>590.1</ele>
        <time>2022-08-10T09:08:20Z</time>
      </trkpt>
      <trkpt lat="47.17545" lon="6.14134">
        <ele>590.1</ele>
        <time>2022-08-10T09:08:21Z</time>
      </trkpt>
      <trkpt lat="47.17545" lon="6.14134">
        <ele>590.1</ele>
        <time>2022-08-10T09:08:22Z</time>
      </trkpt>
      <trkpt lat="47.17545" lon="6.14134">
        <ele>590.1</ele>
        <time>2022-08-10T09:08:23Z</time>
      </trkpt>
      <trkpt lat="47.17545" lon="6.14134">
        <ele>590.1</ele>
        <time>2022-08-10T09:08:24Z</time>
      </trkpt>
      <trkpt lat="47.17545" lon="6.14134">
        <ele>590.1</ele>
        <time>2022-08-10T09:08:25Z</time>
      </trkpt>
      <trkpt lat="47.17545" lon="6.14134">
        <ele>590.1</ele>
        <time>2022-08-10T09:08:26Z</time>
      </trkpt>
      <trkpt lat="47.17545" lon="6.14134">
        <ele>590.1</ele>
        <time>2022-08-10T09:08:27Z</time>
      </trkpt>
      <trkpt lat="47.17545" lon="6.14134">
        <ele>590.1</ele>
        <time>2022-08-10T09:08:28Z</time>
      </trkpt>
      <trkpt lat="47.17545" lon="6.14134">
        <ele>590.1</ele>
        <time>2022-08-10T09:08:29Z</time>
      </trkpt>
      <trkpt lat="47.17545" lon="6.14134">
        <ele>590.1</ele>
        <time>2022-08-10T09:08:30Z</time>
      </trkpt>
      <trkpt lat="47.17545" lon="6.14134">
        <ele>590.1</ele>
        <time>2022-08-10T09:08:31Z</time>
      </trkpt>
      <trkpt lat="47.17545" lon="6.14134">
        <ele>590.1</ele>
        <time>2022-08-10T09:08:32Z</time>
      </trkpt>
      <trkpt lat="47.17545" lon="6.14134">
        <ele>590.1</ele>
        <time>2022-08-10T09:08:33Z</time>
      </trkpt>
      <trkpt lat="47.17545" lon="6.14134">
        <ele>590.1</ele>
        <time>2022-08-10T09:08:34Z</time>
      </trkpt>
      <trkpt lat="47.17545" lon="6.14134">
        <ele>590.1</ele>
        <time>2022-08-10T09:08:35Z</time>
      </trkpt>
      <trkpt lat="47.17545" lon="6.14134">
        <ele>590.1</ele>
        <time>2022-08-10T09:08:36Z</time>
      </trkpt>
      <trkpt lat="47.17545" lon="6.14134">
        <ele>590.1</ele>
        <time>2022-08-10T09:08:37Z</time>
      </trkpt>
      <trkpt lat="47.17545" lon="6.14134">
        <ele>590.1</ele>
        <time>2022-08-10T09:08:38Z</time>
      </trkpt>
      <trkpt lat="47.17541" lon="6.14144">
        <ele>586.2</ele>
        <time>2022-08-10T09:08:39Z</time>
      </trkpt>
      <trkpt lat="47.17541" lon="6.14146">
        <ele>586.2</ele>
        <time>2022-08-10T09:08:40Z</time>
      </trkpt>
      <trkpt lat="47.1754" lon="6.14149">
        <ele>586</ele>
        <time>2022-08-10T09:08:41Z</time>
      </trkpt>
      <trkpt lat="47.1754" lon="6.14152">
        <ele>585.8</ele>
        <time>2022-08-10T09:08:42Z</time>
      </trkpt>
      <trkpt lat="47.1754" lon="6.14155">
        <ele>585.6</ele>
        <time>2022-08-10T09:08:43Z</time>
      </trkpt>
      <trkpt lat="47.17539" lon="6.14158">
        <ele>585.6</ele>
        <time>2022-08-10T09:08:44Z</time>
      </trkpt>
      <trkpt lat="47.17539" lon="6.14161">
        <ele>585.7</ele>
        <time>2022-08-10T09:08:45Z</time>
      </trkpt>
      <trkpt lat="47.17539" lon="6.14164">
        <ele>585.9</ele>
        <time>2022-08-10T09:08:46Z</time>
      </trkpt>
      <trkpt lat="47.17539" lon="6.14166">
        <ele>586.2</ele>
        <time>2022-08-10T09:08:47Z</time>
      </trkpt>
      <trkpt lat="47.17538" lon="6.14168">
        <ele>586.5</ele>
        <time>2022-08-10T09:08:48Z</time>
      </trkpt>
      <trkpt lat="47.17538" lon="6.1417">
        <ele>586.9</ele>
        <time>2022-08-10T09:08:49Z</time>
      </trkpt>
      <trkpt lat="47.17538" lon="6.14172">
        <ele>587.2</ele>
        <time>2022-08-10T09:08:50Z</time>
      </trkpt>
      <trkpt lat="47.17538" lon="6.14173">
        <ele>587.4</ele>
        <time>2022-08-10T09:08:51Z</time>
      </trkpt>
      <trkpt lat="47.17537" lon="6.14174">
        <ele>587.7</ele>
        <time>2022-08-10T09:08:52Z</time>
      </trkpt>
      <trkpt lat="47.17537" lon="6.14174">
        <ele>587.7</ele>
        <time>2022-08-10T09:08:53Z</time>
      </trkpt>
      <trkpt lat="47.17537" lon="6.14174">
        <ele>587.7</ele>
        <time>2022-08-10T09:08:54Z</time>
      </trkpt>
      <trkpt lat="47.17537" lon="6.14174">
        <ele>587.7</ele>
        <time>2022-08-10T09:08:55Z</time>
      </trkpt>
      <trkpt lat="47.17537" lon="6.14174">
        <ele>587.7</ele>
        <time>2022-08-10T09:08:56Z</time>
      </trkpt>
      <trkpt lat="47.17533" lon="6.14182">
        <ele>588.6</ele>
        <time>2022-08-10T09:08:57Z</time>
      </trkpt>
      <trkpt lat="47.17531" lon="6.14185">
        <ele>588.8</ele>
        <time>2022-08-10T09:08:58Z</time>
      </trkpt>
      <trkpt lat="47.1753" lon="6.14186">
        <ele>589.1</ele>
        <time>2022-08-10T09:08:59Z</time>
      </trkpt>
      <trkpt lat="47.17529" lon="6.14186">
        <ele>589.3</ele>
        <time>2022-08-10T09:09:00Z</time>
      </trkpt>
      <trkpt lat="47.17528" lon="6.14186">
        <ele>589.5</ele>
        <time>2022-08-10T09:09:01Z</time>
      </trkpt>
      <trkpt lat="47.17528" lon="6.14186">
        <ele>589.5</ele>
        <time>2022-08-10T09:09:02Z</time>
      </trkpt>
      <trkpt lat="47.17528" lon="6.14186">
        <ele>589.5</ele>
        <time>2022-08-10T09:09:03Z</time>
      </trkpt>
      <trkpt lat="47.17528" lon="6.14186">
        <ele>589.5</ele>
        <time>2022-08-10T09:09:04Z</time>
      </trkpt>
      <trkpt lat="47.17528" lon="6.14186">
        <ele>589.5</ele>
        <time>2022-08-10T09:09:05Z</time>
      </trkpt>
      <trkpt lat="47.17528" lon="6.14186">
        <ele>589.5</ele>
        <time>2022-08-10T09:09:06Z</time>
      </trkpt>
      <trkpt lat="47.17528" lon="6.14186">
        <ele>589.5</ele>
        <time>2022-08-10T09:09:07Z</time>
      </trkpt>
      <trkpt lat="47.17528" lon="6.14186">
        <ele>589.5</ele>
        <time>2022-08-10T09:09:08Z</time>
      </trkpt>
      <trkpt lat="47.17528" lon="6.14186">
        <ele>589.5</ele>
        <time>2022-08-10T09:09:09Z</time>
      </trkpt>
      <trkpt lat="47.17519" lon="6.14187">
        <ele>591.2</ele>
        <time>2022-08-10T09:09:10Z</time>
      </trkpt>
      <trkpt lat="47.17518" lon="6.14187">
        <ele>591.3</ele>
        <time>2022-08-10T09:09:11Z</time>
      </trkpt>
      <trkpt lat="47.17517" lon="6.14187">
        <ele>591.5</ele>
        <time>2022-08-10T09:09:12Z</time>
      </trkpt>
      <trkpt lat="47.17516" lon="6.14187">
        <ele>591.7</ele>
        <time>2022-08-10T09:09:13Z</time>
      </trkpt>
      <trkpt lat="47.17516" lon="6.14187">
        <ele>591.7</ele>
        <time>2022-08-10T09:09:14Z</time>
      </trkpt>
      <trkpt lat="47.17516" lon="6.14187">
        <ele>591.7</ele>
        <time>2022-08-10T09:09:15Z</time>
      </trkpt>
      <trkpt lat="47.17516" lon="6.14187">
        <ele>591.7</ele>
        <time>2022-08-10T09:09:16Z</time>
      </trkpt>
      <trkpt lat="47.17516" lon="6.14187">
        <ele>591.7</ele>
        <time>2022-08-10T09:09:17Z</time>
      </trkpt>
      <trkpt lat="47.17516" lon="6.14187">
        <ele>591.7</ele>
        <time>2022-08-10T09:09:18Z</time>
      </trkpt>
      <trkpt lat="47.17516" lon="6.14187">
        <ele>591.7</ele>
        <time>2022-08-10T09:09:19Z</time>
      </trkpt>
      <trkpt lat="47.17516" lon="6.14187">
        <ele>591.7</ele>
        <time>2022-08-10T09:09:20Z</time>
      </trkpt>
      <trkpt lat="47.17516" lon="6.14187">
        <ele>591.7</ele>
        <time>2022-08-10T09:09:21Z</time>
      </trkpt>
      <trkpt lat="47.17507" lon="6.14185">
        <ele>593.5</ele>
        <time>2022-08-10T09:09:22Z</time>
      </trkpt>
      <trkpt lat="47.17506" lon="6.14185">
        <ele>593.8</ele>
        <time>2022-08-10T09:09:23Z</time>
      </trkpt>
      <trkpt lat="47.17504" lon="6.14184">
        <ele>594</ele>
        <time>2022-08-10T09:09:24Z</time>
      </trkpt>
      <trkpt lat="47.17503" lon="6.14184">
        <ele>594.3</ele>
        <time>2022-08-10T09:09:25Z</time>
      </trkpt>
      <trkpt lat="47.17503" lon="6.14184">
        <ele>594.3</ele>
        <time>2022-08-10T09:09:26Z</time>
      </trkpt>
      <trkpt lat="47.17503" lon="6.14184">
        <ele>594.3</ele>
        <time>2022-08-10T09:09:27Z</time>
      </trkpt>
      <trkpt lat="47.17503" lon="6.14184">
        <ele>594.3</ele>
        <time>2022-08-10T09:09:28Z</time>
      </trkpt>
      <trkpt lat="47.17496" lon="6.14182">
        <ele>595.5</ele>
        <time>2022-08-10T09:09:29Z</time>
      </trkpt>
      <trkpt lat="47.17494" lon="6.14181">
        <ele>596</ele>
        <time>2022-08-10T09:09:30Z</time>
      </trkpt>
      <trkpt lat="47.17492" lon="6.1418">
        <ele>596.5</ele>
        <time>2022-08-10T09:09:31Z</time>
      </trkpt>
      <trkpt lat="47.17491" lon="6.14178">
        <ele>597</ele>
        <time>2022-08-10T09:09:32Z</time>
      </trkpt>
      <trkpt lat="47.17489" lon="6.14177">
        <ele>597.9</ele>
        <time>2022-08-10T09:09:33Z</time>
      </trkpt>
      <trkpt lat="47.17488" lon="6.14176">
        <ele>598.2</ele>
        <time>2022-08-10T09:09:34Z</time>
      </trkpt>
      <trkpt lat="47.17487" lon="6.14175">
        <ele>598.5</ele>
        <time>2022-08-10T09:09:35Z</time>
      </trkpt>
      <trkpt lat="47.17487" lon="6.14175">
        <ele>598.5</ele>
        <time>2022-08-10T09:09:36Z</time>
      </trkpt>
      <trkpt lat="47.17483" lon="6.14174">
        <ele>599.4</ele>
        <time>2022-08-10T09:09:37Z</time>
      </trkpt>
      <trkpt lat="47.17481" lon="6.14173">
        <ele>599.9</ele>
        <time>2022-08-10T09:09:38Z</time>
      </trkpt>
      <trkpt lat="47.17479" lon="6.14172">
        <ele>600.4</ele>
        <time>2022-08-10T09:09:39Z</time>
      </trkpt>
      <trkpt lat="47.17477" lon="6.14171">
        <ele>600.9</ele>
        <time>2022-08-10T09:09:40Z</time>
      </trkpt>
      <trkpt lat="47.17475" lon="6.1417">
        <ele>601.4</ele>
        <time>2022-08-10T09:09:41Z</time>
      </trkpt>
      <trkpt lat="47.17473" lon="6.14168">
        <ele>601.9</ele>
        <time>2022-08-10T09:09:42Z</time>
      </trkpt>
      <trkpt lat="47.17471" lon="6.14167">
        <ele>602.4</ele>
        <time>2022-08-10T09:09:43Z</time>
      </trkpt>
      <trkpt lat="47.17469" lon="6.14166">
        <ele>602.9</ele>
        <time>2022-08-10T09:09:44Z</time>
      </trkpt>
      <trkpt lat="47.17466" lon="6.14165">
        <ele>603.5</ele>
        <time>2022-08-10T09:09:45Z</time>
      </trkpt>
      <trkpt lat="47.17464" lon="6.14164">
        <ele>604.3</ele>
        <time>2022-08-10T09:09:46Z</time>
      </trkpt>
      <trkpt lat="47.17462" lon="6.14163">
        <ele>605</ele>
        <time>2022-08-10T09:09:47Z</time>
      </trkpt>
      <trkpt lat="47.17461" lon="6.14162">
        <ele>605.9</ele>
        <time>2022-08-10T09:09:48Z</time>
      </trkpt>
      <trkpt lat="47.17459" lon="6.14161">
        <ele>606.7</ele>
        <time>2022-08-10T09:09:49Z</time>
      </trkpt>
      <trkpt lat="47.17457" lon="6.1416">
        <ele>607.5</ele>
        <time>2022-08-10T09:09:50Z</time>
      </trkpt>
      <trkpt lat="47.17456" lon="6.14158">
        <ele>608.1</ele>
        <time>2022-08-10T09:09:51Z</time>
      </trkpt>
      <trkpt lat="47.17454" lon="6.14156">
        <ele>609</ele>
        <time>2022-08-10T09:09:52Z</time>
      </trkpt>
      <trkpt lat="47.17451" lon="6.14155">
        <ele>609.7</ele>
        <time>2022-08-10T09:09:53Z</time>
      </trkpt>
      <trkpt lat="47.17449" lon="6.14153">
        <ele>610.2</ele>
        <time>2022-08-10T09:09:54Z</time>
      </trkpt>
      <trkpt lat="47.17447" lon="6.14152">
        <ele>610.9</ele>
        <time>2022-08-10T09:09:55Z</time>
      </trkpt>
      <trkpt lat="47.17445" lon="6.14151">
        <ele>611.4</ele>
        <time>2022-08-10T09:09:56Z</time>
      </trkpt>
      <trkpt lat="47.17443" lon="6.14149">
        <ele>611.9</ele>
        <time>2022-08-10T09:09:57Z</time>
      </trkpt>
      <trkpt lat="47.17441" lon="6.14148">
        <ele>612.3</ele>
        <time>2022-08-10T09:09:58Z</time>
      </trkpt>
      <trkpt lat="47.17439" lon="6.14146">
        <ele>612.6</ele>
        <time>2022-08-10T09:09:59Z</time>
      </trkpt>
      <trkpt lat="47.17437" lon="6.14144">
        <ele>613</ele>
        <time>2022-08-10T09:10:00Z</time>
      </trkpt>
      <trkpt lat="47.17434" lon="6.14143">
        <ele>613.2</ele>
        <time>2022-08-10T09:10:01Z</time>
      </trkpt>
      <trkpt lat="47.17431" lon="6.14141">
        <ele>613.7</ele>
        <time>2022-08-10T09:10:02Z</time>
      </trkpt>
      <trkpt lat="47.17429" lon="6.14139">
        <ele>614.7</ele>
        <time>2022-08-10T09:10:03Z</time>
      </trkpt>
      <trkpt lat="47.17426" lon="6.14137">
        <ele>615.3</ele>
        <time>2022-08-10T09:10:04Z</time>
      </trkpt>
      <trkpt lat="47.17424" lon="6.14134">
        <ele>615.8</ele>
        <time>2022-08-10T09:10:05Z</time>
      </trkpt>
      <trkpt lat="47.17422" lon="6.14132">
        <ele>616.2</ele>
        <time>2022-08-10T09:10:06Z</time>
      </trkpt>
      <trkpt lat="47.1742" lon="6.1413">
        <ele>616.6</ele>
        <time>2022-08-10T09:10:07Z</time>
      </trkpt>
      <trkpt lat="47.17418" lon="6.14128">
        <ele>616.9</ele>
        <time>2022-08-10T09:10:08Z</time>
      </trkpt>
      <trkpt lat="47.17417" lon="6.14126">
        <ele>617</ele>
        <time>2022-08-10T09:10:09Z</time>
      </trkpt>
      <trkpt lat="47.17415" lon="6.14124">
        <ele>617.5</ele>
        <time>2022-08-10T09:10:10Z</time>
      </trkpt>
      <trkpt lat="47.17414" lon="6.14122">
        <ele>617.7</ele>
        <time>2022-08-10T09:10:11Z</time>
      </trkpt>
      <trkpt lat="47.17414" lon="6.1412">
        <ele>618.3</ele>
        <time>2022-08-10T09:10:12Z</time>
      </trkpt>
      <trkpt lat="47.17413" lon="6.14119">
        <ele>618.7</ele>
        <time>2022-08-10T09:10:13Z</time>
      </trkpt>
      <trkpt lat="47.17411" lon="6.14117">
        <ele>619.2</ele>
        <time>2022-08-10T09:10:14Z</time>
      </trkpt>
      <trkpt lat="47.1741" lon="6.14115">
        <ele>619.7</ele>
        <time>2022-08-10T09:10:15Z</time>
      </trkpt>
      <trkpt lat="47.17409" lon="6.14112">
        <ele>619.9</ele>
        <time>2022-08-10T09:10:16Z</time>
      </trkpt>
      <trkpt lat="47.17407" lon="6.14109">
        <ele>620.3</ele>
        <time>2022-08-10T09:10:17Z</time>
      </trkpt>
      <trkpt lat="47.17406" lon="6.14106">
        <ele>620.8</ele>
        <time>2022-08-10T09:10:18Z</time>
      </trkpt>
      <trkpt lat="47.17404" lon="6.14103">
        <ele>621.3</ele>
        <time>2022-08-10T09:10:19Z</time>
      </trkpt>
      <trkpt lat="47.17402" lon="6.14101">
        <ele>621.6</ele>
        <time>2022-08-10T09:10:20Z</time>
      </trkpt>
      <trkpt lat="47.174" lon="6.14099">
        <ele>621.8</ele>
        <time>2022-08-10T09:10:21Z</time>
      </trkpt>
      <trkpt lat="47.17398" lon="6.14096">
        <ele>622.3</ele>
        <time>2022-08-10T09:10:22Z</time>
      </trkpt>
      <trkpt lat="47.17396" lon="6.14094">
        <ele>622.9</ele>
        <time>2022-08-10T09:10:23Z</time>
      </trkpt>
      <trkpt lat="47.17394" lon="6.14091">
        <ele>623.1</ele>
        <time>2022-08-10T09:10:24Z</time>
      </trkpt>
      <trkpt lat="47.17392" lon="6.14089">
        <ele>623.6</ele>
        <time>2022-08-10T09:10:25Z</time>
      </trkpt>
      <trkpt lat="47.1739" lon="6.14087">
        <ele>623.8</ele>
        <time>2022-08-10T09:10:26Z</time>
      </trkpt>
      <trkpt lat="47.17387" lon="6.14085">
        <ele>624.3</ele>
        <time>2022-08-10T09:10:27Z</time>
      </trkpt>
      <trkpt lat="47.17385" lon="6.14084">
        <ele>624.9</ele>
        <time>2022-08-10T09:10:28Z</time>
      </trkpt>
      <trkpt lat="47.17382" lon="6.14082">
        <ele>625.5</ele>
        <time>2022-08-10T09:10:29Z</time>
      </trkpt>
      <trkpt lat="47.1738" lon="6.14081">
        <ele>626.2</ele>
        <time>2022-08-10T09:10:30Z</time>
      </trkpt>
      <trkpt lat="47.17377" lon="6.1408">
        <ele>627.1</ele>
        <time>2022-08-10T09:10:31Z</time>
      </trkpt>
      <trkpt lat="47.17374" lon="6.14078">
        <ele>628</ele>
        <time>2022-08-10T09:10:32Z</time>
      </trkpt>
      <trkpt lat="47.17372" lon="6.14077">
        <ele>629</ele>
        <time>2022-08-10T09:10:33Z</time>
      </trkpt>
      <trkpt lat="47.1737" lon="6.14075">
        <ele>630</ele>
        <time>2022-08-10T09:10:34Z</time>
      </trkpt>
      <trkpt lat="47.17368" lon="6.14075">
        <ele>631</ele>
        <time>2022-08-10T09:10:35Z</time>
      </trkpt>
      <trkpt lat="47.17366" lon="6.14072">
        <ele>631.5</ele>
        <time>2022-08-10T09:10:36Z</time>
      </trkpt>
      <trkpt lat="47.17365" lon="6.1407">
        <ele>632.1</ele>
        <time>2022-08-10T09:10:37Z</time>
      </trkpt>
      <trkpt lat="47.17363" lon="6.14069">
        <ele>632.8</ele>
        <time>2022-08-10T09:10:38Z</time>
      </trkpt>
      <trkpt lat="47.17361" lon="6.14068">
        <ele>633.1</ele>
        <time>2022-08-10T09:10:39Z</time>
      </trkpt>
      <trkpt lat="47.1736" lon="6.14067">
        <ele>633.2</ele>
        <time>2022-08-10T09:10:40Z</time>
      </trkpt>
      <trkpt lat="47.17358" lon="6.14066">
        <ele>633.4</ele>
        <time>2022-08-10T09:10:41Z</time>
      </trkpt>
      <trkpt lat="47.17355" lon="6.14064">
        <ele>633.6</ele>
        <time>2022-08-10T09:10:42Z</time>
      </trkpt>
      <trkpt lat="47.17353" lon="6.14064">
        <ele>634.1</ele>
        <time>2022-08-10T09:10:43Z</time>
      </trkpt>
      <trkpt lat="47.1735" lon="6.14064">
        <ele>634.5</ele>
        <time>2022-08-10T09:10:44Z</time>
      </trkpt>
      <trkpt lat="47.17348" lon="6.14063">
        <ele>635.2</ele>
        <time>2022-08-10T09:10:45Z</time>
      </trkpt>
      <trkpt lat="47.17346" lon="6.14063">
        <ele>636</ele>
        <time>2022-08-10T09:10:46Z</time>
      </trkpt>
      <trkpt lat="47.17344" lon="6.14062">
        <ele>636</ele>
        <time>2022-08-10T09:10:47Z</time>
      </trkpt>
      <trkpt lat="47.17342" lon="6.14061">
        <ele>636.5</ele>
        <time>2022-08-10T09:10:48Z</time>
      </trkpt>
      <trkpt lat="47.1734" lon="6.14059">
        <ele>636.8</ele>
        <time>2022-08-10T09:10:49Z</time>
      </trkpt>
      <trkpt lat="47.17338" lon="6.14058">
        <ele>637.5</ele>
        <time>2022-08-10T09:10:50Z</time>
      </trkpt>
      <trkpt lat="47.17335" lon="6.14056">
        <ele>637.9</ele>
        <time>2022-08-10T09:10:51Z</time>
      </trkpt>
      <trkpt lat="47.17332" lon="6.14055">
        <ele>638.3</ele>
        <time>2022-08-10T09:10:52Z</time>
      </trkpt>
      <trkpt lat="47.17329" lon="6.14053">
        <ele>638.7</ele>
        <time>2022-08-10T09:10:53Z</time>
      </trkpt>
      <trkpt lat="47.17326" lon="6.14051">
        <ele>638.9</ele>
        <time>2022-08-10T09:10:54Z</time>
      </trkpt>
      <trkpt lat="47.17324" lon="6.14046">
        <ele>637.9</ele>
        <time>2022-08-10T09:10:55Z</time>
      </trkpt>
      <trkpt lat="47.17322" lon="6.14045">
        <ele>638.1</ele>
        <time>2022-08-10T09:10:56Z</time>
      </trkpt>
      <trkpt lat="47.1732" lon="6.14044">
        <ele>638.6</ele>
        <time>2022-08-10T09:10:57Z</time>
      </trkpt>
      <trkpt lat="47.17318" lon="6.14043">
        <ele>639.3</ele>
        <time>2022-08-10T09:10:58Z</time>
      </trkpt>
      <trkpt lat="47.17314" lon="6.14034">
        <ele>638</ele>
        <time>2022-08-10T09:10:59Z</time>
      </trkpt>
      <trkpt lat="47.17311" lon="6.14033">
        <ele>638.2</ele>
        <time>2022-08-10T09:11:00Z</time>
      </trkpt>
      <trkpt lat="47.17308" lon="6.14032">
        <ele>638.2</ele>
        <time>2022-08-10T09:11:01Z</time>
      </trkpt>
      <trkpt lat="47.17305" lon="6.14031">
        <ele>638.6</ele>
        <time>2022-08-10T09:11:02Z</time>
      </trkpt>
      <trkpt lat="47.17303" lon="6.1403">
        <ele>639</ele>
        <time>2022-08-10T09:11:03Z</time>
      </trkpt>
      <trkpt lat="47.173" lon="6.14029">
        <ele>639.8</ele>
        <time>2022-08-10T09:11:04Z</time>
      </trkpt>
      <trkpt lat="47.17298" lon="6.14015">
        <ele>635.7</ele>
        <time>2022-08-10T09:11:05Z</time>
      </trkpt>
      <trkpt lat="47.17296" lon="6.14013">
        <ele>636.4</ele>
        <time>2022-08-10T09:11:06Z</time>
      </trkpt>
      <trkpt lat="47.17294" lon="6.14009">
        <ele>635.9</ele>
        <time>2022-08-10T09:11:07Z</time>
      </trkpt>
      <trkpt lat="47.17291" lon="6.14006">
        <ele>635.7</ele>
        <time>2022-08-10T09:11:08Z</time>
      </trkpt>
      <trkpt lat="47.17289" lon="6.14003">
        <ele>635.9</ele>
        <time>2022-08-10T09:11:09Z</time>
      </trkpt>
      <trkpt lat="47.17286" lon="6.14001">
        <ele>635.9</ele>
        <time>2022-08-10T09:11:10Z</time>
      </trkpt>
      <trkpt lat="47.17283" lon="6.13998">
        <ele>636</ele>
        <time>2022-08-10T09:11:11Z</time>
      </trkpt>
      <trkpt lat="47.17282" lon="6.13994">
        <ele>635.9</ele>
        <time>2022-08-10T09:11:12Z</time>
      </trkpt>
      <trkpt lat="47.1728" lon="6.13991">
        <ele>635.5</ele>
        <time>2022-08-10T09:11:13Z</time>
      </trkpt>
      <trkpt lat="47.17278" lon="6.13987">
        <ele>635.6</ele>
        <time>2022-08-10T09:11:14Z</time>
      </trkpt>
      <trkpt lat="47.17276" lon="6.13985">
        <ele>635.7</ele>
        <time>2022-08-10T09:11:15Z</time>
      </trkpt>
      <trkpt lat="47.17275" lon="6.13982">
        <ele>635.2</ele>
        <time>2022-08-10T09:11:16Z</time>
      </trkpt>
      <trkpt lat="47.17273" lon="6.13981">
        <ele>634.7</ele>
        <time>2022-08-10T09:11:17Z</time>
      </trkpt>
      <trkpt lat="47.17271" lon="6.13979">
        <ele>634.5</ele>
        <time>2022-08-10T09:11:18Z</time>
      </trkpt>
      <trkpt lat="47.17269" lon="6.13977">
        <ele>634.1</ele>
        <time>2022-08-10T09:11:19Z</time>
      </trkpt>
      <trkpt lat="47.17268" lon="6.13975">
        <ele>634</ele>
        <time>2022-08-10T09:11:20Z</time>
      </trkpt>
      <trkpt lat="47.17266" lon="6.13974">
        <ele>633.8</ele>
        <time>2022-08-10T09:11:21Z</time>
      </trkpt>
      <trkpt lat="47.17264" lon="6.13972">
        <ele>633.7</ele>
        <time>2022-08-10T09:11:22Z</time>
      </trkpt>
      <trkpt lat="47.17262" lon="6.13969">
        <ele>633.5</ele>
        <time>2022-08-10T09:11:23Z</time>
      </trkpt>
      <trkpt lat="47.1726" lon="6.13966">
        <ele>633</ele>
        <time>2022-08-10T09:11:24Z</time>
      </trkpt>
      <trkpt lat="47.17258" lon="6.13963">
        <ele>632.9</ele>
        <time>2022-08-10T09:11:25Z</time>
      </trkpt>
      <trkpt lat="47.17256" lon="6.1396">
        <ele>632.7</ele>
        <time>2022-08-10T09:11:26Z</time>
      </trkpt>
      <trkpt lat="47.17252" lon="6.13954">
        <ele>633.1</ele>
        <time>2022-08-10T09:11:27Z</time>
      </trkpt>
      <trkpt lat="47.17251" lon="6.13951">
        <ele>633.1</ele>
        <time>2022-08-10T09:11:28Z</time>
      </trkpt>
      <trkpt lat="47.17249" lon="6.13948">
        <ele>633.1</ele>
        <time>2022-08-10T09:11:29Z</time>
      </trkpt>
      <trkpt lat="47.17248" lon="6.13946">
        <ele>632.9</ele>
        <time>2022-08-10T09:11:30Z</time>
      </trkpt>
      <trkpt lat="47.17244" lon="6.13939">
        <ele>631.9</ele>
        <time>2022-08-10T09:11:31Z</time>
      </trkpt>
      <trkpt lat="47.17242" lon="6.13934">
        <ele>631.3</ele>
        <time>2022-08-10T09:11:32Z</time>
      </trkpt>
      <trkpt lat="47.1724" lon="6.13922">
        <ele>629.2</ele>
        <time>2022-08-10T09:11:33Z</time>
      </trkpt>
      <trkpt lat="47.17238" lon="6.13911">
        <ele>625.9</ele>
        <time>2022-08-10T09:11:34Z</time>
      </trkpt>
      <trkpt lat="47.17237" lon="6.13908">
        <ele>625.4</ele>
        <time>2022-08-10T09:11:35Z</time>
      </trkpt>
      <trkpt lat="47.17235" lon="6.13908">
        <ele>625.3</ele>
        <time>2022-08-10T09:11:36Z</time>
      </trkpt>
      <trkpt lat="47.17233" lon="6.13905">
        <ele>625</ele>
        <time>2022-08-10T09:11:37Z</time>
      </trkpt>
      <trkpt lat="47.17231" lon="6.13902">
        <ele>624.8</ele>
        <time>2022-08-10T09:11:38Z</time>
      </trkpt>
      <trkpt lat="47.1723" lon="6.13899">
        <ele>624.5</ele>
        <time>2022-08-10T09:11:39Z</time>
      </trkpt>
      <trkpt lat="47.17229" lon="6.13896">
        <ele>624.2</ele>
        <time>2022-08-10T09:11:40Z</time>
      </trkpt>
      <trkpt lat="47.17227" lon="6.13893">
        <ele>623.9</ele>
        <time>2022-08-10T09:11:41Z</time>
      </trkpt>
      <trkpt lat="47.17226" lon="6.13892">
        <ele>624.2</ele>
        <time>2022-08-10T09:11:42Z</time>
      </trkpt>
      <trkpt lat="47.17225" lon="6.1389">
        <ele>624.6</ele>
        <time>2022-08-10T09:11:43Z</time>
      </trkpt>
      <trkpt lat="47.17223" lon="6.13889">
        <ele>625.2</ele>
        <time>2022-08-10T09:11:44Z</time>
      </trkpt>
      <trkpt lat="47.1722" lon="6.13887">
        <ele>625.7</ele>
        <time>2022-08-10T09:11:45Z</time>
      </trkpt>
      <trkpt lat="47.17218" lon="6.13874">
        <ele>624.1</ele>
        <time>2022-08-10T09:11:46Z</time>
      </trkpt>
      <trkpt lat="47.17215" lon="6.13871">
        <ele>624.4</ele>
        <time>2022-08-10T09:11:47Z</time>
      </trkpt>
      <trkpt lat="47.17212" lon="6.13867">
        <ele>624.2</ele>
        <time>2022-08-10T09:11:48Z</time>
      </trkpt>
      <trkpt lat="47.17209" lon="6.13864">
        <ele>624.1</ele>
        <time>2022-08-10T09:11:49Z</time>
      </trkpt>
      <trkpt lat="47.17206" lon="6.1386">
        <ele>622.6</ele>
        <time>2022-08-10T09:11:50Z</time>
      </trkpt>
      <trkpt lat="47.17205" lon="6.13858">
        <ele>622.3</ele>
        <time>2022-08-10T09:11:51Z</time>
      </trkpt>
      <trkpt lat="47.17204" lon="6.13856">
        <ele>622</ele>
        <time>2022-08-10T09:11:52Z</time>
      </trkpt>
      <trkpt lat="47.17202" lon="6.13855">
        <ele>621.6</ele>
        <time>2022-08-10T09:11:53Z</time>
      </trkpt>
      <trkpt lat="47.172" lon="6.13854">
        <ele>621.7</ele>
        <time>2022-08-10T09:11:54Z</time>
      </trkpt>
      <trkpt lat="47.17198" lon="6.13853">
        <ele>621.4</ele>
        <time>2022-08-10T09:11:55Z</time>
      </trkpt>
      <trkpt lat="47.17197" lon="6.13852">
        <ele>621.1</ele>
        <time>2022-08-10T09:11:56Z</time>
      </trkpt>
      <trkpt lat="47.17195" lon="6.1385">
        <ele>621.1</ele>
        <time>2022-08-10T09:11:57Z</time>
      </trkpt>
      <trkpt lat="47.17193" lon="6.13847">
        <ele>621.1</ele>
        <time>2022-08-10T09:11:58Z</time>
      </trkpt>
      <trkpt lat="47.17192" lon="6.13845">
        <ele>621</ele>
        <time>2022-08-10T09:11:59Z</time>
      </trkpt>
      <trkpt lat="47.17192" lon="6.1384">
        <ele>620.9</ele>
        <time>2022-08-10T09:12:00Z</time>
      </trkpt>
      <trkpt lat="47.17193" lon="6.13836">
        <ele>620.8</ele>
        <time>2022-08-10T09:12:01Z</time>
      </trkpt>
      <trkpt lat="47.17193" lon="6.13832">
        <ele>620.3</ele>
        <time>2022-08-10T09:12:02Z</time>
      </trkpt>
      <trkpt lat="47.17193" lon="6.1383">
        <ele>620.1</ele>
        <time>2022-08-10T09:12:03Z</time>
      </trkpt>
      <trkpt lat="47.17193" lon="6.13828">
        <ele>619.7</ele>
        <time>2022-08-10T09:12:04Z</time>
      </trkpt>
      <trkpt lat="47.17192" lon="6.13825">
        <ele>619.4</ele>
        <time>2022-08-10T09:12:05Z</time>
      </trkpt>
      <trkpt lat="47.1719" lon="6.13819">
        <ele>618.6</ele>
        <time>2022-08-10T09:12:06Z</time>
      </trkpt>
      <trkpt lat="47.17189" lon="6.13818">
        <ele>618.5</ele>
        <time>2022-08-10T09:12:07Z</time>
      </trkpt>
      <trkpt lat="47.17187" lon="6.13816">
        <ele>618.1</ele>
        <time>2022-08-10T09:12:08Z</time>
      </trkpt>
      <trkpt lat="47.17186" lon="6.13813">
        <ele>616.9</ele>
        <time>2022-08-10T09:12:09Z</time>
      </trkpt>
      <trkpt lat="47.17184" lon="6.13811">
        <ele>617</ele>
        <time>2022-08-10T09:12:10Z</time>
      </trkpt>
      <trkpt lat="47.17182" lon="6.13807">
        <ele>616.1</ele>
        <time>2022-08-10T09:12:11Z</time>
      </trkpt>
      <trkpt lat="47.1718" lon="6.13803">
        <ele>615</ele>
        <time>2022-08-10T09:12:12Z</time>
      </trkpt>
      <trkpt lat="47.17177" lon="6.138">
        <ele>614.8</ele>
        <time>2022-08-10T09:12:13Z</time>
      </trkpt>
      <trkpt lat="47.17175" lon="6.13797">
        <ele>614.2</ele>
        <time>2022-08-10T09:12:14Z</time>
      </trkpt>
      <trkpt lat="47.17173" lon="6.13795">
        <ele>613.9</ele>
        <time>2022-08-10T09:12:15Z</time>
      </trkpt>
      <trkpt lat="47.17172" lon="6.1379">
        <ele>614.3</ele>
        <time>2022-08-10T09:12:17Z</time>
      </trkpt>
      <trkpt lat="47.17172" lon="6.1379">
        <ele>614.3</ele>
        <time>2022-08-10T09:12:18Z</time>
      </trkpt>
      <trkpt lat="47.17172" lon="6.1379">
        <ele>614.3</ele>
        <time>2022-08-10T09:12:19Z</time>
      </trkpt>
      <trkpt lat="47.17172" lon="6.1379">
        <ele>614.3</ele>
        <time>2022-08-10T09:12:20Z</time>
      </trkpt>
      <trkpt lat="47.17172" lon="6.1379">
        <ele>614.3</ele>
        <time>2022-08-10T09:12:21Z</time>
      </trkpt>
      <trkpt lat="47.17172" lon="6.1379">
        <ele>614.3</ele>
        <time>2022-08-10T09:12:22Z</time>
      </trkpt>
      <trkpt lat="47.17172" lon="6.1379">
        <ele>614.3</ele>
        <time>2022-08-10T09:12:23Z</time>
      </trkpt>
      <trkpt lat="47.17172" lon="6.13773">
        <ele>613.5</ele>
        <time>2022-08-10T09:12:24Z</time>
      </trkpt>
      <trkpt lat="47.17172" lon="6.13772">
        <ele>613.9</ele>
        <time>2022-08-10T09:12:25Z</time>
      </trkpt>
      <trkpt lat="47.17172" lon="6.13768">
        <ele>613</ele>
        <time>2022-08-10T09:12:26Z</time>
      </trkpt>
      <trkpt lat="47.17171" lon="6.13767">
        <ele>613.4</ele>
        <time>2022-08-10T09:12:27Z</time>
      </trkpt>
      <trkpt lat="47.17171" lon="6.13767">
        <ele>613.4</ele>
        <time>2022-08-10T09:12:28Z</time>
      </trkpt>
      <trkpt lat="47.17171" lon="6.13767">
        <ele>613.4</ele>
        <time>2022-08-10T09:12:29Z</time>
      </trkpt>
      <trkpt lat="47.17168" lon="6.13762">
        <ele>613.6</ele>
        <time>2022-08-10T09:12:30Z</time>
      </trkpt>
      <trkpt lat="47.17166" lon="6.1376">
        <ele>613.5</ele>
        <time>2022-08-10T09:12:31Z</time>
      </trkpt>
      <trkpt lat="47.17164" lon="6.13759">
        <ele>613.7</ele>
        <time>2022-08-10T09:12:32Z</time>
      </trkpt>
      <trkpt lat="47.17163" lon="6.13757">
        <ele>613.9</ele>
        <time>2022-08-10T09:12:33Z</time>
      </trkpt>
      <trkpt lat="47.17161" lon="6.13754">
        <ele>613.9</ele>
        <time>2022-08-10T09:12:34Z</time>
      </trkpt>
      <trkpt lat="47.1716" lon="6.13752">
        <ele>614.1</ele>
        <time>2022-08-10T09:12:35Z</time>
      </trkpt>
      <trkpt lat="47.17158" lon="6.1375">
        <ele>614.4</ele>
        <time>2022-08-10T09:12:36Z</time>
      </trkpt>
      <trkpt lat="47.17157" lon="6.13747">
        <ele>614.2</ele>
        <time>2022-08-10T09:12:37Z</time>
      </trkpt>
      <trkpt lat="47.17156" lon="6.13744">
        <ele>613.9</ele>
        <time>2022-08-10T09:12:38Z</time>
      </trkpt>
      <trkpt lat="47.17155" lon="6.13742">
        <ele>614</ele>
        <time>2022-08-10T09:12:39Z</time>
      </trkpt>
      <trkpt lat="47.17155" lon="6.13741">
        <ele>614</ele>
        <time>2022-08-10T09:12:40Z</time>
      </trkpt>
      <trkpt lat="47.17155" lon="6.13741">
        <ele>614</ele>
        <time>2022-08-10T09:12:41Z</time>
      </trkpt>
      <trkpt lat="47.17155" lon="6.13741">
        <ele>614</ele>
        <time>2022-08-10T09:12:42Z</time>
      </trkpt>
      <trkpt lat="47.17155" lon="6.13741">
        <ele>614</ele>
        <time>2022-08-10T09:12:43Z</time>
      </trkpt>
      <trkpt lat="47.17155" lon="6.13741">
        <ele>614</ele>
        <time>2022-08-10T09:12:44Z</time>
      </trkpt>
      <trkpt lat="47.17155" lon="6.13741">
        <ele>614</ele>
        <time>2022-08-10T09:12:45Z</time>
      </trkpt>
      <trkpt lat="47.17155" lon="6.13741">
        <ele>614</ele>
        <time>2022-08-10T09:12:46Z</time>
      </trkpt>
      <trkpt lat="47.17155" lon="6.13741">
        <ele>614</ele>
        <time>2022-08-10T09:12:47Z</time>
      </trkpt>
      <trkpt lat="47.17155" lon="6.13741">
        <ele>614</ele>
        <time>2022-08-10T09:12:48Z</time>
      </trkpt>
      <trkpt lat="47.17151" lon="6.13728">
        <ele>612.9</ele>
        <time>2022-08-10T09:12:49Z</time>
      </trkpt>
      <trkpt lat="47.17151" lon="6.13727">
        <ele>612.5</ele>
        <time>2022-08-10T09:12:50Z</time>
      </trkpt>
      <trkpt lat="47.17151" lon="6.13726">
        <ele>612.3</ele>
        <time>2022-08-10T09:12:51Z</time>
      </trkpt>
      <trkpt lat="47.17151" lon="6.13726">
        <ele>612.1</ele>
        <time>2022-08-10T09:12:52Z</time>
      </trkpt>
      <trkpt lat="47.17151" lon="6.13726">
        <ele>612.1</ele>
        <time>2022-08-10T09:12:53Z</time>
      </trkpt>
      <trkpt lat="47.17151" lon="6.13726">
        <ele>612.1</ele>
        <time>2022-08-10T09:12:54Z</time>
      </trkpt>
      <trkpt lat="47.17151" lon="6.13726">
        <ele>612.1</ele>
        <time>2022-08-10T09:12:55Z</time>
      </trkpt>
      <trkpt lat="47.17151" lon="6.13726">
        <ele>612.1</ele>
        <time>2022-08-10T09:12:56Z</time>
      </trkpt>
      <trkpt lat="47.17151" lon="6.13726">
        <ele>612.1</ele>
        <time>2022-08-10T09:12:57Z</time>
      </trkpt>
      <trkpt lat="47.17151" lon="6.13726">
        <ele>612.1</ele>
        <time>2022-08-10T09:12:58Z</time>
      </trkpt>
      <trkpt lat="47.17151" lon="6.13726">
        <ele>612.1</ele>
        <time>2022-08-10T09:12:59Z</time>
      </trkpt>
      <trkpt lat="47.17151" lon="6.13726">
        <ele>612.1</ele>
        <time>2022-08-10T09:13:00Z</time>
      </trkpt>
      <trkpt lat="47.17151" lon="6.13726">
        <ele>612.1</ele>
        <time>2022-08-10T09:13:01Z</time>
      </trkpt>
      <trkpt lat="47.17151" lon="6.13726">
        <ele>612.1</ele>
        <time>2022-08-10T09:13:02Z</time>
      </trkpt>
      <trkpt lat="47.17151" lon="6.13726">
        <ele>612.1</ele>
        <time>2022-08-10T09:13:03Z</time>
      </trkpt>
      <trkpt lat="47.17151" lon="6.13726">
        <ele>612.1</ele>
        <time>2022-08-10T09:13:04Z</time>
      </trkpt>
      <trkpt lat="47.1715" lon="6.13711">
        <ele>608.6</ele>
        <time>2022-08-10T09:13:05Z</time>
      </trkpt>
      <trkpt lat="47.1715" lon="6.1371">
        <ele>608.4</ele>
        <time>2022-08-10T09:13:06Z</time>
      </trkpt>
      <trkpt lat="47.17151" lon="6.13708">
        <ele>608.2</ele>
        <time>2022-08-10T09:13:07Z</time>
      </trkpt>
      <trkpt lat="47.17152" lon="6.13706">
        <ele>607.8</ele>
        <time>2022-08-10T09:13:08Z</time>
      </trkpt>
      <trkpt lat="47.17153" lon="6.13702">
        <ele>607.3</ele>
        <time>2022-08-10T09:13:09Z</time>
      </trkpt>
      <trkpt lat="47.17155" lon="6.13699">
        <ele>606.6</ele>
        <time>2022-08-10T09:13:10Z</time>
      </trkpt>
      <trkpt lat="47.17158" lon="6.13696">
        <ele>605.9</ele>
        <time>2022-08-10T09:13:11Z</time>
      </trkpt>
      <trkpt lat="47.17161" lon="6.13693">
        <ele>605.2</ele>
        <time>2022-08-10T09:13:12Z</time>
      </trkpt>
      <trkpt lat="47.17163" lon="6.1369">
        <ele>604.1</ele>
        <time>2022-08-10T09:13:13Z</time>
      </trkpt>
      <trkpt lat="47.17164" lon="6.13687">
        <ele>602.8</ele>
        <time>2022-08-10T09:13:14Z</time>
      </trkpt>
      <trkpt lat="47.17165" lon="6.13684">
        <ele>601.4</ele>
        <time>2022-08-10T09:13:15Z</time>
      </trkpt>
      <trkpt lat="47.17166" lon="6.13681">
        <ele>600.6</ele>
        <time>2022-08-10T09:13:16Z</time>
      </trkpt>
      <trkpt lat="47.17168" lon="6.13679">
        <ele>599.5</ele>
        <time>2022-08-10T09:13:17Z</time>
      </trkpt>
      <trkpt lat="47.17168" lon="6.13676">
        <ele>598.1</ele>
        <time>2022-08-10T09:13:18Z</time>
      </trkpt>
      <trkpt lat="47.17169" lon="6.13674">
        <ele>597.1</ele>
        <time>2022-08-10T09:13:19Z</time>
      </trkpt>
      <trkpt lat="47.1717" lon="6.13672">
        <ele>596.3</ele>
        <time>2022-08-10T09:13:20Z</time>
      </trkpt>
      <trkpt lat="47.1717" lon="6.1367">
        <ele>595.3</ele>
        <time>2022-08-10T09:13:21Z</time>
      </trkpt>
      <trkpt lat="47.17171" lon="6.13668">
        <ele>593.8</ele>
        <time>2022-08-10T09:13:22Z</time>
      </trkpt>
      <trkpt lat="47.17172" lon="6.13666">
        <ele>593</ele>
        <time>2022-08-10T09:13:23Z</time>
      </trkpt>
      <trkpt lat="47.17172" lon="6.13664">
        <ele>592</ele>
        <time>2022-08-10T09:13:24Z</time>
      </trkpt>
      <trkpt lat="47.17172" lon="6.13662">
        <ele>590.9</ele>
        <time>2022-08-10T09:13:25Z</time>
      </trkpt>
      <trkpt lat="47.17171" lon="6.13661">
        <ele>590.7</ele>
        <time>2022-08-10T09:13:26Z</time>
      </trkpt>
      <trkpt lat="47.17171" lon="6.1366">
        <ele>590.1</ele>
        <time>2022-08-10T09:13:27Z</time>
      </trkpt>
      <trkpt lat="47.17171" lon="6.1366">
        <ele>590.1</ele>
        <time>2022-08-10T09:13:28Z</time>
      </trkpt>
      <trkpt lat="47.17171" lon="6.1366">
        <ele>590.1</ele>
        <time>2022-08-10T09:13:29Z</time>
      </trkpt>
      <trkpt lat="47.17168" lon="6.13658">
        <ele>589.2</ele>
        <time>2022-08-10T09:13:30Z</time>
      </trkpt>
      <trkpt lat="47.17168" lon="6.13657">
        <ele>588.5</ele>
        <time>2022-08-10T09:13:31Z</time>
      </trkpt>
      <trkpt lat="47.17167" lon="6.13656">
        <ele>588.3</ele>
        <time>2022-08-10T09:13:32Z</time>
      </trkpt>
      <trkpt lat="47.17166" lon="6.13654">
        <ele>587.9</ele>
        <time>2022-08-10T09:13:33Z</time>
      </trkpt>
      <trkpt lat="47.17164" lon="6.13653">
        <ele>587.9</ele>
        <time>2022-08-10T09:13:34Z</time>
      </trkpt>
      <trkpt lat="47.17163" lon="6.13653">
        <ele>588.2</ele>
        <time>2022-08-10T09:13:35Z</time>
      </trkpt>
      <trkpt lat="47.17162" lon="6.13653">
        <ele>588.5</ele>
        <time>2022-08-10T09:13:36Z</time>
      </trkpt>
      <trkpt lat="47.17161" lon="6.13652">
        <ele>588.9</ele>
        <time>2022-08-10T09:13:37Z</time>
      </trkpt>
      <trkpt lat="47.17161" lon="6.13651">
        <ele>589.4</ele>
        <time>2022-08-10T09:13:38Z</time>
      </trkpt>
      <trkpt lat="47.1716" lon="6.13651">
        <ele>589.9</ele>
        <time>2022-08-10T09:13:39Z</time>
      </trkpt>
      <trkpt lat="47.1716" lon="6.13651">
        <ele>590.4</ele>
        <time>2022-08-10T09:13:40Z</time>
      </trkpt>
      <trkpt lat="47.1716" lon="6.13651">
        <ele>590.4</ele>
        <time>2022-08-10T09:13:41Z</time>
      </trkpt>
      <trkpt lat="47.1716" lon="6.13651">
        <ele>590.4</ele>
        <time>2022-08-10T09:13:42Z</time>
      </trkpt>
      <trkpt lat="47.1716" lon="6.13651">
        <ele>590.4</ele>
        <time>2022-08-10T09:13:43Z</time>
      </trkpt>
      <trkpt lat="47.1716" lon="6.13651">
        <ele>590.4</ele>
        <time>2022-08-10T09:13:44Z</time>
      </trkpt>
      <trkpt lat="47.17156" lon="6.13649">
        <ele>592.8</ele>
        <time>2022-08-10T09:13:45Z</time>
      </trkpt>
      <trkpt lat="47.17154" lon="6.13647">
        <ele>592.8</ele>
        <time>2022-08-10T09:13:46Z</time>
      </trkpt>
      <trkpt lat="47.17154" lon="6.13646">
        <ele>593.1</ele>
        <time>2022-08-10T09:13:47Z</time>
      </trkpt>
      <trkpt lat="47.17152" lon="6.13644">
        <ele>593.6</ele>
        <time>2022-08-10T09:13:48Z</time>
      </trkpt>
      <trkpt lat="47.17151" lon="6.13643">
        <ele>594.1</ele>
        <time>2022-08-10T09:13:49Z</time>
      </trkpt>
      <trkpt lat="47.17149" lon="6.13642">
        <ele>594.5</ele>
        <time>2022-08-10T09:13:50Z</time>
      </trkpt>
      <trkpt lat="47.17147" lon="6.1364">
        <ele>595.1</ele>
        <time>2022-08-10T09:13:51Z</time>
      </trkpt>
      <trkpt lat="47.17145" lon="6.1364">
        <ele>595.4</ele>
        <time>2022-08-10T09:13:52Z</time>
      </trkpt>
      <trkpt lat="47.17143" lon="6.1364">
        <ele>595.9</ele>
        <time>2022-08-10T09:13:53Z</time>
      </trkpt>
      <trkpt lat="47.1714" lon="6.1364">
        <ele>596.2</ele>
        <time>2022-08-10T09:13:54Z</time>
      </trkpt>
      <trkpt lat="47.17138" lon="6.13639">
        <ele>596.4</ele>
        <time>2022-08-10T09:13:55Z</time>
      </trkpt>
      <trkpt lat="47.17136" lon="6.13638">
        <ele>596.7</ele>
        <time>2022-08-10T09:13:56Z</time>
      </trkpt>
      <trkpt lat="47.17134" lon="6.13638">
        <ele>597</ele>
        <time>2022-08-10T09:13:57Z</time>
      </trkpt>
      <trkpt lat="47.17132" lon="6.13638">
        <ele>597.5</ele>
        <time>2022-08-10T09:13:58Z</time>
      </trkpt>
      <trkpt lat="47.17129" lon="6.13638">
        <ele>597.9</ele>
        <time>2022-08-10T09:13:59Z</time>
      </trkpt>
      <trkpt lat="47.17127" lon="6.13637">
        <ele>598.2</ele>
        <time>2022-08-10T09:14:00Z</time>
      </trkpt>
      <trkpt lat="47.17123" lon="6.13632">
        <ele>597.6</ele>
        <time>2022-08-10T09:14:01Z</time>
      </trkpt>
      <trkpt lat="47.17121" lon="6.13631">
        <ele>597.9</ele>
        <time>2022-08-10T09:14:02Z</time>
      </trkpt>
      <trkpt lat="47.17119" lon="6.1363">
        <ele>598.1</ele>
        <time>2022-08-10T09:14:03Z</time>
      </trkpt>
      <trkpt lat="47.17115" lon="6.13622">
        <ele>598.1</ele>
        <time>2022-08-10T09:14:04Z</time>
      </trkpt>
      <trkpt lat="47.17113" lon="6.13621">
        <ele>598.6</ele>
        <time>2022-08-10T09:14:05Z</time>
      </trkpt>
      <trkpt lat="47.1711" lon="6.13621">
        <ele>598.8</ele>
        <time>2022-08-10T09:14:06Z</time>
      </trkpt>
      <trkpt lat="47.17108" lon="6.1362">
        <ele>599.5</ele>
        <time>2022-08-10T09:14:07Z</time>
      </trkpt>
      <trkpt lat="47.17105" lon="6.1362">
        <ele>599.6</ele>
        <time>2022-08-10T09:14:08Z</time>
      </trkpt>
      <trkpt lat="47.17102" lon="6.1362">
        <ele>599.7</ele>
        <time>2022-08-10T09:14:09Z</time>
      </trkpt>
      <trkpt lat="47.17099" lon="6.13618">
        <ele>599.6</ele>
        <time>2022-08-10T09:14:10Z</time>
      </trkpt>
      <trkpt lat="47.17096" lon="6.13618">
        <ele>600</ele>
        <time>2022-08-10T09:14:11Z</time>
      </trkpt>
      <trkpt lat="47.17094" lon="6.13617">
        <ele>600.3</ele>
        <time>2022-08-10T09:14:12Z</time>
      </trkpt>
      <trkpt lat="47.17091" lon="6.13616">
        <ele>600.2</ele>
        <time>2022-08-10T09:14:13Z</time>
      </trkpt>
      <trkpt lat="47.17088" lon="6.13615">
        <ele>600.2</ele>
        <time>2022-08-10T09:14:14Z</time>
      </trkpt>
      <trkpt lat="47.17085" lon="6.13614">
        <ele>600.1</ele>
        <time>2022-08-10T09:14:15Z</time>
      </trkpt>
      <trkpt lat="47.17082" lon="6.13613">
        <ele>600.3</ele>
        <time>2022-08-10T09:14:16Z</time>
      </trkpt>
      <trkpt lat="47.17079" lon="6.13612">
        <ele>600.4</ele>
        <time>2022-08-10T09:14:17Z</time>
      </trkpt>
      <trkpt lat="47.17076" lon="6.13612">
        <ele>600.2</ele>
        <time>2022-08-10T09:14:18Z</time>
      </trkpt>
      <trkpt lat="47.17073" lon="6.1361">
        <ele>600.1</ele>
        <time>2022-08-10T09:14:19Z</time>
      </trkpt>
      <trkpt lat="47.17069" lon="6.1361">
        <ele>600.7</ele>
        <time>2022-08-10T09:14:20Z</time>
      </trkpt>
      <trkpt lat="47.17065" lon="6.13609">
        <ele>600.9</ele>
        <time>2022-08-10T09:14:21Z</time>
      </trkpt>
      <trkpt lat="47.1706" lon="6.13607">
        <ele>600.8</ele>
        <time>2022-08-10T09:14:22Z</time>
      </trkpt>
      <trkpt lat="47.17056" lon="6.13604">
        <ele>601.2</ele>
        <time>2022-08-10T09:14:23Z</time>
      </trkpt>
      <trkpt lat="47.17052" lon="6.13601">
        <ele>601</ele>
        <time>2022-08-10T09:14:24Z</time>
      </trkpt>
      <trkpt lat="47.17048" lon="6.13598">
        <ele>601</ele>
        <time>2022-08-10T09:14:25Z</time>
      </trkpt>
      <trkpt lat="47.17044" lon="6.13596">
        <ele>601.1</ele>
        <time>2022-08-10T09:14:26Z</time>
      </trkpt>
      <trkpt lat="47.17038" lon="6.1359">
        <ele>601.2</ele>
        <time>2022-08-10T09:14:27Z</time>
      </trkpt>
      <trkpt lat="47.17033" lon="6.13583">
        <ele>601.9</ele>
        <time>2022-08-10T09:14:28Z</time>
      </trkpt>
      <trkpt lat="47.17029" lon="6.1358">
        <ele>602.4</ele>
        <time>2022-08-10T09:14:29Z</time>
      </trkpt>
      <trkpt lat="47.17024" lon="6.13577">
        <ele>602.5</ele>
        <time>2022-08-10T09:14:30Z</time>
      </trkpt>
      <trkpt lat="47.17017" lon="6.13566">
        <ele>602</ele>
        <time>2022-08-10T09:14:31Z</time>
      </trkpt>
      <trkpt lat="47.17012" lon="6.13563">
        <ele>602.3</ele>
        <time>2022-08-10T09:14:32Z</time>
      </trkpt>
      <trkpt lat="47.17008" lon="6.13558">
        <ele>602.6</ele>
        <time>2022-08-10T09:14:33Z</time>
      </trkpt>
      <trkpt lat="47.17003" lon="6.13553">
        <ele>603.1</ele>
        <time>2022-08-10T09:14:34Z</time>
      </trkpt>
      <trkpt lat="47.16999" lon="6.13549">
        <ele>603.4</ele>
        <time>2022-08-10T09:14:35Z</time>
      </trkpt>
      <trkpt lat="47.16996" lon="6.13544">
        <ele>603.6</ele>
        <time>2022-08-10T09:14:36Z</time>
      </trkpt>
      <trkpt lat="47.16991" lon="6.13541">
        <ele>603.8</ele>
        <time>2022-08-10T09:14:37Z</time>
      </trkpt>
      <trkpt lat="47.16988" lon="6.13535">
        <ele>603.9</ele>
        <time>2022-08-10T09:14:38Z</time>
      </trkpt>
      <trkpt lat="47.16982" lon="6.1353">
        <ele>604.2</ele>
        <time>2022-08-10T09:14:39Z</time>
      </trkpt>
      <trkpt lat="47.16977" lon="6.13525">
        <ele>604.6</ele>
        <time>2022-08-10T09:14:40Z</time>
      </trkpt>
      <trkpt lat="47.1697" lon="6.1352">
        <ele>605</ele>
        <time>2022-08-10T09:14:41Z</time>
      </trkpt>
      <trkpt lat="47.16963" lon="6.13505">
        <ele>604.4</ele>
        <time>2022-08-10T09:14:42Z</time>
      </trkpt>
      <trkpt lat="47.16957" lon="6.13502">
        <ele>604.6</ele>
        <time>2022-08-10T09:14:43Z</time>
      </trkpt>
      <trkpt lat="47.1695" lon="6.13497">
        <ele>604.5</ele>
        <time>2022-08-10T09:14:44Z</time>
      </trkpt>
      <trkpt lat="47.16944" lon="6.13486">
        <ele>602</ele>
        <time>2022-08-10T09:14:45Z</time>
      </trkpt>
      <trkpt lat="47.16938" lon="6.13481">
        <ele>601.3</ele>
        <time>2022-08-10T09:14:46Z</time>
      </trkpt>
      <trkpt lat="47.16934" lon="6.13477">
        <ele>600.2</ele>
        <time>2022-08-10T09:14:47Z</time>
      </trkpt>
      <trkpt lat="47.1693" lon="6.13474">
        <ele>599.6</ele>
        <time>2022-08-10T09:14:48Z</time>
      </trkpt>
      <trkpt lat="47.16925" lon="6.1347">
        <ele>598.5</ele>
        <time>2022-08-10T09:14:49Z</time>
      </trkpt>
      <trkpt lat="47.16921" lon="6.13466">
        <ele>597.5</ele>
        <time>2022-08-10T09:14:50Z</time>
      </trkpt>
      <trkpt lat="47.16918" lon="6.13463">
        <ele>596.7</ele>
        <time>2022-08-10T09:14:51Z</time>
      </trkpt>
      <trkpt lat="47.16916" lon="6.1346">
        <ele>595.9</ele>
        <time>2022-08-10T09:14:52Z</time>
      </trkpt>
      <trkpt lat="47.16915" lon="6.13454">
        <ele>594.6</ele>
        <time>2022-08-10T09:14:53Z</time>
      </trkpt>
      <trkpt lat="47.16914" lon="6.13448">
        <ele>594.1</ele>
        <time>2022-08-10T09:14:54Z</time>
      </trkpt>
      <trkpt lat="47.16914" lon="6.1344">
        <ele>592.1</ele>
        <time>2022-08-10T09:14:55Z</time>
      </trkpt>
      <trkpt lat="47.16915" lon="6.13432">
        <ele>590.7</ele>
        <time>2022-08-10T09:14:56Z</time>
      </trkpt>
      <trkpt lat="47.16915" lon="6.13426">
        <ele>589.4</ele>
        <time>2022-08-10T09:14:57Z</time>
      </trkpt>
      <trkpt lat="47.16914" lon="6.13418">
        <ele>587.5</ele>
        <time>2022-08-10T09:14:58Z</time>
      </trkpt>
      <trkpt lat="47.16914" lon="6.13405">
        <ele>582</ele>
        <time>2022-08-10T09:14:59Z</time>
      </trkpt>
      <trkpt lat="47.16913" lon="6.13399">
        <ele>581.1</ele>
        <time>2022-08-10T09:15:00Z</time>
      </trkpt>
      <trkpt lat="47.16913" lon="6.13395">
        <ele>580.3</ele>
        <time>2022-08-10T09:15:01Z</time>
      </trkpt>
      <trkpt lat="47.16912" lon="6.1339">
        <ele>579.3</ele>
        <time>2022-08-10T09:15:02Z</time>
      </trkpt>
      <trkpt lat="47.16911" lon="6.13385">
        <ele>578.2</ele>
        <time>2022-08-10T09:15:03Z</time>
      </trkpt>
      <trkpt lat="47.16911" lon="6.1338">
        <ele>577.5</ele>
        <time>2022-08-10T09:15:04Z</time>
      </trkpt>
      <trkpt lat="47.1691" lon="6.13375">
        <ele>576.3</ele>
        <time>2022-08-10T09:15:05Z</time>
      </trkpt>
      <trkpt lat="47.16909" lon="6.13371">
        <ele>575.3</ele>
        <time>2022-08-10T09:15:06Z</time>
      </trkpt>
      <trkpt lat="47.16908" lon="6.13366">
        <ele>574.5</ele>
        <time>2022-08-10T09:15:07Z</time>
      </trkpt>
      <trkpt lat="47.16908" lon="6.13361">
        <ele>573.5</ele>
        <time>2022-08-10T09:15:08Z</time>
      </trkpt>
      <trkpt lat="47.16907" lon="6.13357">
        <ele>572.6</ele>
        <time>2022-08-10T09:15:09Z</time>
      </trkpt>
      <trkpt lat="47.16906" lon="6.13354">
        <ele>572.4</ele>
        <time>2022-08-10T09:15:10Z</time>
      </trkpt>
      <trkpt lat="47.16905" lon="6.13351">
        <ele>572.2</ele>
        <time>2022-08-10T09:15:11Z</time>
      </trkpt>
      <trkpt lat="47.16904" lon="6.13347">
        <ele>571.9</ele>
        <time>2022-08-10T09:15:12Z</time>
      </trkpt>
      <trkpt lat="47.16903" lon="6.13343">
        <ele>571.5</ele>
        <time>2022-08-10T09:15:13Z</time>
      </trkpt>
      <trkpt lat="47.16901" lon="6.13339">
        <ele>571.3</ele>
        <time>2022-08-10T09:15:14Z</time>
      </trkpt>
      <trkpt lat="47.16901" lon="6.13335">
        <ele>570.9</ele>
        <time>2022-08-10T09:15:15Z</time>
      </trkpt>
      <trkpt lat="47.169" lon="6.13331">
        <ele>571.3</ele>
        <time>2022-08-10T09:15:16Z</time>
      </trkpt>
      <trkpt lat="47.16898" lon="6.13329">
        <ele>572.1</ele>
        <time>2022-08-10T09:15:17Z</time>
      </trkpt>
      <trkpt lat="47.16897" lon="6.13326">
        <ele>572.4</ele>
        <time>2022-08-10T09:15:18Z</time>
      </trkpt>
      <trkpt lat="47.16896" lon="6.13324">
        <ele>572.5</ele>
        <time>2022-08-10T09:15:19Z</time>
      </trkpt>
      <trkpt lat="47.16895" lon="6.13322">
        <ele>573</ele>
        <time>2022-08-10T09:15:20Z</time>
      </trkpt>
      <trkpt lat="47.16894" lon="6.13319">
        <ele>573.1</ele>
        <time>2022-08-10T09:15:21Z</time>
      </trkpt>
      <trkpt lat="47.16892" lon="6.13316">
        <ele>573.2</ele>
        <time>2022-08-10T09:15:22Z</time>
      </trkpt>
      <trkpt lat="47.16891" lon="6.13313">
        <ele>573.2</ele>
        <time>2022-08-10T09:15:23Z</time>
      </trkpt>
      <trkpt lat="47.1689" lon="6.13309">
        <ele>572.9</ele>
        <time>2022-08-10T09:15:24Z</time>
      </trkpt>
      <trkpt lat="47.16889" lon="6.13305">
        <ele>572.6</ele>
        <time>2022-08-10T09:15:25Z</time>
      </trkpt>
      <trkpt lat="47.16888" lon="6.13302">
        <ele>572.4</ele>
        <time>2022-08-10T09:15:26Z</time>
      </trkpt>
      <trkpt lat="47.16889" lon="6.13295">
        <ele>570.7</ele>
        <time>2022-08-10T09:15:27Z</time>
      </trkpt>
      <trkpt lat="47.16888" lon="6.13291">
        <ele>570.8</ele>
        <time>2022-08-10T09:15:28Z</time>
      </trkpt>
      <trkpt lat="47.16887" lon="6.13287">
        <ele>570.7</ele>
        <time>2022-08-10T09:15:29Z</time>
      </trkpt>
      <trkpt lat="47.16886" lon="6.13284">
        <ele>571.1</ele>
        <time>2022-08-10T09:15:30Z</time>
      </trkpt>
      <trkpt lat="47.16884" lon="6.1328">
        <ele>571.6</ele>
        <time>2022-08-10T09:15:31Z</time>
      </trkpt>
      <trkpt lat="47.16883" lon="6.13275">
        <ele>572.1</ele>
        <time>2022-08-10T09:15:32Z</time>
      </trkpt>
      <trkpt lat="47.16882" lon="6.1327">
        <ele>572.1</ele>
        <time>2022-08-10T09:15:33Z</time>
      </trkpt>
      <trkpt lat="47.1688" lon="6.13265">
        <ele>572.3</ele>
        <time>2022-08-10T09:15:34Z</time>
      </trkpt>
      <trkpt lat="47.1688" lon="6.13259">
        <ele>571.8</ele>
        <time>2022-08-10T09:15:35Z</time>
      </trkpt>
      <trkpt lat="47.16879" lon="6.13253">
        <ele>571.5</ele>
        <time>2022-08-10T09:15:36Z</time>
      </trkpt>
      <trkpt lat="47.16879" lon="6.13246">
        <ele>571.3</ele>
        <time>2022-08-10T09:15:37Z</time>
      </trkpt>
      <trkpt lat="47.16878" lon="6.1324">
        <ele>571</ele>
        <time>2022-08-10T09:15:38Z</time>
      </trkpt>
      <trkpt lat="47.16878" lon="6.13234">
        <ele>570.5</ele>
        <time>2022-08-10T09:15:39Z</time>
      </trkpt>
      <trkpt lat="47.16878" lon="6.13228">
        <ele>570.2</ele>
        <time>2022-08-10T09:15:40Z</time>
      </trkpt>
      <trkpt lat="47.16877" lon="6.13222">
        <ele>569.7</ele>
        <time>2022-08-10T09:15:41Z</time>
      </trkpt>
      <trkpt lat="47.16877" lon="6.13216">
        <ele>569</ele>
        <time>2022-08-10T09:15:42Z</time>
      </trkpt>
      <trkpt lat="47.16876" lon="6.13211">
        <ele>568.3</ele>
        <time>2022-08-10T09:15:43Z</time>
      </trkpt>
      <trkpt lat="47.16876" lon="6.13205">
        <ele>567.5</ele>
        <time>2022-08-10T09:15:44Z</time>
      </trkpt>
      <trkpt lat="47.16876" lon="6.13199">
        <ele>566.8</ele>
        <time>2022-08-10T09:15:45Z</time>
      </trkpt>
      <trkpt lat="47.16876" lon="6.13193">
        <ele>565.9</ele>
        <time>2022-08-10T09:15:46Z</time>
      </trkpt>
      <trkpt lat="47.16876" lon="6.13186">
        <ele>564.9</ele>
        <time>2022-08-10T09:15:47Z</time>
      </trkpt>
      <trkpt lat="47.16876" lon="6.13179">
        <ele>563.9</ele>
        <time>2022-08-10T09:15:48Z</time>
      </trkpt>
      <trkpt lat="47.16876" lon="6.13172">
        <ele>562.7</ele>
        <time>2022-08-10T09:15:49Z</time>
      </trkpt>
      <trkpt lat="47.16876" lon="6.13165">
        <ele>561.6</ele>
        <time>2022-08-10T09:15:50Z</time>
      </trkpt>
      <trkpt lat="47.16876" lon="6.13157">
        <ele>560</ele>
        <time>2022-08-10T09:15:51Z</time>
      </trkpt>
      <trkpt lat="47.16875" lon="6.13149">
        <ele>559.2</ele>
        <time>2022-08-10T09:15:52Z</time>
      </trkpt>
      <trkpt lat="47.16876" lon="6.13141">
        <ele>558.1</ele>
        <time>2022-08-10T09:15:53Z</time>
      </trkpt>
      <trkpt lat="47.16876" lon="6.13133">
        <ele>557.1</ele>
        <time>2022-08-10T09:15:54Z</time>
      </trkpt>
      <trkpt lat="47.16877" lon="6.13124">
        <ele>555.8</ele>
        <time>2022-08-10T09:15:55Z</time>
      </trkpt>
      <trkpt lat="47.16877" lon="6.13115">
        <ele>555</ele>
        <time>2022-08-10T09:15:56Z</time>
      </trkpt>
      <trkpt lat="47.16878" lon="6.13105">
        <ele>554.1</ele>
        <time>2022-08-10T09:15:57Z</time>
      </trkpt>
      <trkpt lat="47.16879" lon="6.13095">
        <ele>553.4</ele>
        <time>2022-08-10T09:15:58Z</time>
      </trkpt>
      <trkpt lat="47.1688" lon="6.13084">
        <ele>552.6</ele>
        <time>2022-08-10T09:15:59Z</time>
      </trkpt>
      <trkpt lat="47.16881" lon="6.13074">
        <ele>551.7</ele>
        <time>2022-08-10T09:16:00Z</time>
      </trkpt>
      <trkpt lat="47.16883" lon="6.13062">
        <ele>550.8</ele>
        <time>2022-08-10T09:16:01Z</time>
      </trkpt>
      <trkpt lat="47.16885" lon="6.13051">
        <ele>550.1</ele>
        <time>2022-08-10T09:16:02Z</time>
      </trkpt>
      <trkpt lat="47.16888" lon="6.13041">
        <ele>549.5</ele>
        <time>2022-08-10T09:16:03Z</time>
      </trkpt>
      <trkpt lat="47.1689" lon="6.1303">
        <ele>549</ele>
        <time>2022-08-10T09:16:04Z</time>
      </trkpt>
      <trkpt lat="47.16893" lon="6.13021">
        <ele>548.2</ele>
        <time>2022-08-10T09:16:05Z</time>
      </trkpt>
      <trkpt lat="47.16898" lon="6.1301">
        <ele>547.2</ele>
        <time>2022-08-10T09:16:06Z</time>
      </trkpt>
      <trkpt lat="47.16903" lon="6.12998">
        <ele>546.3</ele>
        <time>2022-08-10T09:16:07Z</time>
      </trkpt>
      <trkpt lat="47.1691" lon="6.12987">
        <ele>545.4</ele>
        <time>2022-08-10T09:16:08Z</time>
      </trkpt>
      <trkpt lat="47.16918" lon="6.12977">
        <ele>544.9</ele>
        <time>2022-08-10T09:16:09Z</time>
      </trkpt>
      <trkpt lat="47.16927" lon="6.12967">
        <ele>544.1</ele>
        <time>2022-08-10T09:16:10Z</time>
      </trkpt>
      <trkpt lat="47.16936" lon="6.12959">
        <ele>543.4</ele>
        <time>2022-08-10T09:16:11Z</time>
      </trkpt>
      <trkpt lat="47.16946" lon="6.12951">
        <ele>542.3</ele>
        <time>2022-08-10T09:16:12Z</time>
      </trkpt>
      <trkpt lat="47.16955" lon="6.12943">
        <ele>541.4</ele>
        <time>2022-08-10T09:16:13Z</time>
      </trkpt>
      <trkpt lat="47.16964" lon="6.12935">
        <ele>540.8</ele>
        <time>2022-08-10T09:16:14Z</time>
      </trkpt>
      <trkpt lat="47.16973" lon="6.12929">
        <ele>540.6</ele>
        <time>2022-08-10T09:16:15Z</time>
      </trkpt>
      <trkpt lat="47.16982" lon="6.12922">
        <ele>540.6</ele>
        <time>2022-08-10T09:16:16Z</time>
      </trkpt>
      <trkpt lat="47.16991" lon="6.12915">
        <ele>540.6</ele>
        <time>2022-08-10T09:16:17Z</time>
      </trkpt>
      <trkpt lat="47.17" lon="6.12909">
        <ele>540.7</ele>
        <time>2022-08-10T09:16:18Z</time>
      </trkpt>
      <trkpt lat="47.1701" lon="6.12903">
        <ele>540.6</ele>
        <time>2022-08-10T09:16:19Z</time>
      </trkpt>
      <trkpt lat="47.17019" lon="6.12897">
        <ele>540.5</ele>
        <time>2022-08-10T09:16:20Z</time>
      </trkpt>
      <trkpt lat="47.17028" lon="6.12891">
        <ele>540.5</ele>
        <time>2022-08-10T09:16:21Z</time>
      </trkpt>
      <trkpt lat="47.17036" lon="6.12885">
        <ele>540.6</ele>
        <time>2022-08-10T09:16:22Z</time>
      </trkpt>
      <trkpt lat="47.17045" lon="6.1288">
        <ele>540.9</ele>
        <time>2022-08-10T09:16:23Z</time>
      </trkpt>
      <trkpt lat="47.17053" lon="6.12875">
        <ele>541</ele>
        <time>2022-08-10T09:16:24Z</time>
      </trkpt>
      <trkpt lat="47.17061" lon="6.12869">
        <ele>541.3</ele>
        <time>2022-08-10T09:16:25Z</time>
      </trkpt>
      <trkpt lat="47.17069" lon="6.12864">
        <ele>541.5</ele>
        <time>2022-08-10T09:16:26Z</time>
      </trkpt>
      <trkpt lat="47.17077" lon="6.12858">
        <ele>541.5</ele>
        <time>2022-08-10T09:16:27Z</time>
      </trkpt>
      <trkpt lat="47.17085" lon="6.12853">
        <ele>541.2</ele>
        <time>2022-08-10T09:16:28Z</time>
      </trkpt>
      <trkpt lat="47.17093" lon="6.12848">
        <ele>541.4</ele>
        <time>2022-08-10T09:16:29Z</time>
      </trkpt>
      <trkpt lat="47.17101" lon="6.12842">
        <ele>541.1</ele>
        <time>2022-08-10T09:16:30Z</time>
      </trkpt>
      <trkpt lat="47.17109" lon="6.12837">
        <ele>540.9</ele>
        <time>2022-08-10T09:16:31Z</time>
      </trkpt>
      <trkpt lat="47.17117" lon="6.12831">
        <ele>540.5</ele>
        <time>2022-08-10T09:16:32Z</time>
      </trkpt>
      <trkpt lat="47.17126" lon="6.12826">
        <ele>539.8</ele>
        <time>2022-08-10T09:16:33Z</time>
      </trkpt>
      <trkpt lat="47.17134" lon="6.12821">
        <ele>539.5</ele>
        <time>2022-08-10T09:16:34Z</time>
      </trkpt>
      <trkpt lat="47.17142" lon="6.12815">
        <ele>539.2</ele>
        <time>2022-08-10T09:16:35Z</time>
      </trkpt>
      <trkpt lat="47.17151" lon="6.12809">
        <ele>538.6</ele>
        <time>2022-08-10T09:16:36Z</time>
      </trkpt>
      <trkpt lat="47.17159" lon="6.12803">
        <ele>538.3</ele>
        <time>2022-08-10T09:16:37Z</time>
      </trkpt>
      <trkpt lat="47.17168" lon="6.12798">
        <ele>537</ele>
        <time>2022-08-10T09:16:38Z</time>
      </trkpt>
      <trkpt lat="47.17176" lon="6.12792">
        <ele>536.3</ele>
        <time>2022-08-10T09:16:39Z</time>
      </trkpt>
      <trkpt lat="47.17185" lon="6.12785">
        <ele>535.1</ele>
        <time>2022-08-10T09:16:40Z</time>
      </trkpt>
      <trkpt lat="47.17193" lon="6.12778">
        <ele>534.4</ele>
        <time>2022-08-10T09:16:41Z</time>
      </trkpt>
      <trkpt lat="47.172" lon="6.1277">
        <ele>533.7</ele>
        <time>2022-08-10T09:16:42Z</time>
      </trkpt>
      <trkpt lat="47.17207" lon="6.12761">
        <ele>533</ele>
        <time>2022-08-10T09:16:43Z</time>
      </trkpt>
      <trkpt lat="47.17213" lon="6.12753">
        <ele>532.3</ele>
        <time>2022-08-10T09:16:44Z</time>
      </trkpt>
      <trkpt lat="47.1722" lon="6.12744">
        <ele>531.3</ele>
        <time>2022-08-10T09:16:45Z</time>
      </trkpt>
      <trkpt lat="47.17226" lon="6.12734">
        <ele>530.2</ele>
        <time>2022-08-10T09:16:46Z</time>
      </trkpt>
      <trkpt lat="47.17233" lon="6.12725">
        <ele>529.5</ele>
        <time>2022-08-10T09:16:47Z</time>
      </trkpt>
      <trkpt lat="47.17239" lon="6.12715">
        <ele>528.6</ele>
        <time>2022-08-10T09:16:48Z</time>
      </trkpt>
      <trkpt lat="47.17246" lon="6.12705">
        <ele>527.5</ele>
        <time>2022-08-10T09:16:49Z</time>
      </trkpt>
      <trkpt lat="47.17252" lon="6.12695">
        <ele>526.8</ele>
        <time>2022-08-10T09:16:50Z</time>
      </trkpt>
      <trkpt lat="47.17258" lon="6.12685">
        <ele>526.2</ele>
        <time>2022-08-10T09:16:51Z</time>
      </trkpt>
      <trkpt lat="47.17265" lon="6.12676">
        <ele>525.3</ele>
        <time>2022-08-10T09:16:52Z</time>
      </trkpt>
      <trkpt lat="47.17272" lon="6.12667">
        <ele>524.6</ele>
        <time>2022-08-10T09:16:53Z</time>
      </trkpt>
      <trkpt lat="47.1728" lon="6.12658">
        <ele>524</ele>
        <time>2022-08-10T09:16:54Z</time>
      </trkpt>
      <trkpt lat="47.17288" lon="6.12651">
        <ele>523.5</ele>
        <time>2022-08-10T09:16:55Z</time>
      </trkpt>
      <trkpt lat="47.17296" lon="6.12644">
        <ele>523.2</ele>
        <time>2022-08-10T09:16:56Z</time>
      </trkpt>
      <trkpt lat="47.17304" lon="6.12638">
        <ele>522.7</ele>
        <time>2022-08-10T09:16:57Z</time>
      </trkpt>
      <trkpt lat="47.17312" lon="6.12633">
        <ele>521.8</ele>
        <time>2022-08-10T09:16:58Z</time>
      </trkpt>
      <trkpt lat="47.17321" lon="6.12628">
        <ele>520.9</ele>
        <time>2022-08-10T09:16:59Z</time>
      </trkpt>
      <trkpt lat="47.17328" lon="6.12623">
        <ele>521</ele>
        <time>2022-08-10T09:17:00Z</time>
      </trkpt>
      <trkpt lat="47.17336" lon="6.12617">
        <ele>520.8</ele>
        <time>2022-08-10T09:17:01Z</time>
      </trkpt>
      <trkpt lat="47.17343" lon="6.12612">
        <ele>520.8</ele>
        <time>2022-08-10T09:17:02Z</time>
      </trkpt>
      <trkpt lat="47.17351" lon="6.12607">
        <ele>520.7</ele>
        <time>2022-08-10T09:17:03Z</time>
      </trkpt>
      <trkpt lat="47.17358" lon="6.12603">
        <ele>520.6</ele>
        <time>2022-08-10T09:17:04Z</time>
      </trkpt>
      <trkpt lat="47.17366" lon="6.12598">
        <ele>520.4</ele>
        <time>2022-08-10T09:17:05Z</time>
      </trkpt>
      <trkpt lat="47.17373" lon="6.12594">
        <ele>520.4</ele>
        <time>2022-08-10T09:17:06Z</time>
      </trkpt>
      <trkpt lat="47.1738" lon="6.12589">
        <ele>520.1</ele>
        <time>2022-08-10T09:17:07Z</time>
      </trkpt>
      <trkpt lat="47.17387" lon="6.12585">
        <ele>519.8</ele>
        <time>2022-08-10T09:17:08Z</time>
      </trkpt>
      <trkpt lat="47.17394" lon="6.1258">
        <ele>519.2</ele>
        <time>2022-08-10T09:17:09Z</time>
      </trkpt>
      <trkpt lat="47.17401" lon="6.12575">
        <ele>518.7</ele>
        <time>2022-08-10T09:17:10Z</time>
      </trkpt>
      <trkpt lat="47.17407" lon="6.1257">
        <ele>518.9</ele>
        <time>2022-08-10T09:17:11Z</time>
      </trkpt>
      <trkpt lat="47.17414" lon="6.12565">
        <ele>518.9</ele>
        <time>2022-08-10T09:17:12Z</time>
      </trkpt>
      <trkpt lat="47.1742" lon="6.1256">
        <ele>519.1</ele>
        <time>2022-08-10T09:17:13Z</time>
      </trkpt>
      <trkpt lat="47.17427" lon="6.12555">
        <ele>519.3</ele>
        <time>2022-08-10T09:17:14Z</time>
      </trkpt>
      <trkpt lat="47.17433" lon="6.1255">
        <ele>519.3</ele>
        <time>2022-08-10T09:17:15Z</time>
      </trkpt>
      <trkpt lat="47.1744" lon="6.12545">
        <ele>519.7</ele>
        <time>2022-08-10T09:17:16Z</time>
      </trkpt>
      <trkpt lat="47.17446" lon="6.12541">
        <ele>519.9</ele>
        <time>2022-08-10T09:17:17Z</time>
      </trkpt>
      <trkpt lat="47.17452" lon="6.12537">
        <ele>520</ele>
        <time>2022-08-10T09:17:18Z</time>
      </trkpt>
      <trkpt lat="47.17458" lon="6.12533">
        <ele>519.8</ele>
        <time>2022-08-10T09:17:19Z</time>
      </trkpt>
      <trkpt lat="47.17464" lon="6.12528">
        <ele>520.2</ele>
        <time>2022-08-10T09:17:20Z</time>
      </trkpt>
      <trkpt lat="47.17469" lon="6.12523">
        <ele>520.8</ele>
        <time>2022-08-10T09:17:21Z</time>
      </trkpt>
      <trkpt lat="47.17474" lon="6.12518">
        <ele>520.9</ele>
        <time>2022-08-10T09:17:22Z</time>
      </trkpt>
      <trkpt lat="47.1748" lon="6.12513">
        <ele>521</ele>
        <time>2022-08-10T09:17:23Z</time>
      </trkpt>
      <trkpt lat="47.17485" lon="6.12509">
        <ele>521.1</ele>
        <time>2022-08-10T09:17:24Z</time>
      </trkpt>
      <trkpt lat="47.1749" lon="6.12504">
        <ele>521.3</ele>
        <time>2022-08-10T09:17:25Z</time>
      </trkpt>
      <trkpt lat="47.17495" lon="6.125">
        <ele>521.7</ele>
        <time>2022-08-10T09:17:26Z</time>
      </trkpt>
      <trkpt lat="47.175" lon="6.12495">
        <ele>521.9</ele>
        <time>2022-08-10T09:17:27Z</time>
      </trkpt>
      <trkpt lat="47.17505" lon="6.1249">
        <ele>522.1</ele>
        <time>2022-08-10T09:17:28Z</time>
      </trkpt>
      <trkpt lat="47.1751" lon="6.12486">
        <ele>522.5</ele>
        <time>2022-08-10T09:17:29Z</time>
      </trkpt>
      <trkpt lat="47.17515" lon="6.12481">
        <ele>522.7</ele>
        <time>2022-08-10T09:17:30Z</time>
      </trkpt>
      <trkpt lat="47.17519" lon="6.12477">
        <ele>522.6</ele>
        <time>2022-08-10T09:17:31Z</time>
      </trkpt>
      <trkpt lat="47.17524" lon="6.12472">
        <ele>522.5</ele>
        <time>2022-08-10T09:17:32Z</time>
      </trkpt>
      <trkpt lat="47.17529" lon="6.12467">
        <ele>522.3</ele>
        <time>2022-08-10T09:17:33Z</time>
      </trkpt>
      <trkpt lat="47.17534" lon="6.12463">
        <ele>522.1</ele>
        <time>2022-08-10T09:17:34Z</time>
      </trkpt>
      <trkpt lat="47.17539" lon="6.12458">
        <ele>522.2</ele>
        <time>2022-08-10T09:17:35Z</time>
      </trkpt>
      <trkpt lat="47.17545" lon="6.12454">
        <ele>522.3</ele>
        <time>2022-08-10T09:17:36Z</time>
      </trkpt>
      <trkpt lat="47.1755" lon="6.12449">
        <ele>522.7</ele>
        <time>2022-08-10T09:17:37Z</time>
      </trkpt>
      <trkpt lat="47.17555" lon="6.12445">
        <ele>523.1</ele>
        <time>2022-08-10T09:17:38Z</time>
      </trkpt>
      <trkpt lat="47.1756" lon="6.1244">
        <ele>523.2</ele>
        <time>2022-08-10T09:17:39Z</time>
      </trkpt>
      <trkpt lat="47.17565" lon="6.12436">
        <ele>523.2</ele>
        <time>2022-08-10T09:17:40Z</time>
      </trkpt>
      <trkpt lat="47.1757" lon="6.12431">
        <ele>523.4</ele>
        <time>2022-08-10T09:17:41Z</time>
      </trkpt>
      <trkpt lat="47.17575" lon="6.12426">
        <ele>523.7</ele>
        <time>2022-08-10T09:17:42Z</time>
      </trkpt>
      <trkpt lat="47.1758" lon="6.12422">
        <ele>524.1</ele>
        <time>2022-08-10T09:17:43Z</time>
      </trkpt>
      <trkpt lat="47.17585" lon="6.12418">
        <ele>524.3</ele>
        <time>2022-08-10T09:17:44Z</time>
      </trkpt>
      <trkpt lat="47.1759" lon="6.12413">
        <ele>524.3</ele>
        <time>2022-08-10T09:17:45Z</time>
      </trkpt>
      <trkpt lat="47.17594" lon="6.12408">
        <ele>524.1</ele>
        <time>2022-08-10T09:17:46Z</time>
      </trkpt>
      <trkpt lat="47.17599" lon="6.12403">
        <ele>523.9</ele>
        <time>2022-08-10T09:17:47Z</time>
      </trkpt>
      <trkpt lat="47.17603" lon="6.12398">
        <ele>523.7</ele>
        <time>2022-08-10T09:17:48Z</time>
      </trkpt>
      <trkpt lat="47.17607" lon="6.12392">
        <ele>523.7</ele>
        <time>2022-08-10T09:17:49Z</time>
      </trkpt>
      <trkpt lat="47.1761" lon="6.12386">
        <ele>523.3</ele>
        <time>2022-08-10T09:17:50Z</time>
      </trkpt>
      <trkpt lat="47.17614" lon="6.12379">
        <ele>523.2</ele>
        <time>2022-08-10T09:17:51Z</time>
      </trkpt>
      <trkpt lat="47.17617" lon="6.12373">
        <ele>522.3</ele>
        <time>2022-08-10T09:17:52Z</time>
      </trkpt>
      <trkpt lat="47.1762" lon="6.12366">
        <ele>521.7</ele>
        <time>2022-08-10T09:17:53Z</time>
      </trkpt>
      <trkpt lat="47.17624" lon="6.12359">
        <ele>521</ele>
        <time>2022-08-10T09:17:54Z</time>
      </trkpt>
      <trkpt lat="47.17627" lon="6.12352">
        <ele>520.6</ele>
        <time>2022-08-10T09:17:55Z</time>
      </trkpt>
      <trkpt lat="47.17632" lon="6.12346">
        <ele>520.5</ele>
        <time>2022-08-10T09:17:56Z</time>
      </trkpt>
      <trkpt lat="47.17636" lon="6.1234">
        <ele>520.4</ele>
        <time>2022-08-10T09:17:57Z</time>
      </trkpt>
      <trkpt lat="47.17641" lon="6.12334">
        <ele>520.5</ele>
        <time>2022-08-10T09:17:58Z</time>
      </trkpt>
      <trkpt lat="47.17645" lon="6.12329">
        <ele>520.7</ele>
        <time>2022-08-10T09:17:59Z</time>
      </trkpt>
      <trkpt lat="47.1765" lon="6.12324">
        <ele>520.7</ele>
        <time>2022-08-10T09:18:00Z</time>
      </trkpt>
      <trkpt lat="47.17655" lon="6.12319">
        <ele>520.7</ele>
        <time>2022-08-10T09:18:01Z</time>
      </trkpt>
      <trkpt lat="47.1766" lon="6.12315">
        <ele>520.7</ele>
        <time>2022-08-10T09:18:02Z</time>
      </trkpt>
      <trkpt lat="47.17664" lon="6.1231">
        <ele>520.6</ele>
        <time>2022-08-10T09:18:03Z</time>
      </trkpt>
      <trkpt lat="47.17669" lon="6.12304">
        <ele>520.5</ele>
        <time>2022-08-10T09:18:04Z</time>
      </trkpt>
      <trkpt lat="47.17673" lon="6.123">
        <ele>520.5</ele>
        <time>2022-08-10T09:18:05Z</time>
      </trkpt>
      <trkpt lat="47.17678" lon="6.12295">
        <ele>520.5</ele>
        <time>2022-08-10T09:18:06Z</time>
      </trkpt>
      <trkpt lat="47.17683" lon="6.12291">
        <ele>520.5</ele>
        <time>2022-08-10T09:18:07Z</time>
      </trkpt>
      <trkpt lat="47.17687" lon="6.12286">
        <ele>520</ele>
        <time>2022-08-10T09:18:08Z</time>
      </trkpt>
      <trkpt lat="47.17691" lon="6.12281">
        <ele>519.5</ele>
        <time>2022-08-10T09:18:09Z</time>
      </trkpt>
      <trkpt lat="47.17693" lon="6.12273">
        <ele>519.2</ele>
        <time>2022-08-10T09:18:10Z</time>
      </trkpt>
      <trkpt lat="47.17693" lon="6.12266">
        <ele>519</ele>
        <time>2022-08-10T09:18:11Z</time>
      </trkpt>
      <trkpt lat="47.17692" lon="6.12259">
        <ele>519</ele>
        <time>2022-08-10T09:18:12Z</time>
      </trkpt>
      <trkpt lat="47.1769" lon="6.12251">
        <ele>518.5</ele>
        <time>2022-08-10T09:18:13Z</time>
      </trkpt>
      <trkpt lat="47.17688" lon="6.12243">
        <ele>518.1</ele>
        <time>2022-08-10T09:18:14Z</time>
      </trkpt>
      <trkpt lat="47.17685" lon="6.12235">
        <ele>517.6</ele>
        <time>2022-08-10T09:18:15Z</time>
      </trkpt>
      <trkpt lat="47.17682" lon="6.12228">
        <ele>516.9</ele>
        <time>2022-08-10T09:18:16Z</time>
      </trkpt>
      <trkpt lat="47.17679" lon="6.12219">
        <ele>516</ele>
        <time>2022-08-10T09:18:17Z</time>
      </trkpt>
      <trkpt lat="47.17676" lon="6.12211">
        <ele>515.3</ele>
        <time>2022-08-10T09:18:18Z</time>
      </trkpt>
      <trkpt lat="47.17673" lon="6.12201">
        <ele>514.7</ele>
        <time>2022-08-10T09:18:19Z</time>
      </trkpt>
      <trkpt lat="47.1767" lon="6.12192">
        <ele>514.1</ele>
        <time>2022-08-10T09:18:20Z</time>
      </trkpt>
      <trkpt lat="47.17667" lon="6.12182">
        <ele>513.3</ele>
        <time>2022-08-10T09:18:21Z</time>
      </trkpt>
      <trkpt lat="47.17664" lon="6.12172">
        <ele>512.7</ele>
        <time>2022-08-10T09:18:22Z</time>
      </trkpt>
      <trkpt lat="47.17661" lon="6.12162">
        <ele>512</ele>
        <time>2022-08-10T09:18:23Z</time>
      </trkpt>
      <trkpt lat="47.17658" lon="6.12152">
        <ele>511.4</ele>
        <time>2022-08-10T09:18:24Z</time>
      </trkpt>
      <trkpt lat="47.17654" lon="6.12141">
        <ele>510.7</ele>
        <time>2022-08-10T09:18:25Z</time>
      </trkpt>
      <trkpt lat="47.17651" lon="6.12131">
        <ele>510</ele>
        <time>2022-08-10T09:18:26Z</time>
      </trkpt>
      <trkpt lat="47.17647" lon="6.12122">
        <ele>509.7</ele>
        <time>2022-08-10T09:18:27Z</time>
      </trkpt>
      <trkpt lat="47.17644" lon="6.12113">
        <ele>509.1</ele>
        <time>2022-08-10T09:18:28Z</time>
      </trkpt>
      <trkpt lat="47.17641" lon="6.12105">
        <ele>508.7</ele>
        <time>2022-08-10T09:18:29Z</time>
      </trkpt>
      <trkpt lat="47.17639" lon="6.12096">
        <ele>508.4</ele>
        <time>2022-08-10T09:18:30Z</time>
      </trkpt>
      <trkpt lat="47.17637" lon="6.12089">
        <ele>508.2</ele>
        <time>2022-08-10T09:18:31Z</time>
      </trkpt>
      <trkpt lat="47.17635" lon="6.12081">
        <ele>507.9</ele>
        <time>2022-08-10T09:18:32Z</time>
      </trkpt>
      <trkpt lat="47.17635" lon="6.12074">
        <ele>508</ele>
        <time>2022-08-10T09:18:33Z</time>
      </trkpt>
      <trkpt lat="47.17635" lon="6.12067">
        <ele>507.9</ele>
        <time>2022-08-10T09:18:34Z</time>
      </trkpt>
      <trkpt lat="47.17636" lon="6.1206">
        <ele>507.3</ele>
        <time>2022-08-10T09:18:35Z</time>
      </trkpt>
      <trkpt lat="47.17638" lon="6.12052">
        <ele>506.7</ele>
        <time>2022-08-10T09:18:36Z</time>
      </trkpt>
      <trkpt lat="47.1764" lon="6.12043">
        <ele>505.8</ele>
        <time>2022-08-10T09:18:37Z</time>
      </trkpt>
      <trkpt lat="47.17644" lon="6.12033">
        <ele>504.9</ele>
        <time>2022-08-10T09:18:38Z</time>
      </trkpt>
      <trkpt lat="47.17648" lon="6.12025">
        <ele>504.7</ele>
        <time>2022-08-10T09:18:39Z</time>
      </trkpt>
      <trkpt lat="47.17652" lon="6.12017">
        <ele>504.1</ele>
        <time>2022-08-10T09:18:40Z</time>
      </trkpt>
      <trkpt lat="47.17656" lon="6.12012">
        <ele>503.8</ele>
        <time>2022-08-10T09:18:41Z</time>
      </trkpt>
      <trkpt lat="47.1766" lon="6.12006">
        <ele>503.2</ele>
        <time>2022-08-10T09:18:42Z</time>
      </trkpt>
      <trkpt lat="47.17665" lon="6.12002">
        <ele>502.6</ele>
        <time>2022-08-10T09:18:43Z</time>
      </trkpt>
      <trkpt lat="47.17669" lon="6.11998">
        <ele>502.2</ele>
        <time>2022-08-10T09:18:44Z</time>
      </trkpt>
      <trkpt lat="47.17674" lon="6.11994">
        <ele>501.7</ele>
        <time>2022-08-10T09:18:45Z</time>
      </trkpt>
      <trkpt lat="47.17679" lon="6.11989">
        <ele>501.3</ele>
        <time>2022-08-10T09:18:46Z</time>
      </trkpt>
      <trkpt lat="47.17683" lon="6.11985">
        <ele>501</ele>
        <time>2022-08-10T09:18:47Z</time>
      </trkpt>
      <trkpt lat="47.17688" lon="6.11982">
        <ele>500.4</ele>
        <time>2022-08-10T09:18:48Z</time>
      </trkpt>
      <trkpt lat="47.17693" lon="6.11978">
        <ele>499.8</ele>
        <time>2022-08-10T09:18:49Z</time>
      </trkpt>
      <trkpt lat="47.17698" lon="6.11974">
        <ele>499.3</ele>
        <time>2022-08-10T09:18:50Z</time>
      </trkpt>
      <trkpt lat="47.17703" lon="6.11969">
        <ele>498.3</ele>
        <time>2022-08-10T09:18:51Z</time>
      </trkpt>
      <trkpt lat="47.17708" lon="6.11963">
        <ele>497.1</ele>
        <time>2022-08-10T09:18:52Z</time>
      </trkpt>
      <trkpt lat="47.17713" lon="6.11957">
        <ele>496.8</ele>
        <time>2022-08-10T09:18:53Z</time>
      </trkpt>
      <trkpt lat="47.17718" lon="6.11951">
        <ele>496.8</ele>
        <time>2022-08-10T09:18:54Z</time>
      </trkpt>
      <trkpt lat="47.17723" lon="6.11945">
        <ele>496.6</ele>
        <time>2022-08-10T09:18:55Z</time>
      </trkpt>
      <trkpt lat="47.17728" lon="6.1194">
        <ele>496.5</ele>
        <time>2022-08-10T09:18:56Z</time>
      </trkpt>
      <trkpt lat="47.17733" lon="6.11935">
        <ele>496.8</ele>
        <time>2022-08-10T09:18:57Z</time>
      </trkpt>
      <trkpt lat="47.17739" lon="6.1193">
        <ele>496.9</ele>
        <time>2022-08-10T09:18:58Z</time>
      </trkpt>
      <trkpt lat="47.17745" lon="6.11927">
        <ele>496.9</ele>
        <time>2022-08-10T09:18:59Z</time>
      </trkpt>
      <trkpt lat="47.17752" lon="6.11923">
        <ele>497.1</ele>
        <time>2022-08-10T09:19:00Z</time>
      </trkpt>
      <trkpt lat="47.17758" lon="6.11921">
        <ele>496.9</ele>
        <time>2022-08-10T09:19:01Z</time>
      </trkpt>
      <trkpt lat="47.17763" lon="6.11918">
        <ele>497.1</ele>
        <time>2022-08-10T09:19:02Z</time>
      </trkpt>
      <trkpt lat="47.17768" lon="6.11916">
        <ele>496.7</ele>
        <time>2022-08-10T09:19:03Z</time>
      </trkpt>
      <trkpt lat="47.17771" lon="6.11912">
        <ele>496</ele>
        <time>2022-08-10T09:19:04Z</time>
      </trkpt>
      <trkpt lat="47.17774" lon="6.11907">
        <ele>495.7</ele>
        <time>2022-08-10T09:19:05Z</time>
      </trkpt>
      <trkpt lat="47.17775" lon="6.11902">
        <ele>495.7</ele>
        <time>2022-08-10T09:19:06Z</time>
      </trkpt>
      <trkpt lat="47.17774" lon="6.11895">
        <ele>495.9</ele>
        <time>2022-08-10T09:19:07Z</time>
      </trkpt>
      <trkpt lat="47.17772" lon="6.11888">
        <ele>495.8</ele>
        <time>2022-08-10T09:19:08Z</time>
      </trkpt>
      <trkpt lat="47.17769" lon="6.11881">
        <ele>495.8</ele>
        <time>2022-08-10T09:19:09Z</time>
      </trkpt>
      <trkpt lat="47.17767" lon="6.11874">
        <ele>495</ele>
        <time>2022-08-10T09:19:10Z</time>
      </trkpt>
      <trkpt lat="47.17765" lon="6.11867">
        <ele>494.4</ele>
        <time>2022-08-10T09:19:11Z</time>
      </trkpt>
      <trkpt lat="47.17762" lon="6.1186">
        <ele>492.8</ele>
        <time>2022-08-10T09:19:12Z</time>
      </trkpt>
      <trkpt lat="47.17759" lon="6.11852">
        <ele>491.4</ele>
        <time>2022-08-10T09:19:13Z</time>
      </trkpt>
      <trkpt lat="47.17755" lon="6.11844">
        <ele>490.2</ele>
        <time>2022-08-10T09:19:14Z</time>
      </trkpt>
      <trkpt lat="47.17749" lon="6.11836">
        <ele>489</ele>
        <time>2022-08-10T09:19:15Z</time>
      </trkpt>
      <trkpt lat="47.17744" lon="6.11827">
        <ele>487.2</ele>
        <time>2022-08-10T09:19:16Z</time>
      </trkpt>
      <trkpt lat="47.17739" lon="6.11817">
        <ele>486.1</ele>
        <time>2022-08-10T09:19:17Z</time>
      </trkpt>
      <trkpt lat="47.17735" lon="6.11805">
        <ele>485.2</ele>
        <time>2022-08-10T09:19:18Z</time>
      </trkpt>
      <trkpt lat="47.17732" lon="6.11791">
        <ele>484.5</ele>
        <time>2022-08-10T09:19:19Z</time>
      </trkpt>
      <trkpt lat="47.17729" lon="6.11777">
        <ele>484</ele>
        <time>2022-08-10T09:19:20Z</time>
      </trkpt>
      <trkpt lat="47.17727" lon="6.11764">
        <ele>483</ele>
        <time>2022-08-10T09:19:21Z</time>
      </trkpt>
      <trkpt lat="47.17724" lon="6.1175">
        <ele>482.4</ele>
        <time>2022-08-10T09:19:22Z</time>
      </trkpt>
      <trkpt lat="47.17721" lon="6.11736">
        <ele>481.8</ele>
        <time>2022-08-10T09:19:23Z</time>
      </trkpt>
      <trkpt lat="47.17718" lon="6.11722">
        <ele>481.4</ele>
        <time>2022-08-10T09:19:24Z</time>
      </trkpt>
      <trkpt lat="47.17715" lon="6.11707">
        <ele>480.7</ele>
        <time>2022-08-10T09:19:25Z</time>
      </trkpt>
      <trkpt lat="47.17713" lon="6.11692">
        <ele>479.9</ele>
        <time>2022-08-10T09:19:26Z</time>
      </trkpt>
      <trkpt lat="47.17711" lon="6.11677">
        <ele>478.6</ele>
        <time>2022-08-10T09:19:27Z</time>
      </trkpt>
      <trkpt lat="47.17708" lon="6.11661">
        <ele>477.5</ele>
        <time>2022-08-10T09:19:28Z</time>
      </trkpt>
      <trkpt lat="47.17706" lon="6.11645">
        <ele>475.9</ele>
        <time>2022-08-10T09:19:29Z</time>
      </trkpt>
      <trkpt lat="47.17703" lon="6.11628">
        <ele>474.6</ele>
        <time>2022-08-10T09:19:30Z</time>
      </trkpt>
      <trkpt lat="47.177" lon="6.11611">
        <ele>473.6</ele>
        <time>2022-08-10T09:19:31Z</time>
      </trkpt>
      <trkpt lat="47.17698" lon="6.11594">
        <ele>472.5</ele>
        <time>2022-08-10T09:19:32Z</time>
      </trkpt>
      <trkpt lat="47.17696" lon="6.11577">
        <ele>471.7</ele>
        <time>2022-08-10T09:19:33Z</time>
      </trkpt>
      <trkpt lat="47.17695" lon="6.1156">
        <ele>470.5</ele>
        <time>2022-08-10T09:19:34Z</time>
      </trkpt>
      <trkpt lat="47.17694" lon="6.11542">
        <ele>469.2</ele>
        <time>2022-08-10T09:19:35Z</time>
      </trkpt>
      <trkpt lat="47.17693" lon="6.11525">
        <ele>467.7</ele>
        <time>2022-08-10T09:19:36Z</time>
      </trkpt>
      <trkpt lat="47.17693" lon="6.11507">
        <ele>466.4</ele>
        <time>2022-08-10T09:19:37Z</time>
      </trkpt>
      <trkpt lat="47.17692" lon="6.1149">
        <ele>465.4</ele>
        <time>2022-08-10T09:19:38Z</time>
      </trkpt>
      <trkpt lat="47.17693" lon="6.11474">
        <ele>464.2</ele>
        <time>2022-08-10T09:19:39Z</time>
      </trkpt>
      <trkpt lat="47.17695" lon="6.1146">
        <ele>462.9</ele>
        <time>2022-08-10T09:19:40Z</time>
      </trkpt>
      <trkpt lat="47.17697" lon="6.11446">
        <ele>462.1</ele>
        <time>2022-08-10T09:19:41Z</time>
      </trkpt>
      <trkpt lat="47.177" lon="6.11433">
        <ele>461.6</ele>
        <time>2022-08-10T09:19:42Z</time>
      </trkpt>
      <trkpt lat="47.17705" lon="6.11421">
        <ele>461</ele>
        <time>2022-08-10T09:19:43Z</time>
      </trkpt>
      <trkpt lat="47.17709" lon="6.1141">
        <ele>461</ele>
        <time>2022-08-10T09:19:44Z</time>
      </trkpt>
      <trkpt lat="47.17713" lon="6.11398">
        <ele>460.5</ele>
        <time>2022-08-10T09:19:45Z</time>
      </trkpt>
      <trkpt lat="47.17716" lon="6.11386">
        <ele>460.4</ele>
        <time>2022-08-10T09:19:46Z</time>
      </trkpt>
      <trkpt lat="47.1772" lon="6.11373">
        <ele>460.1</ele>
        <time>2022-08-10T09:19:47Z</time>
      </trkpt>
      <trkpt lat="47.17723" lon="6.11361">
        <ele>459.5</ele>
        <time>2022-08-10T09:19:48Z</time>
      </trkpt>
      <trkpt lat="47.17727" lon="6.11349">
        <ele>458.8</ele>
        <time>2022-08-10T09:19:49Z</time>
      </trkpt>
      <trkpt lat="47.1773" lon="6.11336">
        <ele>458.4</ele>
        <time>2022-08-10T09:19:50Z</time>
      </trkpt>
      <trkpt lat="47.17731" lon="6.11323">
        <ele>458.5</ele>
        <time>2022-08-10T09:19:51Z</time>
      </trkpt>
      <trkpt lat="47.17732" lon="6.11309">
        <ele>458.2</ele>
        <time>2022-08-10T09:19:52Z</time>
      </trkpt>
      <trkpt lat="47.17731" lon="6.11295">
        <ele>457.9</ele>
        <time>2022-08-10T09:19:53Z</time>
      </trkpt>
      <trkpt lat="47.17729" lon="6.1128">
        <ele>457.4</ele>
        <time>2022-08-10T09:19:54Z</time>
      </trkpt>
      <trkpt lat="47.17729" lon="6.11265">
        <ele>456.9</ele>
        <time>2022-08-10T09:19:55Z</time>
      </trkpt>
      <trkpt lat="47.17731" lon="6.1125">
        <ele>456.3</ele>
        <time>2022-08-10T09:19:56Z</time>
      </trkpt>
      <trkpt lat="47.17733" lon="6.11237">
        <ele>455.8</ele>
        <time>2022-08-10T09:19:57Z</time>
      </trkpt>
      <trkpt lat="47.17735" lon="6.11224">
        <ele>455</ele>
        <time>2022-08-10T09:19:58Z</time>
      </trkpt>
      <trkpt lat="47.17736" lon="6.11212">
        <ele>454.7</ele>
        <time>2022-08-10T09:19:59Z</time>
      </trkpt>
      <trkpt lat="47.17737" lon="6.11202">
        <ele>454.6</ele>
        <time>2022-08-10T09:20:00Z</time>
      </trkpt>
      <trkpt lat="47.17738" lon="6.11193">
        <ele>454.3</ele>
        <time>2022-08-10T09:20:01Z</time>
      </trkpt>
      <trkpt lat="47.17739" lon="6.11185">
        <ele>454.2</ele>
        <time>2022-08-10T09:20:02Z</time>
      </trkpt>
      <trkpt lat="47.1774" lon="6.11178">
        <ele>454.1</ele>
        <time>2022-08-10T09:20:03Z</time>
      </trkpt>
      <trkpt lat="47.17741" lon="6.11173">
        <ele>454.2</ele>
        <time>2022-08-10T09:20:04Z</time>
      </trkpt>
      <trkpt lat="47.17741" lon="6.11168">
        <ele>454.3</ele>
        <time>2022-08-10T09:20:05Z</time>
      </trkpt>
      <trkpt lat="47.17741" lon="6.11165">
        <ele>453.8</ele>
        <time>2022-08-10T09:20:06Z</time>
      </trkpt>
      <trkpt lat="47.17741" lon="6.11163">
        <ele>454.1</ele>
        <time>2022-08-10T09:20:07Z</time>
      </trkpt>
      <trkpt lat="47.17742" lon="6.11162">
        <ele>454.7</ele>
        <time>2022-08-10T09:20:08Z</time>
      </trkpt>
      <trkpt lat="47.17742" lon="6.1116">
        <ele>455.4</ele>
        <time>2022-08-10T09:20:09Z</time>
      </trkpt>
      <trkpt lat="47.17743" lon="6.11158">
        <ele>456</ele>
        <time>2022-08-10T09:20:10Z</time>
      </trkpt>
      <trkpt lat="47.17743" lon="6.11154">
        <ele>456.3</ele>
        <time>2022-08-10T09:20:11Z</time>
      </trkpt>
      <trkpt lat="47.17743" lon="6.1115">
        <ele>456.6</ele>
        <time>2022-08-10T09:20:12Z</time>
      </trkpt>
      <trkpt lat="47.17744" lon="6.11145">
        <ele>456.6</ele>
        <time>2022-08-10T09:20:13Z</time>
      </trkpt>
      <trkpt lat="47.17744" lon="6.11139">
        <ele>456.7</ele>
        <time>2022-08-10T09:20:14Z</time>
      </trkpt>
      <trkpt lat="47.17745" lon="6.11133">
        <ele>456.5</ele>
        <time>2022-08-10T09:20:15Z</time>
      </trkpt>
      <trkpt lat="47.17746" lon="6.11127">
        <ele>456.5</ele>
        <time>2022-08-10T09:20:16Z</time>
      </trkpt>
      <trkpt lat="47.17747" lon="6.1112">
        <ele>456.7</ele>
        <time>2022-08-10T09:20:17Z</time>
      </trkpt>
      <trkpt lat="47.17748" lon="6.11113">
        <ele>456.8</ele>
        <time>2022-08-10T09:20:18Z</time>
      </trkpt>
      <trkpt lat="47.17749" lon="6.11105">
        <ele>457</ele>
        <time>2022-08-10T09:20:19Z</time>
      </trkpt>
      <trkpt lat="47.1775" lon="6.11097">
        <ele>456.9</ele>
        <time>2022-08-10T09:20:20Z</time>
      </trkpt>
      <trkpt lat="47.17752" lon="6.11089">
        <ele>456.8</ele>
        <time>2022-08-10T09:20:21Z</time>
      </trkpt>
      <trkpt lat="47.17753" lon="6.11081">
        <ele>457.1</ele>
        <time>2022-08-10T09:20:22Z</time>
      </trkpt>
      <trkpt lat="47.17755" lon="6.11073">
        <ele>457.2</ele>
        <time>2022-08-10T09:20:23Z</time>
      </trkpt>
      <trkpt lat="47.17756" lon="6.11065">
        <ele>457.1</ele>
        <time>2022-08-10T09:20:24Z</time>
      </trkpt>
      <trkpt lat="47.17758" lon="6.11057">
        <ele>457.3</ele>
        <time>2022-08-10T09:20:25Z</time>
      </trkpt>
      <trkpt lat="47.1776" lon="6.11048">
        <ele>456.7</ele>
        <time>2022-08-10T09:20:26Z</time>
      </trkpt>
      <trkpt lat="47.17761" lon="6.1104">
        <ele>456.6</ele>
        <time>2022-08-10T09:20:27Z</time>
      </trkpt>
      <trkpt lat="47.17762" lon="6.11031">
        <ele>456.4</ele>
        <time>2022-08-10T09:20:28Z</time>
      </trkpt>
      <trkpt lat="47.17764" lon="6.11023">
        <ele>456.3</ele>
        <time>2022-08-10T09:20:29Z</time>
      </trkpt>
      <trkpt lat="47.17765" lon="6.11013">
        <ele>455.6</ele>
        <time>2022-08-10T09:20:30Z</time>
      </trkpt>
      <trkpt lat="47.17766" lon="6.11004">
        <ele>455.3</ele>
        <time>2022-08-10T09:20:31Z</time>
      </trkpt>
      <trkpt lat="47.17767" lon="6.10995">
        <ele>454.2</ele>
        <time>2022-08-10T09:20:32Z</time>
      </trkpt>
      <trkpt lat="47.17768" lon="6.10986">
        <ele>453.2</ele>
        <time>2022-08-10T09:20:33Z</time>
      </trkpt>
      <trkpt lat="47.17769" lon="6.10977">
        <ele>452.4</ele>
        <time>2022-08-10T09:20:34Z</time>
      </trkpt>
      <trkpt lat="47.1777" lon="6.10968">
        <ele>452</ele>
        <time>2022-08-10T09:20:35Z</time>
      </trkpt>
      <trkpt lat="47.17771" lon="6.10959">
        <ele>452.2</ele>
        <time>2022-08-10T09:20:36Z</time>
      </trkpt>
      <trkpt lat="47.17771" lon="6.1095">
        <ele>452.3</ele>
        <time>2022-08-10T09:20:37Z</time>
      </trkpt>
      <trkpt lat="47.17772" lon="6.1094">
        <ele>452.3</ele>
        <time>2022-08-10T09:20:38Z</time>
      </trkpt>
      <trkpt lat="47.17773" lon="6.10931">
        <ele>452.3</ele>
        <time>2022-08-10T09:20:39Z</time>
      </trkpt>
      <trkpt lat="47.17774" lon="6.10922">
        <ele>452.2</ele>
        <time>2022-08-10T09:20:40Z</time>
      </trkpt>
      <trkpt lat="47.17774" lon="6.10912">
        <ele>452.2</ele>
        <time>2022-08-10T09:20:41Z</time>
      </trkpt>
      <trkpt lat="47.17774" lon="6.10903">
        <ele>451.9</ele>
        <time>2022-08-10T09:20:42Z</time>
      </trkpt>
      <trkpt lat="47.17774" lon="6.10894">
        <ele>451.3</ele>
        <time>2022-08-10T09:20:43Z</time>
      </trkpt>
      <trkpt lat="47.17774" lon="6.10884">
        <ele>450.7</ele>
        <time>2022-08-10T09:20:44Z</time>
      </trkpt>
      <trkpt lat="47.17774" lon="6.10874">
        <ele>450.5</ele>
        <time>2022-08-10T09:20:45Z</time>
      </trkpt>
      <trkpt lat="47.17774" lon="6.10864">
        <ele>450.1</ele>
        <time>2022-08-10T09:20:46Z</time>
      </trkpt>
      <trkpt lat="47.17774" lon="6.10854">
        <ele>450</ele>
        <time>2022-08-10T09:20:47Z</time>
      </trkpt>
      <trkpt lat="47.17774" lon="6.10845">
        <ele>449.9</ele>
        <time>2022-08-10T09:20:48Z</time>
      </trkpt>
      <trkpt lat="47.17774" lon="6.10835">
        <ele>449.9</ele>
        <time>2022-08-10T09:20:49Z</time>
      </trkpt>
      <trkpt lat="47.17774" lon="6.10825">
        <ele>450.2</ele>
        <time>2022-08-10T09:20:50Z</time>
      </trkpt>
      <trkpt lat="47.17775" lon="6.10816">
        <ele>450.2</ele>
        <time>2022-08-10T09:20:51Z</time>
      </trkpt>
      <trkpt lat="47.17775" lon="6.10806">
        <ele>449.9</ele>
        <time>2022-08-10T09:20:52Z</time>
      </trkpt>
      <trkpt lat="47.17775" lon="6.10796">
        <ele>449.8</ele>
        <time>2022-08-10T09:20:53Z</time>
      </trkpt>
      <trkpt lat="47.17776" lon="6.10786">
        <ele>449.8</ele>
        <time>2022-08-10T09:20:54Z</time>
      </trkpt>
      <trkpt lat="47.17777" lon="6.10777">
        <ele>449.9</ele>
        <time>2022-08-10T09:20:55Z</time>
      </trkpt>
      <trkpt lat="47.17778" lon="6.10768">
        <ele>450.2</ele>
        <time>2022-08-10T09:20:56Z</time>
      </trkpt>
      <trkpt lat="47.17781" lon="6.10761">
        <ele>450.7</ele>
        <time>2022-08-10T09:20:57Z</time>
      </trkpt>
      <trkpt lat="47.17783" lon="6.10754">
        <ele>451.1</ele>
        <time>2022-08-10T09:20:58Z</time>
      </trkpt>
      <trkpt lat="47.17786" lon="6.10746">
        <ele>451.6</ele>
        <time>2022-08-10T09:20:59Z</time>
      </trkpt>
      <trkpt lat="47.17788" lon="6.10739">
        <ele>452</ele>
        <time>2022-08-10T09:21:00Z</time>
      </trkpt>
      <trkpt lat="47.17791" lon="6.10731">
        <ele>452</ele>
        <time>2022-08-10T09:21:01Z</time>
      </trkpt>
      <trkpt lat="47.17793" lon="6.10723">
        <ele>451.9</ele>
        <time>2022-08-10T09:21:02Z</time>
      </trkpt>
      <trkpt lat="47.17795" lon="6.10715">
        <ele>451.9</ele>
        <time>2022-08-10T09:21:03Z</time>
      </trkpt>
      <trkpt lat="47.17798" lon="6.10706">
        <ele>452.4</ele>
        <time>2022-08-10T09:21:04Z</time>
      </trkpt>
      <trkpt lat="47.17801" lon="6.10698">
        <ele>452.5</ele>
        <time>2022-08-10T09:21:05Z</time>
      </trkpt>
      <trkpt lat="47.17804" lon="6.1069">
        <ele>452.6</ele>
        <time>2022-08-10T09:21:06Z</time>
      </trkpt>
      <trkpt lat="47.17807" lon="6.10682">
        <ele>452.6</ele>
        <time>2022-08-10T09:21:07Z</time>
      </trkpt>
      <trkpt lat="47.1781" lon="6.10675">
        <ele>452.6</ele>
        <time>2022-08-10T09:21:08Z</time>
      </trkpt>
      <trkpt lat="47.17813" lon="6.10668">
        <ele>452.7</ele>
        <time>2022-08-10T09:21:09Z</time>
      </trkpt>
      <trkpt lat="47.17815" lon="6.10661">
        <ele>452.8</ele>
        <time>2022-08-10T09:21:10Z</time>
      </trkpt>
      <trkpt lat="47.17818" lon="6.10654">
        <ele>452.7</ele>
        <time>2022-08-10T09:21:11Z</time>
      </trkpt>
      <trkpt lat="47.17821" lon="6.10648">
        <ele>452.7</ele>
        <time>2022-08-10T09:21:12Z</time>
      </trkpt>
      <trkpt lat="47.17823" lon="6.10641">
        <ele>452.4</ele>
        <time>2022-08-10T09:21:13Z</time>
      </trkpt>
      <trkpt lat="47.17826" lon="6.10635">
        <ele>452.4</ele>
        <time>2022-08-10T09:21:14Z</time>
      </trkpt>
      <trkpt lat="47.17829" lon="6.10629">
        <ele>452.4</ele>
        <time>2022-08-10T09:21:15Z</time>
      </trkpt>
      <trkpt lat="47.17831" lon="6.10623">
        <ele>452.6</ele>
        <time>2022-08-10T09:21:16Z</time>
      </trkpt>
      <trkpt lat="47.17834" lon="6.10618">
        <ele>453</ele>
        <time>2022-08-10T09:21:17Z</time>
      </trkpt>
      <trkpt lat="47.17837" lon="6.10612">
        <ele>453.4</ele>
        <time>2022-08-10T09:21:18Z</time>
      </trkpt>
      <trkpt lat="47.1784" lon="6.10607">
        <ele>453.8</ele>
        <time>2022-08-10T09:21:19Z</time>
      </trkpt>
      <trkpt lat="47.17843" lon="6.10602">
        <ele>454.3</ele>
        <time>2022-08-10T09:21:20Z</time>
      </trkpt>
      <trkpt lat="47.17845" lon="6.10597">
        <ele>454.8</ele>
        <time>2022-08-10T09:21:21Z</time>
      </trkpt>
      <trkpt lat="47.17847" lon="6.10591">
        <ele>455.4</ele>
        <time>2022-08-10T09:21:22Z</time>
      </trkpt>
      <trkpt lat="47.17848" lon="6.10587">
        <ele>456</ele>
        <time>2022-08-10T09:21:23Z</time>
      </trkpt>
      <trkpt lat="47.1785" lon="6.10582">
        <ele>456.3</ele>
        <time>2022-08-10T09:21:24Z</time>
      </trkpt>
      <trkpt lat="47.17851" lon="6.10578">
        <ele>456.3</ele>
        <time>2022-08-10T09:21:25Z</time>
      </trkpt>
      <trkpt lat="47.1785" lon="6.10574">
        <ele>456.5</ele>
        <time>2022-08-10T09:21:26Z</time>
      </trkpt>
      <trkpt lat="47.1785" lon="6.1057">
        <ele>456.5</ele>
        <time>2022-08-10T09:21:27Z</time>
      </trkpt>
      <trkpt lat="47.17849" lon="6.10566">
        <ele>456.2</ele>
        <time>2022-08-10T09:21:28Z</time>
      </trkpt>
      <trkpt lat="47.17847" lon="6.10563">
        <ele>456.3</ele>
        <time>2022-08-10T09:21:29Z</time>
      </trkpt>
      <trkpt lat="47.17846" lon="6.10559">
        <ele>456.2</ele>
        <time>2022-08-10T09:21:30Z</time>
      </trkpt>
      <trkpt lat="47.17843" lon="6.10556">
        <ele>456.5</ele>
        <time>2022-08-10T09:21:31Z</time>
      </trkpt>
      <trkpt lat="47.17841" lon="6.10552">
        <ele>456.7</ele>
        <time>2022-08-10T09:21:32Z</time>
      </trkpt>
      <trkpt lat="47.17839" lon="6.10548">
        <ele>457.6</ele>
        <time>2022-08-10T09:21:33Z</time>
      </trkpt>
      <trkpt lat="47.17836" lon="6.10545">
        <ele>458.2</ele>
        <time>2022-08-10T09:21:34Z</time>
      </trkpt>
      <trkpt lat="47.17834" lon="6.10541">
        <ele>459.7</ele>
        <time>2022-08-10T09:21:35Z</time>
      </trkpt>
      <trkpt lat="47.17832" lon="6.10538">
        <ele>460.8</ele>
        <time>2022-08-10T09:21:36Z</time>
      </trkpt>
      <trkpt lat="47.17829" lon="6.10535">
        <ele>462.1</ele>
        <time>2022-08-10T09:21:37Z</time>
      </trkpt>
      <trkpt lat="47.17827" lon="6.10532">
        <ele>462.6</ele>
        <time>2022-08-10T09:21:38Z</time>
      </trkpt>
      <trkpt lat="47.17825" lon="6.10528">
        <ele>463.2</ele>
        <time>2022-08-10T09:21:39Z</time>
      </trkpt>
      <trkpt lat="47.17823" lon="6.10526">
        <ele>464</ele>
        <time>2022-08-10T09:21:40Z</time>
      </trkpt>
      <trkpt lat="47.1782" lon="6.10523">
        <ele>464.7</ele>
        <time>2022-08-10T09:21:41Z</time>
      </trkpt>
      <trkpt lat="47.17818" lon="6.1052">
        <ele>465.6</ele>
        <time>2022-08-10T09:21:42Z</time>
      </trkpt>
      <trkpt lat="47.17815" lon="6.10517">
        <ele>465.8</ele>
        <time>2022-08-10T09:21:43Z</time>
      </trkpt>
      <trkpt lat="47.17813" lon="6.10513">
        <ele>466.1</ele>
        <time>2022-08-10T09:21:44Z</time>
      </trkpt>
      <trkpt lat="47.1781" lon="6.10509">
        <ele>466.3</ele>
        <time>2022-08-10T09:21:45Z</time>
      </trkpt>
      <trkpt lat="47.17806" lon="6.10506">
        <ele>467.7</ele>
        <time>2022-08-10T09:21:46Z</time>
      </trkpt>
      <trkpt lat="47.17803" lon="6.10502">
        <ele>468.4</ele>
        <time>2022-08-10T09:21:47Z</time>
      </trkpt>
      <trkpt lat="47.178" lon="6.10498">
        <ele>468.9</ele>
        <time>2022-08-10T09:21:48Z</time>
      </trkpt>
      <trkpt lat="47.17796" lon="6.10495">
        <ele>469.3</ele>
        <time>2022-08-10T09:21:49Z</time>
      </trkpt>
      <trkpt lat="47.17793" lon="6.1049">
        <ele>469.9</ele>
        <time>2022-08-10T09:21:50Z</time>
      </trkpt>
      <trkpt lat="47.17789" lon="6.10486">
        <ele>470.5</ele>
        <time>2022-08-10T09:21:51Z</time>
      </trkpt>
      <trkpt lat="47.17786" lon="6.10481">
        <ele>471</ele>
        <time>2022-08-10T09:21:52Z</time>
      </trkpt>
      <trkpt lat="47.17783" lon="6.10475">
        <ele>471.1</ele>
        <time>2022-08-10T09:21:53Z</time>
      </trkpt>
      <trkpt lat="47.17779" lon="6.10468">
        <ele>470.9</ele>
        <time>2022-08-10T09:21:54Z</time>
      </trkpt>
      <trkpt lat="47.17774" lon="6.10462">
        <ele>470.8</ele>
        <time>2022-08-10T09:21:55Z</time>
      </trkpt>
      <trkpt lat="47.1777" lon="6.10457">
        <ele>470.6</ele>
        <time>2022-08-10T09:21:56Z</time>
      </trkpt>
      <trkpt lat="47.17766" lon="6.10451">
        <ele>470</ele>
        <time>2022-08-10T09:21:57Z</time>
      </trkpt>
      <trkpt lat="47.17762" lon="6.10446">
        <ele>469.9</ele>
        <time>2022-08-10T09:21:58Z</time>
      </trkpt>
      <trkpt lat="47.17758" lon="6.1044">
        <ele>469.5</ele>
        <time>2022-08-10T09:21:59Z</time>
      </trkpt>
      <trkpt lat="47.17754" lon="6.10434">
        <ele>469</ele>
        <time>2022-08-10T09:22:00Z</time>
      </trkpt>
      <trkpt lat="47.17749" lon="6.10428">
        <ele>468.8</ele>
        <time>2022-08-10T09:22:01Z</time>
      </trkpt>
      <trkpt lat="47.17745" lon="6.10422">
        <ele>468.5</ele>
        <time>2022-08-10T09:22:02Z</time>
      </trkpt>
      <trkpt lat="47.17741" lon="6.10416">
        <ele>468.4</ele>
        <time>2022-08-10T09:22:03Z</time>
      </trkpt>
      <trkpt lat="47.17736" lon="6.1041">
        <ele>468.3</ele>
        <time>2022-08-10T09:22:04Z</time>
      </trkpt>
      <trkpt lat="47.17732" lon="6.10404">
        <ele>468.3</ele>
        <time>2022-08-10T09:22:05Z</time>
      </trkpt>
      <trkpt lat="47.17728" lon="6.10398">
        <ele>467.9</ele>
        <time>2022-08-10T09:22:06Z</time>
      </trkpt>
      <trkpt lat="47.17723" lon="6.10392">
        <ele>467.2</ele>
        <time>2022-08-10T09:22:07Z</time>
      </trkpt>
      <trkpt lat="47.17719" lon="6.10386">
        <ele>466.8</ele>
        <time>2022-08-10T09:22:08Z</time>
      </trkpt>
      <trkpt lat="47.17715" lon="6.1038">
        <ele>466.5</ele>
        <time>2022-08-10T09:22:09Z</time>
      </trkpt>
      <trkpt lat="47.17711" lon="6.10375">
        <ele>466.2</ele>
        <time>2022-08-10T09:22:10Z</time>
      </trkpt>
      <trkpt lat="47.17706" lon="6.10369">
        <ele>466.1</ele>
        <time>2022-08-10T09:22:11Z</time>
      </trkpt>
      <trkpt lat="47.17702" lon="6.10365">
        <ele>465.8</ele>
        <time>2022-08-10T09:22:12Z</time>
      </trkpt>
      <trkpt lat="47.17697" lon="6.10359">
        <ele>465.5</ele>
        <time>2022-08-10T09:22:13Z</time>
      </trkpt>
      <trkpt lat="47.17693" lon="6.10353">
        <ele>465.4</ele>
        <time>2022-08-10T09:22:14Z</time>
      </trkpt>
      <trkpt lat="47.17688" lon="6.10349">
        <ele>465.3</ele>
        <time>2022-08-10T09:22:15Z</time>
      </trkpt>
      <trkpt lat="47.17683" lon="6.10344">
        <ele>465.3</ele>
        <time>2022-08-10T09:22:16Z</time>
      </trkpt>
      <trkpt lat="47.17678" lon="6.10341">
        <ele>465.1</ele>
        <time>2022-08-10T09:22:17Z</time>
      </trkpt>
      <trkpt lat="47.17673" lon="6.10336">
        <ele>464.9</ele>
        <time>2022-08-10T09:22:18Z</time>
      </trkpt>
      <trkpt lat="47.17668" lon="6.10332">
        <ele>464.5</ele>
        <time>2022-08-10T09:22:19Z</time>
      </trkpt>
      <trkpt lat="47.17663" lon="6.10327">
        <ele>464</ele>
        <time>2022-08-10T09:22:20Z</time>
      </trkpt>
      <trkpt lat="47.17658" lon="6.10323">
        <ele>464.1</ele>
        <time>2022-08-10T09:22:21Z</time>
      </trkpt>
      <trkpt lat="47.17653" lon="6.10318">
        <ele>463.8</ele>
        <time>2022-08-10T09:22:22Z</time>
      </trkpt>
      <trkpt lat="47.17648" lon="6.10314">
        <ele>463.7</ele>
        <time>2022-08-10T09:22:23Z</time>
      </trkpt>
      <trkpt lat="47.17643" lon="6.10309">
        <ele>463.9</ele>
        <time>2022-08-10T09:22:24Z</time>
      </trkpt>
      <trkpt lat="47.17638" lon="6.10305">
        <ele>464.1</ele>
        <time>2022-08-10T09:22:25Z</time>
      </trkpt>
      <trkpt lat="47.17633" lon="6.10301">
        <ele>464.2</ele>
        <time>2022-08-10T09:22:26Z</time>
      </trkpt>
      <trkpt lat="47.17628" lon="6.10297">
        <ele>464.7</ele>
        <time>2022-08-10T09:22:27Z</time>
      </trkpt>
      <trkpt lat="47.17624" lon="6.10292">
        <ele>465</ele>
        <time>2022-08-10T09:22:28Z</time>
      </trkpt>
      <trkpt lat="47.17619" lon="6.10287">
        <ele>465</ele>
        <time>2022-08-10T09:22:29Z</time>
      </trkpt>
      <trkpt lat="47.17614" lon="6.10283">
        <ele>464.9</ele>
        <time>2022-08-10T09:22:30Z</time>
      </trkpt>
      <trkpt lat="47.1761" lon="6.10278">
        <ele>464.7</ele>
        <time>2022-08-10T09:22:31Z</time>
      </trkpt>
      <trkpt lat="47.17605" lon="6.10274">
        <ele>464.9</ele>
        <time>2022-08-10T09:22:32Z</time>
      </trkpt>
      <trkpt lat="47.176" lon="6.1027">
        <ele>464.9</ele>
        <time>2022-08-10T09:22:33Z</time>
      </trkpt>
      <trkpt lat="47.17596" lon="6.10265">
        <ele>465.4</ele>
        <time>2022-08-10T09:22:34Z</time>
      </trkpt>
      <trkpt lat="47.17591" lon="6.1026">
        <ele>465.7</ele>
        <time>2022-08-10T09:22:35Z</time>
      </trkpt>
      <trkpt lat="47.17586" lon="6.10255">
        <ele>466</ele>
        <time>2022-08-10T09:22:36Z</time>
      </trkpt>
      <trkpt lat="47.17581" lon="6.10251">
        <ele>466.4</ele>
        <time>2022-08-10T09:22:37Z</time>
      </trkpt>
      <trkpt lat="47.17577" lon="6.10246">
        <ele>466.2</ele>
        <time>2022-08-10T09:22:38Z</time>
      </trkpt>
      <trkpt lat="47.17573" lon="6.10241">
        <ele>466</ele>
        <time>2022-08-10T09:22:39Z</time>
      </trkpt>
      <trkpt lat="47.17568" lon="6.10236">
        <ele>465.6</ele>
        <time>2022-08-10T09:22:40Z</time>
      </trkpt>
      <trkpt lat="47.17563" lon="6.10231">
        <ele>465.3</ele>
        <time>2022-08-10T09:22:41Z</time>
      </trkpt>
      <trkpt lat="47.17559" lon="6.10225">
        <ele>465.1</ele>
        <time>2022-08-10T09:22:42Z</time>
      </trkpt>
      <trkpt lat="47.17554" lon="6.10219">
        <ele>464.8</ele>
        <time>2022-08-10T09:22:43Z</time>
      </trkpt>
      <trkpt lat="47.1755" lon="6.10214">
        <ele>464.4</ele>
        <time>2022-08-10T09:22:44Z</time>
      </trkpt>
      <trkpt lat="47.17545" lon="6.10209">
        <ele>464</ele>
        <time>2022-08-10T09:22:45Z</time>
      </trkpt>
      <trkpt lat="47.1754" lon="6.10204">
        <ele>464</ele>
        <time>2022-08-10T09:22:46Z</time>
      </trkpt>
      <trkpt lat="47.17535" lon="6.10199">
        <ele>463.9</ele>
        <time>2022-08-10T09:22:47Z</time>
      </trkpt>
      <trkpt lat="47.1753" lon="6.10193">
        <ele>463.6</ele>
        <time>2022-08-10T09:22:48Z</time>
      </trkpt>
      <trkpt lat="47.17525" lon="6.10187">
        <ele>463.1</ele>
        <time>2022-08-10T09:22:49Z</time>
      </trkpt>
      <trkpt lat="47.1752" lon="6.10181">
        <ele>462.9</ele>
        <time>2022-08-10T09:22:50Z</time>
      </trkpt>
      <trkpt lat="47.17515" lon="6.10175">
        <ele>462.5</ele>
        <time>2022-08-10T09:22:51Z</time>
      </trkpt>
      <trkpt lat="47.1751" lon="6.10169">
        <ele>462.4</ele>
        <time>2022-08-10T09:22:52Z</time>
      </trkpt>
      <trkpt lat="47.17505" lon="6.10162">
        <ele>462</ele>
        <time>2022-08-10T09:22:53Z</time>
      </trkpt>
      <trkpt lat="47.17499" lon="6.10155">
        <ele>461.9</ele>
        <time>2022-08-10T09:22:54Z</time>
      </trkpt>
      <trkpt lat="47.17494" lon="6.10149">
        <ele>461.6</ele>
        <time>2022-08-10T09:22:55Z</time>
      </trkpt>
      <trkpt lat="47.17488" lon="6.10142">
        <ele>461.2</ele>
        <time>2022-08-10T09:22:56Z</time>
      </trkpt>
      <trkpt lat="47.17483" lon="6.10136">
        <ele>461.2</ele>
        <time>2022-08-10T09:22:57Z</time>
      </trkpt>
      <trkpt lat="47.17478" lon="6.1013">
        <ele>461.1</ele>
        <time>2022-08-10T09:22:58Z</time>
      </trkpt>
      <trkpt lat="47.17473" lon="6.10124">
        <ele>461.4</ele>
        <time>2022-08-10T09:22:59Z</time>
      </trkpt>
      <trkpt lat="47.17468" lon="6.10117">
        <ele>461.4</ele>
        <time>2022-08-10T09:23:00Z</time>
      </trkpt>
      <trkpt lat="47.17463" lon="6.10111">
        <ele>461.2</ele>
        <time>2022-08-10T09:23:01Z</time>
      </trkpt>
      <trkpt lat="47.17458" lon="6.10105">
        <ele>461.5</ele>
        <time>2022-08-10T09:23:02Z</time>
      </trkpt>
      <trkpt lat="47.17453" lon="6.10099">
        <ele>461.6</ele>
        <time>2022-08-10T09:23:03Z</time>
      </trkpt>
      <trkpt lat="47.17448" lon="6.10093">
        <ele>461.8</ele>
        <time>2022-08-10T09:23:04Z</time>
      </trkpt>
      <trkpt lat="47.17443" lon="6.10087">
        <ele>462.1</ele>
        <time>2022-08-10T09:23:05Z</time>
      </trkpt>
      <trkpt lat="47.17439" lon="6.10081">
        <ele>462.4</ele>
        <time>2022-08-10T09:23:06Z</time>
      </trkpt>
      <trkpt lat="47.17434" lon="6.10076">
        <ele>462.8</ele>
        <time>2022-08-10T09:23:07Z</time>
      </trkpt>
      <trkpt lat="47.17429" lon="6.1007">
        <ele>462.8</ele>
        <time>2022-08-10T09:23:08Z</time>
      </trkpt>
      <trkpt lat="47.17424" lon="6.10064">
        <ele>462.8</ele>
        <time>2022-08-10T09:23:09Z</time>
      </trkpt>
      <trkpt lat="47.1742" lon="6.10057">
        <ele>462.6</ele>
        <time>2022-08-10T09:23:10Z</time>
      </trkpt>
      <trkpt lat="47.17415" lon="6.10051">
        <ele>462.2</ele>
        <time>2022-08-10T09:23:11Z</time>
      </trkpt>
      <trkpt lat="47.1741" lon="6.10045">
        <ele>462.1</ele>
        <time>2022-08-10T09:23:12Z</time>
      </trkpt>
      <trkpt lat="47.17406" lon="6.10039">
        <ele>462.2</ele>
        <time>2022-08-10T09:23:13Z</time>
      </trkpt>
      <trkpt lat="47.17401" lon="6.10032">
        <ele>462.1</ele>
        <time>2022-08-10T09:23:14Z</time>
      </trkpt>
      <trkpt lat="47.17396" lon="6.10026">
        <ele>461.9</ele>
        <time>2022-08-10T09:23:15Z</time>
      </trkpt>
      <trkpt lat="47.17391" lon="6.10019">
        <ele>461.2</ele>
        <time>2022-08-10T09:23:16Z</time>
      </trkpt>
      <trkpt lat="47.17385" lon="6.10012">
        <ele>460.6</ele>
        <time>2022-08-10T09:23:17Z</time>
      </trkpt>
      <trkpt lat="47.1738" lon="6.10004">
        <ele>459.6</ele>
        <time>2022-08-10T09:23:18Z</time>
      </trkpt>
      <trkpt lat="47.17374" lon="6.09995">
        <ele>457.9</ele>
        <time>2022-08-10T09:23:19Z</time>
      </trkpt>
      <trkpt lat="47.17369" lon="6.09986">
        <ele>456.6</ele>
        <time>2022-08-10T09:23:20Z</time>
      </trkpt>
      <trkpt lat="47.17364" lon="6.09978">
        <ele>455.9</ele>
        <time>2022-08-10T09:23:21Z</time>
      </trkpt>
      <trkpt lat="47.17359" lon="6.0997">
        <ele>455.4</ele>
        <time>2022-08-10T09:23:22Z</time>
      </trkpt>
      <trkpt lat="47.17355" lon="6.09963">
        <ele>455</ele>
        <time>2022-08-10T09:23:23Z</time>
      </trkpt>
      <trkpt lat="47.17351" lon="6.09955">
        <ele>454.8</ele>
        <time>2022-08-10T09:23:24Z</time>
      </trkpt>
      <trkpt lat="47.17346" lon="6.09948">
        <ele>454.7</ele>
        <time>2022-08-10T09:23:25Z</time>
      </trkpt>
      <trkpt lat="47.17342" lon="6.0994">
        <ele>454.8</ele>
        <time>2022-08-10T09:23:26Z</time>
      </trkpt>
      <trkpt lat="47.17338" lon="6.09932">
        <ele>454.7</ele>
        <time>2022-08-10T09:23:27Z</time>
      </trkpt>
      <trkpt lat="47.17334" lon="6.09924">
        <ele>454.7</ele>
        <time>2022-08-10T09:23:28Z</time>
      </trkpt>
      <trkpt lat="47.1733" lon="6.09916">
        <ele>454.3</ele>
        <time>2022-08-10T09:23:29Z</time>
      </trkpt>
      <trkpt lat="47.17327" lon="6.09909">
        <ele>454.4</ele>
        <time>2022-08-10T09:23:30Z</time>
      </trkpt>
      <trkpt lat="47.17322" lon="6.09902">
        <ele>455.1</ele>
        <time>2022-08-10T09:23:31Z</time>
      </trkpt>
      <trkpt lat="47.17318" lon="6.09895">
        <ele>455.2</ele>
        <time>2022-08-10T09:23:32Z</time>
      </trkpt>
      <trkpt lat="47.17315" lon="6.09889">
        <ele>455.9</ele>
        <time>2022-08-10T09:23:33Z</time>
      </trkpt>
      <trkpt lat="47.17311" lon="6.09883">
        <ele>456.6</ele>
        <time>2022-08-10T09:23:34Z</time>
      </trkpt>
      <trkpt lat="47.17307" lon="6.09877">
        <ele>456.9</ele>
        <time>2022-08-10T09:23:35Z</time>
      </trkpt>
      <trkpt lat="47.17303" lon="6.09871">
        <ele>457.2</ele>
        <time>2022-08-10T09:23:36Z</time>
      </trkpt>
      <trkpt lat="47.173" lon="6.09864">
        <ele>457.6</ele>
        <time>2022-08-10T09:23:37Z</time>
      </trkpt>
      <trkpt lat="47.17297" lon="6.09858">
        <ele>457.9</ele>
        <time>2022-08-10T09:23:38Z</time>
      </trkpt>
      <trkpt lat="47.17293" lon="6.09852">
        <ele>458</ele>
        <time>2022-08-10T09:23:39Z</time>
      </trkpt>
      <trkpt lat="47.1729" lon="6.09846">
        <ele>458.2</ele>
        <time>2022-08-10T09:23:40Z</time>
      </trkpt>
      <trkpt lat="47.17287" lon="6.0984">
        <ele>458.5</ele>
        <time>2022-08-10T09:23:41Z</time>
      </trkpt>
      <trkpt lat="47.17283" lon="6.09835">
        <ele>458.9</ele>
        <time>2022-08-10T09:23:42Z</time>
      </trkpt>
      <trkpt lat="47.1728" lon="6.0983">
        <ele>459.7</ele>
        <time>2022-08-10T09:23:43Z</time>
      </trkpt>
      <trkpt lat="47.17277" lon="6.09825">
        <ele>460.4</ele>
        <time>2022-08-10T09:23:44Z</time>
      </trkpt>
      <trkpt lat="47.17273" lon="6.0982">
        <ele>461.1</ele>
        <time>2022-08-10T09:23:45Z</time>
      </trkpt>
      <trkpt lat="47.17269" lon="6.09815">
        <ele>461.8</ele>
        <time>2022-08-10T09:23:46Z</time>
      </trkpt>
      <trkpt lat="47.17265" lon="6.09812">
        <ele>463.1</ele>
        <time>2022-08-10T09:23:47Z</time>
      </trkpt>
      <trkpt lat="47.17261" lon="6.09808">
        <ele>463.9</ele>
        <time>2022-08-10T09:23:48Z</time>
      </trkpt>
      <trkpt lat="47.17257" lon="6.09804">
        <ele>464.2</ele>
        <time>2022-08-10T09:23:49Z</time>
      </trkpt>
      <trkpt lat="47.17252" lon="6.098">
        <ele>463.9</ele>
        <time>2022-08-10T09:23:50Z</time>
      </trkpt>
      <trkpt lat="47.17248" lon="6.09797">
        <ele>464.1</ele>
        <time>2022-08-10T09:23:51Z</time>
      </trkpt>
      <trkpt lat="47.17244" lon="6.09794">
        <ele>464.1</ele>
        <time>2022-08-10T09:23:52Z</time>
      </trkpt>
      <trkpt lat="47.17239" lon="6.09791">
        <ele>463.8</ele>
        <time>2022-08-10T09:23:53Z</time>
      </trkpt>
      <trkpt lat="47.17234" lon="6.09789">
        <ele>463.5</ele>
        <time>2022-08-10T09:23:54Z</time>
      </trkpt>
      <trkpt lat="47.17229" lon="6.09786">
        <ele>463.3</ele>
        <time>2022-08-10T09:23:55Z</time>
      </trkpt>
      <trkpt lat="47.17225" lon="6.09783">
        <ele>462.9</ele>
        <time>2022-08-10T09:23:56Z</time>
      </trkpt>
      <trkpt lat="47.1722" lon="6.09781">
        <ele>462.6</ele>
        <time>2022-08-10T09:23:57Z</time>
      </trkpt>
      <trkpt lat="47.17216" lon="6.09778">
        <ele>461.7</ele>
        <time>2022-08-10T09:23:58Z</time>
      </trkpt>
      <trkpt lat="47.17211" lon="6.09776">
        <ele>460.4</ele>
        <time>2022-08-10T09:23:59Z</time>
      </trkpt>
      <trkpt lat="47.17206" lon="6.09775">
        <ele>459.1</ele>
        <time>2022-08-10T09:24:00Z</time>
      </trkpt>
      <trkpt lat="47.17201" lon="6.09775">
        <ele>458.9</ele>
        <time>2022-08-10T09:24:01Z</time>
      </trkpt>
      <trkpt lat="47.17196" lon="6.09775">
        <ele>458.1</ele>
        <time>2022-08-10T09:24:02Z</time>
      </trkpt>
      <trkpt lat="47.17191" lon="6.09775">
        <ele>457.8</ele>
        <time>2022-08-10T09:24:03Z</time>
      </trkpt>
      <trkpt lat="47.17185" lon="6.09776">
        <ele>457.8</ele>
        <time>2022-08-10T09:24:04Z</time>
      </trkpt>
      <trkpt lat="47.17179" lon="6.09776">
        <ele>457.8</ele>
        <time>2022-08-10T09:24:05Z</time>
      </trkpt>
      <trkpt lat="47.17174" lon="6.09775">
        <ele>457.6</ele>
        <time>2022-08-10T09:24:06Z</time>
      </trkpt>
      <trkpt lat="47.17168" lon="6.09775">
        <ele>458</ele>
        <time>2022-08-10T09:24:07Z</time>
      </trkpt>
      <trkpt lat="47.17162" lon="6.09775">
        <ele>458</ele>
        <time>2022-08-10T09:24:08Z</time>
      </trkpt>
      <trkpt lat="47.17156" lon="6.09775">
        <ele>458</ele>
        <time>2022-08-10T09:24:09Z</time>
      </trkpt>
      <trkpt lat="47.17151" lon="6.09775">
        <ele>457.9</ele>
        <time>2022-08-10T09:24:10Z</time>
      </trkpt>
      <trkpt lat="47.17145" lon="6.09776">
        <ele>458</ele>
        <time>2022-08-10T09:24:11Z</time>
      </trkpt>
      <trkpt lat="47.17139" lon="6.09776">
        <ele>458.1</ele>
        <time>2022-08-10T09:24:12Z</time>
      </trkpt>
      <trkpt lat="47.17134" lon="6.09776">
        <ele>458</ele>
        <time>2022-08-10T09:24:13Z</time>
      </trkpt>
      <trkpt lat="47.17128" lon="6.09776">
        <ele>458.2</ele>
        <time>2022-08-10T09:24:14Z</time>
      </trkpt>
      <trkpt lat="47.17122" lon="6.09776">
        <ele>458</ele>
        <time>2022-08-10T09:24:15Z</time>
      </trkpt>
      <trkpt lat="47.17117" lon="6.09777">
        <ele>458.2</ele>
        <time>2022-08-10T09:24:16Z</time>
      </trkpt>
      <trkpt lat="47.17111" lon="6.09777">
        <ele>458.7</ele>
        <time>2022-08-10T09:24:17Z</time>
      </trkpt>
      <trkpt lat="47.17105" lon="6.09777">
        <ele>458.9</ele>
        <time>2022-08-10T09:24:18Z</time>
      </trkpt>
      <trkpt lat="47.17099" lon="6.09778">
        <ele>458.6</ele>
        <time>2022-08-10T09:24:19Z</time>
      </trkpt>
      <trkpt lat="47.17092" lon="6.09778">
        <ele>458.5</ele>
        <time>2022-08-10T09:24:20Z</time>
      </trkpt>
      <trkpt lat="47.17086" lon="6.09779">
        <ele>458.5</ele>
        <time>2022-08-10T09:24:21Z</time>
      </trkpt>
      <trkpt lat="47.1708" lon="6.09779">
        <ele>458.3</ele>
        <time>2022-08-10T09:24:22Z</time>
      </trkpt>
      <trkpt lat="47.17073" lon="6.09779">
        <ele>457.6</ele>
        <time>2022-08-10T09:24:23Z</time>
      </trkpt>
      <trkpt lat="47.17067" lon="6.09779">
        <ele>457.3</ele>
        <time>2022-08-10T09:24:24Z</time>
      </trkpt>
      <trkpt lat="47.1706" lon="6.09779">
        <ele>457.2</ele>
        <time>2022-08-10T09:24:25Z</time>
      </trkpt>
      <trkpt lat="47.17053" lon="6.09778">
        <ele>457.3</ele>
        <time>2022-08-10T09:24:26Z</time>
      </trkpt>
      <trkpt lat="47.17047" lon="6.09776">
        <ele>457</ele>
        <time>2022-08-10T09:24:27Z</time>
      </trkpt>
      <trkpt lat="47.1704" lon="6.09773">
        <ele>456.6</ele>
        <time>2022-08-10T09:24:28Z</time>
      </trkpt>
      <trkpt lat="47.17033" lon="6.0977">
        <ele>456.6</ele>
        <time>2022-08-10T09:24:29Z</time>
      </trkpt>
      <trkpt lat="47.17026" lon="6.09766">
        <ele>456.7</ele>
        <time>2022-08-10T09:24:30Z</time>
      </trkpt>
      <trkpt lat="47.17018" lon="6.09762">
        <ele>457</ele>
        <time>2022-08-10T09:24:31Z</time>
      </trkpt>
      <trkpt lat="47.17011" lon="6.09757">
        <ele>457.3</ele>
        <time>2022-08-10T09:24:32Z</time>
      </trkpt>
      <trkpt lat="47.17004" lon="6.09752">
        <ele>457.2</ele>
        <time>2022-08-10T09:24:33Z</time>
      </trkpt>
      <trkpt lat="47.16997" lon="6.09747">
        <ele>457.1</ele>
        <time>2022-08-10T09:24:34Z</time>
      </trkpt>
      <trkpt lat="47.1699" lon="6.09741">
        <ele>456.9</ele>
        <time>2022-08-10T09:24:35Z</time>
      </trkpt>
      <trkpt lat="47.16984" lon="6.09734">
        <ele>456.6</ele>
        <time>2022-08-10T09:24:36Z</time>
      </trkpt>
      <trkpt lat="47.16977" lon="6.09726">
        <ele>456.1</ele>
        <time>2022-08-10T09:24:37Z</time>
      </trkpt>
      <trkpt lat="47.16971" lon="6.09718">
        <ele>455.6</ele>
        <time>2022-08-10T09:24:38Z</time>
      </trkpt>
      <trkpt lat="47.16965" lon="6.09709">
        <ele>455.3</ele>
        <time>2022-08-10T09:24:39Z</time>
      </trkpt>
      <trkpt lat="47.16959" lon="6.09701">
        <ele>454.8</ele>
        <time>2022-08-10T09:24:40Z</time>
      </trkpt>
      <trkpt lat="47.16953" lon="6.09692">
        <ele>454.6</ele>
        <time>2022-08-10T09:24:41Z</time>
      </trkpt>
      <trkpt lat="47.16948" lon="6.09684">
        <ele>454.4</ele>
        <time>2022-08-10T09:24:42Z</time>
      </trkpt>
      <trkpt lat="47.16943" lon="6.09676">
        <ele>454.1</ele>
        <time>2022-08-10T09:24:43Z</time>
      </trkpt>
      <trkpt lat="47.16937" lon="6.09669">
        <ele>453.8</ele>
        <time>2022-08-10T09:24:44Z</time>
      </trkpt>
      <trkpt lat="47.16931" lon="6.09662">
        <ele>453.7</ele>
        <time>2022-08-10T09:24:45Z</time>
      </trkpt>
      <trkpt lat="47.16925" lon="6.09656">
        <ele>453.6</ele>
        <time>2022-08-10T09:24:46Z</time>
      </trkpt>
      <trkpt lat="47.16919" lon="6.0965">
        <ele>453.6</ele>
        <time>2022-08-10T09:24:47Z</time>
      </trkpt>
      <trkpt lat="47.16912" lon="6.09645">
        <ele>453.6</ele>
        <time>2022-08-10T09:24:48Z</time>
      </trkpt>
      <trkpt lat="47.16906" lon="6.0964">
        <ele>453.6</ele>
        <time>2022-08-10T09:24:49Z</time>
      </trkpt>
      <trkpt lat="47.169" lon="6.09635">
        <ele>453.8</ele>
        <time>2022-08-10T09:24:50Z</time>
      </trkpt>
      <trkpt lat="47.16893" lon="6.09631">
        <ele>454</ele>
        <time>2022-08-10T09:24:51Z</time>
      </trkpt>
      <trkpt lat="47.16887" lon="6.09627">
        <ele>454.3</ele>
        <time>2022-08-10T09:24:52Z</time>
      </trkpt>
      <trkpt lat="47.1688" lon="6.09624">
        <ele>454.5</ele>
        <time>2022-08-10T09:24:53Z</time>
      </trkpt>
      <trkpt lat="47.16874" lon="6.0962">
        <ele>454.4</ele>
        <time>2022-08-10T09:24:54Z</time>
      </trkpt>
      <trkpt lat="47.16867" lon="6.09616">
        <ele>454.4</ele>
        <time>2022-08-10T09:24:55Z</time>
      </trkpt>
      <trkpt lat="47.1686" lon="6.09613">
        <ele>454.4</ele>
        <time>2022-08-10T09:24:56Z</time>
      </trkpt>
      <trkpt lat="47.16854" lon="6.09609">
        <ele>454.6</ele>
        <time>2022-08-10T09:24:57Z</time>
      </trkpt>
      <trkpt lat="47.16848" lon="6.09604">
        <ele>454.4</ele>
        <time>2022-08-10T09:24:58Z</time>
      </trkpt>
      <trkpt lat="47.16842" lon="6.09599">
        <ele>454.2</ele>
        <time>2022-08-10T09:24:59Z</time>
      </trkpt>
      <trkpt lat="47.16836" lon="6.09594">
        <ele>454.1</ele>
        <time>2022-08-10T09:25:00Z</time>
      </trkpt>
      <trkpt lat="47.1683" lon="6.09588">
        <ele>453.9</ele>
        <time>2022-08-10T09:25:01Z</time>
      </trkpt>
      <trkpt lat="47.16824" lon="6.09581">
        <ele>453.7</ele>
        <time>2022-08-10T09:25:02Z</time>
      </trkpt>
      <trkpt lat="47.16818" lon="6.09574">
        <ele>453.2</ele>
        <time>2022-08-10T09:25:03Z</time>
      </trkpt>
      <trkpt lat="47.16813" lon="6.09567">
        <ele>453</ele>
        <time>2022-08-10T09:25:04Z</time>
      </trkpt>
      <trkpt lat="47.16807" lon="6.09559">
        <ele>452.8</ele>
        <time>2022-08-10T09:25:05Z</time>
      </trkpt>
      <trkpt lat="47.16802" lon="6.09551">
        <ele>452.6</ele>
        <time>2022-08-10T09:25:06Z</time>
      </trkpt>
      <trkpt lat="47.16796" lon="6.09543">
        <ele>452.3</ele>
        <time>2022-08-10T09:25:07Z</time>
      </trkpt>
      <trkpt lat="47.16791" lon="6.09534">
        <ele>452.1</ele>
        <time>2022-08-10T09:25:08Z</time>
      </trkpt>
      <trkpt lat="47.16786" lon="6.09526">
        <ele>452.1</ele>
        <time>2022-08-10T09:25:09Z</time>
      </trkpt>
      <trkpt lat="47.16781" lon="6.09517">
        <ele>452</ele>
        <time>2022-08-10T09:25:10Z</time>
      </trkpt>
      <trkpt lat="47.16775" lon="6.09508">
        <ele>451.9</ele>
        <time>2022-08-10T09:25:11Z</time>
      </trkpt>
      <trkpt lat="47.1677" lon="6.09499">
        <ele>452</ele>
        <time>2022-08-10T09:25:12Z</time>
      </trkpt>
      <trkpt lat="47.16766" lon="6.0949">
        <ele>451.8</ele>
        <time>2022-08-10T09:25:13Z</time>
      </trkpt>
      <trkpt lat="47.16761" lon="6.09481">
        <ele>451.6</ele>
        <time>2022-08-10T09:25:14Z</time>
      </trkpt>
      <trkpt lat="47.16756" lon="6.09472">
        <ele>451.7</ele>
        <time>2022-08-10T09:25:15Z</time>
      </trkpt>
      <trkpt lat="47.16751" lon="6.09463">
        <ele>451.9</ele>
        <time>2022-08-10T09:25:16Z</time>
      </trkpt>
      <trkpt lat="47.16746" lon="6.09455">
        <ele>452.3</ele>
        <time>2022-08-10T09:25:17Z</time>
      </trkpt>
      <trkpt lat="47.16742" lon="6.09446">
        <ele>452.6</ele>
        <time>2022-08-10T09:25:18Z</time>
      </trkpt>
      <trkpt lat="47.16737" lon="6.09438">
        <ele>452.8</ele>
        <time>2022-08-10T09:25:19Z</time>
      </trkpt>
      <trkpt lat="47.16732" lon="6.0943">
        <ele>452.8</ele>
        <time>2022-08-10T09:25:20Z</time>
      </trkpt>
      <trkpt lat="47.16727" lon="6.09422">
        <ele>453.1</ele>
        <time>2022-08-10T09:25:21Z</time>
      </trkpt>
      <trkpt lat="47.16722" lon="6.09414">
        <ele>453.2</ele>
        <time>2022-08-10T09:25:22Z</time>
      </trkpt>
      <trkpt lat="47.16716" lon="6.09407">
        <ele>453.4</ele>
        <time>2022-08-10T09:25:23Z</time>
      </trkpt>
      <trkpt lat="47.16711" lon="6.09399">
        <ele>452.5</ele>
        <time>2022-08-10T09:25:24Z</time>
      </trkpt>
      <trkpt lat="47.16706" lon="6.09391">
        <ele>452.4</ele>
        <time>2022-08-10T09:25:25Z</time>
      </trkpt>
      <trkpt lat="47.16701" lon="6.09383">
        <ele>452.2</ele>
        <time>2022-08-10T09:25:26Z</time>
      </trkpt>
      <trkpt lat="47.16696" lon="6.09376">
        <ele>452.3</ele>
        <time>2022-08-10T09:25:27Z</time>
      </trkpt>
      <trkpt lat="47.16691" lon="6.09369">
        <ele>452.5</ele>
        <time>2022-08-10T09:25:28Z</time>
      </trkpt>
      <trkpt lat="47.16685" lon="6.09362">
        <ele>452.7</ele>
        <time>2022-08-10T09:25:29Z</time>
      </trkpt>
      <trkpt lat="47.1668" lon="6.09355">
        <ele>452.8</ele>
        <time>2022-08-10T09:25:30Z</time>
      </trkpt>
      <trkpt lat="47.16674" lon="6.09349">
        <ele>453</ele>
        <time>2022-08-10T09:25:31Z</time>
      </trkpt>
      <trkpt lat="47.16669" lon="6.09343">
        <ele>453.2</ele>
        <time>2022-08-10T09:25:32Z</time>
      </trkpt>
      <trkpt lat="47.16663" lon="6.09337">
        <ele>453.4</ele>
        <time>2022-08-10T09:25:33Z</time>
      </trkpt>
      <trkpt lat="47.16657" lon="6.09331">
        <ele>453.4</ele>
        <time>2022-08-10T09:25:34Z</time>
      </trkpt>
      <trkpt lat="47.16652" lon="6.09326">
        <ele>453.6</ele>
        <time>2022-08-10T09:25:35Z</time>
      </trkpt>
      <trkpt lat="47.16646" lon="6.09321">
        <ele>453.8</ele>
        <time>2022-08-10T09:25:36Z</time>
      </trkpt>
      <trkpt lat="47.1664" lon="6.09317">
        <ele>454</ele>
        <time>2022-08-10T09:25:37Z</time>
      </trkpt>
      <trkpt lat="47.16635" lon="6.09312">
        <ele>454.3</ele>
        <time>2022-08-10T09:25:38Z</time>
      </trkpt>
      <trkpt lat="47.1663" lon="6.09307">
        <ele>454.5</ele>
        <time>2022-08-10T09:25:39Z</time>
      </trkpt>
      <trkpt lat="47.16626" lon="6.09302">
        <ele>454.6</ele>
        <time>2022-08-10T09:25:40Z</time>
      </trkpt>
      <trkpt lat="47.16621" lon="6.09296">
        <ele>454.6</ele>
        <time>2022-08-10T09:25:41Z</time>
      </trkpt>
      <trkpt lat="47.16617" lon="6.0929">
        <ele>454.9</ele>
        <time>2022-08-10T09:25:42Z</time>
      </trkpt>
      <trkpt lat="47.16612" lon="6.09284">
        <ele>455</ele>
        <time>2022-08-10T09:25:43Z</time>
      </trkpt>
      <trkpt lat="47.16608" lon="6.09278">
        <ele>455</ele>
        <time>2022-08-10T09:25:44Z</time>
      </trkpt>
      <trkpt lat="47.16603" lon="6.09272">
        <ele>455</ele>
        <time>2022-08-10T09:25:45Z</time>
      </trkpt>
      <trkpt lat="47.16599" lon="6.09266">
        <ele>454.8</ele>
        <time>2022-08-10T09:25:46Z</time>
      </trkpt>
      <trkpt lat="47.16595" lon="6.0926">
        <ele>454.6</ele>
        <time>2022-08-10T09:25:47Z</time>
      </trkpt>
      <trkpt lat="47.16591" lon="6.09253">
        <ele>454.4</ele>
        <time>2022-08-10T09:25:48Z</time>
      </trkpt>
      <trkpt lat="47.16587" lon="6.09246">
        <ele>454.3</ele>
        <time>2022-08-10T09:25:49Z</time>
      </trkpt>
      <trkpt lat="47.16584" lon="6.09238">
        <ele>454.2</ele>
        <time>2022-08-10T09:25:50Z</time>
      </trkpt>
      <trkpt lat="47.16581" lon="6.0923">
        <ele>454.1</ele>
        <time>2022-08-10T09:25:51Z</time>
      </trkpt>
      <trkpt lat="47.16578" lon="6.09222">
        <ele>454.2</ele>
        <time>2022-08-10T09:25:52Z</time>
      </trkpt>
      <trkpt lat="47.16576" lon="6.09214">
        <ele>454.3</ele>
        <time>2022-08-10T09:25:53Z</time>
      </trkpt>
      <trkpt lat="47.16573" lon="6.09206">
        <ele>454.3</ele>
        <time>2022-08-10T09:25:54Z</time>
      </trkpt>
      <trkpt lat="47.16571" lon="6.09197">
        <ele>454.3</ele>
        <time>2022-08-10T09:25:55Z</time>
      </trkpt>
      <trkpt lat="47.16568" lon="6.09189">
        <ele>454.5</ele>
        <time>2022-08-10T09:25:56Z</time>
      </trkpt>
      <trkpt lat="47.16565" lon="6.09182">
        <ele>454.5</ele>
        <time>2022-08-10T09:25:57Z</time>
      </trkpt>
      <trkpt lat="47.16562" lon="6.09174">
        <ele>454.4</ele>
        <time>2022-08-10T09:25:58Z</time>
      </trkpt>
      <trkpt lat="47.1656" lon="6.09166">
        <ele>454.5</ele>
        <time>2022-08-10T09:25:59Z</time>
      </trkpt>
      <trkpt lat="47.16557" lon="6.09159">
        <ele>454.3</ele>
        <time>2022-08-10T09:26:00Z</time>
      </trkpt>
      <trkpt lat="47.16554" lon="6.09151">
        <ele>454.2</ele>
        <time>2022-08-10T09:26:01Z</time>
      </trkpt>
      <trkpt lat="47.16551" lon="6.09144">
        <ele>454.1</ele>
        <time>2022-08-10T09:26:02Z</time>
      </trkpt>
      <trkpt lat="47.16548" lon="6.09137">
        <ele>454.1</ele>
        <time>2022-08-10T09:26:03Z</time>
      </trkpt>
      <trkpt lat="47.16545" lon="6.0913">
        <ele>453.9</ele>
        <time>2022-08-10T09:26:04Z</time>
      </trkpt>
      <trkpt lat="47.16542" lon="6.09122">
        <ele>453.6</ele>
        <time>2022-08-10T09:26:05Z</time>
      </trkpt>
      <trkpt lat="47.16539" lon="6.09114">
        <ele>453.4</ele>
        <time>2022-08-10T09:26:06Z</time>
      </trkpt>
      <trkpt lat="47.16538" lon="6.09105">
        <ele>453.1</ele>
        <time>2022-08-10T09:26:07Z</time>
      </trkpt>
      <trkpt lat="47.1654" lon="6.09097">
        <ele>453</ele>
        <time>2022-08-10T09:26:08Z</time>
      </trkpt>
      <trkpt lat="47.16543" lon="6.0909">
        <ele>453</ele>
        <time>2022-08-10T09:26:09Z</time>
      </trkpt>
      <trkpt lat="47.16548" lon="6.09086">
        <ele>453.3</ele>
        <time>2022-08-10T09:26:10Z</time>
      </trkpt>
      <trkpt lat="47.16553" lon="6.09084">
        <ele>453.5</ele>
        <time>2022-08-10T09:26:11Z</time>
      </trkpt>
      <trkpt lat="47.16559" lon="6.09081">
        <ele>453.9</ele>
        <time>2022-08-10T09:26:12Z</time>
      </trkpt>
      <trkpt lat="47.16565" lon="6.09078">
        <ele>454.1</ele>
        <time>2022-08-10T09:26:13Z</time>
      </trkpt>
      <trkpt lat="47.1657" lon="6.09075">
        <ele>454.3</ele>
        <time>2022-08-10T09:26:14Z</time>
      </trkpt>
      <trkpt lat="47.16575" lon="6.09071">
        <ele>454.4</ele>
        <time>2022-08-10T09:26:15Z</time>
      </trkpt>
      <trkpt lat="47.16581" lon="6.09067">
        <ele>454.8</ele>
        <time>2022-08-10T09:26:16Z</time>
      </trkpt>
      <trkpt lat="47.16586" lon="6.09064">
        <ele>455.1</ele>
        <time>2022-08-10T09:26:17Z</time>
      </trkpt>
      <trkpt lat="47.16591" lon="6.0906">
        <ele>455.2</ele>
        <time>2022-08-10T09:26:18Z</time>
      </trkpt>
      <trkpt lat="47.16596" lon="6.09056">
        <ele>455.2</ele>
        <time>2022-08-10T09:26:19Z</time>
      </trkpt>
      <trkpt lat="47.16601" lon="6.09052">
        <ele>455.2</ele>
        <time>2022-08-10T09:26:20Z</time>
      </trkpt>
      <trkpt lat="47.16606" lon="6.09049">
        <ele>455.2</ele>
        <time>2022-08-10T09:26:21Z</time>
      </trkpt>
      <trkpt lat="47.16611" lon="6.09045">
        <ele>455.2</ele>
        <time>2022-08-10T09:26:22Z</time>
      </trkpt>
      <trkpt lat="47.16616" lon="6.09042">
        <ele>455.5</ele>
        <time>2022-08-10T09:26:23Z</time>
      </trkpt>
      <trkpt lat="47.16621" lon="6.09038">
        <ele>455.5</ele>
        <time>2022-08-10T09:26:24Z</time>
      </trkpt>
      <trkpt lat="47.16626" lon="6.09035">
        <ele>455.7</ele>
        <time>2022-08-10T09:26:25Z</time>
      </trkpt>
      <trkpt lat="47.16631" lon="6.09031">
        <ele>456</ele>
        <time>2022-08-10T09:26:26Z</time>
      </trkpt>
      <trkpt lat="47.16635" lon="6.09028">
        <ele>456.2</ele>
        <time>2022-08-10T09:26:27Z</time>
      </trkpt>
      <trkpt lat="47.1664" lon="6.09025">
        <ele>456.5</ele>
        <time>2022-08-10T09:26:28Z</time>
      </trkpt>
      <trkpt lat="47.16644" lon="6.09023">
        <ele>456.6</ele>
        <time>2022-08-10T09:26:29Z</time>
      </trkpt>
      <trkpt lat="47.16648" lon="6.0902">
        <ele>456.7</ele>
        <time>2022-08-10T09:26:30Z</time>
      </trkpt>
      <trkpt lat="47.16652" lon="6.09017">
        <ele>456.8</ele>
        <time>2022-08-10T09:26:31Z</time>
      </trkpt>
      <trkpt lat="47.16656" lon="6.09015">
        <ele>457</ele>
        <time>2022-08-10T09:26:32Z</time>
      </trkpt>
      <trkpt lat="47.1666" lon="6.09012">
        <ele>457.1</ele>
        <time>2022-08-10T09:26:33Z</time>
      </trkpt>
      <trkpt lat="47.16664" lon="6.0901">
        <ele>457.4</ele>
        <time>2022-08-10T09:26:34Z</time>
      </trkpt>
      <trkpt lat="47.16668" lon="6.09008">
        <ele>457.7</ele>
        <time>2022-08-10T09:26:35Z</time>
      </trkpt>
      <trkpt lat="47.16671" lon="6.09005">
        <ele>458.1</ele>
        <time>2022-08-10T09:26:36Z</time>
      </trkpt>
      <trkpt lat="47.16675" lon="6.09003">
        <ele>458.3</ele>
        <time>2022-08-10T09:26:37Z</time>
      </trkpt>
      <trkpt lat="47.16678" lon="6.09">
        <ele>458.4</ele>
        <time>2022-08-10T09:26:38Z</time>
      </trkpt>
      <trkpt lat="47.16682" lon="6.08997">
        <ele>458.5</ele>
        <time>2022-08-10T09:26:39Z</time>
      </trkpt>
      <trkpt lat="47.16686" lon="6.08994">
        <ele>458.6</ele>
        <time>2022-08-10T09:26:40Z</time>
      </trkpt>
      <trkpt lat="47.1669" lon="6.0899">
        <ele>458.8</ele>
        <time>2022-08-10T09:26:41Z</time>
      </trkpt>
      <trkpt lat="47.16693" lon="6.08986">
        <ele>458.9</ele>
        <time>2022-08-10T09:26:42Z</time>
      </trkpt>
      <trkpt lat="47.16696" lon="6.08982">
        <ele>459.1</ele>
        <time>2022-08-10T09:26:43Z</time>
      </trkpt>
      <trkpt lat="47.16699" lon="6.08978">
        <ele>459</ele>
        <time>2022-08-10T09:26:44Z</time>
      </trkpt>
      <trkpt lat="47.16701" lon="6.08975">
        <ele>459.2</ele>
        <time>2022-08-10T09:26:45Z</time>
      </trkpt>
      <trkpt lat="47.16702" lon="6.08972">
        <ele>459.5</ele>
        <time>2022-08-10T09:26:46Z</time>
      </trkpt>
      <trkpt lat="47.16703" lon="6.08971">
        <ele>460.2</ele>
        <time>2022-08-10T09:26:47Z</time>
      </trkpt>
      <trkpt lat="47.16704" lon="6.08969">
        <ele>461.1</ele>
        <time>2022-08-10T09:26:48Z</time>
      </trkpt>
      <trkpt lat="47.16705" lon="6.08967">
        <ele>461.6</ele>
        <time>2022-08-10T09:26:49Z</time>
      </trkpt>
      <trkpt lat="47.16705" lon="6.08964">
        <ele>462.4</ele>
        <time>2022-08-10T09:26:50Z</time>
      </trkpt>
      <trkpt lat="47.16706" lon="6.08961">
        <ele>463</ele>
        <time>2022-08-10T09:26:51Z</time>
      </trkpt>
      <trkpt lat="47.16707" lon="6.08958">
        <ele>463.6</ele>
        <time>2022-08-10T09:26:52Z</time>
      </trkpt>
      <trkpt lat="47.16708" lon="6.08956">
        <ele>464.5</ele>
        <time>2022-08-10T09:26:53Z</time>
      </trkpt>
      <trkpt lat="47.16709" lon="6.08953">
        <ele>465.1</ele>
        <time>2022-08-10T09:26:54Z</time>
      </trkpt>
      <trkpt lat="47.1671" lon="6.08951">
        <ele>466.3</ele>
        <time>2022-08-10T09:26:55Z</time>
      </trkpt>
      <trkpt lat="47.16711" lon="6.08948">
        <ele>467.1</ele>
        <time>2022-08-10T09:26:56Z</time>
      </trkpt>
      <trkpt lat="47.16712" lon="6.08945">
        <ele>468.2</ele>
        <time>2022-08-10T09:26:57Z</time>
      </trkpt>
      <trkpt lat="47.16713" lon="6.08943">
        <ele>469.2</ele>
        <time>2022-08-10T09:26:58Z</time>
      </trkpt>
      <trkpt lat="47.16714" lon="6.0894">
        <ele>470.1</ele>
        <time>2022-08-10T09:26:59Z</time>
      </trkpt>
      <trkpt lat="47.16715" lon="6.08937">
        <ele>471.3</ele>
        <time>2022-08-10T09:27:00Z</time>
      </trkpt>
      <trkpt lat="47.16716" lon="6.08934">
        <ele>472.3</ele>
        <time>2022-08-10T09:27:01Z</time>
      </trkpt>
      <trkpt lat="47.16718" lon="6.08932">
        <ele>473.6</ele>
        <time>2022-08-10T09:27:02Z</time>
      </trkpt>
      <trkpt lat="47.16719" lon="6.0893">
        <ele>474.6</ele>
        <time>2022-08-10T09:27:03Z</time>
      </trkpt>
      <trkpt lat="47.16721" lon="6.08927">
        <ele>475.2</ele>
        <time>2022-08-10T09:27:04Z</time>
      </trkpt>
      <trkpt lat="47.16722" lon="6.08925">
        <ele>475.9</ele>
        <time>2022-08-10T09:27:05Z</time>
      </trkpt>
      <trkpt lat="47.16722" lon="6.08922">
        <ele>476.6</ele>
        <time>2022-08-10T09:27:06Z</time>
      </trkpt>
      <trkpt lat="47.16723" lon="6.0892">
        <ele>477.4</ele>
        <time>2022-08-10T09:27:07Z</time>
      </trkpt>
      <trkpt lat="47.16724" lon="6.08917">
        <ele>478</ele>
        <time>2022-08-10T09:27:08Z</time>
      </trkpt>
      <trkpt lat="47.16727" lon="6.08913">
        <ele>478.5</ele>
        <time>2022-08-10T09:27:09Z</time>
      </trkpt>
      <trkpt lat="47.16729" lon="6.0891">
        <ele>479</ele>
        <time>2022-08-10T09:27:10Z</time>
      </trkpt>
      <trkpt lat="47.16731" lon="6.08907">
        <ele>479.6</ele>
        <time>2022-08-10T09:27:11Z</time>
      </trkpt>
      <trkpt lat="47.16733" lon="6.08904">
        <ele>480.1</ele>
        <time>2022-08-10T09:27:12Z</time>
      </trkpt>
      <trkpt lat="47.16735" lon="6.089">
        <ele>480.1</ele>
        <time>2022-08-10T09:27:13Z</time>
      </trkpt>
      <trkpt lat="47.16737" lon="6.08896">
        <ele>480.4</ele>
        <time>2022-08-10T09:27:14Z</time>
      </trkpt>
      <trkpt lat="47.16738" lon="6.08893">
        <ele>480.8</ele>
        <time>2022-08-10T09:27:15Z</time>
      </trkpt>
      <trkpt lat="47.16739" lon="6.08888">
        <ele>482.9</ele>
        <time>2022-08-10T09:27:16Z</time>
      </trkpt>
      <trkpt lat="47.16741" lon="6.08884">
        <ele>483.5</ele>
        <time>2022-08-10T09:27:17Z</time>
      </trkpt>
      <trkpt lat="47.16744" lon="6.08881">
        <ele>483.5</ele>
        <time>2022-08-10T09:27:18Z</time>
      </trkpt>
      <trkpt lat="47.16746" lon="6.08877">
        <ele>483.7</ele>
        <time>2022-08-10T09:27:19Z</time>
      </trkpt>
      <trkpt lat="47.16747" lon="6.08874">
        <ele>483.5</ele>
        <time>2022-08-10T09:27:20Z</time>
      </trkpt>
      <trkpt lat="47.1675" lon="6.08869">
        <ele>483.4</ele>
        <time>2022-08-10T09:27:21Z</time>
      </trkpt>
      <trkpt lat="47.16752" lon="6.08866">
        <ele>483.1</ele>
        <time>2022-08-10T09:27:22Z</time>
      </trkpt>
      <trkpt lat="47.16754" lon="6.08863">
        <ele>483.2</ele>
        <time>2022-08-10T09:27:23Z</time>
      </trkpt>
      <trkpt lat="47.16756" lon="6.08862">
        <ele>482.8</ele>
        <time>2022-08-10T09:27:24Z</time>
      </trkpt>
      <trkpt lat="47.16758" lon="6.08859">
        <ele>482.5</ele>
        <time>2022-08-10T09:27:25Z</time>
      </trkpt>
      <trkpt lat="47.1676" lon="6.08857">
        <ele>482.5</ele>
        <time>2022-08-10T09:27:26Z</time>
      </trkpt>
      <trkpt lat="47.16761" lon="6.08855">
        <ele>482.6</ele>
        <time>2022-08-10T09:27:27Z</time>
      </trkpt>
      <trkpt lat="47.16763" lon="6.08851">
        <ele>482.7</ele>
        <time>2022-08-10T09:27:28Z</time>
      </trkpt>
      <trkpt lat="47.16765" lon="6.08848">
        <ele>483</ele>
        <time>2022-08-10T09:27:29Z</time>
      </trkpt>
      <trkpt lat="47.16767" lon="6.08845">
        <ele>483.2</ele>
        <time>2022-08-10T09:27:30Z</time>
      </trkpt>
      <trkpt lat="47.16769" lon="6.08843">
        <ele>483.9</ele>
        <time>2022-08-10T09:27:31Z</time>
      </trkpt>
      <trkpt lat="47.16772" lon="6.0884">
        <ele>484.1</ele>
        <time>2022-08-10T09:27:32Z</time>
      </trkpt>
      <trkpt lat="47.16774" lon="6.08839">
        <ele>484.8</ele>
        <time>2022-08-10T09:27:33Z</time>
      </trkpt>
      <trkpt lat="47.16776" lon="6.08837">
        <ele>485.4</ele>
        <time>2022-08-10T09:27:34Z</time>
      </trkpt>
      <trkpt lat="47.16779" lon="6.08835">
        <ele>485.9</ele>
        <time>2022-08-10T09:27:35Z</time>
      </trkpt>
      <trkpt lat="47.16781" lon="6.08833">
        <ele>486.7</ele>
        <time>2022-08-10T09:27:36Z</time>
      </trkpt>
      <trkpt lat="47.16784" lon="6.08831">
        <ele>487.1</ele>
        <time>2022-08-10T09:27:37Z</time>
      </trkpt>
      <trkpt lat="47.16787" lon="6.0883">
        <ele>487.6</ele>
        <time>2022-08-10T09:27:38Z</time>
      </trkpt>
      <trkpt lat="47.16789" lon="6.08829">
        <ele>488.1</ele>
        <time>2022-08-10T09:27:39Z</time>
      </trkpt>
      <trkpt lat="47.16792" lon="6.08827">
        <ele>488.9</ele>
        <time>2022-08-10T09:27:40Z</time>
      </trkpt>
      <trkpt lat="47.16795" lon="6.08826">
        <ele>489.7</ele>
        <time>2022-08-10T09:27:41Z</time>
      </trkpt>
      <trkpt lat="47.16798" lon="6.08825">
        <ele>489.7</ele>
        <time>2022-08-10T09:27:42Z</time>
      </trkpt>
      <trkpt lat="47.16801" lon="6.08824">
        <ele>489.9</ele>
        <time>2022-08-10T09:27:43Z</time>
      </trkpt>
      <trkpt lat="47.16804" lon="6.08822">
        <ele>489.9</ele>
        <time>2022-08-10T09:27:44Z</time>
      </trkpt>
      <trkpt lat="47.16807" lon="6.0882">
        <ele>489.8</ele>
        <time>2022-08-10T09:27:45Z</time>
      </trkpt>
      <trkpt lat="47.16809" lon="6.08817">
        <ele>489.9</ele>
        <time>2022-08-10T09:27:46Z</time>
      </trkpt>
      <trkpt lat="47.16812" lon="6.08816">
        <ele>490.2</ele>
        <time>2022-08-10T09:27:47Z</time>
      </trkpt>
      <trkpt lat="47.16815" lon="6.08814">
        <ele>490.3</ele>
        <time>2022-08-10T09:27:48Z</time>
      </trkpt>
      <trkpt lat="47.16818" lon="6.08811">
        <ele>489.8</ele>
        <time>2022-08-10T09:27:49Z</time>
      </trkpt>
      <trkpt lat="47.1682" lon="6.08809">
        <ele>489.8</ele>
        <time>2022-08-10T09:27:50Z</time>
      </trkpt>
      <trkpt lat="47.16823" lon="6.08807">
        <ele>489.7</ele>
        <time>2022-08-10T09:27:51Z</time>
      </trkpt>
      <trkpt lat="47.16825" lon="6.08805">
        <ele>489.9</ele>
        <time>2022-08-10T09:27:52Z</time>
      </trkpt>
      <trkpt lat="47.16828" lon="6.08802">
        <ele>490.2</ele>
        <time>2022-08-10T09:27:53Z</time>
      </trkpt>
      <trkpt lat="47.1683" lon="6.088">
        <ele>491</ele>
        <time>2022-08-10T09:27:54Z</time>
      </trkpt>
      <trkpt lat="47.16833" lon="6.08798">
        <ele>491.8</ele>
        <time>2022-08-10T09:27:55Z</time>
      </trkpt>
      <trkpt lat="47.16834" lon="6.08795">
        <ele>492.4</ele>
        <time>2022-08-10T09:27:56Z</time>
      </trkpt>
      <trkpt lat="47.16836" lon="6.08793">
        <ele>492.8</ele>
        <time>2022-08-10T09:27:57Z</time>
      </trkpt>
      <trkpt lat="47.16839" lon="6.08792">
        <ele>492.7</ele>
        <time>2022-08-10T09:27:58Z</time>
      </trkpt>
      <trkpt lat="47.16841" lon="6.0879">
        <ele>493.1</ele>
        <time>2022-08-10T09:27:59Z</time>
      </trkpt>
      <trkpt lat="47.16842" lon="6.08788">
        <ele>493.6</ele>
        <time>2022-08-10T09:28:00Z</time>
      </trkpt>
      <trkpt lat="47.16844" lon="6.08786">
        <ele>494.1</ele>
        <time>2022-08-10T09:28:01Z</time>
      </trkpt>
      <trkpt lat="47.16845" lon="6.08784">
        <ele>494.5</ele>
        <time>2022-08-10T09:28:02Z</time>
      </trkpt>
      <trkpt lat="47.16847" lon="6.08781">
        <ele>494.8</ele>
        <time>2022-08-10T09:28:03Z</time>
      </trkpt>
      <trkpt lat="47.16849" lon="6.08779">
        <ele>495</ele>
        <time>2022-08-10T09:28:04Z</time>
      </trkpt>
      <trkpt lat="47.16851" lon="6.08776">
        <ele>495.4</ele>
        <time>2022-08-10T09:28:05Z</time>
      </trkpt>
      <trkpt lat="47.16854" lon="6.08773">
        <ele>495.5</ele>
        <time>2022-08-10T09:28:06Z</time>
      </trkpt>
      <trkpt lat="47.16856" lon="6.0877">
        <ele>495.9</ele>
        <time>2022-08-10T09:28:07Z</time>
      </trkpt>
      <trkpt lat="47.16859" lon="6.08768">
        <ele>496.4</ele>
        <time>2022-08-10T09:28:08Z</time>
      </trkpt>
      <trkpt lat="47.16862" lon="6.08766">
        <ele>497</ele>
        <time>2022-08-10T09:28:09Z</time>
      </trkpt>
      <trkpt lat="47.16867" lon="6.08764">
        <ele>497.4</ele>
        <time>2022-08-10T09:28:10Z</time>
      </trkpt>
      <trkpt lat="47.16871" lon="6.08763">
        <ele>498</ele>
        <time>2022-08-10T09:28:11Z</time>
      </trkpt>
      <trkpt lat="47.16874" lon="6.08761">
        <ele>498.3</ele>
        <time>2022-08-10T09:28:12Z</time>
      </trkpt>
      <trkpt lat="47.16877" lon="6.0876">
        <ele>498.7</ele>
        <time>2022-08-10T09:28:13Z</time>
      </trkpt>
      <trkpt lat="47.1688" lon="6.08759">
        <ele>499</ele>
        <time>2022-08-10T09:28:14Z</time>
      </trkpt>
      <trkpt lat="47.16883" lon="6.08758">
        <ele>499.1</ele>
        <time>2022-08-10T09:28:15Z</time>
      </trkpt>
      <trkpt lat="47.16886" lon="6.08757">
        <ele>499.5</ele>
        <time>2022-08-10T09:28:16Z</time>
      </trkpt>
      <trkpt lat="47.16889" lon="6.08756">
        <ele>499.6</ele>
        <time>2022-08-10T09:28:17Z</time>
      </trkpt>
      <trkpt lat="47.16892" lon="6.08755">
        <ele>499.8</ele>
        <time>2022-08-10T09:28:18Z</time>
      </trkpt>
      <trkpt lat="47.16895" lon="6.08755">
        <ele>500.1</ele>
        <time>2022-08-10T09:28:19Z</time>
      </trkpt>
      <trkpt lat="47.16897" lon="6.08754">
        <ele>500.6</ele>
        <time>2022-08-10T09:28:20Z</time>
      </trkpt>
      <trkpt lat="47.16901" lon="6.08753">
        <ele>500.6</ele>
        <time>2022-08-10T09:28:21Z</time>
      </trkpt>
      <trkpt lat="47.16904" lon="6.08753">
        <ele>500.4</ele>
        <time>2022-08-10T09:28:22Z</time>
      </trkpt>
      <trkpt lat="47.16907" lon="6.08753">
        <ele>500.5</ele>
        <time>2022-08-10T09:28:23Z</time>
      </trkpt>
      <trkpt lat="47.16909" lon="6.08753">
        <ele>500.8</ele>
        <time>2022-08-10T09:28:24Z</time>
      </trkpt>
      <trkpt lat="47.16911" lon="6.08753">
        <ele>501</ele>
        <time>2022-08-10T09:28:25Z</time>
      </trkpt>
      <trkpt lat="47.16913" lon="6.08754">
        <ele>500.8</ele>
        <time>2022-08-10T09:28:26Z</time>
      </trkpt>
      <trkpt lat="47.16915" lon="6.08754">
        <ele>500.6</ele>
        <time>2022-08-10T09:28:27Z</time>
      </trkpt>
      <trkpt lat="47.16917" lon="6.08755">
        <ele>501.2</ele>
        <time>2022-08-10T09:28:28Z</time>
      </trkpt>
      <trkpt lat="47.16918" lon="6.08755">
        <ele>501.4</ele>
        <time>2022-08-10T09:28:29Z</time>
      </trkpt>
      <trkpt lat="47.1692" lon="6.08755">
        <ele>501.8</ele>
        <time>2022-08-10T09:28:30Z</time>
      </trkpt>
      <trkpt lat="47.16922" lon="6.08755">
        <ele>502.3</ele>
        <time>2022-08-10T09:28:31Z</time>
      </trkpt>
      <trkpt lat="47.16924" lon="6.08753">
        <ele>502.7</ele>
        <time>2022-08-10T09:28:32Z</time>
      </trkpt>
      <trkpt lat="47.16926" lon="6.08752">
        <ele>503.1</ele>
        <time>2022-08-10T09:28:33Z</time>
      </trkpt>
      <trkpt lat="47.16927" lon="6.08751">
        <ele>503.5</ele>
        <time>2022-08-10T09:28:34Z</time>
      </trkpt>
      <trkpt lat="47.16929" lon="6.08749">
        <ele>504</ele>
        <time>2022-08-10T09:28:35Z</time>
      </trkpt>
      <trkpt lat="47.16931" lon="6.08748">
        <ele>504.7</ele>
        <time>2022-08-10T09:28:36Z</time>
      </trkpt>
      <trkpt lat="47.16932" lon="6.08748">
        <ele>505.3</ele>
        <time>2022-08-10T09:28:37Z</time>
      </trkpt>
      <trkpt lat="47.16932" lon="6.08746">
        <ele>505.8</ele>
        <time>2022-08-10T09:28:38Z</time>
      </trkpt>
      <trkpt lat="47.16934" lon="6.08746">
        <ele>505.7</ele>
        <time>2022-08-10T09:28:39Z</time>
      </trkpt>
      <trkpt lat="47.16935" lon="6.08744">
        <ele>506.2</ele>
        <time>2022-08-10T09:28:40Z</time>
      </trkpt>
      <trkpt lat="47.16936" lon="6.08742">
        <ele>506.6</ele>
        <time>2022-08-10T09:28:41Z</time>
      </trkpt>
      <trkpt lat="47.16937" lon="6.0874">
        <ele>507</ele>
        <time>2022-08-10T09:28:42Z</time>
      </trkpt>
      <trkpt lat="47.16939" lon="6.08738">
        <ele>507.3</ele>
        <time>2022-08-10T09:28:43Z</time>
      </trkpt>
      <trkpt lat="47.1694" lon="6.08736">
        <ele>507.8</ele>
        <time>2022-08-10T09:28:44Z</time>
      </trkpt>
      <trkpt lat="47.16941" lon="6.08733">
        <ele>508.1</ele>
        <time>2022-08-10T09:28:45Z</time>
      </trkpt>
      <trkpt lat="47.16942" lon="6.08731">
        <ele>508.5</ele>
        <time>2022-08-10T09:28:46Z</time>
      </trkpt>
      <trkpt lat="47.16943" lon="6.08728">
        <ele>508.9</ele>
        <time>2022-08-10T09:28:47Z</time>
      </trkpt>
      <trkpt lat="47.16944" lon="6.08726">
        <ele>508.9</ele>
        <time>2022-08-10T09:28:48Z</time>
      </trkpt>
      <trkpt lat="47.16946" lon="6.08723">
        <ele>509.1</ele>
        <time>2022-08-10T09:28:49Z</time>
      </trkpt>
      <trkpt lat="47.16946" lon="6.08721">
        <ele>509.4</ele>
        <time>2022-08-10T09:28:50Z</time>
      </trkpt>
      <trkpt lat="47.16947" lon="6.08718">
        <ele>509.7</ele>
        <time>2022-08-10T09:28:51Z</time>
      </trkpt>
      <trkpt lat="47.16948" lon="6.08715">
        <ele>509.9</ele>
        <time>2022-08-10T09:28:52Z</time>
      </trkpt>
      <trkpt lat="47.16949" lon="6.08711">
        <ele>510.1</ele>
        <time>2022-08-10T09:28:53Z</time>
      </trkpt>
      <trkpt lat="47.1695" lon="6.08708">
        <ele>510.4</ele>
        <time>2022-08-10T09:28:54Z</time>
      </trkpt>
      <trkpt lat="47.1695" lon="6.08705">
        <ele>510.5</ele>
        <time>2022-08-10T09:28:55Z</time>
      </trkpt>
      <trkpt lat="47.16951" lon="6.08702">
        <ele>510.7</ele>
        <time>2022-08-10T09:28:56Z</time>
      </trkpt>
      <trkpt lat="47.16952" lon="6.08699">
        <ele>510.8</ele>
        <time>2022-08-10T09:28:57Z</time>
      </trkpt>
      <trkpt lat="47.16953" lon="6.08695">
        <ele>510.9</ele>
        <time>2022-08-10T09:28:58Z</time>
      </trkpt>
      <trkpt lat="47.16954" lon="6.08693">
        <ele>511</ele>
        <time>2022-08-10T09:28:59Z</time>
      </trkpt>
      <trkpt lat="47.16954" lon="6.0869">
        <ele>511</ele>
        <time>2022-08-10T09:29:00Z</time>
      </trkpt>
      <trkpt lat="47.16955" lon="6.08688">
        <ele>511.5</ele>
        <time>2022-08-10T09:29:01Z</time>
      </trkpt>
      <trkpt lat="47.16956" lon="6.08686">
        <ele>511.8</ele>
        <time>2022-08-10T09:29:02Z</time>
      </trkpt>
      <trkpt lat="47.16957" lon="6.08682">
        <ele>511.5</ele>
        <time>2022-08-10T09:29:03Z</time>
      </trkpt>
      <trkpt lat="47.16959" lon="6.08679">
        <ele>511.3</ele>
        <time>2022-08-10T09:29:04Z</time>
      </trkpt>
      <trkpt lat="47.1696" lon="6.08676">
        <ele>511</ele>
        <time>2022-08-10T09:29:05Z</time>
      </trkpt>
      <trkpt lat="47.16961" lon="6.08672">
        <ele>510.9</ele>
        <time>2022-08-10T09:29:06Z</time>
      </trkpt>
      <trkpt lat="47.16963" lon="6.08669">
        <ele>510.7</ele>
        <time>2022-08-10T09:29:07Z</time>
      </trkpt>
      <trkpt lat="47.16964" lon="6.08666">
        <ele>510.5</ele>
        <time>2022-08-10T09:29:08Z</time>
      </trkpt>
      <trkpt lat="47.16966" lon="6.08662">
        <ele>510.2</ele>
        <time>2022-08-10T09:29:09Z</time>
      </trkpt>
      <trkpt lat="47.16967" lon="6.08658">
        <ele>510.1</ele>
        <time>2022-08-10T09:29:10Z</time>
      </trkpt>
      <trkpt lat="47.16968" lon="6.08654">
        <ele>510</ele>
        <time>2022-08-10T09:29:11Z</time>
      </trkpt>
      <trkpt lat="47.1697" lon="6.0865">
        <ele>509.5</ele>
        <time>2022-08-10T09:29:12Z</time>
      </trkpt>
      <trkpt lat="47.16971" lon="6.08646">
        <ele>509.2</ele>
        <time>2022-08-10T09:29:13Z</time>
      </trkpt>
      <trkpt lat="47.16973" lon="6.08643">
        <ele>509</ele>
        <time>2022-08-10T09:29:14Z</time>
      </trkpt>
      <trkpt lat="47.16974" lon="6.08641">
        <ele>508.8</ele>
        <time>2022-08-10T09:29:15Z</time>
      </trkpt>
      <trkpt lat="47.16975" lon="6.08638">
        <ele>508.7</ele>
        <time>2022-08-10T09:29:16Z</time>
      </trkpt>
      <trkpt lat="47.16977" lon="6.08635">
        <ele>508.4</ele>
        <time>2022-08-10T09:29:17Z</time>
      </trkpt>
      <trkpt lat="47.16979" lon="6.08632">
        <ele>508</ele>
        <time>2022-08-10T09:29:18Z</time>
      </trkpt>
      <trkpt lat="47.16981" lon="6.0863">
        <ele>507.9</ele>
        <time>2022-08-10T09:29:19Z</time>
      </trkpt>
      <trkpt lat="47.16983" lon="6.08627">
        <ele>507.6</ele>
        <time>2022-08-10T09:29:20Z</time>
      </trkpt>
      <trkpt lat="47.16988" lon="6.08614">
        <ele>509</ele>
        <time>2022-08-10T09:29:21Z</time>
      </trkpt>
      <trkpt lat="47.1699" lon="6.08612">
        <ele>508.5</ele>
        <time>2022-08-10T09:29:22Z</time>
      </trkpt>
      <trkpt lat="47.16992" lon="6.08609">
        <ele>507.9</ele>
        <time>2022-08-10T09:29:23Z</time>
      </trkpt>
      <trkpt lat="47.16993" lon="6.08606">
        <ele>507.4</ele>
        <time>2022-08-10T09:29:24Z</time>
      </trkpt>
      <trkpt lat="47.16995" lon="6.08603">
        <ele>506.8</ele>
        <time>2022-08-10T09:29:25Z</time>
      </trkpt>
      <trkpt lat="47.16997" lon="6.08601">
        <ele>506.4</ele>
        <time>2022-08-10T09:29:26Z</time>
      </trkpt>
      <trkpt lat="47.16999" lon="6.08599">
        <ele>505.9</ele>
        <time>2022-08-10T09:29:27Z</time>
      </trkpt>
      <trkpt lat="47.17" lon="6.08596">
        <ele>505.1</ele>
        <time>2022-08-10T09:29:28Z</time>
      </trkpt>
      <trkpt lat="47.17002" lon="6.08593">
        <ele>504.2</ele>
        <time>2022-08-10T09:29:29Z</time>
      </trkpt>
      <trkpt lat="47.17003" lon="6.08591">
        <ele>503.8</ele>
        <time>2022-08-10T09:29:30Z</time>
      </trkpt>
      <trkpt lat="47.17005" lon="6.08588">
        <ele>503.3</ele>
        <time>2022-08-10T09:29:31Z</time>
      </trkpt>
      <trkpt lat="47.17006" lon="6.08584">
        <ele>502.9</ele>
        <time>2022-08-10T09:29:32Z</time>
      </trkpt>
      <trkpt lat="47.17007" lon="6.0858">
        <ele>502.5</ele>
        <time>2022-08-10T09:29:33Z</time>
      </trkpt>
      <trkpt lat="47.17008" lon="6.08572">
        <ele>502.2</ele>
        <time>2022-08-10T09:29:34Z</time>
      </trkpt>
      <trkpt lat="47.17009" lon="6.08565">
        <ele>502.4</ele>
        <time>2022-08-10T09:29:35Z</time>
      </trkpt>
      <trkpt lat="47.1701" lon="6.08561">
        <ele>502.3</ele>
        <time>2022-08-10T09:29:36Z</time>
      </trkpt>
      <trkpt lat="47.17009" lon="6.08556">
        <ele>502.4</ele>
        <time>2022-08-10T09:29:37Z</time>
      </trkpt>
      <trkpt lat="47.17008" lon="6.08552">
        <ele>502.4</ele>
        <time>2022-08-10T09:29:38Z</time>
      </trkpt>
      <trkpt lat="47.17008" lon="6.08548">
        <ele>502.6</ele>
        <time>2022-08-10T09:29:39Z</time>
      </trkpt>
      <trkpt lat="47.17007" lon="6.08543">
        <ele>502.7</ele>
        <time>2022-08-10T09:29:40Z</time>
      </trkpt>
      <trkpt lat="47.17007" lon="6.08539">
        <ele>502.7</ele>
        <time>2022-08-10T09:29:41Z</time>
      </trkpt>
      <trkpt lat="47.17008" lon="6.08533">
        <ele>502.8</ele>
        <time>2022-08-10T09:29:42Z</time>
      </trkpt>
      <trkpt lat="47.17008" lon="6.08528">
        <ele>502.4</ele>
        <time>2022-08-10T09:29:43Z</time>
      </trkpt>
      <trkpt lat="47.17008" lon="6.08522">
        <ele>502.5</ele>
        <time>2022-08-10T09:29:44Z</time>
      </trkpt>
      <trkpt lat="47.17008" lon="6.08513">
        <ele>503</ele>
        <time>2022-08-10T09:29:45Z</time>
      </trkpt>
      <trkpt lat="47.17008" lon="6.08507">
        <ele>502.9</ele>
        <time>2022-08-10T09:29:46Z</time>
      </trkpt>
      <trkpt lat="47.1701" lon="6.08497">
        <ele>503.1</ele>
        <time>2022-08-10T09:29:47Z</time>
      </trkpt>
      <trkpt lat="47.17012" lon="6.08489">
        <ele>503.3</ele>
        <time>2022-08-10T09:29:48Z</time>
      </trkpt>
      <trkpt lat="47.17013" lon="6.08482">
        <ele>503.1</ele>
        <time>2022-08-10T09:29:49Z</time>
      </trkpt>
      <trkpt lat="47.17015" lon="6.08474">
        <ele>502.5</ele>
        <time>2022-08-10T09:29:50Z</time>
      </trkpt>
      <trkpt lat="47.17018" lon="6.08464">
        <ele>501.7</ele>
        <time>2022-08-10T09:29:51Z</time>
      </trkpt>
      <trkpt lat="47.1702" lon="6.08455">
        <ele>501.1</ele>
        <time>2022-08-10T09:29:52Z</time>
      </trkpt>
      <trkpt lat="47.17022" lon="6.08449">
        <ele>500.2</ele>
        <time>2022-08-10T09:29:53Z</time>
      </trkpt>
      <trkpt lat="47.17023" lon="6.08443">
        <ele>499.3</ele>
        <time>2022-08-10T09:29:54Z</time>
      </trkpt>
      <trkpt lat="47.17024" lon="6.08435">
        <ele>497.8</ele>
        <time>2022-08-10T09:29:55Z</time>
      </trkpt>
      <trkpt lat="47.17025" lon="6.08425">
        <ele>494.3</ele>
        <time>2022-08-10T09:29:56Z</time>
      </trkpt>
      <trkpt lat="47.17025" lon="6.08419">
        <ele>493.7</ele>
        <time>2022-08-10T09:29:57Z</time>
      </trkpt>
      <trkpt lat="47.17026" lon="6.08411">
        <ele>491.8</ele>
        <time>2022-08-10T09:29:58Z</time>
      </trkpt>
      <trkpt lat="47.17027" lon="6.08405">
        <ele>490.9</ele>
        <time>2022-08-10T09:29:59Z</time>
      </trkpt>
      <trkpt lat="47.17028" lon="6.08399">
        <ele>489.1</ele>
        <time>2022-08-10T09:30:00Z</time>
      </trkpt>
      <trkpt lat="47.17029" lon="6.08394">
        <ele>487.9</ele>
        <time>2022-08-10T09:30:01Z</time>
      </trkpt>
      <trkpt lat="47.1703" lon="6.0839">
        <ele>486.8</ele>
        <time>2022-08-10T09:30:02Z</time>
      </trkpt>
      <trkpt lat="47.1703" lon="6.08387">
        <ele>485.7</ele>
        <time>2022-08-10T09:30:03Z</time>
      </trkpt>
      <trkpt lat="47.1703" lon="6.08383">
        <ele>484.6</ele>
        <time>2022-08-10T09:30:04Z</time>
      </trkpt>
      <trkpt lat="47.17029" lon="6.08378">
        <ele>483.5</ele>
        <time>2022-08-10T09:30:05Z</time>
      </trkpt>
      <trkpt lat="47.17029" lon="6.08375">
        <ele>483.3</ele>
        <time>2022-08-10T09:30:06Z</time>
      </trkpt>
      <trkpt lat="47.17029" lon="6.08371">
        <ele>483</ele>
        <time>2022-08-10T09:30:07Z</time>
      </trkpt>
      <trkpt lat="47.17029" lon="6.08369">
        <ele>483</ele>
        <time>2022-08-10T09:30:08Z</time>
      </trkpt>
      <trkpt lat="47.17029" lon="6.08365">
        <ele>482.7</ele>
        <time>2022-08-10T09:30:09Z</time>
      </trkpt>
      <trkpt lat="47.17028" lon="6.08362">
        <ele>483.3</ele>
        <time>2022-08-10T09:30:10Z</time>
      </trkpt>
      <trkpt lat="47.17027" lon="6.0836">
        <ele>483.7</ele>
        <time>2022-08-10T09:30:11Z</time>
      </trkpt>
      <trkpt lat="47.17025" lon="6.08357">
        <ele>483.8</ele>
        <time>2022-08-10T09:30:12Z</time>
      </trkpt>
      <trkpt lat="47.17024" lon="6.08355">
        <ele>484</ele>
        <time>2022-08-10T09:30:13Z</time>
      </trkpt>
      <trkpt lat="47.17023" lon="6.08354">
        <ele>484.2</ele>
        <time>2022-08-10T09:30:14Z</time>
      </trkpt>
      <trkpt lat="47.17021" lon="6.08353">
        <ele>484.8</ele>
        <time>2022-08-10T09:30:15Z</time>
      </trkpt>
      <trkpt lat="47.17021" lon="6.08351">
        <ele>485.1</ele>
        <time>2022-08-10T09:30:16Z</time>
      </trkpt>
      <trkpt lat="47.17021" lon="6.08348">
        <ele>485.3</ele>
        <time>2022-08-10T09:30:17Z</time>
      </trkpt>
      <trkpt lat="47.17021" lon="6.08345">
        <ele>485.4</ele>
        <time>2022-08-10T09:30:18Z</time>
      </trkpt>
      <trkpt lat="47.17022" lon="6.08341">
        <ele>485.8</ele>
        <time>2022-08-10T09:30:19Z</time>
      </trkpt>
      <trkpt lat="47.17023" lon="6.08337">
        <ele>486.3</ele>
        <time>2022-08-10T09:30:20Z</time>
      </trkpt>
      <trkpt lat="47.17024" lon="6.08334">
        <ele>487.1</ele>
        <time>2022-08-10T09:30:21Z</time>
      </trkpt>
      <trkpt lat="47.17025" lon="6.08331">
        <ele>487.2</ele>
        <time>2022-08-10T09:30:22Z</time>
      </trkpt>
      <trkpt lat="47.17025" lon="6.08329">
        <ele>487</ele>
        <time>2022-08-10T09:30:23Z</time>
      </trkpt>
      <trkpt lat="47.17027" lon="6.08325">
        <ele>487.1</ele>
        <time>2022-08-10T09:30:24Z</time>
      </trkpt>
      <trkpt lat="47.17028" lon="6.08321">
        <ele>486.8</ele>
        <time>2022-08-10T09:30:25Z</time>
      </trkpt>
      <trkpt lat="47.17029" lon="6.08318">
        <ele>486.9</ele>
        <time>2022-08-10T09:30:26Z</time>
      </trkpt>
      <trkpt lat="47.17029" lon="6.08314">
        <ele>486.8</ele>
        <time>2022-08-10T09:30:27Z</time>
      </trkpt>
      <trkpt lat="47.1703" lon="6.08311">
        <ele>486.8</ele>
        <time>2022-08-10T09:30:28Z</time>
      </trkpt>
      <trkpt lat="47.17031" lon="6.08307">
        <ele>486.8</ele>
        <time>2022-08-10T09:30:29Z</time>
      </trkpt>
      <trkpt lat="47.17032" lon="6.08303">
        <ele>487</ele>
        <time>2022-08-10T09:30:30Z</time>
      </trkpt>
      <trkpt lat="47.17034" lon="6.08299">
        <ele>487.2</ele>
        <time>2022-08-10T09:30:31Z</time>
      </trkpt>
      <trkpt lat="47.17035" lon="6.08296">
        <ele>487.9</ele>
        <time>2022-08-10T09:30:32Z</time>
      </trkpt>
      <trkpt lat="47.17036" lon="6.08293">
        <ele>488.3</ele>
        <time>2022-08-10T09:30:33Z</time>
      </trkpt>
      <trkpt lat="47.17037" lon="6.08291">
        <ele>488.6</ele>
        <time>2022-08-10T09:30:34Z</time>
      </trkpt>
      <trkpt lat="47.1704" lon="6.08287">
        <ele>490.2</ele>
        <time>2022-08-10T09:30:35Z</time>
      </trkpt>
      <trkpt lat="47.1704" lon="6.08285">
        <ele>490.8</ele>
        <time>2022-08-10T09:30:36Z</time>
      </trkpt>
      <trkpt lat="47.17041" lon="6.08283">
        <ele>491.4</ele>
        <time>2022-08-10T09:30:37Z</time>
      </trkpt>
      <trkpt lat="47.17042" lon="6.08279">
        <ele>491.8</ele>
        <time>2022-08-10T09:30:38Z</time>
      </trkpt>
      <trkpt lat="47.17043" lon="6.08275">
        <ele>492.8</ele>
        <time>2022-08-10T09:30:39Z</time>
      </trkpt>
      <trkpt lat="47.17044" lon="6.08272">
        <ele>493.6</ele>
        <time>2022-08-10T09:30:40Z</time>
      </trkpt>
      <trkpt lat="47.17045" lon="6.08269">
        <ele>493.9</ele>
        <time>2022-08-10T09:30:41Z</time>
      </trkpt>
      <trkpt lat="47.17047" lon="6.08266">
        <ele>494.3</ele>
        <time>2022-08-10T09:30:42Z</time>
      </trkpt>
      <trkpt lat="47.17048" lon="6.08263">
        <ele>494.4</ele>
        <time>2022-08-10T09:30:43Z</time>
      </trkpt>
      <trkpt lat="47.1705" lon="6.0826">
        <ele>495.3</ele>
        <time>2022-08-10T09:30:44Z</time>
      </trkpt>
      <trkpt lat="47.17051" lon="6.08256">
        <ele>495.6</ele>
        <time>2022-08-10T09:30:45Z</time>
      </trkpt>
      <trkpt lat="47.17052" lon="6.08253">
        <ele>496</ele>
        <time>2022-08-10T09:30:46Z</time>
      </trkpt>
      <trkpt lat="47.17054" lon="6.08249">
        <ele>496.6</ele>
        <time>2022-08-10T09:30:47Z</time>
      </trkpt>
      <trkpt lat="47.17055" lon="6.08246">
        <ele>497.2</ele>
        <time>2022-08-10T09:30:48Z</time>
      </trkpt>
      <trkpt lat="47.17056" lon="6.08243">
        <ele>497.4</ele>
        <time>2022-08-10T09:30:49Z</time>
      </trkpt>
      <trkpt lat="47.17057" lon="6.08241">
        <ele>498</ele>
        <time>2022-08-10T09:30:50Z</time>
      </trkpt>
      <trkpt lat="47.17058" lon="6.08238">
        <ele>498.3</ele>
        <time>2022-08-10T09:30:51Z</time>
      </trkpt>
      <trkpt lat="47.17059" lon="6.08235">
        <ele>498.8</ele>
        <time>2022-08-10T09:30:52Z</time>
      </trkpt>
      <trkpt lat="47.1706" lon="6.08232">
        <ele>499.1</ele>
        <time>2022-08-10T09:30:53Z</time>
      </trkpt>
      <trkpt lat="47.17062" lon="6.0823">
        <ele>499.4</ele>
        <time>2022-08-10T09:30:54Z</time>
      </trkpt>
      <trkpt lat="47.17063" lon="6.08226">
        <ele>499.8</ele>
        <time>2022-08-10T09:30:55Z</time>
      </trkpt>
      <trkpt lat="47.17064" lon="6.08223">
        <ele>500.3</ele>
        <time>2022-08-10T09:30:56Z</time>
      </trkpt>
      <trkpt lat="47.17065" lon="6.08219">
        <ele>500.8</ele>
        <time>2022-08-10T09:30:57Z</time>
      </trkpt>
      <trkpt lat="47.17067" lon="6.08216">
        <ele>500.9</ele>
        <time>2022-08-10T09:30:58Z</time>
      </trkpt>
      <trkpt lat="47.17069" lon="6.08212">
        <ele>501.2</ele>
        <time>2022-08-10T09:30:59Z</time>
      </trkpt>
      <trkpt lat="47.1707" lon="6.08209">
        <ele>501.6</ele>
        <time>2022-08-10T09:31:00Z</time>
      </trkpt>
      <trkpt lat="47.17071" lon="6.08205">
        <ele>501.8</ele>
        <time>2022-08-10T09:31:01Z</time>
      </trkpt>
      <trkpt lat="47.17073" lon="6.08202">
        <ele>502.1</ele>
        <time>2022-08-10T09:31:02Z</time>
      </trkpt>
      <trkpt lat="47.17074" lon="6.08198">
        <ele>502.3</ele>
        <time>2022-08-10T09:31:03Z</time>
      </trkpt>
      <trkpt lat="47.17075" lon="6.08195">
        <ele>502.5</ele>
        <time>2022-08-10T09:31:04Z</time>
      </trkpt>
      <trkpt lat="47.17075" lon="6.08192">
        <ele>502.6</ele>
        <time>2022-08-10T09:31:05Z</time>
      </trkpt>
      <trkpt lat="47.17077" lon="6.08189">
        <ele>502.7</ele>
        <time>2022-08-10T09:31:06Z</time>
      </trkpt>
      <trkpt lat="47.17078" lon="6.08186">
        <ele>503</ele>
        <time>2022-08-10T09:31:07Z</time>
      </trkpt>
      <trkpt lat="47.1708" lon="6.08183">
        <ele>503.1</ele>
        <time>2022-08-10T09:31:08Z</time>
      </trkpt>
      <trkpt lat="47.17082" lon="6.08179">
        <ele>503.5</ele>
        <time>2022-08-10T09:31:09Z</time>
      </trkpt>
      <trkpt lat="47.17084" lon="6.08175">
        <ele>504</ele>
        <time>2022-08-10T09:31:10Z</time>
      </trkpt>
      <trkpt lat="47.17086" lon="6.0817">
        <ele>504.1</ele>
        <time>2022-08-10T09:31:11Z</time>
      </trkpt>
      <trkpt lat="47.17088" lon="6.08166">
        <ele>504.6</ele>
        <time>2022-08-10T09:31:12Z</time>
      </trkpt>
      <trkpt lat="47.1709" lon="6.08163">
        <ele>504.5</ele>
        <time>2022-08-10T09:31:13Z</time>
      </trkpt>
      <trkpt lat="47.17092" lon="6.08159">
        <ele>504.2</ele>
        <time>2022-08-10T09:31:14Z</time>
      </trkpt>
      <trkpt lat="47.17094" lon="6.08155">
        <ele>504.2</ele>
        <time>2022-08-10T09:31:15Z</time>
      </trkpt>
      <trkpt lat="47.17096" lon="6.08151">
        <ele>504.3</ele>
        <time>2022-08-10T09:31:16Z</time>
      </trkpt>
      <trkpt lat="47.17098" lon="6.08147">
        <ele>504.7</ele>
        <time>2022-08-10T09:31:17Z</time>
      </trkpt>
      <trkpt lat="47.171" lon="6.08142">
        <ele>504.4</ele>
        <time>2022-08-10T09:31:18Z</time>
      </trkpt>
      <trkpt lat="47.17102" lon="6.08139">
        <ele>504.2</ele>
        <time>2022-08-10T09:31:19Z</time>
      </trkpt>
      <trkpt lat="47.17103" lon="6.08135">
        <ele>504</ele>
        <time>2022-08-10T09:31:20Z</time>
      </trkpt>
      <trkpt lat="47.17105" lon="6.08131">
        <ele>504</ele>
        <time>2022-08-10T09:31:21Z</time>
      </trkpt>
      <trkpt lat="47.17108" lon="6.08127">
        <ele>503.9</ele>
        <time>2022-08-10T09:31:22Z</time>
      </trkpt>
      <trkpt lat="47.1711" lon="6.08124">
        <ele>503.7</ele>
        <time>2022-08-10T09:31:23Z</time>
      </trkpt>
      <trkpt lat="47.17112" lon="6.08119">
        <ele>503.3</ele>
        <time>2022-08-10T09:31:24Z</time>
      </trkpt>
      <trkpt lat="47.17114" lon="6.08113">
        <ele>502.6</ele>
        <time>2022-08-10T09:31:25Z</time>
      </trkpt>
      <trkpt lat="47.17116" lon="6.08108">
        <ele>502.1</ele>
        <time>2022-08-10T09:31:26Z</time>
      </trkpt>
      <trkpt lat="47.17119" lon="6.08103">
        <ele>501.4</ele>
        <time>2022-08-10T09:31:27Z</time>
      </trkpt>
      <trkpt lat="47.17122" lon="6.08098">
        <ele>500.7</ele>
        <time>2022-08-10T09:31:28Z</time>
      </trkpt>
      <trkpt lat="47.17124" lon="6.08093">
        <ele>500.2</ele>
        <time>2022-08-10T09:31:29Z</time>
      </trkpt>
      <trkpt lat="47.17127" lon="6.08089">
        <ele>499.8</ele>
        <time>2022-08-10T09:31:30Z</time>
      </trkpt>
      <trkpt lat="47.17129" lon="6.08085">
        <ele>499.2</ele>
        <time>2022-08-10T09:31:31Z</time>
      </trkpt>
      <trkpt lat="47.17131" lon="6.08082">
        <ele>498.8</ele>
        <time>2022-08-10T09:31:32Z</time>
      </trkpt>
      <trkpt lat="47.17133" lon="6.08078">
        <ele>498.5</ele>
        <time>2022-08-10T09:31:33Z</time>
      </trkpt>
      <trkpt lat="47.17135" lon="6.08074">
        <ele>498.4</ele>
        <time>2022-08-10T09:31:34Z</time>
      </trkpt>
      <trkpt lat="47.17137" lon="6.0807">
        <ele>497.7</ele>
        <time>2022-08-10T09:31:35Z</time>
      </trkpt>
      <trkpt lat="47.1714" lon="6.08066">
        <ele>497.3</ele>
        <time>2022-08-10T09:31:36Z</time>
      </trkpt>
      <trkpt lat="47.17142" lon="6.08062">
        <ele>496.7</ele>
        <time>2022-08-10T09:31:37Z</time>
      </trkpt>
      <trkpt lat="47.17145" lon="6.08059">
        <ele>496.2</ele>
        <time>2022-08-10T09:31:38Z</time>
      </trkpt>
      <trkpt lat="47.17148" lon="6.08055">
        <ele>496.5</ele>
        <time>2022-08-10T09:31:39Z</time>
      </trkpt>
      <trkpt lat="47.17151" lon="6.08052">
        <ele>496.4</ele>
        <time>2022-08-10T09:31:40Z</time>
      </trkpt>
      <trkpt lat="47.17154" lon="6.08048">
        <ele>496.4</ele>
        <time>2022-08-10T09:31:41Z</time>
      </trkpt>
      <trkpt lat="47.17157" lon="6.08045">
        <ele>497</ele>
        <time>2022-08-10T09:31:42Z</time>
      </trkpt>
      <trkpt lat="47.17159" lon="6.08042">
        <ele>497.1</ele>
        <time>2022-08-10T09:31:43Z</time>
      </trkpt>
      <trkpt lat="47.17162" lon="6.08039">
        <ele>496.9</ele>
        <time>2022-08-10T09:31:44Z</time>
      </trkpt>
      <trkpt lat="47.17164" lon="6.08035">
        <ele>497.2</ele>
        <time>2022-08-10T09:31:45Z</time>
      </trkpt>
      <trkpt lat="47.17165" lon="6.08031">
        <ele>497.5</ele>
        <time>2022-08-10T09:31:46Z</time>
      </trkpt>
      <trkpt lat="47.17167" lon="6.08028">
        <ele>497.8</ele>
        <time>2022-08-10T09:31:47Z</time>
      </trkpt>
      <trkpt lat="47.17171" lon="6.08023">
        <ele>498</ele>
        <time>2022-08-10T09:31:48Z</time>
      </trkpt>
      <trkpt lat="47.17174" lon="6.08018">
        <ele>497.6</ele>
        <time>2022-08-10T09:31:49Z</time>
      </trkpt>
      <trkpt lat="47.17177" lon="6.08012">
        <ele>498.3</ele>
        <time>2022-08-10T09:31:50Z</time>
      </trkpt>
      <trkpt lat="47.1718" lon="6.08008">
        <ele>498.3</ele>
        <time>2022-08-10T09:31:51Z</time>
      </trkpt>
      <trkpt lat="47.17182" lon="6.08003">
        <ele>498.5</ele>
        <time>2022-08-10T09:31:52Z</time>
      </trkpt>
      <trkpt lat="47.17185" lon="6.07999">
        <ele>498.1</ele>
        <time>2022-08-10T09:31:53Z</time>
      </trkpt>
      <trkpt lat="47.17187" lon="6.07994">
        <ele>498.4</ele>
        <time>2022-08-10T09:31:54Z</time>
      </trkpt>
      <trkpt lat="47.17189" lon="6.07989">
        <ele>498.5</ele>
        <time>2022-08-10T09:31:55Z</time>
      </trkpt>
      <trkpt lat="47.17191" lon="6.07984">
        <ele>497.8</ele>
        <time>2022-08-10T09:31:56Z</time>
      </trkpt>
      <trkpt lat="47.17193" lon="6.0798">
        <ele>497.5</ele>
        <time>2022-08-10T09:31:57Z</time>
      </trkpt>
      <trkpt lat="47.17195" lon="6.07976">
        <ele>496.5</ele>
        <time>2022-08-10T09:31:58Z</time>
      </trkpt>
      <trkpt lat="47.17197" lon="6.07974">
        <ele>495.6</ele>
        <time>2022-08-10T09:31:59Z</time>
      </trkpt>
      <trkpt lat="47.17197" lon="6.07971">
        <ele>495.3</ele>
        <time>2022-08-10T09:32:00Z</time>
      </trkpt>
      <trkpt lat="47.17197" lon="6.07969">
        <ele>495.3</ele>
        <time>2022-08-10T09:32:01Z</time>
      </trkpt>
      <trkpt lat="47.17196" lon="6.07967">
        <ele>495</ele>
        <time>2022-08-10T09:32:02Z</time>
      </trkpt>
      <trkpt lat="47.17196" lon="6.07966">
        <ele>495</ele>
        <time>2022-08-10T09:32:03Z</time>
      </trkpt>
      <trkpt lat="47.17195" lon="6.07962">
        <ele>494.8</ele>
        <time>2022-08-10T09:32:04Z</time>
      </trkpt>
      <trkpt lat="47.17194" lon="6.07959">
        <ele>494.6</ele>
        <time>2022-08-10T09:32:05Z</time>
      </trkpt>
      <trkpt lat="47.17195" lon="6.07956">
        <ele>494.3</ele>
        <time>2022-08-10T09:32:06Z</time>
      </trkpt>
      <trkpt lat="47.17197" lon="6.07952">
        <ele>493.9</ele>
        <time>2022-08-10T09:32:07Z</time>
      </trkpt>
      <trkpt lat="47.172" lon="6.07949">
        <ele>493.5</ele>
        <time>2022-08-10T09:32:08Z</time>
      </trkpt>
      <trkpt lat="47.17203" lon="6.07944">
        <ele>493.1</ele>
        <time>2022-08-10T09:32:09Z</time>
      </trkpt>
      <trkpt lat="47.17206" lon="6.07939">
        <ele>492.9</ele>
        <time>2022-08-10T09:32:10Z</time>
      </trkpt>
      <trkpt lat="47.17208" lon="6.07934">
        <ele>492.5</ele>
        <time>2022-08-10T09:32:11Z</time>
      </trkpt>
      <trkpt lat="47.17211" lon="6.07929">
        <ele>491.8</ele>
        <time>2022-08-10T09:32:12Z</time>
      </trkpt>
      <trkpt lat="47.17214" lon="6.07925">
        <ele>491.1</ele>
        <time>2022-08-10T09:32:13Z</time>
      </trkpt>
      <trkpt lat="47.17218" lon="6.07921">
        <ele>490.4</ele>
        <time>2022-08-10T09:32:14Z</time>
      </trkpt>
      <trkpt lat="47.17221" lon="6.07917">
        <ele>489.8</ele>
        <time>2022-08-10T09:32:15Z</time>
      </trkpt>
      <trkpt lat="47.17224" lon="6.07914">
        <ele>489.2</ele>
        <time>2022-08-10T09:32:16Z</time>
      </trkpt>
      <trkpt lat="47.17227" lon="6.0791">
        <ele>488.9</ele>
        <time>2022-08-10T09:32:17Z</time>
      </trkpt>
      <trkpt lat="47.17229" lon="6.07906">
        <ele>488.2</ele>
        <time>2022-08-10T09:32:18Z</time>
      </trkpt>
      <trkpt lat="47.17231" lon="6.07903">
        <ele>488.1</ele>
        <time>2022-08-10T09:32:19Z</time>
      </trkpt>
      <trkpt lat="47.17233" lon="6.079">
        <ele>488.6</ele>
        <time>2022-08-10T09:32:20Z</time>
      </trkpt>
      <trkpt lat="47.17234" lon="6.07897">
        <ele>489.1</ele>
        <time>2022-08-10T09:32:21Z</time>
      </trkpt>
      <trkpt lat="47.17236" lon="6.07895">
        <ele>489.3</ele>
        <time>2022-08-10T09:32:22Z</time>
      </trkpt>
      <trkpt lat="47.17237" lon="6.07892">
        <ele>489</ele>
        <time>2022-08-10T09:32:23Z</time>
      </trkpt>
      <trkpt lat="47.17239" lon="6.07888">
        <ele>489.2</ele>
        <time>2022-08-10T09:32:24Z</time>
      </trkpt>
      <trkpt lat="47.17241" lon="6.07885">
        <ele>489.5</ele>
        <time>2022-08-10T09:32:25Z</time>
      </trkpt>
      <trkpt lat="47.17242" lon="6.07881">
        <ele>489.9</ele>
        <time>2022-08-10T09:32:26Z</time>
      </trkpt>
      <trkpt lat="47.17243" lon="6.07878">
        <ele>490.8</ele>
        <time>2022-08-10T09:32:27Z</time>
      </trkpt>
      <trkpt lat="47.17244" lon="6.07875">
        <ele>491.6</ele>
        <time>2022-08-10T09:32:28Z</time>
      </trkpt>
      <trkpt lat="47.17244" lon="6.07871">
        <ele>492</ele>
        <time>2022-08-10T09:32:29Z</time>
      </trkpt>
      <trkpt lat="47.17244" lon="6.07868">
        <ele>492.7</ele>
        <time>2022-08-10T09:32:30Z</time>
      </trkpt>
      <trkpt lat="47.17242" lon="6.07864">
        <ele>493.3</ele>
        <time>2022-08-10T09:32:31Z</time>
      </trkpt>
      <trkpt lat="47.17241" lon="6.0786">
        <ele>493.7</ele>
        <time>2022-08-10T09:32:32Z</time>
      </trkpt>
      <trkpt lat="47.1724" lon="6.07855">
        <ele>493.6</ele>
        <time>2022-08-10T09:32:33Z</time>
      </trkpt>
      <trkpt lat="47.17238" lon="6.0785">
        <ele>493.7</ele>
        <time>2022-08-10T09:32:34Z</time>
      </trkpt>
      <trkpt lat="47.17236" lon="6.07844">
        <ele>493.2</ele>
        <time>2022-08-10T09:32:35Z</time>
      </trkpt>
      <trkpt lat="47.17234" lon="6.07837">
        <ele>492.8</ele>
        <time>2022-08-10T09:32:36Z</time>
      </trkpt>
      <trkpt lat="47.17231" lon="6.07831">
        <ele>492.2</ele>
        <time>2022-08-10T09:32:37Z</time>
      </trkpt>
      <trkpt lat="47.17229" lon="6.07823">
        <ele>491.5</ele>
        <time>2022-08-10T09:32:38Z</time>
      </trkpt>
      <trkpt lat="47.17227" lon="6.07814">
        <ele>490.1</ele>
        <time>2022-08-10T09:32:39Z</time>
      </trkpt>
      <trkpt lat="47.17224" lon="6.07805">
        <ele>489.5</ele>
        <time>2022-08-10T09:32:40Z</time>
      </trkpt>
      <trkpt lat="47.17221" lon="6.07795">
        <ele>488</ele>
        <time>2022-08-10T09:32:41Z</time>
      </trkpt>
      <trkpt lat="47.17219" lon="6.07785">
        <ele>486.6</ele>
        <time>2022-08-10T09:32:42Z</time>
      </trkpt>
      <trkpt lat="47.17216" lon="6.07775">
        <ele>485.4</ele>
        <time>2022-08-10T09:32:43Z</time>
      </trkpt>
      <trkpt lat="47.17213" lon="6.07764">
        <ele>484.9</ele>
        <time>2022-08-10T09:32:44Z</time>
      </trkpt>
      <trkpt lat="47.1721" lon="6.07753">
        <ele>484.1</ele>
        <time>2022-08-10T09:32:45Z</time>
      </trkpt>
      <trkpt lat="47.17207" lon="6.07743">
        <ele>483.7</ele>
        <time>2022-08-10T09:32:46Z</time>
      </trkpt>
      <trkpt lat="47.17205" lon="6.07732">
        <ele>483.5</ele>
        <time>2022-08-10T09:32:47Z</time>
      </trkpt>
      <trkpt lat="47.17203" lon="6.07721">
        <ele>482.8</ele>
        <time>2022-08-10T09:32:48Z</time>
      </trkpt>
      <trkpt lat="47.172" lon="6.07711">
        <ele>482.6</ele>
        <time>2022-08-10T09:32:49Z</time>
      </trkpt>
      <trkpt lat="47.17198" lon="6.077">
        <ele>482.4</ele>
        <time>2022-08-10T09:32:50Z</time>
      </trkpt>
      <trkpt lat="47.17196" lon="6.0769">
        <ele>482.1</ele>
        <time>2022-08-10T09:32:51Z</time>
      </trkpt>
      <trkpt lat="47.17195" lon="6.0768">
        <ele>482.1</ele>
        <time>2022-08-10T09:32:52Z</time>
      </trkpt>
      <trkpt lat="47.17196" lon="6.0767">
        <ele>482.1</ele>
        <time>2022-08-10T09:32:53Z</time>
      </trkpt>
      <trkpt lat="47.17199" lon="6.07661">
        <ele>482.3</ele>
        <time>2022-08-10T09:32:54Z</time>
      </trkpt>
      <trkpt lat="47.17202" lon="6.07654">
        <ele>482.6</ele>
        <time>2022-08-10T09:32:55Z</time>
      </trkpt>
      <trkpt lat="47.17205" lon="6.07648">
        <ele>483.1</ele>
        <time>2022-08-10T09:32:56Z</time>
      </trkpt>
      <trkpt lat="47.17209" lon="6.07643">
        <ele>483.2</ele>
        <time>2022-08-10T09:32:57Z</time>
      </trkpt>
      <trkpt lat="47.17213" lon="6.07638">
        <ele>483.2</ele>
        <time>2022-08-10T09:32:58Z</time>
      </trkpt>
      <trkpt lat="47.17218" lon="6.07634">
        <ele>483.2</ele>
        <time>2022-08-10T09:32:59Z</time>
      </trkpt>
      <trkpt lat="47.17223" lon="6.0763">
        <ele>483</ele>
        <time>2022-08-10T09:33:00Z</time>
      </trkpt>
      <trkpt lat="47.17227" lon="6.07626">
        <ele>482.8</ele>
        <time>2022-08-10T09:33:01Z</time>
      </trkpt>
      <trkpt lat="47.17232" lon="6.07622">
        <ele>482.4</ele>
        <time>2022-08-10T09:33:02Z</time>
      </trkpt>
      <trkpt lat="47.17235" lon="6.07617">
        <ele>482.3</ele>
        <time>2022-08-10T09:33:03Z</time>
      </trkpt>
      <trkpt lat="47.17237" lon="6.07612">
        <ele>482.2</ele>
        <time>2022-08-10T09:33:04Z</time>
      </trkpt>
      <trkpt lat="47.17238" lon="6.07606">
        <ele>481.8</ele>
        <time>2022-08-10T09:33:05Z</time>
      </trkpt>
      <trkpt lat="47.17237" lon="6.07601">
        <ele>481.7</ele>
        <time>2022-08-10T09:33:06Z</time>
      </trkpt>
      <trkpt lat="47.17235" lon="6.07597">
        <ele>481.7</ele>
        <time>2022-08-10T09:33:07Z</time>
      </trkpt>
      <trkpt lat="47.17232" lon="6.07595">
        <ele>481.7</ele>
        <time>2022-08-10T09:33:08Z</time>
      </trkpt>
      <trkpt lat="47.17228" lon="6.07592">
        <ele>482.1</ele>
        <time>2022-08-10T09:33:09Z</time>
      </trkpt>
      <trkpt lat="47.17225" lon="6.07589">
        <ele>482.3</ele>
        <time>2022-08-10T09:33:10Z</time>
      </trkpt>
      <trkpt lat="47.17221" lon="6.07585">
        <ele>482.8</ele>
        <time>2022-08-10T09:33:11Z</time>
      </trkpt>
      <trkpt lat="47.17218" lon="6.0758">
        <ele>482.9</ele>
        <time>2022-08-10T09:33:12Z</time>
      </trkpt>
      <trkpt lat="47.17217" lon="6.07575">
        <ele>483.5</ele>
        <time>2022-08-10T09:33:13Z</time>
      </trkpt>
      <trkpt lat="47.17216" lon="6.0757">
        <ele>483.6</ele>
        <time>2022-08-10T09:33:14Z</time>
      </trkpt>
      <trkpt lat="47.17216" lon="6.07567">
        <ele>484.1</ele>
        <time>2022-08-10T09:33:15Z</time>
      </trkpt>
      <trkpt lat="47.17217" lon="6.07563">
        <ele>484.4</ele>
        <time>2022-08-10T09:33:16Z</time>
      </trkpt>
      <trkpt lat="47.17218" lon="6.07561">
        <ele>484.5</ele>
        <time>2022-08-10T09:33:17Z</time>
      </trkpt>
      <trkpt lat="47.1722" lon="6.07558">
        <ele>484.8</ele>
        <time>2022-08-10T09:33:18Z</time>
      </trkpt>
      <trkpt lat="47.17221" lon="6.07555">
        <ele>484.8</ele>
        <time>2022-08-10T09:33:19Z</time>
      </trkpt>
      <trkpt lat="47.17223" lon="6.07551">
        <ele>484.6</ele>
        <time>2022-08-10T09:33:20Z</time>
      </trkpt>
      <trkpt lat="47.17225" lon="6.07548">
        <ele>484.4</ele>
        <time>2022-08-10T09:33:21Z</time>
      </trkpt>
      <trkpt lat="47.17226" lon="6.07544">
        <ele>483.8</ele>
        <time>2022-08-10T09:33:22Z</time>
      </trkpt>
      <trkpt lat="47.17228" lon="6.07541">
        <ele>483.7</ele>
        <time>2022-08-10T09:33:23Z</time>
      </trkpt>
      <trkpt lat="47.17231" lon="6.07537">
        <ele>483.3</ele>
        <time>2022-08-10T09:33:24Z</time>
      </trkpt>
      <trkpt lat="47.17233" lon="6.07533">
        <ele>483.1</ele>
        <time>2022-08-10T09:33:25Z</time>
      </trkpt>
      <trkpt lat="47.17235" lon="6.07529">
        <ele>483.2</ele>
        <time>2022-08-10T09:33:26Z</time>
      </trkpt>
      <trkpt lat="47.17237" lon="6.07524">
        <ele>483.1</ele>
        <time>2022-08-10T09:33:27Z</time>
      </trkpt>
      <trkpt lat="47.1724" lon="6.07518">
        <ele>482.4</ele>
        <time>2022-08-10T09:33:28Z</time>
      </trkpt>
      <trkpt lat="47.17242" lon="6.07513">
        <ele>482.4</ele>
        <time>2022-08-10T09:33:29Z</time>
      </trkpt>
      <trkpt lat="47.17245" lon="6.07507">
        <ele>482.4</ele>
        <time>2022-08-10T09:33:30Z</time>
      </trkpt>
      <trkpt lat="47.17247" lon="6.07501">
        <ele>482.1</ele>
        <time>2022-08-10T09:33:31Z</time>
      </trkpt>
      <trkpt lat="47.17249" lon="6.07496">
        <ele>481.9</ele>
        <time>2022-08-10T09:33:32Z</time>
      </trkpt>
      <trkpt lat="47.17251" lon="6.07491">
        <ele>482.2</ele>
        <time>2022-08-10T09:33:33Z</time>
      </trkpt>
      <trkpt lat="47.17253" lon="6.07487">
        <ele>482.1</ele>
        <time>2022-08-10T09:33:34Z</time>
      </trkpt>
      <trkpt lat="47.17254" lon="6.07482">
        <ele>482</ele>
        <time>2022-08-10T09:33:35Z</time>
      </trkpt>
      <trkpt lat="47.17255" lon="6.07477">
        <ele>482.1</ele>
        <time>2022-08-10T09:33:36Z</time>
      </trkpt>
      <trkpt lat="47.17256" lon="6.07472">
        <ele>481.7</ele>
        <time>2022-08-10T09:33:37Z</time>
      </trkpt>
      <trkpt lat="47.17256" lon="6.07468">
        <ele>481.7</ele>
        <time>2022-08-10T09:33:38Z</time>
      </trkpt>
      <trkpt lat="47.17258" lon="6.07464">
        <ele>481.9</ele>
        <time>2022-08-10T09:33:39Z</time>
      </trkpt>
      <trkpt lat="47.17259" lon="6.07459">
        <ele>481.3</ele>
        <time>2022-08-10T09:33:40Z</time>
      </trkpt>
      <trkpt lat="47.17261" lon="6.07455">
        <ele>481.5</ele>
        <time>2022-08-10T09:33:41Z</time>
      </trkpt>
      <trkpt lat="47.17262" lon="6.07451">
        <ele>481.9</ele>
        <time>2022-08-10T09:33:42Z</time>
      </trkpt>
      <trkpt lat="47.17264" lon="6.07447">
        <ele>482.6</ele>
        <time>2022-08-10T09:33:43Z</time>
      </trkpt>
      <trkpt lat="47.17265" lon="6.07443">
        <ele>483.4</ele>
        <time>2022-08-10T09:33:44Z</time>
      </trkpt>
      <trkpt lat="47.17267" lon="6.07439">
        <ele>484</ele>
        <time>2022-08-10T09:33:45Z</time>
      </trkpt>
      <trkpt lat="47.17269" lon="6.07432">
        <ele>484.8</ele>
        <time>2022-08-10T09:33:46Z</time>
      </trkpt>
      <trkpt lat="47.17271" lon="6.07427">
        <ele>485</ele>
        <time>2022-08-10T09:33:47Z</time>
      </trkpt>
      <trkpt lat="47.17272" lon="6.07421">
        <ele>484.9</ele>
        <time>2022-08-10T09:33:48Z</time>
      </trkpt>
      <trkpt lat="47.17274" lon="6.07417">
        <ele>484.7</ele>
        <time>2022-08-10T09:33:49Z</time>
      </trkpt>
      <trkpt lat="47.17274" lon="6.07414">
        <ele>484.4</ele>
        <time>2022-08-10T09:33:50Z</time>
      </trkpt>
      <trkpt lat="47.17276" lon="6.0741">
        <ele>483.9</ele>
        <time>2022-08-10T09:33:51Z</time>
      </trkpt>
      <trkpt lat="47.17277" lon="6.07406">
        <ele>483.6</ele>
        <time>2022-08-10T09:33:52Z</time>
      </trkpt>
      <trkpt lat="47.17278" lon="6.07403">
        <ele>483.5</ele>
        <time>2022-08-10T09:33:53Z</time>
      </trkpt>
      <trkpt lat="47.17278" lon="6.07399">
        <ele>483.4</ele>
        <time>2022-08-10T09:33:54Z</time>
      </trkpt>
      <trkpt lat="47.17279" lon="6.07395">
        <ele>483.1</ele>
        <time>2022-08-10T09:33:55Z</time>
      </trkpt>
      <trkpt lat="47.17281" lon="6.0739">
        <ele>482.5</ele>
        <time>2022-08-10T09:33:56Z</time>
      </trkpt>
      <trkpt lat="47.17282" lon="6.07385">
        <ele>481.6</ele>
        <time>2022-08-10T09:33:57Z</time>
      </trkpt>
      <trkpt lat="47.17283" lon="6.0738">
        <ele>481.6</ele>
        <time>2022-08-10T09:33:58Z</time>
      </trkpt>
      <trkpt lat="47.17284" lon="6.07375">
        <ele>481.2</ele>
        <time>2022-08-10T09:33:59Z</time>
      </trkpt>
      <trkpt lat="47.17285" lon="6.0737">
        <ele>481.5</ele>
        <time>2022-08-10T09:34:00Z</time>
      </trkpt>
      <trkpt lat="47.17286" lon="6.07366">
        <ele>481.5</ele>
        <time>2022-08-10T09:34:01Z</time>
      </trkpt>
      <trkpt lat="47.17286" lon="6.07362">
        <ele>482.1</ele>
        <time>2022-08-10T09:34:02Z</time>
      </trkpt>
      <trkpt lat="47.17287" lon="6.07358">
        <ele>482.6</ele>
        <time>2022-08-10T09:34:03Z</time>
      </trkpt>
      <trkpt lat="47.17287" lon="6.07354">
        <ele>482.6</ele>
        <time>2022-08-10T09:34:04Z</time>
      </trkpt>
      <trkpt lat="47.17288" lon="6.0735">
        <ele>482.9</ele>
        <time>2022-08-10T09:34:05Z</time>
      </trkpt>
      <trkpt lat="47.17289" lon="6.07345">
        <ele>484.6</ele>
        <time>2022-08-10T09:34:06Z</time>
      </trkpt>
      <trkpt lat="47.1729" lon="6.07341">
        <ele>485.3</ele>
        <time>2022-08-10T09:34:07Z</time>
      </trkpt>
      <trkpt lat="47.17291" lon="6.07336">
        <ele>485.4</ele>
        <time>2022-08-10T09:34:08Z</time>
      </trkpt>
      <trkpt lat="47.17291" lon="6.07333">
        <ele>485.5</ele>
        <time>2022-08-10T09:34:09Z</time>
      </trkpt>
      <trkpt lat="47.17292" lon="6.07329">
        <ele>486.3</ele>
        <time>2022-08-10T09:34:10Z</time>
      </trkpt>
      <trkpt lat="47.17293" lon="6.07325">
        <ele>487.7</ele>
        <time>2022-08-10T09:34:11Z</time>
      </trkpt>
      <trkpt lat="47.17294" lon="6.07322">
        <ele>488.9</ele>
        <time>2022-08-10T09:34:12Z</time>
      </trkpt>
      <trkpt lat="47.17294" lon="6.0732">
        <ele>489.5</ele>
        <time>2022-08-10T09:34:13Z</time>
      </trkpt>
      <trkpt lat="47.17296" lon="6.07317">
        <ele>490.2</ele>
        <time>2022-08-10T09:34:14Z</time>
      </trkpt>
      <trkpt lat="47.17297" lon="6.07314">
        <ele>491</ele>
        <time>2022-08-10T09:34:15Z</time>
      </trkpt>
      <trkpt lat="47.17299" lon="6.07311">
        <ele>491.9</ele>
        <time>2022-08-10T09:34:16Z</time>
      </trkpt>
      <trkpt lat="47.17301" lon="6.07309">
        <ele>492.8</ele>
        <time>2022-08-10T09:34:17Z</time>
      </trkpt>
      <trkpt lat="47.17303" lon="6.07307">
        <ele>493.6</ele>
        <time>2022-08-10T09:34:18Z</time>
      </trkpt>
      <trkpt lat="47.17304" lon="6.07304">
        <ele>494.3</ele>
        <time>2022-08-10T09:34:19Z</time>
      </trkpt>
      <trkpt lat="47.17306" lon="6.07301">
        <ele>494.8</ele>
        <time>2022-08-10T09:34:20Z</time>
      </trkpt>
      <trkpt lat="47.17308" lon="6.07298">
        <ele>495.3</ele>
        <time>2022-08-10T09:34:21Z</time>
      </trkpt>
      <trkpt lat="47.1731" lon="6.07295">
        <ele>495.9</ele>
        <time>2022-08-10T09:34:22Z</time>
      </trkpt>
      <trkpt lat="47.17312" lon="6.07291">
        <ele>496.3</ele>
        <time>2022-08-10T09:34:23Z</time>
      </trkpt>
      <trkpt lat="47.17314" lon="6.07287">
        <ele>496.6</ele>
        <time>2022-08-10T09:34:24Z</time>
      </trkpt>
      <trkpt lat="47.17317" lon="6.07283">
        <ele>497.1</ele>
        <time>2022-08-10T09:34:25Z</time>
      </trkpt>
      <trkpt lat="47.17319" lon="6.0728">
        <ele>497.5</ele>
        <time>2022-08-10T09:34:26Z</time>
      </trkpt>
      <trkpt lat="47.17322" lon="6.07278">
        <ele>498</ele>
        <time>2022-08-10T09:34:27Z</time>
      </trkpt>
      <trkpt lat="47.17324" lon="6.07275">
        <ele>498.6</ele>
        <time>2022-08-10T09:34:28Z</time>
      </trkpt>
      <trkpt lat="47.17327" lon="6.07273">
        <ele>498.8</ele>
        <time>2022-08-10T09:34:29Z</time>
      </trkpt>
      <trkpt lat="47.17328" lon="6.07272">
        <ele>499.2</ele>
        <time>2022-08-10T09:34:30Z</time>
      </trkpt>
      <trkpt lat="47.1733" lon="6.0727">
        <ele>499.6</ele>
        <time>2022-08-10T09:34:31Z</time>
      </trkpt>
      <trkpt lat="47.17331" lon="6.07269">
        <ele>499.7</ele>
        <time>2022-08-10T09:34:32Z</time>
      </trkpt>
      <trkpt lat="47.17331" lon="6.07267">
        <ele>499.9</ele>
        <time>2022-08-10T09:34:33Z</time>
      </trkpt>
      <trkpt lat="47.17331" lon="6.07267">
        <ele>499.9</ele>
        <time>2022-08-10T09:34:34Z</time>
      </trkpt>
      <trkpt lat="47.17331" lon="6.07267">
        <ele>499.9</ele>
        <time>2022-08-10T09:34:35Z</time>
      </trkpt>
      <trkpt lat="47.17331" lon="6.07267">
        <ele>499.9</ele>
        <time>2022-08-10T09:34:36Z</time>
      </trkpt>
      <trkpt lat="47.17331" lon="6.07267">
        <ele>499.9</ele>
        <time>2022-08-10T09:34:37Z</time>
      </trkpt>
      <trkpt lat="47.17331" lon="6.07267">
        <ele>499.9</ele>
        <time>2022-08-10T09:34:38Z</time>
      </trkpt>
      <trkpt lat="47.17331" lon="6.07267">
        <ele>499.9</ele>
        <time>2022-08-10T09:34:39Z</time>
      </trkpt>
      <trkpt lat="47.17331" lon="6.07267">
        <ele>499.9</ele>
        <time>2022-08-10T09:34:40Z</time>
      </trkpt>
      <trkpt lat="47.17331" lon="6.07267">
        <ele>499.9</ele>
        <time>2022-08-10T09:34:41Z</time>
      </trkpt>
      <trkpt lat="47.17331" lon="6.07267">
        <ele>499.9</ele>
        <time>2022-08-10T09:34:42Z</time>
      </trkpt>
      <trkpt lat="47.17341" lon="6.07258">
        <ele>499.7</ele>
        <time>2022-08-10T09:34:43Z</time>
      </trkpt>
      <trkpt lat="47.17343" lon="6.07257">
        <ele>499.4</ele>
        <time>2022-08-10T09:34:44Z</time>
      </trkpt>
      <trkpt lat="47.17345" lon="6.07254">
        <ele>499.3</ele>
        <time>2022-08-10T09:34:45Z</time>
      </trkpt>
      <trkpt lat="47.17348" lon="6.07252">
        <ele>499.6</ele>
        <time>2022-08-10T09:34:46Z</time>
      </trkpt>
      <trkpt lat="47.1735" lon="6.0725">
        <ele>499.6</ele>
        <time>2022-08-10T09:34:47Z</time>
      </trkpt>
      <trkpt lat="47.17353" lon="6.07249">
        <ele>499.7</ele>
        <time>2022-08-10T09:34:48Z</time>
      </trkpt>
      <trkpt lat="47.17355" lon="6.07247">
        <ele>499.5</ele>
        <time>2022-08-10T09:34:49Z</time>
      </trkpt>
      <trkpt lat="47.17358" lon="6.07245">
        <ele>499.3</ele>
        <time>2022-08-10T09:34:50Z</time>
      </trkpt>
      <trkpt lat="47.1736" lon="6.07244">
        <ele>499.1</ele>
        <time>2022-08-10T09:34:51Z</time>
      </trkpt>
      <trkpt lat="47.17362" lon="6.07242">
        <ele>498.6</ele>
        <time>2022-08-10T09:34:52Z</time>
      </trkpt>
      <trkpt lat="47.17365" lon="6.0724">
        <ele>498.5</ele>
        <time>2022-08-10T09:34:53Z</time>
      </trkpt>
      <trkpt lat="47.17368" lon="6.07238">
        <ele>498.2</ele>
        <time>2022-08-10T09:34:54Z</time>
      </trkpt>
      <trkpt lat="47.17371" lon="6.07237">
        <ele>497.9</ele>
        <time>2022-08-10T09:34:55Z</time>
      </trkpt>
      <trkpt lat="47.17373" lon="6.07235">
        <ele>497.8</ele>
        <time>2022-08-10T09:34:56Z</time>
      </trkpt>
      <trkpt lat="47.17376" lon="6.07233">
        <ele>497.4</ele>
        <time>2022-08-10T09:34:57Z</time>
      </trkpt>
      <trkpt lat="47.17378" lon="6.07231">
        <ele>496.9</ele>
        <time>2022-08-10T09:34:58Z</time>
      </trkpt>
      <trkpt lat="47.17381" lon="6.07229">
        <ele>496.8</ele>
        <time>2022-08-10T09:34:59Z</time>
      </trkpt>
      <trkpt lat="47.17383" lon="6.07227">
        <ele>496.5</ele>
        <time>2022-08-10T09:35:00Z</time>
      </trkpt>
      <trkpt lat="47.17386" lon="6.07226">
        <ele>496.3</ele>
        <time>2022-08-10T09:35:01Z</time>
      </trkpt>
      <trkpt lat="47.17389" lon="6.07224">
        <ele>496.5</ele>
        <time>2022-08-10T09:35:02Z</time>
      </trkpt>
      <trkpt lat="47.17392" lon="6.07223">
        <ele>496.7</ele>
        <time>2022-08-10T09:35:03Z</time>
      </trkpt>
      <trkpt lat="47.17394" lon="6.07221">
        <ele>496.5</ele>
        <time>2022-08-10T09:35:04Z</time>
      </trkpt>
      <trkpt lat="47.17396" lon="6.07219">
        <ele>495.8</ele>
        <time>2022-08-10T09:35:05Z</time>
      </trkpt>
      <trkpt lat="47.17397" lon="6.07217">
        <ele>495.7</ele>
        <time>2022-08-10T09:35:06Z</time>
      </trkpt>
      <trkpt lat="47.17398" lon="6.07216">
        <ele>495.6</ele>
        <time>2022-08-10T09:35:07Z</time>
      </trkpt>
      <trkpt lat="47.17399" lon="6.07215">
        <ele>495.2</ele>
        <time>2022-08-10T09:35:08Z</time>
      </trkpt>
      <trkpt lat="47.17399" lon="6.07214">
        <ele>495.4</ele>
        <time>2022-08-10T09:35:09Z</time>
      </trkpt>
      <trkpt lat="47.17399" lon="6.07213">
        <ele>495.7</ele>
        <time>2022-08-10T09:35:10Z</time>
      </trkpt>
      <trkpt lat="47.174" lon="6.07211">
        <ele>495.9</ele>
        <time>2022-08-10T09:35:11Z</time>
      </trkpt>
      <trkpt lat="47.174" lon="6.07209">
        <ele>495.9</ele>
        <time>2022-08-10T09:35:12Z</time>
      </trkpt>
      <trkpt lat="47.174" lon="6.07206">
        <ele>495.5</ele>
        <time>2022-08-10T09:35:13Z</time>
      </trkpt>
      <trkpt lat="47.17399" lon="6.07204">
        <ele>495.3</ele>
        <time>2022-08-10T09:35:14Z</time>
      </trkpt>
      <trkpt lat="47.17399" lon="6.07201">
        <ele>494.8</ele>
        <time>2022-08-10T09:35:15Z</time>
      </trkpt>
      <trkpt lat="47.17399" lon="6.07197">
        <ele>494.2</ele>
        <time>2022-08-10T09:35:16Z</time>
      </trkpt>
      <trkpt lat="47.17398" lon="6.07194">
        <ele>493.8</ele>
        <time>2022-08-10T09:35:17Z</time>
      </trkpt>
      <trkpt lat="47.17398" lon="6.0719">
        <ele>493.7</ele>
        <time>2022-08-10T09:35:18Z</time>
      </trkpt>
      <trkpt lat="47.17397" lon="6.07187">
        <ele>493.2</ele>
        <time>2022-08-10T09:35:19Z</time>
      </trkpt>
      <trkpt lat="47.17396" lon="6.07184">
        <ele>492.3</ele>
        <time>2022-08-10T09:35:20Z</time>
      </trkpt>
      <trkpt lat="47.17395" lon="6.07181">
        <ele>492.1</ele>
        <time>2022-08-10T09:35:21Z</time>
      </trkpt>
      <trkpt lat="47.17395" lon="6.07179">
        <ele>491.9</ele>
        <time>2022-08-10T09:35:22Z</time>
      </trkpt>
      <trkpt lat="47.17396" lon="6.07176">
        <ele>490.5</ele>
        <time>2022-08-10T09:35:23Z</time>
      </trkpt>
      <trkpt lat="47.17396" lon="6.07174">
        <ele>490.2</ele>
        <time>2022-08-10T09:35:24Z</time>
      </trkpt>
      <trkpt lat="47.17396" lon="6.07172">
        <ele>489.8</ele>
        <time>2022-08-10T09:35:25Z</time>
      </trkpt>
      <trkpt lat="47.17395" lon="6.0717">
        <ele>489.7</ele>
        <time>2022-08-10T09:35:26Z</time>
      </trkpt>
      <trkpt lat="47.17394" lon="6.07168">
        <ele>489.6</ele>
        <time>2022-08-10T09:35:27Z</time>
      </trkpt>
      <trkpt lat="47.17392" lon="6.07164">
        <ele>489.8</ele>
        <time>2022-08-10T09:35:28Z</time>
      </trkpt>
      <trkpt lat="47.17391" lon="6.07162">
        <ele>490.2</ele>
        <time>2022-08-10T09:35:29Z</time>
      </trkpt>
      <trkpt lat="47.1739" lon="6.07159">
        <ele>490.5</ele>
        <time>2022-08-10T09:35:30Z</time>
      </trkpt>
      <trkpt lat="47.1739" lon="6.07154">
        <ele>490.6</ele>
        <time>2022-08-10T09:35:31Z</time>
      </trkpt>
      <trkpt lat="47.17389" lon="6.07147">
        <ele>491.2</ele>
        <time>2022-08-10T09:35:32Z</time>
      </trkpt>
      <trkpt lat="47.17389" lon="6.07143">
        <ele>491</ele>
        <time>2022-08-10T09:35:33Z</time>
      </trkpt>
      <trkpt lat="47.17387" lon="6.07139">
        <ele>491.3</ele>
        <time>2022-08-10T09:35:34Z</time>
      </trkpt>
      <trkpt lat="47.17385" lon="6.07134">
        <ele>491.8</ele>
        <time>2022-08-10T09:35:35Z</time>
      </trkpt>
      <trkpt lat="47.17383" lon="6.0713">
        <ele>492.2</ele>
        <time>2022-08-10T09:35:36Z</time>
      </trkpt>
      <trkpt lat="47.1738" lon="6.07125">
        <ele>492.2</ele>
        <time>2022-08-10T09:35:37Z</time>
      </trkpt>
      <trkpt lat="47.17378" lon="6.0712">
        <ele>492.4</ele>
        <time>2022-08-10T09:35:38Z</time>
      </trkpt>
      <trkpt lat="47.17376" lon="6.07114">
        <ele>492.3</ele>
        <time>2022-08-10T09:35:39Z</time>
      </trkpt>
      <trkpt lat="47.17374" lon="6.07109">
        <ele>492.8</ele>
        <time>2022-08-10T09:35:40Z</time>
      </trkpt>
      <trkpt lat="47.17372" lon="6.07104">
        <ele>493.6</ele>
        <time>2022-08-10T09:35:41Z</time>
      </trkpt>
      <trkpt lat="47.1737" lon="6.07098">
        <ele>494.5</ele>
        <time>2022-08-10T09:35:42Z</time>
      </trkpt>
      <trkpt lat="47.17369" lon="6.07092">
        <ele>494.6</ele>
        <time>2022-08-10T09:35:43Z</time>
      </trkpt>
      <trkpt lat="47.17367" lon="6.07087">
        <ele>494.9</ele>
        <time>2022-08-10T09:35:44Z</time>
      </trkpt>
      <trkpt lat="47.17366" lon="6.07081">
        <ele>495.1</ele>
        <time>2022-08-10T09:35:45Z</time>
      </trkpt>
      <trkpt lat="47.17366" lon="6.07076">
        <ele>495</ele>
        <time>2022-08-10T09:35:46Z</time>
      </trkpt>
      <trkpt lat="47.17366" lon="6.07072">
        <ele>494.6</ele>
        <time>2022-08-10T09:35:47Z</time>
      </trkpt>
      <trkpt lat="47.17365" lon="6.07068">
        <ele>494.2</ele>
        <time>2022-08-10T09:35:48Z</time>
      </trkpt>
      <trkpt lat="47.17364" lon="6.07066">
        <ele>493.8</ele>
        <time>2022-08-10T09:35:49Z</time>
      </trkpt>
      <trkpt lat="47.17363" lon="6.07064">
        <ele>493.9</ele>
        <time>2022-08-10T09:35:50Z</time>
      </trkpt>
      <trkpt lat="47.17362" lon="6.07062">
        <ele>493.9</ele>
        <time>2022-08-10T09:35:51Z</time>
      </trkpt>
      <trkpt lat="47.17361" lon="6.0706">
        <ele>494.3</ele>
        <time>2022-08-10T09:35:52Z</time>
      </trkpt>
      <trkpt lat="47.1736" lon="6.07054">
        <ele>495.2</ele>
        <time>2022-08-10T09:35:53Z</time>
      </trkpt>
      <trkpt lat="47.17359" lon="6.07052">
        <ele>495.3</ele>
        <time>2022-08-10T09:35:54Z</time>
      </trkpt>
      <trkpt lat="47.17358" lon="6.0705">
        <ele>495.4</ele>
        <time>2022-08-10T09:35:55Z</time>
      </trkpt>
      <trkpt lat="47.17356" lon="6.07046">
        <ele>495.3</ele>
        <time>2022-08-10T09:35:56Z</time>
      </trkpt>
      <trkpt lat="47.17355" lon="6.07042">
        <ele>494.4</ele>
        <time>2022-08-10T09:35:57Z</time>
      </trkpt>
      <trkpt lat="47.17354" lon="6.0704">
        <ele>494.8</ele>
        <time>2022-08-10T09:35:58Z</time>
      </trkpt>
      <trkpt lat="47.17353" lon="6.07038">
        <ele>495.2</ele>
        <time>2022-08-10T09:35:59Z</time>
      </trkpt>
      <trkpt lat="47.17351" lon="6.07036">
        <ele>495.6</ele>
        <time>2022-08-10T09:36:00Z</time>
      </trkpt>
      <trkpt lat="47.17349" lon="6.07034">
        <ele>495.9</ele>
        <time>2022-08-10T09:36:01Z</time>
      </trkpt>
      <trkpt lat="47.17347" lon="6.07032">
        <ele>496.4</ele>
        <time>2022-08-10T09:36:02Z</time>
      </trkpt>
      <trkpt lat="47.17345" lon="6.07029">
        <ele>496.7</ele>
        <time>2022-08-10T09:36:03Z</time>
      </trkpt>
      <trkpt lat="47.17342" lon="6.07024">
        <ele>497</ele>
        <time>2022-08-10T09:36:04Z</time>
      </trkpt>
      <trkpt lat="47.17341" lon="6.07019">
        <ele>497.2</ele>
        <time>2022-08-10T09:36:05Z</time>
      </trkpt>
      <trkpt lat="47.1734" lon="6.07012">
        <ele>497.5</ele>
        <time>2022-08-10T09:36:06Z</time>
      </trkpt>
      <trkpt lat="47.17338" lon="6.07006">
        <ele>497.2</ele>
        <time>2022-08-10T09:36:07Z</time>
      </trkpt>
      <trkpt lat="47.17337" lon="6.07001">
        <ele>497.6</ele>
        <time>2022-08-10T09:36:08Z</time>
      </trkpt>
      <trkpt lat="47.17335" lon="6.06995">
        <ele>497.9</ele>
        <time>2022-08-10T09:36:09Z</time>
      </trkpt>
      <trkpt lat="47.17334" lon="6.0699">
        <ele>497.4</ele>
        <time>2022-08-10T09:36:10Z</time>
      </trkpt>
      <trkpt lat="47.17332" lon="6.06984">
        <ele>497.8</ele>
        <time>2022-08-10T09:36:11Z</time>
      </trkpt>
      <trkpt lat="47.1733" lon="6.06979">
        <ele>497.8</ele>
        <time>2022-08-10T09:36:12Z</time>
      </trkpt>
      <trkpt lat="47.17329" lon="6.06974">
        <ele>497.8</ele>
        <time>2022-08-10T09:36:13Z</time>
      </trkpt>
      <trkpt lat="47.17327" lon="6.0697">
        <ele>497.9</ele>
        <time>2022-08-10T09:36:14Z</time>
      </trkpt>
      <trkpt lat="47.17325" lon="6.06965">
        <ele>498.3</ele>
        <time>2022-08-10T09:36:15Z</time>
      </trkpt>
      <trkpt lat="47.17323" lon="6.06961">
        <ele>498.8</ele>
        <time>2022-08-10T09:36:16Z</time>
      </trkpt>
      <trkpt lat="47.17321" lon="6.06958">
        <ele>499.5</ele>
        <time>2022-08-10T09:36:17Z</time>
      </trkpt>
      <trkpt lat="47.17319" lon="6.06954">
        <ele>499.9</ele>
        <time>2022-08-10T09:36:18Z</time>
      </trkpt>
      <trkpt lat="47.17317" lon="6.06947">
        <ele>499.8</ele>
        <time>2022-08-10T09:36:19Z</time>
      </trkpt>
      <trkpt lat="47.17315" lon="6.0694">
        <ele>499.4</ele>
        <time>2022-08-10T09:36:20Z</time>
      </trkpt>
      <trkpt lat="47.17315" lon="6.0693">
        <ele>500.4</ele>
        <time>2022-08-10T09:36:21Z</time>
      </trkpt>
      <trkpt lat="47.17314" lon="6.06921">
        <ele>499.8</ele>
        <time>2022-08-10T09:36:22Z</time>
      </trkpt>
      <trkpt lat="47.17313" lon="6.06914">
        <ele>499</ele>
        <time>2022-08-10T09:36:23Z</time>
      </trkpt>
      <trkpt lat="47.17311" lon="6.06907">
        <ele>498.7</ele>
        <time>2022-08-10T09:36:24Z</time>
      </trkpt>
      <trkpt lat="47.17308" lon="6.069">
        <ele>498.2</ele>
        <time>2022-08-10T09:36:25Z</time>
      </trkpt>
      <trkpt lat="47.17305" lon="6.06892">
        <ele>497.9</ele>
        <time>2022-08-10T09:36:26Z</time>
      </trkpt>
      <trkpt lat="47.17302" lon="6.06884">
        <ele>497.6</ele>
        <time>2022-08-10T09:36:27Z</time>
      </trkpt>
      <trkpt lat="47.173" lon="6.06876">
        <ele>497.4</ele>
        <time>2022-08-10T09:36:28Z</time>
      </trkpt>
      <trkpt lat="47.17298" lon="6.06866">
        <ele>497.9</ele>
        <time>2022-08-10T09:36:29Z</time>
      </trkpt>
      <trkpt lat="47.17295" lon="6.06859">
        <ele>497.3</ele>
        <time>2022-08-10T09:36:30Z</time>
      </trkpt>
      <trkpt lat="47.17293" lon="6.06851">
        <ele>495.9</ele>
        <time>2022-08-10T09:36:31Z</time>
      </trkpt>
      <trkpt lat="47.17291" lon="6.06843">
        <ele>494</ele>
        <time>2022-08-10T09:36:32Z</time>
      </trkpt>
      <trkpt lat="47.17288" lon="6.06836">
        <ele>492.6</ele>
        <time>2022-08-10T09:36:33Z</time>
      </trkpt>
      <trkpt lat="47.17285" lon="6.06831">
        <ele>492</ele>
        <time>2022-08-10T09:36:34Z</time>
      </trkpt>
      <trkpt lat="47.17282" lon="6.06827">
        <ele>491.3</ele>
        <time>2022-08-10T09:36:35Z</time>
      </trkpt>
      <trkpt lat="47.17278" lon="6.06822">
        <ele>490.5</ele>
        <time>2022-08-10T09:36:36Z</time>
      </trkpt>
      <trkpt lat="47.17275" lon="6.06816">
        <ele>489.7</ele>
        <time>2022-08-10T09:36:37Z</time>
      </trkpt>
      <trkpt lat="47.1727" lon="6.06811">
        <ele>488.9</ele>
        <time>2022-08-10T09:36:38Z</time>
      </trkpt>
      <trkpt lat="47.17266" lon="6.06805">
        <ele>487.9</ele>
        <time>2022-08-10T09:36:39Z</time>
      </trkpt>
      <trkpt lat="47.17263" lon="6.06799">
        <ele>486.1</ele>
        <time>2022-08-10T09:36:40Z</time>
      </trkpt>
      <trkpt lat="47.17259" lon="6.06795">
        <ele>485.7</ele>
        <time>2022-08-10T09:36:41Z</time>
      </trkpt>
      <trkpt lat="47.17255" lon="6.06792">
        <ele>485.2</ele>
        <time>2022-08-10T09:36:42Z</time>
      </trkpt>
      <trkpt lat="47.17252" lon="6.0679">
        <ele>484.8</ele>
        <time>2022-08-10T09:36:43Z</time>
      </trkpt>
      <trkpt lat="47.17249" lon="6.06787">
        <ele>484.2</ele>
        <time>2022-08-10T09:36:44Z</time>
      </trkpt>
      <trkpt lat="47.17246" lon="6.06784">
        <ele>483.6</ele>
        <time>2022-08-10T09:36:45Z</time>
      </trkpt>
      <trkpt lat="47.17243" lon="6.06781">
        <ele>483.4</ele>
        <time>2022-08-10T09:36:46Z</time>
      </trkpt>
      <trkpt lat="47.1724" lon="6.06777">
        <ele>483.4</ele>
        <time>2022-08-10T09:36:47Z</time>
      </trkpt>
      <trkpt lat="47.17236" lon="6.06772">
        <ele>483.3</ele>
        <time>2022-08-10T09:36:48Z</time>
      </trkpt>
      <trkpt lat="47.17232" lon="6.06767">
        <ele>482.7</ele>
        <time>2022-08-10T09:36:49Z</time>
      </trkpt>
      <trkpt lat="47.17228" lon="6.06761">
        <ele>481.7</ele>
        <time>2022-08-10T09:36:50Z</time>
      </trkpt>
      <trkpt lat="47.17224" lon="6.06757">
        <ele>481.1</ele>
        <time>2022-08-10T09:36:51Z</time>
      </trkpt>
      <trkpt lat="47.1722" lon="6.06752">
        <ele>480.6</ele>
        <time>2022-08-10T09:36:52Z</time>
      </trkpt>
      <trkpt lat="47.17216" lon="6.06744">
        <ele>479.5</ele>
        <time>2022-08-10T09:36:53Z</time>
      </trkpt>
      <trkpt lat="47.17213" lon="6.06737">
        <ele>478.3</ele>
        <time>2022-08-10T09:36:54Z</time>
      </trkpt>
      <trkpt lat="47.1721" lon="6.06729">
        <ele>477.4</ele>
        <time>2022-08-10T09:36:55Z</time>
      </trkpt>
      <trkpt lat="47.17207" lon="6.06723">
        <ele>476.4</ele>
        <time>2022-08-10T09:36:56Z</time>
      </trkpt>
      <trkpt lat="47.17204" lon="6.06716">
        <ele>475.9</ele>
        <time>2022-08-10T09:36:57Z</time>
      </trkpt>
      <trkpt lat="47.17201" lon="6.0671">
        <ele>475.3</ele>
        <time>2022-08-10T09:36:58Z</time>
      </trkpt>
      <trkpt lat="47.17198" lon="6.06704">
        <ele>474.6</ele>
        <time>2022-08-10T09:36:59Z</time>
      </trkpt>
      <trkpt lat="47.17195" lon="6.06697">
        <ele>473.9</ele>
        <time>2022-08-10T09:37:00Z</time>
      </trkpt>
      <trkpt lat="47.17193" lon="6.06689">
        <ele>473.2</ele>
        <time>2022-08-10T09:37:01Z</time>
      </trkpt>
      <trkpt lat="47.17191" lon="6.0668">
        <ele>472.5</ele>
        <time>2022-08-10T09:37:02Z</time>
      </trkpt>
      <trkpt lat="47.1719" lon="6.06673">
        <ele>471.5</ele>
        <time>2022-08-10T09:37:03Z</time>
      </trkpt>
      <trkpt lat="47.17189" lon="6.06667">
        <ele>471.3</ele>
        <time>2022-08-10T09:37:04Z</time>
      </trkpt>
      <trkpt lat="47.17188" lon="6.06661">
        <ele>471.2</ele>
        <time>2022-08-10T09:37:05Z</time>
      </trkpt>
      <trkpt lat="47.17187" lon="6.06654">
        <ele>471.2</ele>
        <time>2022-08-10T09:37:06Z</time>
      </trkpt>
      <trkpt lat="47.17185" lon="6.06647">
        <ele>472.2</ele>
        <time>2022-08-10T09:37:07Z</time>
      </trkpt>
      <trkpt lat="47.17183" lon="6.06642">
        <ele>472.7</ele>
        <time>2022-08-10T09:37:08Z</time>
      </trkpt>
      <trkpt lat="47.17181" lon="6.06638">
        <ele>473.3</ele>
        <time>2022-08-10T09:37:09Z</time>
      </trkpt>
      <trkpt lat="47.17178" lon="6.06635">
        <ele>473.5</ele>
        <time>2022-08-10T09:37:10Z</time>
      </trkpt>
      <trkpt lat="47.17176" lon="6.06632">
        <ele>473.4</ele>
        <time>2022-08-10T09:37:11Z</time>
      </trkpt>
      <trkpt lat="47.17174" lon="6.06629">
        <ele>473.3</ele>
        <time>2022-08-10T09:37:12Z</time>
      </trkpt>
      <trkpt lat="47.17171" lon="6.06628">
        <ele>473.6</ele>
        <time>2022-08-10T09:37:13Z</time>
      </trkpt>
      <trkpt lat="47.17169" lon="6.06626">
        <ele>473.5</ele>
        <time>2022-08-10T09:37:14Z</time>
      </trkpt>
      <trkpt lat="47.17167" lon="6.06625">
        <ele>473.6</ele>
        <time>2022-08-10T09:37:15Z</time>
      </trkpt>
      <trkpt lat="47.17164" lon="6.06625">
        <ele>473.7</ele>
        <time>2022-08-10T09:37:16Z</time>
      </trkpt>
      <trkpt lat="47.17161" lon="6.06625">
        <ele>474</ele>
        <time>2022-08-10T09:37:17Z</time>
      </trkpt>
      <trkpt lat="47.17159" lon="6.06624">
        <ele>474.4</ele>
        <time>2022-08-10T09:37:18Z</time>
      </trkpt>
      <trkpt lat="47.17155" lon="6.06625">
        <ele>474.4</ele>
        <time>2022-08-10T09:37:19Z</time>
      </trkpt>
      <trkpt lat="47.17152" lon="6.06625">
        <ele>474.4</ele>
        <time>2022-08-10T09:37:20Z</time>
      </trkpt>
      <trkpt lat="47.17148" lon="6.06626">
        <ele>474.9</ele>
        <time>2022-08-10T09:37:21Z</time>
      </trkpt>
      <trkpt lat="47.17144" lon="6.06626">
        <ele>475.2</ele>
        <time>2022-08-10T09:37:22Z</time>
      </trkpt>
      <trkpt lat="47.17141" lon="6.06626">
        <ele>475.7</ele>
        <time>2022-08-10T09:37:23Z</time>
      </trkpt>
      <trkpt lat="47.17137" lon="6.06627">
        <ele>476.6</ele>
        <time>2022-08-10T09:37:24Z</time>
      </trkpt>
      <trkpt lat="47.17134" lon="6.06626">
        <ele>477.7</ele>
        <time>2022-08-10T09:37:25Z</time>
      </trkpt>
      <trkpt lat="47.17131" lon="6.06626">
        <ele>478.5</ele>
        <time>2022-08-10T09:37:26Z</time>
      </trkpt>
      <trkpt lat="47.17128" lon="6.06626">
        <ele>478.8</ele>
        <time>2022-08-10T09:37:27Z</time>
      </trkpt>
      <trkpt lat="47.17125" lon="6.06627">
        <ele>479.4</ele>
        <time>2022-08-10T09:37:28Z</time>
      </trkpt>
      <trkpt lat="47.17122" lon="6.06628">
        <ele>479.8</ele>
        <time>2022-08-10T09:37:29Z</time>
      </trkpt>
      <trkpt lat="47.17119" lon="6.06629">
        <ele>480.5</ele>
        <time>2022-08-10T09:37:30Z</time>
      </trkpt>
      <trkpt lat="47.17116" lon="6.06631">
        <ele>481.1</ele>
        <time>2022-08-10T09:37:31Z</time>
      </trkpt>
      <trkpt lat="47.17112" lon="6.06632">
        <ele>481.3</ele>
        <time>2022-08-10T09:37:32Z</time>
      </trkpt>
      <trkpt lat="47.1711" lon="6.06633">
        <ele>482.1</ele>
        <time>2022-08-10T09:37:33Z</time>
      </trkpt>
      <trkpt lat="47.17106" lon="6.06634">
        <ele>483.2</ele>
        <time>2022-08-10T09:37:34Z</time>
      </trkpt>
      <trkpt lat="47.17104" lon="6.06635">
        <ele>484.4</ele>
        <time>2022-08-10T09:37:35Z</time>
      </trkpt>
      <trkpt lat="47.17101" lon="6.06635">
        <ele>485.9</ele>
        <time>2022-08-10T09:37:36Z</time>
      </trkpt>
      <trkpt lat="47.17096" lon="6.06635">
        <ele>486</ele>
        <time>2022-08-10T09:37:37Z</time>
      </trkpt>
      <trkpt lat="47.17092" lon="6.06635">
        <ele>487.1</ele>
        <time>2022-08-10T09:37:38Z</time>
      </trkpt>
      <trkpt lat="47.17088" lon="6.06634">
        <ele>488</ele>
        <time>2022-08-10T09:37:39Z</time>
      </trkpt>
      <trkpt lat="47.17084" lon="6.06634">
        <ele>488.9</ele>
        <time>2022-08-10T09:37:40Z</time>
      </trkpt>
      <trkpt lat="47.1708" lon="6.06634">
        <ele>489.4</ele>
        <time>2022-08-10T09:37:41Z</time>
      </trkpt>
      <trkpt lat="47.17076" lon="6.06634">
        <ele>490.5</ele>
        <time>2022-08-10T09:37:42Z</time>
      </trkpt>
      <trkpt lat="47.17072" lon="6.06634">
        <ele>491.5</ele>
        <time>2022-08-10T09:37:43Z</time>
      </trkpt>
      <trkpt lat="47.17069" lon="6.06634">
        <ele>492.3</ele>
        <time>2022-08-10T09:37:44Z</time>
      </trkpt>
      <trkpt lat="47.17065" lon="6.06634">
        <ele>493.2</ele>
        <time>2022-08-10T09:37:45Z</time>
      </trkpt>
      <trkpt lat="47.17062" lon="6.06634">
        <ele>493.9</ele>
        <time>2022-08-10T09:37:46Z</time>
      </trkpt>
      <trkpt lat="47.17058" lon="6.06633">
        <ele>494.3</ele>
        <time>2022-08-10T09:37:47Z</time>
      </trkpt>
      <trkpt lat="47.17054" lon="6.06633">
        <ele>494.3</ele>
        <time>2022-08-10T09:37:48Z</time>
      </trkpt>
      <trkpt lat="47.1705" lon="6.06632">
        <ele>494.6</ele>
        <time>2022-08-10T09:37:49Z</time>
      </trkpt>
      <trkpt lat="47.17046" lon="6.0663">
        <ele>495</ele>
        <time>2022-08-10T09:37:50Z</time>
      </trkpt>
      <trkpt lat="47.17042" lon="6.06629">
        <ele>495.2</ele>
        <time>2022-08-10T09:37:51Z</time>
      </trkpt>
      <trkpt lat="47.17037" lon="6.06628">
        <ele>495.9</ele>
        <time>2022-08-10T09:37:52Z</time>
      </trkpt>
      <trkpt lat="47.17032" lon="6.06626">
        <ele>496.9</ele>
        <time>2022-08-10T09:37:53Z</time>
      </trkpt>
      <trkpt lat="47.17027" lon="6.06624">
        <ele>497.4</ele>
        <time>2022-08-10T09:37:54Z</time>
      </trkpt>
      <trkpt lat="47.17021" lon="6.06621">
        <ele>497.9</ele>
        <time>2022-08-10T09:37:55Z</time>
      </trkpt>
      <trkpt lat="47.17016" lon="6.06618">
        <ele>498.2</ele>
        <time>2022-08-10T09:37:56Z</time>
      </trkpt>
      <trkpt lat="47.17011" lon="6.06616">
        <ele>498.6</ele>
        <time>2022-08-10T09:37:57Z</time>
      </trkpt>
      <trkpt lat="47.17006" lon="6.06613">
        <ele>498.1</ele>
        <time>2022-08-10T09:37:58Z</time>
      </trkpt>
      <trkpt lat="47.16998" lon="6.06608">
        <ele>496.3</ele>
        <time>2022-08-10T09:37:59Z</time>
      </trkpt>
      <trkpt lat="47.16993" lon="6.06606">
        <ele>496.3</ele>
        <time>2022-08-10T09:38:00Z</time>
      </trkpt>
      <trkpt lat="47.16987" lon="6.06603">
        <ele>496</ele>
        <time>2022-08-10T09:38:01Z</time>
      </trkpt>
      <trkpt lat="47.16983" lon="6.066">
        <ele>495</ele>
        <time>2022-08-10T09:38:02Z</time>
      </trkpt>
      <trkpt lat="47.16978" lon="6.06597">
        <ele>493.4</ele>
        <time>2022-08-10T09:38:03Z</time>
      </trkpt>
      <trkpt lat="47.16974" lon="6.06594">
        <ele>491.7</ele>
        <time>2022-08-10T09:38:04Z</time>
      </trkpt>
      <trkpt lat="47.1697" lon="6.06591">
        <ele>490.2</ele>
        <time>2022-08-10T09:38:05Z</time>
      </trkpt>
      <trkpt lat="47.16966" lon="6.06586">
        <ele>488.1</ele>
        <time>2022-08-10T09:38:06Z</time>
      </trkpt>
      <trkpt lat="47.16962" lon="6.06581">
        <ele>485.9</ele>
        <time>2022-08-10T09:38:07Z</time>
      </trkpt>
      <trkpt lat="47.16959" lon="6.06576">
        <ele>484.7</ele>
        <time>2022-08-10T09:38:08Z</time>
      </trkpt>
      <trkpt lat="47.16956" lon="6.06572">
        <ele>483.7</ele>
        <time>2022-08-10T09:38:09Z</time>
      </trkpt>
      <trkpt lat="47.1695" lon="6.06566">
        <ele>481.1</ele>
        <time>2022-08-10T09:38:11Z</time>
      </trkpt>
      <trkpt lat="47.16947" lon="6.06563">
        <ele>480</ele>
        <time>2022-08-10T09:38:12Z</time>
      </trkpt>
      <trkpt lat="47.16944" lon="6.06559">
        <ele>478.7</ele>
        <time>2022-08-10T09:38:13Z</time>
      </trkpt>
      <trkpt lat="47.16941" lon="6.06555">
        <ele>477.9</ele>
        <time>2022-08-10T09:38:14Z</time>
      </trkpt>
      <trkpt lat="47.16937" lon="6.06552">
        <ele>476.2</ele>
        <time>2022-08-10T09:38:15Z</time>
      </trkpt>
      <trkpt lat="47.16934" lon="6.06548">
        <ele>474.8</ele>
        <time>2022-08-10T09:38:16Z</time>
      </trkpt>
      <trkpt lat="47.1693" lon="6.06546">
        <ele>473.7</ele>
        <time>2022-08-10T09:38:17Z</time>
      </trkpt>
      <trkpt lat="47.16927" lon="6.06542">
        <ele>472.9</ele>
        <time>2022-08-10T09:38:18Z</time>
      </trkpt>
      <trkpt lat="47.16923" lon="6.06539">
        <ele>471.9</ele>
        <time>2022-08-10T09:38:19Z</time>
      </trkpt>
      <trkpt lat="47.16919" lon="6.06536">
        <ele>470.9</ele>
        <time>2022-08-10T09:38:20Z</time>
      </trkpt>
      <trkpt lat="47.16915" lon="6.06532">
        <ele>470.2</ele>
        <time>2022-08-10T09:38:21Z</time>
      </trkpt>
      <trkpt lat="47.16911" lon="6.06529">
        <ele>469.3</ele>
        <time>2022-08-10T09:38:22Z</time>
      </trkpt>
      <trkpt lat="47.16906" lon="6.06525">
        <ele>467.8</ele>
        <time>2022-08-10T09:38:23Z</time>
      </trkpt>
      <trkpt lat="47.16902" lon="6.06521">
        <ele>466.5</ele>
        <time>2022-08-10T09:38:24Z</time>
      </trkpt>
      <trkpt lat="47.16897" lon="6.06516">
        <ele>465.1</ele>
        <time>2022-08-10T09:38:25Z</time>
      </trkpt>
      <trkpt lat="47.16893" lon="6.06511">
        <ele>464.1</ele>
        <time>2022-08-10T09:38:26Z</time>
      </trkpt>
      <trkpt lat="47.16889" lon="6.06505">
        <ele>463.4</ele>
        <time>2022-08-10T09:38:27Z</time>
      </trkpt>
      <trkpt lat="47.16885" lon="6.06499">
        <ele>463.6</ele>
        <time>2022-08-10T09:38:28Z</time>
      </trkpt>
      <trkpt lat="47.16882" lon="6.06493">
        <ele>463.5</ele>
        <time>2022-08-10T09:38:29Z</time>
      </trkpt>
      <trkpt lat="47.16879" lon="6.06487">
        <ele>463.6</ele>
        <time>2022-08-10T09:38:30Z</time>
      </trkpt>
      <trkpt lat="47.16877" lon="6.0648">
        <ele>463.8</ele>
        <time>2022-08-10T09:38:31Z</time>
      </trkpt>
      <trkpt lat="47.16875" lon="6.06473">
        <ele>464.1</ele>
        <time>2022-08-10T09:38:32Z</time>
      </trkpt>
      <trkpt lat="47.16873" lon="6.06465">
        <ele>464.3</ele>
        <time>2022-08-10T09:38:33Z</time>
      </trkpt>
      <trkpt lat="47.16871" lon="6.06457">
        <ele>464.3</ele>
        <time>2022-08-10T09:38:34Z</time>
      </trkpt>
      <trkpt lat="47.16869" lon="6.06449">
        <ele>464.3</ele>
        <time>2022-08-10T09:38:35Z</time>
      </trkpt>
      <trkpt lat="47.16866" lon="6.06441">
        <ele>464.5</ele>
        <time>2022-08-10T09:38:36Z</time>
      </trkpt>
      <trkpt lat="47.16863" lon="6.06432">
        <ele>464.8</ele>
        <time>2022-08-10T09:38:37Z</time>
      </trkpt>
      <trkpt lat="47.1686" lon="6.06423">
        <ele>464.7</ele>
        <time>2022-08-10T09:38:38Z</time>
      </trkpt>
      <trkpt lat="47.16856" lon="6.06415">
        <ele>464.7</ele>
        <time>2022-08-10T09:38:39Z</time>
      </trkpt>
      <trkpt lat="47.16853" lon="6.06406">
        <ele>463.9</ele>
        <time>2022-08-10T09:38:40Z</time>
      </trkpt>
      <trkpt lat="47.16851" lon="6.06395">
        <ele>463.8</ele>
        <time>2022-08-10T09:38:41Z</time>
      </trkpt>
      <trkpt lat="47.16849" lon="6.06383">
        <ele>463.5</ele>
        <time>2022-08-10T09:38:42Z</time>
      </trkpt>
      <trkpt lat="47.16847" lon="6.06372">
        <ele>463.4</ele>
        <time>2022-08-10T09:38:43Z</time>
      </trkpt>
      <trkpt lat="47.16845" lon="6.06362">
        <ele>463.6</ele>
        <time>2022-08-10T09:38:44Z</time>
      </trkpt>
      <trkpt lat="47.16844" lon="6.06351">
        <ele>463</ele>
        <time>2022-08-10T09:38:45Z</time>
      </trkpt>
      <trkpt lat="47.16843" lon="6.0634">
        <ele>462.8</ele>
        <time>2022-08-10T09:38:46Z</time>
      </trkpt>
      <trkpt lat="47.16842" lon="6.06331">
        <ele>462.6</ele>
        <time>2022-08-10T09:38:47Z</time>
      </trkpt>
      <trkpt lat="47.1684" lon="6.06321">
        <ele>461.9</ele>
        <time>2022-08-10T09:38:48Z</time>
      </trkpt>
      <trkpt lat="47.16839" lon="6.06312">
        <ele>461</ele>
        <time>2022-08-10T09:38:49Z</time>
      </trkpt>
      <trkpt lat="47.16837" lon="6.06303">
        <ele>460.2</ele>
        <time>2022-08-10T09:38:50Z</time>
      </trkpt>
      <trkpt lat="47.16835" lon="6.06293">
        <ele>459.1</ele>
        <time>2022-08-10T09:38:51Z</time>
      </trkpt>
      <trkpt lat="47.16834" lon="6.06283">
        <ele>458.3</ele>
        <time>2022-08-10T09:38:52Z</time>
      </trkpt>
      <trkpt lat="47.16832" lon="6.06273">
        <ele>457.1</ele>
        <time>2022-08-10T09:38:53Z</time>
      </trkpt>
      <trkpt lat="47.1683" lon="6.06264">
        <ele>456.1</ele>
        <time>2022-08-10T09:38:54Z</time>
      </trkpt>
      <trkpt lat="47.16829" lon="6.06255">
        <ele>455.5</ele>
        <time>2022-08-10T09:38:55Z</time>
      </trkpt>
      <trkpt lat="47.16827" lon="6.06246">
        <ele>454.7</ele>
        <time>2022-08-10T09:38:56Z</time>
      </trkpt>
      <trkpt lat="47.16825" lon="6.06238">
        <ele>454.3</ele>
        <time>2022-08-10T09:38:57Z</time>
      </trkpt>
      <trkpt lat="47.16821" lon="6.06231">
        <ele>453.9</ele>
        <time>2022-08-10T09:38:58Z</time>
      </trkpt>
      <trkpt lat="47.16818" lon="6.06224">
        <ele>454.2</ele>
        <time>2022-08-10T09:38:59Z</time>
      </trkpt>
      <trkpt lat="47.16816" lon="6.06218">
        <ele>454.3</ele>
        <time>2022-08-10T09:39:00Z</time>
      </trkpt>
      <trkpt lat="47.16814" lon="6.06211">
        <ele>454.6</ele>
        <time>2022-08-10T09:39:01Z</time>
      </trkpt>
      <trkpt lat="47.16812" lon="6.06205">
        <ele>454.3</ele>
        <time>2022-08-10T09:39:02Z</time>
      </trkpt>
      <trkpt lat="47.1681" lon="6.06198">
        <ele>454.2</ele>
        <time>2022-08-10T09:39:03Z</time>
      </trkpt>
      <trkpt lat="47.16809" lon="6.06193">
        <ele>453.5</ele>
        <time>2022-08-10T09:39:04Z</time>
      </trkpt>
      <trkpt lat="47.16808" lon="6.06187">
        <ele>453.4</ele>
        <time>2022-08-10T09:39:05Z</time>
      </trkpt>
      <trkpt lat="47.16807" lon="6.06181">
        <ele>452.6</ele>
        <time>2022-08-10T09:39:06Z</time>
      </trkpt>
      <trkpt lat="47.16806" lon="6.06176">
        <ele>452.2</ele>
        <time>2022-08-10T09:39:07Z</time>
      </trkpt>
      <trkpt lat="47.16806" lon="6.06172">
        <ele>452.1</ele>
        <time>2022-08-10T09:39:08Z</time>
      </trkpt>
      <trkpt lat="47.16805" lon="6.06168">
        <ele>452.5</ele>
        <time>2022-08-10T09:39:09Z</time>
      </trkpt>
      <trkpt lat="47.16804" lon="6.06165">
        <ele>453.5</ele>
        <time>2022-08-10T09:39:10Z</time>
      </trkpt>
      <trkpt lat="47.16803" lon="6.06161">
        <ele>453.7</ele>
        <time>2022-08-10T09:39:11Z</time>
      </trkpt>
      <trkpt lat="47.16803" lon="6.06157">
        <ele>454.1</ele>
        <time>2022-08-10T09:39:12Z</time>
      </trkpt>
      <trkpt lat="47.16801" lon="6.06153">
        <ele>454.6</ele>
        <time>2022-08-10T09:39:13Z</time>
      </trkpt>
      <trkpt lat="47.168" lon="6.06148">
        <ele>455.3</ele>
        <time>2022-08-10T09:39:14Z</time>
      </trkpt>
      <trkpt lat="47.16799" lon="6.06143">
        <ele>455.9</ele>
        <time>2022-08-10T09:39:15Z</time>
      </trkpt>
      <trkpt lat="47.16798" lon="6.06139">
        <ele>456.7</ele>
        <time>2022-08-10T09:39:16Z</time>
      </trkpt>
      <trkpt lat="47.16797" lon="6.06135">
        <ele>457.5</ele>
        <time>2022-08-10T09:39:17Z</time>
      </trkpt>
      <trkpt lat="47.16795" lon="6.06131">
        <ele>458.6</ele>
        <time>2022-08-10T09:39:18Z</time>
      </trkpt>
      <trkpt lat="47.16793" lon="6.06127">
        <ele>460.1</ele>
        <time>2022-08-10T09:39:19Z</time>
      </trkpt>
      <trkpt lat="47.16792" lon="6.06122">
        <ele>461</ele>
        <time>2022-08-10T09:39:20Z</time>
      </trkpt>
      <trkpt lat="47.16791" lon="6.06116">
        <ele>461.7</ele>
        <time>2022-08-10T09:39:21Z</time>
      </trkpt>
      <trkpt lat="47.16789" lon="6.0611">
        <ele>462.2</ele>
        <time>2022-08-10T09:39:22Z</time>
      </trkpt>
      <trkpt lat="47.16787" lon="6.06105">
        <ele>462.7</ele>
        <time>2022-08-10T09:39:23Z</time>
      </trkpt>
      <trkpt lat="47.16785" lon="6.06099">
        <ele>463.3</ele>
        <time>2022-08-10T09:39:24Z</time>
      </trkpt>
      <trkpt lat="47.16783" lon="6.06092">
        <ele>463.8</ele>
        <time>2022-08-10T09:39:25Z</time>
      </trkpt>
      <trkpt lat="47.16781" lon="6.06085">
        <ele>465.1</ele>
        <time>2022-08-10T09:39:26Z</time>
      </trkpt>
      <trkpt lat="47.16778" lon="6.06079">
        <ele>466</ele>
        <time>2022-08-10T09:39:27Z</time>
      </trkpt>
      <trkpt lat="47.16776" lon="6.06071">
        <ele>466.3</ele>
        <time>2022-08-10T09:39:28Z</time>
      </trkpt>
      <trkpt lat="47.16773" lon="6.06065">
        <ele>466.5</ele>
        <time>2022-08-10T09:39:29Z</time>
      </trkpt>
      <trkpt lat="47.1677" lon="6.06058">
        <ele>466.1</ele>
        <time>2022-08-10T09:39:30Z</time>
      </trkpt>
      <trkpt lat="47.16767" lon="6.06052">
        <ele>465.9</ele>
        <time>2022-08-10T09:39:31Z</time>
      </trkpt>
      <trkpt lat="47.16764" lon="6.06046">
        <ele>465.7</ele>
        <time>2022-08-10T09:39:32Z</time>
      </trkpt>
      <trkpt lat="47.1676" lon="6.0604">
        <ele>465.6</ele>
        <time>2022-08-10T09:39:33Z</time>
      </trkpt>
      <trkpt lat="47.16757" lon="6.06034">
        <ele>465.5</ele>
        <time>2022-08-10T09:39:34Z</time>
      </trkpt>
      <trkpt lat="47.16754" lon="6.06027">
        <ele>465.2</ele>
        <time>2022-08-10T09:39:35Z</time>
      </trkpt>
      <trkpt lat="47.1675" lon="6.0602">
        <ele>465.1</ele>
        <time>2022-08-10T09:39:36Z</time>
      </trkpt>
      <trkpt lat="47.16746" lon="6.06013">
        <ele>465.2</ele>
        <time>2022-08-10T09:39:37Z</time>
      </trkpt>
      <trkpt lat="47.16742" lon="6.06004">
        <ele>465.5</ele>
        <time>2022-08-10T09:39:38Z</time>
      </trkpt>
      <trkpt lat="47.1674" lon="6.05996">
        <ele>466.1</ele>
        <time>2022-08-10T09:39:39Z</time>
      </trkpt>
      <trkpt lat="47.16737" lon="6.05987">
        <ele>466.8</ele>
        <time>2022-08-10T09:39:40Z</time>
      </trkpt>
      <trkpt lat="47.16735" lon="6.05979">
        <ele>467.5</ele>
        <time>2022-08-10T09:39:41Z</time>
      </trkpt>
      <trkpt lat="47.16734" lon="6.05967">
        <ele>467.3</ele>
        <time>2022-08-10T09:39:42Z</time>
      </trkpt>
      <trkpt lat="47.16731" lon="6.05958">
        <ele>467.3</ele>
        <time>2022-08-10T09:39:43Z</time>
      </trkpt>
      <trkpt lat="47.16729" lon="6.05951">
        <ele>467.7</ele>
        <time>2022-08-10T09:39:44Z</time>
      </trkpt>
      <trkpt lat="47.16726" lon="6.05942">
        <ele>467.2</ele>
        <time>2022-08-10T09:39:45Z</time>
      </trkpt>
      <trkpt lat="47.16723" lon="6.05936">
        <ele>467.4</ele>
        <time>2022-08-10T09:39:46Z</time>
      </trkpt>
      <trkpt lat="47.16721" lon="6.05927">
        <ele>467.3</ele>
        <time>2022-08-10T09:39:47Z</time>
      </trkpt>
      <trkpt lat="47.16718" lon="6.05919">
        <ele>467.2</ele>
        <time>2022-08-10T09:39:48Z</time>
      </trkpt>
      <trkpt lat="47.16715" lon="6.05912">
        <ele>467.4</ele>
        <time>2022-08-10T09:39:49Z</time>
      </trkpt>
      <trkpt lat="47.16713" lon="6.05905">
        <ele>466.8</ele>
        <time>2022-08-10T09:39:50Z</time>
      </trkpt>
      <trkpt lat="47.16709" lon="6.05899">
        <ele>466.4</ele>
        <time>2022-08-10T09:39:51Z</time>
      </trkpt>
      <trkpt lat="47.16706" lon="6.05892">
        <ele>466.2</ele>
        <time>2022-08-10T09:39:52Z</time>
      </trkpt>
      <trkpt lat="47.16702" lon="6.05887">
        <ele>466</ele>
        <time>2022-08-10T09:39:53Z</time>
      </trkpt>
      <trkpt lat="47.16699" lon="6.05881">
        <ele>465.9</ele>
        <time>2022-08-10T09:39:54Z</time>
      </trkpt>
      <trkpt lat="47.16695" lon="6.05876">
        <ele>465.4</ele>
        <time>2022-08-10T09:39:55Z</time>
      </trkpt>
      <trkpt lat="47.16692" lon="6.05869">
        <ele>465.4</ele>
        <time>2022-08-10T09:39:56Z</time>
      </trkpt>
      <trkpt lat="47.16689" lon="6.05864">
        <ele>465.3</ele>
        <time>2022-08-10T09:39:57Z</time>
      </trkpt>
      <trkpt lat="47.16687" lon="6.05859">
        <ele>465.4</ele>
        <time>2022-08-10T09:39:58Z</time>
      </trkpt>
      <trkpt lat="47.16683" lon="6.05854">
        <ele>465.4</ele>
        <time>2022-08-10T09:39:59Z</time>
      </trkpt>
      <trkpt lat="47.1668" lon="6.05846">
        <ele>464.4</ele>
        <time>2022-08-10T09:40:00Z</time>
      </trkpt>
      <trkpt lat="47.16676" lon="6.05839">
        <ele>463.6</ele>
        <time>2022-08-10T09:40:01Z</time>
      </trkpt>
      <trkpt lat="47.16673" lon="6.05835">
        <ele>463.5</ele>
        <time>2022-08-10T09:40:02Z</time>
      </trkpt>
      <trkpt lat="47.16671" lon="6.05829">
        <ele>462.5</ele>
        <time>2022-08-10T09:40:03Z</time>
      </trkpt>
      <trkpt lat="47.16668" lon="6.05824">
        <ele>461.5</ele>
        <time>2022-08-10T09:40:04Z</time>
      </trkpt>
      <trkpt lat="47.16665" lon="6.0582">
        <ele>460.5</ele>
        <time>2022-08-10T09:40:05Z</time>
      </trkpt>
      <trkpt lat="47.16661" lon="6.05816">
        <ele>459.4</ele>
        <time>2022-08-10T09:40:06Z</time>
      </trkpt>
      <trkpt lat="47.16658" lon="6.05813">
        <ele>458.1</ele>
        <time>2022-08-10T09:40:07Z</time>
      </trkpt>
      <trkpt lat="47.16654" lon="6.0581">
        <ele>457.3</ele>
        <time>2022-08-10T09:40:08Z</time>
      </trkpt>
      <trkpt lat="47.1665" lon="6.05807">
        <ele>457.2</ele>
        <time>2022-08-10T09:40:09Z</time>
      </trkpt>
      <trkpt lat="47.16647" lon="6.05804">
        <ele>456.7</ele>
        <time>2022-08-10T09:40:10Z</time>
      </trkpt>
      <trkpt lat="47.16645" lon="6.058">
        <ele>456.9</ele>
        <time>2022-08-10T09:40:11Z</time>
      </trkpt>
      <trkpt lat="47.16642" lon="6.05797">
        <ele>456.5</ele>
        <time>2022-08-10T09:40:12Z</time>
      </trkpt>
      <trkpt lat="47.1664" lon="6.05793">
        <ele>457.3</ele>
        <time>2022-08-10T09:40:13Z</time>
      </trkpt>
      <trkpt lat="47.16637" lon="6.0579">
        <ele>457.5</ele>
        <time>2022-08-10T09:40:14Z</time>
      </trkpt>
      <trkpt lat="47.16636" lon="6.05788">
        <ele>457.6</ele>
        <time>2022-08-10T09:40:15Z</time>
      </trkpt>
      <trkpt lat="47.16635" lon="6.05786">
        <ele>457.7</ele>
        <time>2022-08-10T09:40:16Z</time>
      </trkpt>
      <trkpt lat="47.16634" lon="6.05785">
        <ele>457.4</ele>
        <time>2022-08-10T09:40:17Z</time>
      </trkpt>
      <trkpt lat="47.16632" lon="6.05784">
        <ele>457</ele>
        <time>2022-08-10T09:40:18Z</time>
      </trkpt>
      <trkpt lat="47.16631" lon="6.05783">
        <ele>457.1</ele>
        <time>2022-08-10T09:40:19Z</time>
      </trkpt>
      <trkpt lat="47.16628" lon="6.05783">
        <ele>457.2</ele>
        <time>2022-08-10T09:40:20Z</time>
      </trkpt>
      <trkpt lat="47.16628" lon="6.0578">
        <ele>456</ele>
        <time>2022-08-10T09:40:21Z</time>
      </trkpt>
      <trkpt lat="47.16631" lon="6.05776">
        <ele>454.5</ele>
        <time>2022-08-10T09:40:22Z</time>
      </trkpt>
      <trkpt lat="47.16629" lon="6.05775">
        <ele>455.1</ele>
        <time>2022-08-10T09:40:23Z</time>
      </trkpt>
      <trkpt lat="47.16627" lon="6.05775">
        <ele>455.7</ele>
        <time>2022-08-10T09:40:24Z</time>
      </trkpt>
      <trkpt lat="47.16626" lon="6.05775">
        <ele>455.9</ele>
        <time>2022-08-10T09:40:25Z</time>
      </trkpt>
      <trkpt lat="47.16626" lon="6.05774">
        <ele>456.4</ele>
        <time>2022-08-10T09:40:26Z</time>
      </trkpt>
      <trkpt lat="47.16624" lon="6.05774">
        <ele>456.8</ele>
        <time>2022-08-10T09:40:27Z</time>
      </trkpt>
      <trkpt lat="47.16623" lon="6.05774">
        <ele>457.7</ele>
        <time>2022-08-10T09:40:28Z</time>
      </trkpt>
      <trkpt lat="47.16621" lon="6.05775">
        <ele>458.8</ele>
        <time>2022-08-10T09:40:29Z</time>
      </trkpt>
      <trkpt lat="47.16619" lon="6.05776">
        <ele>459.7</ele>
        <time>2022-08-10T09:40:30Z</time>
      </trkpt>
      <trkpt lat="47.16616" lon="6.05777">
        <ele>460.7</ele>
        <time>2022-08-10T09:40:31Z</time>
      </trkpt>
      <trkpt lat="47.16612" lon="6.05778">
        <ele>461.8</ele>
        <time>2022-08-10T09:40:32Z</time>
      </trkpt>
      <trkpt lat="47.16608" lon="6.05779">
        <ele>462.2</ele>
        <time>2022-08-10T09:40:33Z</time>
      </trkpt>
      <trkpt lat="47.16606" lon="6.05781">
        <ele>462.9</ele>
        <time>2022-08-10T09:40:34Z</time>
      </trkpt>
      <trkpt lat="47.16603" lon="6.05783">
        <ele>464.2</ele>
        <time>2022-08-10T09:40:35Z</time>
      </trkpt>
      <trkpt lat="47.166" lon="6.05784">
        <ele>465</ele>
        <time>2022-08-10T09:40:36Z</time>
      </trkpt>
      <trkpt lat="47.16598" lon="6.05786">
        <ele>466.1</ele>
        <time>2022-08-10T09:40:37Z</time>
      </trkpt>
      <trkpt lat="47.16595" lon="6.05788">
        <ele>467.1</ele>
        <time>2022-08-10T09:40:38Z</time>
      </trkpt>
      <trkpt lat="47.16591" lon="6.0579">
        <ele>467.7</ele>
        <time>2022-08-10T09:40:39Z</time>
      </trkpt>
      <trkpt lat="47.16587" lon="6.05793">
        <ele>467.9</ele>
        <time>2022-08-10T09:40:40Z</time>
      </trkpt>
      <trkpt lat="47.16585" lon="6.05795">
        <ele>468.2</ele>
        <time>2022-08-10T09:40:41Z</time>
      </trkpt>
      <trkpt lat="47.16583" lon="6.05798">
        <ele>468.5</ele>
        <time>2022-08-10T09:40:42Z</time>
      </trkpt>
      <trkpt lat="47.1658" lon="6.05801">
        <ele>468.6</ele>
        <time>2022-08-10T09:40:43Z</time>
      </trkpt>
      <trkpt lat="47.16576" lon="6.05804">
        <ele>467.9</ele>
        <time>2022-08-10T09:40:44Z</time>
      </trkpt>
      <trkpt lat="47.16573" lon="6.05807">
        <ele>467.8</ele>
        <time>2022-08-10T09:40:45Z</time>
      </trkpt>
      <trkpt lat="47.1657" lon="6.05809">
        <ele>467.8</ele>
        <time>2022-08-10T09:40:46Z</time>
      </trkpt>
      <trkpt lat="47.16567" lon="6.05812">
        <ele>467.3</ele>
        <time>2022-08-10T09:40:47Z</time>
      </trkpt>
      <trkpt lat="47.16565" lon="6.05814">
        <ele>467.6</ele>
        <time>2022-08-10T09:40:48Z</time>
      </trkpt>
      <trkpt lat="47.16563" lon="6.05815">
        <ele>467.7</ele>
        <time>2022-08-10T09:40:49Z</time>
      </trkpt>
      <trkpt lat="47.16561" lon="6.05816">
        <ele>468.4</ele>
        <time>2022-08-10T09:40:50Z</time>
      </trkpt>
      <trkpt lat="47.1656" lon="6.05816">
        <ele>469.5</ele>
        <time>2022-08-10T09:40:51Z</time>
      </trkpt>
      <trkpt lat="47.16558" lon="6.05815">
        <ele>470.2</ele>
        <time>2022-08-10T09:40:52Z</time>
      </trkpt>
      <trkpt lat="47.16556" lon="6.05815">
        <ele>470.4</ele>
        <time>2022-08-10T09:40:53Z</time>
      </trkpt>
      <trkpt lat="47.16555" lon="6.05813">
        <ele>470.7</ele>
        <time>2022-08-10T09:40:54Z</time>
      </trkpt>
      <trkpt lat="47.16553" lon="6.05812">
        <ele>471.3</ele>
        <time>2022-08-10T09:40:55Z</time>
      </trkpt>
      <trkpt lat="47.16551" lon="6.0581">
        <ele>471.7</ele>
        <time>2022-08-10T09:40:56Z</time>
      </trkpt>
      <trkpt lat="47.16549" lon="6.05808">
        <ele>472.1</ele>
        <time>2022-08-10T09:40:57Z</time>
      </trkpt>
      <trkpt lat="47.16546" lon="6.05806">
        <ele>472.6</ele>
        <time>2022-08-10T09:40:58Z</time>
      </trkpt>
      <trkpt lat="47.16543" lon="6.05804">
        <ele>473.2</ele>
        <time>2022-08-10T09:40:59Z</time>
      </trkpt>
      <trkpt lat="47.16539" lon="6.058">
        <ele>473.8</ele>
        <time>2022-08-10T09:41:00Z</time>
      </trkpt>
      <trkpt lat="47.16536" lon="6.05796">
        <ele>474.7</ele>
        <time>2022-08-10T09:41:01Z</time>
      </trkpt>
      <trkpt lat="47.16534" lon="6.0579">
        <ele>475.3</ele>
        <time>2022-08-10T09:41:02Z</time>
      </trkpt>
      <trkpt lat="47.16533" lon="6.05784">
        <ele>476.2</ele>
        <time>2022-08-10T09:41:03Z</time>
      </trkpt>
      <trkpt lat="47.16531" lon="6.05778">
        <ele>477.2</ele>
        <time>2022-08-10T09:41:04Z</time>
      </trkpt>
      <trkpt lat="47.16529" lon="6.05771">
        <ele>478.1</ele>
        <time>2022-08-10T09:41:05Z</time>
      </trkpt>
      <trkpt lat="47.16527" lon="6.05765">
        <ele>479.5</ele>
        <time>2022-08-10T09:41:06Z</time>
      </trkpt>
      <trkpt lat="47.16526" lon="6.05759">
        <ele>480.6</ele>
        <time>2022-08-10T09:41:07Z</time>
      </trkpt>
      <trkpt lat="47.16525" lon="6.05753">
        <ele>481.1</ele>
        <time>2022-08-10T09:41:08Z</time>
      </trkpt>
      <trkpt lat="47.16523" lon="6.05748">
        <ele>481.4</ele>
        <time>2022-08-10T09:41:09Z</time>
      </trkpt>
      <trkpt lat="47.16522" lon="6.05742">
        <ele>481.6</ele>
        <time>2022-08-10T09:41:10Z</time>
      </trkpt>
      <trkpt lat="47.16521" lon="6.05738">
        <ele>481.9</ele>
        <time>2022-08-10T09:41:11Z</time>
      </trkpt>
      <trkpt lat="47.16521" lon="6.05734">
        <ele>482.2</ele>
        <time>2022-08-10T09:41:12Z</time>
      </trkpt>
      <trkpt lat="47.1652" lon="6.05731">
        <ele>482.4</ele>
        <time>2022-08-10T09:41:13Z</time>
      </trkpt>
      <trkpt lat="47.1652" lon="6.05728">
        <ele>482.5</ele>
        <time>2022-08-10T09:41:14Z</time>
      </trkpt>
      <trkpt lat="47.16519" lon="6.05724">
        <ele>482.4</ele>
        <time>2022-08-10T09:41:15Z</time>
      </trkpt>
      <trkpt lat="47.16518" lon="6.05721">
        <ele>482.4</ele>
        <time>2022-08-10T09:41:16Z</time>
      </trkpt>
      <trkpt lat="47.16517" lon="6.05717">
        <ele>482.2</ele>
        <time>2022-08-10T09:41:17Z</time>
      </trkpt>
      <trkpt lat="47.16516" lon="6.05713">
        <ele>482.4</ele>
        <time>2022-08-10T09:41:18Z</time>
      </trkpt>
      <trkpt lat="47.16515" lon="6.05708">
        <ele>482.6</ele>
        <time>2022-08-10T09:41:19Z</time>
      </trkpt>
      <trkpt lat="47.16514" lon="6.05704">
        <ele>482.8</ele>
        <time>2022-08-10T09:41:20Z</time>
      </trkpt>
      <trkpt lat="47.16513" lon="6.05699">
        <ele>482.3</ele>
        <time>2022-08-10T09:41:21Z</time>
      </trkpt>
      <trkpt lat="47.16512" lon="6.05694">
        <ele>482.2</ele>
        <time>2022-08-10T09:41:22Z</time>
      </trkpt>
      <trkpt lat="47.16511" lon="6.0569">
        <ele>481.6</ele>
        <time>2022-08-10T09:41:23Z</time>
      </trkpt>
      <trkpt lat="47.1651" lon="6.05685">
        <ele>480.7</ele>
        <time>2022-08-10T09:41:24Z</time>
      </trkpt>
      <trkpt lat="47.16509" lon="6.0568">
        <ele>479.8</ele>
        <time>2022-08-10T09:41:25Z</time>
      </trkpt>
      <trkpt lat="47.16508" lon="6.05674">
        <ele>479.2</ele>
        <time>2022-08-10T09:41:26Z</time>
      </trkpt>
      <trkpt lat="47.16507" lon="6.05669">
        <ele>478.2</ele>
        <time>2022-08-10T09:41:27Z</time>
      </trkpt>
      <trkpt lat="47.16506" lon="6.05664">
        <ele>477.7</ele>
        <time>2022-08-10T09:41:28Z</time>
      </trkpt>
      <trkpt lat="47.16506" lon="6.05658">
        <ele>476.9</ele>
        <time>2022-08-10T09:41:29Z</time>
      </trkpt>
      <trkpt lat="47.16505" lon="6.05652">
        <ele>476.1</ele>
        <time>2022-08-10T09:41:30Z</time>
      </trkpt>
      <trkpt lat="47.16504" lon="6.05647">
        <ele>475.8</ele>
        <time>2022-08-10T09:41:31Z</time>
      </trkpt>
      <trkpt lat="47.16503" lon="6.05642">
        <ele>474.7</ele>
        <time>2022-08-10T09:41:32Z</time>
      </trkpt>
      <trkpt lat="47.16502" lon="6.05637">
        <ele>474.2</ele>
        <time>2022-08-10T09:41:33Z</time>
      </trkpt>
      <trkpt lat="47.16499" lon="6.05628">
        <ele>472.9</ele>
        <time>2022-08-10T09:41:35Z</time>
      </trkpt>
      <trkpt lat="47.16498" lon="6.05625">
        <ele>472.2</ele>
        <time>2022-08-10T09:41:36Z</time>
      </trkpt>
      <trkpt lat="47.16497" lon="6.05623">
        <ele>471.4</ele>
        <time>2022-08-10T09:41:37Z</time>
      </trkpt>
      <trkpt lat="47.16497" lon="6.05621">
        <ele>470.6</ele>
        <time>2022-08-10T09:41:38Z</time>
      </trkpt>
      <trkpt lat="47.16496" lon="6.05618">
        <ele>470</ele>
        <time>2022-08-10T09:41:39Z</time>
      </trkpt>
      <trkpt lat="47.16495" lon="6.05615">
        <ele>469.5</ele>
        <time>2022-08-10T09:41:40Z</time>
      </trkpt>
      <trkpt lat="47.16495" lon="6.05611">
        <ele>469.1</ele>
        <time>2022-08-10T09:41:41Z</time>
      </trkpt>
      <trkpt lat="47.16494" lon="6.05607">
        <ele>468.6</ele>
        <time>2022-08-10T09:41:42Z</time>
      </trkpt>
      <trkpt lat="47.16493" lon="6.05603">
        <ele>468.6</ele>
        <time>2022-08-10T09:41:43Z</time>
      </trkpt>
      <trkpt lat="47.16493" lon="6.05598">
        <ele>467.9</ele>
        <time>2022-08-10T09:41:44Z</time>
      </trkpt>
      <trkpt lat="47.16492" lon="6.05593">
        <ele>467.5</ele>
        <time>2022-08-10T09:41:45Z</time>
      </trkpt>
      <trkpt lat="47.16492" lon="6.05589">
        <ele>467.9</ele>
        <time>2022-08-10T09:41:46Z</time>
      </trkpt>
      <trkpt lat="47.16491" lon="6.05586">
        <ele>468.1</ele>
        <time>2022-08-10T09:41:47Z</time>
      </trkpt>
      <trkpt lat="47.16491" lon="6.05581">
        <ele>467.6</ele>
        <time>2022-08-10T09:41:48Z</time>
      </trkpt>
      <trkpt lat="47.1649" lon="6.05577">
        <ele>468.1</ele>
        <time>2022-08-10T09:41:49Z</time>
      </trkpt>
      <trkpt lat="47.1649" lon="6.05573">
        <ele>468.4</ele>
        <time>2022-08-10T09:41:50Z</time>
      </trkpt>
      <trkpt lat="47.16489" lon="6.05569">
        <ele>468.7</ele>
        <time>2022-08-10T09:41:51Z</time>
      </trkpt>
      <trkpt lat="47.16489" lon="6.05564">
        <ele>468.5</ele>
        <time>2022-08-10T09:41:52Z</time>
      </trkpt>
      <trkpt lat="47.16489" lon="6.05558">
        <ele>468.6</ele>
        <time>2022-08-10T09:41:53Z</time>
      </trkpt>
      <trkpt lat="47.16488" lon="6.05553">
        <ele>468.4</ele>
        <time>2022-08-10T09:41:54Z</time>
      </trkpt>
      <trkpt lat="47.16488" lon="6.05547">
        <ele>468.2</ele>
        <time>2022-08-10T09:41:55Z</time>
      </trkpt>
      <trkpt lat="47.16488" lon="6.05543">
        <ele>467.8</ele>
        <time>2022-08-10T09:41:56Z</time>
      </trkpt>
      <trkpt lat="47.16488" lon="6.05538">
        <ele>468</ele>
        <time>2022-08-10T09:41:57Z</time>
      </trkpt>
      <trkpt lat="47.16488" lon="6.05535">
        <ele>468.5</ele>
        <time>2022-08-10T09:41:58Z</time>
      </trkpt>
      <trkpt lat="47.16488" lon="6.05531">
        <ele>468.4</ele>
        <time>2022-08-10T09:41:59Z</time>
      </trkpt>
      <trkpt lat="47.16488" lon="6.05525">
        <ele>468.4</ele>
        <time>2022-08-10T09:42:00Z</time>
      </trkpt>
      <trkpt lat="47.16489" lon="6.05518">
        <ele>468.1</ele>
        <time>2022-08-10T09:42:01Z</time>
      </trkpt>
      <trkpt lat="47.1649" lon="6.05511">
        <ele>468</ele>
        <time>2022-08-10T09:42:02Z</time>
      </trkpt>
      <trkpt lat="47.1649" lon="6.05505">
        <ele>467.5</ele>
        <time>2022-08-10T09:42:03Z</time>
      </trkpt>
      <trkpt lat="47.16491" lon="6.05501">
        <ele>467</ele>
        <time>2022-08-10T09:42:04Z</time>
      </trkpt>
      <trkpt lat="47.16491" lon="6.05495">
        <ele>465.6</ele>
        <time>2022-08-10T09:42:05Z</time>
      </trkpt>
      <trkpt lat="47.16491" lon="6.05489">
        <ele>464.6</ele>
        <time>2022-08-10T09:42:06Z</time>
      </trkpt>
      <trkpt lat="47.16492" lon="6.05483">
        <ele>464</ele>
        <time>2022-08-10T09:42:07Z</time>
      </trkpt>
      <trkpt lat="47.16492" lon="6.05477">
        <ele>463.7</ele>
        <time>2022-08-10T09:42:08Z</time>
      </trkpt>
      <trkpt lat="47.16493" lon="6.05472">
        <ele>464</ele>
        <time>2022-08-10T09:42:09Z</time>
      </trkpt>
      <trkpt lat="47.16493" lon="6.05468">
        <ele>464</ele>
        <time>2022-08-10T09:42:10Z</time>
      </trkpt>
      <trkpt lat="47.16493" lon="6.05463">
        <ele>463.7</ele>
        <time>2022-08-10T09:42:11Z</time>
      </trkpt>
      <trkpt lat="47.16494" lon="6.05457">
        <ele>463.7</ele>
        <time>2022-08-10T09:42:12Z</time>
      </trkpt>
      <trkpt lat="47.16494" lon="6.05452">
        <ele>463.3</ele>
        <time>2022-08-10T09:42:13Z</time>
      </trkpt>
      <trkpt lat="47.16495" lon="6.05447">
        <ele>463.3</ele>
        <time>2022-08-10T09:42:14Z</time>
      </trkpt>
      <trkpt lat="47.16495" lon="6.05442">
        <ele>463.3</ele>
        <time>2022-08-10T09:42:15Z</time>
      </trkpt>
      <trkpt lat="47.16495" lon="6.05437">
        <ele>463.6</ele>
        <time>2022-08-10T09:42:16Z</time>
      </trkpt>
      <trkpt lat="47.16495" lon="6.05433">
        <ele>463.6</ele>
        <time>2022-08-10T09:42:17Z</time>
      </trkpt>
      <trkpt lat="47.16496" lon="6.05428">
        <ele>464.9</ele>
        <time>2022-08-10T09:42:18Z</time>
      </trkpt>
      <trkpt lat="47.16497" lon="6.05422">
        <ele>465.2</ele>
        <time>2022-08-10T09:42:19Z</time>
      </trkpt>
      <trkpt lat="47.16498" lon="6.05417">
        <ele>465.6</ele>
        <time>2022-08-10T09:42:20Z</time>
      </trkpt>
      <trkpt lat="47.16498" lon="6.05412">
        <ele>466.4</ele>
        <time>2022-08-10T09:42:21Z</time>
      </trkpt>
      <trkpt lat="47.16499" lon="6.05407">
        <ele>466.8</ele>
        <time>2022-08-10T09:42:22Z</time>
      </trkpt>
      <trkpt lat="47.165" lon="6.05401">
        <ele>467.2</ele>
        <time>2022-08-10T09:42:23Z</time>
      </trkpt>
      <trkpt lat="47.16501" lon="6.05392">
        <ele>467.4</ele>
        <time>2022-08-10T09:42:24Z</time>
      </trkpt>
      <trkpt lat="47.16501" lon="6.05385">
        <ele>467.4</ele>
        <time>2022-08-10T09:42:25Z</time>
      </trkpt>
      <trkpt lat="47.165" lon="6.05378">
        <ele>467.5</ele>
        <time>2022-08-10T09:42:26Z</time>
      </trkpt>
      <trkpt lat="47.16499" lon="6.05371">
        <ele>467.4</ele>
        <time>2022-08-10T09:42:27Z</time>
      </trkpt>
      <trkpt lat="47.16499" lon="6.05363">
        <ele>467.6</ele>
        <time>2022-08-10T09:42:28Z</time>
      </trkpt>
      <trkpt lat="47.16498" lon="6.05355">
        <ele>467.8</ele>
        <time>2022-08-10T09:42:29Z</time>
      </trkpt>
      <trkpt lat="47.16497" lon="6.05345">
        <ele>467</ele>
        <time>2022-08-10T09:42:30Z</time>
      </trkpt>
      <trkpt lat="47.16498" lon="6.05336">
        <ele>466.3</ele>
        <time>2022-08-10T09:42:31Z</time>
      </trkpt>
      <trkpt lat="47.16498" lon="6.05327">
        <ele>466</ele>
        <time>2022-08-10T09:42:32Z</time>
      </trkpt>
      <trkpt lat="47.16499" lon="6.05319">
        <ele>465.9</ele>
        <time>2022-08-10T09:42:33Z</time>
      </trkpt>
      <trkpt lat="47.16499" lon="6.05311">
        <ele>465</ele>
        <time>2022-08-10T09:42:34Z</time>
      </trkpt>
      <trkpt lat="47.16498" lon="6.05302">
        <ele>463.5</ele>
        <time>2022-08-10T09:42:35Z</time>
      </trkpt>
      <trkpt lat="47.16496" lon="6.05294">
        <ele>463.4</ele>
        <time>2022-08-10T09:42:36Z</time>
      </trkpt>
      <trkpt lat="47.16495" lon="6.05287">
        <ele>462.5</ele>
        <time>2022-08-10T09:42:37Z</time>
      </trkpt>
      <trkpt lat="47.16494" lon="6.05279">
        <ele>461.8</ele>
        <time>2022-08-10T09:42:38Z</time>
      </trkpt>
      <trkpt lat="47.16494" lon="6.05272">
        <ele>461.1</ele>
        <time>2022-08-10T09:42:39Z</time>
      </trkpt>
      <trkpt lat="47.16494" lon="6.05265">
        <ele>459.8</ele>
        <time>2022-08-10T09:42:40Z</time>
      </trkpt>
      <trkpt lat="47.16493" lon="6.05258">
        <ele>458.5</ele>
        <time>2022-08-10T09:42:41Z</time>
      </trkpt>
      <trkpt lat="47.16493" lon="6.05252">
        <ele>458</ele>
        <time>2022-08-10T09:42:42Z</time>
      </trkpt>
      <trkpt lat="47.16493" lon="6.05244">
        <ele>457</ele>
        <time>2022-08-10T09:42:43Z</time>
      </trkpt>
      <trkpt lat="47.16494" lon="6.05236">
        <ele>455.8</ele>
        <time>2022-08-10T09:42:44Z</time>
      </trkpt>
      <trkpt lat="47.16493" lon="6.05228">
        <ele>454.4</ele>
        <time>2022-08-10T09:42:45Z</time>
      </trkpt>
      <trkpt lat="47.1649" lon="6.0522">
        <ele>452.7</ele>
        <time>2022-08-10T09:42:46Z</time>
      </trkpt>
      <trkpt lat="47.16487" lon="6.05214">
        <ele>451.7</ele>
        <time>2022-08-10T09:42:47Z</time>
      </trkpt>
      <trkpt lat="47.16484" lon="6.05207">
        <ele>450.9</ele>
        <time>2022-08-10T09:42:48Z</time>
      </trkpt>
      <trkpt lat="47.16481" lon="6.05201">
        <ele>450.3</ele>
        <time>2022-08-10T09:42:49Z</time>
      </trkpt>
      <trkpt lat="47.16478" lon="6.05193">
        <ele>450.2</ele>
        <time>2022-08-10T09:42:50Z</time>
      </trkpt>
      <trkpt lat="47.16475" lon="6.05184">
        <ele>450.2</ele>
        <time>2022-08-10T09:42:51Z</time>
      </trkpt>
      <trkpt lat="47.16473" lon="6.05176">
        <ele>449.7</ele>
        <time>2022-08-10T09:42:52Z</time>
      </trkpt>
      <trkpt lat="47.1647" lon="6.05168">
        <ele>448.9</ele>
        <time>2022-08-10T09:42:53Z</time>
      </trkpt>
      <trkpt lat="47.16468" lon="6.05159">
        <ele>447.8</ele>
        <time>2022-08-10T09:42:54Z</time>
      </trkpt>
      <trkpt lat="47.16465" lon="6.05151">
        <ele>446.8</ele>
        <time>2022-08-10T09:42:55Z</time>
      </trkpt>
      <trkpt lat="47.16462" lon="6.05143">
        <ele>446.4</ele>
        <time>2022-08-10T09:42:56Z</time>
      </trkpt>
      <trkpt lat="47.16459" lon="6.05134">
        <ele>445.5</ele>
        <time>2022-08-10T09:42:57Z</time>
      </trkpt>
      <trkpt lat="47.16456" lon="6.05126">
        <ele>444.6</ele>
        <time>2022-08-10T09:42:58Z</time>
      </trkpt>
      <trkpt lat="47.16452" lon="6.05117">
        <ele>443.4</ele>
        <time>2022-08-10T09:42:59Z</time>
      </trkpt>
      <trkpt lat="47.16449" lon="6.05109">
        <ele>442.4</ele>
        <time>2022-08-10T09:43:00Z</time>
      </trkpt>
      <trkpt lat="47.16445" lon="6.05099">
        <ele>440.4</ele>
        <time>2022-08-10T09:43:01Z</time>
      </trkpt>
      <trkpt lat="47.16441" lon="6.0509">
        <ele>439.3</ele>
        <time>2022-08-10T09:43:02Z</time>
      </trkpt>
      <trkpt lat="47.16437" lon="6.0508">
        <ele>437.6</ele>
        <time>2022-08-10T09:43:03Z</time>
      </trkpt>
      <trkpt lat="47.16433" lon="6.0507">
        <ele>436.1</ele>
        <time>2022-08-10T09:43:04Z</time>
      </trkpt>
      <trkpt lat="47.16428" lon="6.0506">
        <ele>434.7</ele>
        <time>2022-08-10T09:43:05Z</time>
      </trkpt>
      <trkpt lat="47.16423" lon="6.05049">
        <ele>433.3</ele>
        <time>2022-08-10T09:43:06Z</time>
      </trkpt>
      <trkpt lat="47.16418" lon="6.05039">
        <ele>432</ele>
        <time>2022-08-10T09:43:07Z</time>
      </trkpt>
      <trkpt lat="47.16413" lon="6.05029">
        <ele>430.8</ele>
        <time>2022-08-10T09:43:08Z</time>
      </trkpt>
      <trkpt lat="47.16407" lon="6.05019">
        <ele>429.8</ele>
        <time>2022-08-10T09:43:09Z</time>
      </trkpt>
      <trkpt lat="47.16401" lon="6.05008">
        <ele>428.7</ele>
        <time>2022-08-10T09:43:10Z</time>
      </trkpt>
      <trkpt lat="47.16395" lon="6.04998">
        <ele>427.8</ele>
        <time>2022-08-10T09:43:11Z</time>
      </trkpt>
      <trkpt lat="47.16388" lon="6.04988">
        <ele>427</ele>
        <time>2022-08-10T09:43:12Z</time>
      </trkpt>
      <trkpt lat="47.1638" lon="6.04979">
        <ele>426</ele>
        <time>2022-08-10T09:43:13Z</time>
      </trkpt>
      <trkpt lat="47.16372" lon="6.0497">
        <ele>425</ele>
        <time>2022-08-10T09:43:14Z</time>
      </trkpt>
      <trkpt lat="47.16363" lon="6.04961">
        <ele>424.2</ele>
        <time>2022-08-10T09:43:15Z</time>
      </trkpt>
      <trkpt lat="47.16354" lon="6.04953">
        <ele>422.9</ele>
        <time>2022-08-10T09:43:16Z</time>
      </trkpt>
      <trkpt lat="47.16344" lon="6.04946">
        <ele>422.1</ele>
        <time>2022-08-10T09:43:17Z</time>
      </trkpt>
      <trkpt lat="47.16334" lon="6.04939">
        <ele>421.6</ele>
        <time>2022-08-10T09:43:18Z</time>
      </trkpt>
      <trkpt lat="47.16324" lon="6.04932">
        <ele>421.2</ele>
        <time>2022-08-10T09:43:19Z</time>
      </trkpt>
      <trkpt lat="47.16315" lon="6.04926">
        <ele>420.7</ele>
        <time>2022-08-10T09:43:20Z</time>
      </trkpt>
      <trkpt lat="47.16306" lon="6.04922">
        <ele>420.2</ele>
        <time>2022-08-10T09:43:21Z</time>
      </trkpt>
      <trkpt lat="47.16296" lon="6.04919">
        <ele>419.8</ele>
        <time>2022-08-10T09:43:22Z</time>
      </trkpt>
      <trkpt lat="47.16287" lon="6.04919">
        <ele>419.4</ele>
        <time>2022-08-10T09:43:23Z</time>
      </trkpt>
      <trkpt lat="47.16279" lon="6.0492">
        <ele>419.3</ele>
        <time>2022-08-10T09:43:24Z</time>
      </trkpt>
      <trkpt lat="47.16271" lon="6.04921">
        <ele>419.4</ele>
        <time>2022-08-10T09:43:25Z</time>
      </trkpt>
      <trkpt lat="47.16263" lon="6.04922">
        <ele>419.6</ele>
        <time>2022-08-10T09:43:26Z</time>
      </trkpt>
      <trkpt lat="47.16257" lon="6.04921">
        <ele>419.9</ele>
        <time>2022-08-10T09:43:27Z</time>
      </trkpt>
      <trkpt lat="47.1625" lon="6.04921">
        <ele>420.1</ele>
        <time>2022-08-10T09:43:28Z</time>
      </trkpt>
      <trkpt lat="47.16243" lon="6.04919">
        <ele>420.7</ele>
        <time>2022-08-10T09:43:29Z</time>
      </trkpt>
      <trkpt lat="47.16237" lon="6.04918">
        <ele>421.2</ele>
        <time>2022-08-10T09:43:30Z</time>
      </trkpt>
      <trkpt lat="47.1623" lon="6.04916">
        <ele>421.8</ele>
        <time>2022-08-10T09:43:31Z</time>
      </trkpt>
      <trkpt lat="47.16224" lon="6.04915">
        <ele>422.4</ele>
        <time>2022-08-10T09:43:32Z</time>
      </trkpt>
      <trkpt lat="47.16219" lon="6.04914">
        <ele>423</ele>
        <time>2022-08-10T09:43:33Z</time>
      </trkpt>
      <trkpt lat="47.16213" lon="6.04912">
        <ele>423.4</ele>
        <time>2022-08-10T09:43:34Z</time>
      </trkpt>
      <trkpt lat="47.16207" lon="6.0491">
        <ele>423.5</ele>
        <time>2022-08-10T09:43:35Z</time>
      </trkpt>
      <trkpt lat="47.16201" lon="6.04908">
        <ele>423.9</ele>
        <time>2022-08-10T09:43:36Z</time>
      </trkpt>
      <trkpt lat="47.16196" lon="6.04905">
        <ele>424</ele>
        <time>2022-08-10T09:43:37Z</time>
      </trkpt>
      <trkpt lat="47.1619" lon="6.04903">
        <ele>424.2</ele>
        <time>2022-08-10T09:43:38Z</time>
      </trkpt>
      <trkpt lat="47.16185" lon="6.04901">
        <ele>423.9</ele>
        <time>2022-08-10T09:43:39Z</time>
      </trkpt>
      <trkpt lat="47.16179" lon="6.04899">
        <ele>423.9</ele>
        <time>2022-08-10T09:43:40Z</time>
      </trkpt>
      <trkpt lat="47.16174" lon="6.04897">
        <ele>423.9</ele>
        <time>2022-08-10T09:43:41Z</time>
      </trkpt>
      <trkpt lat="47.16169" lon="6.04895">
        <ele>423.8</ele>
        <time>2022-08-10T09:43:42Z</time>
      </trkpt>
      <trkpt lat="47.16164" lon="6.04893">
        <ele>424.3</ele>
        <time>2022-08-10T09:43:43Z</time>
      </trkpt>
      <trkpt lat="47.16159" lon="6.04891">
        <ele>424.5</ele>
        <time>2022-08-10T09:43:44Z</time>
      </trkpt>
      <trkpt lat="47.16154" lon="6.0489">
        <ele>424.6</ele>
        <time>2022-08-10T09:43:45Z</time>
      </trkpt>
      <trkpt lat="47.1615" lon="6.04889">
        <ele>425</ele>
        <time>2022-08-10T09:43:46Z</time>
      </trkpt>
      <trkpt lat="47.16145" lon="6.04887">
        <ele>425.3</ele>
        <time>2022-08-10T09:43:47Z</time>
      </trkpt>
      <trkpt lat="47.1614" lon="6.04886">
        <ele>425.6</ele>
        <time>2022-08-10T09:43:48Z</time>
      </trkpt>
      <trkpt lat="47.16135" lon="6.04885">
        <ele>425.5</ele>
        <time>2022-08-10T09:43:49Z</time>
      </trkpt>
      <trkpt lat="47.16131" lon="6.04884">
        <ele>425.5</ele>
        <time>2022-08-10T09:43:50Z</time>
      </trkpt>
      <trkpt lat="47.16126" lon="6.04883">
        <ele>425.5</ele>
        <time>2022-08-10T09:43:51Z</time>
      </trkpt>
      <trkpt lat="47.16122" lon="6.04882">
        <ele>425.7</ele>
        <time>2022-08-10T09:43:52Z</time>
      </trkpt>
      <trkpt lat="47.16118" lon="6.04881">
        <ele>425.8</ele>
        <time>2022-08-10T09:43:53Z</time>
      </trkpt>
      <trkpt lat="47.16114" lon="6.0488">
        <ele>426.1</ele>
        <time>2022-08-10T09:43:54Z</time>
      </trkpt>
      <trkpt lat="47.1611" lon="6.04879">
        <ele>426.3</ele>
        <time>2022-08-10T09:43:55Z</time>
      </trkpt>
      <trkpt lat="47.16106" lon="6.04878">
        <ele>426.4</ele>
        <time>2022-08-10T09:43:56Z</time>
      </trkpt>
      <trkpt lat="47.16102" lon="6.04877">
        <ele>426.7</ele>
        <time>2022-08-10T09:43:57Z</time>
      </trkpt>
      <trkpt lat="47.16097" lon="6.04876">
        <ele>427</ele>
        <time>2022-08-10T09:43:58Z</time>
      </trkpt>
      <trkpt lat="47.16093" lon="6.04875">
        <ele>427.3</ele>
        <time>2022-08-10T09:43:59Z</time>
      </trkpt>
      <trkpt lat="47.16089" lon="6.04873">
        <ele>427.8</ele>
        <time>2022-08-10T09:44:00Z</time>
      </trkpt>
      <trkpt lat="47.16084" lon="6.04872">
        <ele>427.9</ele>
        <time>2022-08-10T09:44:01Z</time>
      </trkpt>
      <trkpt lat="47.1608" lon="6.0487">
        <ele>428</ele>
        <time>2022-08-10T09:44:02Z</time>
      </trkpt>
      <trkpt lat="47.16076" lon="6.04869">
        <ele>428.3</ele>
        <time>2022-08-10T09:44:03Z</time>
      </trkpt>
      <trkpt lat="47.16071" lon="6.04868">
        <ele>428.3</ele>
        <time>2022-08-10T09:44:04Z</time>
      </trkpt>
      <trkpt lat="47.16066" lon="6.04866">
        <ele>428.1</ele>
        <time>2022-08-10T09:44:05Z</time>
      </trkpt>
      <trkpt lat="47.16062" lon="6.04865">
        <ele>427.9</ele>
        <time>2022-08-10T09:44:06Z</time>
      </trkpt>
      <trkpt lat="47.16057" lon="6.04864">
        <ele>428.3</ele>
        <time>2022-08-10T09:44:07Z</time>
      </trkpt>
      <trkpt lat="47.16052" lon="6.04863">
        <ele>428.4</ele>
        <time>2022-08-10T09:44:08Z</time>
      </trkpt>
      <trkpt lat="47.16048" lon="6.04861">
        <ele>428.5</ele>
        <time>2022-08-10T09:44:09Z</time>
      </trkpt>
      <trkpt lat="47.16043" lon="6.04859">
        <ele>428.5</ele>
        <time>2022-08-10T09:44:10Z</time>
      </trkpt>
      <trkpt lat="47.16038" lon="6.04858">
        <ele>428.5</ele>
        <time>2022-08-10T09:44:11Z</time>
      </trkpt>
      <trkpt lat="47.16033" lon="6.04857">
        <ele>428.4</ele>
        <time>2022-08-10T09:44:12Z</time>
      </trkpt>
      <trkpt lat="47.16028" lon="6.04856">
        <ele>428.2</ele>
        <time>2022-08-10T09:44:13Z</time>
      </trkpt>
      <trkpt lat="47.16023" lon="6.04855">
        <ele>428.1</ele>
        <time>2022-08-10T09:44:14Z</time>
      </trkpt>
      <trkpt lat="47.16018" lon="6.04854">
        <ele>427.9</ele>
        <time>2022-08-10T09:44:15Z</time>
      </trkpt>
      <trkpt lat="47.16013" lon="6.04854">
        <ele>427.7</ele>
        <time>2022-08-10T09:44:16Z</time>
      </trkpt>
      <trkpt lat="47.16007" lon="6.04854">
        <ele>427.5</ele>
        <time>2022-08-10T09:44:17Z</time>
      </trkpt>
      <trkpt lat="47.16002" lon="6.04855">
        <ele>427.4</ele>
        <time>2022-08-10T09:44:18Z</time>
      </trkpt>
      <trkpt lat="47.15997" lon="6.04855">
        <ele>427.4</ele>
        <time>2022-08-10T09:44:19Z</time>
      </trkpt>
      <trkpt lat="47.15992" lon="6.04856">
        <ele>427.4</ele>
        <time>2022-08-10T09:44:20Z</time>
      </trkpt>
      <trkpt lat="47.15987" lon="6.04857">
        <ele>427.4</ele>
        <time>2022-08-10T09:44:21Z</time>
      </trkpt>
      <trkpt lat="47.15982" lon="6.04857">
        <ele>427.3</ele>
        <time>2022-08-10T09:44:22Z</time>
      </trkpt>
      <trkpt lat="47.15977" lon="6.04858">
        <ele>427.2</ele>
        <time>2022-08-10T09:44:23Z</time>
      </trkpt>
      <trkpt lat="47.15972" lon="6.04859">
        <ele>427.2</ele>
        <time>2022-08-10T09:44:24Z</time>
      </trkpt>
      <trkpt lat="47.15967" lon="6.04861">
        <ele>427.6</ele>
        <time>2022-08-10T09:44:25Z</time>
      </trkpt>
      <trkpt lat="47.15962" lon="6.04863">
        <ele>427.9</ele>
        <time>2022-08-10T09:44:26Z</time>
      </trkpt>
      <trkpt lat="47.15957" lon="6.04865">
        <ele>428.3</ele>
        <time>2022-08-10T09:44:27Z</time>
      </trkpt>
      <trkpt lat="47.15952" lon="6.04867">
        <ele>428.5</ele>
        <time>2022-08-10T09:44:28Z</time>
      </trkpt>
      <trkpt lat="47.15947" lon="6.04869">
        <ele>428.8</ele>
        <time>2022-08-10T09:44:29Z</time>
      </trkpt>
      <trkpt lat="47.15944" lon="6.0487">
        <ele>429.1</ele>
        <time>2022-08-10T09:44:30Z</time>
      </trkpt>
      <trkpt lat="47.1594" lon="6.04872">
        <ele>429.5</ele>
        <time>2022-08-10T09:44:31Z</time>
      </trkpt>
      <trkpt lat="47.15937" lon="6.04874">
        <ele>430</ele>
        <time>2022-08-10T09:44:32Z</time>
      </trkpt>
      <trkpt lat="47.15935" lon="6.04875">
        <ele>430.7</ele>
        <time>2022-08-10T09:44:33Z</time>
      </trkpt>
      <trkpt lat="47.15932" lon="6.04877">
        <ele>430.8</ele>
        <time>2022-08-10T09:44:34Z</time>
      </trkpt>
      <trkpt lat="47.1593" lon="6.04879">
        <ele>431.5</ele>
        <time>2022-08-10T09:44:35Z</time>
      </trkpt>
      <trkpt lat="47.15928" lon="6.04881">
        <ele>432.1</ele>
        <time>2022-08-10T09:44:36Z</time>
      </trkpt>
      <trkpt lat="47.15926" lon="6.04882">
        <ele>432.6</ele>
        <time>2022-08-10T09:44:37Z</time>
      </trkpt>
      <trkpt lat="47.15925" lon="6.04883">
        <ele>433</ele>
        <time>2022-08-10T09:44:38Z</time>
      </trkpt>
      <trkpt lat="47.15923" lon="6.04885">
        <ele>434.1</ele>
        <time>2022-08-10T09:44:39Z</time>
      </trkpt>
      <trkpt lat="47.15921" lon="6.04888">
        <ele>435.1</ele>
        <time>2022-08-10T09:44:40Z</time>
      </trkpt>
      <trkpt lat="47.15919" lon="6.0489">
        <ele>435.8</ele>
        <time>2022-08-10T09:44:41Z</time>
      </trkpt>
      <trkpt lat="47.15916" lon="6.04893">
        <ele>436.7</ele>
        <time>2022-08-10T09:44:42Z</time>
      </trkpt>
      <trkpt lat="47.15913" lon="6.04896">
        <ele>437.3</ele>
        <time>2022-08-10T09:44:43Z</time>
      </trkpt>
      <trkpt lat="47.1591" lon="6.04899">
        <ele>437.9</ele>
        <time>2022-08-10T09:44:44Z</time>
      </trkpt>
      <trkpt lat="47.15906" lon="6.04903">
        <ele>438.3</ele>
        <time>2022-08-10T09:44:45Z</time>
      </trkpt>
      <trkpt lat="47.15903" lon="6.04906">
        <ele>438.4</ele>
        <time>2022-08-10T09:44:46Z</time>
      </trkpt>
      <trkpt lat="47.15899" lon="6.04909">
        <ele>438.7</ele>
        <time>2022-08-10T09:44:47Z</time>
      </trkpt>
      <trkpt lat="47.15895" lon="6.04911">
        <ele>439.3</ele>
        <time>2022-08-10T09:44:48Z</time>
      </trkpt>
      <trkpt lat="47.15891" lon="6.04914">
        <ele>439.4</ele>
        <time>2022-08-10T09:44:49Z</time>
      </trkpt>
      <trkpt lat="47.15886" lon="6.04916">
        <ele>439.3</ele>
        <time>2022-08-10T09:44:50Z</time>
      </trkpt>
      <trkpt lat="47.15882" lon="6.04918">
        <ele>439.1</ele>
        <time>2022-08-10T09:44:51Z</time>
      </trkpt>
      <trkpt lat="47.15878" lon="6.04919">
        <ele>438.7</ele>
        <time>2022-08-10T09:44:52Z</time>
      </trkpt>
      <trkpt lat="47.15873" lon="6.04921">
        <ele>438.7</ele>
        <time>2022-08-10T09:44:53Z</time>
      </trkpt>
      <trkpt lat="47.15869" lon="6.04922">
        <ele>438.7</ele>
        <time>2022-08-10T09:44:54Z</time>
      </trkpt>
      <trkpt lat="47.15864" lon="6.04924">
        <ele>438.2</ele>
        <time>2022-08-10T09:44:55Z</time>
      </trkpt>
      <trkpt lat="47.1586" lon="6.04926">
        <ele>437.9</ele>
        <time>2022-08-10T09:44:56Z</time>
      </trkpt>
      <trkpt lat="47.15855" lon="6.04927">
        <ele>437.7</ele>
        <time>2022-08-10T09:44:57Z</time>
      </trkpt>
      <trkpt lat="47.15851" lon="6.04929">
        <ele>437.7</ele>
        <time>2022-08-10T09:44:58Z</time>
      </trkpt>
      <trkpt lat="47.15847" lon="6.0493">
        <ele>437.6</ele>
        <time>2022-08-10T09:44:59Z</time>
      </trkpt>
      <trkpt lat="47.15843" lon="6.04931">
        <ele>437.7</ele>
        <time>2022-08-10T09:45:00Z</time>
      </trkpt>
      <trkpt lat="47.15839" lon="6.04932">
        <ele>437.6</ele>
        <time>2022-08-10T09:45:01Z</time>
      </trkpt>
      <trkpt lat="47.15835" lon="6.04933">
        <ele>437.6</ele>
        <time>2022-08-10T09:45:02Z</time>
      </trkpt>
      <trkpt lat="47.15832" lon="6.04935">
        <ele>437.9</ele>
        <time>2022-08-10T09:45:03Z</time>
      </trkpt>
      <trkpt lat="47.15829" lon="6.04937">
        <ele>438.6</ele>
        <time>2022-08-10T09:45:04Z</time>
      </trkpt>
      <trkpt lat="47.15826" lon="6.04938">
        <ele>439.2</ele>
        <time>2022-08-10T09:45:05Z</time>
      </trkpt>
      <trkpt lat="47.15823" lon="6.04941">
        <ele>440</ele>
        <time>2022-08-10T09:45:06Z</time>
      </trkpt>
      <trkpt lat="47.15821" lon="6.04946">
        <ele>440.7</ele>
        <time>2022-08-10T09:45:07Z</time>
      </trkpt>
      <trkpt lat="47.1582" lon="6.04952">
        <ele>440.9</ele>
        <time>2022-08-10T09:45:08Z</time>
      </trkpt>
      <trkpt lat="47.15819" lon="6.04958">
        <ele>441.5</ele>
        <time>2022-08-10T09:45:09Z</time>
      </trkpt>
      <trkpt lat="47.15819" lon="6.04964">
        <ele>442.3</ele>
        <time>2022-08-10T09:45:10Z</time>
      </trkpt>
      <trkpt lat="47.15818" lon="6.04969">
        <ele>442.5</ele>
        <time>2022-08-10T09:45:11Z</time>
      </trkpt>
      <trkpt lat="47.15818" lon="6.04975">
        <ele>442.5</ele>
        <time>2022-08-10T09:45:12Z</time>
      </trkpt>
      <trkpt lat="47.15817" lon="6.0498">
        <ele>442.5</ele>
        <time>2022-08-10T09:45:13Z</time>
      </trkpt>
      <trkpt lat="47.15816" lon="6.04986">
        <ele>442.8</ele>
        <time>2022-08-10T09:45:14Z</time>
      </trkpt>
      <trkpt lat="47.15816" lon="6.04992">
        <ele>443</ele>
        <time>2022-08-10T09:45:15Z</time>
      </trkpt>
      <trkpt lat="47.15816" lon="6.04998">
        <ele>443.6</ele>
        <time>2022-08-10T09:45:16Z</time>
      </trkpt>
      <trkpt lat="47.15816" lon="6.05004">
        <ele>444.4</ele>
        <time>2022-08-10T09:45:17Z</time>
      </trkpt>
      <trkpt lat="47.15815" lon="6.0501">
        <ele>444.8</ele>
        <time>2022-08-10T09:45:18Z</time>
      </trkpt>
      <trkpt lat="47.15814" lon="6.05016">
        <ele>445.1</ele>
        <time>2022-08-10T09:45:19Z</time>
      </trkpt>
      <trkpt lat="47.15813" lon="6.05021">
        <ele>445.2</ele>
        <time>2022-08-10T09:45:20Z</time>
      </trkpt>
      <trkpt lat="47.15812" lon="6.05026">
        <ele>445.3</ele>
        <time>2022-08-10T09:45:21Z</time>
      </trkpt>
      <trkpt lat="47.15812" lon="6.05031">
        <ele>445.5</ele>
        <time>2022-08-10T09:45:22Z</time>
      </trkpt>
      <trkpt lat="47.15811" lon="6.05036">
        <ele>445.9</ele>
        <time>2022-08-10T09:45:23Z</time>
      </trkpt>
      <trkpt lat="47.15811" lon="6.05042">
        <ele>446.8</ele>
        <time>2022-08-10T09:45:24Z</time>
      </trkpt>
      <trkpt lat="47.15812" lon="6.05049">
        <ele>447.5</ele>
        <time>2022-08-10T09:45:25Z</time>
      </trkpt>
      <trkpt lat="47.15811" lon="6.05055">
        <ele>448.3</ele>
        <time>2022-08-10T09:45:26Z</time>
      </trkpt>
      <trkpt lat="47.1581" lon="6.05061">
        <ele>448.8</ele>
        <time>2022-08-10T09:45:27Z</time>
      </trkpt>
      <trkpt lat="47.15808" lon="6.05065">
        <ele>449.6</ele>
        <time>2022-08-10T09:45:28Z</time>
      </trkpt>
      <trkpt lat="47.15802" lon="6.05069">
        <ele>448.2</ele>
        <time>2022-08-10T09:45:29Z</time>
      </trkpt>
      <trkpt lat="47.15797" lon="6.05071">
        <ele>448</ele>
        <time>2022-08-10T09:45:30Z</time>
      </trkpt>
      <trkpt lat="47.15793" lon="6.05073">
        <ele>448</ele>
        <time>2022-08-10T09:45:31Z</time>
      </trkpt>
      <trkpt lat="47.15788" lon="6.05074">
        <ele>448.2</ele>
        <time>2022-08-10T09:45:32Z</time>
      </trkpt>
      <trkpt lat="47.1578" lon="6.05074">
        <ele>447.2</ele>
        <time>2022-08-10T09:45:33Z</time>
      </trkpt>
      <trkpt lat="47.15775" lon="6.05074">
        <ele>447.4</ele>
        <time>2022-08-10T09:45:34Z</time>
      </trkpt>
      <trkpt lat="47.1577" lon="6.05075">
        <ele>447.9</ele>
        <time>2022-08-10T09:45:35Z</time>
      </trkpt>
      <trkpt lat="47.15763" lon="6.05076">
        <ele>447.6</ele>
        <time>2022-08-10T09:45:36Z</time>
      </trkpt>
      <trkpt lat="47.15758" lon="6.05076">
        <ele>447.9</ele>
        <time>2022-08-10T09:45:37Z</time>
      </trkpt>
      <trkpt lat="47.15752" lon="6.05077">
        <ele>447.2</ele>
        <time>2022-08-10T09:45:38Z</time>
      </trkpt>
      <trkpt lat="47.15747" lon="6.05077">
        <ele>447.4</ele>
        <time>2022-08-10T09:45:39Z</time>
      </trkpt>
      <trkpt lat="47.15741" lon="6.05079">
        <ele>447.4</ele>
        <time>2022-08-10T09:45:40Z</time>
      </trkpt>
      <trkpt lat="47.15736" lon="6.0508">
        <ele>448.1</ele>
        <time>2022-08-10T09:45:41Z</time>
      </trkpt>
      <trkpt lat="47.15731" lon="6.05081">
        <ele>448.8</ele>
        <time>2022-08-10T09:45:42Z</time>
      </trkpt>
      <trkpt lat="47.15726" lon="6.05081">
        <ele>449.6</ele>
        <time>2022-08-10T09:45:43Z</time>
      </trkpt>
      <trkpt lat="47.15721" lon="6.05083">
        <ele>450</ele>
        <time>2022-08-10T09:45:44Z</time>
      </trkpt>
      <trkpt lat="47.15717" lon="6.05084">
        <ele>450.5</ele>
        <time>2022-08-10T09:45:45Z</time>
      </trkpt>
      <trkpt lat="47.15712" lon="6.05085">
        <ele>451.2</ele>
        <time>2022-08-10T09:45:46Z</time>
      </trkpt>
      <trkpt lat="47.15707" lon="6.05086">
        <ele>451.6</ele>
        <time>2022-08-10T09:45:47Z</time>
      </trkpt>
      <trkpt lat="47.15702" lon="6.05087">
        <ele>451.6</ele>
        <time>2022-08-10T09:45:48Z</time>
      </trkpt>
      <trkpt lat="47.15696" lon="6.05087">
        <ele>452.1</ele>
        <time>2022-08-10T09:45:49Z</time>
      </trkpt>
      <trkpt lat="47.15691" lon="6.05087">
        <ele>452.4</ele>
        <time>2022-08-10T09:45:50Z</time>
      </trkpt>
      <trkpt lat="47.15687" lon="6.05087">
        <ele>452.4</ele>
        <time>2022-08-10T09:45:51Z</time>
      </trkpt>
      <trkpt lat="47.15683" lon="6.05087">
        <ele>452.1</ele>
        <time>2022-08-10T09:45:52Z</time>
      </trkpt>
      <trkpt lat="47.15679" lon="6.05087">
        <ele>452</ele>
        <time>2022-08-10T09:45:53Z</time>
      </trkpt>
      <trkpt lat="47.15675" lon="6.05087">
        <ele>451.8</ele>
        <time>2022-08-10T09:45:54Z</time>
      </trkpt>
      <trkpt lat="47.15671" lon="6.05088">
        <ele>451.1</ele>
        <time>2022-08-10T09:45:55Z</time>
      </trkpt>
      <trkpt lat="47.15667" lon="6.05089">
        <ele>450.7</ele>
        <time>2022-08-10T09:45:56Z</time>
      </trkpt>
      <trkpt lat="47.15662" lon="6.0509">
        <ele>450.5</ele>
        <time>2022-08-10T09:45:57Z</time>
      </trkpt>
      <trkpt lat="47.15657" lon="6.05091">
        <ele>450.7</ele>
        <time>2022-08-10T09:45:58Z</time>
      </trkpt>
      <trkpt lat="47.15653" lon="6.05091">
        <ele>451.4</ele>
        <time>2022-08-10T09:45:59Z</time>
      </trkpt>
      <trkpt lat="47.15648" lon="6.05091">
        <ele>451.7</ele>
        <time>2022-08-10T09:46:00Z</time>
      </trkpt>
      <trkpt lat="47.15643" lon="6.05091">
        <ele>451.9</ele>
        <time>2022-08-10T09:46:01Z</time>
      </trkpt>
      <trkpt lat="47.15637" lon="6.05092">
        <ele>451.8</ele>
        <time>2022-08-10T09:46:02Z</time>
      </trkpt>
      <trkpt lat="47.15632" lon="6.05092">
        <ele>452</ele>
        <time>2022-08-10T09:46:03Z</time>
      </trkpt>
      <trkpt lat="47.15627" lon="6.05092">
        <ele>452.1</ele>
        <time>2022-08-10T09:46:04Z</time>
      </trkpt>
      <trkpt lat="47.15622" lon="6.05093">
        <ele>452.5</ele>
        <time>2022-08-10T09:46:05Z</time>
      </trkpt>
      <trkpt lat="47.15616" lon="6.05092">
        <ele>451.8</ele>
        <time>2022-08-10T09:46:06Z</time>
      </trkpt>
      <trkpt lat="47.15609" lon="6.05093">
        <ele>451.5</ele>
        <time>2022-08-10T09:46:07Z</time>
      </trkpt>
      <trkpt lat="47.15604" lon="6.05093">
        <ele>451.6</ele>
        <time>2022-08-10T09:46:08Z</time>
      </trkpt>
      <trkpt lat="47.15599" lon="6.05093">
        <ele>451.7</ele>
        <time>2022-08-10T09:46:09Z</time>
      </trkpt>
      <trkpt lat="47.15592" lon="6.05094">
        <ele>450.4</ele>
        <time>2022-08-10T09:46:10Z</time>
      </trkpt>
      <trkpt lat="47.15588" lon="6.05094">
        <ele>450.4</ele>
        <time>2022-08-10T09:46:11Z</time>
      </trkpt>
      <trkpt lat="47.15583" lon="6.05094">
        <ele>450.3</ele>
        <time>2022-08-10T09:46:12Z</time>
      </trkpt>
      <trkpt lat="47.1558" lon="6.05093">
        <ele>450.1</ele>
        <time>2022-08-10T09:46:13Z</time>
      </trkpt>
      <trkpt lat="47.15576" lon="6.05094">
        <ele>449.8</ele>
        <time>2022-08-10T09:46:14Z</time>
      </trkpt>
      <trkpt lat="47.15572" lon="6.05094">
        <ele>449.8</ele>
        <time>2022-08-10T09:46:15Z</time>
      </trkpt>
      <trkpt lat="47.15568" lon="6.05095">
        <ele>449.2</ele>
        <time>2022-08-10T09:46:16Z</time>
      </trkpt>
      <trkpt lat="47.15565" lon="6.05097">
        <ele>449</ele>
        <time>2022-08-10T09:46:17Z</time>
      </trkpt>
      <trkpt lat="47.1556" lon="6.05099">
        <ele>448.5</ele>
        <time>2022-08-10T09:46:18Z</time>
      </trkpt>
      <trkpt lat="47.15555" lon="6.051">
        <ele>448.3</ele>
        <time>2022-08-10T09:46:19Z</time>
      </trkpt>
      <trkpt lat="47.1555" lon="6.05101">
        <ele>448.5</ele>
        <time>2022-08-10T09:46:20Z</time>
      </trkpt>
      <trkpt lat="47.15546" lon="6.05101">
        <ele>448.7</ele>
        <time>2022-08-10T09:46:21Z</time>
      </trkpt>
      <trkpt lat="47.15542" lon="6.05101">
        <ele>449.1</ele>
        <time>2022-08-10T09:46:22Z</time>
      </trkpt>
      <trkpt lat="47.15538" lon="6.05101">
        <ele>449.4</ele>
        <time>2022-08-10T09:46:23Z</time>
      </trkpt>
      <trkpt lat="47.15534" lon="6.05101">
        <ele>449.3</ele>
        <time>2022-08-10T09:46:24Z</time>
      </trkpt>
      <trkpt lat="47.1553" lon="6.05101">
        <ele>449.2</ele>
        <time>2022-08-10T09:46:25Z</time>
      </trkpt>
      <trkpt lat="47.15526" lon="6.05102">
        <ele>449</ele>
        <time>2022-08-10T09:46:26Z</time>
      </trkpt>
      <trkpt lat="47.15522" lon="6.05102">
        <ele>449</ele>
        <time>2022-08-10T09:46:27Z</time>
      </trkpt>
      <trkpt lat="47.15517" lon="6.05102">
        <ele>449.1</ele>
        <time>2022-08-10T09:46:28Z</time>
      </trkpt>
      <trkpt lat="47.15513" lon="6.05103">
        <ele>449.2</ele>
        <time>2022-08-10T09:46:29Z</time>
      </trkpt>
      <trkpt lat="47.15509" lon="6.05103">
        <ele>449.4</ele>
        <time>2022-08-10T09:46:30Z</time>
      </trkpt>
      <trkpt lat="47.15505" lon="6.05102">
        <ele>449.6</ele>
        <time>2022-08-10T09:46:31Z</time>
      </trkpt>
      <trkpt lat="47.15502" lon="6.05101">
        <ele>449.8</ele>
        <time>2022-08-10T09:46:32Z</time>
      </trkpt>
      <trkpt lat="47.15498" lon="6.05101">
        <ele>450</ele>
        <time>2022-08-10T09:46:33Z</time>
      </trkpt>
      <trkpt lat="47.15494" lon="6.05099">
        <ele>450.3</ele>
        <time>2022-08-10T09:46:34Z</time>
      </trkpt>
      <trkpt lat="47.1549" lon="6.05098">
        <ele>450.7</ele>
        <time>2022-08-10T09:46:35Z</time>
      </trkpt>
      <trkpt lat="47.15484" lon="6.05097">
        <ele>451.6</ele>
        <time>2022-08-10T09:46:36Z</time>
      </trkpt>
      <trkpt lat="47.15479" lon="6.05096">
        <ele>452.1</ele>
        <time>2022-08-10T09:46:37Z</time>
      </trkpt>
      <trkpt lat="47.15475" lon="6.05095">
        <ele>452.3</ele>
        <time>2022-08-10T09:46:38Z</time>
      </trkpt>
      <trkpt lat="47.15471" lon="6.05094">
        <ele>452.7</ele>
        <time>2022-08-10T09:46:39Z</time>
      </trkpt>
      <trkpt lat="47.15466" lon="6.05094">
        <ele>452.6</ele>
        <time>2022-08-10T09:46:40Z</time>
      </trkpt>
      <trkpt lat="47.15461" lon="6.05093">
        <ele>452.7</ele>
        <time>2022-08-10T09:46:41Z</time>
      </trkpt>
      <trkpt lat="47.15456" lon="6.05093">
        <ele>452.6</ele>
        <time>2022-08-10T09:46:42Z</time>
      </trkpt>
      <trkpt lat="47.15451" lon="6.05093">
        <ele>452.8</ele>
        <time>2022-08-10T09:46:43Z</time>
      </trkpt>
      <trkpt lat="47.15444" lon="6.05092">
        <ele>452.6</ele>
        <time>2022-08-10T09:46:44Z</time>
      </trkpt>
      <trkpt lat="47.15438" lon="6.05092">
        <ele>452.1</ele>
        <time>2022-08-10T09:46:45Z</time>
      </trkpt>
      <trkpt lat="47.15432" lon="6.05092">
        <ele>451.4</ele>
        <time>2022-08-10T09:46:46Z</time>
      </trkpt>
      <trkpt lat="47.15426" lon="6.05092">
        <ele>451.4</ele>
        <time>2022-08-10T09:46:47Z</time>
      </trkpt>
      <trkpt lat="47.15422" lon="6.05093">
        <ele>451.5</ele>
        <time>2022-08-10T09:46:48Z</time>
      </trkpt>
      <trkpt lat="47.15418" lon="6.05093">
        <ele>451.7</ele>
        <time>2022-08-10T09:46:49Z</time>
      </trkpt>
      <trkpt lat="47.15414" lon="6.05095">
        <ele>451.9</ele>
        <time>2022-08-10T09:46:50Z</time>
      </trkpt>
      <trkpt lat="47.15411" lon="6.05097">
        <ele>452.1</ele>
        <time>2022-08-10T09:46:51Z</time>
      </trkpt>
      <trkpt lat="47.15407" lon="6.05098">
        <ele>452.1</ele>
        <time>2022-08-10T09:46:52Z</time>
      </trkpt>
      <trkpt lat="47.15404" lon="6.05099">
        <ele>452.6</ele>
        <time>2022-08-10T09:46:53Z</time>
      </trkpt>
      <trkpt lat="47.15401" lon="6.051">
        <ele>453</ele>
        <time>2022-08-10T09:46:54Z</time>
      </trkpt>
      <trkpt lat="47.15397" lon="6.05099">
        <ele>453.4</ele>
        <time>2022-08-10T09:46:55Z</time>
      </trkpt>
      <trkpt lat="47.15393" lon="6.051">
        <ele>454</ele>
        <time>2022-08-10T09:46:56Z</time>
      </trkpt>
      <trkpt lat="47.15389" lon="6.051">
        <ele>454.9</ele>
        <time>2022-08-10T09:46:57Z</time>
      </trkpt>
      <trkpt lat="47.15384" lon="6.05101">
        <ele>455.6</ele>
        <time>2022-08-10T09:46:58Z</time>
      </trkpt>
      <trkpt lat="47.15379" lon="6.05101">
        <ele>456</ele>
        <time>2022-08-10T09:46:59Z</time>
      </trkpt>
      <trkpt lat="47.15374" lon="6.05101">
        <ele>456.5</ele>
        <time>2022-08-10T09:47:00Z</time>
      </trkpt>
      <trkpt lat="47.15369" lon="6.05101">
        <ele>457.3</ele>
        <time>2022-08-10T09:47:01Z</time>
      </trkpt>
      <trkpt lat="47.15365" lon="6.05102">
        <ele>458.1</ele>
        <time>2022-08-10T09:47:02Z</time>
      </trkpt>
      <trkpt lat="47.15361" lon="6.05102">
        <ele>458.1</ele>
        <time>2022-08-10T09:47:03Z</time>
      </trkpt>
      <trkpt lat="47.15357" lon="6.05103">
        <ele>458.7</ele>
        <time>2022-08-10T09:47:04Z</time>
      </trkpt>
      <trkpt lat="47.15353" lon="6.05104">
        <ele>459</ele>
        <time>2022-08-10T09:47:05Z</time>
      </trkpt>
      <trkpt lat="47.15349" lon="6.05106">
        <ele>459.3</ele>
        <time>2022-08-10T09:47:06Z</time>
      </trkpt>
      <trkpt lat="47.15343" lon="6.05108">
        <ele>459.1</ele>
        <time>2022-08-10T09:47:07Z</time>
      </trkpt>
      <trkpt lat="47.15339" lon="6.05109">
        <ele>459.1</ele>
        <time>2022-08-10T09:47:08Z</time>
      </trkpt>
      <trkpt lat="47.15336" lon="6.05111">
        <ele>458.9</ele>
        <time>2022-08-10T09:47:09Z</time>
      </trkpt>
      <trkpt lat="47.15333" lon="6.05111">
        <ele>459</ele>
        <time>2022-08-10T09:47:10Z</time>
      </trkpt>
      <trkpt lat="47.15329" lon="6.05111">
        <ele>459.4</ele>
        <time>2022-08-10T09:47:11Z</time>
      </trkpt>
      <trkpt lat="47.15326" lon="6.05111">
        <ele>459.2</ele>
        <time>2022-08-10T09:47:12Z</time>
      </trkpt>
      <trkpt lat="47.15323" lon="6.05111">
        <ele>458.9</ele>
        <time>2022-08-10T09:47:13Z</time>
      </trkpt>
      <trkpt lat="47.1532" lon="6.05111">
        <ele>458.9</ele>
        <time>2022-08-10T09:47:14Z</time>
      </trkpt>
      <trkpt lat="47.15318" lon="6.05112">
        <ele>458.8</ele>
        <time>2022-08-10T09:47:15Z</time>
      </trkpt>
      <trkpt lat="47.15315" lon="6.05112">
        <ele>458.6</ele>
        <time>2022-08-10T09:47:16Z</time>
      </trkpt>
      <trkpt lat="47.15313" lon="6.05113">
        <ele>458.3</ele>
        <time>2022-08-10T09:47:17Z</time>
      </trkpt>
      <trkpt lat="47.15312" lon="6.05114">
        <ele>458.4</ele>
        <time>2022-08-10T09:47:18Z</time>
      </trkpt>
      <trkpt lat="47.15312" lon="6.05114">
        <ele>458.6</ele>
        <time>2022-08-10T09:47:19Z</time>
      </trkpt>
      <trkpt lat="47.15312" lon="6.05114">
        <ele>458.6</ele>
        <time>2022-08-10T09:47:20Z</time>
      </trkpt>
      <trkpt lat="47.15312" lon="6.05114">
        <ele>458.6</ele>
        <time>2022-08-10T09:47:21Z</time>
      </trkpt>
      <trkpt lat="47.15312" lon="6.05114">
        <ele>458.6</ele>
        <time>2022-08-10T09:47:22Z</time>
      </trkpt>
      <trkpt lat="47.15312" lon="6.05114">
        <ele>458.6</ele>
        <time>2022-08-10T09:47:23Z</time>
      </trkpt>
      <trkpt lat="47.15312" lon="6.05114">
        <ele>458.6</ele>
        <time>2022-08-10T09:47:24Z</time>
      </trkpt>
      <trkpt lat="47.15312" lon="6.05114">
        <ele>458.6</ele>
        <time>2022-08-10T09:47:25Z</time>
      </trkpt>
      <trkpt lat="47.15312" lon="6.05114">
        <ele>458.6</ele>
        <time>2022-08-10T09:47:26Z</time>
      </trkpt>
      <trkpt lat="47.15312" lon="6.05114">
        <ele>458.6</ele>
        <time>2022-08-10T09:47:27Z</time>
      </trkpt>
      <trkpt lat="47.15312" lon="6.05114">
        <ele>458.6</ele>
        <time>2022-08-10T09:47:28Z</time>
      </trkpt>
      <trkpt lat="47.15312" lon="6.05114">
        <ele>458.6</ele>
        <time>2022-08-10T09:47:29Z</time>
      </trkpt>
      <trkpt lat="47.15312" lon="6.05114">
        <ele>458.6</ele>
        <time>2022-08-10T09:47:30Z</time>
      </trkpt>
      <trkpt lat="47.15312" lon="6.05114">
        <ele>458.6</ele>
        <time>2022-08-10T09:47:31Z</time>
      </trkpt>
      <trkpt lat="47.15312" lon="6.05114">
        <ele>458.6</ele>
        <time>2022-08-10T09:47:32Z</time>
      </trkpt>
      <trkpt lat="47.15312" lon="6.05114">
        <ele>458.6</ele>
        <time>2022-08-10T09:47:33Z</time>
      </trkpt>
      <trkpt lat="47.15312" lon="6.05114">
        <ele>458.6</ele>
        <time>2022-08-10T09:47:34Z</time>
      </trkpt>
      <trkpt lat="47.15312" lon="6.05114">
        <ele>458.6</ele>
        <time>2022-08-10T09:47:35Z</time>
      </trkpt>
      <trkpt lat="47.15312" lon="6.05114">
        <ele>458.6</ele>
        <time>2022-08-10T09:47:36Z</time>
      </trkpt>
      <trkpt lat="47.15312" lon="6.05114">
        <ele>458.6</ele>
        <time>2022-08-10T09:47:37Z</time>
      </trkpt>
      <trkpt lat="47.15312" lon="6.05114">
        <ele>458.6</ele>
        <time>2022-08-10T09:47:38Z</time>
      </trkpt>
      <trkpt lat="47.15312" lon="6.05114">
        <ele>458.6</ele>
        <time>2022-08-10T09:47:39Z</time>
      </trkpt>
      <trkpt lat="47.15312" lon="6.05114">
        <ele>458.6</ele>
        <time>2022-08-10T09:47:40Z</time>
      </trkpt>
      <trkpt lat="47.15312" lon="6.05114">
        <ele>458.6</ele>
        <time>2022-08-10T09:47:41Z</time>
      </trkpt>
      <trkpt lat="47.15312" lon="6.05114">
        <ele>458.6</ele>
        <time>2022-08-10T09:47:42Z</time>
      </trkpt>
      <trkpt lat="47.15312" lon="6.05114">
        <ele>458.6</ele>
        <time>2022-08-10T09:47:43Z</time>
      </trkpt>
      <trkpt lat="47.15312" lon="6.05114">
        <ele>458.6</ele>
        <time>2022-08-10T09:47:44Z</time>
      </trkpt>
      <trkpt lat="47.15312" lon="6.05114">
        <ele>458.6</ele>
        <time>2022-08-10T09:47:45Z</time>
      </trkpt>
      <trkpt lat="47.15312" lon="6.05114">
        <ele>458.6</ele>
        <time>2022-08-10T09:47:46Z</time>
      </trkpt>
      <trkpt lat="47.15312" lon="6.05114">
        <ele>458.6</ele>
        <time>2022-08-10T09:47:47Z</time>
      </trkpt>
      <trkpt lat="47.15312" lon="6.05114">
        <ele>458.6</ele>
        <time>2022-08-10T09:47:48Z</time>
      </trkpt>
      <trkpt lat="47.15312" lon="6.05114">
        <ele>458.6</ele>
        <time>2022-08-10T09:47:49Z</time>
      </trkpt>
      <trkpt lat="47.15312" lon="6.05114">
        <ele>458.6</ele>
        <time>2022-08-10T09:47:50Z</time>
      </trkpt>
      <trkpt lat="47.15312" lon="6.05114">
        <ele>458.6</ele>
        <time>2022-08-10T09:47:51Z</time>
      </trkpt>
      <trkpt lat="47.15312" lon="6.05114">
        <ele>458.6</ele>
        <time>2022-08-10T09:47:52Z</time>
      </trkpt>
      <trkpt lat="47.15312" lon="6.05114">
        <ele>458.6</ele>
        <time>2022-08-10T09:47:53Z</time>
      </trkpt>
      <trkpt lat="47.15307" lon="6.05107">
        <ele>456.8</ele>
        <time>2022-08-10T09:47:54Z</time>
      </trkpt>
      <trkpt lat="47.15305" lon="6.05105">
        <ele>456.4</ele>
        <time>2022-08-10T09:47:55Z</time>
      </trkpt>
      <trkpt lat="47.15304" lon="6.05104">
        <ele>456.2</ele>
        <time>2022-08-10T09:47:56Z</time>
      </trkpt>
      <trkpt lat="47.15304" lon="6.05105">
        <ele>456</ele>
        <time>2022-08-10T09:47:57Z</time>
      </trkpt>
      <trkpt lat="47.15304" lon="6.05105">
        <ele>455.5</ele>
        <time>2022-08-10T09:47:58Z</time>
      </trkpt>
      <trkpt lat="47.15305" lon="6.05105">
        <ele>455.3</ele>
        <time>2022-08-10T09:47:59Z</time>
      </trkpt>
      <trkpt lat="47.15305" lon="6.05105">
        <ele>455.3</ele>
        <time>2022-08-10T09:48:00Z</time>
      </trkpt>
      <trkpt lat="47.15305" lon="6.05105">
        <ele>455.3</ele>
        <time>2022-08-10T09:48:01Z</time>
      </trkpt>
      <trkpt lat="47.15305" lon="6.05105">
        <ele>455.3</ele>
        <time>2022-08-10T09:48:02Z</time>
      </trkpt>
      <trkpt lat="47.15305" lon="6.05105">
        <ele>455.3</ele>
        <time>2022-08-10T09:48:03Z</time>
      </trkpt>
      <trkpt lat="47.15305" lon="6.05105">
        <ele>455.3</ele>
        <time>2022-08-10T09:48:04Z</time>
      </trkpt>
      <trkpt lat="47.15305" lon="6.05105">
        <ele>455.3</ele>
        <time>2022-08-10T09:48:05Z</time>
      </trkpt>
      <trkpt lat="47.15305" lon="6.05105">
        <ele>455.3</ele>
        <time>2022-08-10T09:48:06Z</time>
      </trkpt>
      <trkpt lat="47.15305" lon="6.05105">
        <ele>455.3</ele>
        <time>2022-08-10T09:48:07Z</time>
      </trkpt>
      <trkpt lat="47.15305" lon="6.05105">
        <ele>455.3</ele>
        <time>2022-08-10T09:48:08Z</time>
      </trkpt>
      <trkpt lat="47.15305" lon="6.05105">
        <ele>455.3</ele>
        <time>2022-08-10T09:48:09Z</time>
      </trkpt>
      <trkpt lat="47.15305" lon="6.05105">
        <ele>455.3</ele>
        <time>2022-08-10T09:48:10Z</time>
      </trkpt>
      <trkpt lat="47.15305" lon="6.05105">
        <ele>455.3</ele>
        <time>2022-08-10T09:48:11Z</time>
      </trkpt>
      <trkpt lat="47.15305" lon="6.05105">
        <ele>455.3</ele>
        <time>2022-08-10T09:48:12Z</time>
      </trkpt>
      <trkpt lat="47.15305" lon="6.05105">
        <ele>455.3</ele>
        <time>2022-08-10T09:48:13Z</time>
      </trkpt>
      <trkpt lat="47.15305" lon="6.05105">
        <ele>455.3</ele>
        <time>2022-08-10T09:48:14Z</time>
      </trkpt>
      <trkpt lat="47.15305" lon="6.05105">
        <ele>455.3</ele>
        <time>2022-08-10T09:48:15Z</time>
      </trkpt>
      <trkpt lat="47.15305" lon="6.05105">
        <ele>455.3</ele>
        <time>2022-08-10T09:48:16Z</time>
      </trkpt>
      <trkpt lat="47.15305" lon="6.05105">
        <ele>455.3</ele>
        <time>2022-08-10T09:48:17Z</time>
      </trkpt>
      <trkpt lat="47.15305" lon="6.05105">
        <ele>455.3</ele>
        <time>2022-08-10T09:48:18Z</time>
      </trkpt>
      <trkpt lat="47.15305" lon="6.05105">
        <ele>455.3</ele>
        <time>2022-08-10T09:48:19Z</time>
      </trkpt>
      <trkpt lat="47.15305" lon="6.05105">
        <ele>455.3</ele>
        <time>2022-08-10T09:48:20Z</time>
      </trkpt>
      <trkpt lat="47.15305" lon="6.05105">
        <ele>455.3</ele>
        <time>2022-08-10T09:48:21Z</time>
      </trkpt>
      <trkpt lat="47.15305" lon="6.05105">
        <ele>455.3</ele>
        <time>2022-08-10T09:48:22Z</time>
      </trkpt>
      <trkpt lat="47.15305" lon="6.05105">
        <ele>455.3</ele>
        <time>2022-08-10T09:48:23Z</time>
      </trkpt>
      <trkpt lat="47.15305" lon="6.05105">
        <ele>455.3</ele>
        <time>2022-08-10T09:48:24Z</time>
      </trkpt>
      <trkpt lat="47.15305" lon="6.05105">
        <ele>455.3</ele>
        <time>2022-08-10T09:48:25Z</time>
      </trkpt>
      <trkpt lat="47.15305" lon="6.05105">
        <ele>455.3</ele>
        <time>2022-08-10T09:48:26Z</time>
      </trkpt>
      <trkpt lat="47.15305" lon="6.05105">
        <ele>455.3</ele>
        <time>2022-08-10T09:48:27Z</time>
      </trkpt>
      <trkpt lat="47.15305" lon="6.05105">
        <ele>455.3</ele>
        <time>2022-08-10T09:48:28Z</time>
      </trkpt>
      <trkpt lat="47.15305" lon="6.05105">
        <ele>455.3</ele>
        <time>2022-08-10T09:48:29Z</time>
      </trkpt>
      <trkpt lat="47.15305" lon="6.05105">
        <ele>455.3</ele>
        <time>2022-08-10T09:48:30Z</time>
      </trkpt>
      <trkpt lat="47.15305" lon="6.05105">
        <ele>455.3</ele>
        <time>2022-08-10T09:48:31Z</time>
      </trkpt>
      <trkpt lat="47.15305" lon="6.05105">
        <ele>455.3</ele>
        <time>2022-08-10T09:48:32Z</time>
      </trkpt>
      <trkpt lat="47.15305" lon="6.05105">
        <ele>455.3</ele>
        <time>2022-08-10T09:48:33Z</time>
      </trkpt>
      <trkpt lat="47.15305" lon="6.05105">
        <ele>455.3</ele>
        <time>2022-08-10T09:48:34Z</time>
      </trkpt>
      <trkpt lat="47.15305" lon="6.05105">
        <ele>455.3</ele>
        <time>2022-08-10T09:48:35Z</time>
      </trkpt>
      <trkpt lat="47.15305" lon="6.05105">
        <ele>455.3</ele>
        <time>2022-08-10T09:48:36Z</time>
      </trkpt>
      <trkpt lat="47.15305" lon="6.05105">
        <ele>455.3</ele>
        <time>2022-08-10T09:48:37Z</time>
      </trkpt>
      <trkpt lat="47.15305" lon="6.05105">
        <ele>455.3</ele>
        <time>2022-08-10T09:48:38Z</time>
      </trkpt>
      <trkpt lat="47.15305" lon="6.05105">
        <ele>455.3</ele>
        <time>2022-08-10T09:48:39Z</time>
      </trkpt>
      <trkpt lat="47.15305" lon="6.05105">
        <ele>455.3</ele>
        <time>2022-08-10T09:48:40Z</time>
      </trkpt>
      <trkpt lat="47.15305" lon="6.05105">
        <ele>455.3</ele>
        <time>2022-08-10T09:48:41Z</time>
      </trkpt>
      <trkpt lat="47.15305" lon="6.05105">
        <ele>455.3</ele>
        <time>2022-08-10T09:48:42Z</time>
      </trkpt>
      <trkpt lat="47.15305" lon="6.05105">
        <ele>455.3</ele>
        <time>2022-08-10T09:48:43Z</time>
      </trkpt>
      <trkpt lat="47.15305" lon="6.05105">
        <ele>455.3</ele>
        <time>2022-08-10T09:48:44Z</time>
      </trkpt>
      <trkpt lat="47.15305" lon="6.05105">
        <ele>455.3</ele>
        <time>2022-08-10T09:48:45Z</time>
      </trkpt>
      <trkpt lat="47.15305" lon="6.05105">
        <ele>455.3</ele>
        <time>2022-08-10T09:48:46Z</time>
      </trkpt>
      <trkpt lat="47.15305" lon="6.05105">
        <ele>455.3</ele>
        <time>2022-08-10T09:48:47Z</time>
      </trkpt>
      <trkpt lat="47.15305" lon="6.05105">
        <ele>455.3</ele>
        <time>2022-08-10T09:48:48Z</time>
      </trkpt>
      <trkpt lat="47.15305" lon="6.05105">
        <ele>455.3</ele>
        <time>2022-08-10T09:48:49Z</time>
      </trkpt>
      <trkpt lat="47.15305" lon="6.05105">
        <ele>455.3</ele>
        <time>2022-08-10T09:48:50Z</time>
      </trkpt>
      <trkpt lat="47.15305" lon="6.05105">
        <ele>455.3</ele>
        <time>2022-08-10T09:48:51Z</time>
      </trkpt>
      <trkpt lat="47.15305" lon="6.05105">
        <ele>455.3</ele>
        <time>2022-08-10T09:48:52Z</time>
      </trkpt>
      <trkpt lat="47.15305" lon="6.05105">
        <ele>455.3</ele>
        <time>2022-08-10T09:48:53Z</time>
      </trkpt>
      <trkpt lat="47.15305" lon="6.05105">
        <ele>455.3</ele>
        <time>2022-08-10T09:48:54Z</time>
      </trkpt>
      <trkpt lat="47.15305" lon="6.05105">
        <ele>455.3</ele>
        <time>2022-08-10T09:48:55Z</time>
      </trkpt>
      <trkpt lat="47.15305" lon="6.05105">
        <ele>455.3</ele>
        <time>2022-08-10T09:48:56Z</time>
      </trkpt>
      <trkpt lat="47.15305" lon="6.05105">
        <ele>455.3</ele>
        <time>2022-08-10T09:48:57Z</time>
      </trkpt>
      <trkpt lat="47.15305" lon="6.05105">
        <ele>455.3</ele>
        <time>2022-08-10T09:48:58Z</time>
      </trkpt>
      <trkpt lat="47.15305" lon="6.05105">
        <ele>455.3</ele>
        <time>2022-08-10T09:48:59Z</time>
      </trkpt>
      <trkpt lat="47.15305" lon="6.05105">
        <ele>455.3</ele>
        <time>2022-08-10T09:49:00Z</time>
      </trkpt>
      <trkpt lat="47.15305" lon="6.05105">
        <ele>455.3</ele>
        <time>2022-08-10T09:49:01Z</time>
      </trkpt>
      <trkpt lat="47.15305" lon="6.05105">
        <ele>455.3</ele>
        <time>2022-08-10T09:49:02Z</time>
      </trkpt>
      <trkpt lat="47.15305" lon="6.05105">
        <ele>455.3</ele>
        <time>2022-08-10T09:49:03Z</time>
      </trkpt>
      <trkpt lat="47.15305" lon="6.05105">
        <ele>455.3</ele>
        <time>2022-08-10T09:49:04Z</time>
      </trkpt>
      <trkpt lat="47.15305" lon="6.05105">
        <ele>455.3</ele>
        <time>2022-08-10T09:49:05Z</time>
      </trkpt>
      <trkpt lat="47.15305" lon="6.05105">
        <ele>455.3</ele>
        <time>2022-08-10T09:49:06Z</time>
      </trkpt>
      <trkpt lat="47.15305" lon="6.05105">
        <ele>455.3</ele>
        <time>2022-08-10T09:49:07Z</time>
      </trkpt>
      <trkpt lat="47.15298" lon="6.05106">
        <ele>455.6</ele>
        <time>2022-08-10T09:49:08Z</time>
      </trkpt>
      <trkpt lat="47.15295" lon="6.05104">
        <ele>456</ele>
        <time>2022-08-10T09:49:09Z</time>
      </trkpt>
      <trkpt lat="47.15293" lon="6.05102">
        <ele>456.4</ele>
        <time>2022-08-10T09:49:10Z</time>
      </trkpt>
      <trkpt lat="47.1529" lon="6.051">
        <ele>457</ele>
        <time>2022-08-10T09:49:11Z</time>
      </trkpt>
      <trkpt lat="47.15287" lon="6.05099">
        <ele>457.7</ele>
        <time>2022-08-10T09:49:12Z</time>
      </trkpt>
      <trkpt lat="47.15284" lon="6.05099">
        <ele>458.7</ele>
        <time>2022-08-10T09:49:13Z</time>
      </trkpt>
      <trkpt lat="47.15282" lon="6.05098">
        <ele>459.4</ele>
        <time>2022-08-10T09:49:14Z</time>
      </trkpt>
      <trkpt lat="47.1528" lon="6.05097">
        <ele>460.5</ele>
        <time>2022-08-10T09:49:15Z</time>
      </trkpt>
      <trkpt lat="47.15278" lon="6.05096">
        <ele>461.6</ele>
        <time>2022-08-10T09:49:16Z</time>
      </trkpt>
      <trkpt lat="47.15275" lon="6.05094">
        <ele>462.8</ele>
        <time>2022-08-10T09:49:17Z</time>
      </trkpt>
      <trkpt lat="47.15273" lon="6.05091">
        <ele>464.1</ele>
        <time>2022-08-10T09:49:18Z</time>
      </trkpt>
      <trkpt lat="47.1527" lon="6.05088">
        <ele>465.1</ele>
        <time>2022-08-10T09:49:19Z</time>
      </trkpt>
      <trkpt lat="47.15267" lon="6.05084">
        <ele>466.3</ele>
        <time>2022-08-10T09:49:20Z</time>
      </trkpt>
      <trkpt lat="47.15263" lon="6.0508">
        <ele>467.4</ele>
        <time>2022-08-10T09:49:21Z</time>
      </trkpt>
      <trkpt lat="47.15259" lon="6.05075">
        <ele>468</ele>
        <time>2022-08-10T09:49:22Z</time>
      </trkpt>
      <trkpt lat="47.15255" lon="6.05071">
        <ele>468.7</ele>
        <time>2022-08-10T09:49:23Z</time>
      </trkpt>
      <trkpt lat="47.15251" lon="6.05066">
        <ele>468.9</ele>
        <time>2022-08-10T09:49:24Z</time>
      </trkpt>
      <trkpt lat="47.15247" lon="6.05062">
        <ele>469.2</ele>
        <time>2022-08-10T09:49:25Z</time>
      </trkpt>
      <trkpt lat="47.15243" lon="6.05055">
        <ele>470.1</ele>
        <time>2022-08-10T09:49:26Z</time>
      </trkpt>
      <trkpt lat="47.1524" lon="6.0505">
        <ele>470.4</ele>
        <time>2022-08-10T09:49:27Z</time>
      </trkpt>
      <trkpt lat="47.15236" lon="6.05044">
        <ele>470</ele>
        <time>2022-08-10T09:49:28Z</time>
      </trkpt>
      <trkpt lat="47.15232" lon="6.05039">
        <ele>469.5</ele>
        <time>2022-08-10T09:49:29Z</time>
      </trkpt>
      <trkpt lat="47.15228" lon="6.05035">
        <ele>469.2</ele>
        <time>2022-08-10T09:49:30Z</time>
      </trkpt>
      <trkpt lat="47.15225" lon="6.0503">
        <ele>468.8</ele>
        <time>2022-08-10T09:49:31Z</time>
      </trkpt>
      <trkpt lat="47.15222" lon="6.05026">
        <ele>468.1</ele>
        <time>2022-08-10T09:49:32Z</time>
      </trkpt>
      <trkpt lat="47.1522" lon="6.05022">
        <ele>467.9</ele>
        <time>2022-08-10T09:49:33Z</time>
      </trkpt>
      <trkpt lat="47.15217" lon="6.05018">
        <ele>467.7</ele>
        <time>2022-08-10T09:49:34Z</time>
      </trkpt>
      <trkpt lat="47.15214" lon="6.05015">
        <ele>467.9</ele>
        <time>2022-08-10T09:49:35Z</time>
      </trkpt>
      <trkpt lat="47.15211" lon="6.05008">
        <ele>466.9</ele>
        <time>2022-08-10T09:49:36Z</time>
      </trkpt>
      <trkpt lat="47.15208" lon="6.05002">
        <ele>466.1</ele>
        <time>2022-08-10T09:49:37Z</time>
      </trkpt>
      <trkpt lat="47.15205" lon="6.04998">
        <ele>466.4</ele>
        <time>2022-08-10T09:49:38Z</time>
      </trkpt>
      <trkpt lat="47.15201" lon="6.04991">
        <ele>465.5</ele>
        <time>2022-08-10T09:49:39Z</time>
      </trkpt>
      <trkpt lat="47.15198" lon="6.04987">
        <ele>464.9</ele>
        <time>2022-08-10T09:49:40Z</time>
      </trkpt>
      <trkpt lat="47.15195" lon="6.04983">
        <ele>464.9</ele>
        <time>2022-08-10T09:49:41Z</time>
      </trkpt>
      <trkpt lat="47.15192" lon="6.04979">
        <ele>464.7</ele>
        <time>2022-08-10T09:49:42Z</time>
      </trkpt>
      <trkpt lat="47.15189" lon="6.04975">
        <ele>464.4</ele>
        <time>2022-08-10T09:49:43Z</time>
      </trkpt>
      <trkpt lat="47.15186" lon="6.04971">
        <ele>464.4</ele>
        <time>2022-08-10T09:49:44Z</time>
      </trkpt>
      <trkpt lat="47.15183" lon="6.04968">
        <ele>464.9</ele>
        <time>2022-08-10T09:49:45Z</time>
      </trkpt>
      <trkpt lat="47.1518" lon="6.04964">
        <ele>465.3</ele>
        <time>2022-08-10T09:49:46Z</time>
      </trkpt>
      <trkpt lat="47.15177" lon="6.04961">
        <ele>465.6</ele>
        <time>2022-08-10T09:49:47Z</time>
      </trkpt>
      <trkpt lat="47.15173" lon="6.04957">
        <ele>465.5</ele>
        <time>2022-08-10T09:49:48Z</time>
      </trkpt>
      <trkpt lat="47.15169" lon="6.04953">
        <ele>466</ele>
        <time>2022-08-10T09:49:49Z</time>
      </trkpt>
      <trkpt lat="47.15166" lon="6.04949">
        <ele>466.3</ele>
        <time>2022-08-10T09:49:50Z</time>
      </trkpt>
      <trkpt lat="47.15162" lon="6.04945">
        <ele>466.5</ele>
        <time>2022-08-10T09:49:51Z</time>
      </trkpt>
      <trkpt lat="47.15159" lon="6.0494">
        <ele>467.1</ele>
        <time>2022-08-10T09:49:52Z</time>
      </trkpt>
      <trkpt lat="47.15155" lon="6.04937">
        <ele>466</ele>
        <time>2022-08-10T09:49:53Z</time>
      </trkpt>
      <trkpt lat="47.15152" lon="6.04934">
        <ele>465.8</ele>
        <time>2022-08-10T09:49:54Z</time>
      </trkpt>
      <trkpt lat="47.15148" lon="6.04931">
        <ele>465.5</ele>
        <time>2022-08-10T09:49:55Z</time>
      </trkpt>
      <trkpt lat="47.15144" lon="6.04927">
        <ele>465</ele>
        <time>2022-08-10T09:49:56Z</time>
      </trkpt>
      <trkpt lat="47.1514" lon="6.04922">
        <ele>464.2</ele>
        <time>2022-08-10T09:49:57Z</time>
      </trkpt>
      <trkpt lat="47.15136" lon="6.04918">
        <ele>463.6</ele>
        <time>2022-08-10T09:49:58Z</time>
      </trkpt>
      <trkpt lat="47.15133" lon="6.04913">
        <ele>463</ele>
        <time>2022-08-10T09:49:59Z</time>
      </trkpt>
      <trkpt lat="47.15129" lon="6.04907">
        <ele>462.6</ele>
        <time>2022-08-10T09:50:00Z</time>
      </trkpt>
      <trkpt lat="47.15126" lon="6.04903">
        <ele>462.1</ele>
        <time>2022-08-10T09:50:01Z</time>
      </trkpt>
      <trkpt lat="47.15122" lon="6.04898">
        <ele>461.3</ele>
        <time>2022-08-10T09:50:02Z</time>
      </trkpt>
      <trkpt lat="47.15118" lon="6.04895">
        <ele>460.6</ele>
        <time>2022-08-10T09:50:03Z</time>
      </trkpt>
      <trkpt lat="47.15114" lon="6.04891">
        <ele>460</ele>
        <time>2022-08-10T09:50:04Z</time>
      </trkpt>
      <trkpt lat="47.1511" lon="6.04888">
        <ele>459.7</ele>
        <time>2022-08-10T09:50:05Z</time>
      </trkpt>
      <trkpt lat="47.15106" lon="6.04886">
        <ele>459.3</ele>
        <time>2022-08-10T09:50:06Z</time>
      </trkpt>
      <trkpt lat="47.15102" lon="6.04883">
        <ele>458.9</ele>
        <time>2022-08-10T09:50:07Z</time>
      </trkpt>
      <trkpt lat="47.15098" lon="6.0488">
        <ele>458.4</ele>
        <time>2022-08-10T09:50:08Z</time>
      </trkpt>
      <trkpt lat="47.15095" lon="6.04876">
        <ele>457.9</ele>
        <time>2022-08-10T09:50:09Z</time>
      </trkpt>
      <trkpt lat="47.15091" lon="6.04872">
        <ele>458</ele>
        <time>2022-08-10T09:50:10Z</time>
      </trkpt>
      <trkpt lat="47.15088" lon="6.04868">
        <ele>457.6</ele>
        <time>2022-08-10T09:50:11Z</time>
      </trkpt>
      <trkpt lat="47.15085" lon="6.04865">
        <ele>457.5</ele>
        <time>2022-08-10T09:50:12Z</time>
      </trkpt>
      <trkpt lat="47.15082" lon="6.04862">
        <ele>457.4</ele>
        <time>2022-08-10T09:50:13Z</time>
      </trkpt>
      <trkpt lat="47.15079" lon="6.04858">
        <ele>457.2</ele>
        <time>2022-08-10T09:50:14Z</time>
      </trkpt>
      <trkpt lat="47.15076" lon="6.04855">
        <ele>456.8</ele>
        <time>2022-08-10T09:50:15Z</time>
      </trkpt>
      <trkpt lat="47.15074" lon="6.04852">
        <ele>456.3</ele>
        <time>2022-08-10T09:50:16Z</time>
      </trkpt>
      <trkpt lat="47.15071" lon="6.04849">
        <ele>456.1</ele>
        <time>2022-08-10T09:50:17Z</time>
      </trkpt>
      <trkpt lat="47.15069" lon="6.04847">
        <ele>455.8</ele>
        <time>2022-08-10T09:50:18Z</time>
      </trkpt>
      <trkpt lat="47.15066" lon="6.04845">
        <ele>455.6</ele>
        <time>2022-08-10T09:50:19Z</time>
      </trkpt>
      <trkpt lat="47.15064" lon="6.04842">
        <ele>455.5</ele>
        <time>2022-08-10T09:50:20Z</time>
      </trkpt>
      <trkpt lat="47.15061" lon="6.0484">
        <ele>455.5</ele>
        <time>2022-08-10T09:50:21Z</time>
      </trkpt>
      <trkpt lat="47.15059" lon="6.04839">
        <ele>455.6</ele>
        <time>2022-08-10T09:50:22Z</time>
      </trkpt>
      <trkpt lat="47.15056" lon="6.04838">
        <ele>455.9</ele>
        <time>2022-08-10T09:50:23Z</time>
      </trkpt>
      <trkpt lat="47.15054" lon="6.04836">
        <ele>456.1</ele>
        <time>2022-08-10T09:50:24Z</time>
      </trkpt>
      <trkpt lat="47.15052" lon="6.04835">
        <ele>456.6</ele>
        <time>2022-08-10T09:50:25Z</time>
      </trkpt>
      <trkpt lat="47.15049" lon="6.04833">
        <ele>456.7</ele>
        <time>2022-08-10T09:50:26Z</time>
      </trkpt>
      <trkpt lat="47.15047" lon="6.04832">
        <ele>456.9</ele>
        <time>2022-08-10T09:50:27Z</time>
      </trkpt>
      <trkpt lat="47.15045" lon="6.04831">
        <ele>457</ele>
        <time>2022-08-10T09:50:28Z</time>
      </trkpt>
      <trkpt lat="47.15044" lon="6.04829">
        <ele>456.6</ele>
        <time>2022-08-10T09:50:29Z</time>
      </trkpt>
      <trkpt lat="47.15042" lon="6.04827">
        <ele>456.5</ele>
        <time>2022-08-10T09:50:30Z</time>
      </trkpt>
      <trkpt lat="47.1504" lon="6.04826">
        <ele>456.1</ele>
        <time>2022-08-10T09:50:31Z</time>
      </trkpt>
      <trkpt lat="47.15038" lon="6.04824">
        <ele>455.8</ele>
        <time>2022-08-10T09:50:32Z</time>
      </trkpt>
      <trkpt lat="47.15036" lon="6.04822">
        <ele>455.6</ele>
        <time>2022-08-10T09:50:33Z</time>
      </trkpt>
      <trkpt lat="47.15034" lon="6.0482">
        <ele>456</ele>
        <time>2022-08-10T09:50:34Z</time>
      </trkpt>
      <trkpt lat="47.15032" lon="6.04818">
        <ele>456.2</ele>
        <time>2022-08-10T09:50:35Z</time>
      </trkpt>
      <trkpt lat="47.1503" lon="6.04816">
        <ele>456.2</ele>
        <time>2022-08-10T09:50:36Z</time>
      </trkpt>
      <trkpt lat="47.15029" lon="6.04814">
        <ele>456</ele>
        <time>2022-08-10T09:50:37Z</time>
      </trkpt>
      <trkpt lat="47.15027" lon="6.04811">
        <ele>456.1</ele>
        <time>2022-08-10T09:50:38Z</time>
      </trkpt>
      <trkpt lat="47.15026" lon="6.04808">
        <ele>455.9</ele>
        <time>2022-08-10T09:50:39Z</time>
      </trkpt>
      <trkpt lat="47.15025" lon="6.04804">
        <ele>455.8</ele>
        <time>2022-08-10T09:50:40Z</time>
      </trkpt>
      <trkpt lat="47.15024" lon="6.04801">
        <ele>455.8</ele>
        <time>2022-08-10T09:50:41Z</time>
      </trkpt>
      <trkpt lat="47.15022" lon="6.04798">
        <ele>456.6</ele>
        <time>2022-08-10T09:50:42Z</time>
      </trkpt>
      <trkpt lat="47.15021" lon="6.04795">
        <ele>457.1</ele>
        <time>2022-08-10T09:50:43Z</time>
      </trkpt>
      <trkpt lat="47.15019" lon="6.04791">
        <ele>458.3</ele>
        <time>2022-08-10T09:50:44Z</time>
      </trkpt>
      <trkpt lat="47.15017" lon="6.04788">
        <ele>459.4</ele>
        <time>2022-08-10T09:50:45Z</time>
      </trkpt>
      <trkpt lat="47.15015" lon="6.04785">
        <ele>460.7</ele>
        <time>2022-08-10T09:50:46Z</time>
      </trkpt>
      <trkpt lat="47.15013" lon="6.04782">
        <ele>461.6</ele>
        <time>2022-08-10T09:50:47Z</time>
      </trkpt>
      <trkpt lat="47.15011" lon="6.04778">
        <ele>462.1</ele>
        <time>2022-08-10T09:50:48Z</time>
      </trkpt>
      <trkpt lat="47.15009" lon="6.04775">
        <ele>462.5</ele>
        <time>2022-08-10T09:50:49Z</time>
      </trkpt>
      <trkpt lat="47.15006" lon="6.04771">
        <ele>462.1</ele>
        <time>2022-08-10T09:50:50Z</time>
      </trkpt>
      <trkpt lat="47.15003" lon="6.04767">
        <ele>461.7</ele>
        <time>2022-08-10T09:50:51Z</time>
      </trkpt>
      <trkpt lat="47.15" lon="6.04764">
        <ele>461</ele>
        <time>2022-08-10T09:50:52Z</time>
      </trkpt>
      <trkpt lat="47.14997" lon="6.04761">
        <ele>460.6</ele>
        <time>2022-08-10T09:50:53Z</time>
      </trkpt>
      <trkpt lat="47.14994" lon="6.04758">
        <ele>460.4</ele>
        <time>2022-08-10T09:50:54Z</time>
      </trkpt>
      <trkpt lat="47.14991" lon="6.04755">
        <ele>460.2</ele>
        <time>2022-08-10T09:50:55Z</time>
      </trkpt>
      <trkpt lat="47.14988" lon="6.04753">
        <ele>460.1</ele>
        <time>2022-08-10T09:50:56Z</time>
      </trkpt>
      <trkpt lat="47.14985" lon="6.0475">
        <ele>460.3</ele>
        <time>2022-08-10T09:50:57Z</time>
      </trkpt>
      <trkpt lat="47.14982" lon="6.04748">
        <ele>460.4</ele>
        <time>2022-08-10T09:50:58Z</time>
      </trkpt>
      <trkpt lat="47.14979" lon="6.04746">
        <ele>460.6</ele>
        <time>2022-08-10T09:50:59Z</time>
      </trkpt>
      <trkpt lat="47.14976" lon="6.04744">
        <ele>461.1</ele>
        <time>2022-08-10T09:51:00Z</time>
      </trkpt>
      <trkpt lat="47.14974" lon="6.04743">
        <ele>461.4</ele>
        <time>2022-08-10T09:51:01Z</time>
      </trkpt>
      <trkpt lat="47.1497" lon="6.04741">
        <ele>461.6</ele>
        <time>2022-08-10T09:51:02Z</time>
      </trkpt>
      <trkpt lat="47.14968" lon="6.04739">
        <ele>461.7</ele>
        <time>2022-08-10T09:51:03Z</time>
      </trkpt>
      <trkpt lat="47.14965" lon="6.04737">
        <ele>462.2</ele>
        <time>2022-08-10T09:51:04Z</time>
      </trkpt>
      <trkpt lat="47.14962" lon="6.04736">
        <ele>462.3</ele>
        <time>2022-08-10T09:51:05Z</time>
      </trkpt>
      <trkpt lat="47.14959" lon="6.04734">
        <ele>462.4</ele>
        <time>2022-08-10T09:51:06Z</time>
      </trkpt>
      <trkpt lat="47.14956" lon="6.04731">
        <ele>462.7</ele>
        <time>2022-08-10T09:51:07Z</time>
      </trkpt>
      <trkpt lat="47.14954" lon="6.04729">
        <ele>462.8</ele>
        <time>2022-08-10T09:51:08Z</time>
      </trkpt>
      <trkpt lat="47.14951" lon="6.04726">
        <ele>462.5</ele>
        <time>2022-08-10T09:51:09Z</time>
      </trkpt>
      <trkpt lat="47.14948" lon="6.04724">
        <ele>462.2</ele>
        <time>2022-08-10T09:51:10Z</time>
      </trkpt>
      <trkpt lat="47.14946" lon="6.04721">
        <ele>461.7</ele>
        <time>2022-08-10T09:51:11Z</time>
      </trkpt>
      <trkpt lat="47.14943" lon="6.04718">
        <ele>461.5</ele>
        <time>2022-08-10T09:51:12Z</time>
      </trkpt>
      <trkpt lat="47.1494" lon="6.04716">
        <ele>461.7</ele>
        <time>2022-08-10T09:51:13Z</time>
      </trkpt>
      <trkpt lat="47.14938" lon="6.04714">
        <ele>461.8</ele>
        <time>2022-08-10T09:51:14Z</time>
      </trkpt>
      <trkpt lat="47.14935" lon="6.04712">
        <ele>462.2</ele>
        <time>2022-08-10T09:51:15Z</time>
      </trkpt>
      <trkpt lat="47.14933" lon="6.0471">
        <ele>462.7</ele>
        <time>2022-08-10T09:51:16Z</time>
      </trkpt>
      <trkpt lat="47.1493" lon="6.04708">
        <ele>463</ele>
        <time>2022-08-10T09:51:17Z</time>
      </trkpt>
      <trkpt lat="47.14927" lon="6.04706">
        <ele>463.4</ele>
        <time>2022-08-10T09:51:18Z</time>
      </trkpt>
      <trkpt lat="47.14924" lon="6.04704">
        <ele>464.1</ele>
        <time>2022-08-10T09:51:19Z</time>
      </trkpt>
      <trkpt lat="47.14922" lon="6.04703">
        <ele>464.7</ele>
        <time>2022-08-10T09:51:20Z</time>
      </trkpt>
      <trkpt lat="47.14919" lon="6.04702">
        <ele>465.3</ele>
        <time>2022-08-10T09:51:21Z</time>
      </trkpt>
      <trkpt lat="47.14917" lon="6.047">
        <ele>465.4</ele>
        <time>2022-08-10T09:51:22Z</time>
      </trkpt>
      <trkpt lat="47.14914" lon="6.04698">
        <ele>465.1</ele>
        <time>2022-08-10T09:51:23Z</time>
      </trkpt>
      <trkpt lat="47.14911" lon="6.04697">
        <ele>464.9</ele>
        <time>2022-08-10T09:51:24Z</time>
      </trkpt>
      <trkpt lat="47.14908" lon="6.04695">
        <ele>465.2</ele>
        <time>2022-08-10T09:51:25Z</time>
      </trkpt>
      <trkpt lat="47.14905" lon="6.04694">
        <ele>465.3</ele>
        <time>2022-08-10T09:51:26Z</time>
      </trkpt>
      <trkpt lat="47.14902" lon="6.04692">
        <ele>465.4</ele>
        <time>2022-08-10T09:51:27Z</time>
      </trkpt>
      <trkpt lat="47.149" lon="6.04691">
        <ele>464.9</ele>
        <time>2022-08-10T09:51:28Z</time>
      </trkpt>
      <trkpt lat="47.14897" lon="6.04689">
        <ele>464.4</ele>
        <time>2022-08-10T09:51:29Z</time>
      </trkpt>
      <trkpt lat="47.14894" lon="6.04687">
        <ele>464.2</ele>
        <time>2022-08-10T09:51:30Z</time>
      </trkpt>
      <trkpt lat="47.14891" lon="6.04687">
        <ele>464</ele>
        <time>2022-08-10T09:51:31Z</time>
      </trkpt>
      <trkpt lat="47.14888" lon="6.04686">
        <ele>463.8</ele>
        <time>2022-08-10T09:51:32Z</time>
      </trkpt>
      <trkpt lat="47.14886" lon="6.04685">
        <ele>463.8</ele>
        <time>2022-08-10T09:51:33Z</time>
      </trkpt>
      <trkpt lat="47.14883" lon="6.04683">
        <ele>463.5</ele>
        <time>2022-08-10T09:51:34Z</time>
      </trkpt>
      <trkpt lat="47.1488" lon="6.04682">
        <ele>463.2</ele>
        <time>2022-08-10T09:51:35Z</time>
      </trkpt>
      <trkpt lat="47.14877" lon="6.04682">
        <ele>463</ele>
        <time>2022-08-10T09:51:36Z</time>
      </trkpt>
      <trkpt lat="47.14874" lon="6.04681">
        <ele>463.2</ele>
        <time>2022-08-10T09:51:37Z</time>
      </trkpt>
      <trkpt lat="47.14871" lon="6.0468">
        <ele>463.3</ele>
        <time>2022-08-10T09:51:38Z</time>
      </trkpt>
      <trkpt lat="47.14868" lon="6.04678">
        <ele>463.4</ele>
        <time>2022-08-10T09:51:39Z</time>
      </trkpt>
      <trkpt lat="47.14866" lon="6.04676">
        <ele>464.5</ele>
        <time>2022-08-10T09:51:40Z</time>
      </trkpt>
      <trkpt lat="47.14863" lon="6.04674">
        <ele>465.2</ele>
        <time>2022-08-10T09:51:41Z</time>
      </trkpt>
      <trkpt lat="47.1486" lon="6.04672">
        <ele>465.8</ele>
        <time>2022-08-10T09:51:42Z</time>
      </trkpt>
      <trkpt lat="47.14857" lon="6.0467">
        <ele>466.4</ele>
        <time>2022-08-10T09:51:43Z</time>
      </trkpt>
      <trkpt lat="47.14854" lon="6.04668">
        <ele>467.3</ele>
        <time>2022-08-10T09:51:44Z</time>
      </trkpt>
      <trkpt lat="47.14852" lon="6.04664">
        <ele>467.6</ele>
        <time>2022-08-10T09:51:45Z</time>
      </trkpt>
      <trkpt lat="47.1485" lon="6.04661">
        <ele>468</ele>
        <time>2022-08-10T09:51:46Z</time>
      </trkpt>
      <trkpt lat="47.14848" lon="6.04657">
        <ele>468.4</ele>
        <time>2022-08-10T09:51:47Z</time>
      </trkpt>
      <trkpt lat="47.14846" lon="6.04653">
        <ele>468.6</ele>
        <time>2022-08-10T09:51:48Z</time>
      </trkpt>
      <trkpt lat="47.14844" lon="6.04649">
        <ele>468.5</ele>
        <time>2022-08-10T09:51:49Z</time>
      </trkpt>
      <trkpt lat="47.14842" lon="6.04646">
        <ele>468.4</ele>
        <time>2022-08-10T09:51:50Z</time>
      </trkpt>
      <trkpt lat="47.14839" lon="6.04642">
        <ele>468.2</ele>
        <time>2022-08-10T09:51:51Z</time>
      </trkpt>
      <trkpt lat="47.14836" lon="6.0464">
        <ele>468.1</ele>
        <time>2022-08-10T09:51:52Z</time>
      </trkpt>
      <trkpt lat="47.14832" lon="6.04638">
        <ele>467.9</ele>
        <time>2022-08-10T09:51:53Z</time>
      </trkpt>
      <trkpt lat="47.14829" lon="6.04637">
        <ele>467.6</ele>
        <time>2022-08-10T09:51:54Z</time>
      </trkpt>
      <trkpt lat="47.14826" lon="6.04637">
        <ele>467.5</ele>
        <time>2022-08-10T09:51:55Z</time>
      </trkpt>
      <trkpt lat="47.14823" lon="6.04638">
        <ele>467.1</ele>
        <time>2022-08-10T09:51:56Z</time>
      </trkpt>
      <trkpt lat="47.14819" lon="6.04639">
        <ele>467.2</ele>
        <time>2022-08-10T09:51:57Z</time>
      </trkpt>
      <trkpt lat="47.14816" lon="6.0464">
        <ele>467</ele>
        <time>2022-08-10T09:51:58Z</time>
      </trkpt>
      <trkpt lat="47.14812" lon="6.0464">
        <ele>466.9</ele>
        <time>2022-08-10T09:51:59Z</time>
      </trkpt>
      <trkpt lat="47.14808" lon="6.04639">
        <ele>466.8</ele>
        <time>2022-08-10T09:52:00Z</time>
      </trkpt>
      <trkpt lat="47.14805" lon="6.04636">
        <ele>466.5</ele>
        <time>2022-08-10T09:52:01Z</time>
      </trkpt>
      <trkpt lat="47.14802" lon="6.04631">
        <ele>466.3</ele>
        <time>2022-08-10T09:52:02Z</time>
      </trkpt>
      <trkpt lat="47.14802" lon="6.04625">
        <ele>466.3</ele>
        <time>2022-08-10T09:52:03Z</time>
      </trkpt>
      <trkpt lat="47.14803" lon="6.04619">
        <ele>466.5</ele>
        <time>2022-08-10T09:52:04Z</time>
      </trkpt>
      <trkpt lat="47.14806" lon="6.04614">
        <ele>466.6</ele>
        <time>2022-08-10T09:52:05Z</time>
      </trkpt>
      <trkpt lat="47.14809" lon="6.0461">
        <ele>466.9</ele>
        <time>2022-08-10T09:52:06Z</time>
      </trkpt>
      <trkpt lat="47.14812" lon="6.04605">
        <ele>466.9</ele>
        <time>2022-08-10T09:52:07Z</time>
      </trkpt>
      <trkpt lat="47.14815" lon="6.046">
        <ele>467.1</ele>
        <time>2022-08-10T09:52:08Z</time>
      </trkpt>
      <trkpt lat="47.14818" lon="6.04596">
        <ele>467.1</ele>
        <time>2022-08-10T09:52:09Z</time>
      </trkpt>
      <trkpt lat="47.14822" lon="6.0459">
        <ele>467.4</ele>
        <time>2022-08-10T09:52:10Z</time>
      </trkpt>
      <trkpt lat="47.14825" lon="6.04585">
        <ele>467.4</ele>
        <time>2022-08-10T09:52:11Z</time>
      </trkpt>
      <trkpt lat="47.14828" lon="6.04579">
        <ele>467.4</ele>
        <time>2022-08-10T09:52:12Z</time>
      </trkpt>
      <trkpt lat="47.14831" lon="6.04572">
        <ele>467.6</ele>
        <time>2022-08-10T09:52:13Z</time>
      </trkpt>
      <trkpt lat="47.14831" lon="6.04565">
        <ele>467.5</ele>
        <time>2022-08-10T09:52:14Z</time>
      </trkpt>
      <trkpt lat="47.1483" lon="6.04558">
        <ele>467</ele>
        <time>2022-08-10T09:52:15Z</time>
      </trkpt>
      <trkpt lat="47.14829" lon="6.04551">
        <ele>466.5</ele>
        <time>2022-08-10T09:52:16Z</time>
      </trkpt>
      <trkpt lat="47.14827" lon="6.04543">
        <ele>466.8</ele>
        <time>2022-08-10T09:52:17Z</time>
      </trkpt>
      <trkpt lat="47.14826" lon="6.04536">
        <ele>466.7</ele>
        <time>2022-08-10T09:52:18Z</time>
      </trkpt>
      <trkpt lat="47.14825" lon="6.04528">
        <ele>466.3</ele>
        <time>2022-08-10T09:52:19Z</time>
      </trkpt>
      <trkpt lat="47.14824" lon="6.0452">
        <ele>465.8</ele>
        <time>2022-08-10T09:52:20Z</time>
      </trkpt>
      <trkpt lat="47.14823" lon="6.04511">
        <ele>465.2</ele>
        <time>2022-08-10T09:52:21Z</time>
      </trkpt>
      <trkpt lat="47.14822" lon="6.04503">
        <ele>464.3</ele>
        <time>2022-08-10T09:52:22Z</time>
      </trkpt>
      <trkpt lat="47.1482" lon="6.04495">
        <ele>463.9</ele>
        <time>2022-08-10T09:52:23Z</time>
      </trkpt>
      <trkpt lat="47.14818" lon="6.04487">
        <ele>463.5</ele>
        <time>2022-08-10T09:52:24Z</time>
      </trkpt>
      <trkpt lat="47.14817" lon="6.04479">
        <ele>463.1</ele>
        <time>2022-08-10T09:52:25Z</time>
      </trkpt>
      <trkpt lat="47.14815" lon="6.04472">
        <ele>462.7</ele>
        <time>2022-08-10T09:52:26Z</time>
      </trkpt>
      <trkpt lat="47.14813" lon="6.04465">
        <ele>462.2</ele>
        <time>2022-08-10T09:52:27Z</time>
      </trkpt>
      <trkpt lat="47.14811" lon="6.04457">
        <ele>462.2</ele>
        <time>2022-08-10T09:52:28Z</time>
      </trkpt>
      <trkpt lat="47.1481" lon="6.04451">
        <ele>462.2</ele>
        <time>2022-08-10T09:52:29Z</time>
      </trkpt>
      <trkpt lat="47.14808" lon="6.04444">
        <ele>462.4</ele>
        <time>2022-08-10T09:52:30Z</time>
      </trkpt>
      <trkpt lat="47.14807" lon="6.04436">
        <ele>462.3</ele>
        <time>2022-08-10T09:52:31Z</time>
      </trkpt>
      <trkpt lat="47.14805" lon="6.04429">
        <ele>462</ele>
        <time>2022-08-10T09:52:32Z</time>
      </trkpt>
      <trkpt lat="47.14803" lon="6.04421">
        <ele>461.8</ele>
        <time>2022-08-10T09:52:33Z</time>
      </trkpt>
      <trkpt lat="47.148" lon="6.04415">
        <ele>461.5</ele>
        <time>2022-08-10T09:52:34Z</time>
      </trkpt>
      <trkpt lat="47.14797" lon="6.04409">
        <ele>461.1</ele>
        <time>2022-08-10T09:52:35Z</time>
      </trkpt>
      <trkpt lat="47.14793" lon="6.04403">
        <ele>460.9</ele>
        <time>2022-08-10T09:52:36Z</time>
      </trkpt>
      <trkpt lat="47.14789" lon="6.04398">
        <ele>460.6</ele>
        <time>2022-08-10T09:52:37Z</time>
      </trkpt>
      <trkpt lat="47.14784" lon="6.04393">
        <ele>460.6</ele>
        <time>2022-08-10T09:52:38Z</time>
      </trkpt>
      <trkpt lat="47.14779" lon="6.04391">
        <ele>460.5</ele>
        <time>2022-08-10T09:52:39Z</time>
      </trkpt>
      <trkpt lat="47.14773" lon="6.04389">
        <ele>460.4</ele>
        <time>2022-08-10T09:52:40Z</time>
      </trkpt>
      <trkpt lat="47.14768" lon="6.04387">
        <ele>460.4</ele>
        <time>2022-08-10T09:52:41Z</time>
      </trkpt>
      <trkpt lat="47.14763" lon="6.04386">
        <ele>460.5</ele>
        <time>2022-08-10T09:52:42Z</time>
      </trkpt>
      <trkpt lat="47.14758" lon="6.04384">
        <ele>460.2</ele>
        <time>2022-08-10T09:52:43Z</time>
      </trkpt>
      <trkpt lat="47.14753" lon="6.04382">
        <ele>459.9</ele>
        <time>2022-08-10T09:52:44Z</time>
      </trkpt>
      <trkpt lat="47.14748" lon="6.0438">
        <ele>459.5</ele>
        <time>2022-08-10T09:52:45Z</time>
      </trkpt>
      <trkpt lat="47.14742" lon="6.04378">
        <ele>459</ele>
        <time>2022-08-10T09:52:46Z</time>
      </trkpt>
      <trkpt lat="47.14737" lon="6.04376">
        <ele>458.6</ele>
        <time>2022-08-10T09:52:47Z</time>
      </trkpt>
      <trkpt lat="47.14732" lon="6.04373">
        <ele>458.7</ele>
        <time>2022-08-10T09:52:48Z</time>
      </trkpt>
      <trkpt lat="47.14727" lon="6.0437">
        <ele>458.9</ele>
        <time>2022-08-10T09:52:49Z</time>
      </trkpt>
      <trkpt lat="47.14722" lon="6.04367">
        <ele>459.1</ele>
        <time>2022-08-10T09:52:50Z</time>
      </trkpt>
      <trkpt lat="47.14717" lon="6.04364">
        <ele>459.4</ele>
        <time>2022-08-10T09:52:51Z</time>
      </trkpt>
      <trkpt lat="47.14711" lon="6.04361">
        <ele>459.8</ele>
        <time>2022-08-10T09:52:52Z</time>
      </trkpt>
      <trkpt lat="47.14706" lon="6.04358">
        <ele>460.5</ele>
        <time>2022-08-10T09:52:53Z</time>
      </trkpt>
      <trkpt lat="47.147" lon="6.04355">
        <ele>460.9</ele>
        <time>2022-08-10T09:52:54Z</time>
      </trkpt>
      <trkpt lat="47.14694" lon="6.04351">
        <ele>461.4</ele>
        <time>2022-08-10T09:52:55Z</time>
      </trkpt>
      <trkpt lat="47.14689" lon="6.04347">
        <ele>461.3</ele>
        <time>2022-08-10T09:52:56Z</time>
      </trkpt>
      <trkpt lat="47.14684" lon="6.04344">
        <ele>461.4</ele>
        <time>2022-08-10T09:52:57Z</time>
      </trkpt>
      <trkpt lat="47.14678" lon="6.04341">
        <ele>461.3</ele>
        <time>2022-08-10T09:52:58Z</time>
      </trkpt>
      <trkpt lat="47.14673" lon="6.04337">
        <ele>461</ele>
        <time>2022-08-10T09:52:59Z</time>
      </trkpt>
      <trkpt lat="47.14668" lon="6.04334">
        <ele>461.1</ele>
        <time>2022-08-10T09:53:00Z</time>
      </trkpt>
      <trkpt lat="47.14663" lon="6.0433">
        <ele>460.8</ele>
        <time>2022-08-10T09:53:01Z</time>
      </trkpt>
      <trkpt lat="47.14657" lon="6.04326">
        <ele>460.4</ele>
        <time>2022-08-10T09:53:02Z</time>
      </trkpt>
      <trkpt lat="47.14652" lon="6.04322">
        <ele>460</ele>
        <time>2022-08-10T09:53:03Z</time>
      </trkpt>
      <trkpt lat="47.14646" lon="6.04319">
        <ele>459.9</ele>
        <time>2022-08-10T09:53:04Z</time>
      </trkpt>
      <trkpt lat="47.14641" lon="6.04315">
        <ele>459.8</ele>
        <time>2022-08-10T09:53:05Z</time>
      </trkpt>
      <trkpt lat="47.14636" lon="6.04311">
        <ele>459.8</ele>
        <time>2022-08-10T09:53:06Z</time>
      </trkpt>
      <trkpt lat="47.14631" lon="6.04308">
        <ele>459.6</ele>
        <time>2022-08-10T09:53:07Z</time>
      </trkpt>
      <trkpt lat="47.14625" lon="6.04305">
        <ele>459.7</ele>
        <time>2022-08-10T09:53:08Z</time>
      </trkpt>
      <trkpt lat="47.1462" lon="6.04301">
        <ele>459.8</ele>
        <time>2022-08-10T09:53:09Z</time>
      </trkpt>
      <trkpt lat="47.14614" lon="6.04298">
        <ele>460.2</ele>
        <time>2022-08-10T09:53:10Z</time>
      </trkpt>
      <trkpt lat="47.14609" lon="6.04295">
        <ele>460.1</ele>
        <time>2022-08-10T09:53:11Z</time>
      </trkpt>
      <trkpt lat="47.14604" lon="6.04291">
        <ele>460.1</ele>
        <time>2022-08-10T09:53:12Z</time>
      </trkpt>
      <trkpt lat="47.14599" lon="6.04287">
        <ele>460</ele>
        <time>2022-08-10T09:53:13Z</time>
      </trkpt>
      <trkpt lat="47.14593" lon="6.04284">
        <ele>460</ele>
        <time>2022-08-10T09:53:14Z</time>
      </trkpt>
      <trkpt lat="47.14588" lon="6.0428">
        <ele>459.7</ele>
        <time>2022-08-10T09:53:15Z</time>
      </trkpt>
      <trkpt lat="47.14582" lon="6.04277">
        <ele>459.5</ele>
        <time>2022-08-10T09:53:16Z</time>
      </trkpt>
      <trkpt lat="47.14577" lon="6.04273">
        <ele>459.4</ele>
        <time>2022-08-10T09:53:17Z</time>
      </trkpt>
      <trkpt lat="47.14571" lon="6.04269">
        <ele>459</ele>
        <time>2022-08-10T09:53:18Z</time>
      </trkpt>
      <trkpt lat="47.14565" lon="6.04267">
        <ele>458.8</ele>
        <time>2022-08-10T09:53:19Z</time>
      </trkpt>
      <trkpt lat="47.1456" lon="6.04264">
        <ele>458.5</ele>
        <time>2022-08-10T09:53:20Z</time>
      </trkpt>
      <trkpt lat="47.14554" lon="6.04262">
        <ele>458.5</ele>
        <time>2022-08-10T09:53:21Z</time>
      </trkpt>
      <trkpt lat="47.14548" lon="6.0426">
        <ele>458.3</ele>
        <time>2022-08-10T09:53:22Z</time>
      </trkpt>
      <trkpt lat="47.14542" lon="6.04258">
        <ele>458.4</ele>
        <time>2022-08-10T09:53:23Z</time>
      </trkpt>
      <trkpt lat="47.14537" lon="6.04256">
        <ele>458.4</ele>
        <time>2022-08-10T09:53:24Z</time>
      </trkpt>
      <trkpt lat="47.14531" lon="6.04254">
        <ele>458.6</ele>
        <time>2022-08-10T09:53:25Z</time>
      </trkpt>
      <trkpt lat="47.14525" lon="6.04252">
        <ele>459</ele>
        <time>2022-08-10T09:53:26Z</time>
      </trkpt>
      <trkpt lat="47.14519" lon="6.0425">
        <ele>459.4</ele>
        <time>2022-08-10T09:53:27Z</time>
      </trkpt>
      <trkpt lat="47.14513" lon="6.04248">
        <ele>459.7</ele>
        <time>2022-08-10T09:53:28Z</time>
      </trkpt>
      <trkpt lat="47.14508" lon="6.04247">
        <ele>459.9</ele>
        <time>2022-08-10T09:53:29Z</time>
      </trkpt>
      <trkpt lat="47.14502" lon="6.04245">
        <ele>460.3</ele>
        <time>2022-08-10T09:53:30Z</time>
      </trkpt>
      <trkpt lat="47.14496" lon="6.04243">
        <ele>460.5</ele>
        <time>2022-08-10T09:53:31Z</time>
      </trkpt>
      <trkpt lat="47.1449" lon="6.04242">
        <ele>460.5</ele>
        <time>2022-08-10T09:53:32Z</time>
      </trkpt>
      <trkpt lat="47.14485" lon="6.0424">
        <ele>460.5</ele>
        <time>2022-08-10T09:53:33Z</time>
      </trkpt>
      <trkpt lat="47.1448" lon="6.04239">
        <ele>460.5</ele>
        <time>2022-08-10T09:53:34Z</time>
      </trkpt>
      <trkpt lat="47.14475" lon="6.04237">
        <ele>460.5</ele>
        <time>2022-08-10T09:53:35Z</time>
      </trkpt>
      <trkpt lat="47.1447" lon="6.04235">
        <ele>460.4</ele>
        <time>2022-08-10T09:53:36Z</time>
      </trkpt>
      <trkpt lat="47.14466" lon="6.04234">
        <ele>460.3</ele>
        <time>2022-08-10T09:53:37Z</time>
      </trkpt>
      <trkpt lat="47.14461" lon="6.04232">
        <ele>460</ele>
        <time>2022-08-10T09:53:38Z</time>
      </trkpt>
      <trkpt lat="47.14457" lon="6.04231">
        <ele>460</ele>
        <time>2022-08-10T09:53:39Z</time>
      </trkpt>
      <trkpt lat="47.14453" lon="6.0423">
        <ele>459.9</ele>
        <time>2022-08-10T09:53:40Z</time>
      </trkpt>
      <trkpt lat="47.14448" lon="6.04229">
        <ele>460.2</ele>
        <time>2022-08-10T09:53:41Z</time>
      </trkpt>
      <trkpt lat="47.14445" lon="6.04228">
        <ele>460.4</ele>
        <time>2022-08-10T09:53:42Z</time>
      </trkpt>
      <trkpt lat="47.14442" lon="6.04228">
        <ele>460.7</ele>
        <time>2022-08-10T09:53:43Z</time>
      </trkpt>
      <trkpt lat="47.14439" lon="6.04229">
        <ele>461.4</ele>
        <time>2022-08-10T09:53:44Z</time>
      </trkpt>
      <trkpt lat="47.14437" lon="6.0423">
        <ele>461.9</ele>
        <time>2022-08-10T09:53:45Z</time>
      </trkpt>
      <trkpt lat="47.14436" lon="6.0423">
        <ele>462.8</ele>
        <time>2022-08-10T09:53:46Z</time>
      </trkpt>
      <trkpt lat="47.14433" lon="6.0423">
        <ele>463.7</ele>
        <time>2022-08-10T09:53:47Z</time>
      </trkpt>
      <trkpt lat="47.14429" lon="6.0423">
        <ele>464.5</ele>
        <time>2022-08-10T09:53:48Z</time>
      </trkpt>
      <trkpt lat="47.14425" lon="6.04231">
        <ele>465.1</ele>
        <time>2022-08-10T09:53:49Z</time>
      </trkpt>
      <trkpt lat="47.14421" lon="6.04233">
        <ele>465.5</ele>
        <time>2022-08-10T09:53:50Z</time>
      </trkpt>
      <trkpt lat="47.14417" lon="6.04235">
        <ele>465.7</ele>
        <time>2022-08-10T09:53:51Z</time>
      </trkpt>
      <trkpt lat="47.14412" lon="6.04236">
        <ele>466</ele>
        <time>2022-08-10T09:53:52Z</time>
      </trkpt>
      <trkpt lat="47.14408" lon="6.04237">
        <ele>465.9</ele>
        <time>2022-08-10T09:53:53Z</time>
      </trkpt>
      <trkpt lat="47.14403" lon="6.04239">
        <ele>465.6</ele>
        <time>2022-08-10T09:53:54Z</time>
      </trkpt>
      <trkpt lat="47.14398" lon="6.0424">
        <ele>465.4</ele>
        <time>2022-08-10T09:53:55Z</time>
      </trkpt>
      <trkpt lat="47.14392" lon="6.0424">
        <ele>464.9</ele>
        <time>2022-08-10T09:53:56Z</time>
      </trkpt>
      <trkpt lat="47.14387" lon="6.0424">
        <ele>464.9</ele>
        <time>2022-08-10T09:53:57Z</time>
      </trkpt>
      <trkpt lat="47.14382" lon="6.0424">
        <ele>464.7</ele>
        <time>2022-08-10T09:53:58Z</time>
      </trkpt>
      <trkpt lat="47.14377" lon="6.0424">
        <ele>465</ele>
        <time>2022-08-10T09:53:59Z</time>
      </trkpt>
      <trkpt lat="47.14371" lon="6.0424">
        <ele>465</ele>
        <time>2022-08-10T09:54:00Z</time>
      </trkpt>
      <trkpt lat="47.14366" lon="6.04238">
        <ele>464.8</ele>
        <time>2022-08-10T09:54:01Z</time>
      </trkpt>
      <trkpt lat="47.1436" lon="6.04237">
        <ele>464.5</ele>
        <time>2022-08-10T09:54:02Z</time>
      </trkpt>
      <trkpt lat="47.14355" lon="6.04236">
        <ele>464.6</ele>
        <time>2022-08-10T09:54:03Z</time>
      </trkpt>
      <trkpt lat="47.14349" lon="6.04234">
        <ele>464.4</ele>
        <time>2022-08-10T09:54:04Z</time>
      </trkpt>
      <trkpt lat="47.14343" lon="6.04231">
        <ele>464.3</ele>
        <time>2022-08-10T09:54:05Z</time>
      </trkpt>
      <trkpt lat="47.14338" lon="6.04228">
        <ele>464.2</ele>
        <time>2022-08-10T09:54:06Z</time>
      </trkpt>
      <trkpt lat="47.14332" lon="6.04224">
        <ele>464.2</ele>
        <time>2022-08-10T09:54:07Z</time>
      </trkpt>
      <trkpt lat="47.14327" lon="6.04221">
        <ele>464.4</ele>
        <time>2022-08-10T09:54:08Z</time>
      </trkpt>
      <trkpt lat="47.14322" lon="6.04218">
        <ele>464.5</ele>
        <time>2022-08-10T09:54:09Z</time>
      </trkpt>
      <trkpt lat="47.14316" lon="6.04214">
        <ele>464.5</ele>
        <time>2022-08-10T09:54:10Z</time>
      </trkpt>
      <trkpt lat="47.14311" lon="6.04209">
        <ele>464.6</ele>
        <time>2022-08-10T09:54:11Z</time>
      </trkpt>
      <trkpt lat="47.14307" lon="6.04204">
        <ele>464.5</ele>
        <time>2022-08-10T09:54:12Z</time>
      </trkpt>
      <trkpt lat="47.14302" lon="6.04199">
        <ele>464.2</ele>
        <time>2022-08-10T09:54:13Z</time>
      </trkpt>
      <trkpt lat="47.14298" lon="6.04193">
        <ele>464.1</ele>
        <time>2022-08-10T09:54:14Z</time>
      </trkpt>
      <trkpt lat="47.14293" lon="6.04188">
        <ele>463.3</ele>
        <time>2022-08-10T09:54:15Z</time>
      </trkpt>
      <trkpt lat="47.14288" lon="6.04183">
        <ele>463</ele>
        <time>2022-08-10T09:54:16Z</time>
      </trkpt>
      <trkpt lat="47.14283" lon="6.04177">
        <ele>462.8</ele>
        <time>2022-08-10T09:54:17Z</time>
      </trkpt>
      <trkpt lat="47.14278" lon="6.04173">
        <ele>462.9</ele>
        <time>2022-08-10T09:54:18Z</time>
      </trkpt>
      <trkpt lat="47.14272" lon="6.04169">
        <ele>463.1</ele>
        <time>2022-08-10T09:54:19Z</time>
      </trkpt>
      <trkpt lat="47.14266" lon="6.04165">
        <ele>463.5</ele>
        <time>2022-08-10T09:54:20Z</time>
      </trkpt>
      <trkpt lat="47.14261" lon="6.04161">
        <ele>463.9</ele>
        <time>2022-08-10T09:54:21Z</time>
      </trkpt>
      <trkpt lat="47.14255" lon="6.04157">
        <ele>464</ele>
        <time>2022-08-10T09:54:22Z</time>
      </trkpt>
      <trkpt lat="47.14249" lon="6.04152">
        <ele>463.7</ele>
        <time>2022-08-10T09:54:23Z</time>
      </trkpt>
      <trkpt lat="47.14243" lon="6.04147">
        <ele>463.4</ele>
        <time>2022-08-10T09:54:24Z</time>
      </trkpt>
      <trkpt lat="47.14238" lon="6.04142">
        <ele>462.8</ele>
        <time>2022-08-10T09:54:25Z</time>
      </trkpt>
      <trkpt lat="47.14232" lon="6.04136">
        <ele>462.4</ele>
        <time>2022-08-10T09:54:26Z</time>
      </trkpt>
      <trkpt lat="47.14227" lon="6.0413">
        <ele>461.8</ele>
        <time>2022-08-10T09:54:27Z</time>
      </trkpt>
      <trkpt lat="47.14221" lon="6.04125">
        <ele>461.1</ele>
        <time>2022-08-10T09:54:28Z</time>
      </trkpt>
      <trkpt lat="47.14215" lon="6.04119">
        <ele>460.7</ele>
        <time>2022-08-10T09:54:29Z</time>
      </trkpt>
      <trkpt lat="47.1421" lon="6.04114">
        <ele>460.2</ele>
        <time>2022-08-10T09:54:30Z</time>
      </trkpt>
      <trkpt lat="47.14204" lon="6.04109">
        <ele>459.5</ele>
        <time>2022-08-10T09:54:31Z</time>
      </trkpt>
      <trkpt lat="47.14199" lon="6.04104">
        <ele>459.1</ele>
        <time>2022-08-10T09:54:32Z</time>
      </trkpt>
      <trkpt lat="47.14193" lon="6.04098">
        <ele>459</ele>
        <time>2022-08-10T09:54:33Z</time>
      </trkpt>
      <trkpt lat="47.14188" lon="6.04092">
        <ele>459.1</ele>
        <time>2022-08-10T09:54:34Z</time>
      </trkpt>
      <trkpt lat="47.14182" lon="6.04087">
        <ele>458.9</ele>
        <time>2022-08-10T09:54:35Z</time>
      </trkpt>
      <trkpt lat="47.14176" lon="6.04082">
        <ele>458.9</ele>
        <time>2022-08-10T09:54:36Z</time>
      </trkpt>
      <trkpt lat="47.1417" lon="6.04076">
        <ele>458.9</ele>
        <time>2022-08-10T09:54:37Z</time>
      </trkpt>
      <trkpt lat="47.14165" lon="6.04071">
        <ele>458.8</ele>
        <time>2022-08-10T09:54:38Z</time>
      </trkpt>
      <trkpt lat="47.14159" lon="6.04065">
        <ele>458.9</ele>
        <time>2022-08-10T09:54:39Z</time>
      </trkpt>
      <trkpt lat="47.14153" lon="6.0406">
        <ele>459</ele>
        <time>2022-08-10T09:54:40Z</time>
      </trkpt>
      <trkpt lat="47.14147" lon="6.04054">
        <ele>458.7</ele>
        <time>2022-08-10T09:54:41Z</time>
      </trkpt>
      <trkpt lat="47.14141" lon="6.04048">
        <ele>458.5</ele>
        <time>2022-08-10T09:54:42Z</time>
      </trkpt>
      <trkpt lat="47.14135" lon="6.04043">
        <ele>458.2</ele>
        <time>2022-08-10T09:54:43Z</time>
      </trkpt>
      <trkpt lat="47.14129" lon="6.04037">
        <ele>458</ele>
        <time>2022-08-10T09:54:44Z</time>
      </trkpt>
      <trkpt lat="47.14123" lon="6.04031">
        <ele>457.8</ele>
        <time>2022-08-10T09:54:45Z</time>
      </trkpt>
      <trkpt lat="47.14117" lon="6.04026">
        <ele>457.6</ele>
        <time>2022-08-10T09:54:46Z</time>
      </trkpt>
      <trkpt lat="47.14111" lon="6.04021">
        <ele>457.4</ele>
        <time>2022-08-10T09:54:47Z</time>
      </trkpt>
      <trkpt lat="47.14105" lon="6.04017">
        <ele>457.3</ele>
        <time>2022-08-10T09:54:48Z</time>
      </trkpt>
      <trkpt lat="47.14098" lon="6.04012">
        <ele>457.4</ele>
        <time>2022-08-10T09:54:49Z</time>
      </trkpt>
      <trkpt lat="47.14092" lon="6.04008">
        <ele>457.3</ele>
        <time>2022-08-10T09:54:50Z</time>
      </trkpt>
      <trkpt lat="47.14085" lon="6.04003">
        <ele>457.5</ele>
        <time>2022-08-10T09:54:51Z</time>
      </trkpt>
      <trkpt lat="47.14079" lon="6.03999">
        <ele>458</ele>
        <time>2022-08-10T09:54:52Z</time>
      </trkpt>
      <trkpt lat="47.14074" lon="6.03994">
        <ele>458.2</ele>
        <time>2022-08-10T09:54:53Z</time>
      </trkpt>
      <trkpt lat="47.14068" lon="6.0399">
        <ele>458.6</ele>
        <time>2022-08-10T09:54:54Z</time>
      </trkpt>
      <trkpt lat="47.14061" lon="6.03985">
        <ele>458.2</ele>
        <time>2022-08-10T09:54:55Z</time>
      </trkpt>
      <trkpt lat="47.14055" lon="6.0398">
        <ele>457.8</ele>
        <time>2022-08-10T09:54:56Z</time>
      </trkpt>
      <trkpt lat="47.14049" lon="6.03975">
        <ele>457.7</ele>
        <time>2022-08-10T09:54:57Z</time>
      </trkpt>
      <trkpt lat="47.14043" lon="6.03971">
        <ele>457.6</ele>
        <time>2022-08-10T09:54:58Z</time>
      </trkpt>
      <trkpt lat="47.14037" lon="6.03967">
        <ele>457.8</ele>
        <time>2022-08-10T09:54:59Z</time>
      </trkpt>
      <trkpt lat="47.1403" lon="6.03963">
        <ele>457.9</ele>
        <time>2022-08-10T09:55:00Z</time>
      </trkpt>
      <trkpt lat="47.14024" lon="6.03959">
        <ele>458.1</ele>
        <time>2022-08-10T09:55:01Z</time>
      </trkpt>
      <trkpt lat="47.14019" lon="6.03955">
        <ele>458.4</ele>
        <time>2022-08-10T09:55:02Z</time>
      </trkpt>
      <trkpt lat="47.14013" lon="6.03951">
        <ele>458.6</ele>
        <time>2022-08-10T09:55:03Z</time>
      </trkpt>
      <trkpt lat="47.14008" lon="6.03948">
        <ele>458.8</ele>
        <time>2022-08-10T09:55:04Z</time>
      </trkpt>
      <trkpt lat="47.14002" lon="6.03945">
        <ele>459.1</ele>
        <time>2022-08-10T09:55:05Z</time>
      </trkpt>
      <trkpt lat="47.13997" lon="6.03942">
        <ele>459.5</ele>
        <time>2022-08-10T09:55:06Z</time>
      </trkpt>
      <trkpt lat="47.13991" lon="6.0394">
        <ele>460.2</ele>
        <time>2022-08-10T09:55:07Z</time>
      </trkpt>
      <trkpt lat="47.13985" lon="6.03938">
        <ele>460.8</ele>
        <time>2022-08-10T09:55:08Z</time>
      </trkpt>
      <trkpt lat="47.13979" lon="6.03935">
        <ele>461.3</ele>
        <time>2022-08-10T09:55:09Z</time>
      </trkpt>
      <trkpt lat="47.13973" lon="6.03931">
        <ele>461.5</ele>
        <time>2022-08-10T09:55:10Z</time>
      </trkpt>
      <trkpt lat="47.13967" lon="6.03928">
        <ele>461.6</ele>
        <time>2022-08-10T09:55:11Z</time>
      </trkpt>
      <trkpt lat="47.1396" lon="6.03925">
        <ele>461.6</ele>
        <time>2022-08-10T09:55:12Z</time>
      </trkpt>
      <trkpt lat="47.13954" lon="6.03922">
        <ele>461.2</ele>
        <time>2022-08-10T09:55:13Z</time>
      </trkpt>
      <trkpt lat="47.13948" lon="6.03919">
        <ele>461.1</ele>
        <time>2022-08-10T09:55:14Z</time>
      </trkpt>
      <trkpt lat="47.13942" lon="6.03916">
        <ele>460.8</ele>
        <time>2022-08-10T09:55:15Z</time>
      </trkpt>
      <trkpt lat="47.13935" lon="6.03913">
        <ele>460.9</ele>
        <time>2022-08-10T09:55:16Z</time>
      </trkpt>
      <trkpt lat="47.13929" lon="6.0391">
        <ele>461</ele>
        <time>2022-08-10T09:55:17Z</time>
      </trkpt>
      <trkpt lat="47.13923" lon="6.03906">
        <ele>460.8</ele>
        <time>2022-08-10T09:55:18Z</time>
      </trkpt>
      <trkpt lat="47.13917" lon="6.03903">
        <ele>460.8</ele>
        <time>2022-08-10T09:55:19Z</time>
      </trkpt>
      <trkpt lat="47.13911" lon="6.03901">
        <ele>460.6</ele>
        <time>2022-08-10T09:55:20Z</time>
      </trkpt>
      <trkpt lat="47.13904" lon="6.03899">
        <ele>460.4</ele>
        <time>2022-08-10T09:55:21Z</time>
      </trkpt>
      <trkpt lat="47.13898" lon="6.03896">
        <ele>460.2</ele>
        <time>2022-08-10T09:55:22Z</time>
      </trkpt>
      <trkpt lat="47.13892" lon="6.03894">
        <ele>459.7</ele>
        <time>2022-08-10T09:55:23Z</time>
      </trkpt>
      <trkpt lat="47.13886" lon="6.03891">
        <ele>459.2</ele>
        <time>2022-08-10T09:55:24Z</time>
      </trkpt>
      <trkpt lat="47.13879" lon="6.03889">
        <ele>458.8</ele>
        <time>2022-08-10T09:55:25Z</time>
      </trkpt>
      <trkpt lat="47.13873" lon="6.03886">
        <ele>458.6</ele>
        <time>2022-08-10T09:55:26Z</time>
      </trkpt>
      <trkpt lat="47.13867" lon="6.03883">
        <ele>458.4</ele>
        <time>2022-08-10T09:55:27Z</time>
      </trkpt>
      <trkpt lat="47.13862" lon="6.0388">
        <ele>457.4</ele>
        <time>2022-08-10T09:55:28Z</time>
      </trkpt>
      <trkpt lat="47.13856" lon="6.03878">
        <ele>456.9</ele>
        <time>2022-08-10T09:55:29Z</time>
      </trkpt>
      <trkpt lat="47.13849" lon="6.03874">
        <ele>455.6</ele>
        <time>2022-08-10T09:55:30Z</time>
      </trkpt>
      <trkpt lat="47.13843" lon="6.03872">
        <ele>455.4</ele>
        <time>2022-08-10T09:55:31Z</time>
      </trkpt>
      <trkpt lat="47.13837" lon="6.03869">
        <ele>455.1</ele>
        <time>2022-08-10T09:55:32Z</time>
      </trkpt>
      <trkpt lat="47.13831" lon="6.03866">
        <ele>454.9</ele>
        <time>2022-08-10T09:55:33Z</time>
      </trkpt>
      <trkpt lat="47.13825" lon="6.03863">
        <ele>454.4</ele>
        <time>2022-08-10T09:55:34Z</time>
      </trkpt>
      <trkpt lat="47.13819" lon="6.03861">
        <ele>454.4</ele>
        <time>2022-08-10T09:55:35Z</time>
      </trkpt>
      <trkpt lat="47.13813" lon="6.03858">
        <ele>454.4</ele>
        <time>2022-08-10T09:55:36Z</time>
      </trkpt>
      <trkpt lat="47.13807" lon="6.03855">
        <ele>454</ele>
        <time>2022-08-10T09:55:37Z</time>
      </trkpt>
      <trkpt lat="47.13801" lon="6.03853">
        <ele>453.7</ele>
        <time>2022-08-10T09:55:38Z</time>
      </trkpt>
      <trkpt lat="47.13795" lon="6.0385">
        <ele>453.5</ele>
        <time>2022-08-10T09:55:39Z</time>
      </trkpt>
      <trkpt lat="47.13789" lon="6.03848">
        <ele>453.2</ele>
        <time>2022-08-10T09:55:40Z</time>
      </trkpt>
      <trkpt lat="47.13783" lon="6.03846">
        <ele>453</ele>
        <time>2022-08-10T09:55:41Z</time>
      </trkpt>
      <trkpt lat="47.13778" lon="6.03844">
        <ele>453.4</ele>
        <time>2022-08-10T09:55:42Z</time>
      </trkpt>
      <trkpt lat="47.13772" lon="6.03842">
        <ele>453.6</ele>
        <time>2022-08-10T09:55:43Z</time>
      </trkpt>
      <trkpt lat="47.13767" lon="6.03841">
        <ele>453.9</ele>
        <time>2022-08-10T09:55:44Z</time>
      </trkpt>
      <trkpt lat="47.13761" lon="6.03839">
        <ele>454.2</ele>
        <time>2022-08-10T09:55:45Z</time>
      </trkpt>
      <trkpt lat="47.13756" lon="6.03837">
        <ele>454.7</ele>
        <time>2022-08-10T09:55:46Z</time>
      </trkpt>
      <trkpt lat="47.1375" lon="6.03835">
        <ele>454.8</ele>
        <time>2022-08-10T09:55:47Z</time>
      </trkpt>
      <trkpt lat="47.13745" lon="6.03833">
        <ele>455.3</ele>
        <time>2022-08-10T09:55:48Z</time>
      </trkpt>
      <trkpt lat="47.13739" lon="6.03831">
        <ele>455.8</ele>
        <time>2022-08-10T09:55:49Z</time>
      </trkpt>
      <trkpt lat="47.13734" lon="6.03828">
        <ele>456.2</ele>
        <time>2022-08-10T09:55:50Z</time>
      </trkpt>
      <trkpt lat="47.13728" lon="6.03826">
        <ele>456.5</ele>
        <time>2022-08-10T09:55:51Z</time>
      </trkpt>
      <trkpt lat="47.13723" lon="6.03824">
        <ele>456.8</ele>
        <time>2022-08-10T09:55:52Z</time>
      </trkpt>
      <trkpt lat="47.13718" lon="6.03821">
        <ele>457.1</ele>
        <time>2022-08-10T09:55:53Z</time>
      </trkpt>
      <trkpt lat="47.13713" lon="6.03819">
        <ele>457.4</ele>
        <time>2022-08-10T09:55:54Z</time>
      </trkpt>
      <trkpt lat="47.13708" lon="6.03817">
        <ele>457.8</ele>
        <time>2022-08-10T09:55:55Z</time>
      </trkpt>
      <trkpt lat="47.13703" lon="6.03815">
        <ele>457.7</ele>
        <time>2022-08-10T09:55:56Z</time>
      </trkpt>
      <trkpt lat="47.13698" lon="6.03813">
        <ele>457.8</ele>
        <time>2022-08-10T09:55:57Z</time>
      </trkpt>
      <trkpt lat="47.13693" lon="6.03811">
        <ele>457.7</ele>
        <time>2022-08-10T09:55:58Z</time>
      </trkpt>
      <trkpt lat="47.13688" lon="6.03809">
        <ele>457.7</ele>
        <time>2022-08-10T09:55:59Z</time>
      </trkpt>
      <trkpt lat="47.13683" lon="6.03807">
        <ele>457.8</ele>
        <time>2022-08-10T09:56:00Z</time>
      </trkpt>
      <trkpt lat="47.13678" lon="6.03806">
        <ele>458.1</ele>
        <time>2022-08-10T09:56:01Z</time>
      </trkpt>
      <trkpt lat="47.13673" lon="6.03804">
        <ele>458.2</ele>
        <time>2022-08-10T09:56:02Z</time>
      </trkpt>
      <trkpt lat="47.13669" lon="6.03804">
        <ele>458.5</ele>
        <time>2022-08-10T09:56:03Z</time>
      </trkpt>
      <trkpt lat="47.13664" lon="6.03802">
        <ele>458.4</ele>
        <time>2022-08-10T09:56:04Z</time>
      </trkpt>
      <trkpt lat="47.1366" lon="6.038">
        <ele>458</ele>
        <time>2022-08-10T09:56:05Z</time>
      </trkpt>
      <trkpt lat="47.13655" lon="6.03798">
        <ele>457.7</ele>
        <time>2022-08-10T09:56:06Z</time>
      </trkpt>
      <trkpt lat="47.1365" lon="6.03796">
        <ele>458</ele>
        <time>2022-08-10T09:56:07Z</time>
      </trkpt>
      <trkpt lat="47.13645" lon="6.03795">
        <ele>458.3</ele>
        <time>2022-08-10T09:56:08Z</time>
      </trkpt>
      <trkpt lat="47.1364" lon="6.03793">
        <ele>458.3</ele>
        <time>2022-08-10T09:56:09Z</time>
      </trkpt>
      <trkpt lat="47.13636" lon="6.03791">
        <ele>458.6</ele>
        <time>2022-08-10T09:56:10Z</time>
      </trkpt>
      <trkpt lat="47.13631" lon="6.0379">
        <ele>459</ele>
        <time>2022-08-10T09:56:11Z</time>
      </trkpt>
      <trkpt lat="47.13626" lon="6.03788">
        <ele>459.1</ele>
        <time>2022-08-10T09:56:12Z</time>
      </trkpt>
      <trkpt lat="47.13622" lon="6.03787">
        <ele>459.4</ele>
        <time>2022-08-10T09:56:13Z</time>
      </trkpt>
      <trkpt lat="47.13617" lon="6.03785">
        <ele>459.8</ele>
        <time>2022-08-10T09:56:14Z</time>
      </trkpt>
      <trkpt lat="47.13612" lon="6.03784">
        <ele>460.2</ele>
        <time>2022-08-10T09:56:15Z</time>
      </trkpt>
      <trkpt lat="47.13608" lon="6.03782">
        <ele>459.9</ele>
        <time>2022-08-10T09:56:16Z</time>
      </trkpt>
      <trkpt lat="47.13603" lon="6.0378">
        <ele>459.7</ele>
        <time>2022-08-10T09:56:17Z</time>
      </trkpt>
      <trkpt lat="47.13599" lon="6.03778">
        <ele>459.7</ele>
        <time>2022-08-10T09:56:18Z</time>
      </trkpt>
      <trkpt lat="47.13595" lon="6.03775">
        <ele>459.9</ele>
        <time>2022-08-10T09:56:19Z</time>
      </trkpt>
      <trkpt lat="47.13591" lon="6.03773">
        <ele>460.3</ele>
        <time>2022-08-10T09:56:20Z</time>
      </trkpt>
      <trkpt lat="47.13587" lon="6.03771">
        <ele>461.1</ele>
        <time>2022-08-10T09:56:21Z</time>
      </trkpt>
      <trkpt lat="47.13583" lon="6.03769">
        <ele>461.8</ele>
        <time>2022-08-10T09:56:22Z</time>
      </trkpt>
      <trkpt lat="47.13579" lon="6.03766">
        <ele>462.5</ele>
        <time>2022-08-10T09:56:23Z</time>
      </trkpt>
      <trkpt lat="47.13576" lon="6.03764">
        <ele>462.9</ele>
        <time>2022-08-10T09:56:24Z</time>
      </trkpt>
      <trkpt lat="47.13571" lon="6.03762">
        <ele>463.2</ele>
        <time>2022-08-10T09:56:25Z</time>
      </trkpt>
      <trkpt lat="47.13567" lon="6.0376">
        <ele>463.5</ele>
        <time>2022-08-10T09:56:26Z</time>
      </trkpt>
      <trkpt lat="47.13563" lon="6.03759">
        <ele>463.9</ele>
        <time>2022-08-10T09:56:27Z</time>
      </trkpt>
      <trkpt lat="47.13559" lon="6.03758">
        <ele>464.2</ele>
        <time>2022-08-10T09:56:28Z</time>
      </trkpt>
      <trkpt lat="47.13555" lon="6.03757">
        <ele>463.8</ele>
        <time>2022-08-10T09:56:29Z</time>
      </trkpt>
      <trkpt lat="47.13551" lon="6.03755">
        <ele>463.4</ele>
        <time>2022-08-10T09:56:30Z</time>
      </trkpt>
      <trkpt lat="47.13547" lon="6.03753">
        <ele>463.1</ele>
        <time>2022-08-10T09:56:31Z</time>
      </trkpt>
      <trkpt lat="47.13543" lon="6.0375">
        <ele>462.1</ele>
        <time>2022-08-10T09:56:32Z</time>
      </trkpt>
      <trkpt lat="47.13538" lon="6.03747">
        <ele>461.8</ele>
        <time>2022-08-10T09:56:33Z</time>
      </trkpt>
      <trkpt lat="47.13534" lon="6.03744">
        <ele>461.4</ele>
        <time>2022-08-10T09:56:34Z</time>
      </trkpt>
      <trkpt lat="47.13531" lon="6.0374">
        <ele>461.4</ele>
        <time>2022-08-10T09:56:35Z</time>
      </trkpt>
      <trkpt lat="47.13528" lon="6.03737">
        <ele>461.5</ele>
        <time>2022-08-10T09:56:36Z</time>
      </trkpt>
      <trkpt lat="47.13524" lon="6.03734">
        <ele>461.9</ele>
        <time>2022-08-10T09:56:37Z</time>
      </trkpt>
      <trkpt lat="47.1352" lon="6.0373">
        <ele>461.9</ele>
        <time>2022-08-10T09:56:38Z</time>
      </trkpt>
      <trkpt lat="47.13517" lon="6.03727">
        <ele>462.1</ele>
        <time>2022-08-10T09:56:39Z</time>
      </trkpt>
      <trkpt lat="47.13513" lon="6.03724">
        <ele>462.4</ele>
        <time>2022-08-10T09:56:40Z</time>
      </trkpt>
      <trkpt lat="47.1351" lon="6.0372">
        <ele>462.7</ele>
        <time>2022-08-10T09:56:41Z</time>
      </trkpt>
      <trkpt lat="47.13507" lon="6.03717">
        <ele>463.2</ele>
        <time>2022-08-10T09:56:42Z</time>
      </trkpt>
      <trkpt lat="47.13504" lon="6.03714">
        <ele>463.8</ele>
        <time>2022-08-10T09:56:43Z</time>
      </trkpt>
      <trkpt lat="47.13501" lon="6.03711">
        <ele>464.4</ele>
        <time>2022-08-10T09:56:44Z</time>
      </trkpt>
      <trkpt lat="47.13498" lon="6.03708">
        <ele>465.1</ele>
        <time>2022-08-10T09:56:45Z</time>
      </trkpt>
      <trkpt lat="47.13494" lon="6.03706">
        <ele>465.7</ele>
        <time>2022-08-10T09:56:46Z</time>
      </trkpt>
      <trkpt lat="47.13491" lon="6.03703">
        <ele>466.2</ele>
        <time>2022-08-10T09:56:47Z</time>
      </trkpt>
      <trkpt lat="47.13487" lon="6.037">
        <ele>466.5</ele>
        <time>2022-08-10T09:56:48Z</time>
      </trkpt>
      <trkpt lat="47.13483" lon="6.03696">
        <ele>467</ele>
        <time>2022-08-10T09:56:49Z</time>
      </trkpt>
      <trkpt lat="47.13479" lon="6.03692">
        <ele>467.1</ele>
        <time>2022-08-10T09:56:50Z</time>
      </trkpt>
      <trkpt lat="47.13476" lon="6.03689">
        <ele>467</ele>
        <time>2022-08-10T09:56:51Z</time>
      </trkpt>
      <trkpt lat="47.13473" lon="6.03685">
        <ele>466.7</ele>
        <time>2022-08-10T09:56:52Z</time>
      </trkpt>
      <trkpt lat="47.1347" lon="6.03681">
        <ele>466.3</ele>
        <time>2022-08-10T09:56:53Z</time>
      </trkpt>
      <trkpt lat="47.13466" lon="6.03677">
        <ele>465.7</ele>
        <time>2022-08-10T09:56:54Z</time>
      </trkpt>
      <trkpt lat="47.13463" lon="6.03674">
        <ele>465.2</ele>
        <time>2022-08-10T09:56:55Z</time>
      </trkpt>
      <trkpt lat="47.13458" lon="6.03671">
        <ele>465.1</ele>
        <time>2022-08-10T09:56:56Z</time>
      </trkpt>
      <trkpt lat="47.13454" lon="6.03668">
        <ele>465</ele>
        <time>2022-08-10T09:56:57Z</time>
      </trkpt>
      <trkpt lat="47.13451" lon="6.03664">
        <ele>465.3</ele>
        <time>2022-08-10T09:56:58Z</time>
      </trkpt>
      <trkpt lat="47.13447" lon="6.0366">
        <ele>465.6</ele>
        <time>2022-08-10T09:56:59Z</time>
      </trkpt>
      <trkpt lat="47.13443" lon="6.03656">
        <ele>466.2</ele>
        <time>2022-08-10T09:57:00Z</time>
      </trkpt>
      <trkpt lat="47.13439" lon="6.03652">
        <ele>466.4</ele>
        <time>2022-08-10T09:57:01Z</time>
      </trkpt>
      <trkpt lat="47.13436" lon="6.03648">
        <ele>466.4</ele>
        <time>2022-08-10T09:57:02Z</time>
      </trkpt>
      <trkpt lat="47.13432" lon="6.03645">
        <ele>466.9</ele>
        <time>2022-08-10T09:57:03Z</time>
      </trkpt>
      <trkpt lat="47.13429" lon="6.03642">
        <ele>467.3</ele>
        <time>2022-08-10T09:57:04Z</time>
      </trkpt>
      <trkpt lat="47.13425" lon="6.03639">
        <ele>467.8</ele>
        <time>2022-08-10T09:57:05Z</time>
      </trkpt>
      <trkpt lat="47.13421" lon="6.03635">
        <ele>468.3</ele>
        <time>2022-08-10T09:57:06Z</time>
      </trkpt>
      <trkpt lat="47.13417" lon="6.03632">
        <ele>468.6</ele>
        <time>2022-08-10T09:57:07Z</time>
      </trkpt>
      <trkpt lat="47.13413" lon="6.03629">
        <ele>469.4</ele>
        <time>2022-08-10T09:57:08Z</time>
      </trkpt>
      <trkpt lat="47.1341" lon="6.03625">
        <ele>470</ele>
        <time>2022-08-10T09:57:09Z</time>
      </trkpt>
      <trkpt lat="47.13406" lon="6.0362">
        <ele>471</ele>
        <time>2022-08-10T09:57:10Z</time>
      </trkpt>
      <trkpt lat="47.13402" lon="6.03616">
        <ele>471.9</ele>
        <time>2022-08-10T09:57:11Z</time>
      </trkpt>
      <trkpt lat="47.13399" lon="6.03613">
        <ele>472.5</ele>
        <time>2022-08-10T09:57:12Z</time>
      </trkpt>
      <trkpt lat="47.13395" lon="6.03609">
        <ele>472.6</ele>
        <time>2022-08-10T09:57:13Z</time>
      </trkpt>
      <trkpt lat="47.13391" lon="6.03606">
        <ele>473.2</ele>
        <time>2022-08-10T09:57:14Z</time>
      </trkpt>
      <trkpt lat="47.13388" lon="6.03603">
        <ele>473.7</ele>
        <time>2022-08-10T09:57:15Z</time>
      </trkpt>
      <trkpt lat="47.13385" lon="6.03601">
        <ele>474.2</ele>
        <time>2022-08-10T09:57:16Z</time>
      </trkpt>
      <trkpt lat="47.13382" lon="6.03598">
        <ele>474.6</ele>
        <time>2022-08-10T09:57:17Z</time>
      </trkpt>
      <trkpt lat="47.13378" lon="6.03595">
        <ele>475</ele>
        <time>2022-08-10T09:57:18Z</time>
      </trkpt>
      <trkpt lat="47.13374" lon="6.0359">
        <ele>475.5</ele>
        <time>2022-08-10T09:57:19Z</time>
      </trkpt>
      <trkpt lat="47.1337" lon="6.03586">
        <ele>475.8</ele>
        <time>2022-08-10T09:57:20Z</time>
      </trkpt>
      <trkpt lat="47.13367" lon="6.03583">
        <ele>476.4</ele>
        <time>2022-08-10T09:57:21Z</time>
      </trkpt>
      <trkpt lat="47.13363" lon="6.03579">
        <ele>477.1</ele>
        <time>2022-08-10T09:57:22Z</time>
      </trkpt>
      <trkpt lat="47.1336" lon="6.03575">
        <ele>477.8</ele>
        <time>2022-08-10T09:57:23Z</time>
      </trkpt>
      <trkpt lat="47.13356" lon="6.03572">
        <ele>477.9</ele>
        <time>2022-08-10T09:57:24Z</time>
      </trkpt>
      <trkpt lat="47.13352" lon="6.03568">
        <ele>477.8</ele>
        <time>2022-08-10T09:57:25Z</time>
      </trkpt>
      <trkpt lat="47.13348" lon="6.03565">
        <ele>477.8</ele>
        <time>2022-08-10T09:57:26Z</time>
      </trkpt>
      <trkpt lat="47.13345" lon="6.03563">
        <ele>477.2</ele>
        <time>2022-08-10T09:57:27Z</time>
      </trkpt>
      <trkpt lat="47.13342" lon="6.0356">
        <ele>477.4</ele>
        <time>2022-08-10T09:57:28Z</time>
      </trkpt>
      <trkpt lat="47.13338" lon="6.03556">
        <ele>477.5</ele>
        <time>2022-08-10T09:57:29Z</time>
      </trkpt>
      <trkpt lat="47.13334" lon="6.03553">
        <ele>477.4</ele>
        <time>2022-08-10T09:57:30Z</time>
      </trkpt>
      <trkpt lat="47.13331" lon="6.0355">
        <ele>477.5</ele>
        <time>2022-08-10T09:57:31Z</time>
      </trkpt>
      <trkpt lat="47.13327" lon="6.03546">
        <ele>477.9</ele>
        <time>2022-08-10T09:57:32Z</time>
      </trkpt>
      <trkpt lat="47.13324" lon="6.03543">
        <ele>477.7</ele>
        <time>2022-08-10T09:57:33Z</time>
      </trkpt>
      <trkpt lat="47.1332" lon="6.03539">
        <ele>477.9</ele>
        <time>2022-08-10T09:57:34Z</time>
      </trkpt>
      <trkpt lat="47.13316" lon="6.03535">
        <ele>477.6</ele>
        <time>2022-08-10T09:57:35Z</time>
      </trkpt>
      <trkpt lat="47.13311" lon="6.0353">
        <ele>477.2</ele>
        <time>2022-08-10T09:57:36Z</time>
      </trkpt>
      <trkpt lat="47.13305" lon="6.03526">
        <ele>476.7</ele>
        <time>2022-08-10T09:57:37Z</time>
      </trkpt>
      <trkpt lat="47.133" lon="6.03522">
        <ele>476.3</ele>
        <time>2022-08-10T09:57:38Z</time>
      </trkpt>
      <trkpt lat="47.13294" lon="6.03519">
        <ele>476.5</ele>
        <time>2022-08-10T09:57:39Z</time>
      </trkpt>
      <trkpt lat="47.13289" lon="6.03515">
        <ele>476.9</ele>
        <time>2022-08-10T09:57:40Z</time>
      </trkpt>
      <trkpt lat="47.13284" lon="6.03511">
        <ele>477.3</ele>
        <time>2022-08-10T09:57:41Z</time>
      </trkpt>
      <trkpt lat="47.1328" lon="6.03507">
        <ele>477.7</ele>
        <time>2022-08-10T09:57:42Z</time>
      </trkpt>
      <trkpt lat="47.13276" lon="6.03503">
        <ele>478.1</ele>
        <time>2022-08-10T09:57:43Z</time>
      </trkpt>
      <trkpt lat="47.13271" lon="6.03499">
        <ele>478.3</ele>
        <time>2022-08-10T09:57:44Z</time>
      </trkpt>
      <trkpt lat="47.13267" lon="6.03494">
        <ele>478.4</ele>
        <time>2022-08-10T09:57:45Z</time>
      </trkpt>
      <trkpt lat="47.13263" lon="6.0349">
        <ele>478.5</ele>
        <time>2022-08-10T09:57:46Z</time>
      </trkpt>
      <trkpt lat="47.13259" lon="6.03486">
        <ele>478.6</ele>
        <time>2022-08-10T09:57:47Z</time>
      </trkpt>
      <trkpt lat="47.13255" lon="6.0348">
        <ele>478.3</ele>
        <time>2022-08-10T09:57:48Z</time>
      </trkpt>
      <trkpt lat="47.1325" lon="6.03475">
        <ele>477.6</ele>
        <time>2022-08-10T09:57:49Z</time>
      </trkpt>
      <trkpt lat="47.13246" lon="6.0347">
        <ele>477.4</ele>
        <time>2022-08-10T09:57:50Z</time>
      </trkpt>
      <trkpt lat="47.13242" lon="6.03466">
        <ele>477.6</ele>
        <time>2022-08-10T09:57:51Z</time>
      </trkpt>
      <trkpt lat="47.13238" lon="6.03461">
        <ele>477.6</ele>
        <time>2022-08-10T09:57:52Z</time>
      </trkpt>
      <trkpt lat="47.13234" lon="6.03456">
        <ele>477.2</ele>
        <time>2022-08-10T09:57:53Z</time>
      </trkpt>
      <trkpt lat="47.1323" lon="6.03451">
        <ele>475.5</ele>
        <time>2022-08-10T09:57:54Z</time>
      </trkpt>
      <trkpt lat="47.13226" lon="6.03446">
        <ele>474.6</ele>
        <time>2022-08-10T09:57:55Z</time>
      </trkpt>
      <trkpt lat="47.13222" lon="6.03442">
        <ele>473.9</ele>
        <time>2022-08-10T09:57:56Z</time>
      </trkpt>
      <trkpt lat="47.13218" lon="6.03438">
        <ele>473.5</ele>
        <time>2022-08-10T09:57:57Z</time>
      </trkpt>
      <trkpt lat="47.13215" lon="6.03434">
        <ele>473.3</ele>
        <time>2022-08-10T09:57:58Z</time>
      </trkpt>
      <trkpt lat="47.13211" lon="6.03431">
        <ele>473</ele>
        <time>2022-08-10T09:57:59Z</time>
      </trkpt>
      <trkpt lat="47.13207" lon="6.03428">
        <ele>472.8</ele>
        <time>2022-08-10T09:58:00Z</time>
      </trkpt>
      <trkpt lat="47.13204" lon="6.03425">
        <ele>472.4</ele>
        <time>2022-08-10T09:58:01Z</time>
      </trkpt>
      <trkpt lat="47.132" lon="6.03423">
        <ele>472.2</ele>
        <time>2022-08-10T09:58:02Z</time>
      </trkpt>
      <trkpt lat="47.13197" lon="6.0342">
        <ele>472.5</ele>
        <time>2022-08-10T09:58:03Z</time>
      </trkpt>
      <trkpt lat="47.13193" lon="6.03417">
        <ele>472.8</ele>
        <time>2022-08-10T09:58:04Z</time>
      </trkpt>
      <trkpt lat="47.13189" lon="6.03414">
        <ele>473.4</ele>
        <time>2022-08-10T09:58:05Z</time>
      </trkpt>
      <trkpt lat="47.13184" lon="6.03411">
        <ele>473.6</ele>
        <time>2022-08-10T09:58:06Z</time>
      </trkpt>
      <trkpt lat="47.1318" lon="6.03408">
        <ele>473.9</ele>
        <time>2022-08-10T09:58:07Z</time>
      </trkpt>
      <trkpt lat="47.13176" lon="6.03405">
        <ele>474.2</ele>
        <time>2022-08-10T09:58:08Z</time>
      </trkpt>
      <trkpt lat="47.13171" lon="6.03402">
        <ele>474.1</ele>
        <time>2022-08-10T09:58:09Z</time>
      </trkpt>
      <trkpt lat="47.13166" lon="6.03398">
        <ele>473.9</ele>
        <time>2022-08-10T09:58:10Z</time>
      </trkpt>
      <trkpt lat="47.13161" lon="6.03394">
        <ele>473.7</ele>
        <time>2022-08-10T09:58:11Z</time>
      </trkpt>
      <trkpt lat="47.13157" lon="6.0339">
        <ele>473.5</ele>
        <time>2022-08-10T09:58:12Z</time>
      </trkpt>
      <trkpt lat="47.13153" lon="6.03386">
        <ele>473.6</ele>
        <time>2022-08-10T09:58:13Z</time>
      </trkpt>
      <trkpt lat="47.13148" lon="6.03382">
        <ele>473.6</ele>
        <time>2022-08-10T09:58:14Z</time>
      </trkpt>
      <trkpt lat="47.13144" lon="6.03378">
        <ele>473.8</ele>
        <time>2022-08-10T09:58:15Z</time>
      </trkpt>
      <trkpt lat="47.1314" lon="6.03375">
        <ele>474.2</ele>
        <time>2022-08-10T09:58:16Z</time>
      </trkpt>
      <trkpt lat="47.13136" lon="6.03372">
        <ele>474.6</ele>
        <time>2022-08-10T09:58:17Z</time>
      </trkpt>
      <trkpt lat="47.13132" lon="6.03369">
        <ele>475.1</ele>
        <time>2022-08-10T09:58:18Z</time>
      </trkpt>
      <trkpt lat="47.13128" lon="6.03366">
        <ele>475.4</ele>
        <time>2022-08-10T09:58:19Z</time>
      </trkpt>
      <trkpt lat="47.13123" lon="6.03363">
        <ele>475.7</ele>
        <time>2022-08-10T09:58:20Z</time>
      </trkpt>
      <trkpt lat="47.1312" lon="6.0336">
        <ele>475.9</ele>
        <time>2022-08-10T09:58:21Z</time>
      </trkpt>
      <trkpt lat="47.13116" lon="6.03357">
        <ele>476.2</ele>
        <time>2022-08-10T09:58:22Z</time>
      </trkpt>
      <trkpt lat="47.13112" lon="6.03353">
        <ele>476.2</ele>
        <time>2022-08-10T09:58:23Z</time>
      </trkpt>
      <trkpt lat="47.13108" lon="6.0335">
        <ele>476.6</ele>
        <time>2022-08-10T09:58:24Z</time>
      </trkpt>
      <trkpt lat="47.13104" lon="6.03347">
        <ele>476.8</ele>
        <time>2022-08-10T09:58:25Z</time>
      </trkpt>
      <trkpt lat="47.131" lon="6.03343">
        <ele>477.3</ele>
        <time>2022-08-10T09:58:26Z</time>
      </trkpt>
      <trkpt lat="47.13094" lon="6.03338">
        <ele>477.1</ele>
        <time>2022-08-10T09:58:27Z</time>
      </trkpt>
      <trkpt lat="47.13089" lon="6.03333">
        <ele>477.7</ele>
        <time>2022-08-10T09:58:28Z</time>
      </trkpt>
      <trkpt lat="47.13085" lon="6.03329">
        <ele>478.1</ele>
        <time>2022-08-10T09:58:29Z</time>
      </trkpt>
      <trkpt lat="47.13081" lon="6.03326">
        <ele>478.4</ele>
        <time>2022-08-10T09:58:30Z</time>
      </trkpt>
      <trkpt lat="47.13077" lon="6.03322">
        <ele>478.8</ele>
        <time>2022-08-10T09:58:31Z</time>
      </trkpt>
      <trkpt lat="47.13072" lon="6.03318">
        <ele>479.1</ele>
        <time>2022-08-10T09:58:32Z</time>
      </trkpt>
      <trkpt lat="47.13069" lon="6.03315">
        <ele>479.5</ele>
        <time>2022-08-10T09:58:33Z</time>
      </trkpt>
      <trkpt lat="47.13065" lon="6.03312">
        <ele>479.3</ele>
        <time>2022-08-10T09:58:34Z</time>
      </trkpt>
      <trkpt lat="47.13061" lon="6.03308">
        <ele>479.3</ele>
        <time>2022-08-10T09:58:35Z</time>
      </trkpt>
      <trkpt lat="47.13057" lon="6.03305">
        <ele>479.7</ele>
        <time>2022-08-10T09:58:36Z</time>
      </trkpt>
      <trkpt lat="47.13054" lon="6.03303">
        <ele>480.3</ele>
        <time>2022-08-10T09:58:37Z</time>
      </trkpt>
      <trkpt lat="47.1305" lon="6.033">
        <ele>481</ele>
        <time>2022-08-10T09:58:38Z</time>
      </trkpt>
      <trkpt lat="47.13047" lon="6.03297">
        <ele>481.3</ele>
        <time>2022-08-10T09:58:39Z</time>
      </trkpt>
      <trkpt lat="47.13043" lon="6.03295">
        <ele>481.9</ele>
        <time>2022-08-10T09:58:40Z</time>
      </trkpt>
      <trkpt lat="47.13039" lon="6.03293">
        <ele>482.2</ele>
        <time>2022-08-10T09:58:41Z</time>
      </trkpt>
      <trkpt lat="47.13035" lon="6.03291">
        <ele>482.5</ele>
        <time>2022-08-10T09:58:42Z</time>
      </trkpt>
      <trkpt lat="47.13031" lon="6.03289">
        <ele>482.8</ele>
        <time>2022-08-10T09:58:43Z</time>
      </trkpt>
      <trkpt lat="47.13026" lon="6.03286">
        <ele>482.9</ele>
        <time>2022-08-10T09:58:44Z</time>
      </trkpt>
      <trkpt lat="47.1302" lon="6.03283">
        <ele>482.7</ele>
        <time>2022-08-10T09:58:45Z</time>
      </trkpt>
      <trkpt lat="47.13015" lon="6.0328">
        <ele>482.4</ele>
        <time>2022-08-10T09:58:46Z</time>
      </trkpt>
      <trkpt lat="47.1301" lon="6.03277">
        <ele>482.1</ele>
        <time>2022-08-10T09:58:47Z</time>
      </trkpt>
      <trkpt lat="47.13005" lon="6.03274">
        <ele>481.8</ele>
        <time>2022-08-10T09:58:48Z</time>
      </trkpt>
      <trkpt lat="47.13" lon="6.0327">
        <ele>481.2</ele>
        <time>2022-08-10T09:58:49Z</time>
      </trkpt>
      <trkpt lat="47.12996" lon="6.03266">
        <ele>480.8</ele>
        <time>2022-08-10T09:58:50Z</time>
      </trkpt>
      <trkpt lat="47.12992" lon="6.03263">
        <ele>480.8</ele>
        <time>2022-08-10T09:58:51Z</time>
      </trkpt>
      <trkpt lat="47.12988" lon="6.0326">
        <ele>480.3</ele>
        <time>2022-08-10T09:58:52Z</time>
      </trkpt>
      <trkpt lat="47.12984" lon="6.03257">
        <ele>480.3</ele>
        <time>2022-08-10T09:58:53Z</time>
      </trkpt>
      <trkpt lat="47.12979" lon="6.03253">
        <ele>480.4</ele>
        <time>2022-08-10T09:58:54Z</time>
      </trkpt>
      <trkpt lat="47.12972" lon="6.03249">
        <ele>480.6</ele>
        <time>2022-08-10T09:58:55Z</time>
      </trkpt>
      <trkpt lat="47.12967" lon="6.03246">
        <ele>480.7</ele>
        <time>2022-08-10T09:58:56Z</time>
      </trkpt>
      <trkpt lat="47.12963" lon="6.03242">
        <ele>481</ele>
        <time>2022-08-10T09:58:57Z</time>
      </trkpt>
      <trkpt lat="47.12957" lon="6.03237">
        <ele>481.2</ele>
        <time>2022-08-10T09:58:58Z</time>
      </trkpt>
      <trkpt lat="47.12952" lon="6.03234">
        <ele>481.5</ele>
        <time>2022-08-10T09:58:59Z</time>
      </trkpt>
      <trkpt lat="47.12947" lon="6.0323">
        <ele>482.1</ele>
        <time>2022-08-10T09:59:00Z</time>
      </trkpt>
      <trkpt lat="47.12942" lon="6.03227">
        <ele>482.5</ele>
        <time>2022-08-10T09:59:01Z</time>
      </trkpt>
      <trkpt lat="47.12938" lon="6.03224">
        <ele>482.7</ele>
        <time>2022-08-10T09:59:02Z</time>
      </trkpt>
      <trkpt lat="47.12933" lon="6.03221">
        <ele>483</ele>
        <time>2022-08-10T09:59:03Z</time>
      </trkpt>
      <trkpt lat="47.12928" lon="6.03217">
        <ele>483.3</ele>
        <time>2022-08-10T09:59:04Z</time>
      </trkpt>
      <trkpt lat="47.12923" lon="6.03213">
        <ele>483.4</ele>
        <time>2022-08-10T09:59:05Z</time>
      </trkpt>
      <trkpt lat="47.12918" lon="6.03209">
        <ele>483.6</ele>
        <time>2022-08-10T09:59:06Z</time>
      </trkpt>
      <trkpt lat="47.12914" lon="6.03205">
        <ele>483.4</ele>
        <time>2022-08-10T09:59:07Z</time>
      </trkpt>
      <trkpt lat="47.1291" lon="6.03201">
        <ele>482.9</ele>
        <time>2022-08-10T09:59:08Z</time>
      </trkpt>
      <trkpt lat="47.12905" lon="6.03197">
        <ele>482.3</ele>
        <time>2022-08-10T09:59:09Z</time>
      </trkpt>
      <trkpt lat="47.12901" lon="6.03193">
        <ele>481.6</ele>
        <time>2022-08-10T09:59:10Z</time>
      </trkpt>
      <trkpt lat="47.12896" lon="6.0319">
        <ele>480.9</ele>
        <time>2022-08-10T09:59:11Z</time>
      </trkpt>
      <trkpt lat="47.12892" lon="6.03186">
        <ele>480.8</ele>
        <time>2022-08-10T09:59:12Z</time>
      </trkpt>
      <trkpt lat="47.12888" lon="6.0318">
        <ele>481</ele>
        <time>2022-08-10T09:59:13Z</time>
      </trkpt>
      <trkpt lat="47.12884" lon="6.03176">
        <ele>481.1</ele>
        <time>2022-08-10T09:59:14Z</time>
      </trkpt>
      <trkpt lat="47.1288" lon="6.03172">
        <ele>480.8</ele>
        <time>2022-08-10T09:59:15Z</time>
      </trkpt>
      <trkpt lat="47.12876" lon="6.03169">
        <ele>480.9</ele>
        <time>2022-08-10T09:59:16Z</time>
      </trkpt>
      <trkpt lat="47.12872" lon="6.03165">
        <ele>480.8</ele>
        <time>2022-08-10T09:59:17Z</time>
      </trkpt>
      <trkpt lat="47.12868" lon="6.03162">
        <ele>480.8</ele>
        <time>2022-08-10T09:59:18Z</time>
      </trkpt>
      <trkpt lat="47.12863" lon="6.03158">
        <ele>480.4</ele>
        <time>2022-08-10T09:59:19Z</time>
      </trkpt>
      <trkpt lat="47.12859" lon="6.03155">
        <ele>479.9</ele>
        <time>2022-08-10T09:59:20Z</time>
      </trkpt>
      <trkpt lat="47.12854" lon="6.03152">
        <ele>479.7</ele>
        <time>2022-08-10T09:59:21Z</time>
      </trkpt>
      <trkpt lat="47.1285" lon="6.0315">
        <ele>479.5</ele>
        <time>2022-08-10T09:59:22Z</time>
      </trkpt>
      <trkpt lat="47.12846" lon="6.03148">
        <ele>479.9</ele>
        <time>2022-08-10T09:59:23Z</time>
      </trkpt>
      <trkpt lat="47.12841" lon="6.03144">
        <ele>479.5</ele>
        <time>2022-08-10T09:59:24Z</time>
      </trkpt>
      <trkpt lat="47.12838" lon="6.0314">
        <ele>479.3</ele>
        <time>2022-08-10T09:59:25Z</time>
      </trkpt>
      <trkpt lat="47.12834" lon="6.03136">
        <ele>478.9</ele>
        <time>2022-08-10T09:59:26Z</time>
      </trkpt>
      <trkpt lat="47.1283" lon="6.03132">
        <ele>478.9</ele>
        <time>2022-08-10T09:59:27Z</time>
      </trkpt>
      <trkpt lat="47.12826" lon="6.03129">
        <ele>478.9</ele>
        <time>2022-08-10T09:59:28Z</time>
      </trkpt>
      <trkpt lat="47.12822" lon="6.03126">
        <ele>479</ele>
        <time>2022-08-10T09:59:29Z</time>
      </trkpt>
      <trkpt lat="47.12818" lon="6.03123">
        <ele>478.7</ele>
        <time>2022-08-10T09:59:30Z</time>
      </trkpt>
      <trkpt lat="47.12814" lon="6.0312">
        <ele>478.4</ele>
        <time>2022-08-10T09:59:31Z</time>
      </trkpt>
      <trkpt lat="47.1281" lon="6.03116">
        <ele>477.9</ele>
        <time>2022-08-10T09:59:32Z</time>
      </trkpt>
      <trkpt lat="47.12806" lon="6.03113">
        <ele>477.3</ele>
        <time>2022-08-10T09:59:33Z</time>
      </trkpt>
      <trkpt lat="47.12802" lon="6.0311">
        <ele>476.9</ele>
        <time>2022-08-10T09:59:34Z</time>
      </trkpt>
      <trkpt lat="47.12798" lon="6.03108">
        <ele>477</ele>
        <time>2022-08-10T09:59:35Z</time>
      </trkpt>
      <trkpt lat="47.12794" lon="6.03105">
        <ele>476.7</ele>
        <time>2022-08-10T09:59:36Z</time>
      </trkpt>
      <trkpt lat="47.12791" lon="6.03102">
        <ele>476.8</ele>
        <time>2022-08-10T09:59:37Z</time>
      </trkpt>
      <trkpt lat="47.12787" lon="6.03099">
        <ele>476.7</ele>
        <time>2022-08-10T09:59:38Z</time>
      </trkpt>
      <trkpt lat="47.12784" lon="6.03096">
        <ele>476.3</ele>
        <time>2022-08-10T09:59:39Z</time>
      </trkpt>
      <trkpt lat="47.1278" lon="6.03094">
        <ele>475.8</ele>
        <time>2022-08-10T09:59:40Z</time>
      </trkpt>
      <trkpt lat="47.12777" lon="6.03092">
        <ele>475.7</ele>
        <time>2022-08-10T09:59:41Z</time>
      </trkpt>
      <trkpt lat="47.12773" lon="6.0309">
        <ele>475.9</ele>
        <time>2022-08-10T09:59:42Z</time>
      </trkpt>
      <trkpt lat="47.1277" lon="6.03087">
        <ele>476</ele>
        <time>2022-08-10T09:59:43Z</time>
      </trkpt>
      <trkpt lat="47.12767" lon="6.03085">
        <ele>476.3</ele>
        <time>2022-08-10T09:59:44Z</time>
      </trkpt>
      <trkpt lat="47.12764" lon="6.03082">
        <ele>476.9</ele>
        <time>2022-08-10T09:59:45Z</time>
      </trkpt>
      <trkpt lat="47.12761" lon="6.0308">
        <ele>477.6</ele>
        <time>2022-08-10T09:59:46Z</time>
      </trkpt>
      <trkpt lat="47.12757" lon="6.03077">
        <ele>478.1</ele>
        <time>2022-08-10T09:59:47Z</time>
      </trkpt>
      <trkpt lat="47.12753" lon="6.03075">
        <ele>478.6</ele>
        <time>2022-08-10T09:59:48Z</time>
      </trkpt>
      <trkpt lat="47.12749" lon="6.03072">
        <ele>478.4</ele>
        <time>2022-08-10T09:59:49Z</time>
      </trkpt>
      <trkpt lat="47.12744" lon="6.03069">
        <ele>478.3</ele>
        <time>2022-08-10T09:59:50Z</time>
      </trkpt>
      <trkpt lat="47.12739" lon="6.03065">
        <ele>477.8</ele>
        <time>2022-08-10T09:59:51Z</time>
      </trkpt>
      <trkpt lat="47.12735" lon="6.03062">
        <ele>478.1</ele>
        <time>2022-08-10T09:59:52Z</time>
      </trkpt>
      <trkpt lat="47.12731" lon="6.03059">
        <ele>478</ele>
        <time>2022-08-10T09:59:53Z</time>
      </trkpt>
      <trkpt lat="47.12727" lon="6.03055">
        <ele>477.7</ele>
        <time>2022-08-10T09:59:54Z</time>
      </trkpt>
      <trkpt lat="47.12723" lon="6.03052">
        <ele>477.2</ele>
        <time>2022-08-10T09:59:55Z</time>
      </trkpt>
      <trkpt lat="47.12719" lon="6.03048">
        <ele>477</ele>
        <time>2022-08-10T09:59:56Z</time>
      </trkpt>
      <trkpt lat="47.12715" lon="6.03045">
        <ele>476.5</ele>
        <time>2022-08-10T09:59:57Z</time>
      </trkpt>
      <trkpt lat="47.12711" lon="6.03042">
        <ele>476.3</ele>
        <time>2022-08-10T09:59:58Z</time>
      </trkpt>
      <trkpt lat="47.12708" lon="6.03039">
        <ele>475.9</ele>
        <time>2022-08-10T09:59:59Z</time>
      </trkpt>
      <trkpt lat="47.12703" lon="6.03036">
        <ele>475.4</ele>
        <time>2022-08-10T10:00:00Z</time>
      </trkpt>
      <trkpt lat="47.12699" lon="6.03033">
        <ele>475.5</ele>
        <time>2022-08-10T10:00:01Z</time>
      </trkpt>
      <trkpt lat="47.12695" lon="6.03031">
        <ele>475.8</ele>
        <time>2022-08-10T10:00:02Z</time>
      </trkpt>
      <trkpt lat="47.1269" lon="6.03028">
        <ele>476.5</ele>
        <time>2022-08-10T10:00:03Z</time>
      </trkpt>
      <trkpt lat="47.12686" lon="6.03025">
        <ele>476.6</ele>
        <time>2022-08-10T10:00:04Z</time>
      </trkpt>
      <trkpt lat="47.12681" lon="6.03021">
        <ele>476.9</ele>
        <time>2022-08-10T10:00:05Z</time>
      </trkpt>
      <trkpt lat="47.12677" lon="6.03017">
        <ele>476.9</ele>
        <time>2022-08-10T10:00:06Z</time>
      </trkpt>
      <trkpt lat="47.12674" lon="6.03014">
        <ele>477</ele>
        <time>2022-08-10T10:00:07Z</time>
      </trkpt>
      <trkpt lat="47.1267" lon="6.0301">
        <ele>476.9</ele>
        <time>2022-08-10T10:00:08Z</time>
      </trkpt>
      <trkpt lat="47.12667" lon="6.03007">
        <ele>476.9</ele>
        <time>2022-08-10T10:00:09Z</time>
      </trkpt>
      <trkpt lat="47.12663" lon="6.03005">
        <ele>476.6</ele>
        <time>2022-08-10T10:00:10Z</time>
      </trkpt>
      <trkpt lat="47.12659" lon="6.03003">
        <ele>476.4</ele>
        <time>2022-08-10T10:00:11Z</time>
      </trkpt>
      <trkpt lat="47.12656" lon="6.03">
        <ele>476.7</ele>
        <time>2022-08-10T10:00:12Z</time>
      </trkpt>
      <trkpt lat="47.12654" lon="6.02998">
        <ele>476.8</ele>
        <time>2022-08-10T10:00:13Z</time>
      </trkpt>
      <trkpt lat="47.12653" lon="6.02995">
        <ele>477</ele>
        <time>2022-08-10T10:00:14Z</time>
      </trkpt>
      <trkpt lat="47.12653" lon="6.02993">
        <ele>477.5</ele>
        <time>2022-08-10T10:00:15Z</time>
      </trkpt>
      <trkpt lat="47.12653" lon="6.02991">
        <ele>477.6</ele>
        <time>2022-08-10T10:00:16Z</time>
      </trkpt>
      <trkpt lat="47.12653" lon="6.0299">
        <ele>478</ele>
        <time>2022-08-10T10:00:17Z</time>
      </trkpt>
      <trkpt lat="47.12654" lon="6.02988">
        <ele>478.6</ele>
        <time>2022-08-10T10:00:18Z</time>
      </trkpt>
      <trkpt lat="47.12654" lon="6.02987">
        <ele>479.7</ele>
        <time>2022-08-10T10:00:19Z</time>
      </trkpt>
      <trkpt lat="47.12655" lon="6.02985">
        <ele>480.5</ele>
        <time>2022-08-10T10:00:20Z</time>
      </trkpt>
      <trkpt lat="47.12656" lon="6.02982">
        <ele>481.1</ele>
        <time>2022-08-10T10:00:21Z</time>
      </trkpt>
      <trkpt lat="47.12657" lon="6.02979">
        <ele>481.5</ele>
        <time>2022-08-10T10:00:22Z</time>
      </trkpt>
      <trkpt lat="47.12659" lon="6.02977">
        <ele>482.3</ele>
        <time>2022-08-10T10:00:23Z</time>
      </trkpt>
      <trkpt lat="47.12661" lon="6.02973">
        <ele>483.2</ele>
        <time>2022-08-10T10:00:24Z</time>
      </trkpt>
      <trkpt lat="47.12663" lon="6.02969">
        <ele>483.6</ele>
        <time>2022-08-10T10:00:25Z</time>
      </trkpt>
      <trkpt lat="47.12666" lon="6.02964">
        <ele>483.8</ele>
        <time>2022-08-10T10:00:26Z</time>
      </trkpt>
      <trkpt lat="47.12669" lon="6.0296">
        <ele>484</ele>
        <time>2022-08-10T10:00:27Z</time>
      </trkpt>
      <trkpt lat="47.12672" lon="6.02954">
        <ele>483.6</ele>
        <time>2022-08-10T10:00:28Z</time>
      </trkpt>
      <trkpt lat="47.12675" lon="6.02949">
        <ele>483.1</ele>
        <time>2022-08-10T10:00:29Z</time>
      </trkpt>
      <trkpt lat="47.12678" lon="6.02944">
        <ele>482.5</ele>
        <time>2022-08-10T10:00:30Z</time>
      </trkpt>
      <trkpt lat="47.1268" lon="6.02939">
        <ele>482.4</ele>
        <time>2022-08-10T10:00:31Z</time>
      </trkpt>
      <trkpt lat="47.12683" lon="6.02933">
        <ele>482.2</ele>
        <time>2022-08-10T10:00:32Z</time>
      </trkpt>
      <trkpt lat="47.12685" lon="6.02929">
        <ele>482.4</ele>
        <time>2022-08-10T10:00:33Z</time>
      </trkpt>
      <trkpt lat="47.12687" lon="6.02924">
        <ele>482.6</ele>
        <time>2022-08-10T10:00:34Z</time>
      </trkpt>
      <trkpt lat="47.1269" lon="6.02919">
        <ele>482.4</ele>
        <time>2022-08-10T10:00:35Z</time>
      </trkpt>
      <trkpt lat="47.12692" lon="6.02915">
        <ele>482.3</ele>
        <time>2022-08-10T10:00:36Z</time>
      </trkpt>
      <trkpt lat="47.12695" lon="6.02912">
        <ele>482.2</ele>
        <time>2022-08-10T10:00:37Z</time>
      </trkpt>
      <trkpt lat="47.12697" lon="6.02908">
        <ele>482.2</ele>
        <time>2022-08-10T10:00:38Z</time>
      </trkpt>
      <trkpt lat="47.12699" lon="6.02905">
        <ele>482.3</ele>
        <time>2022-08-10T10:00:39Z</time>
      </trkpt>
      <trkpt lat="47.12702" lon="6.02901">
        <ele>482.5</ele>
        <time>2022-08-10T10:00:40Z</time>
      </trkpt>
      <trkpt lat="47.12704" lon="6.02897">
        <ele>482.4</ele>
        <time>2022-08-10T10:00:41Z</time>
      </trkpt>
      <trkpt lat="47.12706" lon="6.02893">
        <ele>482</ele>
        <time>2022-08-10T10:00:42Z</time>
      </trkpt>
      <trkpt lat="47.12709" lon="6.02889">
        <ele>482.1</ele>
        <time>2022-08-10T10:00:43Z</time>
      </trkpt>
      <trkpt lat="47.12711" lon="6.02886">
        <ele>482.5</ele>
        <time>2022-08-10T10:00:44Z</time>
      </trkpt>
      <trkpt lat="47.12713" lon="6.02882">
        <ele>483</ele>
        <time>2022-08-10T10:00:45Z</time>
      </trkpt>
      <trkpt lat="47.12715" lon="6.02879">
        <ele>482.8</ele>
        <time>2022-08-10T10:00:46Z</time>
      </trkpt>
      <trkpt lat="47.12718" lon="6.02876">
        <ele>482.9</ele>
        <time>2022-08-10T10:00:47Z</time>
      </trkpt>
      <trkpt lat="47.1272" lon="6.02872">
        <ele>483</ele>
        <time>2022-08-10T10:00:48Z</time>
      </trkpt>
      <trkpt lat="47.12722" lon="6.02868">
        <ele>483.2</ele>
        <time>2022-08-10T10:00:49Z</time>
      </trkpt>
      <trkpt lat="47.12725" lon="6.02864">
        <ele>483.5</ele>
        <time>2022-08-10T10:00:50Z</time>
      </trkpt>
      <trkpt lat="47.12727" lon="6.02859">
        <ele>483.9</ele>
        <time>2022-08-10T10:00:51Z</time>
      </trkpt>
      <trkpt lat="47.12729" lon="6.02855">
        <ele>484.3</ele>
        <time>2022-08-10T10:00:52Z</time>
      </trkpt>
      <trkpt lat="47.12731" lon="6.02852">
        <ele>484.6</ele>
        <time>2022-08-10T10:00:53Z</time>
      </trkpt>
      <trkpt lat="47.12733" lon="6.02848">
        <ele>484.9</ele>
        <time>2022-08-10T10:00:54Z</time>
      </trkpt>
      <trkpt lat="47.12735" lon="6.02844">
        <ele>485.1</ele>
        <time>2022-08-10T10:00:55Z</time>
      </trkpt>
      <trkpt lat="47.12737" lon="6.0284">
        <ele>485.4</ele>
        <time>2022-08-10T10:00:56Z</time>
      </trkpt>
      <trkpt lat="47.1274" lon="6.02837">
        <ele>485.7</ele>
        <time>2022-08-10T10:00:57Z</time>
      </trkpt>
      <trkpt lat="47.12742" lon="6.02832">
        <ele>485.4</ele>
        <time>2022-08-10T10:00:58Z</time>
      </trkpt>
      <trkpt lat="47.12745" lon="6.02829">
        <ele>485.6</ele>
        <time>2022-08-10T10:00:59Z</time>
      </trkpt>
      <trkpt lat="47.12747" lon="6.02825">
        <ele>485.9</ele>
        <time>2022-08-10T10:01:00Z</time>
      </trkpt>
      <trkpt lat="47.1275" lon="6.02821">
        <ele>486.1</ele>
        <time>2022-08-10T10:01:01Z</time>
      </trkpt>
      <trkpt lat="47.12753" lon="6.02819">
        <ele>487.2</ele>
        <time>2022-08-10T10:01:02Z</time>
      </trkpt>
      <trkpt lat="47.12755" lon="6.02816">
        <ele>488</ele>
        <time>2022-08-10T10:01:03Z</time>
      </trkpt>
      <trkpt lat="47.12759" lon="6.02813">
        <ele>488.4</ele>
        <time>2022-08-10T10:01:04Z</time>
      </trkpt>
      <trkpt lat="47.12763" lon="6.02811">
        <ele>488.5</ele>
        <time>2022-08-10T10:01:05Z</time>
      </trkpt>
      <trkpt lat="47.12767" lon="6.0281">
        <ele>488.5</ele>
        <time>2022-08-10T10:01:06Z</time>
      </trkpt>
      <trkpt lat="47.12771" lon="6.02808">
        <ele>488.5</ele>
        <time>2022-08-10T10:01:07Z</time>
      </trkpt>
      <trkpt lat="47.12774" lon="6.02807">
        <ele>488.9</ele>
        <time>2022-08-10T10:01:08Z</time>
      </trkpt>
      <trkpt lat="47.12778" lon="6.02806">
        <ele>489</ele>
        <time>2022-08-10T10:01:09Z</time>
      </trkpt>
      <trkpt lat="47.12782" lon="6.02804">
        <ele>489.1</ele>
        <time>2022-08-10T10:01:10Z</time>
      </trkpt>
      <trkpt lat="47.12785" lon="6.02801">
        <ele>489.1</ele>
        <time>2022-08-10T10:01:11Z</time>
      </trkpt>
      <trkpt lat="47.12789" lon="6.02797">
        <ele>489.8</ele>
        <time>2022-08-10T10:01:12Z</time>
      </trkpt>
      <trkpt lat="47.12793" lon="6.02794">
        <ele>490.2</ele>
        <time>2022-08-10T10:01:13Z</time>
      </trkpt>
      <trkpt lat="47.12796" lon="6.0279">
        <ele>490.5</ele>
        <time>2022-08-10T10:01:14Z</time>
      </trkpt>
      <trkpt lat="47.128" lon="6.02787">
        <ele>491.1</ele>
        <time>2022-08-10T10:01:15Z</time>
      </trkpt>
      <trkpt lat="47.12803" lon="6.02783">
        <ele>491.7</ele>
        <time>2022-08-10T10:01:16Z</time>
      </trkpt>
      <trkpt lat="47.12805" lon="6.02781">
        <ele>492.5</ele>
        <time>2022-08-10T10:01:17Z</time>
      </trkpt>
      <trkpt lat="47.12808" lon="6.02779">
        <ele>493.1</ele>
        <time>2022-08-10T10:01:18Z</time>
      </trkpt>
      <trkpt lat="47.12811" lon="6.02777">
        <ele>494.4</ele>
        <time>2022-08-10T10:01:19Z</time>
      </trkpt>
      <trkpt lat="47.12813" lon="6.02775">
        <ele>495.2</ele>
        <time>2022-08-10T10:01:20Z</time>
      </trkpt>
      <trkpt lat="47.12815" lon="6.02773">
        <ele>495.5</ele>
        <time>2022-08-10T10:01:21Z</time>
      </trkpt>
      <trkpt lat="47.12818" lon="6.02772">
        <ele>496.1</ele>
        <time>2022-08-10T10:01:22Z</time>
      </trkpt>
      <trkpt lat="47.12821" lon="6.02769">
        <ele>497</ele>
        <time>2022-08-10T10:01:23Z</time>
      </trkpt>
      <trkpt lat="47.12824" lon="6.02768">
        <ele>497.4</ele>
        <time>2022-08-10T10:01:24Z</time>
      </trkpt>
      <trkpt lat="47.12828" lon="6.02766">
        <ele>497.8</ele>
        <time>2022-08-10T10:01:25Z</time>
      </trkpt>
      <trkpt lat="47.12833" lon="6.02763">
        <ele>498.5</ele>
        <time>2022-08-10T10:01:26Z</time>
      </trkpt>
      <trkpt lat="47.12837" lon="6.02761">
        <ele>498.7</ele>
        <time>2022-08-10T10:01:27Z</time>
      </trkpt>
      <trkpt lat="47.1284" lon="6.0276">
        <ele>498.8</ele>
        <time>2022-08-10T10:01:28Z</time>
      </trkpt>
      <trkpt lat="47.12843" lon="6.02758">
        <ele>499</ele>
        <time>2022-08-10T10:01:29Z</time>
      </trkpt>
      <trkpt lat="47.12846" lon="6.02757">
        <ele>499.3</ele>
        <time>2022-08-10T10:01:30Z</time>
      </trkpt>
      <trkpt lat="47.12848" lon="6.02756">
        <ele>499.6</ele>
        <time>2022-08-10T10:01:31Z</time>
      </trkpt>
      <trkpt lat="47.1285" lon="6.02755">
        <ele>499.5</ele>
        <time>2022-08-10T10:01:32Z</time>
      </trkpt>
      <trkpt lat="47.12851" lon="6.02755">
        <ele>499.3</ele>
        <time>2022-08-10T10:01:33Z</time>
      </trkpt>
      <trkpt lat="47.12853" lon="6.02753">
        <ele>499.6</ele>
        <time>2022-08-10T10:01:34Z</time>
      </trkpt>
      <trkpt lat="47.12856" lon="6.02751">
        <ele>499.9</ele>
        <time>2022-08-10T10:01:35Z</time>
      </trkpt>
      <trkpt lat="47.12858" lon="6.0275">
        <ele>499.9</ele>
        <time>2022-08-10T10:01:36Z</time>
      </trkpt>
      <trkpt lat="47.1286" lon="6.02749">
        <ele>499.8</ele>
        <time>2022-08-10T10:01:37Z</time>
      </trkpt>
      <trkpt lat="47.12861" lon="6.02747">
        <ele>499.6</ele>
        <time>2022-08-10T10:01:38Z</time>
      </trkpt>
      <trkpt lat="47.12863" lon="6.02746">
        <ele>499.4</ele>
        <time>2022-08-10T10:01:39Z</time>
      </trkpt>
      <trkpt lat="47.12865" lon="6.02745">
        <ele>499.2</ele>
        <time>2022-08-10T10:01:40Z</time>
      </trkpt>
      <trkpt lat="47.12868" lon="6.02743">
        <ele>499</ele>
        <time>2022-08-10T10:01:41Z</time>
      </trkpt>
      <trkpt lat="47.12871" lon="6.0274">
        <ele>498.7</ele>
        <time>2022-08-10T10:01:42Z</time>
      </trkpt>
      <trkpt lat="47.12875" lon="6.02736">
        <ele>498.2</ele>
        <time>2022-08-10T10:01:43Z</time>
      </trkpt>
      <trkpt lat="47.12879" lon="6.02732">
        <ele>497.4</ele>
        <time>2022-08-10T10:01:44Z</time>
      </trkpt>
      <trkpt lat="47.12883" lon="6.02727">
        <ele>496.5</ele>
        <time>2022-08-10T10:01:45Z</time>
      </trkpt>
      <trkpt lat="47.12887" lon="6.02722">
        <ele>496</ele>
        <time>2022-08-10T10:01:46Z</time>
      </trkpt>
      <trkpt lat="47.12891" lon="6.02717">
        <ele>495.5</ele>
        <time>2022-08-10T10:01:47Z</time>
      </trkpt>
      <trkpt lat="47.12895" lon="6.02713">
        <ele>495.2</ele>
        <time>2022-08-10T10:01:48Z</time>
      </trkpt>
      <trkpt lat="47.12899" lon="6.02708">
        <ele>495</ele>
        <time>2022-08-10T10:01:49Z</time>
      </trkpt>
      <trkpt lat="47.12902" lon="6.02705">
        <ele>494.8</ele>
        <time>2022-08-10T10:01:50Z</time>
      </trkpt>
      <trkpt lat="47.12905" lon="6.02703">
        <ele>494.5</ele>
        <time>2022-08-10T10:01:51Z</time>
      </trkpt>
      <trkpt lat="47.12908" lon="6.02701">
        <ele>494</ele>
        <time>2022-08-10T10:01:52Z</time>
      </trkpt>
      <trkpt lat="47.12911" lon="6.02699">
        <ele>493.6</ele>
        <time>2022-08-10T10:01:53Z</time>
      </trkpt>
      <trkpt lat="47.12913" lon="6.02697">
        <ele>493.3</ele>
        <time>2022-08-10T10:01:54Z</time>
      </trkpt>
      <trkpt lat="47.12916" lon="6.02695">
        <ele>493.2</ele>
        <time>2022-08-10T10:01:55Z</time>
      </trkpt>
      <trkpt lat="47.12919" lon="6.02694">
        <ele>493</ele>
        <time>2022-08-10T10:01:56Z</time>
      </trkpt>
      <trkpt lat="47.12921" lon="6.02693">
        <ele>492.6</ele>
        <time>2022-08-10T10:01:57Z</time>
      </trkpt>
      <trkpt lat="47.12923" lon="6.02692">
        <ele>492.1</ele>
        <time>2022-08-10T10:01:58Z</time>
      </trkpt>
      <trkpt lat="47.12925" lon="6.02691">
        <ele>491.6</ele>
        <time>2022-08-10T10:01:59Z</time>
      </trkpt>
      <trkpt lat="47.12927" lon="6.0269">
        <ele>491.2</ele>
        <time>2022-08-10T10:02:00Z</time>
      </trkpt>
      <trkpt lat="47.1293" lon="6.02688">
        <ele>491.2</ele>
        <time>2022-08-10T10:02:01Z</time>
      </trkpt>
      <trkpt lat="47.12932" lon="6.02687">
        <ele>491.5</ele>
        <time>2022-08-10T10:02:02Z</time>
      </trkpt>
      <trkpt lat="47.12934" lon="6.02686">
        <ele>491.7</ele>
        <time>2022-08-10T10:02:03Z</time>
      </trkpt>
      <trkpt lat="47.12936" lon="6.02685">
        <ele>492</ele>
        <time>2022-08-10T10:02:04Z</time>
      </trkpt>
      <trkpt lat="47.12938" lon="6.02685">
        <ele>492.2</ele>
        <time>2022-08-10T10:02:05Z</time>
      </trkpt>
      <trkpt lat="47.12939" lon="6.02686">
        <ele>492.7</ele>
        <time>2022-08-10T10:02:06Z</time>
      </trkpt>
      <trkpt lat="47.12941" lon="6.02686">
        <ele>492.9</ele>
        <time>2022-08-10T10:02:07Z</time>
      </trkpt>
      <trkpt lat="47.12943" lon="6.02686">
        <ele>493.4</ele>
        <time>2022-08-10T10:02:08Z</time>
      </trkpt>
      <trkpt lat="47.12945" lon="6.02688">
        <ele>494</ele>
        <time>2022-08-10T10:02:09Z</time>
      </trkpt>
      <trkpt lat="47.12948" lon="6.02688">
        <ele>494.5</ele>
        <time>2022-08-10T10:02:10Z</time>
      </trkpt>
      <trkpt lat="47.12951" lon="6.02689">
        <ele>495.2</ele>
        <time>2022-08-10T10:02:11Z</time>
      </trkpt>
      <trkpt lat="47.12954" lon="6.0269">
        <ele>495.6</ele>
        <time>2022-08-10T10:02:12Z</time>
      </trkpt>
      <trkpt lat="47.12957" lon="6.02691">
        <ele>496.5</ele>
        <time>2022-08-10T10:02:13Z</time>
      </trkpt>
      <trkpt lat="47.1296" lon="6.02692">
        <ele>496.9</ele>
        <time>2022-08-10T10:02:14Z</time>
      </trkpt>
      <trkpt lat="47.12963" lon="6.02693">
        <ele>497.4</ele>
        <time>2022-08-10T10:02:15Z</time>
      </trkpt>
      <trkpt lat="47.12966" lon="6.02694">
        <ele>497.7</ele>
        <time>2022-08-10T10:02:16Z</time>
      </trkpt>
      <trkpt lat="47.12968" lon="6.02695">
        <ele>498</ele>
        <time>2022-08-10T10:02:17Z</time>
      </trkpt>
      <trkpt lat="47.12971" lon="6.02696">
        <ele>498.4</ele>
        <time>2022-08-10T10:02:18Z</time>
      </trkpt>
      <trkpt lat="47.12973" lon="6.02697">
        <ele>498.8</ele>
        <time>2022-08-10T10:02:19Z</time>
      </trkpt>
      <trkpt lat="47.12976" lon="6.02697">
        <ele>499.3</ele>
        <time>2022-08-10T10:02:20Z</time>
      </trkpt>
      <trkpt lat="47.12978" lon="6.02698">
        <ele>499.7</ele>
        <time>2022-08-10T10:02:21Z</time>
      </trkpt>
      <trkpt lat="47.12981" lon="6.02699">
        <ele>500.1</ele>
        <time>2022-08-10T10:02:22Z</time>
      </trkpt>
      <trkpt lat="47.12983" lon="6.027">
        <ele>500.7</ele>
        <time>2022-08-10T10:02:23Z</time>
      </trkpt>
      <trkpt lat="47.12985" lon="6.027">
        <ele>501.3</ele>
        <time>2022-08-10T10:02:24Z</time>
      </trkpt>
      <trkpt lat="47.12987" lon="6.02702">
        <ele>501.4</ele>
        <time>2022-08-10T10:02:25Z</time>
      </trkpt>
      <trkpt lat="47.12989" lon="6.02703">
        <ele>501.7</ele>
        <time>2022-08-10T10:02:26Z</time>
      </trkpt>
      <trkpt lat="47.12992" lon="6.02704">
        <ele>502.1</ele>
        <time>2022-08-10T10:02:27Z</time>
      </trkpt>
      <trkpt lat="47.12995" lon="6.02704">
        <ele>502.5</ele>
        <time>2022-08-10T10:02:28Z</time>
      </trkpt>
      <trkpt lat="47.12998" lon="6.02705">
        <ele>503.1</ele>
        <time>2022-08-10T10:02:29Z</time>
      </trkpt>
      <trkpt lat="47.13001" lon="6.02706">
        <ele>503.8</ele>
        <time>2022-08-10T10:02:30Z</time>
      </trkpt>
      <trkpt lat="47.13004" lon="6.02708">
        <ele>504.6</ele>
        <time>2022-08-10T10:02:31Z</time>
      </trkpt>
      <trkpt lat="47.13006" lon="6.02709">
        <ele>505.4</ele>
        <time>2022-08-10T10:02:32Z</time>
      </trkpt>
      <trkpt lat="47.13008" lon="6.02711">
        <ele>505.9</ele>
        <time>2022-08-10T10:02:33Z</time>
      </trkpt>
      <trkpt lat="47.1301" lon="6.02713">
        <ele>506.5</ele>
        <time>2022-08-10T10:02:34Z</time>
      </trkpt>
      <trkpt lat="47.13013" lon="6.02715">
        <ele>506.8</ele>
        <time>2022-08-10T10:02:35Z</time>
      </trkpt>
      <trkpt lat="47.13015" lon="6.02717">
        <ele>507.3</ele>
        <time>2022-08-10T10:02:36Z</time>
      </trkpt>
      <trkpt lat="47.13018" lon="6.02718">
        <ele>507.7</ele>
        <time>2022-08-10T10:02:37Z</time>
      </trkpt>
      <trkpt lat="47.1302" lon="6.02719">
        <ele>508.2</ele>
        <time>2022-08-10T10:02:38Z</time>
      </trkpt>
      <trkpt lat="47.13022" lon="6.0272">
        <ele>508.5</ele>
        <time>2022-08-10T10:02:39Z</time>
      </trkpt>
      <trkpt lat="47.13025" lon="6.02722">
        <ele>508.9</ele>
        <time>2022-08-10T10:02:40Z</time>
      </trkpt>
      <trkpt lat="47.13027" lon="6.02723">
        <ele>509.5</ele>
        <time>2022-08-10T10:02:41Z</time>
      </trkpt>
      <trkpt lat="47.13029" lon="6.02724">
        <ele>510.2</ele>
        <time>2022-08-10T10:02:42Z</time>
      </trkpt>
      <trkpt lat="47.13031" lon="6.02726">
        <ele>511.1</ele>
        <time>2022-08-10T10:02:43Z</time>
      </trkpt>
      <trkpt lat="47.13033" lon="6.02728">
        <ele>511.9</ele>
        <time>2022-08-10T10:02:44Z</time>
      </trkpt>
      <trkpt lat="47.13035" lon="6.0273">
        <ele>512.6</ele>
        <time>2022-08-10T10:02:45Z</time>
      </trkpt>
      <trkpt lat="47.13039" lon="6.02732">
        <ele>512.9</ele>
        <time>2022-08-10T10:02:46Z</time>
      </trkpt>
      <trkpt lat="47.13042" lon="6.02734">
        <ele>513.4</ele>
        <time>2022-08-10T10:02:47Z</time>
      </trkpt>
      <trkpt lat="47.13045" lon="6.02736">
        <ele>514.4</ele>
        <time>2022-08-10T10:02:48Z</time>
      </trkpt>
      <trkpt lat="47.13052" lon="6.02743">
        <ele>513.4</ele>
        <time>2022-08-10T10:02:49Z</time>
      </trkpt>
      <trkpt lat="47.13061" lon="6.02748">
        <ele>512.3</ele>
        <time>2022-08-10T10:02:50Z</time>
      </trkpt>
      <trkpt lat="47.13064" lon="6.02749">
        <ele>513</ele>
        <time>2022-08-10T10:02:51Z</time>
      </trkpt>
      <trkpt lat="47.13067" lon="6.0275">
        <ele>513.7</ele>
        <time>2022-08-10T10:02:52Z</time>
      </trkpt>
      <trkpt lat="47.1307" lon="6.02751">
        <ele>514.4</ele>
        <time>2022-08-10T10:02:53Z</time>
      </trkpt>
      <trkpt lat="47.13079" lon="6.02758">
        <ele>511.5</ele>
        <time>2022-08-10T10:02:54Z</time>
      </trkpt>
      <trkpt lat="47.13082" lon="6.0276">
        <ele>511.1</ele>
        <time>2022-08-10T10:02:55Z</time>
      </trkpt>
      <trkpt lat="47.13085" lon="6.02761">
        <ele>511</ele>
        <time>2022-08-10T10:02:56Z</time>
      </trkpt>
      <trkpt lat="47.13089" lon="6.02763">
        <ele>511.3</ele>
        <time>2022-08-10T10:02:57Z</time>
      </trkpt>
      <trkpt lat="47.13096" lon="6.0277">
        <ele>510</ele>
        <time>2022-08-10T10:02:58Z</time>
      </trkpt>
      <trkpt lat="47.13099" lon="6.02771">
        <ele>510.1</ele>
        <time>2022-08-10T10:02:59Z</time>
      </trkpt>
      <trkpt lat="47.13101" lon="6.02773">
        <ele>510.4</ele>
        <time>2022-08-10T10:03:00Z</time>
      </trkpt>
      <trkpt lat="47.13104" lon="6.02774">
        <ele>510.5</ele>
        <time>2022-08-10T10:03:01Z</time>
      </trkpt>
      <trkpt lat="47.13106" lon="6.02774">
        <ele>510.7</ele>
        <time>2022-08-10T10:03:02Z</time>
      </trkpt>
      <trkpt lat="47.13108" lon="6.02775">
        <ele>510.5</ele>
        <time>2022-08-10T10:03:03Z</time>
      </trkpt>
      <trkpt lat="47.13111" lon="6.02775">
        <ele>510.3</ele>
        <time>2022-08-10T10:03:04Z</time>
      </trkpt>
      <trkpt lat="47.13113" lon="6.02775">
        <ele>510.7</ele>
        <time>2022-08-10T10:03:05Z</time>
      </trkpt>
      <trkpt lat="47.13116" lon="6.02775">
        <ele>510.8</ele>
        <time>2022-08-10T10:03:06Z</time>
      </trkpt>
      <trkpt lat="47.13119" lon="6.02774">
        <ele>510.5</ele>
        <time>2022-08-10T10:03:07Z</time>
      </trkpt>
      <trkpt lat="47.13123" lon="6.02774">
        <ele>510.4</ele>
        <time>2022-08-10T10:03:08Z</time>
      </trkpt>
      <trkpt lat="47.13126" lon="6.02773">
        <ele>510.5</ele>
        <time>2022-08-10T10:03:09Z</time>
      </trkpt>
      <trkpt lat="47.13129" lon="6.02773">
        <ele>510.3</ele>
        <time>2022-08-10T10:03:10Z</time>
      </trkpt>
      <trkpt lat="47.13132" lon="6.02772">
        <ele>510.2</ele>
        <time>2022-08-10T10:03:11Z</time>
      </trkpt>
      <trkpt lat="47.13133" lon="6.0277">
        <ele>510.3</ele>
        <time>2022-08-10T10:03:12Z</time>
      </trkpt>
      <trkpt lat="47.13135" lon="6.0277">
        <ele>510.4</ele>
        <time>2022-08-10T10:03:13Z</time>
      </trkpt>
      <trkpt lat="47.13137" lon="6.02769">
        <ele>510.6</ele>
        <time>2022-08-10T10:03:14Z</time>
      </trkpt>
      <trkpt lat="47.13143" lon="6.02772">
        <ele>508.8</ele>
        <time>2022-08-10T10:03:15Z</time>
      </trkpt>
      <trkpt lat="47.13144" lon="6.02771">
        <ele>509.2</ele>
        <time>2022-08-10T10:03:16Z</time>
      </trkpt>
      <trkpt lat="47.13149" lon="6.02775">
        <ele>507.2</ele>
        <time>2022-08-10T10:03:17Z</time>
      </trkpt>
      <trkpt lat="47.13151" lon="6.02772">
        <ele>507.7</ele>
        <time>2022-08-10T10:03:18Z</time>
      </trkpt>
      <trkpt lat="47.13153" lon="6.0277">
        <ele>508</ele>
        <time>2022-08-10T10:03:19Z</time>
      </trkpt>
      <trkpt lat="47.13155" lon="6.02767">
        <ele>508.1</ele>
        <time>2022-08-10T10:03:20Z</time>
      </trkpt>
      <trkpt lat="47.13156" lon="6.02765">
        <ele>508.4</ele>
        <time>2022-08-10T10:03:21Z</time>
      </trkpt>
      <trkpt lat="47.13158" lon="6.02764">
        <ele>508.3</ele>
        <time>2022-08-10T10:03:22Z</time>
      </trkpt>
      <trkpt lat="47.13159" lon="6.02762">
        <ele>508.5</ele>
        <time>2022-08-10T10:03:23Z</time>
      </trkpt>
      <trkpt lat="47.1316" lon="6.02759">
        <ele>509</ele>
        <time>2022-08-10T10:03:24Z</time>
      </trkpt>
      <trkpt lat="47.13162" lon="6.02757">
        <ele>509.1</ele>
        <time>2022-08-10T10:03:25Z</time>
      </trkpt>
      <trkpt lat="47.13164" lon="6.02754">
        <ele>509.1</ele>
        <time>2022-08-10T10:03:26Z</time>
      </trkpt>
      <trkpt lat="47.13166" lon="6.02752">
        <ele>509.3</ele>
        <time>2022-08-10T10:03:27Z</time>
      </trkpt>
      <trkpt lat="47.13168" lon="6.02749">
        <ele>509.4</ele>
        <time>2022-08-10T10:03:28Z</time>
      </trkpt>
      <trkpt lat="47.13171" lon="6.02746">
        <ele>509.4</ele>
        <time>2022-08-10T10:03:29Z</time>
      </trkpt>
      <trkpt lat="47.13173" lon="6.02743">
        <ele>509.4</ele>
        <time>2022-08-10T10:03:30Z</time>
      </trkpt>
      <trkpt lat="47.13176" lon="6.02739">
        <ele>509.8</ele>
        <time>2022-08-10T10:03:31Z</time>
      </trkpt>
      <trkpt lat="47.13179" lon="6.02736">
        <ele>509.7</ele>
        <time>2022-08-10T10:03:32Z</time>
      </trkpt>
      <trkpt lat="47.13181" lon="6.02732">
        <ele>509.5</ele>
        <time>2022-08-10T10:03:33Z</time>
      </trkpt>
      <trkpt lat="47.13184" lon="6.0273">
        <ele>509.5</ele>
        <time>2022-08-10T10:03:34Z</time>
      </trkpt>
      <trkpt lat="47.13186" lon="6.02727">
        <ele>509.3</ele>
        <time>2022-08-10T10:03:35Z</time>
      </trkpt>
      <trkpt lat="47.13189" lon="6.02723">
        <ele>508.8</ele>
        <time>2022-08-10T10:03:36Z</time>
      </trkpt>
      <trkpt lat="47.13192" lon="6.0272">
        <ele>508.2</ele>
        <time>2022-08-10T10:03:37Z</time>
      </trkpt>
      <trkpt lat="47.13196" lon="6.02716">
        <ele>506.7</ele>
        <time>2022-08-10T10:03:38Z</time>
      </trkpt>
      <trkpt lat="47.13199" lon="6.02711">
        <ele>505.8</ele>
        <time>2022-08-10T10:03:39Z</time>
      </trkpt>
      <trkpt lat="47.13202" lon="6.02707">
        <ele>505.1</ele>
        <time>2022-08-10T10:03:40Z</time>
      </trkpt>
      <trkpt lat="47.13205" lon="6.02703">
        <ele>504.2</ele>
        <time>2022-08-10T10:03:41Z</time>
      </trkpt>
      <trkpt lat="47.13207" lon="6.027">
        <ele>503.5</ele>
        <time>2022-08-10T10:03:42Z</time>
      </trkpt>
      <trkpt lat="47.1321" lon="6.02696">
        <ele>502.6</ele>
        <time>2022-08-10T10:03:43Z</time>
      </trkpt>
      <trkpt lat="47.13212" lon="6.02692">
        <ele>501.4</ele>
        <time>2022-08-10T10:03:44Z</time>
      </trkpt>
      <trkpt lat="47.13214" lon="6.02688">
        <ele>500.3</ele>
        <time>2022-08-10T10:03:45Z</time>
      </trkpt>
      <trkpt lat="47.13217" lon="6.02684">
        <ele>499.2</ele>
        <time>2022-08-10T10:03:46Z</time>
      </trkpt>
      <trkpt lat="47.13219" lon="6.0268">
        <ele>497.9</ele>
        <time>2022-08-10T10:03:47Z</time>
      </trkpt>
      <trkpt lat="47.13221" lon="6.02675">
        <ele>496.5</ele>
        <time>2022-08-10T10:03:48Z</time>
      </trkpt>
      <trkpt lat="47.13224" lon="6.02671">
        <ele>495.6</ele>
        <time>2022-08-10T10:03:49Z</time>
      </trkpt>
      <trkpt lat="47.13225" lon="6.02666">
        <ele>494.5</ele>
        <time>2022-08-10T10:03:50Z</time>
      </trkpt>
      <trkpt lat="47.13227" lon="6.02661">
        <ele>493.4</ele>
        <time>2022-08-10T10:03:51Z</time>
      </trkpt>
      <trkpt lat="47.13228" lon="6.02656">
        <ele>492.7</ele>
        <time>2022-08-10T10:03:52Z</time>
      </trkpt>
      <trkpt lat="47.1323" lon="6.02652">
        <ele>492.3</ele>
        <time>2022-08-10T10:03:53Z</time>
      </trkpt>
      <trkpt lat="47.13232" lon="6.02648">
        <ele>491.6</ele>
        <time>2022-08-10T10:03:54Z</time>
      </trkpt>
      <trkpt lat="47.13234" lon="6.02644">
        <ele>490.6</ele>
        <time>2022-08-10T10:03:55Z</time>
      </trkpt>
      <trkpt lat="47.13237" lon="6.0264">
        <ele>490.3</ele>
        <time>2022-08-10T10:03:56Z</time>
      </trkpt>
      <trkpt lat="47.13241" lon="6.02635">
        <ele>488.7</ele>
        <time>2022-08-10T10:03:57Z</time>
      </trkpt>
      <trkpt lat="47.13243" lon="6.02632">
        <ele>487.9</ele>
        <time>2022-08-10T10:03:58Z</time>
      </trkpt>
      <trkpt lat="47.13245" lon="6.02629">
        <ele>486.6</ele>
        <time>2022-08-10T10:03:59Z</time>
      </trkpt>
      <trkpt lat="47.13246" lon="6.02626">
        <ele>485.2</ele>
        <time>2022-08-10T10:04:00Z</time>
      </trkpt>
      <trkpt lat="47.13248" lon="6.02622">
        <ele>484</ele>
        <time>2022-08-10T10:04:01Z</time>
      </trkpt>
      <trkpt lat="47.1325" lon="6.02618">
        <ele>483.2</ele>
        <time>2022-08-10T10:04:02Z</time>
      </trkpt>
      <trkpt lat="47.13252" lon="6.02614">
        <ele>482.2</ele>
        <time>2022-08-10T10:04:03Z</time>
      </trkpt>
      <trkpt lat="47.13255" lon="6.0261">
        <ele>481</ele>
        <time>2022-08-10T10:04:04Z</time>
      </trkpt>
      <trkpt lat="47.13257" lon="6.02606">
        <ele>480</ele>
        <time>2022-08-10T10:04:05Z</time>
      </trkpt>
      <trkpt lat="47.13259" lon="6.02601">
        <ele>478.9</ele>
        <time>2022-08-10T10:04:06Z</time>
      </trkpt>
      <trkpt lat="47.13261" lon="6.02597">
        <ele>478.1</ele>
        <time>2022-08-10T10:04:07Z</time>
      </trkpt>
      <trkpt lat="47.13264" lon="6.02592">
        <ele>477.2</ele>
        <time>2022-08-10T10:04:08Z</time>
      </trkpt>
      <trkpt lat="47.13266" lon="6.02587">
        <ele>476.5</ele>
        <time>2022-08-10T10:04:09Z</time>
      </trkpt>
      <trkpt lat="47.13269" lon="6.02583">
        <ele>475.7</ele>
        <time>2022-08-10T10:04:10Z</time>
      </trkpt>
      <trkpt lat="47.13271" lon="6.02578">
        <ele>474.9</ele>
        <time>2022-08-10T10:04:11Z</time>
      </trkpt>
      <trkpt lat="47.13273" lon="6.02573">
        <ele>474.4</ele>
        <time>2022-08-10T10:04:12Z</time>
      </trkpt>
      <trkpt lat="47.13276" lon="6.02568">
        <ele>474.1</ele>
        <time>2022-08-10T10:04:13Z</time>
      </trkpt>
      <trkpt lat="47.13278" lon="6.02563">
        <ele>474.3</ele>
        <time>2022-08-10T10:04:14Z</time>
      </trkpt>
      <trkpt lat="47.1328" lon="6.02559">
        <ele>473.7</ele>
        <time>2022-08-10T10:04:15Z</time>
      </trkpt>
      <trkpt lat="47.13283" lon="6.02556">
        <ele>473.3</ele>
        <time>2022-08-10T10:04:16Z</time>
      </trkpt>
      <trkpt lat="47.13285" lon="6.02552">
        <ele>472.6</ele>
        <time>2022-08-10T10:04:17Z</time>
      </trkpt>
      <trkpt lat="47.13287" lon="6.0255">
        <ele>472.2</ele>
        <time>2022-08-10T10:04:18Z</time>
      </trkpt>
      <trkpt lat="47.13288" lon="6.02548">
        <ele>471.6</ele>
        <time>2022-08-10T10:04:19Z</time>
      </trkpt>
      <trkpt lat="47.1329" lon="6.02545">
        <ele>470.8</ele>
        <time>2022-08-10T10:04:20Z</time>
      </trkpt>
      <trkpt lat="47.13292" lon="6.02543">
        <ele>469.9</ele>
        <time>2022-08-10T10:04:21Z</time>
      </trkpt>
      <trkpt lat="47.13293" lon="6.0254">
        <ele>469.4</ele>
        <time>2022-08-10T10:04:22Z</time>
      </trkpt>
      <trkpt lat="47.13294" lon="6.02537">
        <ele>469</ele>
        <time>2022-08-10T10:04:23Z</time>
      </trkpt>
      <trkpt lat="47.13295" lon="6.02535">
        <ele>468.6</ele>
        <time>2022-08-10T10:04:24Z</time>
      </trkpt>
      <trkpt lat="47.13298" lon="6.02531">
        <ele>469</ele>
        <time>2022-08-10T10:04:25Z</time>
      </trkpt>
      <trkpt lat="47.133" lon="6.02528">
        <ele>469.1</ele>
        <time>2022-08-10T10:04:26Z</time>
      </trkpt>
      <trkpt lat="47.13303" lon="6.02525">
        <ele>469.4</ele>
        <time>2022-08-10T10:04:27Z</time>
      </trkpt>
      <trkpt lat="47.13306" lon="6.02522">
        <ele>469.5</ele>
        <time>2022-08-10T10:04:28Z</time>
      </trkpt>
      <trkpt lat="47.13309" lon="6.02519">
        <ele>469.5</ele>
        <time>2022-08-10T10:04:29Z</time>
      </trkpt>
      <trkpt lat="47.13311" lon="6.02516">
        <ele>469.8</ele>
        <time>2022-08-10T10:04:30Z</time>
      </trkpt>
      <trkpt lat="47.13314" lon="6.02511">
        <ele>470.1</ele>
        <time>2022-08-10T10:04:31Z</time>
      </trkpt>
      <trkpt lat="47.13317" lon="6.02507">
        <ele>470.2</ele>
        <time>2022-08-10T10:04:32Z</time>
      </trkpt>
      <trkpt lat="47.13321" lon="6.02503">
        <ele>470.3</ele>
        <time>2022-08-10T10:04:33Z</time>
      </trkpt>
      <trkpt lat="47.13325" lon="6.02498">
        <ele>470.8</ele>
        <time>2022-08-10T10:04:34Z</time>
      </trkpt>
      <trkpt lat="47.13329" lon="6.02493">
        <ele>470.9</ele>
        <time>2022-08-10T10:04:35Z</time>
      </trkpt>
      <trkpt lat="47.13332" lon="6.02488">
        <ele>471.1</ele>
        <time>2022-08-10T10:04:36Z</time>
      </trkpt>
      <trkpt lat="47.13336" lon="6.02483">
        <ele>471.7</ele>
        <time>2022-08-10T10:04:37Z</time>
      </trkpt>
      <trkpt lat="47.1334" lon="6.02477">
        <ele>471.9</ele>
        <time>2022-08-10T10:04:38Z</time>
      </trkpt>
      <trkpt lat="47.13344" lon="6.02471">
        <ele>472.3</ele>
        <time>2022-08-10T10:04:39Z</time>
      </trkpt>
      <trkpt lat="47.13348" lon="6.02467">
        <ele>472.4</ele>
        <time>2022-08-10T10:04:40Z</time>
      </trkpt>
      <trkpt lat="47.13352" lon="6.02463">
        <ele>472.9</ele>
        <time>2022-08-10T10:04:41Z</time>
      </trkpt>
      <trkpt lat="47.13355" lon="6.0246">
        <ele>473</ele>
        <time>2022-08-10T10:04:42Z</time>
      </trkpt>
      <trkpt lat="47.1336" lon="6.02455">
        <ele>472.6</ele>
        <time>2022-08-10T10:04:43Z</time>
      </trkpt>
      <trkpt lat="47.13365" lon="6.02449">
        <ele>472.4</ele>
        <time>2022-08-10T10:04:44Z</time>
      </trkpt>
      <trkpt lat="47.1337" lon="6.02443">
        <ele>472</ele>
        <time>2022-08-10T10:04:45Z</time>
      </trkpt>
      <trkpt lat="47.13374" lon="6.02437">
        <ele>471.7</ele>
        <time>2022-08-10T10:04:46Z</time>
      </trkpt>
      <trkpt lat="47.13379" lon="6.0243">
        <ele>471.5</ele>
        <time>2022-08-10T10:04:47Z</time>
      </trkpt>
      <trkpt lat="47.13383" lon="6.02423">
        <ele>471.4</ele>
        <time>2022-08-10T10:04:48Z</time>
      </trkpt>
      <trkpt lat="47.13388" lon="6.02415">
        <ele>471.5</ele>
        <time>2022-08-10T10:04:49Z</time>
      </trkpt>
      <trkpt lat="47.13393" lon="6.02406">
        <ele>471.5</ele>
        <time>2022-08-10T10:04:50Z</time>
      </trkpt>
      <trkpt lat="47.13399" lon="6.02397">
        <ele>471.5</ele>
        <time>2022-08-10T10:04:51Z</time>
      </trkpt>
      <trkpt lat="47.13404" lon="6.02388">
        <ele>471.4</ele>
        <time>2022-08-10T10:04:52Z</time>
      </trkpt>
      <trkpt lat="47.13411" lon="6.02378">
        <ele>470.9</ele>
        <time>2022-08-10T10:04:53Z</time>
      </trkpt>
      <trkpt lat="47.13416" lon="6.0237">
        <ele>470.9</ele>
        <time>2022-08-10T10:04:54Z</time>
      </trkpt>
      <trkpt lat="47.13421" lon="6.02363">
        <ele>470.6</ele>
        <time>2022-08-10T10:04:55Z</time>
      </trkpt>
      <trkpt lat="47.13427" lon="6.02355">
        <ele>470.4</ele>
        <time>2022-08-10T10:04:56Z</time>
      </trkpt>
      <trkpt lat="47.13433" lon="6.02348">
        <ele>469.3</ele>
        <time>2022-08-10T10:04:57Z</time>
      </trkpt>
      <trkpt lat="47.13438" lon="6.0234">
        <ele>468.7</ele>
        <time>2022-08-10T10:04:58Z</time>
      </trkpt>
      <trkpt lat="47.13442" lon="6.02333">
        <ele>468.3</ele>
        <time>2022-08-10T10:04:59Z</time>
      </trkpt>
      <trkpt lat="47.13445" lon="6.02326">
        <ele>468.2</ele>
        <time>2022-08-10T10:05:00Z</time>
      </trkpt>
      <trkpt lat="47.13447" lon="6.02318">
        <ele>467.4</ele>
        <time>2022-08-10T10:05:01Z</time>
      </trkpt>
      <trkpt lat="47.13449" lon="6.02309">
        <ele>466.7</ele>
        <time>2022-08-10T10:05:02Z</time>
      </trkpt>
      <trkpt lat="47.1345" lon="6.02299">
        <ele>465.3</ele>
        <time>2022-08-10T10:05:03Z</time>
      </trkpt>
      <trkpt lat="47.1345" lon="6.0229">
        <ele>464.4</ele>
        <time>2022-08-10T10:05:04Z</time>
      </trkpt>
      <trkpt lat="47.13449" lon="6.02281">
        <ele>463.5</ele>
        <time>2022-08-10T10:05:05Z</time>
      </trkpt>
      <trkpt lat="47.13449" lon="6.02272">
        <ele>462.8</ele>
        <time>2022-08-10T10:05:06Z</time>
      </trkpt>
      <trkpt lat="47.13449" lon="6.02261">
        <ele>462</ele>
        <time>2022-08-10T10:05:07Z</time>
      </trkpt>
      <trkpt lat="47.13448" lon="6.02252">
        <ele>461.2</ele>
        <time>2022-08-10T10:05:08Z</time>
      </trkpt>
      <trkpt lat="47.13446" lon="6.02243">
        <ele>460.6</ele>
        <time>2022-08-10T10:05:09Z</time>
      </trkpt>
      <trkpt lat="47.13443" lon="6.02233">
        <ele>459.8</ele>
        <time>2022-08-10T10:05:10Z</time>
      </trkpt>
      <trkpt lat="47.13441" lon="6.02224">
        <ele>459.3</ele>
        <time>2022-08-10T10:05:11Z</time>
      </trkpt>
      <trkpt lat="47.13437" lon="6.02216">
        <ele>459.1</ele>
        <time>2022-08-10T10:05:12Z</time>
      </trkpt>
      <trkpt lat="47.13433" lon="6.02209">
        <ele>459</ele>
        <time>2022-08-10T10:05:13Z</time>
      </trkpt>
      <trkpt lat="47.13428" lon="6.02203">
        <ele>458.8</ele>
        <time>2022-08-10T10:05:14Z</time>
      </trkpt>
      <trkpt lat="47.13423" lon="6.02197">
        <ele>458.8</ele>
        <time>2022-08-10T10:05:15Z</time>
      </trkpt>
      <trkpt lat="47.13419" lon="6.02192">
        <ele>459</ele>
        <time>2022-08-10T10:05:16Z</time>
      </trkpt>
      <trkpt lat="47.13414" lon="6.02187">
        <ele>459.1</ele>
        <time>2022-08-10T10:05:17Z</time>
      </trkpt>
      <trkpt lat="47.1341" lon="6.02181">
        <ele>458.7</ele>
        <time>2022-08-10T10:05:18Z</time>
      </trkpt>
      <trkpt lat="47.13406" lon="6.02175">
        <ele>458.9</ele>
        <time>2022-08-10T10:05:19Z</time>
      </trkpt>
      <trkpt lat="47.13403" lon="6.02168">
        <ele>459.1</ele>
        <time>2022-08-10T10:05:20Z</time>
      </trkpt>
      <trkpt lat="47.134" lon="6.02161">
        <ele>459.3</ele>
        <time>2022-08-10T10:05:21Z</time>
      </trkpt>
      <trkpt lat="47.13397" lon="6.02154">
        <ele>459.4</ele>
        <time>2022-08-10T10:05:22Z</time>
      </trkpt>
      <trkpt lat="47.13394" lon="6.02147">
        <ele>459.3</ele>
        <time>2022-08-10T10:05:23Z</time>
      </trkpt>
      <trkpt lat="47.13392" lon="6.02139">
        <ele>459.5</ele>
        <time>2022-08-10T10:05:24Z</time>
      </trkpt>
      <trkpt lat="47.13391" lon="6.02131">
        <ele>459.3</ele>
        <time>2022-08-10T10:05:25Z</time>
      </trkpt>
      <trkpt lat="47.1339" lon="6.02123">
        <ele>459.4</ele>
        <time>2022-08-10T10:05:26Z</time>
      </trkpt>
      <trkpt lat="47.1339" lon="6.02115">
        <ele>459.3</ele>
        <time>2022-08-10T10:05:27Z</time>
      </trkpt>
      <trkpt lat="47.13389" lon="6.02107">
        <ele>459.4</ele>
        <time>2022-08-10T10:05:28Z</time>
      </trkpt>
      <trkpt lat="47.13389" lon="6.02098">
        <ele>459.5</ele>
        <time>2022-08-10T10:05:29Z</time>
      </trkpt>
      <trkpt lat="47.13388" lon="6.02089">
        <ele>459.3</ele>
        <time>2022-08-10T10:05:30Z</time>
      </trkpt>
      <trkpt lat="47.13387" lon="6.02078">
        <ele>459</ele>
        <time>2022-08-10T10:05:31Z</time>
      </trkpt>
      <trkpt lat="47.13386" lon="6.02069">
        <ele>458.9</ele>
        <time>2022-08-10T10:05:32Z</time>
      </trkpt>
      <trkpt lat="47.13385" lon="6.0206">
        <ele>458.8</ele>
        <time>2022-08-10T10:05:33Z</time>
      </trkpt>
      <trkpt lat="47.13384" lon="6.0205">
        <ele>458.6</ele>
        <time>2022-08-10T10:05:34Z</time>
      </trkpt>
      <trkpt lat="47.13383" lon="6.02039">
        <ele>457.7</ele>
        <time>2022-08-10T10:05:35Z</time>
      </trkpt>
      <trkpt lat="47.13382" lon="6.0203">
        <ele>456.9</ele>
        <time>2022-08-10T10:05:36Z</time>
      </trkpt>
      <trkpt lat="47.13381" lon="6.02021">
        <ele>456.5</ele>
        <time>2022-08-10T10:05:37Z</time>
      </trkpt>
      <trkpt lat="47.13382" lon="6.02012">
        <ele>456.5</ele>
        <time>2022-08-10T10:05:38Z</time>
      </trkpt>
      <trkpt lat="47.13382" lon="6.02003">
        <ele>456.6</ele>
        <time>2022-08-10T10:05:39Z</time>
      </trkpt>
      <trkpt lat="47.13384" lon="6.01991">
        <ele>455.7</ele>
        <time>2022-08-10T10:05:40Z</time>
      </trkpt>
      <trkpt lat="47.13385" lon="6.01982">
        <ele>455.5</ele>
        <time>2022-08-10T10:05:41Z</time>
      </trkpt>
      <trkpt lat="47.13387" lon="6.01972">
        <ele>454.9</ele>
        <time>2022-08-10T10:05:42Z</time>
      </trkpt>
      <trkpt lat="47.13388" lon="6.01962">
        <ele>454.5</ele>
        <time>2022-08-10T10:05:43Z</time>
      </trkpt>
      <trkpt lat="47.13389" lon="6.01953">
        <ele>454.5</ele>
        <time>2022-08-10T10:05:44Z</time>
      </trkpt>
      <trkpt lat="47.1339" lon="6.01944">
        <ele>454.5</ele>
        <time>2022-08-10T10:05:45Z</time>
      </trkpt>
      <trkpt lat="47.13391" lon="6.01937">
        <ele>454.5</ele>
        <time>2022-08-10T10:05:46Z</time>
      </trkpt>
      <trkpt lat="47.13391" lon="6.0193">
        <ele>454.7</ele>
        <time>2022-08-10T10:05:47Z</time>
      </trkpt>
      <trkpt lat="47.13391" lon="6.01923">
        <ele>455.2</ele>
        <time>2022-08-10T10:05:48Z</time>
      </trkpt>
      <trkpt lat="47.13389" lon="6.01916">
        <ele>455.5</ele>
        <time>2022-08-10T10:05:49Z</time>
      </trkpt>
      <trkpt lat="47.13388" lon="6.01907">
        <ele>455.4</ele>
        <time>2022-08-10T10:05:50Z</time>
      </trkpt>
      <trkpt lat="47.13387" lon="6.01899">
        <ele>455.3</ele>
        <time>2022-08-10T10:05:51Z</time>
      </trkpt>
      <trkpt lat="47.13387" lon="6.01888">
        <ele>454.7</ele>
        <time>2022-08-10T10:05:52Z</time>
      </trkpt>
      <trkpt lat="47.13386" lon="6.01879">
        <ele>454.6</ele>
        <time>2022-08-10T10:05:53Z</time>
      </trkpt>
      <trkpt lat="47.13384" lon="6.01869">
        <ele>454.5</ele>
        <time>2022-08-10T10:05:54Z</time>
      </trkpt>
      <trkpt lat="47.13381" lon="6.0186">
        <ele>455</ele>
        <time>2022-08-10T10:05:55Z</time>
      </trkpt>
      <trkpt lat="47.13379" lon="6.01852">
        <ele>455.5</ele>
        <time>2022-08-10T10:05:56Z</time>
      </trkpt>
      <trkpt lat="47.13377" lon="6.01843">
        <ele>455.4</ele>
        <time>2022-08-10T10:05:57Z</time>
      </trkpt>
      <trkpt lat="47.13374" lon="6.01835">
        <ele>455.1</ele>
        <time>2022-08-10T10:05:58Z</time>
      </trkpt>
      <trkpt lat="47.13371" lon="6.01827">
        <ele>454.8</ele>
        <time>2022-08-10T10:05:59Z</time>
      </trkpt>
      <trkpt lat="47.13367" lon="6.01819">
        <ele>454.5</ele>
        <time>2022-08-10T10:06:00Z</time>
      </trkpt>
      <trkpt lat="47.13364" lon="6.0181">
        <ele>454.3</ele>
        <time>2022-08-10T10:06:01Z</time>
      </trkpt>
      <trkpt lat="47.13359" lon="6.01801">
        <ele>454.4</ele>
        <time>2022-08-10T10:06:02Z</time>
      </trkpt>
      <trkpt lat="47.13355" lon="6.01794">
        <ele>454.4</ele>
        <time>2022-08-10T10:06:03Z</time>
      </trkpt>
      <trkpt lat="47.13351" lon="6.01787">
        <ele>454.4</ele>
        <time>2022-08-10T10:06:04Z</time>
      </trkpt>
      <trkpt lat="47.13346" lon="6.01781">
        <ele>454.5</ele>
        <time>2022-08-10T10:06:05Z</time>
      </trkpt>
      <trkpt lat="47.13342" lon="6.01777">
        <ele>455</ele>
        <time>2022-08-10T10:06:06Z</time>
      </trkpt>
      <trkpt lat="47.13338" lon="6.01774">
        <ele>455.8</ele>
        <time>2022-08-10T10:06:07Z</time>
      </trkpt>
      <trkpt lat="47.13333" lon="6.0177">
        <ele>455.8</ele>
        <time>2022-08-10T10:06:08Z</time>
      </trkpt>
      <trkpt lat="47.13329" lon="6.01767">
        <ele>456</ele>
        <time>2022-08-10T10:06:09Z</time>
      </trkpt>
      <trkpt lat="47.13325" lon="6.01766">
        <ele>456.5</ele>
        <time>2022-08-10T10:06:10Z</time>
      </trkpt>
      <trkpt lat="47.13321" lon="6.01764">
        <ele>457.2</ele>
        <time>2022-08-10T10:06:11Z</time>
      </trkpt>
      <trkpt lat="47.13318" lon="6.01763">
        <ele>457.8</ele>
        <time>2022-08-10T10:06:12Z</time>
      </trkpt>
      <trkpt lat="47.13315" lon="6.01761">
        <ele>458.2</ele>
        <time>2022-08-10T10:06:13Z</time>
      </trkpt>
      <trkpt lat="47.13312" lon="6.0176">
        <ele>458.6</ele>
        <time>2022-08-10T10:06:14Z</time>
      </trkpt>
      <trkpt lat="47.13308" lon="6.01759">
        <ele>458.8</ele>
        <time>2022-08-10T10:06:15Z</time>
      </trkpt>
      <trkpt lat="47.13304" lon="6.01758">
        <ele>458.4</ele>
        <time>2022-08-10T10:06:16Z</time>
      </trkpt>
      <trkpt lat="47.133" lon="6.01756">
        <ele>457.8</ele>
        <time>2022-08-10T10:06:17Z</time>
      </trkpt>
      <trkpt lat="47.13297" lon="6.01755">
        <ele>457.1</ele>
        <time>2022-08-10T10:06:18Z</time>
      </trkpt>
      <trkpt lat="47.13293" lon="6.01753">
        <ele>456.3</ele>
        <time>2022-08-10T10:06:19Z</time>
      </trkpt>
      <trkpt lat="47.13289" lon="6.0175">
        <ele>455.4</ele>
        <time>2022-08-10T10:06:20Z</time>
      </trkpt>
      <trkpt lat="47.13286" lon="6.01747">
        <ele>454.7</ele>
        <time>2022-08-10T10:06:21Z</time>
      </trkpt>
      <trkpt lat="47.13283" lon="6.01743">
        <ele>454.7</ele>
        <time>2022-08-10T10:06:22Z</time>
      </trkpt>
      <trkpt lat="47.13281" lon="6.01737">
        <ele>454.9</ele>
        <time>2022-08-10T10:06:23Z</time>
      </trkpt>
      <trkpt lat="47.13279" lon="6.01731">
        <ele>455.3</ele>
        <time>2022-08-10T10:06:24Z</time>
      </trkpt>
      <trkpt lat="47.13277" lon="6.01724">
        <ele>455.1</ele>
        <time>2022-08-10T10:06:25Z</time>
      </trkpt>
      <trkpt lat="47.13275" lon="6.01718">
        <ele>454.9</ele>
        <time>2022-08-10T10:06:26Z</time>
      </trkpt>
      <trkpt lat="47.13273" lon="6.01711">
        <ele>454.7</ele>
        <time>2022-08-10T10:06:27Z</time>
      </trkpt>
      <trkpt lat="47.13271" lon="6.01705">
        <ele>454.7</ele>
        <time>2022-08-10T10:06:28Z</time>
      </trkpt>
      <trkpt lat="47.1327" lon="6.01699">
        <ele>454.4</ele>
        <time>2022-08-10T10:06:29Z</time>
      </trkpt>
      <trkpt lat="47.13268" lon="6.01692">
        <ele>454.1</ele>
        <time>2022-08-10T10:06:30Z</time>
      </trkpt>
      <trkpt lat="47.13267" lon="6.01684">
        <ele>453.8</ele>
        <time>2022-08-10T10:06:31Z</time>
      </trkpt>
      <trkpt lat="47.13266" lon="6.01676">
        <ele>453.8</ele>
        <time>2022-08-10T10:06:32Z</time>
      </trkpt>
      <trkpt lat="47.13265" lon="6.01668">
        <ele>453.6</ele>
        <time>2022-08-10T10:06:33Z</time>
      </trkpt>
      <trkpt lat="47.13263" lon="6.0166">
        <ele>453.7</ele>
        <time>2022-08-10T10:06:34Z</time>
      </trkpt>
      <trkpt lat="47.13261" lon="6.01652">
        <ele>453.4</ele>
        <time>2022-08-10T10:06:35Z</time>
      </trkpt>
      <trkpt lat="47.13259" lon="6.01643">
        <ele>452.7</ele>
        <time>2022-08-10T10:06:36Z</time>
      </trkpt>
      <trkpt lat="47.13256" lon="6.01634">
        <ele>452</ele>
        <time>2022-08-10T10:06:37Z</time>
      </trkpt>
      <trkpt lat="47.13253" lon="6.01626">
        <ele>451.8</ele>
        <time>2022-08-10T10:06:38Z</time>
      </trkpt>
      <trkpt lat="47.1325" lon="6.01619">
        <ele>451.5</ele>
        <time>2022-08-10T10:06:39Z</time>
      </trkpt>
      <trkpt lat="47.13247" lon="6.01612">
        <ele>451.6</ele>
        <time>2022-08-10T10:06:40Z</time>
      </trkpt>
      <trkpt lat="47.13245" lon="6.01606">
        <ele>452.1</ele>
        <time>2022-08-10T10:06:41Z</time>
      </trkpt>
      <trkpt lat="47.13241" lon="6.01598">
        <ele>452.4</ele>
        <time>2022-08-10T10:06:42Z</time>
      </trkpt>
      <trkpt lat="47.13237" lon="6.01591">
        <ele>452.7</ele>
        <time>2022-08-10T10:06:43Z</time>
      </trkpt>
      <trkpt lat="47.13233" lon="6.01584">
        <ele>452.6</ele>
        <time>2022-08-10T10:06:44Z</time>
      </trkpt>
      <trkpt lat="47.13228" lon="6.01576">
        <ele>452.6</ele>
        <time>2022-08-10T10:06:45Z</time>
      </trkpt>
      <trkpt lat="47.13225" lon="6.01568">
        <ele>452.3</ele>
        <time>2022-08-10T10:06:46Z</time>
      </trkpt>
      <trkpt lat="47.13221" lon="6.01561">
        <ele>451.9</ele>
        <time>2022-08-10T10:06:47Z</time>
      </trkpt>
      <trkpt lat="47.13217" lon="6.01554">
        <ele>451.4</ele>
        <time>2022-08-10T10:06:48Z</time>
      </trkpt>
      <trkpt lat="47.13214" lon="6.01548">
        <ele>450.7</ele>
        <time>2022-08-10T10:06:49Z</time>
      </trkpt>
      <trkpt lat="47.1321" lon="6.01542">
        <ele>450.2</ele>
        <time>2022-08-10T10:06:50Z</time>
      </trkpt>
      <trkpt lat="47.13205" lon="6.01536">
        <ele>449.7</ele>
        <time>2022-08-10T10:06:51Z</time>
      </trkpt>
      <trkpt lat="47.13199" lon="6.0153">
        <ele>448.7</ele>
        <time>2022-08-10T10:06:52Z</time>
      </trkpt>
      <trkpt lat="47.13194" lon="6.01524">
        <ele>447.9</ele>
        <time>2022-08-10T10:06:53Z</time>
      </trkpt>
      <trkpt lat="47.13189" lon="6.01519">
        <ele>446.9</ele>
        <time>2022-08-10T10:06:54Z</time>
      </trkpt>
      <trkpt lat="47.13185" lon="6.01514">
        <ele>445.9</ele>
        <time>2022-08-10T10:06:55Z</time>
      </trkpt>
      <trkpt lat="47.1318" lon="6.01509">
        <ele>445.5</ele>
        <time>2022-08-10T10:06:56Z</time>
      </trkpt>
      <trkpt lat="47.13176" lon="6.01505">
        <ele>445.7</ele>
        <time>2022-08-10T10:06:57Z</time>
      </trkpt>
      <trkpt lat="47.13171" lon="6.015">
        <ele>445.8</ele>
        <time>2022-08-10T10:06:58Z</time>
      </trkpt>
      <trkpt lat="47.13167" lon="6.01495">
        <ele>445.6</ele>
        <time>2022-08-10T10:06:59Z</time>
      </trkpt>
      <trkpt lat="47.13163" lon="6.01491">
        <ele>445.7</ele>
        <time>2022-08-10T10:07:00Z</time>
      </trkpt>
      <trkpt lat="47.13159" lon="6.01485">
        <ele>445.9</ele>
        <time>2022-08-10T10:07:01Z</time>
      </trkpt>
      <trkpt lat="47.13154" lon="6.0148">
        <ele>445.8</ele>
        <time>2022-08-10T10:07:02Z</time>
      </trkpt>
      <trkpt lat="47.1315" lon="6.01476">
        <ele>446.1</ele>
        <time>2022-08-10T10:07:03Z</time>
      </trkpt>
      <trkpt lat="47.13146" lon="6.01472">
        <ele>446.5</ele>
        <time>2022-08-10T10:07:04Z</time>
      </trkpt>
      <trkpt lat="47.13142" lon="6.01468">
        <ele>447.1</ele>
        <time>2022-08-10T10:07:05Z</time>
      </trkpt>
      <trkpt lat="47.13139" lon="6.01464">
        <ele>447.9</ele>
        <time>2022-08-10T10:07:06Z</time>
      </trkpt>
      <trkpt lat="47.13137" lon="6.01461">
        <ele>447.8</ele>
        <time>2022-08-10T10:07:07Z</time>
      </trkpt>
      <trkpt lat="47.13134" lon="6.01457">
        <ele>448</ele>
        <time>2022-08-10T10:07:08Z</time>
      </trkpt>
      <trkpt lat="47.13132" lon="6.01454">
        <ele>448.3</ele>
        <time>2022-08-10T10:07:09Z</time>
      </trkpt>
      <trkpt lat="47.1313" lon="6.01452">
        <ele>449.2</ele>
        <time>2022-08-10T10:07:10Z</time>
      </trkpt>
      <trkpt lat="47.13129" lon="6.01449">
        <ele>450.4</ele>
        <time>2022-08-10T10:07:11Z</time>
      </trkpt>
      <trkpt lat="47.13128" lon="6.01447">
        <ele>451.3</ele>
        <time>2022-08-10T10:07:12Z</time>
      </trkpt>
      <trkpt lat="47.13126" lon="6.01443">
        <ele>452.5</ele>
        <time>2022-08-10T10:07:13Z</time>
      </trkpt>
      <trkpt lat="47.13124" lon="6.0144">
        <ele>453.6</ele>
        <time>2022-08-10T10:07:14Z</time>
      </trkpt>
      <trkpt lat="47.13122" lon="6.01437">
        <ele>454.9</ele>
        <time>2022-08-10T10:07:15Z</time>
      </trkpt>
      <trkpt lat="47.1312" lon="6.01433">
        <ele>455.4</ele>
        <time>2022-08-10T10:07:16Z</time>
      </trkpt>
      <trkpt lat="47.13118" lon="6.01429">
        <ele>455.4</ele>
        <time>2022-08-10T10:07:17Z</time>
      </trkpt>
      <trkpt lat="47.13116" lon="6.01425">
        <ele>455.6</ele>
        <time>2022-08-10T10:07:18Z</time>
      </trkpt>
      <trkpt lat="47.13115" lon="6.01422">
        <ele>456.1</ele>
        <time>2022-08-10T10:07:19Z</time>
      </trkpt>
      <trkpt lat="47.13113" lon="6.01418">
        <ele>456.5</ele>
        <time>2022-08-10T10:07:20Z</time>
      </trkpt>
      <trkpt lat="47.13113" lon="6.01415">
        <ele>457</ele>
        <time>2022-08-10T10:07:21Z</time>
      </trkpt>
      <trkpt lat="47.13111" lon="6.01412">
        <ele>457.3</ele>
        <time>2022-08-10T10:07:22Z</time>
      </trkpt>
      <trkpt lat="47.1311" lon="6.01409">
        <ele>457.5</ele>
        <time>2022-08-10T10:07:23Z</time>
      </trkpt>
      <trkpt lat="47.1311" lon="6.01407">
        <ele>457.7</ele>
        <time>2022-08-10T10:07:24Z</time>
      </trkpt>
      <trkpt lat="47.1311" lon="6.01405">
        <ele>458.3</ele>
        <time>2022-08-10T10:07:25Z</time>
      </trkpt>
      <trkpt lat="47.13108" lon="6.01403">
        <ele>458.1</ele>
        <time>2022-08-10T10:07:26Z</time>
      </trkpt>
      <trkpt lat="47.13107" lon="6.014">
        <ele>457.7</ele>
        <time>2022-08-10T10:07:27Z</time>
      </trkpt>
      <trkpt lat="47.13105" lon="6.01397">
        <ele>457.7</ele>
        <time>2022-08-10T10:07:28Z</time>
      </trkpt>
      <trkpt lat="47.13102" lon="6.01394">
        <ele>457.2</ele>
        <time>2022-08-10T10:07:29Z</time>
      </trkpt>
      <trkpt lat="47.13099" lon="6.0139">
        <ele>457.2</ele>
        <time>2022-08-10T10:07:30Z</time>
      </trkpt>
      <trkpt lat="47.13097" lon="6.01386">
        <ele>457.2</ele>
        <time>2022-08-10T10:07:31Z</time>
      </trkpt>
      <trkpt lat="47.13094" lon="6.01382">
        <ele>457.5</ele>
        <time>2022-08-10T10:07:32Z</time>
      </trkpt>
      <trkpt lat="47.13092" lon="6.01378">
        <ele>458</ele>
        <time>2022-08-10T10:07:33Z</time>
      </trkpt>
      <trkpt lat="47.1309" lon="6.01376">
        <ele>458.8</ele>
        <time>2022-08-10T10:07:34Z</time>
      </trkpt>
      <trkpt lat="47.13086" lon="6.01374">
        <ele>459</ele>
        <time>2022-08-10T10:07:35Z</time>
      </trkpt>
      <trkpt lat="47.13083" lon="6.01372">
        <ele>459.2</ele>
        <time>2022-08-10T10:07:36Z</time>
      </trkpt>
      <trkpt lat="47.13081" lon="6.0137">
        <ele>459.7</ele>
        <time>2022-08-10T10:07:37Z</time>
      </trkpt>
      <trkpt lat="47.13078" lon="6.01368">
        <ele>460.2</ele>
        <time>2022-08-10T10:07:38Z</time>
      </trkpt>
      <trkpt lat="47.13076" lon="6.01365">
        <ele>460.3</ele>
        <time>2022-08-10T10:07:39Z</time>
      </trkpt>
      <trkpt lat="47.13074" lon="6.01363">
        <ele>460.4</ele>
        <time>2022-08-10T10:07:40Z</time>
      </trkpt>
      <trkpt lat="47.13072" lon="6.0136">
        <ele>460.5</ele>
        <time>2022-08-10T10:07:41Z</time>
      </trkpt>
      <trkpt lat="47.13069" lon="6.01357">
        <ele>460.7</ele>
        <time>2022-08-10T10:07:42Z</time>
      </trkpt>
      <trkpt lat="47.13067" lon="6.01354">
        <ele>460.6</ele>
        <time>2022-08-10T10:07:43Z</time>
      </trkpt>
      <trkpt lat="47.13064" lon="6.0135">
        <ele>460.5</ele>
        <time>2022-08-10T10:07:44Z</time>
      </trkpt>
      <trkpt lat="47.13061" lon="6.01347">
        <ele>460.5</ele>
        <time>2022-08-10T10:07:45Z</time>
      </trkpt>
      <trkpt lat="47.13059" lon="6.01343">
        <ele>461</ele>
        <time>2022-08-10T10:07:46Z</time>
      </trkpt>
      <trkpt lat="47.13056" lon="6.0134">
        <ele>461.5</ele>
        <time>2022-08-10T10:07:47Z</time>
      </trkpt>
      <trkpt lat="47.13053" lon="6.01335">
        <ele>462.2</ele>
        <time>2022-08-10T10:07:48Z</time>
      </trkpt>
      <trkpt lat="47.1305" lon="6.0133">
        <ele>463.3</ele>
        <time>2022-08-10T10:07:49Z</time>
      </trkpt>
      <trkpt lat="47.13047" lon="6.01326">
        <ele>464</ele>
        <time>2022-08-10T10:07:50Z</time>
      </trkpt>
      <trkpt lat="47.13044" lon="6.01322">
        <ele>464.7</ele>
        <time>2022-08-10T10:07:51Z</time>
      </trkpt>
      <trkpt lat="47.13041" lon="6.01317">
        <ele>465.2</ele>
        <time>2022-08-10T10:07:52Z</time>
      </trkpt>
      <trkpt lat="47.13037" lon="6.01311">
        <ele>465.7</ele>
        <time>2022-08-10T10:07:53Z</time>
      </trkpt>
      <trkpt lat="47.13034" lon="6.01306">
        <ele>466.2</ele>
        <time>2022-08-10T10:07:54Z</time>
      </trkpt>
      <trkpt lat="47.13032" lon="6.01301">
        <ele>466.4</ele>
        <time>2022-08-10T10:07:55Z</time>
      </trkpt>
      <trkpt lat="47.13029" lon="6.01295">
        <ele>466.8</ele>
        <time>2022-08-10T10:07:56Z</time>
      </trkpt>
      <trkpt lat="47.13028" lon="6.01289">
        <ele>467.2</ele>
        <time>2022-08-10T10:07:57Z</time>
      </trkpt>
      <trkpt lat="47.13025" lon="6.01283">
        <ele>467.6</ele>
        <time>2022-08-10T10:07:58Z</time>
      </trkpt>
      <trkpt lat="47.13023" lon="6.01277">
        <ele>467.8</ele>
        <time>2022-08-10T10:07:59Z</time>
      </trkpt>
      <trkpt lat="47.13021" lon="6.01272">
        <ele>468.2</ele>
        <time>2022-08-10T10:08:00Z</time>
      </trkpt>
      <trkpt lat="47.13018" lon="6.01268">
        <ele>468.5</ele>
        <time>2022-08-10T10:08:01Z</time>
      </trkpt>
      <trkpt lat="47.13016" lon="6.01259">
        <ele>467.2</ele>
        <time>2022-08-10T10:08:02Z</time>
      </trkpt>
      <trkpt lat="47.13013" lon="6.01254">
        <ele>467.2</ele>
        <time>2022-08-10T10:08:03Z</time>
      </trkpt>
      <trkpt lat="47.13011" lon="6.01248">
        <ele>467.1</ele>
        <time>2022-08-10T10:08:04Z</time>
      </trkpt>
      <trkpt lat="47.13009" lon="6.01243">
        <ele>467.1</ele>
        <time>2022-08-10T10:08:05Z</time>
      </trkpt>
      <trkpt lat="47.13007" lon="6.01238">
        <ele>467.4</ele>
        <time>2022-08-10T10:08:06Z</time>
      </trkpt>
      <trkpt lat="47.13005" lon="6.01233">
        <ele>467.6</ele>
        <time>2022-08-10T10:08:07Z</time>
      </trkpt>
      <trkpt lat="47.13003" lon="6.01229">
        <ele>467.9</ele>
        <time>2022-08-10T10:08:08Z</time>
      </trkpt>
      <trkpt lat="47.13002" lon="6.01225">
        <ele>468.2</ele>
        <time>2022-08-10T10:08:09Z</time>
      </trkpt>
      <trkpt lat="47.13001" lon="6.0122">
        <ele>468.5</ele>
        <time>2022-08-10T10:08:10Z</time>
      </trkpt>
      <trkpt lat="47.13" lon="6.01215">
        <ele>469.1</ele>
        <time>2022-08-10T10:08:11Z</time>
      </trkpt>
      <trkpt lat="47.13" lon="6.01209">
        <ele>470.3</ele>
        <time>2022-08-10T10:08:12Z</time>
      </trkpt>
      <trkpt lat="47.12999" lon="6.01203">
        <ele>471.2</ele>
        <time>2022-08-10T10:08:13Z</time>
      </trkpt>
      <trkpt lat="47.12999" lon="6.01197">
        <ele>471.7</ele>
        <time>2022-08-10T10:08:14Z</time>
      </trkpt>
      <trkpt lat="47.12999" lon="6.01191">
        <ele>471.4</ele>
        <time>2022-08-10T10:08:15Z</time>
      </trkpt>
      <trkpt lat="47.12999" lon="6.01187">
        <ele>471.8</ele>
        <time>2022-08-10T10:08:16Z</time>
      </trkpt>
      <trkpt lat="47.12999" lon="6.01182">
        <ele>472.3</ele>
        <time>2022-08-10T10:08:17Z</time>
      </trkpt>
      <trkpt lat="47.13" lon="6.01177">
        <ele>472.6</ele>
        <time>2022-08-10T10:08:18Z</time>
      </trkpt>
      <trkpt lat="47.13" lon="6.01172">
        <ele>472.4</ele>
        <time>2022-08-10T10:08:19Z</time>
      </trkpt>
      <trkpt lat="47.13" lon="6.01166">
        <ele>472.2</ele>
        <time>2022-08-10T10:08:20Z</time>
      </trkpt>
      <trkpt lat="47.13" lon="6.0116">
        <ele>471.9</ele>
        <time>2022-08-10T10:08:21Z</time>
      </trkpt>
      <trkpt lat="47.13001" lon="6.01153">
        <ele>471.3</ele>
        <time>2022-08-10T10:08:22Z</time>
      </trkpt>
      <trkpt lat="47.13002" lon="6.01147">
        <ele>471</ele>
        <time>2022-08-10T10:08:23Z</time>
      </trkpt>
      <trkpt lat="47.13002" lon="6.01141">
        <ele>470.6</ele>
        <time>2022-08-10T10:08:24Z</time>
      </trkpt>
      <trkpt lat="47.13002" lon="6.01134">
        <ele>470.2</ele>
        <time>2022-08-10T10:08:25Z</time>
      </trkpt>
      <trkpt lat="47.13001" lon="6.01129">
        <ele>469.8</ele>
        <time>2022-08-10T10:08:26Z</time>
      </trkpt>
      <trkpt lat="47.13" lon="6.01124">
        <ele>469.4</ele>
        <time>2022-08-10T10:08:27Z</time>
      </trkpt>
      <trkpt lat="47.12998" lon="6.0112">
        <ele>468.7</ele>
        <time>2022-08-10T10:08:28Z</time>
      </trkpt>
      <trkpt lat="47.12995" lon="6.01116">
        <ele>468.1</ele>
        <time>2022-08-10T10:08:29Z</time>
      </trkpt>
      <trkpt lat="47.12993" lon="6.01111">
        <ele>467.1</ele>
        <time>2022-08-10T10:08:30Z</time>
      </trkpt>
      <trkpt lat="47.12991" lon="6.01107">
        <ele>466.8</ele>
        <time>2022-08-10T10:08:31Z</time>
      </trkpt>
      <trkpt lat="47.12989" lon="6.01103">
        <ele>466.3</ele>
        <time>2022-08-10T10:08:32Z</time>
      </trkpt>
      <trkpt lat="47.12986" lon="6.011">
        <ele>465.9</ele>
        <time>2022-08-10T10:08:33Z</time>
      </trkpt>
      <trkpt lat="47.12984" lon="6.01097">
        <ele>465.6</ele>
        <time>2022-08-10T10:08:34Z</time>
      </trkpt>
      <trkpt lat="47.12981" lon="6.01094">
        <ele>465.3</ele>
        <time>2022-08-10T10:08:35Z</time>
      </trkpt>
      <trkpt lat="47.12979" lon="6.01091">
        <ele>465.3</ele>
        <time>2022-08-10T10:08:36Z</time>
      </trkpt>
      <trkpt lat="47.12977" lon="6.01088">
        <ele>465.4</ele>
        <time>2022-08-10T10:08:37Z</time>
      </trkpt>
      <trkpt lat="47.12975" lon="6.01085">
        <ele>465.5</ele>
        <time>2022-08-10T10:08:38Z</time>
      </trkpt>
      <trkpt lat="47.12972" lon="6.01082">
        <ele>465.3</ele>
        <time>2022-08-10T10:08:39Z</time>
      </trkpt>
      <trkpt lat="47.1297" lon="6.01077">
        <ele>465.3</ele>
        <time>2022-08-10T10:08:40Z</time>
      </trkpt>
      <trkpt lat="47.12968" lon="6.01073">
        <ele>465.5</ele>
        <time>2022-08-10T10:08:41Z</time>
      </trkpt>
      <trkpt lat="47.12966" lon="6.01068">
        <ele>465.6</ele>
        <time>2022-08-10T10:08:42Z</time>
      </trkpt>
      <trkpt lat="47.12964" lon="6.01064">
        <ele>465.6</ele>
        <time>2022-08-10T10:08:43Z</time>
      </trkpt>
      <trkpt lat="47.12963" lon="6.0106">
        <ele>465.8</ele>
        <time>2022-08-10T10:08:44Z</time>
      </trkpt>
      <trkpt lat="47.12961" lon="6.01056">
        <ele>465.8</ele>
        <time>2022-08-10T10:08:45Z</time>
      </trkpt>
      <trkpt lat="47.12959" lon="6.01052">
        <ele>465.7</ele>
        <time>2022-08-10T10:08:46Z</time>
      </trkpt>
      <trkpt lat="47.12956" lon="6.01048">
        <ele>465.5</ele>
        <time>2022-08-10T10:08:47Z</time>
      </trkpt>
      <trkpt lat="47.12954" lon="6.01045">
        <ele>465.2</ele>
        <time>2022-08-10T10:08:48Z</time>
      </trkpt>
      <trkpt lat="47.12953" lon="6.01042">
        <ele>465.3</ele>
        <time>2022-08-10T10:08:49Z</time>
      </trkpt>
      <trkpt lat="47.12951" lon="6.01037">
        <ele>465.1</ele>
        <time>2022-08-10T10:08:50Z</time>
      </trkpt>
      <trkpt lat="47.12949" lon="6.01033">
        <ele>465.2</ele>
        <time>2022-08-10T10:08:51Z</time>
      </trkpt>
      <trkpt lat="47.12947" lon="6.01029">
        <ele>465.3</ele>
        <time>2022-08-10T10:08:52Z</time>
      </trkpt>
      <trkpt lat="47.12946" lon="6.01024">
        <ele>464.9</ele>
        <time>2022-08-10T10:08:53Z</time>
      </trkpt>
      <trkpt lat="47.12945" lon="6.01019">
        <ele>465</ele>
        <time>2022-08-10T10:08:54Z</time>
      </trkpt>
      <trkpt lat="47.12944" lon="6.01013">
        <ele>465.5</ele>
        <time>2022-08-10T10:08:55Z</time>
      </trkpt>
      <trkpt lat="47.12943" lon="6.01009">
        <ele>465.8</ele>
        <time>2022-08-10T10:08:56Z</time>
      </trkpt>
      <trkpt lat="47.12942" lon="6.01004">
        <ele>466</ele>
        <time>2022-08-10T10:08:57Z</time>
      </trkpt>
      <trkpt lat="47.12941" lon="6.00998">
        <ele>466.2</ele>
        <time>2022-08-10T10:08:58Z</time>
      </trkpt>
      <trkpt lat="47.12941" lon="6.00992">
        <ele>466.8</ele>
        <time>2022-08-10T10:08:59Z</time>
      </trkpt>
      <trkpt lat="47.1294" lon="6.00988">
        <ele>467.4</ele>
        <time>2022-08-10T10:09:00Z</time>
      </trkpt>
      <trkpt lat="47.12939" lon="6.00983">
        <ele>467.5</ele>
        <time>2022-08-10T10:09:01Z</time>
      </trkpt>
      <trkpt lat="47.12939" lon="6.00978">
        <ele>467.9</ele>
        <time>2022-08-10T10:09:02Z</time>
      </trkpt>
      <trkpt lat="47.12938" lon="6.00974">
        <ele>468.1</ele>
        <time>2022-08-10T10:09:03Z</time>
      </trkpt>
      <trkpt lat="47.12937" lon="6.00969">
        <ele>468.7</ele>
        <time>2022-08-10T10:09:04Z</time>
      </trkpt>
      <trkpt lat="47.12936" lon="6.00965">
        <ele>469.1</ele>
        <time>2022-08-10T10:09:05Z</time>
      </trkpt>
      <trkpt lat="47.12935" lon="6.00962">
        <ele>469.6</ele>
        <time>2022-08-10T10:09:06Z</time>
      </trkpt>
      <trkpt lat="47.12934" lon="6.00958">
        <ele>470</ele>
        <time>2022-08-10T10:09:07Z</time>
      </trkpt>
      <trkpt lat="47.12934" lon="6.00953">
        <ele>470.6</ele>
        <time>2022-08-10T10:09:08Z</time>
      </trkpt>
      <trkpt lat="47.12934" lon="6.00948">
        <ele>471.3</ele>
        <time>2022-08-10T10:09:09Z</time>
      </trkpt>
      <trkpt lat="47.12934" lon="6.00944">
        <ele>472.3</ele>
        <time>2022-08-10T10:09:10Z</time>
      </trkpt>
      <trkpt lat="47.12934" lon="6.00939">
        <ele>473.1</ele>
        <time>2022-08-10T10:09:11Z</time>
      </trkpt>
      <trkpt lat="47.12934" lon="6.00934">
        <ele>473.7</ele>
        <time>2022-08-10T10:09:12Z</time>
      </trkpt>
      <trkpt lat="47.12934" lon="6.00928">
        <ele>474.2</ele>
        <time>2022-08-10T10:09:13Z</time>
      </trkpt>
      <trkpt lat="47.12933" lon="6.00923">
        <ele>474</ele>
        <time>2022-08-10T10:09:14Z</time>
      </trkpt>
      <trkpt lat="47.12932" lon="6.00917">
        <ele>474</ele>
        <time>2022-08-10T10:09:15Z</time>
      </trkpt>
      <trkpt lat="47.12931" lon="6.00912">
        <ele>474.1</ele>
        <time>2022-08-10T10:09:16Z</time>
      </trkpt>
      <trkpt lat="47.12929" lon="6.00907">
        <ele>473.8</ele>
        <time>2022-08-10T10:09:17Z</time>
      </trkpt>
      <trkpt lat="47.12928" lon="6.00904">
        <ele>473.8</ele>
        <time>2022-08-10T10:09:18Z</time>
      </trkpt>
      <trkpt lat="47.12926" lon="6.009">
        <ele>473.9</ele>
        <time>2022-08-10T10:09:19Z</time>
      </trkpt>
      <trkpt lat="47.12925" lon="6.00897">
        <ele>473.5</ele>
        <time>2022-08-10T10:09:20Z</time>
      </trkpt>
      <trkpt lat="47.12926" lon="6.00894">
        <ele>472.5</ele>
        <time>2022-08-10T10:09:21Z</time>
      </trkpt>
      <trkpt lat="47.12926" lon="6.00893">
        <ele>472.4</ele>
        <time>2022-08-10T10:09:22Z</time>
      </trkpt>
      <trkpt lat="47.12926" lon="6.00893">
        <ele>472</ele>
        <time>2022-08-10T10:09:23Z</time>
      </trkpt>
      <trkpt lat="47.12926" lon="6.00893">
        <ele>472</ele>
        <time>2022-08-10T10:09:24Z</time>
      </trkpt>
      <trkpt lat="47.12926" lon="6.00893">
        <ele>472</ele>
        <time>2022-08-10T10:09:25Z</time>
      </trkpt>
      <trkpt lat="47.12926" lon="6.00893">
        <ele>472</ele>
        <time>2022-08-10T10:09:26Z</time>
      </trkpt>
      <trkpt lat="47.12926" lon="6.00893">
        <ele>472</ele>
        <time>2022-08-10T10:09:27Z</time>
      </trkpt>
      <trkpt lat="47.12926" lon="6.00893">
        <ele>472</ele>
        <time>2022-08-10T10:09:28Z</time>
      </trkpt>
      <trkpt lat="47.12926" lon="6.00893">
        <ele>472</ele>
        <time>2022-08-10T10:09:29Z</time>
      </trkpt>
      <trkpt lat="47.12926" lon="6.00893">
        <ele>472</ele>
        <time>2022-08-10T10:09:30Z</time>
      </trkpt>
      <trkpt lat="47.12926" lon="6.00893">
        <ele>472</ele>
        <time>2022-08-10T10:09:31Z</time>
      </trkpt>
      <trkpt lat="47.12926" lon="6.00893">
        <ele>472</ele>
        <time>2022-08-10T10:09:32Z</time>
      </trkpt>
      <trkpt lat="47.12926" lon="6.00893">
        <ele>472</ele>
        <time>2022-08-10T10:09:33Z</time>
      </trkpt>
      <trkpt lat="47.12926" lon="6.00893">
        <ele>472</ele>
        <time>2022-08-10T10:09:34Z</time>
      </trkpt>
      <trkpt lat="47.12926" lon="6.00893">
        <ele>472</ele>
        <time>2022-08-10T10:09:35Z</time>
      </trkpt>
      <trkpt lat="47.12926" lon="6.00893">
        <ele>472</ele>
        <time>2022-08-10T10:09:36Z</time>
      </trkpt>
      <trkpt lat="47.12926" lon="6.00893">
        <ele>472</ele>
        <time>2022-08-10T10:09:37Z</time>
      </trkpt>
      <trkpt lat="47.12926" lon="6.00893">
        <ele>472</ele>
        <time>2022-08-10T10:09:38Z</time>
      </trkpt>
      <trkpt lat="47.12926" lon="6.00893">
        <ele>472</ele>
        <time>2022-08-10T10:09:39Z</time>
      </trkpt>
      <trkpt lat="47.12926" lon="6.00893">
        <ele>472</ele>
        <time>2022-08-10T10:09:40Z</time>
      </trkpt>
      <trkpt lat="47.12926" lon="6.00893">
        <ele>472</ele>
        <time>2022-08-10T10:09:41Z</time>
      </trkpt>
      <trkpt lat="47.12926" lon="6.00893">
        <ele>472</ele>
        <time>2022-08-10T10:09:42Z</time>
      </trkpt>
      <trkpt lat="47.12926" lon="6.00893">
        <ele>472</ele>
        <time>2022-08-10T10:09:43Z</time>
      </trkpt>
      <trkpt lat="47.12926" lon="6.00893">
        <ele>472</ele>
        <time>2022-08-10T10:09:44Z</time>
      </trkpt>
      <trkpt lat="47.12926" lon="6.00893">
        <ele>472</ele>
        <time>2022-08-10T10:09:45Z</time>
      </trkpt>
      <trkpt lat="47.12926" lon="6.00893">
        <ele>472</ele>
        <time>2022-08-10T10:09:46Z</time>
      </trkpt>
      <trkpt lat="47.12926" lon="6.00893">
        <ele>472</ele>
        <time>2022-08-10T10:09:47Z</time>
      </trkpt>
      <trkpt lat="47.12926" lon="6.00893">
        <ele>472</ele>
        <time>2022-08-10T10:09:48Z</time>
      </trkpt>
      <trkpt lat="47.12926" lon="6.00893">
        <ele>472</ele>
        <time>2022-08-10T10:09:49Z</time>
      </trkpt>
      <trkpt lat="47.12926" lon="6.00893">
        <ele>472</ele>
        <time>2022-08-10T10:09:50Z</time>
      </trkpt>
      <trkpt lat="47.12926" lon="6.00893">
        <ele>472</ele>
        <time>2022-08-10T10:09:51Z</time>
      </trkpt>
      <trkpt lat="47.12926" lon="6.00893">
        <ele>472</ele>
        <time>2022-08-10T10:09:52Z</time>
      </trkpt>
      <trkpt lat="47.12926" lon="6.00893">
        <ele>472</ele>
        <time>2022-08-10T10:09:53Z</time>
      </trkpt>
      <trkpt lat="47.12926" lon="6.00893">
        <ele>472</ele>
        <time>2022-08-10T10:09:54Z</time>
      </trkpt>
      <trkpt lat="47.12926" lon="6.00893">
        <ele>472</ele>
        <time>2022-08-10T10:09:55Z</time>
      </trkpt>
      <trkpt lat="47.12926" lon="6.00893">
        <ele>472</ele>
        <time>2022-08-10T10:09:56Z</time>
      </trkpt>
      <trkpt lat="47.12926" lon="6.00893">
        <ele>472</ele>
        <time>2022-08-10T10:09:57Z</time>
      </trkpt>
      <trkpt lat="47.12926" lon="6.00893">
        <ele>472</ele>
        <time>2022-08-10T10:09:58Z</time>
      </trkpt>
      <trkpt lat="47.12926" lon="6.00893">
        <ele>472</ele>
        <time>2022-08-10T10:09:59Z</time>
      </trkpt>
      <trkpt lat="47.12926" lon="6.00893">
        <ele>472</ele>
        <time>2022-08-10T10:10:00Z</time>
      </trkpt>
      <trkpt lat="47.12926" lon="6.00893">
        <ele>472</ele>
        <time>2022-08-10T10:10:01Z</time>
      </trkpt>
      <trkpt lat="47.12926" lon="6.00893">
        <ele>472</ele>
        <time>2022-08-10T10:10:02Z</time>
      </trkpt>
      <trkpt lat="47.12927" lon="6.00885">
        <ele>471.3</ele>
        <time>2022-08-10T10:10:03Z</time>
      </trkpt>
      <trkpt lat="47.12926" lon="6.00884">
        <ele>471.2</ele>
        <time>2022-08-10T10:10:04Z</time>
      </trkpt>
      <trkpt lat="47.12925" lon="6.00882">
        <ele>471</ele>
        <time>2022-08-10T10:10:05Z</time>
      </trkpt>
      <trkpt lat="47.12924" lon="6.0088">
        <ele>471</ele>
        <time>2022-08-10T10:10:06Z</time>
      </trkpt>
      <trkpt lat="47.12923" lon="6.00878">
        <ele>470.8</ele>
        <time>2022-08-10T10:10:07Z</time>
      </trkpt>
      <trkpt lat="47.12922" lon="6.00875">
        <ele>470.7</ele>
        <time>2022-08-10T10:10:08Z</time>
      </trkpt>
      <trkpt lat="47.1292" lon="6.00872">
        <ele>470.6</ele>
        <time>2022-08-10T10:10:09Z</time>
      </trkpt>
      <trkpt lat="47.12917" lon="6.00868">
        <ele>470.4</ele>
        <time>2022-08-10T10:10:10Z</time>
      </trkpt>
      <trkpt lat="47.12914" lon="6.00865">
        <ele>470.1</ele>
        <time>2022-08-10T10:10:11Z</time>
      </trkpt>
      <trkpt lat="47.12911" lon="6.00861">
        <ele>469.9</ele>
        <time>2022-08-10T10:10:12Z</time>
      </trkpt>
      <trkpt lat="47.12909" lon="6.00857">
        <ele>469.7</ele>
        <time>2022-08-10T10:10:13Z</time>
      </trkpt>
      <trkpt lat="47.12906" lon="6.00853">
        <ele>469.5</ele>
        <time>2022-08-10T10:10:14Z</time>
      </trkpt>
      <trkpt lat="47.12903" lon="6.00849">
        <ele>469.4</ele>
        <time>2022-08-10T10:10:15Z</time>
      </trkpt>
      <trkpt lat="47.129" lon="6.00846">
        <ele>469.1</ele>
        <time>2022-08-10T10:10:16Z</time>
      </trkpt>
      <trkpt lat="47.12897" lon="6.00842">
        <ele>468.7</ele>
        <time>2022-08-10T10:10:17Z</time>
      </trkpt>
      <trkpt lat="47.12894" lon="6.00839">
        <ele>468.5</ele>
        <time>2022-08-10T10:10:18Z</time>
      </trkpt>
      <trkpt lat="47.12892" lon="6.00835">
        <ele>468.7</ele>
        <time>2022-08-10T10:10:19Z</time>
      </trkpt>
      <trkpt lat="47.12889" lon="6.00831">
        <ele>468.7</ele>
        <time>2022-08-10T10:10:20Z</time>
      </trkpt>
      <trkpt lat="47.12886" lon="6.00827">
        <ele>468.6</ele>
        <time>2022-08-10T10:10:21Z</time>
      </trkpt>
      <trkpt lat="47.12883" lon="6.00823">
        <ele>468.4</ele>
        <time>2022-08-10T10:10:22Z</time>
      </trkpt>
      <trkpt lat="47.1288" lon="6.00819">
        <ele>468.2</ele>
        <time>2022-08-10T10:10:23Z</time>
      </trkpt>
      <trkpt lat="47.12878" lon="6.00814">
        <ele>468.2</ele>
        <time>2022-08-10T10:10:24Z</time>
      </trkpt>
      <trkpt lat="47.12877" lon="6.0081">
        <ele>468.4</ele>
        <time>2022-08-10T10:10:25Z</time>
      </trkpt>
      <trkpt lat="47.12875" lon="6.00805">
        <ele>468.1</ele>
        <time>2022-08-10T10:10:26Z</time>
      </trkpt>
      <trkpt lat="47.12873" lon="6.008">
        <ele>467.5</ele>
        <time>2022-08-10T10:10:27Z</time>
      </trkpt>
      <trkpt lat="47.12872" lon="6.00793">
        <ele>467.2</ele>
        <time>2022-08-10T10:10:28Z</time>
      </trkpt>
      <trkpt lat="47.1287" lon="6.00787">
        <ele>466.8</ele>
        <time>2022-08-10T10:10:29Z</time>
      </trkpt>
      <trkpt lat="47.12869" lon="6.00782">
        <ele>466.4</ele>
        <time>2022-08-10T10:10:30Z</time>
      </trkpt>
      <trkpt lat="47.12868" lon="6.00776">
        <ele>466.2</ele>
        <time>2022-08-10T10:10:31Z</time>
      </trkpt>
      <trkpt lat="47.12866" lon="6.0077">
        <ele>466.2</ele>
        <time>2022-08-10T10:10:32Z</time>
      </trkpt>
      <trkpt lat="47.12864" lon="6.00765">
        <ele>466.2</ele>
        <time>2022-08-10T10:10:33Z</time>
      </trkpt>
      <trkpt lat="47.12862" lon="6.00761">
        <ele>466.1</ele>
        <time>2022-08-10T10:10:34Z</time>
      </trkpt>
      <trkpt lat="47.1286" lon="6.00758">
        <ele>466</ele>
        <time>2022-08-10T10:10:35Z</time>
      </trkpt>
      <trkpt lat="47.12857" lon="6.00755">
        <ele>465.9</ele>
        <time>2022-08-10T10:10:36Z</time>
      </trkpt>
      <trkpt lat="47.12855" lon="6.00752">
        <ele>465.7</ele>
        <time>2022-08-10T10:10:37Z</time>
      </trkpt>
      <trkpt lat="47.12852" lon="6.0075">
        <ele>465.5</ele>
        <time>2022-08-10T10:10:38Z</time>
      </trkpt>
      <trkpt lat="47.1285" lon="6.00747">
        <ele>465.1</ele>
        <time>2022-08-10T10:10:39Z</time>
      </trkpt>
      <trkpt lat="47.12847" lon="6.00745">
        <ele>465</ele>
        <time>2022-08-10T10:10:40Z</time>
      </trkpt>
      <trkpt lat="47.12844" lon="6.00742">
        <ele>464.9</ele>
        <time>2022-08-10T10:10:41Z</time>
      </trkpt>
      <trkpt lat="47.12841" lon="6.00739">
        <ele>464.9</ele>
        <time>2022-08-10T10:10:42Z</time>
      </trkpt>
      <trkpt lat="47.12837" lon="6.00735">
        <ele>464.5</ele>
        <time>2022-08-10T10:10:43Z</time>
      </trkpt>
      <trkpt lat="47.12834" lon="6.00732">
        <ele>464.4</ele>
        <time>2022-08-10T10:10:44Z</time>
      </trkpt>
      <trkpt lat="47.12831" lon="6.00727">
        <ele>465.2</ele>
        <time>2022-08-10T10:10:45Z</time>
      </trkpt>
      <trkpt lat="47.12828" lon="6.00724">
        <ele>465.1</ele>
        <time>2022-08-10T10:10:46Z</time>
      </trkpt>
      <trkpt lat="47.12826" lon="6.00721">
        <ele>465.4</ele>
        <time>2022-08-10T10:10:47Z</time>
      </trkpt>
      <trkpt lat="47.12823" lon="6.00717">
        <ele>465.8</ele>
        <time>2022-08-10T10:10:48Z</time>
      </trkpt>
      <trkpt lat="47.12821" lon="6.00714">
        <ele>466</ele>
        <time>2022-08-10T10:10:49Z</time>
      </trkpt>
      <trkpt lat="47.12818" lon="6.0071">
        <ele>466.3</ele>
        <time>2022-08-10T10:10:50Z</time>
      </trkpt>
      <trkpt lat="47.12815" lon="6.00706">
        <ele>466.2</ele>
        <time>2022-08-10T10:10:51Z</time>
      </trkpt>
      <trkpt lat="47.12813" lon="6.00702">
        <ele>466</ele>
        <time>2022-08-10T10:10:52Z</time>
      </trkpt>
      <trkpt lat="47.12811" lon="6.00698">
        <ele>466.3</ele>
        <time>2022-08-10T10:10:53Z</time>
      </trkpt>
      <trkpt lat="47.12808" lon="6.00694">
        <ele>466.3</ele>
        <time>2022-08-10T10:10:54Z</time>
      </trkpt>
      <trkpt lat="47.12806" lon="6.0069">
        <ele>466.5</ele>
        <time>2022-08-10T10:10:55Z</time>
      </trkpt>
      <trkpt lat="47.12804" lon="6.00687">
        <ele>466.5</ele>
        <time>2022-08-10T10:10:56Z</time>
      </trkpt>
      <trkpt lat="47.12801" lon="6.00684">
        <ele>466.8</ele>
        <time>2022-08-10T10:10:57Z</time>
      </trkpt>
      <trkpt lat="47.12799" lon="6.0068">
        <ele>467.1</ele>
        <time>2022-08-10T10:10:58Z</time>
      </trkpt>
      <trkpt lat="47.12796" lon="6.00676">
        <ele>467.4</ele>
        <time>2022-08-10T10:10:59Z</time>
      </trkpt>
      <trkpt lat="47.12794" lon="6.00674">
        <ele>467.6</ele>
        <time>2022-08-10T10:11:00Z</time>
      </trkpt>
      <trkpt lat="47.12791" lon="6.0067">
        <ele>468</ele>
        <time>2022-08-10T10:11:01Z</time>
      </trkpt>
      <trkpt lat="47.12789" lon="6.00667">
        <ele>468.2</ele>
        <time>2022-08-10T10:11:02Z</time>
      </trkpt>
      <trkpt lat="47.12787" lon="6.00664">
        <ele>468.5</ele>
        <time>2022-08-10T10:11:03Z</time>
      </trkpt>
      <trkpt lat="47.12785" lon="6.00661">
        <ele>468.4</ele>
        <time>2022-08-10T10:11:04Z</time>
      </trkpt>
      <trkpt lat="47.12783" lon="6.00658">
        <ele>468.5</ele>
        <time>2022-08-10T10:11:05Z</time>
      </trkpt>
      <trkpt lat="47.1278" lon="6.00654">
        <ele>468.4</ele>
        <time>2022-08-10T10:11:06Z</time>
      </trkpt>
      <trkpt lat="47.12778" lon="6.0065">
        <ele>468.5</ele>
        <time>2022-08-10T10:11:07Z</time>
      </trkpt>
      <trkpt lat="47.12776" lon="6.00646">
        <ele>468.9</ele>
        <time>2022-08-10T10:11:08Z</time>
      </trkpt>
      <trkpt lat="47.12774" lon="6.00642">
        <ele>469.1</ele>
        <time>2022-08-10T10:11:09Z</time>
      </trkpt>
      <trkpt lat="47.12772" lon="6.00638">
        <ele>469.2</ele>
        <time>2022-08-10T10:11:10Z</time>
      </trkpt>
      <trkpt lat="47.1277" lon="6.00634">
        <ele>469.9</ele>
        <time>2022-08-10T10:11:11Z</time>
      </trkpt>
      <trkpt lat="47.12768" lon="6.0063">
        <ele>470.4</ele>
        <time>2022-08-10T10:11:12Z</time>
      </trkpt>
      <trkpt lat="47.12766" lon="6.00626">
        <ele>471.1</ele>
        <time>2022-08-10T10:11:13Z</time>
      </trkpt>
      <trkpt lat="47.12764" lon="6.00621">
        <ele>471.6</ele>
        <time>2022-08-10T10:11:14Z</time>
      </trkpt>
      <trkpt lat="47.12762" lon="6.00617">
        <ele>472.3</ele>
        <time>2022-08-10T10:11:15Z</time>
      </trkpt>
      <trkpt lat="47.12761" lon="6.00609">
        <ele>473.2</ele>
        <time>2022-08-10T10:11:16Z</time>
      </trkpt>
      <trkpt lat="47.12759" lon="6.00604">
        <ele>473.5</ele>
        <time>2022-08-10T10:11:17Z</time>
      </trkpt>
      <trkpt lat="47.12757" lon="6.006">
        <ele>473.9</ele>
        <time>2022-08-10T10:11:18Z</time>
      </trkpt>
      <trkpt lat="47.12756" lon="6.00595">
        <ele>474.2</ele>
        <time>2022-08-10T10:11:19Z</time>
      </trkpt>
      <trkpt lat="47.12754" lon="6.0059">
        <ele>473.9</ele>
        <time>2022-08-10T10:11:20Z</time>
      </trkpt>
      <trkpt lat="47.12752" lon="6.00585">
        <ele>474.5</ele>
        <time>2022-08-10T10:11:21Z</time>
      </trkpt>
      <trkpt lat="47.1275" lon="6.0058">
        <ele>474.4</ele>
        <time>2022-08-10T10:11:22Z</time>
      </trkpt>
      <trkpt lat="47.12747" lon="6.00576">
        <ele>474.3</ele>
        <time>2022-08-10T10:11:23Z</time>
      </trkpt>
      <trkpt lat="47.12745" lon="6.00571">
        <ele>474.2</ele>
        <time>2022-08-10T10:11:24Z</time>
      </trkpt>
      <trkpt lat="47.12743" lon="6.00567">
        <ele>474</ele>
        <time>2022-08-10T10:11:25Z</time>
      </trkpt>
      <trkpt lat="47.12741" lon="6.00562">
        <ele>473.8</ele>
        <time>2022-08-10T10:11:26Z</time>
      </trkpt>
      <trkpt lat="47.12739" lon="6.00557">
        <ele>473.3</ele>
        <time>2022-08-10T10:11:27Z</time>
      </trkpt>
      <trkpt lat="47.12738" lon="6.00552">
        <ele>473.2</ele>
        <time>2022-08-10T10:11:28Z</time>
      </trkpt>
      <trkpt lat="47.12736" lon="6.00547">
        <ele>473.4</ele>
        <time>2022-08-10T10:11:29Z</time>
      </trkpt>
      <trkpt lat="47.12735" lon="6.00543">
        <ele>473.7</ele>
        <time>2022-08-10T10:11:30Z</time>
      </trkpt>
      <trkpt lat="47.12734" lon="6.00539">
        <ele>473.8</ele>
        <time>2022-08-10T10:11:31Z</time>
      </trkpt>
      <trkpt lat="47.12733" lon="6.00534">
        <ele>473.7</ele>
        <time>2022-08-10T10:11:32Z</time>
      </trkpt>
      <trkpt lat="47.12731" lon="6.0053">
        <ele>473.7</ele>
        <time>2022-08-10T10:11:33Z</time>
      </trkpt>
      <trkpt lat="47.1273" lon="6.00525">
        <ele>473.9</ele>
        <time>2022-08-10T10:11:34Z</time>
      </trkpt>
      <trkpt lat="47.12728" lon="6.0052">
        <ele>473.4</ele>
        <time>2022-08-10T10:11:35Z</time>
      </trkpt>
      <trkpt lat="47.12727" lon="6.00515">
        <ele>473.1</ele>
        <time>2022-08-10T10:11:36Z</time>
      </trkpt>
      <trkpt lat="47.12725" lon="6.0051">
        <ele>472.8</ele>
        <time>2022-08-10T10:11:37Z</time>
      </trkpt>
      <trkpt lat="47.12723" lon="6.00506">
        <ele>472.7</ele>
        <time>2022-08-10T10:11:38Z</time>
      </trkpt>
      <trkpt lat="47.12721" lon="6.00501">
        <ele>472.4</ele>
        <time>2022-08-10T10:11:39Z</time>
      </trkpt>
      <trkpt lat="47.12719" lon="6.00497">
        <ele>472.6</ele>
        <time>2022-08-10T10:11:40Z</time>
      </trkpt>
      <trkpt lat="47.12717" lon="6.00492">
        <ele>472.8</ele>
        <time>2022-08-10T10:11:41Z</time>
      </trkpt>
      <trkpt lat="47.12715" lon="6.00488">
        <ele>472.8</ele>
        <time>2022-08-10T10:11:42Z</time>
      </trkpt>
      <trkpt lat="47.12713" lon="6.00484">
        <ele>472.6</ele>
        <time>2022-08-10T10:11:43Z</time>
      </trkpt>
      <trkpt lat="47.1271" lon="6.00479">
        <ele>472.8</ele>
        <time>2022-08-10T10:11:44Z</time>
      </trkpt>
      <trkpt lat="47.12708" lon="6.00476">
        <ele>473.3</ele>
        <time>2022-08-10T10:11:45Z</time>
      </trkpt>
      <trkpt lat="47.12706" lon="6.00472">
        <ele>473.2</ele>
        <time>2022-08-10T10:11:46Z</time>
      </trkpt>
      <trkpt lat="47.12703" lon="6.00469">
        <ele>473.5</ele>
        <time>2022-08-10T10:11:47Z</time>
      </trkpt>
      <trkpt lat="47.12701" lon="6.00465">
        <ele>473.8</ele>
        <time>2022-08-10T10:11:48Z</time>
      </trkpt>
      <trkpt lat="47.12698" lon="6.00462">
        <ele>473.5</ele>
        <time>2022-08-10T10:11:49Z</time>
      </trkpt>
      <trkpt lat="47.12696" lon="6.00459">
        <ele>473.1</ele>
        <time>2022-08-10T10:11:50Z</time>
      </trkpt>
      <trkpt lat="47.12694" lon="6.00456">
        <ele>473.1</ele>
        <time>2022-08-10T10:11:51Z</time>
      </trkpt>
      <trkpt lat="47.12692" lon="6.00454">
        <ele>473.1</ele>
        <time>2022-08-10T10:11:52Z</time>
      </trkpt>
      <trkpt lat="47.12691" lon="6.00452">
        <ele>473.2</ele>
        <time>2022-08-10T10:11:53Z</time>
      </trkpt>
      <trkpt lat="47.12689" lon="6.00449">
        <ele>473.3</ele>
        <time>2022-08-10T10:11:54Z</time>
      </trkpt>
      <trkpt lat="47.12687" lon="6.00446">
        <ele>473.6</ele>
        <time>2022-08-10T10:11:55Z</time>
      </trkpt>
      <trkpt lat="47.12685" lon="6.00443">
        <ele>474</ele>
        <time>2022-08-10T10:11:56Z</time>
      </trkpt>
      <trkpt lat="47.12683" lon="6.00441">
        <ele>474.6</ele>
        <time>2022-08-10T10:11:57Z</time>
      </trkpt>
      <trkpt lat="47.1268" lon="6.00438">
        <ele>475.1</ele>
        <time>2022-08-10T10:11:58Z</time>
      </trkpt>
      <trkpt lat="47.12678" lon="6.00433">
        <ele>475.8</ele>
        <time>2022-08-10T10:11:59Z</time>
      </trkpt>
      <trkpt lat="47.12676" lon="6.00429">
        <ele>476</ele>
        <time>2022-08-10T10:12:00Z</time>
      </trkpt>
      <trkpt lat="47.12674" lon="6.00425">
        <ele>476.1</ele>
        <time>2022-08-10T10:12:01Z</time>
      </trkpt>
      <trkpt lat="47.12672" lon="6.00422">
        <ele>476.8</ele>
        <time>2022-08-10T10:12:02Z</time>
      </trkpt>
      <trkpt lat="47.1267" lon="6.00418">
        <ele>477</ele>
        <time>2022-08-10T10:12:03Z</time>
      </trkpt>
      <trkpt lat="47.12668" lon="6.00414">
        <ele>477.7</ele>
        <time>2022-08-10T10:12:04Z</time>
      </trkpt>
      <trkpt lat="47.12665" lon="6.00409">
        <ele>478</ele>
        <time>2022-08-10T10:12:05Z</time>
      </trkpt>
      <trkpt lat="47.12663" lon="6.00404">
        <ele>478.3</ele>
        <time>2022-08-10T10:12:06Z</time>
      </trkpt>
      <trkpt lat="47.12661" lon="6.004">
        <ele>478.2</ele>
        <time>2022-08-10T10:12:07Z</time>
      </trkpt>
      <trkpt lat="47.12659" lon="6.00395">
        <ele>478.2</ele>
        <time>2022-08-10T10:12:08Z</time>
      </trkpt>
      <trkpt lat="47.12657" lon="6.00391">
        <ele>477.8</ele>
        <time>2022-08-10T10:12:09Z</time>
      </trkpt>
      <trkpt lat="47.12655" lon="6.00387">
        <ele>478.1</ele>
        <time>2022-08-10T10:12:10Z</time>
      </trkpt>
      <trkpt lat="47.12653" lon="6.00384">
        <ele>478.1</ele>
        <time>2022-08-10T10:12:11Z</time>
      </trkpt>
      <trkpt lat="47.12651" lon="6.00381">
        <ele>478.5</ele>
        <time>2022-08-10T10:12:12Z</time>
      </trkpt>
      <trkpt lat="47.12649" lon="6.00378">
        <ele>478.8</ele>
        <time>2022-08-10T10:12:13Z</time>
      </trkpt>
      <trkpt lat="47.12648" lon="6.00375">
        <ele>479.2</ele>
        <time>2022-08-10T10:12:14Z</time>
      </trkpt>
      <trkpt lat="47.12646" lon="6.00371">
        <ele>479.3</ele>
        <time>2022-08-10T10:12:15Z</time>
      </trkpt>
      <trkpt lat="47.12644" lon="6.00369">
        <ele>479.8</ele>
        <time>2022-08-10T10:12:16Z</time>
      </trkpt>
      <trkpt lat="47.12642" lon="6.00366">
        <ele>480.2</ele>
        <time>2022-08-10T10:12:17Z</time>
      </trkpt>
      <trkpt lat="47.1264" lon="6.00363">
        <ele>480.7</ele>
        <time>2022-08-10T10:12:18Z</time>
      </trkpt>
      <trkpt lat="47.12637" lon="6.0036">
        <ele>481.2</ele>
        <time>2022-08-10T10:12:19Z</time>
      </trkpt>
      <trkpt lat="47.12634" lon="6.00357">
        <ele>481.9</ele>
        <time>2022-08-10T10:12:20Z</time>
      </trkpt>
      <trkpt lat="47.12631" lon="6.00354">
        <ele>482.7</ele>
        <time>2022-08-10T10:12:21Z</time>
      </trkpt>
      <trkpt lat="47.12629" lon="6.00351">
        <ele>483</ele>
        <time>2022-08-10T10:12:22Z</time>
      </trkpt>
      <trkpt lat="47.12626" lon="6.00348">
        <ele>483.4</ele>
        <time>2022-08-10T10:12:23Z</time>
      </trkpt>
      <trkpt lat="47.12624" lon="6.00346">
        <ele>483.7</ele>
        <time>2022-08-10T10:12:24Z</time>
      </trkpt>
      <trkpt lat="47.12622" lon="6.00343">
        <ele>484.1</ele>
        <time>2022-08-10T10:12:25Z</time>
      </trkpt>
      <trkpt lat="47.12619" lon="6.00341">
        <ele>484.5</ele>
        <time>2022-08-10T10:12:26Z</time>
      </trkpt>
      <trkpt lat="47.12617" lon="6.0034">
        <ele>485</ele>
        <time>2022-08-10T10:12:27Z</time>
      </trkpt>
      <trkpt lat="47.12614" lon="6.0034">
        <ele>485.5</ele>
        <time>2022-08-10T10:12:28Z</time>
      </trkpt>
      <trkpt lat="47.12612" lon="6.0034">
        <ele>486.5</ele>
        <time>2022-08-10T10:12:29Z</time>
      </trkpt>
      <trkpt lat="47.1261" lon="6.0034">
        <ele>487</ele>
        <time>2022-08-10T10:12:30Z</time>
      </trkpt>
      <trkpt lat="47.12608" lon="6.0034">
        <ele>488</ele>
        <time>2022-08-10T10:12:31Z</time>
      </trkpt>
      <trkpt lat="47.12606" lon="6.00341">
        <ele>488.7</ele>
        <time>2022-08-10T10:12:32Z</time>
      </trkpt>
      <trkpt lat="47.12604" lon="6.00341">
        <ele>489.5</ele>
        <time>2022-08-10T10:12:33Z</time>
      </trkpt>
      <trkpt lat="47.12602" lon="6.00341">
        <ele>490.5</ele>
        <time>2022-08-10T10:12:34Z</time>
      </trkpt>
      <trkpt lat="47.126" lon="6.0034">
        <ele>491.3</ele>
        <time>2022-08-10T10:12:35Z</time>
      </trkpt>
      <trkpt lat="47.12598" lon="6.00338">
        <ele>492.2</ele>
        <time>2022-08-10T10:12:36Z</time>
      </trkpt>
      <trkpt lat="47.12596" lon="6.00336">
        <ele>492.9</ele>
        <time>2022-08-10T10:12:37Z</time>
      </trkpt>
      <trkpt lat="47.12594" lon="6.00333">
        <ele>493.4</ele>
        <time>2022-08-10T10:12:38Z</time>
      </trkpt>
      <trkpt lat="47.12591" lon="6.00329">
        <ele>493.8</ele>
        <time>2022-08-10T10:12:39Z</time>
      </trkpt>
      <trkpt lat="47.12589" lon="6.00326">
        <ele>494.2</ele>
        <time>2022-08-10T10:12:40Z</time>
      </trkpt>
      <trkpt lat="47.12587" lon="6.00322">
        <ele>494.8</ele>
        <time>2022-08-10T10:12:41Z</time>
      </trkpt>
      <trkpt lat="47.12584" lon="6.00318">
        <ele>495.2</ele>
        <time>2022-08-10T10:12:42Z</time>
      </trkpt>
      <trkpt lat="47.12582" lon="6.00314">
        <ele>495.6</ele>
        <time>2022-08-10T10:12:43Z</time>
      </trkpt>
      <trkpt lat="47.12579" lon="6.0031">
        <ele>496.1</ele>
        <time>2022-08-10T10:12:44Z</time>
      </trkpt>
      <trkpt lat="47.12576" lon="6.00305">
        <ele>496.4</ele>
        <time>2022-08-10T10:12:45Z</time>
      </trkpt>
      <trkpt lat="47.12574" lon="6.00301">
        <ele>496.3</ele>
        <time>2022-08-10T10:12:46Z</time>
      </trkpt>
      <trkpt lat="47.12572" lon="6.00297">
        <ele>496</ele>
        <time>2022-08-10T10:12:47Z</time>
      </trkpt>
      <trkpt lat="47.12571" lon="6.00294">
        <ele>495.7</ele>
        <time>2022-08-10T10:12:48Z</time>
      </trkpt>
      <trkpt lat="47.12569" lon="6.00292">
        <ele>495.3</ele>
        <time>2022-08-10T10:12:49Z</time>
      </trkpt>
      <trkpt lat="47.12569" lon="6.00292">
        <ele>495.6</ele>
        <time>2022-08-10T10:12:50Z</time>
      </trkpt>
      <trkpt lat="47.12568" lon="6.00291">
        <ele>494.7</ele>
        <time>2022-08-10T10:12:51Z</time>
      </trkpt>
      <trkpt lat="47.12568" lon="6.00291">
        <ele>494.7</ele>
        <time>2022-08-10T10:12:52Z</time>
      </trkpt>
      <trkpt lat="47.12568" lon="6.00291">
        <ele>494.7</ele>
        <time>2022-08-10T10:12:53Z</time>
      </trkpt>
      <trkpt lat="47.12568" lon="6.00291">
        <ele>494.7</ele>
        <time>2022-08-10T10:12:54Z</time>
      </trkpt>
      <trkpt lat="47.12568" lon="6.00291">
        <ele>494.7</ele>
        <time>2022-08-10T10:12:55Z</time>
      </trkpt>
      <trkpt lat="47.12568" lon="6.00291">
        <ele>494.7</ele>
        <time>2022-08-10T10:12:56Z</time>
      </trkpt>
      <trkpt lat="47.12568" lon="6.00291">
        <ele>494.7</ele>
        <time>2022-08-10T10:12:57Z</time>
      </trkpt>
      <trkpt lat="47.12568" lon="6.00291">
        <ele>494.7</ele>
        <time>2022-08-10T10:12:58Z</time>
      </trkpt>
      <trkpt lat="47.12568" lon="6.00291">
        <ele>494.7</ele>
        <time>2022-08-10T10:12:59Z</time>
      </trkpt>
      <trkpt lat="47.12568" lon="6.00291">
        <ele>494.7</ele>
        <time>2022-08-10T10:13:00Z</time>
      </trkpt>
      <trkpt lat="47.12568" lon="6.00291">
        <ele>494.7</ele>
        <time>2022-08-10T10:13:01Z</time>
      </trkpt>
      <trkpt lat="47.12568" lon="6.00291">
        <ele>494.7</ele>
        <time>2022-08-10T10:13:02Z</time>
      </trkpt>
      <trkpt lat="47.12568" lon="6.00291">
        <ele>494.7</ele>
        <time>2022-08-10T10:13:03Z</time>
      </trkpt>
      <trkpt lat="47.12568" lon="6.00291">
        <ele>494.7</ele>
        <time>2022-08-10T10:13:04Z</time>
      </trkpt>
      <trkpt lat="47.12568" lon="6.00291">
        <ele>494.7</ele>
        <time>2022-08-10T10:13:05Z</time>
      </trkpt>
      <trkpt lat="47.12568" lon="6.00291">
        <ele>494.7</ele>
        <time>2022-08-10T10:13:06Z</time>
      </trkpt>
      <trkpt lat="47.12568" lon="6.00291">
        <ele>494.7</ele>
        <time>2022-08-10T10:13:07Z</time>
      </trkpt>
      <trkpt lat="47.1256" lon="6.00284">
        <ele>493</ele>
        <time>2022-08-10T10:13:08Z</time>
      </trkpt>
      <trkpt lat="47.12559" lon="6.00284">
        <ele>492.8</ele>
        <time>2022-08-10T10:13:09Z</time>
      </trkpt>
      <trkpt lat="47.12556" lon="6.00284">
        <ele>492.8</ele>
        <time>2022-08-10T10:13:10Z</time>
      </trkpt>
      <trkpt lat="47.12554" lon="6.00283">
        <ele>492.8</ele>
        <time>2022-08-10T10:13:11Z</time>
      </trkpt>
      <trkpt lat="47.12551" lon="6.00283">
        <ele>492.7</ele>
        <time>2022-08-10T10:13:12Z</time>
      </trkpt>
      <trkpt lat="47.12549" lon="6.00282">
        <ele>492.7</ele>
        <time>2022-08-10T10:13:13Z</time>
      </trkpt>
      <trkpt lat="47.12547" lon="6.00281">
        <ele>492.7</ele>
        <time>2022-08-10T10:13:14Z</time>
      </trkpt>
      <trkpt lat="47.12544" lon="6.0028">
        <ele>492.8</ele>
        <time>2022-08-10T10:13:15Z</time>
      </trkpt>
      <trkpt lat="47.12541" lon="6.0028">
        <ele>492.8</ele>
        <time>2022-08-10T10:13:16Z</time>
      </trkpt>
      <trkpt lat="47.12538" lon="6.0028">
        <ele>492.7</ele>
        <time>2022-08-10T10:13:17Z</time>
      </trkpt>
      <trkpt lat="47.12536" lon="6.0028">
        <ele>492.7</ele>
        <time>2022-08-10T10:13:18Z</time>
      </trkpt>
      <trkpt lat="47.12533" lon="6.00281">
        <ele>492.7</ele>
        <time>2022-08-10T10:13:19Z</time>
      </trkpt>
      <trkpt lat="47.12531" lon="6.00282">
        <ele>493</ele>
        <time>2022-08-10T10:13:20Z</time>
      </trkpt>
      <trkpt lat="47.12528" lon="6.00283">
        <ele>493.2</ele>
        <time>2022-08-10T10:13:21Z</time>
      </trkpt>
      <trkpt lat="47.12525" lon="6.00284">
        <ele>493.4</ele>
        <time>2022-08-10T10:13:22Z</time>
      </trkpt>
      <trkpt lat="47.12522" lon="6.00285">
        <ele>493.7</ele>
        <time>2022-08-10T10:13:23Z</time>
      </trkpt>
      <trkpt lat="47.12519" lon="6.00286">
        <ele>494</ele>
        <time>2022-08-10T10:13:24Z</time>
      </trkpt>
      <trkpt lat="47.12516" lon="6.00287">
        <ele>494.5</ele>
        <time>2022-08-10T10:13:25Z</time>
      </trkpt>
      <trkpt lat="47.12513" lon="6.00288">
        <ele>495.2</ele>
        <time>2022-08-10T10:13:26Z</time>
      </trkpt>
      <trkpt lat="47.1251" lon="6.00288">
        <ele>495.7</ele>
        <time>2022-08-10T10:13:27Z</time>
      </trkpt>
      <trkpt lat="47.12507" lon="6.00288">
        <ele>495.9</ele>
        <time>2022-08-10T10:13:28Z</time>
      </trkpt>
      <trkpt lat="47.12503" lon="6.00288">
        <ele>496.4</ele>
        <time>2022-08-10T10:13:29Z</time>
      </trkpt>
      <trkpt lat="47.12499" lon="6.00288">
        <ele>496.6</ele>
        <time>2022-08-10T10:13:30Z</time>
      </trkpt>
      <trkpt lat="47.12495" lon="6.00288">
        <ele>496.4</ele>
        <time>2022-08-10T10:13:31Z</time>
      </trkpt>
      <trkpt lat="47.12491" lon="6.00287">
        <ele>496.9</ele>
        <time>2022-08-10T10:13:32Z</time>
      </trkpt>
      <trkpt lat="47.12487" lon="6.00287">
        <ele>497.2</ele>
        <time>2022-08-10T10:13:33Z</time>
      </trkpt>
      <trkpt lat="47.12483" lon="6.00286">
        <ele>497.4</ele>
        <time>2022-08-10T10:13:34Z</time>
      </trkpt>
      <trkpt lat="47.12479" lon="6.00284">
        <ele>498</ele>
        <time>2022-08-10T10:13:35Z</time>
      </trkpt>
      <trkpt lat="47.12475" lon="6.00282">
        <ele>498.5</ele>
        <time>2022-08-10T10:13:36Z</time>
      </trkpt>
      <trkpt lat="47.1247" lon="6.00279">
        <ele>498.6</ele>
        <time>2022-08-10T10:13:37Z</time>
      </trkpt>
      <trkpt lat="47.12466" lon="6.00276">
        <ele>498.9</ele>
        <time>2022-08-10T10:13:38Z</time>
      </trkpt>
      <trkpt lat="47.12463" lon="6.00274">
        <ele>499.1</ele>
        <time>2022-08-10T10:13:39Z</time>
      </trkpt>
      <trkpt lat="47.12458" lon="6.00271">
        <ele>499</ele>
        <time>2022-08-10T10:13:40Z</time>
      </trkpt>
      <trkpt lat="47.12454" lon="6.00267">
        <ele>498.5</ele>
        <time>2022-08-10T10:13:41Z</time>
      </trkpt>
      <trkpt lat="47.1245" lon="6.00264">
        <ele>498.9</ele>
        <time>2022-08-10T10:13:42Z</time>
      </trkpt>
      <trkpt lat="47.12446" lon="6.00261">
        <ele>498.8</ele>
        <time>2022-08-10T10:13:43Z</time>
      </trkpt>
      <trkpt lat="47.12443" lon="6.00258">
        <ele>498.7</ele>
        <time>2022-08-10T10:13:44Z</time>
      </trkpt>
      <trkpt lat="47.12439" lon="6.00255">
        <ele>498.4</ele>
        <time>2022-08-10T10:13:45Z</time>
      </trkpt>
      <trkpt lat="47.12436" lon="6.00251">
        <ele>498.5</ele>
        <time>2022-08-10T10:13:46Z</time>
      </trkpt>
      <trkpt lat="47.12432" lon="6.00248">
        <ele>498.4</ele>
        <time>2022-08-10T10:13:47Z</time>
      </trkpt>
      <trkpt lat="47.12429" lon="6.00245">
        <ele>498.2</ele>
        <time>2022-08-10T10:13:48Z</time>
      </trkpt>
      <trkpt lat="47.12426" lon="6.00243">
        <ele>498.4</ele>
        <time>2022-08-10T10:13:49Z</time>
      </trkpt>
      <trkpt lat="47.12423" lon="6.00242">
        <ele>498.2</ele>
        <time>2022-08-10T10:13:50Z</time>
      </trkpt>
      <trkpt lat="47.1242" lon="6.00241">
        <ele>498</ele>
        <time>2022-08-10T10:13:51Z</time>
      </trkpt>
      <trkpt lat="47.12417" lon="6.0024">
        <ele>497.8</ele>
        <time>2022-08-10T10:13:52Z</time>
      </trkpt>
      <trkpt lat="47.12414" lon="6.00237">
        <ele>497.8</ele>
        <time>2022-08-10T10:13:53Z</time>
      </trkpt>
      <trkpt lat="47.12411" lon="6.00235">
        <ele>497.4</ele>
        <time>2022-08-10T10:13:54Z</time>
      </trkpt>
      <trkpt lat="47.12407" lon="6.00233">
        <ele>497.4</ele>
        <time>2022-08-10T10:13:55Z</time>
      </trkpt>
      <trkpt lat="47.12403" lon="6.0023">
        <ele>497.3</ele>
        <time>2022-08-10T10:13:56Z</time>
      </trkpt>
      <trkpt lat="47.12399" lon="6.00227">
        <ele>497</ele>
        <time>2022-08-10T10:13:57Z</time>
      </trkpt>
      <trkpt lat="47.12396" lon="6.00225">
        <ele>496.9</ele>
        <time>2022-08-10T10:13:58Z</time>
      </trkpt>
      <trkpt lat="47.12392" lon="6.00222">
        <ele>496.4</ele>
        <time>2022-08-10T10:13:59Z</time>
      </trkpt>
      <trkpt lat="47.12389" lon="6.00219">
        <ele>496.4</ele>
        <time>2022-08-10T10:14:00Z</time>
      </trkpt>
      <trkpt lat="47.12385" lon="6.00216">
        <ele>496.2</ele>
        <time>2022-08-10T10:14:01Z</time>
      </trkpt>
      <trkpt lat="47.12382" lon="6.00213">
        <ele>496.1</ele>
        <time>2022-08-10T10:14:02Z</time>
      </trkpt>
      <trkpt lat="47.12378" lon="6.00211">
        <ele>496.1</ele>
        <time>2022-08-10T10:14:03Z</time>
      </trkpt>
      <trkpt lat="47.12375" lon="6.0021">
        <ele>496.1</ele>
        <time>2022-08-10T10:14:04Z</time>
      </trkpt>
      <trkpt lat="47.12372" lon="6.0021">
        <ele>496.3</ele>
        <time>2022-08-10T10:14:05Z</time>
      </trkpt>
      <trkpt lat="47.1237" lon="6.00209">
        <ele>496.4</ele>
        <time>2022-08-10T10:14:06Z</time>
      </trkpt>
      <trkpt lat="47.12368" lon="6.00208">
        <ele>496.1</ele>
        <time>2022-08-10T10:14:07Z</time>
      </trkpt>
      <trkpt lat="47.12365" lon="6.00208">
        <ele>496.1</ele>
        <time>2022-08-10T10:14:08Z</time>
      </trkpt>
      <trkpt lat="47.12363" lon="6.00208">
        <ele>496.2</ele>
        <time>2022-08-10T10:14:09Z</time>
      </trkpt>
      <trkpt lat="47.1236" lon="6.00207">
        <ele>496.6</ele>
        <time>2022-08-10T10:14:10Z</time>
      </trkpt>
      <trkpt lat="47.12357" lon="6.00207">
        <ele>496.6</ele>
        <time>2022-08-10T10:14:11Z</time>
      </trkpt>
      <trkpt lat="47.12353" lon="6.00206">
        <ele>496.6</ele>
        <time>2022-08-10T10:14:12Z</time>
      </trkpt>
      <trkpt lat="47.12349" lon="6.00205">
        <ele>496.3</ele>
        <time>2022-08-10T10:14:13Z</time>
      </trkpt>
      <trkpt lat="47.12346" lon="6.00203">
        <ele>496.1</ele>
        <time>2022-08-10T10:14:14Z</time>
      </trkpt>
      <trkpt lat="47.12342" lon="6.00201">
        <ele>495.9</ele>
        <time>2022-08-10T10:14:15Z</time>
      </trkpt>
      <trkpt lat="47.12337" lon="6.00199">
        <ele>495.9</ele>
        <time>2022-08-10T10:14:16Z</time>
      </trkpt>
      <trkpt lat="47.12332" lon="6.00196">
        <ele>495.2</ele>
        <time>2022-08-10T10:14:17Z</time>
      </trkpt>
      <trkpt lat="47.12328" lon="6.00194">
        <ele>494.9</ele>
        <time>2022-08-10T10:14:18Z</time>
      </trkpt>
      <trkpt lat="47.12323" lon="6.00192">
        <ele>494.6</ele>
        <time>2022-08-10T10:14:19Z</time>
      </trkpt>
      <trkpt lat="47.12318" lon="6.00189">
        <ele>493.9</ele>
        <time>2022-08-10T10:14:20Z</time>
      </trkpt>
      <trkpt lat="47.12314" lon="6.00185">
        <ele>493.4</ele>
        <time>2022-08-10T10:14:21Z</time>
      </trkpt>
      <trkpt lat="47.1231" lon="6.00183">
        <ele>493.1</ele>
        <time>2022-08-10T10:14:22Z</time>
      </trkpt>
      <trkpt lat="47.12306" lon="6.00182">
        <ele>492.6</ele>
        <time>2022-08-10T10:14:23Z</time>
      </trkpt>
      <trkpt lat="47.12301" lon="6.00181">
        <ele>492.1</ele>
        <time>2022-08-10T10:14:24Z</time>
      </trkpt>
      <trkpt lat="47.12297" lon="6.00179">
        <ele>491.6</ele>
        <time>2022-08-10T10:14:25Z</time>
      </trkpt>
      <trkpt lat="47.12292" lon="6.00177">
        <ele>490.1</ele>
        <time>2022-08-10T10:14:26Z</time>
      </trkpt>
      <trkpt lat="47.12288" lon="6.00175">
        <ele>489.5</ele>
        <time>2022-08-10T10:14:27Z</time>
      </trkpt>
      <trkpt lat="47.12283" lon="6.00173">
        <ele>488.3</ele>
        <time>2022-08-10T10:14:28Z</time>
      </trkpt>
      <trkpt lat="47.12279" lon="6.0017">
        <ele>487.3</ele>
        <time>2022-08-10T10:14:29Z</time>
      </trkpt>
      <trkpt lat="47.12274" lon="6.00168">
        <ele>486.4</ele>
        <time>2022-08-10T10:14:30Z</time>
      </trkpt>
      <trkpt lat="47.1227" lon="6.00166">
        <ele>485.1</ele>
        <time>2022-08-10T10:14:31Z</time>
      </trkpt>
      <trkpt lat="47.12266" lon="6.00164">
        <ele>484.5</ele>
        <time>2022-08-10T10:14:32Z</time>
      </trkpt>
      <trkpt lat="47.12263" lon="6.00161">
        <ele>484.4</ele>
        <time>2022-08-10T10:14:33Z</time>
      </trkpt>
      <trkpt lat="47.1226" lon="6.00157">
        <ele>484.3</ele>
        <time>2022-08-10T10:14:34Z</time>
      </trkpt>
      <trkpt lat="47.12256" lon="6.00155">
        <ele>484.6</ele>
        <time>2022-08-10T10:14:35Z</time>
      </trkpt>
      <trkpt lat="47.12253" lon="6.00151">
        <ele>484.6</ele>
        <time>2022-08-10T10:14:36Z</time>
      </trkpt>
      <trkpt lat="47.1225" lon="6.00148">
        <ele>484.5</ele>
        <time>2022-08-10T10:14:37Z</time>
      </trkpt>
      <trkpt lat="47.12247" lon="6.00145">
        <ele>484.3</ele>
        <time>2022-08-10T10:14:38Z</time>
      </trkpt>
      <trkpt lat="47.12245" lon="6.00142">
        <ele>484.3</ele>
        <time>2022-08-10T10:14:39Z</time>
      </trkpt>
      <trkpt lat="47.12242" lon="6.0014">
        <ele>484.7</ele>
        <time>2022-08-10T10:14:40Z</time>
      </trkpt>
      <trkpt lat="47.1224" lon="6.00138">
        <ele>485</ele>
        <time>2022-08-10T10:14:41Z</time>
      </trkpt>
      <trkpt lat="47.12237" lon="6.00135">
        <ele>485.5</ele>
        <time>2022-08-10T10:14:42Z</time>
      </trkpt>
      <trkpt lat="47.12234" lon="6.00132">
        <ele>485.8</ele>
        <time>2022-08-10T10:14:43Z</time>
      </trkpt>
      <trkpt lat="47.12233" lon="6.00128">
        <ele>486.1</ele>
        <time>2022-08-10T10:14:44Z</time>
      </trkpt>
      <trkpt lat="47.12232" lon="6.00123">
        <ele>486.7</ele>
        <time>2022-08-10T10:14:45Z</time>
      </trkpt>
      <trkpt lat="47.12232" lon="6.00117">
        <ele>487.3</ele>
        <time>2022-08-10T10:14:46Z</time>
      </trkpt>
      <trkpt lat="47.12233" lon="6.00112">
        <ele>488</ele>
        <time>2022-08-10T10:14:47Z</time>
      </trkpt>
      <trkpt lat="47.12233" lon="6.00106">
        <ele>488.7</ele>
        <time>2022-08-10T10:14:48Z</time>
      </trkpt>
      <trkpt lat="47.12233" lon="6.001">
        <ele>489.4</ele>
        <time>2022-08-10T10:14:49Z</time>
      </trkpt>
      <trkpt lat="47.12234" lon="6.00095">
        <ele>490.3</ele>
        <time>2022-08-10T10:14:50Z</time>
      </trkpt>
      <trkpt lat="47.12236" lon="6.00087">
        <ele>489.2</ele>
        <time>2022-08-10T10:14:51Z</time>
      </trkpt>
      <trkpt lat="47.12239" lon="6.00077">
        <ele>486.1</ele>
        <time>2022-08-10T10:14:52Z</time>
      </trkpt>
      <trkpt lat="47.12242" lon="6.00069">
        <ele>485.1</ele>
        <time>2022-08-10T10:14:53Z</time>
      </trkpt>
      <trkpt lat="47.12245" lon="6.00059">
        <ele>483.3</ele>
        <time>2022-08-10T10:14:54Z</time>
      </trkpt>
      <trkpt lat="47.12248" lon="6.00047">
        <ele>480.7</ele>
        <time>2022-08-10T10:14:55Z</time>
      </trkpt>
      <trkpt lat="47.12252" lon="6.00039">
        <ele>480.1</ele>
        <time>2022-08-10T10:14:56Z</time>
      </trkpt>
      <trkpt lat="47.12255" lon="6.0003">
        <ele>479.5</ele>
        <time>2022-08-10T10:14:57Z</time>
      </trkpt>
      <trkpt lat="47.12259" lon="6.00021">
        <ele>478.5</ele>
        <time>2022-08-10T10:14:58Z</time>
      </trkpt>
      <trkpt lat="47.12262" lon="6.00011">
        <ele>477.7</ele>
        <time>2022-08-10T10:14:59Z</time>
      </trkpt>
      <trkpt lat="47.12265" lon="6.00002">
        <ele>476.9</ele>
        <time>2022-08-10T10:15:00Z</time>
      </trkpt>
      <trkpt lat="47.12268" lon="5.99994">
        <ele>476.5</ele>
        <time>2022-08-10T10:15:01Z</time>
      </trkpt>
      <trkpt lat="47.12272" lon="5.99984">
        <ele>476.1</ele>
        <time>2022-08-10T10:15:02Z</time>
      </trkpt>
      <trkpt lat="47.12274" lon="5.99975">
        <ele>475.9</ele>
        <time>2022-08-10T10:15:03Z</time>
      </trkpt>
      <trkpt lat="47.12277" lon="5.99965">
        <ele>475.5</ele>
        <time>2022-08-10T10:15:04Z</time>
      </trkpt>
      <trkpt lat="47.12278" lon="5.99955">
        <ele>475</ele>
        <time>2022-08-10T10:15:05Z</time>
      </trkpt>
      <trkpt lat="47.1228" lon="5.99945">
        <ele>474.1</ele>
        <time>2022-08-10T10:15:06Z</time>
      </trkpt>
      <trkpt lat="47.12281" lon="5.99935">
        <ele>473.4</ele>
        <time>2022-08-10T10:15:07Z</time>
      </trkpt>
      <trkpt lat="47.12283" lon="5.99921">
        <ele>470.4</ele>
        <time>2022-08-10T10:15:08Z</time>
      </trkpt>
      <trkpt lat="47.12285" lon="5.9991">
        <ele>469.4</ele>
        <time>2022-08-10T10:15:09Z</time>
      </trkpt>
      <trkpt lat="47.12289" lon="5.999">
        <ele>468.4</ele>
        <time>2022-08-10T10:15:10Z</time>
      </trkpt>
      <trkpt lat="47.12292" lon="5.9989">
        <ele>467.7</ele>
        <time>2022-08-10T10:15:11Z</time>
      </trkpt>
      <trkpt lat="47.12296" lon="5.99882">
        <ele>467.2</ele>
        <time>2022-08-10T10:15:12Z</time>
      </trkpt>
      <trkpt lat="47.12301" lon="5.99873">
        <ele>466.8</ele>
        <time>2022-08-10T10:15:13Z</time>
      </trkpt>
      <trkpt lat="47.12306" lon="5.99866">
        <ele>466.4</ele>
        <time>2022-08-10T10:15:14Z</time>
      </trkpt>
      <trkpt lat="47.12311" lon="5.99858">
        <ele>466.1</ele>
        <time>2022-08-10T10:15:15Z</time>
      </trkpt>
      <trkpt lat="47.12316" lon="5.99851">
        <ele>465.8</ele>
        <time>2022-08-10T10:15:16Z</time>
      </trkpt>
      <trkpt lat="47.12321" lon="5.99844">
        <ele>465.2</ele>
        <time>2022-08-10T10:15:17Z</time>
      </trkpt>
      <trkpt lat="47.12327" lon="5.99837">
        <ele>464.7</ele>
        <time>2022-08-10T10:15:18Z</time>
      </trkpt>
      <trkpt lat="47.12333" lon="5.9983">
        <ele>464.5</ele>
        <time>2022-08-10T10:15:19Z</time>
      </trkpt>
      <trkpt lat="47.12338" lon="5.99823">
        <ele>464.2</ele>
        <time>2022-08-10T10:15:20Z</time>
      </trkpt>
      <trkpt lat="47.12344" lon="5.99815">
        <ele>464</ele>
        <time>2022-08-10T10:15:21Z</time>
      </trkpt>
      <trkpt lat="47.12349" lon="5.99807">
        <ele>463.8</ele>
        <time>2022-08-10T10:15:22Z</time>
      </trkpt>
      <trkpt lat="47.12354" lon="5.99798">
        <ele>463.5</ele>
        <time>2022-08-10T10:15:23Z</time>
      </trkpt>
      <trkpt lat="47.1236" lon="5.99789">
        <ele>463.2</ele>
        <time>2022-08-10T10:15:24Z</time>
      </trkpt>
      <trkpt lat="47.12365" lon="5.9978">
        <ele>463</ele>
        <time>2022-08-10T10:15:25Z</time>
      </trkpt>
      <trkpt lat="47.12371" lon="5.99771">
        <ele>462.9</ele>
        <time>2022-08-10T10:15:26Z</time>
      </trkpt>
      <trkpt lat="47.12376" lon="5.99762">
        <ele>462.8</ele>
        <time>2022-08-10T10:15:27Z</time>
      </trkpt>
      <trkpt lat="47.12382" lon="5.99753">
        <ele>462.7</ele>
        <time>2022-08-10T10:15:28Z</time>
      </trkpt>
      <trkpt lat="47.12387" lon="5.99744">
        <ele>462.6</ele>
        <time>2022-08-10T10:15:29Z</time>
      </trkpt>
      <trkpt lat="47.12392" lon="5.99735">
        <ele>462.6</ele>
        <time>2022-08-10T10:15:30Z</time>
      </trkpt>
      <trkpt lat="47.12397" lon="5.99728">
        <ele>462.6</ele>
        <time>2022-08-10T10:15:31Z</time>
      </trkpt>
      <trkpt lat="47.12402" lon="5.9972">
        <ele>462.6</ele>
        <time>2022-08-10T10:15:32Z</time>
      </trkpt>
      <trkpt lat="47.12407" lon="5.99712">
        <ele>462.8</ele>
        <time>2022-08-10T10:15:33Z</time>
      </trkpt>
      <trkpt lat="47.12412" lon="5.99705">
        <ele>463</ele>
        <time>2022-08-10T10:15:34Z</time>
      </trkpt>
      <trkpt lat="47.12417" lon="5.99699">
        <ele>463.2</ele>
        <time>2022-08-10T10:15:35Z</time>
      </trkpt>
      <trkpt lat="47.12422" lon="5.99693">
        <ele>463.2</ele>
        <time>2022-08-10T10:15:36Z</time>
      </trkpt>
      <trkpt lat="47.12427" lon="5.99687">
        <ele>463.2</ele>
        <time>2022-08-10T10:15:37Z</time>
      </trkpt>
      <trkpt lat="47.12432" lon="5.99682">
        <ele>463.3</ele>
        <time>2022-08-10T10:15:38Z</time>
      </trkpt>
      <trkpt lat="47.12438" lon="5.99676">
        <ele>463.3</ele>
        <time>2022-08-10T10:15:39Z</time>
      </trkpt>
      <trkpt lat="47.12443" lon="5.99669">
        <ele>463.3</ele>
        <time>2022-08-10T10:15:40Z</time>
      </trkpt>
      <trkpt lat="47.12448" lon="5.99663">
        <ele>463.3</ele>
        <time>2022-08-10T10:15:41Z</time>
      </trkpt>
      <trkpt lat="47.12454" lon="5.99657">
        <ele>463.2</ele>
        <time>2022-08-10T10:15:42Z</time>
      </trkpt>
      <trkpt lat="47.12461" lon="5.99652">
        <ele>462.9</ele>
        <time>2022-08-10T10:15:43Z</time>
      </trkpt>
      <trkpt lat="47.12467" lon="5.99647">
        <ele>462.7</ele>
        <time>2022-08-10T10:15:44Z</time>
      </trkpt>
      <trkpt lat="47.12474" lon="5.99641">
        <ele>462.3</ele>
        <time>2022-08-10T10:15:45Z</time>
      </trkpt>
      <trkpt lat="47.1248" lon="5.99635">
        <ele>462</ele>
        <time>2022-08-10T10:15:46Z</time>
      </trkpt>
      <trkpt lat="47.12486" lon="5.9963">
        <ele>462</ele>
        <time>2022-08-10T10:15:47Z</time>
      </trkpt>
      <trkpt lat="47.12491" lon="5.99622">
        <ele>461.8</ele>
        <time>2022-08-10T10:15:48Z</time>
      </trkpt>
      <trkpt lat="47.12497" lon="5.99615">
        <ele>461.5</ele>
        <time>2022-08-10T10:15:49Z</time>
      </trkpt>
      <trkpt lat="47.12502" lon="5.99605">
        <ele>461.3</ele>
        <time>2022-08-10T10:15:50Z</time>
      </trkpt>
      <trkpt lat="47.12506" lon="5.99595">
        <ele>460.8</ele>
        <time>2022-08-10T10:15:51Z</time>
      </trkpt>
      <trkpt lat="47.12511" lon="5.99583">
        <ele>460.2</ele>
        <time>2022-08-10T10:15:52Z</time>
      </trkpt>
      <trkpt lat="47.12513" lon="5.99571">
        <ele>459.8</ele>
        <time>2022-08-10T10:15:53Z</time>
      </trkpt>
      <trkpt lat="47.12516" lon="5.99558">
        <ele>459.5</ele>
        <time>2022-08-10T10:15:54Z</time>
      </trkpt>
      <trkpt lat="47.1252" lon="5.99545">
        <ele>459.5</ele>
        <time>2022-08-10T10:15:55Z</time>
      </trkpt>
      <trkpt lat="47.12523" lon="5.99532">
        <ele>459.2</ele>
        <time>2022-08-10T10:15:56Z</time>
      </trkpt>
      <trkpt lat="47.12526" lon="5.99519">
        <ele>458.8</ele>
        <time>2022-08-10T10:15:57Z</time>
      </trkpt>
      <trkpt lat="47.12529" lon="5.99505">
        <ele>458.8</ele>
        <time>2022-08-10T10:15:58Z</time>
      </trkpt>
      <trkpt lat="47.12533" lon="5.99492">
        <ele>458.1</ele>
        <time>2022-08-10T10:15:59Z</time>
      </trkpt>
      <trkpt lat="47.12536" lon="5.99479">
        <ele>457.4</ele>
        <time>2022-08-10T10:16:00Z</time>
      </trkpt>
      <trkpt lat="47.12539" lon="5.99466">
        <ele>456.7</ele>
        <time>2022-08-10T10:16:01Z</time>
      </trkpt>
      <trkpt lat="47.12542" lon="5.99453">
        <ele>456.2</ele>
        <time>2022-08-10T10:16:02Z</time>
      </trkpt>
      <trkpt lat="47.12545" lon="5.9944">
        <ele>455.8</ele>
        <time>2022-08-10T10:16:03Z</time>
      </trkpt>
      <trkpt lat="47.12549" lon="5.99427">
        <ele>455</ele>
        <time>2022-08-10T10:16:04Z</time>
      </trkpt>
      <trkpt lat="47.12554" lon="5.99415">
        <ele>454.9</ele>
        <time>2022-08-10T10:16:05Z</time>
      </trkpt>
      <trkpt lat="47.12559" lon="5.99404">
        <ele>454.7</ele>
        <time>2022-08-10T10:16:06Z</time>
      </trkpt>
      <trkpt lat="47.12564" lon="5.99394">
        <ele>454.4</ele>
        <time>2022-08-10T10:16:07Z</time>
      </trkpt>
      <trkpt lat="47.1257" lon="5.99384">
        <ele>453.7</ele>
        <time>2022-08-10T10:16:08Z</time>
      </trkpt>
      <trkpt lat="47.12575" lon="5.99374">
        <ele>453.2</ele>
        <time>2022-08-10T10:16:09Z</time>
      </trkpt>
      <trkpt lat="47.12581" lon="5.99365">
        <ele>452.7</ele>
        <time>2022-08-10T10:16:10Z</time>
      </trkpt>
      <trkpt lat="47.12587" lon="5.99355">
        <ele>452.2</ele>
        <time>2022-08-10T10:16:11Z</time>
      </trkpt>
      <trkpt lat="47.12593" lon="5.99346">
        <ele>452.1</ele>
        <time>2022-08-10T10:16:12Z</time>
      </trkpt>
      <trkpt lat="47.12599" lon="5.99336">
        <ele>452.1</ele>
        <time>2022-08-10T10:16:13Z</time>
      </trkpt>
      <trkpt lat="47.12605" lon="5.99325">
        <ele>451.7</ele>
        <time>2022-08-10T10:16:14Z</time>
      </trkpt>
      <trkpt lat="47.12612" lon="5.99315">
        <ele>451.3</ele>
        <time>2022-08-10T10:16:15Z</time>
      </trkpt>
      <trkpt lat="47.12618" lon="5.99306">
        <ele>450.8</ele>
        <time>2022-08-10T10:16:16Z</time>
      </trkpt>
      <trkpt lat="47.12626" lon="5.99297">
        <ele>450.6</ele>
        <time>2022-08-10T10:16:17Z</time>
      </trkpt>
      <trkpt lat="47.12635" lon="5.99289">
        <ele>450.3</ele>
        <time>2022-08-10T10:16:18Z</time>
      </trkpt>
      <trkpt lat="47.12644" lon="5.99283">
        <ele>450.2</ele>
        <time>2022-08-10T10:16:19Z</time>
      </trkpt>
      <trkpt lat="47.12652" lon="5.99278">
        <ele>450.3</ele>
        <time>2022-08-10T10:16:20Z</time>
      </trkpt>
      <trkpt lat="47.12661" lon="5.99274">
        <ele>450.3</ele>
        <time>2022-08-10T10:16:21Z</time>
      </trkpt>
      <trkpt lat="47.1267" lon="5.99272">
        <ele>450.5</ele>
        <time>2022-08-10T10:16:22Z</time>
      </trkpt>
      <trkpt lat="47.12678" lon="5.99271">
        <ele>450.8</ele>
        <time>2022-08-10T10:16:23Z</time>
      </trkpt>
      <trkpt lat="47.12686" lon="5.9927">
        <ele>451.1</ele>
        <time>2022-08-10T10:16:24Z</time>
      </trkpt>
      <trkpt lat="47.12693" lon="5.99267">
        <ele>451.2</ele>
        <time>2022-08-10T10:16:25Z</time>
      </trkpt>
      <trkpt lat="47.12699" lon="5.99263">
        <ele>451.3</ele>
        <time>2022-08-10T10:16:26Z</time>
      </trkpt>
      <trkpt lat="47.12705" lon="5.99258">
        <ele>451.5</ele>
        <time>2022-08-10T10:16:27Z</time>
      </trkpt>
      <trkpt lat="47.12711" lon="5.99251">
        <ele>451.7</ele>
        <time>2022-08-10T10:16:28Z</time>
      </trkpt>
      <trkpt lat="47.12717" lon="5.99243">
        <ele>451.7</ele>
        <time>2022-08-10T10:16:29Z</time>
      </trkpt>
      <trkpt lat="47.12722" lon="5.99236">
        <ele>451.7</ele>
        <time>2022-08-10T10:16:30Z</time>
      </trkpt>
      <trkpt lat="47.12728" lon="5.99227">
        <ele>451.5</ele>
        <time>2022-08-10T10:16:31Z</time>
      </trkpt>
      <trkpt lat="47.12732" lon="5.99219">
        <ele>451.5</ele>
        <time>2022-08-10T10:16:32Z</time>
      </trkpt>
      <trkpt lat="47.12737" lon="5.99211">
        <ele>451</ele>
        <time>2022-08-10T10:16:33Z</time>
      </trkpt>
      <trkpt lat="47.12742" lon="5.99203">
        <ele>450.8</ele>
        <time>2022-08-10T10:16:34Z</time>
      </trkpt>
      <trkpt lat="47.12747" lon="5.99194">
        <ele>450.5</ele>
        <time>2022-08-10T10:16:35Z</time>
      </trkpt>
      <trkpt lat="47.12751" lon="5.99186">
        <ele>450.3</ele>
        <time>2022-08-10T10:16:36Z</time>
      </trkpt>
      <trkpt lat="47.12757" lon="5.99176">
        <ele>449.8</ele>
        <time>2022-08-10T10:16:37Z</time>
      </trkpt>
      <trkpt lat="47.12763" lon="5.99166">
        <ele>449.1</ele>
        <time>2022-08-10T10:16:38Z</time>
      </trkpt>
      <trkpt lat="47.12768" lon="5.99156">
        <ele>448.7</ele>
        <time>2022-08-10T10:16:39Z</time>
      </trkpt>
      <trkpt lat="47.12773" lon="5.99145">
        <ele>448.4</ele>
        <time>2022-08-10T10:16:40Z</time>
      </trkpt>
      <trkpt lat="47.12779" lon="5.99135">
        <ele>447.7</ele>
        <time>2022-08-10T10:16:41Z</time>
      </trkpt>
      <trkpt lat="47.12785" lon="5.99125">
        <ele>446.9</ele>
        <time>2022-08-10T10:16:42Z</time>
      </trkpt>
      <trkpt lat="47.1279" lon="5.99116">
        <ele>446.4</ele>
        <time>2022-08-10T10:16:43Z</time>
      </trkpt>
      <trkpt lat="47.12797" lon="5.99107">
        <ele>445.9</ele>
        <time>2022-08-10T10:16:44Z</time>
      </trkpt>
      <trkpt lat="47.12803" lon="5.99098">
        <ele>445.3</ele>
        <time>2022-08-10T10:16:45Z</time>
      </trkpt>
      <trkpt lat="47.1281" lon="5.9909">
        <ele>444.5</ele>
        <time>2022-08-10T10:16:46Z</time>
      </trkpt>
      <trkpt lat="47.12816" lon="5.99083">
        <ele>443.9</ele>
        <time>2022-08-10T10:16:47Z</time>
      </trkpt>
      <trkpt lat="47.12822" lon="5.99075">
        <ele>443.4</ele>
        <time>2022-08-10T10:16:48Z</time>
      </trkpt>
      <trkpt lat="47.12827" lon="5.99067">
        <ele>443</ele>
        <time>2022-08-10T10:16:49Z</time>
      </trkpt>
      <trkpt lat="47.12832" lon="5.99058">
        <ele>442.1</ele>
        <time>2022-08-10T10:16:50Z</time>
      </trkpt>
      <trkpt lat="47.12837" lon="5.99049">
        <ele>441.4</ele>
        <time>2022-08-10T10:16:51Z</time>
      </trkpt>
      <trkpt lat="47.12843" lon="5.99039">
        <ele>440.7</ele>
        <time>2022-08-10T10:16:52Z</time>
      </trkpt>
      <trkpt lat="47.12848" lon="5.99028">
        <ele>440.2</ele>
        <time>2022-08-10T10:16:53Z</time>
      </trkpt>
      <trkpt lat="47.12854" lon="5.99018">
        <ele>440</ele>
        <time>2022-08-10T10:16:54Z</time>
      </trkpt>
      <trkpt lat="47.12859" lon="5.99008">
        <ele>439.8</ele>
        <time>2022-08-10T10:16:55Z</time>
      </trkpt>
      <trkpt lat="47.12864" lon="5.98997">
        <ele>439.3</ele>
        <time>2022-08-10T10:16:56Z</time>
      </trkpt>
      <trkpt lat="47.1287" lon="5.98986">
        <ele>438.4</ele>
        <time>2022-08-10T10:16:57Z</time>
      </trkpt>
      <trkpt lat="47.12875" lon="5.98976">
        <ele>437.3</ele>
        <time>2022-08-10T10:16:58Z</time>
      </trkpt>
      <trkpt lat="47.12881" lon="5.98964">
        <ele>436</ele>
        <time>2022-08-10T10:16:59Z</time>
      </trkpt>
      <trkpt lat="47.12885" lon="5.98952">
        <ele>435.1</ele>
        <time>2022-08-10T10:17:00Z</time>
      </trkpt>
      <trkpt lat="47.12889" lon="5.9894">
        <ele>434.3</ele>
        <time>2022-08-10T10:17:01Z</time>
      </trkpt>
      <trkpt lat="47.12893" lon="5.98928">
        <ele>433.5</ele>
        <time>2022-08-10T10:17:02Z</time>
      </trkpt>
      <trkpt lat="47.12895" lon="5.98916">
        <ele>433</ele>
        <time>2022-08-10T10:17:03Z</time>
      </trkpt>
      <trkpt lat="47.12897" lon="5.98904">
        <ele>432.2</ele>
        <time>2022-08-10T10:17:04Z</time>
      </trkpt>
      <trkpt lat="47.12899" lon="5.98891">
        <ele>431.5</ele>
        <time>2022-08-10T10:17:05Z</time>
      </trkpt>
      <trkpt lat="47.129" lon="5.98878">
        <ele>431.3</ele>
        <time>2022-08-10T10:17:06Z</time>
      </trkpt>
      <trkpt lat="47.12901" lon="5.98866">
        <ele>430.7</ele>
        <time>2022-08-10T10:17:07Z</time>
      </trkpt>
      <trkpt lat="47.12902" lon="5.98854">
        <ele>430.1</ele>
        <time>2022-08-10T10:17:08Z</time>
      </trkpt>
      <trkpt lat="47.12902" lon="5.98843">
        <ele>429.5</ele>
        <time>2022-08-10T10:17:09Z</time>
      </trkpt>
      <trkpt lat="47.12902" lon="5.98831">
        <ele>429</ele>
        <time>2022-08-10T10:17:10Z</time>
      </trkpt>
      <trkpt lat="47.12902" lon="5.9882">
        <ele>428.6</ele>
        <time>2022-08-10T10:17:11Z</time>
      </trkpt>
      <trkpt lat="47.12901" lon="5.98808">
        <ele>428.3</ele>
        <time>2022-08-10T10:17:12Z</time>
      </trkpt>
      <trkpt lat="47.129" lon="5.98797">
        <ele>428.7</ele>
        <time>2022-08-10T10:17:13Z</time>
      </trkpt>
      <trkpt lat="47.12899" lon="5.98786">
        <ele>428.8</ele>
        <time>2022-08-10T10:17:14Z</time>
      </trkpt>
      <trkpt lat="47.12898" lon="5.98775">
        <ele>428.7</ele>
        <time>2022-08-10T10:17:15Z</time>
      </trkpt>
      <trkpt lat="47.12896" lon="5.98763">
        <ele>428.4</ele>
        <time>2022-08-10T10:17:16Z</time>
      </trkpt>
      <trkpt lat="47.12895" lon="5.98751">
        <ele>428.2</ele>
        <time>2022-08-10T10:17:17Z</time>
      </trkpt>
      <trkpt lat="47.12894" lon="5.98739">
        <ele>427.7</ele>
        <time>2022-08-10T10:17:18Z</time>
      </trkpt>
      <trkpt lat="47.12892" lon="5.98726">
        <ele>427.2</ele>
        <time>2022-08-10T10:17:19Z</time>
      </trkpt>
      <trkpt lat="47.1289" lon="5.98714">
        <ele>427</ele>
        <time>2022-08-10T10:17:20Z</time>
      </trkpt>
      <trkpt lat="47.12888" lon="5.98702">
        <ele>426.8</ele>
        <time>2022-08-10T10:17:21Z</time>
      </trkpt>
      <trkpt lat="47.12886" lon="5.98689">
        <ele>426.6</ele>
        <time>2022-08-10T10:17:22Z</time>
      </trkpt>
      <trkpt lat="47.12883" lon="5.98676">
        <ele>426.8</ele>
        <time>2022-08-10T10:17:23Z</time>
      </trkpt>
      <trkpt lat="47.12881" lon="5.98663">
        <ele>426.2</ele>
        <time>2022-08-10T10:17:24Z</time>
      </trkpt>
      <trkpt lat="47.12879" lon="5.9865">
        <ele>426.1</ele>
        <time>2022-08-10T10:17:25Z</time>
      </trkpt>
      <trkpt lat="47.12878" lon="5.98637">
        <ele>425.8</ele>
        <time>2022-08-10T10:17:26Z</time>
      </trkpt>
      <trkpt lat="47.12875" lon="5.98624">
        <ele>425.1</ele>
        <time>2022-08-10T10:17:27Z</time>
      </trkpt>
      <trkpt lat="47.12873" lon="5.98611">
        <ele>424.7</ele>
        <time>2022-08-10T10:17:28Z</time>
      </trkpt>
      <trkpt lat="47.12872" lon="5.98597">
        <ele>424</ele>
        <time>2022-08-10T10:17:29Z</time>
      </trkpt>
      <trkpt lat="47.12871" lon="5.98584">
        <ele>423.9</ele>
        <time>2022-08-10T10:17:30Z</time>
      </trkpt>
      <trkpt lat="47.12869" lon="5.98571">
        <ele>423.6</ele>
        <time>2022-08-10T10:17:31Z</time>
      </trkpt>
      <trkpt lat="47.12868" lon="5.98557">
        <ele>422.9</ele>
        <time>2022-08-10T10:17:32Z</time>
      </trkpt>
      <trkpt lat="47.12868" lon="5.98545">
        <ele>422.9</ele>
        <time>2022-08-10T10:17:33Z</time>
      </trkpt>
      <trkpt lat="47.12868" lon="5.98533">
        <ele>422.7</ele>
        <time>2022-08-10T10:17:34Z</time>
      </trkpt>
      <trkpt lat="47.12868" lon="5.98521">
        <ele>422.4</ele>
        <time>2022-08-10T10:17:35Z</time>
      </trkpt>
      <trkpt lat="47.12867" lon="5.9851">
        <ele>422.4</ele>
        <time>2022-08-10T10:17:36Z</time>
      </trkpt>
      <trkpt lat="47.12867" lon="5.985">
        <ele>422.7</ele>
        <time>2022-08-10T10:17:37Z</time>
      </trkpt>
      <trkpt lat="47.12866" lon="5.98491">
        <ele>423.2</ele>
        <time>2022-08-10T10:17:38Z</time>
      </trkpt>
      <trkpt lat="47.12866" lon="5.98481">
        <ele>423.8</ele>
        <time>2022-08-10T10:17:39Z</time>
      </trkpt>
      <trkpt lat="47.12865" lon="5.98472">
        <ele>423.8</ele>
        <time>2022-08-10T10:17:40Z</time>
      </trkpt>
      <trkpt lat="47.12864" lon="5.98462">
        <ele>424.1</ele>
        <time>2022-08-10T10:17:41Z</time>
      </trkpt>
      <trkpt lat="47.12864" lon="5.98453">
        <ele>424.1</ele>
        <time>2022-08-10T10:17:42Z</time>
      </trkpt>
      <trkpt lat="47.12864" lon="5.98445">
        <ele>424.7</ele>
        <time>2022-08-10T10:17:43Z</time>
      </trkpt>
      <trkpt lat="47.12864" lon="5.98436">
        <ele>425</ele>
        <time>2022-08-10T10:17:44Z</time>
      </trkpt>
      <trkpt lat="47.12863" lon="5.98428">
        <ele>425.2</ele>
        <time>2022-08-10T10:17:45Z</time>
      </trkpt>
      <trkpt lat="47.12863" lon="5.98419">
        <ele>425.4</ele>
        <time>2022-08-10T10:17:46Z</time>
      </trkpt>
      <trkpt lat="47.12862" lon="5.98411">
        <ele>425.5</ele>
        <time>2022-08-10T10:17:47Z</time>
      </trkpt>
      <trkpt lat="47.12862" lon="5.98402">
        <ele>425.3</ele>
        <time>2022-08-10T10:17:48Z</time>
      </trkpt>
      <trkpt lat="47.12862" lon="5.98394">
        <ele>425.3</ele>
        <time>2022-08-10T10:17:49Z</time>
      </trkpt>
      <trkpt lat="47.12861" lon="5.98385">
        <ele>425</ele>
        <time>2022-08-10T10:17:50Z</time>
      </trkpt>
      <trkpt lat="47.12861" lon="5.98376">
        <ele>424.8</ele>
        <time>2022-08-10T10:17:51Z</time>
      </trkpt>
      <trkpt lat="47.1286" lon="5.98368">
        <ele>424.7</ele>
        <time>2022-08-10T10:17:52Z</time>
      </trkpt>
      <trkpt lat="47.12859" lon="5.98361">
        <ele>424.8</ele>
        <time>2022-08-10T10:17:53Z</time>
      </trkpt>
      <trkpt lat="47.12859" lon="5.98353">
        <ele>424.8</ele>
        <time>2022-08-10T10:17:54Z</time>
      </trkpt>
      <trkpt lat="47.12858" lon="5.98345">
        <ele>425.4</ele>
        <time>2022-08-10T10:17:55Z</time>
      </trkpt>
      <trkpt lat="47.12857" lon="5.98337">
        <ele>425.9</ele>
        <time>2022-08-10T10:17:56Z</time>
      </trkpt>
      <trkpt lat="47.12856" lon="5.9833">
        <ele>426.4</ele>
        <time>2022-08-10T10:17:57Z</time>
      </trkpt>
      <trkpt lat="47.12856" lon="5.98322">
        <ele>426.4</ele>
        <time>2022-08-10T10:17:58Z</time>
      </trkpt>
      <trkpt lat="47.12855" lon="5.98313">
        <ele>426.5</ele>
        <time>2022-08-10T10:17:59Z</time>
      </trkpt>
      <trkpt lat="47.12855" lon="5.98304">
        <ele>426.7</ele>
        <time>2022-08-10T10:18:00Z</time>
      </trkpt>
      <trkpt lat="47.12854" lon="5.98296">
        <ele>426.9</ele>
        <time>2022-08-10T10:18:01Z</time>
      </trkpt>
      <trkpt lat="47.12853" lon="5.98288">
        <ele>427.5</ele>
        <time>2022-08-10T10:18:02Z</time>
      </trkpt>
      <trkpt lat="47.12853" lon="5.9828">
        <ele>427.8</ele>
        <time>2022-08-10T10:18:03Z</time>
      </trkpt>
      <trkpt lat="47.12852" lon="5.98272">
        <ele>428.1</ele>
        <time>2022-08-10T10:18:04Z</time>
      </trkpt>
      <trkpt lat="47.12852" lon="5.98263">
        <ele>428.4</ele>
        <time>2022-08-10T10:18:05Z</time>
      </trkpt>
      <trkpt lat="47.12851" lon="5.98255">
        <ele>428.5</ele>
        <time>2022-08-10T10:18:06Z</time>
      </trkpt>
      <trkpt lat="47.1285" lon="5.98246">
        <ele>428.6</ele>
        <time>2022-08-10T10:18:07Z</time>
      </trkpt>
      <trkpt lat="47.12849" lon="5.98238">
        <ele>429</ele>
        <time>2022-08-10T10:18:08Z</time>
      </trkpt>
      <trkpt lat="47.12849" lon="5.98229">
        <ele>429.1</ele>
        <time>2022-08-10T10:18:09Z</time>
      </trkpt>
      <trkpt lat="47.12848" lon="5.9822">
        <ele>428.7</ele>
        <time>2022-08-10T10:18:10Z</time>
      </trkpt>
      <trkpt lat="47.12848" lon="5.98212">
        <ele>428.3</ele>
        <time>2022-08-10T10:18:11Z</time>
      </trkpt>
      <trkpt lat="47.12847" lon="5.98203">
        <ele>428.4</ele>
        <time>2022-08-10T10:18:12Z</time>
      </trkpt>
      <trkpt lat="47.12846" lon="5.98195">
        <ele>428.4</ele>
        <time>2022-08-10T10:18:13Z</time>
      </trkpt>
      <trkpt lat="47.12845" lon="5.98186">
        <ele>428</ele>
        <time>2022-08-10T10:18:14Z</time>
      </trkpt>
      <trkpt lat="47.12844" lon="5.98177">
        <ele>427.6</ele>
        <time>2022-08-10T10:18:15Z</time>
      </trkpt>
      <trkpt lat="47.12843" lon="5.98169">
        <ele>427.1</ele>
        <time>2022-08-10T10:18:16Z</time>
      </trkpt>
      <trkpt lat="47.12842" lon="5.9816">
        <ele>426.3</ele>
        <time>2022-08-10T10:18:17Z</time>
      </trkpt>
      <trkpt lat="47.12841" lon="5.98151">
        <ele>426</ele>
        <time>2022-08-10T10:18:18Z</time>
      </trkpt>
      <trkpt lat="47.1284" lon="5.98142">
        <ele>425.5</ele>
        <time>2022-08-10T10:18:19Z</time>
      </trkpt>
      <trkpt lat="47.12838" lon="5.98133">
        <ele>425.3</ele>
        <time>2022-08-10T10:18:20Z</time>
      </trkpt>
      <trkpt lat="47.12837" lon="5.98124">
        <ele>425</ele>
        <time>2022-08-10T10:18:21Z</time>
      </trkpt>
      <trkpt lat="47.12835" lon="5.98116">
        <ele>424.9</ele>
        <time>2022-08-10T10:18:22Z</time>
      </trkpt>
      <trkpt lat="47.12833" lon="5.98107">
        <ele>424.6</ele>
        <time>2022-08-10T10:18:23Z</time>
      </trkpt>
      <trkpt lat="47.12832" lon="5.98099">
        <ele>424.7</ele>
        <time>2022-08-10T10:18:24Z</time>
      </trkpt>
      <trkpt lat="47.12831" lon="5.98091">
        <ele>425</ele>
        <time>2022-08-10T10:18:25Z</time>
      </trkpt>
      <trkpt lat="47.12829" lon="5.98083">
        <ele>425.1</ele>
        <time>2022-08-10T10:18:26Z</time>
      </trkpt>
      <trkpt lat="47.12828" lon="5.98075">
        <ele>425.7</ele>
        <time>2022-08-10T10:18:27Z</time>
      </trkpt>
      <trkpt lat="47.12827" lon="5.98068">
        <ele>426.3</ele>
        <time>2022-08-10T10:18:28Z</time>
      </trkpt>
      <trkpt lat="47.12826" lon="5.9806">
        <ele>426.6</ele>
        <time>2022-08-10T10:18:29Z</time>
      </trkpt>
      <trkpt lat="47.12826" lon="5.98052">
        <ele>427.3</ele>
        <time>2022-08-10T10:18:30Z</time>
      </trkpt>
      <trkpt lat="47.12826" lon="5.98043">
        <ele>427.3</ele>
        <time>2022-08-10T10:18:31Z</time>
      </trkpt>
      <trkpt lat="47.12826" lon="5.98034">
        <ele>427.6</ele>
        <time>2022-08-10T10:18:32Z</time>
      </trkpt>
      <trkpt lat="47.12827" lon="5.98025">
        <ele>427.8</ele>
        <time>2022-08-10T10:18:33Z</time>
      </trkpt>
      <trkpt lat="47.12827" lon="5.98016">
        <ele>428.1</ele>
        <time>2022-08-10T10:18:34Z</time>
      </trkpt>
      <trkpt lat="47.12827" lon="5.98006">
        <ele>427.6</ele>
        <time>2022-08-10T10:18:35Z</time>
      </trkpt>
      <trkpt lat="47.12827" lon="5.97996">
        <ele>427.2</ele>
        <time>2022-08-10T10:18:36Z</time>
      </trkpt>
      <trkpt lat="47.12827" lon="5.97985">
        <ele>426.6</ele>
        <time>2022-08-10T10:18:37Z</time>
      </trkpt>
      <trkpt lat="47.12828" lon="5.97974">
        <ele>426</ele>
        <time>2022-08-10T10:18:38Z</time>
      </trkpt>
      <trkpt lat="47.12828" lon="5.97963">
        <ele>425.2</ele>
        <time>2022-08-10T10:18:39Z</time>
      </trkpt>
      <trkpt lat="47.12828" lon="5.97951">
        <ele>423.9</ele>
        <time>2022-08-10T10:18:40Z</time>
      </trkpt>
      <trkpt lat="47.12828" lon="5.97939">
        <ele>423</ele>
        <time>2022-08-10T10:18:41Z</time>
      </trkpt>
      <trkpt lat="47.12829" lon="5.97928">
        <ele>422.3</ele>
        <time>2022-08-10T10:18:42Z</time>
      </trkpt>
      <trkpt lat="47.1283" lon="5.97916">
        <ele>421.5</ele>
        <time>2022-08-10T10:18:43Z</time>
      </trkpt>
      <trkpt lat="47.12831" lon="5.97904">
        <ele>420.7</ele>
        <time>2022-08-10T10:18:44Z</time>
      </trkpt>
      <trkpt lat="47.12833" lon="5.97893">
        <ele>420</ele>
        <time>2022-08-10T10:18:45Z</time>
      </trkpt>
      <trkpt lat="47.12836" lon="5.97881">
        <ele>419.3</ele>
        <time>2022-08-10T10:18:46Z</time>
      </trkpt>
      <trkpt lat="47.1284" lon="5.9787">
        <ele>418.4</ele>
        <time>2022-08-10T10:18:47Z</time>
      </trkpt>
      <trkpt lat="47.12845" lon="5.9786">
        <ele>417.4</ele>
        <time>2022-08-10T10:18:48Z</time>
      </trkpt>
      <trkpt lat="47.1285" lon="5.9785">
        <ele>416.6</ele>
        <time>2022-08-10T10:18:49Z</time>
      </trkpt>
      <trkpt lat="47.12856" lon="5.97841">
        <ele>415.9</ele>
        <time>2022-08-10T10:18:50Z</time>
      </trkpt>
      <trkpt lat="47.12861" lon="5.97831">
        <ele>415.2</ele>
        <time>2022-08-10T10:18:51Z</time>
      </trkpt>
      <trkpt lat="47.12867" lon="5.97821">
        <ele>414.6</ele>
        <time>2022-08-10T10:18:52Z</time>
      </trkpt>
      <trkpt lat="47.12873" lon="5.97812">
        <ele>414.4</ele>
        <time>2022-08-10T10:18:53Z</time>
      </trkpt>
      <trkpt lat="47.12878" lon="5.97802">
        <ele>414</ele>
        <time>2022-08-10T10:18:54Z</time>
      </trkpt>
      <trkpt lat="47.12884" lon="5.97793">
        <ele>413.7</ele>
        <time>2022-08-10T10:18:55Z</time>
      </trkpt>
      <trkpt lat="47.12889" lon="5.97783">
        <ele>413.5</ele>
        <time>2022-08-10T10:18:56Z</time>
      </trkpt>
      <trkpt lat="47.12895" lon="5.97773">
        <ele>412.8</ele>
        <time>2022-08-10T10:18:57Z</time>
      </trkpt>
      <trkpt lat="47.129" lon="5.97763">
        <ele>412.7</ele>
        <time>2022-08-10T10:18:58Z</time>
      </trkpt>
      <trkpt lat="47.12906" lon="5.97753">
        <ele>412.3</ele>
        <time>2022-08-10T10:18:59Z</time>
      </trkpt>
      <trkpt lat="47.12911" lon="5.97744">
        <ele>412.1</ele>
        <time>2022-08-10T10:19:00Z</time>
      </trkpt>
      <trkpt lat="47.12916" lon="5.97735">
        <ele>411.8</ele>
        <time>2022-08-10T10:19:01Z</time>
      </trkpt>
      <trkpt lat="47.12921" lon="5.97726">
        <ele>411.5</ele>
        <time>2022-08-10T10:19:02Z</time>
      </trkpt>
      <trkpt lat="47.12926" lon="5.97716">
        <ele>411.3</ele>
        <time>2022-08-10T10:19:03Z</time>
      </trkpt>
      <trkpt lat="47.12931" lon="5.97707">
        <ele>411.2</ele>
        <time>2022-08-10T10:19:04Z</time>
      </trkpt>
      <trkpt lat="47.12936" lon="5.97698">
        <ele>411</ele>
        <time>2022-08-10T10:19:05Z</time>
      </trkpt>
      <trkpt lat="47.12942" lon="5.97689">
        <ele>410.6</ele>
        <time>2022-08-10T10:19:06Z</time>
      </trkpt>
      <trkpt lat="47.12947" lon="5.9768">
        <ele>410.3</ele>
        <time>2022-08-10T10:19:07Z</time>
      </trkpt>
      <trkpt lat="47.12953" lon="5.97672">
        <ele>409.6</ele>
        <time>2022-08-10T10:19:08Z</time>
      </trkpt>
      <trkpt lat="47.12959" lon="5.97665">
        <ele>409.5</ele>
        <time>2022-08-10T10:19:09Z</time>
      </trkpt>
      <trkpt lat="47.12966" lon="5.97659">
        <ele>409.5</ele>
        <time>2022-08-10T10:19:10Z</time>
      </trkpt>
      <trkpt lat="47.12974" lon="5.97654">
        <ele>409.8</ele>
        <time>2022-08-10T10:19:11Z</time>
      </trkpt>
      <trkpt lat="47.12982" lon="5.9765">
        <ele>409.9</ele>
        <time>2022-08-10T10:19:12Z</time>
      </trkpt>
      <trkpt lat="47.12989" lon="5.97648">
        <ele>409.9</ele>
        <time>2022-08-10T10:19:13Z</time>
      </trkpt>
      <trkpt lat="47.12997" lon="5.97645">
        <ele>410.2</ele>
        <time>2022-08-10T10:19:14Z</time>
      </trkpt>
      <trkpt lat="47.13005" lon="5.97642">
        <ele>410.5</ele>
        <time>2022-08-10T10:19:15Z</time>
      </trkpt>
      <trkpt lat="47.13012" lon="5.97639">
        <ele>410.7</ele>
        <time>2022-08-10T10:19:16Z</time>
      </trkpt>
      <trkpt lat="47.1302" lon="5.97637">
        <ele>411</ele>
        <time>2022-08-10T10:19:17Z</time>
      </trkpt>
      <trkpt lat="47.13027" lon="5.97635">
        <ele>411.4</ele>
        <time>2022-08-10T10:19:18Z</time>
      </trkpt>
      <trkpt lat="47.13035" lon="5.97633">
        <ele>411.4</ele>
        <time>2022-08-10T10:19:19Z</time>
      </trkpt>
      <trkpt lat="47.13044" lon="5.97631">
        <ele>410.9</ele>
        <time>2022-08-10T10:19:20Z</time>
      </trkpt>
      <trkpt lat="47.13052" lon="5.97631">
        <ele>410.6</ele>
        <time>2022-08-10T10:19:21Z</time>
      </trkpt>
      <trkpt lat="47.13061" lon="5.97632">
        <ele>410.5</ele>
        <time>2022-08-10T10:19:22Z</time>
      </trkpt>
      <trkpt lat="47.13069" lon="5.97634">
        <ele>410.4</ele>
        <time>2022-08-10T10:19:23Z</time>
      </trkpt>
      <trkpt lat="47.13077" lon="5.97637">
        <ele>410.2</ele>
        <time>2022-08-10T10:19:24Z</time>
      </trkpt>
      <trkpt lat="47.13085" lon="5.9764">
        <ele>410.2</ele>
        <time>2022-08-10T10:19:25Z</time>
      </trkpt>
      <trkpt lat="47.13092" lon="5.97644">
        <ele>410.4</ele>
        <time>2022-08-10T10:19:26Z</time>
      </trkpt>
      <trkpt lat="47.131" lon="5.97647">
        <ele>410.7</ele>
        <time>2022-08-10T10:19:27Z</time>
      </trkpt>
      <trkpt lat="47.13107" lon="5.97649">
        <ele>410.8</ele>
        <time>2022-08-10T10:19:28Z</time>
      </trkpt>
      <trkpt lat="47.13115" lon="5.97651">
        <ele>410.8</ele>
        <time>2022-08-10T10:19:29Z</time>
      </trkpt>
      <trkpt lat="47.13123" lon="5.97653">
        <ele>410.9</ele>
        <time>2022-08-10T10:19:30Z</time>
      </trkpt>
      <trkpt lat="47.13131" lon="5.97655">
        <ele>411.1</ele>
        <time>2022-08-10T10:19:31Z</time>
      </trkpt>
      <trkpt lat="47.13138" lon="5.97659">
        <ele>411.2</ele>
        <time>2022-08-10T10:19:32Z</time>
      </trkpt>
      <trkpt lat="47.13145" lon="5.97663">
        <ele>411.4</ele>
        <time>2022-08-10T10:19:33Z</time>
      </trkpt>
      <trkpt lat="47.13152" lon="5.9767">
        <ele>411.8</ele>
        <time>2022-08-10T10:19:34Z</time>
      </trkpt>
      <trkpt lat="47.13159" lon="5.97677">
        <ele>412.5</ele>
        <time>2022-08-10T10:19:35Z</time>
      </trkpt>
      <trkpt lat="47.13166" lon="5.97685">
        <ele>412.6</ele>
        <time>2022-08-10T10:19:36Z</time>
      </trkpt>
      <trkpt lat="47.13174" lon="5.97693">
        <ele>412.6</ele>
        <time>2022-08-10T10:19:37Z</time>
      </trkpt>
      <trkpt lat="47.13181" lon="5.977">
        <ele>412.6</ele>
        <time>2022-08-10T10:19:38Z</time>
      </trkpt>
      <trkpt lat="47.13188" lon="5.97706">
        <ele>412.8</ele>
        <time>2022-08-10T10:19:39Z</time>
      </trkpt>
      <trkpt lat="47.13196" lon="5.97712">
        <ele>412.7</ele>
        <time>2022-08-10T10:19:40Z</time>
      </trkpt>
      <trkpt lat="47.13205" lon="5.97718">
        <ele>412.7</ele>
        <time>2022-08-10T10:19:41Z</time>
      </trkpt>
      <trkpt lat="47.13213" lon="5.97723">
        <ele>412.8</ele>
        <time>2022-08-10T10:19:42Z</time>
      </trkpt>
      <trkpt lat="47.13221" lon="5.97728">
        <ele>412.8</ele>
        <time>2022-08-10T10:19:43Z</time>
      </trkpt>
      <trkpt lat="47.13229" lon="5.97732">
        <ele>412.9</ele>
        <time>2022-08-10T10:19:44Z</time>
      </trkpt>
      <trkpt lat="47.13237" lon="5.97735">
        <ele>412.9</ele>
        <time>2022-08-10T10:19:45Z</time>
      </trkpt>
      <trkpt lat="47.13245" lon="5.97737">
        <ele>412.4</ele>
        <time>2022-08-10T10:19:46Z</time>
      </trkpt>
      <trkpt lat="47.13254" lon="5.9774">
        <ele>412.3</ele>
        <time>2022-08-10T10:19:47Z</time>
      </trkpt>
      <trkpt lat="47.13262" lon="5.97741">
        <ele>412.1</ele>
        <time>2022-08-10T10:19:48Z</time>
      </trkpt>
      <trkpt lat="47.1327" lon="5.97742">
        <ele>412.1</ele>
        <time>2022-08-10T10:19:49Z</time>
      </trkpt>
      <trkpt lat="47.13277" lon="5.97743">
        <ele>412</ele>
        <time>2022-08-10T10:19:50Z</time>
      </trkpt>
      <trkpt lat="47.13286" lon="5.97745">
        <ele>411.2</ele>
        <time>2022-08-10T10:19:51Z</time>
      </trkpt>
      <trkpt lat="47.13293" lon="5.97745">
        <ele>410.5</ele>
        <time>2022-08-10T10:19:52Z</time>
      </trkpt>
      <trkpt lat="47.133" lon="5.97745">
        <ele>409.6</ele>
        <time>2022-08-10T10:19:53Z</time>
      </trkpt>
      <trkpt lat="47.13306" lon="5.97742">
        <ele>409.3</ele>
        <time>2022-08-10T10:19:54Z</time>
      </trkpt>
      <trkpt lat="47.13312" lon="5.9774">
        <ele>409</ele>
        <time>2022-08-10T10:19:55Z</time>
      </trkpt>
      <trkpt lat="47.13317" lon="5.97738">
        <ele>408.5</ele>
        <time>2022-08-10T10:19:56Z</time>
      </trkpt>
      <trkpt lat="47.13323" lon="5.97736">
        <ele>408.1</ele>
        <time>2022-08-10T10:19:57Z</time>
      </trkpt>
      <trkpt lat="47.13328" lon="5.97734">
        <ele>407.8</ele>
        <time>2022-08-10T10:19:58Z</time>
      </trkpt>
      <trkpt lat="47.13333" lon="5.97731">
        <ele>407.2</ele>
        <time>2022-08-10T10:19:59Z</time>
      </trkpt>
      <trkpt lat="47.13337" lon="5.97728">
        <ele>406.8</ele>
        <time>2022-08-10T10:20:00Z</time>
      </trkpt>
      <trkpt lat="47.13342" lon="5.97725">
        <ele>406.5</ele>
        <time>2022-08-10T10:20:01Z</time>
      </trkpt>
      <trkpt lat="47.13346" lon="5.97722">
        <ele>406.6</ele>
        <time>2022-08-10T10:20:02Z</time>
      </trkpt>
      <trkpt lat="47.13351" lon="5.97719">
        <ele>406.8</ele>
        <time>2022-08-10T10:20:03Z</time>
      </trkpt>
      <trkpt lat="47.13355" lon="5.97716">
        <ele>406.9</ele>
        <time>2022-08-10T10:20:04Z</time>
      </trkpt>
      <trkpt lat="47.13359" lon="5.97713">
        <ele>407.3</ele>
        <time>2022-08-10T10:20:05Z</time>
      </trkpt>
      <trkpt lat="47.13364" lon="5.9771">
        <ele>407.6</ele>
        <time>2022-08-10T10:20:06Z</time>
      </trkpt>
      <trkpt lat="47.13369" lon="5.97707">
        <ele>407.7</ele>
        <time>2022-08-10T10:20:07Z</time>
      </trkpt>
      <trkpt lat="47.13375" lon="5.97705">
        <ele>407.5</ele>
        <time>2022-08-10T10:20:08Z</time>
      </trkpt>
      <trkpt lat="47.13381" lon="5.97703">
        <ele>407.2</ele>
        <time>2022-08-10T10:20:09Z</time>
      </trkpt>
      <trkpt lat="47.13386" lon="5.97701">
        <ele>407.5</ele>
        <time>2022-08-10T10:20:10Z</time>
      </trkpt>
      <trkpt lat="47.13392" lon="5.97698">
        <ele>407.2</ele>
        <time>2022-08-10T10:20:11Z</time>
      </trkpt>
      <trkpt lat="47.13397" lon="5.97695">
        <ele>407.3</ele>
        <time>2022-08-10T10:20:12Z</time>
      </trkpt>
      <trkpt lat="47.13402" lon="5.97693">
        <ele>407.1</ele>
        <time>2022-08-10T10:20:13Z</time>
      </trkpt>
      <trkpt lat="47.13407" lon="5.9769">
        <ele>407.3</ele>
        <time>2022-08-10T10:20:14Z</time>
      </trkpt>
      <trkpt lat="47.13411" lon="5.97687">
        <ele>407.6</ele>
        <time>2022-08-10T10:20:15Z</time>
      </trkpt>
      <trkpt lat="47.13416" lon="5.97684">
        <ele>407.7</ele>
        <time>2022-08-10T10:20:16Z</time>
      </trkpt>
      <trkpt lat="47.13421" lon="5.97682">
        <ele>407.7</ele>
        <time>2022-08-10T10:20:17Z</time>
      </trkpt>
      <trkpt lat="47.13426" lon="5.97679">
        <ele>407.3</ele>
        <time>2022-08-10T10:20:18Z</time>
      </trkpt>
      <trkpt lat="47.13431" lon="5.97675">
        <ele>407.1</ele>
        <time>2022-08-10T10:20:19Z</time>
      </trkpt>
      <trkpt lat="47.13435" lon="5.97672">
        <ele>406.6</ele>
        <time>2022-08-10T10:20:20Z</time>
      </trkpt>
      <trkpt lat="47.13441" lon="5.97669">
        <ele>406.2</ele>
        <time>2022-08-10T10:20:21Z</time>
      </trkpt>
      <trkpt lat="47.13446" lon="5.97665">
        <ele>405.4</ele>
        <time>2022-08-10T10:20:22Z</time>
      </trkpt>
      <trkpt lat="47.13452" lon="5.97662">
        <ele>404.8</ele>
        <time>2022-08-10T10:20:23Z</time>
      </trkpt>
      <trkpt lat="47.13457" lon="5.97659">
        <ele>404</ele>
        <time>2022-08-10T10:20:24Z</time>
      </trkpt>
      <trkpt lat="47.13462" lon="5.97656">
        <ele>403.5</ele>
        <time>2022-08-10T10:20:25Z</time>
      </trkpt>
      <trkpt lat="47.13468" lon="5.97654">
        <ele>403.1</ele>
        <time>2022-08-10T10:20:26Z</time>
      </trkpt>
      <trkpt lat="47.13474" lon="5.97652">
        <ele>402.7</ele>
        <time>2022-08-10T10:20:27Z</time>
      </trkpt>
      <trkpt lat="47.1348" lon="5.97651">
        <ele>402.2</ele>
        <time>2022-08-10T10:20:28Z</time>
      </trkpt>
      <trkpt lat="47.13486" lon="5.97649">
        <ele>401.8</ele>
        <time>2022-08-10T10:20:29Z</time>
      </trkpt>
      <trkpt lat="47.13492" lon="5.97648">
        <ele>401.6</ele>
        <time>2022-08-10T10:20:30Z</time>
      </trkpt>
      <trkpt lat="47.13499" lon="5.97647">
        <ele>400.7</ele>
        <time>2022-08-10T10:20:31Z</time>
      </trkpt>
      <trkpt lat="47.13506" lon="5.97646">
        <ele>399.9</ele>
        <time>2022-08-10T10:20:32Z</time>
      </trkpt>
      <trkpt lat="47.13513" lon="5.97645">
        <ele>399.3</ele>
        <time>2022-08-10T10:20:33Z</time>
      </trkpt>
      <trkpt lat="47.1352" lon="5.97644">
        <ele>398.5</ele>
        <time>2022-08-10T10:20:34Z</time>
      </trkpt>
      <trkpt lat="47.13527" lon="5.97643">
        <ele>397.8</ele>
        <time>2022-08-10T10:20:35Z</time>
      </trkpt>
      <trkpt lat="47.13535" lon="5.97642">
        <ele>396.9</ele>
        <time>2022-08-10T10:20:36Z</time>
      </trkpt>
      <trkpt lat="47.13543" lon="5.97642">
        <ele>396.4</ele>
        <time>2022-08-10T10:20:37Z</time>
      </trkpt>
      <trkpt lat="47.13551" lon="5.97642">
        <ele>395.6</ele>
        <time>2022-08-10T10:20:38Z</time>
      </trkpt>
      <trkpt lat="47.13559" lon="5.97642">
        <ele>395.2</ele>
        <time>2022-08-10T10:20:39Z</time>
      </trkpt>
      <trkpt lat="47.13566" lon="5.97643">
        <ele>395.1</ele>
        <time>2022-08-10T10:20:40Z</time>
      </trkpt>
      <trkpt lat="47.13574" lon="5.97644">
        <ele>395.4</ele>
        <time>2022-08-10T10:20:41Z</time>
      </trkpt>
      <trkpt lat="47.13582" lon="5.97645">
        <ele>395.1</ele>
        <time>2022-08-10T10:20:42Z</time>
      </trkpt>
      <trkpt lat="47.13589" lon="5.97647">
        <ele>395.3</ele>
        <time>2022-08-10T10:20:43Z</time>
      </trkpt>
      <trkpt lat="47.13596" lon="5.97649">
        <ele>395.5</ele>
        <time>2022-08-10T10:20:44Z</time>
      </trkpt>
      <trkpt lat="47.13603" lon="5.97651">
        <ele>395.8</ele>
        <time>2022-08-10T10:20:45Z</time>
      </trkpt>
      <trkpt lat="47.1361" lon="5.97653">
        <ele>396.3</ele>
        <time>2022-08-10T10:20:46Z</time>
      </trkpt>
      <trkpt lat="47.13616" lon="5.97655">
        <ele>396.7</ele>
        <time>2022-08-10T10:20:47Z</time>
      </trkpt>
      <trkpt lat="47.13623" lon="5.97658">
        <ele>396.5</ele>
        <time>2022-08-10T10:20:48Z</time>
      </trkpt>
      <trkpt lat="47.13629" lon="5.97661">
        <ele>396.8</ele>
        <time>2022-08-10T10:20:49Z</time>
      </trkpt>
      <trkpt lat="47.13635" lon="5.97663">
        <ele>396.8</ele>
        <time>2022-08-10T10:20:50Z</time>
      </trkpt>
      <trkpt lat="47.13642" lon="5.97666">
        <ele>396.5</ele>
        <time>2022-08-10T10:20:51Z</time>
      </trkpt>
      <trkpt lat="47.13648" lon="5.97668">
        <ele>396.5</ele>
        <time>2022-08-10T10:20:52Z</time>
      </trkpt>
      <trkpt lat="47.13654" lon="5.97669">
        <ele>396.3</ele>
        <time>2022-08-10T10:20:53Z</time>
      </trkpt>
      <trkpt lat="47.1366" lon="5.97671">
        <ele>396.1</ele>
        <time>2022-08-10T10:20:54Z</time>
      </trkpt>
      <trkpt lat="47.13667" lon="5.97673">
        <ele>396.1</ele>
        <time>2022-08-10T10:20:55Z</time>
      </trkpt>
      <trkpt lat="47.13673" lon="5.97675">
        <ele>396.3</ele>
        <time>2022-08-10T10:20:56Z</time>
      </trkpt>
      <trkpt lat="47.1368" lon="5.97677">
        <ele>396</ele>
        <time>2022-08-10T10:20:57Z</time>
      </trkpt>
      <trkpt lat="47.13686" lon="5.97679">
        <ele>396.1</ele>
        <time>2022-08-10T10:20:58Z</time>
      </trkpt>
      <trkpt lat="47.13692" lon="5.97681">
        <ele>396</ele>
        <time>2022-08-10T10:20:59Z</time>
      </trkpt>
      <trkpt lat="47.13698" lon="5.97682">
        <ele>396.2</ele>
        <time>2022-08-10T10:21:00Z</time>
      </trkpt>
      <trkpt lat="47.13704" lon="5.97683">
        <ele>396.4</ele>
        <time>2022-08-10T10:21:01Z</time>
      </trkpt>
      <trkpt lat="47.1371" lon="5.97685">
        <ele>396.8</ele>
        <time>2022-08-10T10:21:02Z</time>
      </trkpt>
      <trkpt lat="47.13716" lon="5.97685">
        <ele>397.2</ele>
        <time>2022-08-10T10:21:03Z</time>
      </trkpt>
      <trkpt lat="47.13722" lon="5.97686">
        <ele>397.5</ele>
        <time>2022-08-10T10:21:04Z</time>
      </trkpt>
      <trkpt lat="47.13728" lon="5.97687">
        <ele>398</ele>
        <time>2022-08-10T10:21:05Z</time>
      </trkpt>
      <trkpt lat="47.13734" lon="5.97689">
        <ele>398.3</ele>
        <time>2022-08-10T10:21:06Z</time>
      </trkpt>
      <trkpt lat="47.1374" lon="5.97691">
        <ele>398.7</ele>
        <time>2022-08-10T10:21:07Z</time>
      </trkpt>
      <trkpt lat="47.13747" lon="5.97692">
        <ele>398.9</ele>
        <time>2022-08-10T10:21:08Z</time>
      </trkpt>
      <trkpt lat="47.13754" lon="5.97694">
        <ele>399</ele>
        <time>2022-08-10T10:21:09Z</time>
      </trkpt>
      <trkpt lat="47.13762" lon="5.97695">
        <ele>399.4</ele>
        <time>2022-08-10T10:21:10Z</time>
      </trkpt>
      <trkpt lat="47.1377" lon="5.97697">
        <ele>399.4</ele>
        <time>2022-08-10T10:21:11Z</time>
      </trkpt>
      <trkpt lat="47.13778" lon="5.97698">
        <ele>399.3</ele>
        <time>2022-08-10T10:21:12Z</time>
      </trkpt>
      <trkpt lat="47.13787" lon="5.977">
        <ele>399</ele>
        <time>2022-08-10T10:21:13Z</time>
      </trkpt>
      <trkpt lat="47.13796" lon="5.97702">
        <ele>398.3</ele>
        <time>2022-08-10T10:21:14Z</time>
      </trkpt>
      <trkpt lat="47.13805" lon="5.97705">
        <ele>398.1</ele>
        <time>2022-08-10T10:21:15Z</time>
      </trkpt>
      <trkpt lat="47.13814" lon="5.97707">
        <ele>397.2</ele>
        <time>2022-08-10T10:21:16Z</time>
      </trkpt>
      <trkpt lat="47.13823" lon="5.97709">
        <ele>395.9</ele>
        <time>2022-08-10T10:21:17Z</time>
      </trkpt>
      <trkpt lat="47.13832" lon="5.97711">
        <ele>394.5</ele>
        <time>2022-08-10T10:21:18Z</time>
      </trkpt>
      <trkpt lat="47.13842" lon="5.97713">
        <ele>393.4</ele>
        <time>2022-08-10T10:21:19Z</time>
      </trkpt>
      <trkpt lat="47.13851" lon="5.97715">
        <ele>392.9</ele>
        <time>2022-08-10T10:21:20Z</time>
      </trkpt>
      <trkpt lat="47.1386" lon="5.97717">
        <ele>392.3</ele>
        <time>2022-08-10T10:21:21Z</time>
      </trkpt>
      <trkpt lat="47.13869" lon="5.97718">
        <ele>391.7</ele>
        <time>2022-08-10T10:21:22Z</time>
      </trkpt>
      <trkpt lat="47.13877" lon="5.97719">
        <ele>390.8</ele>
        <time>2022-08-10T10:21:23Z</time>
      </trkpt>
      <trkpt lat="47.13886" lon="5.9772">
        <ele>390.1</ele>
        <time>2022-08-10T10:21:24Z</time>
      </trkpt>
      <trkpt lat="47.13894" lon="5.97722">
        <ele>389.1</ele>
        <time>2022-08-10T10:21:25Z</time>
      </trkpt>
      <trkpt lat="47.13902" lon="5.97723">
        <ele>388.2</ele>
        <time>2022-08-10T10:21:26Z</time>
      </trkpt>
      <trkpt lat="47.13911" lon="5.97724">
        <ele>387.3</ele>
        <time>2022-08-10T10:21:27Z</time>
      </trkpt>
      <trkpt lat="47.13919" lon="5.97725">
        <ele>386.7</ele>
        <time>2022-08-10T10:21:28Z</time>
      </trkpt>
      <trkpt lat="47.13927" lon="5.97727">
        <ele>386</ele>
        <time>2022-08-10T10:21:29Z</time>
      </trkpt>
      <trkpt lat="47.13935" lon="5.97728">
        <ele>385.9</ele>
        <time>2022-08-10T10:21:30Z</time>
      </trkpt>
      <trkpt lat="47.13943" lon="5.97729">
        <ele>385.5</ele>
        <time>2022-08-10T10:21:31Z</time>
      </trkpt>
      <trkpt lat="47.13951" lon="5.97729">
        <ele>385.3</ele>
        <time>2022-08-10T10:21:32Z</time>
      </trkpt>
      <trkpt lat="47.13958" lon="5.97729">
        <ele>385.7</ele>
        <time>2022-08-10T10:21:33Z</time>
      </trkpt>
      <trkpt lat="47.13965" lon="5.97729">
        <ele>385.5</ele>
        <time>2022-08-10T10:21:34Z</time>
      </trkpt>
      <trkpt lat="47.13972" lon="5.97727">
        <ele>384.9</ele>
        <time>2022-08-10T10:21:35Z</time>
      </trkpt>
      <trkpt lat="47.13979" lon="5.97724">
        <ele>384.6</ele>
        <time>2022-08-10T10:21:36Z</time>
      </trkpt>
      <trkpt lat="47.13986" lon="5.97722">
        <ele>383.9</ele>
        <time>2022-08-10T10:21:37Z</time>
      </trkpt>
      <trkpt lat="47.13992" lon="5.97719">
        <ele>382.8</ele>
        <time>2022-08-10T10:21:38Z</time>
      </trkpt>
      <trkpt lat="47.13998" lon="5.97714">
        <ele>382</ele>
        <time>2022-08-10T10:21:39Z</time>
      </trkpt>
      <trkpt lat="47.14002" lon="5.97707">
        <ele>380.7</ele>
        <time>2022-08-10T10:21:40Z</time>
      </trkpt>
      <trkpt lat="47.14005" lon="5.97699">
        <ele>379.9</ele>
        <time>2022-08-10T10:21:41Z</time>
      </trkpt>
      <trkpt lat="47.14007" lon="5.97689">
        <ele>378.7</ele>
        <time>2022-08-10T10:21:42Z</time>
      </trkpt>
      <trkpt lat="47.14007" lon="5.97679">
        <ele>377.9</ele>
        <time>2022-08-10T10:21:43Z</time>
      </trkpt>
      <trkpt lat="47.14006" lon="5.97669">
        <ele>377.2</ele>
        <time>2022-08-10T10:21:44Z</time>
      </trkpt>
      <trkpt lat="47.14004" lon="5.97659">
        <ele>376.6</ele>
        <time>2022-08-10T10:21:45Z</time>
      </trkpt>
      <trkpt lat="47.14001" lon="5.97649">
        <ele>375.8</ele>
        <time>2022-08-10T10:21:46Z</time>
      </trkpt>
      <trkpt lat="47.13998" lon="5.97638">
        <ele>375.3</ele>
        <time>2022-08-10T10:21:47Z</time>
      </trkpt>
      <trkpt lat="47.13996" lon="5.97628">
        <ele>375</ele>
        <time>2022-08-10T10:21:48Z</time>
      </trkpt>
      <trkpt lat="47.13994" lon="5.97617">
        <ele>374.7</ele>
        <time>2022-08-10T10:21:49Z</time>
      </trkpt>
      <trkpt lat="47.13993" lon="5.97607">
        <ele>374.6</ele>
        <time>2022-08-10T10:21:50Z</time>
      </trkpt>
      <trkpt lat="47.13993" lon="5.97596">
        <ele>374.3</ele>
        <time>2022-08-10T10:21:51Z</time>
      </trkpt>
      <trkpt lat="47.13994" lon="5.97584">
        <ele>374</ele>
        <time>2022-08-10T10:21:52Z</time>
      </trkpt>
      <trkpt lat="47.13995" lon="5.97572">
        <ele>373.5</ele>
        <time>2022-08-10T10:21:53Z</time>
      </trkpt>
      <trkpt lat="47.13996" lon="5.97561">
        <ele>373.4</ele>
        <time>2022-08-10T10:21:54Z</time>
      </trkpt>
      <trkpt lat="47.13999" lon="5.9755">
        <ele>373.2</ele>
        <time>2022-08-10T10:21:55Z</time>
      </trkpt>
      <trkpt lat="47.14001" lon="5.97539">
        <ele>373.2</ele>
        <time>2022-08-10T10:21:56Z</time>
      </trkpt>
      <trkpt lat="47.14004" lon="5.97528">
        <ele>372.7</ele>
        <time>2022-08-10T10:21:57Z</time>
      </trkpt>
      <trkpt lat="47.14006" lon="5.97517">
        <ele>372.3</ele>
        <time>2022-08-10T10:21:58Z</time>
      </trkpt>
      <trkpt lat="47.14008" lon="5.97506">
        <ele>371.8</ele>
        <time>2022-08-10T10:21:59Z</time>
      </trkpt>
      <trkpt lat="47.14011" lon="5.97494">
        <ele>371.3</ele>
        <time>2022-08-10T10:22:00Z</time>
      </trkpt>
      <trkpt lat="47.14013" lon="5.97483">
        <ele>371</ele>
        <time>2022-08-10T10:22:01Z</time>
      </trkpt>
      <trkpt lat="47.14015" lon="5.97471">
        <ele>370.5</ele>
        <time>2022-08-10T10:22:02Z</time>
      </trkpt>
      <trkpt lat="47.14017" lon="5.97458">
        <ele>369.6</ele>
        <time>2022-08-10T10:22:03Z</time>
      </trkpt>
      <trkpt lat="47.14017" lon="5.97445">
        <ele>368.9</ele>
        <time>2022-08-10T10:22:04Z</time>
      </trkpt>
      <trkpt lat="47.14015" lon="5.97432">
        <ele>368</ele>
        <time>2022-08-10T10:22:05Z</time>
      </trkpt>
      <trkpt lat="47.14011" lon="5.9742">
        <ele>367</ele>
        <time>2022-08-10T10:22:06Z</time>
      </trkpt>
      <trkpt lat="47.14005" lon="5.97409">
        <ele>366.3</ele>
        <time>2022-08-10T10:22:07Z</time>
      </trkpt>
      <trkpt lat="47.13999" lon="5.97397">
        <ele>365.1</ele>
        <time>2022-08-10T10:22:08Z</time>
      </trkpt>
      <trkpt lat="47.13994" lon="5.97384">
        <ele>364.2</ele>
        <time>2022-08-10T10:22:09Z</time>
      </trkpt>
      <trkpt lat="47.1399" lon="5.97369">
        <ele>363.4</ele>
        <time>2022-08-10T10:22:10Z</time>
      </trkpt>
      <trkpt lat="47.13986" lon="5.97354">
        <ele>362.5</ele>
        <time>2022-08-10T10:22:11Z</time>
      </trkpt>
      <trkpt lat="47.13983" lon="5.97338">
        <ele>361.5</ele>
        <time>2022-08-10T10:22:12Z</time>
      </trkpt>
      <trkpt lat="47.1398" lon="5.97322">
        <ele>360.7</ele>
        <time>2022-08-10T10:22:13Z</time>
      </trkpt>
      <trkpt lat="47.13977" lon="5.97306">
        <ele>359.8</ele>
        <time>2022-08-10T10:22:14Z</time>
      </trkpt>
      <trkpt lat="47.13971" lon="5.9729">
        <ele>358.6</ele>
        <time>2022-08-10T10:22:15Z</time>
      </trkpt>
      <trkpt lat="47.13963" lon="5.97278">
        <ele>357.7</ele>
        <time>2022-08-10T10:22:16Z</time>
      </trkpt>
      <trkpt lat="47.13952" lon="5.9727">
        <ele>356.9</ele>
        <time>2022-08-10T10:22:17Z</time>
      </trkpt>
      <trkpt lat="47.1394" lon="5.97264">
        <ele>356</ele>
        <time>2022-08-10T10:22:18Z</time>
      </trkpt>
      <trkpt lat="47.13929" lon="5.97258">
        <ele>355.3</ele>
        <time>2022-08-10T10:22:19Z</time>
      </trkpt>
      <trkpt lat="47.13917" lon="5.97252">
        <ele>354.4</ele>
        <time>2022-08-10T10:22:20Z</time>
      </trkpt>
      <trkpt lat="47.13907" lon="5.97246">
        <ele>353.5</ele>
        <time>2022-08-10T10:22:21Z</time>
      </trkpt>
      <trkpt lat="47.13896" lon="5.97241">
        <ele>352.8</ele>
        <time>2022-08-10T10:22:22Z</time>
      </trkpt>
      <trkpt lat="47.13887" lon="5.97236">
        <ele>352.4</ele>
        <time>2022-08-10T10:22:23Z</time>
      </trkpt>
      <trkpt lat="47.13878" lon="5.97233">
        <ele>351.9</ele>
        <time>2022-08-10T10:22:24Z</time>
      </trkpt>
      <trkpt lat="47.1387" lon="5.97232">
        <ele>351.1</ele>
        <time>2022-08-10T10:22:25Z</time>
      </trkpt>
      <trkpt lat="47.13862" lon="5.97233">
        <ele>350.4</ele>
        <time>2022-08-10T10:22:26Z</time>
      </trkpt>
      <trkpt lat="47.13856" lon="5.97241">
        <ele>349.5</ele>
        <time>2022-08-10T10:22:27Z</time>
      </trkpt>
      <trkpt lat="47.13849" lon="5.97249">
        <ele>349</ele>
        <time>2022-08-10T10:22:28Z</time>
      </trkpt>
      <trkpt lat="47.13843" lon="5.97257">
        <ele>348.8</ele>
        <time>2022-08-10T10:22:29Z</time>
      </trkpt>
      <trkpt lat="47.13837" lon="5.97264">
        <ele>348.8</ele>
        <time>2022-08-10T10:22:30Z</time>
      </trkpt>
      <trkpt lat="47.13832" lon="5.9727">
        <ele>348.7</ele>
        <time>2022-08-10T10:22:31Z</time>
      </trkpt>
      <trkpt lat="47.13827" lon="5.97275">
        <ele>348.8</ele>
        <time>2022-08-10T10:22:32Z</time>
      </trkpt>
      <trkpt lat="47.13823" lon="5.9728">
        <ele>349.3</ele>
        <time>2022-08-10T10:22:33Z</time>
      </trkpt>
      <trkpt lat="47.13819" lon="5.97284">
        <ele>349.8</ele>
        <time>2022-08-10T10:22:34Z</time>
      </trkpt>
      <trkpt lat="47.13816" lon="5.97288">
        <ele>350</ele>
        <time>2022-08-10T10:22:35Z</time>
      </trkpt>
      <trkpt lat="47.13812" lon="5.97291">
        <ele>350.3</ele>
        <time>2022-08-10T10:22:36Z</time>
      </trkpt>
      <trkpt lat="47.13809" lon="5.97295">
        <ele>350.9</ele>
        <time>2022-08-10T10:22:37Z</time>
      </trkpt>
      <trkpt lat="47.13807" lon="5.97298">
        <ele>351.5</ele>
        <time>2022-08-10T10:22:38Z</time>
      </trkpt>
      <trkpt lat="47.13804" lon="5.97301">
        <ele>352.3</ele>
        <time>2022-08-10T10:22:39Z</time>
      </trkpt>
      <trkpt lat="47.13802" lon="5.97304">
        <ele>352.9</ele>
        <time>2022-08-10T10:22:40Z</time>
      </trkpt>
      <trkpt lat="47.13802" lon="5.97308">
        <ele>352.9</ele>
        <time>2022-08-10T10:22:41Z</time>
      </trkpt>
      <trkpt lat="47.13803" lon="5.97312">
        <ele>353.7</ele>
        <time>2022-08-10T10:22:42Z</time>
      </trkpt>
      <trkpt lat="47.13804" lon="5.97314">
        <ele>354.5</ele>
        <time>2022-08-10T10:22:43Z</time>
      </trkpt>
      <trkpt lat="47.13806" lon="5.97316">
        <ele>355</ele>
        <time>2022-08-10T10:22:44Z</time>
      </trkpt>
      <trkpt lat="47.13808" lon="5.97318">
        <ele>356</ele>
        <time>2022-08-10T10:22:45Z</time>
      </trkpt>
      <trkpt lat="47.1381" lon="5.97321">
        <ele>356.8</ele>
        <time>2022-08-10T10:22:46Z</time>
      </trkpt>
      <trkpt lat="47.13811" lon="5.97325">
        <ele>357.6</ele>
        <time>2022-08-10T10:22:47Z</time>
      </trkpt>
      <trkpt lat="47.13811" lon="5.97328">
        <ele>358.3</ele>
        <time>2022-08-10T10:22:48Z</time>
      </trkpt>
      <trkpt lat="47.13811" lon="5.97331">
        <ele>359</ele>
        <time>2022-08-10T10:22:49Z</time>
      </trkpt>
      <trkpt lat="47.13812" lon="5.97332">
        <ele>359.5</ele>
        <time>2022-08-10T10:22:50Z</time>
      </trkpt>
      <trkpt lat="47.13813" lon="5.97332">
        <ele>360.1</ele>
        <time>2022-08-10T10:22:51Z</time>
      </trkpt>
      <trkpt lat="47.13813" lon="5.97332">
        <ele>360.5</ele>
        <time>2022-08-10T10:22:52Z</time>
      </trkpt>
      <trkpt lat="47.13813" lon="5.97332">
        <ele>361</ele>
        <time>2022-08-10T10:22:53Z</time>
      </trkpt>
      <trkpt lat="47.13813" lon="5.97332">
        <ele>361</ele>
        <time>2022-08-10T10:22:54Z</time>
      </trkpt>
      <trkpt lat="47.13813" lon="5.97332">
        <ele>361</ele>
        <time>2022-08-10T10:22:55Z</time>
      </trkpt>
      <trkpt lat="47.13813" lon="5.97332">
        <ele>361</ele>
        <time>2022-08-10T10:22:56Z</time>
      </trkpt>
      <trkpt lat="47.13813" lon="5.97332">
        <ele>361</ele>
        <time>2022-08-10T10:22:57Z</time>
      </trkpt>
      <trkpt lat="47.13813" lon="5.97332">
        <ele>361</ele>
        <time>2022-08-10T10:22:58Z</time>
      </trkpt>
      <trkpt lat="47.13813" lon="5.97332">
        <ele>361</ele>
        <time>2022-08-10T10:22:59Z</time>
      </trkpt>
      <trkpt lat="47.13813" lon="5.97332">
        <ele>361</ele>
        <time>2022-08-10T10:23:00Z</time>
      </trkpt>
      <trkpt lat="47.13813" lon="5.97332">
        <ele>361</ele>
        <time>2022-08-10T10:23:01Z</time>
      </trkpt>
      <trkpt lat="47.13813" lon="5.97332">
        <ele>361</ele>
        <time>2022-08-10T10:23:02Z</time>
      </trkpt>
      <trkpt lat="47.13813" lon="5.97332">
        <ele>361</ele>
        <time>2022-08-10T10:23:03Z</time>
      </trkpt>
      <trkpt lat="47.13813" lon="5.97332">
        <ele>361</ele>
        <time>2022-08-10T10:23:04Z</time>
      </trkpt>
      <trkpt lat="47.13813" lon="5.97332">
        <ele>361</ele>
        <time>2022-08-10T10:23:05Z</time>
      </trkpt>
      <trkpt lat="47.13813" lon="5.97332">
        <ele>361</ele>
        <time>2022-08-10T10:23:06Z</time>
      </trkpt>
      <trkpt lat="47.13813" lon="5.97332">
        <ele>361</ele>
        <time>2022-08-10T10:23:07Z</time>
      </trkpt>
      <trkpt lat="47.13813" lon="5.97332">
        <ele>361</ele>
        <time>2022-08-10T10:23:08Z</time>
      </trkpt>
      <trkpt lat="47.13813" lon="5.97332">
        <ele>361</ele>
        <time>2022-08-10T10:23:09Z</time>
      </trkpt>
      <trkpt lat="47.13813" lon="5.97332">
        <ele>361</ele>
        <time>2022-08-10T10:23:10Z</time>
      </trkpt>
      <trkpt lat="47.13813" lon="5.97332">
        <ele>361</ele>
        <time>2022-08-10T10:23:11Z</time>
      </trkpt>
      <trkpt lat="47.13813" lon="5.97332">
        <ele>361</ele>
        <time>2022-08-10T10:23:12Z</time>
      </trkpt>
      <trkpt lat="47.13813" lon="5.97332">
        <ele>361</ele>
        <time>2022-08-10T10:23:13Z</time>
      </trkpt>
      <trkpt lat="47.13813" lon="5.97332">
        <ele>361</ele>
        <time>2022-08-10T10:23:14Z</time>
      </trkpt>
      <trkpt lat="47.13813" lon="5.97332">
        <ele>361</ele>
        <time>2022-08-10T10:23:15Z</time>
      </trkpt>
      <trkpt lat="47.13813" lon="5.97332">
        <ele>361</ele>
        <time>2022-08-10T10:23:16Z</time>
      </trkpt>
      <trkpt lat="47.13813" lon="5.97332">
        <ele>361</ele>
        <time>2022-08-10T10:23:17Z</time>
      </trkpt>
      <trkpt lat="47.13813" lon="5.97332">
        <ele>361</ele>
        <time>2022-08-10T10:23:18Z</time>
      </trkpt>
      <trkpt lat="47.13813" lon="5.97332">
        <ele>361</ele>
        <time>2022-08-10T10:23:19Z</time>
      </trkpt>
      <trkpt lat="47.13813" lon="5.97332">
        <ele>361</ele>
        <time>2022-08-10T10:23:20Z</time>
      </trkpt>
      <trkpt lat="47.13813" lon="5.97332">
        <ele>361</ele>
        <time>2022-08-10T10:23:21Z</time>
      </trkpt>
      <trkpt lat="47.13813" lon="5.97332">
        <ele>361</ele>
        <time>2022-08-10T10:23:22Z</time>
      </trkpt>
      <trkpt lat="47.13813" lon="5.97332">
        <ele>361</ele>
        <time>2022-08-10T10:23:23Z</time>
      </trkpt>
      <trkpt lat="47.13813" lon="5.97332">
        <ele>361</ele>
        <time>2022-08-10T10:23:24Z</time>
      </trkpt>
      <trkpt lat="47.13813" lon="5.97332">
        <ele>361</ele>
        <time>2022-08-10T10:23:25Z</time>
      </trkpt>
      <trkpt lat="47.13813" lon="5.97332">
        <ele>361</ele>
        <time>2022-08-10T10:23:26Z</time>
      </trkpt>
      <trkpt lat="47.13813" lon="5.97332">
        <ele>361</ele>
        <time>2022-08-10T10:23:27Z</time>
      </trkpt>
      <trkpt lat="47.13813" lon="5.97332">
        <ele>361</ele>
        <time>2022-08-10T10:23:28Z</time>
      </trkpt>
      <trkpt lat="47.13813" lon="5.97332">
        <ele>361</ele>
        <time>2022-08-10T10:23:29Z</time>
      </trkpt>
      <trkpt lat="47.13813" lon="5.97332">
        <ele>361</ele>
        <time>2022-08-10T10:23:30Z</time>
      </trkpt>
      <trkpt lat="47.13813" lon="5.97332">
        <ele>361</ele>
        <time>2022-08-10T10:23:31Z</time>
      </trkpt>
      <trkpt lat="47.13813" lon="5.97332">
        <ele>361</ele>
        <time>2022-08-10T10:23:32Z</time>
      </trkpt>
      <trkpt lat="47.13813" lon="5.97332">
        <ele>361</ele>
        <time>2022-08-10T10:23:33Z</time>
      </trkpt>
      <trkpt lat="47.13813" lon="5.97332">
        <ele>361</ele>
        <time>2022-08-10T10:23:34Z</time>
      </trkpt>
      <trkpt lat="47.13813" lon="5.97332">
        <ele>361</ele>
        <time>2022-08-10T10:23:35Z</time>
      </trkpt>
      <trkpt lat="47.13813" lon="5.97332">
        <ele>361</ele>
        <time>2022-08-10T10:23:36Z</time>
      </trkpt>
      <trkpt lat="47.13813" lon="5.97332">
        <ele>361</ele>
        <time>2022-08-10T10:23:37Z</time>
      </trkpt>
      <trkpt lat="47.13813" lon="5.97332">
        <ele>361</ele>
        <time>2022-08-10T10:23:38Z</time>
      </trkpt>
      <trkpt lat="47.13813" lon="5.97332">
        <ele>361</ele>
        <time>2022-08-10T10:23:39Z</time>
      </trkpt>
      <trkpt lat="47.13813" lon="5.97332">
        <ele>361</ele>
        <time>2022-08-10T10:23:40Z</time>
      </trkpt>
      <trkpt lat="47.13813" lon="5.97332">
        <ele>361</ele>
        <time>2022-08-10T10:23:41Z</time>
      </trkpt>
      <trkpt lat="47.13813" lon="5.97332">
        <ele>361</ele>
        <time>2022-08-10T10:23:42Z</time>
      </trkpt>
      <trkpt lat="47.13813" lon="5.97332">
        <ele>361</ele>
        <time>2022-08-10T10:23:43Z</time>
      </trkpt>
      <trkpt lat="47.13813" lon="5.97332">
        <ele>361</ele>
        <time>2022-08-10T10:23:44Z</time>
      </trkpt>
      <trkpt lat="47.13813" lon="5.97332">
        <ele>361</ele>
        <time>2022-08-10T10:23:45Z</time>
      </trkpt>
      <trkpt lat="47.13813" lon="5.97332">
        <ele>361</ele>
        <time>2022-08-10T10:23:46Z</time>
      </trkpt>
      <trkpt lat="47.13813" lon="5.97332">
        <ele>361</ele>
        <time>2022-08-10T10:23:47Z</time>
      </trkpt>
      <trkpt lat="47.13813" lon="5.97332">
        <ele>361</ele>
        <time>2022-08-10T10:23:48Z</time>
      </trkpt>
      <trkpt lat="47.13813" lon="5.97332">
        <ele>361</ele>
        <time>2022-08-10T10:23:49Z</time>
      </trkpt>
      <trkpt lat="47.13813" lon="5.97332">
        <ele>361</ele>
        <time>2022-08-10T10:23:50Z</time>
      </trkpt>
      <trkpt lat="47.13813" lon="5.97332">
        <ele>361</ele>
        <time>2022-08-10T10:23:51Z</time>
      </trkpt>
      <trkpt lat="47.13813" lon="5.97332">
        <ele>361</ele>
        <time>2022-08-10T10:23:52Z</time>
      </trkpt>
      <trkpt lat="47.13813" lon="5.97332">
        <ele>361</ele>
        <time>2022-08-10T10:23:53Z</time>
      </trkpt>
      <trkpt lat="47.13813" lon="5.97332">
        <ele>361</ele>
        <time>2022-08-10T10:23:54Z</time>
      </trkpt>
      <trkpt lat="47.13813" lon="5.97332">
        <ele>361</ele>
        <time>2022-08-10T10:23:55Z</time>
      </trkpt>
      <trkpt lat="47.13813" lon="5.97332">
        <ele>361</ele>
        <time>2022-08-10T10:23:56Z</time>
      </trkpt>
      <trkpt lat="47.13813" lon="5.97332">
        <ele>361</ele>
        <time>2022-08-10T10:23:57Z</time>
      </trkpt>
      <trkpt lat="47.13813" lon="5.97332">
        <ele>361</ele>
        <time>2022-08-10T10:23:58Z</time>
      </trkpt>
      <trkpt lat="47.13813" lon="5.97332">
        <ele>361</ele>
        <time>2022-08-10T10:23:59Z</time>
      </trkpt>
      <trkpt lat="47.13813" lon="5.97332">
        <ele>361</ele>
        <time>2022-08-10T10:24:00Z</time>
      </trkpt>
      <trkpt lat="47.13813" lon="5.97332">
        <ele>361</ele>
        <time>2022-08-10T10:24:01Z</time>
      </trkpt>
      <trkpt lat="47.13813" lon="5.97332">
        <ele>361</ele>
        <time>2022-08-10T10:24:02Z</time>
      </trkpt>
      <trkpt lat="47.13813" lon="5.97332">
        <ele>361</ele>
        <time>2022-08-10T10:24:03Z</time>
      </trkpt>
      <trkpt lat="47.13813" lon="5.97332">
        <ele>361</ele>
        <time>2022-08-10T10:24:04Z</time>
      </trkpt>
      <trkpt lat="47.13813" lon="5.97332">
        <ele>361</ele>
        <time>2022-08-10T10:24:05Z</time>
      </trkpt>
      <trkpt lat="47.13813" lon="5.97332">
        <ele>361</ele>
        <time>2022-08-10T10:24:06Z</time>
      </trkpt>
      <trkpt lat="47.13813" lon="5.97332">
        <ele>361</ele>
        <time>2022-08-10T10:24:07Z</time>
      </trkpt>
      <trkpt lat="47.13813" lon="5.97332">
        <ele>361</ele>
        <time>2022-08-10T10:24:08Z</time>
      </trkpt>
      <trkpt lat="47.13813" lon="5.97332">
        <ele>361</ele>
        <time>2022-08-10T10:24:09Z</time>
      </trkpt>
      <trkpt lat="47.13813" lon="5.97332">
        <ele>361</ele>
        <time>2022-08-10T10:24:10Z</time>
      </trkpt>
      <trkpt lat="47.13813" lon="5.97332">
        <ele>361</ele>
        <time>2022-08-10T10:24:11Z</time>
      </trkpt>
      <trkpt lat="47.13813" lon="5.97332">
        <ele>361</ele>
        <time>2022-08-10T10:24:12Z</time>
      </trkpt>
      <trkpt lat="47.13813" lon="5.97332">
        <ele>361</ele>
        <time>2022-08-10T10:24:13Z</time>
      </trkpt>
      <trkpt lat="47.13813" lon="5.97332">
        <ele>361</ele>
        <time>2022-08-10T10:24:14Z</time>
      </trkpt>
      <trkpt lat="47.13813" lon="5.97332">
        <ele>361</ele>
        <time>2022-08-10T10:24:15Z</time>
      </trkpt>
      <trkpt lat="47.13813" lon="5.97332">
        <ele>361</ele>
        <time>2022-08-10T10:24:16Z</time>
      </trkpt>
      <trkpt lat="47.13813" lon="5.97332">
        <ele>361</ele>
        <time>2022-08-10T10:24:17Z</time>
      </trkpt>
      <trkpt lat="47.13813" lon="5.97332">
        <ele>361</ele>
        <time>2022-08-10T10:24:18Z</time>
      </trkpt>
      <trkpt lat="47.13813" lon="5.97332">
        <ele>361</ele>
        <time>2022-08-10T10:24:19Z</time>
      </trkpt>
      <trkpt lat="47.13813" lon="5.97332">
        <ele>361</ele>
        <time>2022-08-10T10:24:20Z</time>
      </trkpt>
      <trkpt lat="47.13813" lon="5.97332">
        <ele>361</ele>
        <time>2022-08-10T10:24:21Z</time>
      </trkpt>
      <trkpt lat="47.13813" lon="5.97332">
        <ele>361</ele>
        <time>2022-08-10T10:24:22Z</time>
      </trkpt>
      <trkpt lat="47.13813" lon="5.97332">
        <ele>361</ele>
        <time>2022-08-10T10:24:23Z</time>
      </trkpt>
      <trkpt lat="47.13813" lon="5.97332">
        <ele>361</ele>
        <time>2022-08-10T10:24:24Z</time>
      </trkpt>
      <trkpt lat="47.13813" lon="5.97332">
        <ele>361</ele>
        <time>2022-08-10T10:24:25Z</time>
      </trkpt>
      <trkpt lat="47.13813" lon="5.97332">
        <ele>361</ele>
        <time>2022-08-10T10:24:26Z</time>
      </trkpt>
      <trkpt lat="47.13813" lon="5.97332">
        <ele>361</ele>
        <time>2022-08-10T10:24:27Z</time>
      </trkpt>
      <trkpt lat="47.13813" lon="5.97332">
        <ele>361</ele>
        <time>2022-08-10T10:24:28Z</time>
      </trkpt>
      <trkpt lat="47.13813" lon="5.97332">
        <ele>361</ele>
        <time>2022-08-10T10:24:29Z</time>
      </trkpt>
      <trkpt lat="47.13813" lon="5.97332">
        <ele>361</ele>
        <time>2022-08-10T10:24:30Z</time>
      </trkpt>
      <trkpt lat="47.13813" lon="5.97332">
        <ele>361</ele>
        <time>2022-08-10T10:24:31Z</time>
      </trkpt>
      <trkpt lat="47.13813" lon="5.97332">
        <ele>361</ele>
        <time>2022-08-10T10:24:32Z</time>
      </trkpt>
      <trkpt lat="47.13813" lon="5.97332">
        <ele>361</ele>
        <time>2022-08-10T10:24:33Z</time>
      </trkpt>
      <trkpt lat="47.13813" lon="5.97332">
        <ele>361</ele>
        <time>2022-08-10T10:24:34Z</time>
      </trkpt>
      <trkpt lat="47.13813" lon="5.97332">
        <ele>361</ele>
        <time>2022-08-10T10:24:35Z</time>
      </trkpt>
      <trkpt lat="47.13813" lon="5.97332">
        <ele>361</ele>
        <time>2022-08-10T10:24:36Z</time>
      </trkpt>
      <trkpt lat="47.13813" lon="5.97332">
        <ele>361</ele>
        <time>2022-08-10T10:24:37Z</time>
      </trkpt>
      <trkpt lat="47.13813" lon="5.97332">
        <ele>361</ele>
        <time>2022-08-10T10:24:38Z</time>
      </trkpt>
      <trkpt lat="47.13813" lon="5.97332">
        <ele>361</ele>
        <time>2022-08-10T10:24:39Z</time>
      </trkpt>
      <trkpt lat="47.13813" lon="5.97332">
        <ele>361</ele>
        <time>2022-08-10T10:24:40Z</time>
      </trkpt>
      <trkpt lat="47.13813" lon="5.97332">
        <ele>361</ele>
        <time>2022-08-10T10:24:41Z</time>
      </trkpt>
      <trkpt lat="47.13813" lon="5.97332">
        <ele>361</ele>
        <time>2022-08-10T10:24:42Z</time>
      </trkpt>
      <trkpt lat="47.13813" lon="5.97332">
        <ele>361</ele>
        <time>2022-08-10T10:24:43Z</time>
      </trkpt>
      <trkpt lat="47.13813" lon="5.97332">
        <ele>361</ele>
        <time>2022-08-10T10:24:44Z</time>
      </trkpt>
      <trkpt lat="47.13813" lon="5.97332">
        <ele>361</ele>
        <time>2022-08-10T10:24:45Z</time>
      </trkpt>
      <trkpt lat="47.13813" lon="5.97332">
        <ele>361</ele>
        <time>2022-08-10T10:24:46Z</time>
      </trkpt>
      <trkpt lat="47.13813" lon="5.97332">
        <ele>361</ele>
        <time>2022-08-10T10:24:47Z</time>
      </trkpt>
      <trkpt lat="47.13813" lon="5.97332">
        <ele>361</ele>
        <time>2022-08-10T10:24:48Z</time>
      </trkpt>
      <trkpt lat="47.13813" lon="5.97332">
        <ele>361</ele>
        <time>2022-08-10T10:24:49Z</time>
      </trkpt>
      <trkpt lat="47.13813" lon="5.97332">
        <ele>361</ele>
        <time>2022-08-10T10:24:50Z</time>
      </trkpt>
      <trkpt lat="47.13813" lon="5.97332">
        <ele>361</ele>
        <time>2022-08-10T10:24:51Z</time>
      </trkpt>
      <trkpt lat="47.13813" lon="5.97332">
        <ele>361</ele>
        <time>2022-08-10T10:24:52Z</time>
      </trkpt>
      <trkpt lat="47.13813" lon="5.97332">
        <ele>361</ele>
        <time>2022-08-10T10:24:53Z</time>
      </trkpt>
      <trkpt lat="47.13813" lon="5.97332">
        <ele>361</ele>
        <time>2022-08-10T10:24:54Z</time>
      </trkpt>
      <trkpt lat="47.13813" lon="5.97332">
        <ele>361</ele>
        <time>2022-08-10T10:24:55Z</time>
      </trkpt>
      <trkpt lat="47.13813" lon="5.97332">
        <ele>361</ele>
        <time>2022-08-10T10:24:56Z</time>
      </trkpt>
      <trkpt lat="47.13813" lon="5.97332">
        <ele>361</ele>
        <time>2022-08-10T10:24:57Z</time>
      </trkpt>
      <trkpt lat="47.13813" lon="5.97332">
        <ele>361</ele>
        <time>2022-08-10T10:24:58Z</time>
      </trkpt>
      <trkpt lat="47.13813" lon="5.97332">
        <ele>361</ele>
        <time>2022-08-10T10:24:59Z</time>
      </trkpt>
      <trkpt lat="47.13813" lon="5.97332">
        <ele>361</ele>
        <time>2022-08-10T10:25:00Z</time>
      </trkpt>
      <trkpt lat="47.13813" lon="5.97332">
        <ele>361</ele>
        <time>2022-08-10T10:25:01Z</time>
      </trkpt>
      <trkpt lat="47.13813" lon="5.97332">
        <ele>361</ele>
        <time>2022-08-10T10:25:02Z</time>
      </trkpt>
      <trkpt lat="47.13813" lon="5.97332">
        <ele>361</ele>
        <time>2022-08-10T10:25:03Z</time>
      </trkpt>
      <trkpt lat="47.13813" lon="5.97332">
        <ele>361</ele>
        <time>2022-08-10T10:25:04Z</time>
      </trkpt>
      <trkpt lat="47.13813" lon="5.97332">
        <ele>361</ele>
        <time>2022-08-10T10:25:05Z</time>
      </trkpt>
      <trkpt lat="47.13813" lon="5.97332">
        <ele>361</ele>
        <time>2022-08-10T10:25:07Z</time>
      </trkpt>
      <trkpt lat="47.13813" lon="5.97332">
        <ele>361</ele>
        <time>2022-08-10T10:25:08Z</time>
      </trkpt>
      <trkpt lat="47.13813" lon="5.97332">
        <ele>361</ele>
        <time>2022-08-10T10:25:09Z</time>
      </trkpt>
      <trkpt lat="47.13813" lon="5.97332">
        <ele>361</ele>
        <time>2022-08-10T10:25:10Z</time>
      </trkpt>
      <trkpt lat="47.13813" lon="5.97332">
        <ele>361</ele>
        <time>2022-08-10T10:25:11Z</time>
      </trkpt>
      <trkpt lat="47.13813" lon="5.97332">
        <ele>361</ele>
        <time>2022-08-10T10:25:12Z</time>
      </trkpt>
      <trkpt lat="47.13813" lon="5.97332">
        <ele>361</ele>
        <time>2022-08-10T10:25:13Z</time>
      </trkpt>
      <trkpt lat="47.13813" lon="5.97332">
        <ele>361</ele>
        <time>2022-08-10T10:25:14Z</time>
      </trkpt>
      <trkpt lat="47.13813" lon="5.97332">
        <ele>361</ele>
        <time>2022-08-10T10:25:15Z</time>
      </trkpt>
      <trkpt lat="47.13813" lon="5.97332">
        <ele>361</ele>
        <time>2022-08-10T10:25:16Z</time>
      </trkpt>
      <trkpt lat="47.13813" lon="5.97332">
        <ele>361</ele>
        <time>2022-08-10T10:25:17Z</time>
      </trkpt>
      <trkpt lat="47.13813" lon="5.97332">
        <ele>361</ele>
        <time>2022-08-10T10:25:18Z</time>
      </trkpt>
      <trkpt lat="47.13813" lon="5.97332">
        <ele>361</ele>
        <time>2022-08-10T10:25:19Z</time>
      </trkpt>
      <trkpt lat="47.13813" lon="5.97332">
        <ele>361</ele>
        <time>2022-08-10T10:25:20Z</time>
      </trkpt>
      <trkpt lat="47.13813" lon="5.97332">
        <ele>361</ele>
        <time>2022-08-10T10:25:21Z</time>
      </trkpt>
      <trkpt lat="47.13813" lon="5.97332">
        <ele>361</ele>
        <time>2022-08-10T10:25:22Z</time>
      </trkpt>
      <trkpt lat="47.13813" lon="5.97332">
        <ele>361</ele>
        <time>2022-08-10T10:25:23Z</time>
      </trkpt>
      <trkpt lat="47.13813" lon="5.97332">
        <ele>361</ele>
        <time>2022-08-10T10:25:24Z</time>
      </trkpt>
      <trkpt lat="47.13813" lon="5.97332">
        <ele>361</ele>
        <time>2022-08-10T10:25:25Z</time>
      </trkpt>
      <trkpt lat="47.13813" lon="5.97332">
        <ele>361</ele>
        <time>2022-08-10T10:25:26Z</time>
      </trkpt>
      <trkpt lat="47.13813" lon="5.97332">
        <ele>361</ele>
        <time>2022-08-10T10:25:27Z</time>
      </trkpt>
      <trkpt lat="47.13813" lon="5.97332">
        <ele>361</ele>
        <time>2022-08-10T10:25:28Z</time>
      </trkpt>
      <trkpt lat="47.13813" lon="5.97332">
        <ele>361</ele>
        <time>2022-08-10T10:25:29Z</time>
      </trkpt>
      <trkpt lat="47.13813" lon="5.97332">
        <ele>361</ele>
        <time>2022-08-10T10:25:30Z</time>
      </trkpt>
      <trkpt lat="47.13813" lon="5.97332">
        <ele>361</ele>
        <time>2022-08-10T10:25:31Z</time>
      </trkpt>
      <trkpt lat="47.13813" lon="5.97332">
        <ele>361</ele>
        <time>2022-08-10T10:25:32Z</time>
      </trkpt>
      <trkpt lat="47.13813" lon="5.97332">
        <ele>361</ele>
        <time>2022-08-10T10:25:33Z</time>
      </trkpt>
      <trkpt lat="47.13813" lon="5.97332">
        <ele>361</ele>
        <time>2022-08-10T10:25:34Z</time>
      </trkpt>
      <trkpt lat="47.13813" lon="5.97332">
        <ele>361</ele>
        <time>2022-08-10T10:25:35Z</time>
      </trkpt>
      <trkpt lat="47.13813" lon="5.97332">
        <ele>361</ele>
        <time>2022-08-10T10:25:36Z</time>
      </trkpt>
      <trkpt lat="47.13813" lon="5.97332">
        <ele>361</ele>
        <time>2022-08-10T10:25:37Z</time>
      </trkpt>
      <trkpt lat="47.13813" lon="5.97332">
        <ele>361</ele>
        <time>2022-08-10T10:25:38Z</time>
      </trkpt>
      <trkpt lat="47.13813" lon="5.97332">
        <ele>361</ele>
        <time>2022-08-10T10:25:39Z</time>
      </trkpt>
      <trkpt lat="47.13813" lon="5.97332">
        <ele>361</ele>
        <time>2022-08-10T10:25:40Z</time>
      </trkpt>
      <trkpt lat="47.13813" lon="5.97332">
        <ele>361</ele>
        <time>2022-08-10T10:25:41Z</time>
      </trkpt>
      <trkpt lat="47.13813" lon="5.97332">
        <ele>361</ele>
        <time>2022-08-10T10:25:42Z</time>
      </trkpt>
      <trkpt lat="47.13813" lon="5.97332">
        <ele>361</ele>
        <time>2022-08-10T10:25:43Z</time>
      </trkpt>
      <trkpt lat="47.13813" lon="5.97332">
        <ele>361</ele>
        <time>2022-08-10T10:25:44Z</time>
      </trkpt>
      <trkpt lat="47.13813" lon="5.97332">
        <ele>361</ele>
        <time>2022-08-10T10:25:45Z</time>
      </trkpt>
      <trkpt lat="47.13813" lon="5.97332">
        <ele>361</ele>
        <time>2022-08-10T10:25:46Z</time>
      </trkpt>
      <trkpt lat="47.13813" lon="5.97332">
        <ele>361</ele>
        <time>2022-08-10T10:25:47Z</time>
      </trkpt>
      <trkpt lat="47.13813" lon="5.97332">
        <ele>361</ele>
        <time>2022-08-10T10:25:48Z</time>
      </trkpt>
      <trkpt lat="47.13813" lon="5.97332">
        <ele>361</ele>
        <time>2022-08-10T10:25:49Z</time>
      </trkpt>
      <trkpt lat="47.13813" lon="5.97332">
        <ele>361</ele>
        <time>2022-08-10T10:25:50Z</time>
      </trkpt>
      <trkpt lat="47.13813" lon="5.97332">
        <ele>361</ele>
        <time>2022-08-10T10:25:51Z</time>
      </trkpt>
      <trkpt lat="47.13813" lon="5.97332">
        <ele>361</ele>
        <time>2022-08-10T10:25:52Z</time>
      </trkpt>
      <trkpt lat="47.13813" lon="5.97332">
        <ele>361</ele>
        <time>2022-08-10T10:25:53Z</time>
      </trkpt>
      <trkpt lat="47.13813" lon="5.97332">
        <ele>361</ele>
        <time>2022-08-10T10:25:54Z</time>
      </trkpt>
    </trkseg>
  </trk>
</gpx>